<?xml version="1.0" encoding="UTF-8" standalone="no" ?>
<gpx xmlns="http://www.topografix.com/GPX/1/1" xmlns:xsi="http://www.w3.org/2001/XMLSchema-instance" xsi:schemaLocation="http://www.topografix.com/GPX/1/1 http://www.topografix.com/GPX/1/1/gpx.xsd" version="1.1" creator="VisuGPX - https://www.visugpx.com">
  <metadata>
    <name>WE morbihan</name>
    <desc><![CDATA[<p>Heure de départ: 11:59 27 mai 2021<br/>Heure d'arrivée: 17:40 27 mai 2021<br/>Distance: 57,4 km (05:40)<br/>Temps déplacement: 05:02<br/>Vitesse moyenne: 10,1 km/h<br/>Vitesse moyenne mouv.: 11,38 km/h<br/>Vitesse Max.: 33,89 km/h<br/>Altitude minimale: 6 m<br/>Altitude maximale: 79 m<br/>Vitesse de montée: 452,3 m/h<br/>Vitesse de descente: 719,6 m/h<br/>Gain d'altitude: 889 m<br/>Perte d'altitude: 827 m<br/>Temps de montée: 01:58<br/>Temps de descente: 01:08<br/></p><hr align="center" width="480" style="height: 2px; width: 517px"/>]]></desc>
  </metadata>
  <wpt lat="47.78196" lon="-1.85208">
    <ele>24.6</ele>
    <name><![CDATA[Etang Et Bois de Baron]]></name>
    <type><![CDATA[user]]></type>
  </wpt>
  <wpt lat="47.67922" lon="-2.23788">
    <ele>50.3</ele>
    <name><![CDATA[Moulin de La Vallée]]></name>
    <type><![CDATA[user]]></type>
  </wpt>
  <wpt lat="47.68392" lon="-2.21412">
    <ele>50.6</ele>
    <name><![CDATA[Parking]]></name>
    <type><![CDATA[user]]></type>
  </wpt>
  <wpt lat="47.77541" lon="-1.83879">
    <ele>4.7</ele>
    <name><![CDATA[pont de Boeuvre]]></name>
    <type><![CDATA[user]]></type>
  </wpt>
  <trk>
    <name><![CDATA[Retour StJct]]></name>
    <desc><![CDATA[<p>Heure de départ: 11:59 27 mai 2021<br/>Heure d'arrivée: 17:40 27 mai 2021<br/>Distance: 57,4 km (05:40)<br/>Temps déplacement: 05:02<br/>Vitesse moyenne: 10,1 km/h<br/>Vitesse moyenne mouv.: 11,38 km/h<br/>Vitesse Max.: 33,89 km/h<br/>Altitude minimale: 6 m<br/>Altitude maximale: 79 m<br/>Vitesse de montée: 452,3 m/h<br/>Vitesse de descente: 719,6 m/h<br/>Gain d'altitude: 889 m<br/>Perte d'altitude: 827 m<br/>Temps de montée: 01:58<br/>Temps de descente: 01:08<br/></p><hr align="center" width="480" style="height: 2px; width: 517px"/>]]></desc>
    <trkseg>
      <trkpt lat="47.70627" lon="-2.36567">
        <ele>66.1</ele>
        <time>2021-05-27T12:05:57Z</time>
      </trkpt>
      <trkpt lat="47.70628" lon="-2.36565">
        <ele>66.2</ele>
        <time>2021-05-27T12:05:58Z</time>
      </trkpt>
      <trkpt lat="47.70629" lon="-2.36563">
        <ele>66.3</ele>
        <time>2021-05-27T12:05:59Z</time>
      </trkpt>
      <trkpt lat="47.70629" lon="-2.36561">
        <ele>66.4</ele>
        <time>2021-05-27T12:06:00Z</time>
      </trkpt>
      <trkpt lat="47.7063" lon="-2.36558">
        <ele>66.5</ele>
        <time>2021-05-27T12:06:01Z</time>
      </trkpt>
      <trkpt lat="47.7063" lon="-2.36556">
        <ele>66.5</ele>
        <time>2021-05-27T12:06:02Z</time>
      </trkpt>
      <trkpt lat="47.7063" lon="-2.36553">
        <ele>66.7</ele>
        <time>2021-05-27T12:06:03Z</time>
      </trkpt>
      <trkpt lat="47.70631" lon="-2.3655">
        <ele>66.8</ele>
        <time>2021-05-27T12:06:04Z</time>
      </trkpt>
      <trkpt lat="47.70632" lon="-2.36545">
        <ele>67</ele>
        <time>2021-05-27T12:06:05Z</time>
      </trkpt>
      <trkpt lat="47.70632" lon="-2.36541">
        <ele>67.1</ele>
        <time>2021-05-27T12:06:06Z</time>
      </trkpt>
      <trkpt lat="47.70633" lon="-2.36536">
        <ele>67.3</ele>
        <time>2021-05-27T12:06:07Z</time>
      </trkpt>
      <trkpt lat="47.70634" lon="-2.36532">
        <ele>67.6</ele>
        <time>2021-05-27T12:06:08Z</time>
      </trkpt>
      <trkpt lat="47.70636" lon="-2.36528">
        <ele>67.8</ele>
        <time>2021-05-27T12:06:09Z</time>
      </trkpt>
      <trkpt lat="47.70637" lon="-2.36524">
        <ele>68.1</ele>
        <time>2021-05-27T12:06:10Z</time>
      </trkpt>
      <trkpt lat="47.70638" lon="-2.36519">
        <ele>68.2</ele>
        <time>2021-05-27T12:06:11Z</time>
      </trkpt>
      <trkpt lat="47.70638" lon="-2.36515">
        <ele>68.3</ele>
        <time>2021-05-27T12:06:12Z</time>
      </trkpt>
      <trkpt lat="47.70639" lon="-2.3651">
        <ele>68.6</ele>
        <time>2021-05-27T12:06:13Z</time>
      </trkpt>
      <trkpt lat="47.70639" lon="-2.36507">
        <ele>68.7</ele>
        <time>2021-05-27T12:06:14Z</time>
      </trkpt>
      <trkpt lat="47.70639" lon="-2.36503">
        <ele>68.6</ele>
        <time>2021-05-27T12:06:15Z</time>
      </trkpt>
      <trkpt lat="47.70639" lon="-2.36499">
        <ele>68.8</ele>
        <time>2021-05-27T12:06:16Z</time>
      </trkpt>
      <trkpt lat="47.7064" lon="-2.36497">
        <ele>69</ele>
        <time>2021-05-27T12:06:17Z</time>
      </trkpt>
      <trkpt lat="47.70642" lon="-2.36495">
        <ele>69.2</ele>
        <time>2021-05-27T12:06:18Z</time>
      </trkpt>
      <trkpt lat="47.70643" lon="-2.36493">
        <ele>69.4</ele>
        <time>2021-05-27T12:06:19Z</time>
      </trkpt>
      <trkpt lat="47.70644" lon="-2.36492">
        <ele>69.6</ele>
        <time>2021-05-27T12:06:20Z</time>
      </trkpt>
      <trkpt lat="47.70646" lon="-2.36492">
        <ele>69.9</ele>
        <time>2021-05-27T12:06:21Z</time>
      </trkpt>
      <trkpt lat="47.70647" lon="-2.36491">
        <ele>70.1</ele>
        <time>2021-05-27T12:06:22Z</time>
      </trkpt>
      <trkpt lat="47.7065" lon="-2.36488">
        <ele>70.6</ele>
        <time>2021-05-27T12:06:23Z</time>
      </trkpt>
      <trkpt lat="47.70652" lon="-2.36485">
        <ele>70.8</ele>
        <time>2021-05-27T12:06:24Z</time>
      </trkpt>
      <trkpt lat="47.70653" lon="-2.36483">
        <ele>71.2</ele>
        <time>2021-05-27T12:06:25Z</time>
      </trkpt>
      <trkpt lat="47.70655" lon="-2.36482">
        <ele>71.4</ele>
        <time>2021-05-27T12:06:26Z</time>
      </trkpt>
      <trkpt lat="47.70656" lon="-2.36481">
        <ele>71.6</ele>
        <time>2021-05-27T12:06:27Z</time>
      </trkpt>
      <trkpt lat="47.70658" lon="-2.36478">
        <ele>71.9</ele>
        <time>2021-05-27T12:06:28Z</time>
      </trkpt>
      <trkpt lat="47.70659" lon="-2.36476">
        <ele>72.1</ele>
        <time>2021-05-27T12:06:29Z</time>
      </trkpt>
      <trkpt lat="47.70659" lon="-2.36475">
        <ele>72.2</ele>
        <time>2021-05-27T12:06:30Z</time>
      </trkpt>
      <trkpt lat="47.7066" lon="-2.36472">
        <ele>72.4</ele>
        <time>2021-05-27T12:06:31Z</time>
      </trkpt>
      <trkpt lat="47.70662" lon="-2.36469">
        <ele>72.7</ele>
        <time>2021-05-27T12:06:32Z</time>
      </trkpt>
      <trkpt lat="47.70664" lon="-2.36467">
        <ele>73</ele>
        <time>2021-05-27T12:06:33Z</time>
      </trkpt>
      <trkpt lat="47.70666" lon="-2.36464">
        <ele>73.3</ele>
        <time>2021-05-27T12:06:34Z</time>
      </trkpt>
      <trkpt lat="47.70667" lon="-2.36462">
        <ele>73.4</ele>
        <time>2021-05-27T12:06:35Z</time>
      </trkpt>
      <trkpt lat="47.70668" lon="-2.36459">
        <ele>73.4</ele>
        <time>2021-05-27T12:06:36Z</time>
      </trkpt>
      <trkpt lat="47.70668" lon="-2.36457">
        <ele>73.4</ele>
        <time>2021-05-27T12:06:37Z</time>
      </trkpt>
      <trkpt lat="47.70668" lon="-2.36452">
        <ele>73.5</ele>
        <time>2021-05-27T12:06:38Z</time>
      </trkpt>
      <trkpt lat="47.70668" lon="-2.36449">
        <ele>73.5</ele>
        <time>2021-05-27T12:06:39Z</time>
      </trkpt>
      <trkpt lat="47.70669" lon="-2.36445">
        <ele>73.5</ele>
        <time>2021-05-27T12:06:40Z</time>
      </trkpt>
      <trkpt lat="47.70669" lon="-2.3644">
        <ele>73.5</ele>
        <time>2021-05-27T12:06:41Z</time>
      </trkpt>
      <trkpt lat="47.7067" lon="-2.36437">
        <ele>73.5</ele>
        <time>2021-05-27T12:06:42Z</time>
      </trkpt>
      <trkpt lat="47.7067" lon="-2.36433">
        <ele>73.5</ele>
        <time>2021-05-27T12:06:43Z</time>
      </trkpt>
      <trkpt lat="47.70671" lon="-2.3643">
        <ele>73.5</ele>
        <time>2021-05-27T12:06:44Z</time>
      </trkpt>
      <trkpt lat="47.70672" lon="-2.36427">
        <ele>73.4</ele>
        <time>2021-05-27T12:06:45Z</time>
      </trkpt>
      <trkpt lat="47.70673" lon="-2.36423">
        <ele>73.4</ele>
        <time>2021-05-27T12:06:46Z</time>
      </trkpt>
      <trkpt lat="47.70675" lon="-2.36419">
        <ele>73.3</ele>
        <time>2021-05-27T12:06:47Z</time>
      </trkpt>
      <trkpt lat="47.70675" lon="-2.36415">
        <ele>73.3</ele>
        <time>2021-05-27T12:06:48Z</time>
      </trkpt>
      <trkpt lat="47.70677" lon="-2.36411">
        <ele>73.2</ele>
        <time>2021-05-27T12:06:49Z</time>
      </trkpt>
      <trkpt lat="47.70679" lon="-2.36408">
        <ele>73</ele>
        <time>2021-05-27T12:06:50Z</time>
      </trkpt>
      <trkpt lat="47.70682" lon="-2.36405">
        <ele>72.7</ele>
        <time>2021-05-27T12:06:51Z</time>
      </trkpt>
      <trkpt lat="47.70684" lon="-2.36402">
        <ele>72.5</ele>
        <time>2021-05-27T12:06:52Z</time>
      </trkpt>
      <trkpt lat="47.70686" lon="-2.36397">
        <ele>72.3</ele>
        <time>2021-05-27T12:06:53Z</time>
      </trkpt>
      <trkpt lat="47.70687" lon="-2.36393">
        <ele>72.2</ele>
        <time>2021-05-27T12:06:54Z</time>
      </trkpt>
      <trkpt lat="47.70688" lon="-2.36389">
        <ele>72.2</ele>
        <time>2021-05-27T12:06:55Z</time>
      </trkpt>
      <trkpt lat="47.70688" lon="-2.36384">
        <ele>72.1</ele>
        <time>2021-05-27T12:06:56Z</time>
      </trkpt>
      <trkpt lat="47.70689" lon="-2.3638">
        <ele>72</ele>
        <time>2021-05-27T12:06:57Z</time>
      </trkpt>
      <trkpt lat="47.7069" lon="-2.36375">
        <ele>71.8</ele>
        <time>2021-05-27T12:06:58Z</time>
      </trkpt>
      <trkpt lat="47.70692" lon="-2.36371">
        <ele>71.6</ele>
        <time>2021-05-27T12:06:59Z</time>
      </trkpt>
      <trkpt lat="47.70693" lon="-2.36366">
        <ele>71.4</ele>
        <time>2021-05-27T12:07:00Z</time>
      </trkpt>
      <trkpt lat="47.70695" lon="-2.36361">
        <ele>71.2</ele>
        <time>2021-05-27T12:07:01Z</time>
      </trkpt>
      <trkpt lat="47.70697" lon="-2.36355">
        <ele>70.9</ele>
        <time>2021-05-27T12:07:02Z</time>
      </trkpt>
      <trkpt lat="47.70698" lon="-2.3635">
        <ele>70.7</ele>
        <time>2021-05-27T12:07:03Z</time>
      </trkpt>
      <trkpt lat="47.70698" lon="-2.36344">
        <ele>70.6</ele>
        <time>2021-05-27T12:07:04Z</time>
      </trkpt>
      <trkpt lat="47.70698" lon="-2.36339">
        <ele>70.5</ele>
        <time>2021-05-27T12:07:05Z</time>
      </trkpt>
      <trkpt lat="47.707" lon="-2.36334">
        <ele>70.2</ele>
        <time>2021-05-27T12:07:06Z</time>
      </trkpt>
      <trkpt lat="47.707" lon="-2.36328">
        <ele>70.1</ele>
        <time>2021-05-27T12:07:07Z</time>
      </trkpt>
      <trkpt lat="47.707" lon="-2.36324">
        <ele>70.1</ele>
        <time>2021-05-27T12:07:08Z</time>
      </trkpt>
      <trkpt lat="47.70698" lon="-2.36317">
        <ele>70.2</ele>
        <time>2021-05-27T12:07:09Z</time>
      </trkpt>
      <trkpt lat="47.70698" lon="-2.36311">
        <ele>70.3</ele>
        <time>2021-05-27T12:07:10Z</time>
      </trkpt>
      <trkpt lat="47.70697" lon="-2.36307">
        <ele>70.3</ele>
        <time>2021-05-27T12:07:11Z</time>
      </trkpt>
      <trkpt lat="47.70697" lon="-2.36302">
        <ele>70.3</ele>
        <time>2021-05-27T12:07:12Z</time>
      </trkpt>
      <trkpt lat="47.70696" lon="-2.36298">
        <ele>70.3</ele>
        <time>2021-05-27T12:07:13Z</time>
      </trkpt>
      <trkpt lat="47.70696" lon="-2.36294">
        <ele>70.2</ele>
        <time>2021-05-27T12:07:14Z</time>
      </trkpt>
      <trkpt lat="47.70696" lon="-2.36289">
        <ele>70.2</ele>
        <time>2021-05-27T12:07:15Z</time>
      </trkpt>
      <trkpt lat="47.70696" lon="-2.36284">
        <ele>70.1</ele>
        <time>2021-05-27T12:07:16Z</time>
      </trkpt>
      <trkpt lat="47.70697" lon="-2.36279">
        <ele>69.9</ele>
        <time>2021-05-27T12:07:17Z</time>
      </trkpt>
      <trkpt lat="47.70698" lon="-2.36274">
        <ele>69.7</ele>
        <time>2021-05-27T12:07:18Z</time>
      </trkpt>
      <trkpt lat="47.70698" lon="-2.36268">
        <ele>69.6</ele>
        <time>2021-05-27T12:07:19Z</time>
      </trkpt>
      <trkpt lat="47.70699" lon="-2.36263">
        <ele>69.5</ele>
        <time>2021-05-27T12:07:20Z</time>
      </trkpt>
      <trkpt lat="47.70699" lon="-2.36256">
        <ele>69.4</ele>
        <time>2021-05-27T12:07:21Z</time>
      </trkpt>
      <trkpt lat="47.70699" lon="-2.36251">
        <ele>69.4</ele>
        <time>2021-05-27T12:07:22Z</time>
      </trkpt>
      <trkpt lat="47.70699" lon="-2.36245">
        <ele>69.3</ele>
        <time>2021-05-27T12:07:23Z</time>
      </trkpt>
      <trkpt lat="47.70699" lon="-2.36239">
        <ele>69.3</ele>
        <time>2021-05-27T12:07:24Z</time>
      </trkpt>
      <trkpt lat="47.70699" lon="-2.36233">
        <ele>69.3</ele>
        <time>2021-05-27T12:07:25Z</time>
      </trkpt>
      <trkpt lat="47.70699" lon="-2.36227">
        <ele>69.2</ele>
        <time>2021-05-27T12:07:26Z</time>
      </trkpt>
      <trkpt lat="47.70699" lon="-2.36221">
        <ele>69.1</ele>
        <time>2021-05-27T12:07:27Z</time>
      </trkpt>
      <trkpt lat="47.70699" lon="-2.36215">
        <ele>69.1</ele>
        <time>2021-05-27T12:07:28Z</time>
      </trkpt>
      <trkpt lat="47.70699" lon="-2.36209">
        <ele>69.2</ele>
        <time>2021-05-27T12:07:29Z</time>
      </trkpt>
      <trkpt lat="47.70699" lon="-2.36203">
        <ele>69.2</ele>
        <time>2021-05-27T12:07:30Z</time>
      </trkpt>
      <trkpt lat="47.70698" lon="-2.36198">
        <ele>69.2</ele>
        <time>2021-05-27T12:07:31Z</time>
      </trkpt>
      <trkpt lat="47.70698" lon="-2.36192">
        <ele>69.3</ele>
        <time>2021-05-27T12:07:32Z</time>
      </trkpt>
      <trkpt lat="47.70698" lon="-2.36187">
        <ele>69.2</ele>
        <time>2021-05-27T12:07:33Z</time>
      </trkpt>
      <trkpt lat="47.70697" lon="-2.36181">
        <ele>69.3</ele>
        <time>2021-05-27T12:07:34Z</time>
      </trkpt>
      <trkpt lat="47.70697" lon="-2.36175">
        <ele>69.3</ele>
        <time>2021-05-27T12:07:35Z</time>
      </trkpt>
      <trkpt lat="47.70698" lon="-2.3617">
        <ele>69.2</ele>
        <time>2021-05-27T12:07:36Z</time>
      </trkpt>
      <trkpt lat="47.70697" lon="-2.36165">
        <ele>69.2</ele>
        <time>2021-05-27T12:07:37Z</time>
      </trkpt>
      <trkpt lat="47.70698" lon="-2.3616">
        <ele>69.2</ele>
        <time>2021-05-27T12:07:38Z</time>
      </trkpt>
      <trkpt lat="47.70698" lon="-2.36155">
        <ele>69.1</ele>
        <time>2021-05-27T12:07:39Z</time>
      </trkpt>
      <trkpt lat="47.70699" lon="-2.36151">
        <ele>68.9</ele>
        <time>2021-05-27T12:07:40Z</time>
      </trkpt>
      <trkpt lat="47.707" lon="-2.36147">
        <ele>68.7</ele>
        <time>2021-05-27T12:07:41Z</time>
      </trkpt>
      <trkpt lat="47.70702" lon="-2.36143">
        <ele>68.4</ele>
        <time>2021-05-27T12:07:42Z</time>
      </trkpt>
      <trkpt lat="47.70704" lon="-2.36139">
        <ele>68.1</ele>
        <time>2021-05-27T12:07:43Z</time>
      </trkpt>
      <trkpt lat="47.70705" lon="-2.36135">
        <ele>67.8</ele>
        <time>2021-05-27T12:07:44Z</time>
      </trkpt>
      <trkpt lat="47.70705" lon="-2.3613">
        <ele>67.7</ele>
        <time>2021-05-27T12:07:45Z</time>
      </trkpt>
      <trkpt lat="47.70705" lon="-2.36126">
        <ele>67.8</ele>
        <time>2021-05-27T12:07:46Z</time>
      </trkpt>
      <trkpt lat="47.70702" lon="-2.36123">
        <ele>68.2</ele>
        <time>2021-05-27T12:07:47Z</time>
      </trkpt>
      <trkpt lat="47.70701" lon="-2.36119">
        <ele>68.4</ele>
        <time>2021-05-27T12:07:48Z</time>
      </trkpt>
      <trkpt lat="47.707" lon="-2.36115">
        <ele>68.5</ele>
        <time>2021-05-27T12:07:49Z</time>
      </trkpt>
      <trkpt lat="47.70699" lon="-2.36111">
        <ele>68.6</ele>
        <time>2021-05-27T12:07:50Z</time>
      </trkpt>
      <trkpt lat="47.70698" lon="-2.36106">
        <ele>68.9</ele>
        <time>2021-05-27T12:07:51Z</time>
      </trkpt>
      <trkpt lat="47.70695" lon="-2.361">
        <ele>69.3</ele>
        <time>2021-05-27T12:07:52Z</time>
      </trkpt>
      <trkpt lat="47.70693" lon="-2.36095">
        <ele>69.6</ele>
        <time>2021-05-27T12:07:53Z</time>
      </trkpt>
      <trkpt lat="47.70691" lon="-2.3609">
        <ele>69.9</ele>
        <time>2021-05-27T12:07:54Z</time>
      </trkpt>
      <trkpt lat="47.7069" lon="-2.36086">
        <ele>70.1</ele>
        <time>2021-05-27T12:07:55Z</time>
      </trkpt>
      <trkpt lat="47.7069" lon="-2.36082">
        <ele>70.2</ele>
        <time>2021-05-27T12:07:56Z</time>
      </trkpt>
      <trkpt lat="47.70689" lon="-2.36077">
        <ele>70.5</ele>
        <time>2021-05-27T12:07:57Z</time>
      </trkpt>
      <trkpt lat="47.70689" lon="-2.36073">
        <ele>70.7</ele>
        <time>2021-05-27T12:07:58Z</time>
      </trkpt>
      <trkpt lat="47.70689" lon="-2.36067">
        <ele>70.9</ele>
        <time>2021-05-27T12:07:59Z</time>
      </trkpt>
      <trkpt lat="47.70689" lon="-2.36062">
        <ele>71.1</ele>
        <time>2021-05-27T12:08:00Z</time>
      </trkpt>
      <trkpt lat="47.70688" lon="-2.36058">
        <ele>71.3</ele>
        <time>2021-05-27T12:08:01Z</time>
      </trkpt>
      <trkpt lat="47.70689" lon="-2.36055">
        <ele>71.3</ele>
        <time>2021-05-27T12:08:02Z</time>
      </trkpt>
      <trkpt lat="47.70689" lon="-2.36052">
        <ele>71.3</ele>
        <time>2021-05-27T12:08:03Z</time>
      </trkpt>
      <trkpt lat="47.70689" lon="-2.3605">
        <ele>71.3</ele>
        <time>2021-05-27T12:08:04Z</time>
      </trkpt>
      <trkpt lat="47.7069" lon="-2.36047">
        <ele>71.3</ele>
        <time>2021-05-27T12:08:05Z</time>
      </trkpt>
      <trkpt lat="47.7069" lon="-2.36045">
        <ele>71.4</ele>
        <time>2021-05-27T12:08:06Z</time>
      </trkpt>
      <trkpt lat="47.7069" lon="-2.36042">
        <ele>71.5</ele>
        <time>2021-05-27T12:08:07Z</time>
      </trkpt>
      <trkpt lat="47.7069" lon="-2.36038">
        <ele>71.6</ele>
        <time>2021-05-27T12:08:08Z</time>
      </trkpt>
      <trkpt lat="47.70691" lon="-2.36034">
        <ele>71.7</ele>
        <time>2021-05-27T12:08:09Z</time>
      </trkpt>
      <trkpt lat="47.70691" lon="-2.3603">
        <ele>71.8</ele>
        <time>2021-05-27T12:08:10Z</time>
      </trkpt>
      <trkpt lat="47.70691" lon="-2.36026">
        <ele>71.9</ele>
        <time>2021-05-27T12:08:11Z</time>
      </trkpt>
      <trkpt lat="47.7069" lon="-2.36021">
        <ele>72.2</ele>
        <time>2021-05-27T12:08:12Z</time>
      </trkpt>
      <trkpt lat="47.70689" lon="-2.36017">
        <ele>72.5</ele>
        <time>2021-05-27T12:08:13Z</time>
      </trkpt>
      <trkpt lat="47.70688" lon="-2.36013">
        <ele>72.9</ele>
        <time>2021-05-27T12:08:14Z</time>
      </trkpt>
      <trkpt lat="47.70688" lon="-2.36008">
        <ele>73.1</ele>
        <time>2021-05-27T12:08:15Z</time>
      </trkpt>
      <trkpt lat="47.70687" lon="-2.36004">
        <ele>73.4</ele>
        <time>2021-05-27T12:08:16Z</time>
      </trkpt>
      <trkpt lat="47.70686" lon="-2.36">
        <ele>73.7</ele>
        <time>2021-05-27T12:08:17Z</time>
      </trkpt>
      <trkpt lat="47.70686" lon="-2.35996">
        <ele>73.7</ele>
        <time>2021-05-27T12:08:18Z</time>
      </trkpt>
      <trkpt lat="47.70685" lon="-2.3599">
        <ele>73.8</ele>
        <time>2021-05-27T12:08:19Z</time>
      </trkpt>
      <trkpt lat="47.70684" lon="-2.35985">
        <ele>74</ele>
        <time>2021-05-27T12:08:20Z</time>
      </trkpt>
      <trkpt lat="47.70683" lon="-2.35981">
        <ele>74.2</ele>
        <time>2021-05-27T12:08:21Z</time>
      </trkpt>
      <trkpt lat="47.70682" lon="-2.35977">
        <ele>74.4</ele>
        <time>2021-05-27T12:08:22Z</time>
      </trkpt>
      <trkpt lat="47.70682" lon="-2.35972">
        <ele>74.4</ele>
        <time>2021-05-27T12:08:23Z</time>
      </trkpt>
      <trkpt lat="47.70681" lon="-2.35966">
        <ele>74.6</ele>
        <time>2021-05-27T12:08:24Z</time>
      </trkpt>
      <trkpt lat="47.7068" lon="-2.3596">
        <ele>74.7</ele>
        <time>2021-05-27T12:08:25Z</time>
      </trkpt>
      <trkpt lat="47.70679" lon="-2.35955">
        <ele>75.1</ele>
        <time>2021-05-27T12:08:26Z</time>
      </trkpt>
      <trkpt lat="47.70678" lon="-2.3595">
        <ele>75.2</ele>
        <time>2021-05-27T12:08:27Z</time>
      </trkpt>
      <trkpt lat="47.70679" lon="-2.35946">
        <ele>75.2</ele>
        <time>2021-05-27T12:08:28Z</time>
      </trkpt>
      <trkpt lat="47.70679" lon="-2.35942">
        <ele>75.2</ele>
        <time>2021-05-27T12:08:29Z</time>
      </trkpt>
      <trkpt lat="47.70679" lon="-2.35938">
        <ele>74.8</ele>
        <time>2021-05-27T12:08:30Z</time>
      </trkpt>
      <trkpt lat="47.70681" lon="-2.35934">
        <ele>74.5</ele>
        <time>2021-05-27T12:08:31Z</time>
      </trkpt>
      <trkpt lat="47.70682" lon="-2.35928">
        <ele>74</ele>
        <time>2021-05-27T12:08:32Z</time>
      </trkpt>
      <trkpt lat="47.70682" lon="-2.35923">
        <ele>73.7</ele>
        <time>2021-05-27T12:08:33Z</time>
      </trkpt>
      <trkpt lat="47.70682" lon="-2.35917">
        <ele>73.9</ele>
        <time>2021-05-27T12:08:34Z</time>
      </trkpt>
      <trkpt lat="47.70681" lon="-2.35911">
        <ele>74.1</ele>
        <time>2021-05-27T12:08:35Z</time>
      </trkpt>
      <trkpt lat="47.70679" lon="-2.35905">
        <ele>74.5</ele>
        <time>2021-05-27T12:08:36Z</time>
      </trkpt>
      <trkpt lat="47.70677" lon="-2.35901">
        <ele>74.9</ele>
        <time>2021-05-27T12:08:37Z</time>
      </trkpt>
      <trkpt lat="47.70675" lon="-2.35896">
        <ele>75.4</ele>
        <time>2021-05-27T12:08:38Z</time>
      </trkpt>
      <trkpt lat="47.70673" lon="-2.3589">
        <ele>75.8</ele>
        <time>2021-05-27T12:08:39Z</time>
      </trkpt>
      <trkpt lat="47.70671" lon="-2.35885">
        <ele>76.2</ele>
        <time>2021-05-27T12:08:40Z</time>
      </trkpt>
      <trkpt lat="47.70669" lon="-2.3588">
        <ele>76.7</ele>
        <time>2021-05-27T12:08:41Z</time>
      </trkpt>
      <trkpt lat="47.70669" lon="-2.35876">
        <ele>76.7</ele>
        <time>2021-05-27T12:08:42Z</time>
      </trkpt>
      <trkpt lat="47.70668" lon="-2.35872">
        <ele>76.9</ele>
        <time>2021-05-27T12:08:43Z</time>
      </trkpt>
      <trkpt lat="47.70669" lon="-2.35871">
        <ele>76.7</ele>
        <time>2021-05-27T12:08:44Z</time>
      </trkpt>
      <trkpt lat="47.70669" lon="-2.35868">
        <ele>76.6</ele>
        <time>2021-05-27T12:08:45Z</time>
      </trkpt>
      <trkpt lat="47.70669" lon="-2.35864">
        <ele>76.4</ele>
        <time>2021-05-27T12:08:46Z</time>
      </trkpt>
      <trkpt lat="47.70669" lon="-2.3586">
        <ele>76.2</ele>
        <time>2021-05-27T12:08:47Z</time>
      </trkpt>
      <trkpt lat="47.70668" lon="-2.35855">
        <ele>76.2</ele>
        <time>2021-05-27T12:08:48Z</time>
      </trkpt>
      <trkpt lat="47.70667" lon="-2.35851">
        <ele>76.5</ele>
        <time>2021-05-27T12:08:49Z</time>
      </trkpt>
      <trkpt lat="47.70665" lon="-2.35844">
        <ele>76.3</ele>
        <time>2021-05-27T12:08:50Z</time>
      </trkpt>
      <trkpt lat="47.70663" lon="-2.35838">
        <ele>76.1</ele>
        <time>2021-05-27T12:08:51Z</time>
      </trkpt>
      <trkpt lat="47.70663" lon="-2.35833">
        <ele>75.9</ele>
        <time>2021-05-27T12:08:52Z</time>
      </trkpt>
      <trkpt lat="47.70662" lon="-2.35827">
        <ele>75.7</ele>
        <time>2021-05-27T12:08:53Z</time>
      </trkpt>
      <trkpt lat="47.70661" lon="-2.3582">
        <ele>75.4</ele>
        <time>2021-05-27T12:08:54Z</time>
      </trkpt>
      <trkpt lat="47.7066" lon="-2.35814">
        <ele>75.2</ele>
        <time>2021-05-27T12:08:55Z</time>
      </trkpt>
      <trkpt lat="47.7066" lon="-2.35808">
        <ele>75</ele>
        <time>2021-05-27T12:08:56Z</time>
      </trkpt>
      <trkpt lat="47.70661" lon="-2.35803">
        <ele>74.8</ele>
        <time>2021-05-27T12:08:57Z</time>
      </trkpt>
      <trkpt lat="47.70662" lon="-2.35798">
        <ele>74.7</ele>
        <time>2021-05-27T12:08:58Z</time>
      </trkpt>
      <trkpt lat="47.70662" lon="-2.35794">
        <ele>74.5</ele>
        <time>2021-05-27T12:08:59Z</time>
      </trkpt>
      <trkpt lat="47.70662" lon="-2.35788">
        <ele>74.3</ele>
        <time>2021-05-27T12:09:00Z</time>
      </trkpt>
      <trkpt lat="47.70662" lon="-2.35782">
        <ele>74.1</ele>
        <time>2021-05-27T12:09:01Z</time>
      </trkpt>
      <trkpt lat="47.70661" lon="-2.35776">
        <ele>73.9</ele>
        <time>2021-05-27T12:09:02Z</time>
      </trkpt>
      <trkpt lat="47.70661" lon="-2.3577">
        <ele>73.8</ele>
        <time>2021-05-27T12:09:03Z</time>
      </trkpt>
      <trkpt lat="47.70659" lon="-2.35765">
        <ele>73.6</ele>
        <time>2021-05-27T12:09:04Z</time>
      </trkpt>
      <trkpt lat="47.70656" lon="-2.35758">
        <ele>73.4</ele>
        <time>2021-05-27T12:09:05Z</time>
      </trkpt>
      <trkpt lat="47.70655" lon="-2.35752">
        <ele>73.2</ele>
        <time>2021-05-27T12:09:06Z</time>
      </trkpt>
      <trkpt lat="47.70656" lon="-2.35745">
        <ele>73</ele>
        <time>2021-05-27T12:09:07Z</time>
      </trkpt>
      <trkpt lat="47.70656" lon="-2.3574">
        <ele>72.9</ele>
        <time>2021-05-27T12:09:08Z</time>
      </trkpt>
      <trkpt lat="47.70655" lon="-2.35734">
        <ele>72.8</ele>
        <time>2021-05-27T12:09:09Z</time>
      </trkpt>
      <trkpt lat="47.70654" lon="-2.35729">
        <ele>72.7</ele>
        <time>2021-05-27T12:09:10Z</time>
      </trkpt>
      <trkpt lat="47.70652" lon="-2.35724">
        <ele>72.7</ele>
        <time>2021-05-27T12:09:11Z</time>
      </trkpt>
      <trkpt lat="47.70649" lon="-2.35721">
        <ele>72.7</ele>
        <time>2021-05-27T12:09:12Z</time>
      </trkpt>
      <trkpt lat="47.70645" lon="-2.35719">
        <ele>72.7</ele>
        <time>2021-05-27T12:09:13Z</time>
      </trkpt>
      <trkpt lat="47.70641" lon="-2.35715">
        <ele>72.7</ele>
        <time>2021-05-27T12:09:14Z</time>
      </trkpt>
      <trkpt lat="47.70639" lon="-2.35711">
        <ele>72.7</ele>
        <time>2021-05-27T12:09:15Z</time>
      </trkpt>
      <trkpt lat="47.70636" lon="-2.35707">
        <ele>72.7</ele>
        <time>2021-05-27T12:09:16Z</time>
      </trkpt>
      <trkpt lat="47.70633" lon="-2.35702">
        <ele>72.7</ele>
        <time>2021-05-27T12:09:17Z</time>
      </trkpt>
      <trkpt lat="47.7063" lon="-2.35697">
        <ele>72.7</ele>
        <time>2021-05-27T12:09:18Z</time>
      </trkpt>
      <trkpt lat="47.70629" lon="-2.35691">
        <ele>72.7</ele>
        <time>2021-05-27T12:09:19Z</time>
      </trkpt>
      <trkpt lat="47.70627" lon="-2.35685">
        <ele>72.7</ele>
        <time>2021-05-27T12:09:20Z</time>
      </trkpt>
      <trkpt lat="47.70625" lon="-2.35679">
        <ele>72.6</ele>
        <time>2021-05-27T12:09:21Z</time>
      </trkpt>
      <trkpt lat="47.70623" lon="-2.35674">
        <ele>72.6</ele>
        <time>2021-05-27T12:09:22Z</time>
      </trkpt>
      <trkpt lat="47.70622" lon="-2.35668">
        <ele>72.6</ele>
        <time>2021-05-27T12:09:23Z</time>
      </trkpt>
      <trkpt lat="47.7062" lon="-2.35662">
        <ele>72.8</ele>
        <time>2021-05-27T12:09:24Z</time>
      </trkpt>
      <trkpt lat="47.7062" lon="-2.35656">
        <ele>73.1</ele>
        <time>2021-05-27T12:09:25Z</time>
      </trkpt>
      <trkpt lat="47.7062" lon="-2.3565">
        <ele>73.3</ele>
        <time>2021-05-27T12:09:26Z</time>
      </trkpt>
      <trkpt lat="47.7062" lon="-2.35645">
        <ele>73.5</ele>
        <time>2021-05-27T12:09:27Z</time>
      </trkpt>
      <trkpt lat="47.70619" lon="-2.3564">
        <ele>73.7</ele>
        <time>2021-05-27T12:09:28Z</time>
      </trkpt>
      <trkpt lat="47.70616" lon="-2.35636">
        <ele>74</ele>
        <time>2021-05-27T12:09:29Z</time>
      </trkpt>
      <trkpt lat="47.70615" lon="-2.35632">
        <ele>74.2</ele>
        <time>2021-05-27T12:09:30Z</time>
      </trkpt>
      <trkpt lat="47.70613" lon="-2.35629">
        <ele>74.4</ele>
        <time>2021-05-27T12:09:31Z</time>
      </trkpt>
      <trkpt lat="47.70611" lon="-2.35627">
        <ele>74.6</ele>
        <time>2021-05-27T12:09:32Z</time>
      </trkpt>
      <trkpt lat="47.70609" lon="-2.35625">
        <ele>74.7</ele>
        <time>2021-05-27T12:09:33Z</time>
      </trkpt>
      <trkpt lat="47.70609" lon="-2.35625">
        <ele>74.8</ele>
        <time>2021-05-27T12:09:34Z</time>
      </trkpt>
      <trkpt lat="47.70609" lon="-2.35625">
        <ele>74.8</ele>
        <time>2021-05-27T12:09:35Z</time>
      </trkpt>
      <trkpt lat="47.70609" lon="-2.35625">
        <ele>74.8</ele>
        <time>2021-05-27T12:09:36Z</time>
      </trkpt>
      <trkpt lat="47.70609" lon="-2.35625">
        <ele>74.8</ele>
        <time>2021-05-27T12:09:37Z</time>
      </trkpt>
      <trkpt lat="47.70609" lon="-2.35625">
        <ele>74.8</ele>
        <time>2021-05-27T12:09:38Z</time>
      </trkpt>
      <trkpt lat="47.70609" lon="-2.35625">
        <ele>74.8</ele>
        <time>2021-05-27T12:09:39Z</time>
      </trkpt>
      <trkpt lat="47.70609" lon="-2.35625">
        <ele>74.8</ele>
        <time>2021-05-27T12:09:40Z</time>
      </trkpt>
      <trkpt lat="47.70609" lon="-2.35625">
        <ele>74.8</ele>
        <time>2021-05-27T12:09:41Z</time>
      </trkpt>
      <trkpt lat="47.70609" lon="-2.35625">
        <ele>74.8</ele>
        <time>2021-05-27T12:09:42Z</time>
      </trkpt>
      <trkpt lat="47.70609" lon="-2.35625">
        <ele>74.8</ele>
        <time>2021-05-27T12:09:43Z</time>
      </trkpt>
      <trkpt lat="47.70609" lon="-2.35625">
        <ele>74.8</ele>
        <time>2021-05-27T12:09:44Z</time>
      </trkpt>
      <trkpt lat="47.70609" lon="-2.35625">
        <ele>74.8</ele>
        <time>2021-05-27T12:09:45Z</time>
      </trkpt>
      <trkpt lat="47.70609" lon="-2.35625">
        <ele>74.8</ele>
        <time>2021-05-27T12:09:46Z</time>
      </trkpt>
      <trkpt lat="47.70609" lon="-2.35625">
        <ele>74.8</ele>
        <time>2021-05-27T12:09:47Z</time>
      </trkpt>
      <trkpt lat="47.70609" lon="-2.35625">
        <ele>74.8</ele>
        <time>2021-05-27T12:09:48Z</time>
      </trkpt>
      <trkpt lat="47.70609" lon="-2.35625">
        <ele>74.8</ele>
        <time>2021-05-27T12:09:49Z</time>
      </trkpt>
      <trkpt lat="47.70609" lon="-2.35625">
        <ele>74.8</ele>
        <time>2021-05-27T12:09:50Z</time>
      </trkpt>
      <trkpt lat="47.70609" lon="-2.35625">
        <ele>74.8</ele>
        <time>2021-05-27T12:09:51Z</time>
      </trkpt>
      <trkpt lat="47.70609" lon="-2.35625">
        <ele>74.8</ele>
        <time>2021-05-27T12:09:52Z</time>
      </trkpt>
      <trkpt lat="47.70609" lon="-2.35625">
        <ele>74.8</ele>
        <time>2021-05-27T12:09:53Z</time>
      </trkpt>
      <trkpt lat="47.70609" lon="-2.35625">
        <ele>74.8</ele>
        <time>2021-05-27T12:09:54Z</time>
      </trkpt>
      <trkpt lat="47.70609" lon="-2.35625">
        <ele>74.8</ele>
        <time>2021-05-27T12:09:55Z</time>
      </trkpt>
      <trkpt lat="47.70609" lon="-2.35625">
        <ele>74.8</ele>
        <time>2021-05-27T12:09:56Z</time>
      </trkpt>
      <trkpt lat="47.70609" lon="-2.35625">
        <ele>74.8</ele>
        <time>2021-05-27T12:09:57Z</time>
      </trkpt>
      <trkpt lat="47.70609" lon="-2.35625">
        <ele>74.8</ele>
        <time>2021-05-27T12:09:58Z</time>
      </trkpt>
      <trkpt lat="47.70609" lon="-2.35625">
        <ele>74.8</ele>
        <time>2021-05-27T12:09:59Z</time>
      </trkpt>
      <trkpt lat="47.70609" lon="-2.35625">
        <ele>74.8</ele>
        <time>2021-05-27T12:10:00Z</time>
      </trkpt>
      <trkpt lat="47.70609" lon="-2.35625">
        <ele>74.8</ele>
        <time>2021-05-27T12:10:01Z</time>
      </trkpt>
      <trkpt lat="47.70609" lon="-2.35625">
        <ele>74.8</ele>
        <time>2021-05-27T12:10:02Z</time>
      </trkpt>
      <trkpt lat="47.70609" lon="-2.35625">
        <ele>74.8</ele>
        <time>2021-05-27T12:10:03Z</time>
      </trkpt>
      <trkpt lat="47.70609" lon="-2.35625">
        <ele>74.8</ele>
        <time>2021-05-27T12:10:04Z</time>
      </trkpt>
      <trkpt lat="47.70609" lon="-2.35625">
        <ele>74.8</ele>
        <time>2021-05-27T12:10:05Z</time>
      </trkpt>
      <trkpt lat="47.70609" lon="-2.35625">
        <ele>74.8</ele>
        <time>2021-05-27T12:10:06Z</time>
      </trkpt>
      <trkpt lat="47.70609" lon="-2.35625">
        <ele>74.8</ele>
        <time>2021-05-27T12:10:07Z</time>
      </trkpt>
      <trkpt lat="47.70609" lon="-2.35625">
        <ele>74.8</ele>
        <time>2021-05-27T12:10:08Z</time>
      </trkpt>
      <trkpt lat="47.70609" lon="-2.35625">
        <ele>74.8</ele>
        <time>2021-05-27T12:10:09Z</time>
      </trkpt>
      <trkpt lat="47.70609" lon="-2.35625">
        <ele>74.8</ele>
        <time>2021-05-27T12:10:10Z</time>
      </trkpt>
      <trkpt lat="47.70609" lon="-2.35625">
        <ele>74.8</ele>
        <time>2021-05-27T12:10:11Z</time>
      </trkpt>
      <trkpt lat="47.70609" lon="-2.35625">
        <ele>74.8</ele>
        <time>2021-05-27T12:10:12Z</time>
      </trkpt>
      <trkpt lat="47.70609" lon="-2.35625">
        <ele>74.8</ele>
        <time>2021-05-27T12:10:13Z</time>
      </trkpt>
      <trkpt lat="47.70609" lon="-2.35625">
        <ele>74.8</ele>
        <time>2021-05-27T12:10:14Z</time>
      </trkpt>
      <trkpt lat="47.70609" lon="-2.35625">
        <ele>74.8</ele>
        <time>2021-05-27T12:10:15Z</time>
      </trkpt>
      <trkpt lat="47.70609" lon="-2.35625">
        <ele>74.8</ele>
        <time>2021-05-27T12:10:16Z</time>
      </trkpt>
      <trkpt lat="47.70609" lon="-2.35625">
        <ele>74.8</ele>
        <time>2021-05-27T12:10:17Z</time>
      </trkpt>
      <trkpt lat="47.70609" lon="-2.35625">
        <ele>74.8</ele>
        <time>2021-05-27T12:10:18Z</time>
      </trkpt>
      <trkpt lat="47.70609" lon="-2.35625">
        <ele>74.8</ele>
        <time>2021-05-27T12:10:19Z</time>
      </trkpt>
      <trkpt lat="47.70609" lon="-2.35625">
        <ele>74.8</ele>
        <time>2021-05-27T12:10:20Z</time>
      </trkpt>
      <trkpt lat="47.70609" lon="-2.35625">
        <ele>74.8</ele>
        <time>2021-05-27T12:10:21Z</time>
      </trkpt>
      <trkpt lat="47.70609" lon="-2.35625">
        <ele>74.8</ele>
        <time>2021-05-27T12:10:22Z</time>
      </trkpt>
      <trkpt lat="47.70609" lon="-2.35625">
        <ele>74.8</ele>
        <time>2021-05-27T12:10:23Z</time>
      </trkpt>
      <trkpt lat="47.70609" lon="-2.35625">
        <ele>74.8</ele>
        <time>2021-05-27T12:10:24Z</time>
      </trkpt>
      <trkpt lat="47.70609" lon="-2.35625">
        <ele>74.8</ele>
        <time>2021-05-27T12:10:25Z</time>
      </trkpt>
      <trkpt lat="47.70609" lon="-2.35625">
        <ele>74.8</ele>
        <time>2021-05-27T12:10:26Z</time>
      </trkpt>
      <trkpt lat="47.70609" lon="-2.35625">
        <ele>74.8</ele>
        <time>2021-05-27T12:10:27Z</time>
      </trkpt>
      <trkpt lat="47.70609" lon="-2.35625">
        <ele>74.8</ele>
        <time>2021-05-27T12:10:28Z</time>
      </trkpt>
      <trkpt lat="47.70609" lon="-2.35625">
        <ele>74.8</ele>
        <time>2021-05-27T12:10:29Z</time>
      </trkpt>
      <trkpt lat="47.70609" lon="-2.35625">
        <ele>74.8</ele>
        <time>2021-05-27T12:10:30Z</time>
      </trkpt>
      <trkpt lat="47.70609" lon="-2.35625">
        <ele>74.8</ele>
        <time>2021-05-27T12:10:31Z</time>
      </trkpt>
      <trkpt lat="47.70609" lon="-2.35625">
        <ele>74.8</ele>
        <time>2021-05-27T12:10:32Z</time>
      </trkpt>
      <trkpt lat="47.70609" lon="-2.35625">
        <ele>74.8</ele>
        <time>2021-05-27T12:10:33Z</time>
      </trkpt>
      <trkpt lat="47.70609" lon="-2.35625">
        <ele>74.8</ele>
        <time>2021-05-27T12:10:34Z</time>
      </trkpt>
      <trkpt lat="47.70609" lon="-2.35625">
        <ele>74.8</ele>
        <time>2021-05-27T12:10:35Z</time>
      </trkpt>
      <trkpt lat="47.70609" lon="-2.35625">
        <ele>74.8</ele>
        <time>2021-05-27T12:10:36Z</time>
      </trkpt>
      <trkpt lat="47.70609" lon="-2.35625">
        <ele>74.8</ele>
        <time>2021-05-27T12:10:37Z</time>
      </trkpt>
      <trkpt lat="47.70609" lon="-2.35625">
        <ele>74.8</ele>
        <time>2021-05-27T12:10:38Z</time>
      </trkpt>
      <trkpt lat="47.70609" lon="-2.35625">
        <ele>74.8</ele>
        <time>2021-05-27T12:10:39Z</time>
      </trkpt>
      <trkpt lat="47.70609" lon="-2.35625">
        <ele>74.8</ele>
        <time>2021-05-27T12:10:40Z</time>
      </trkpt>
      <trkpt lat="47.70609" lon="-2.35625">
        <ele>74.8</ele>
        <time>2021-05-27T12:10:41Z</time>
      </trkpt>
      <trkpt lat="47.70609" lon="-2.35625">
        <ele>74.8</ele>
        <time>2021-05-27T12:10:42Z</time>
      </trkpt>
      <trkpt lat="47.70609" lon="-2.35625">
        <ele>74.8</ele>
        <time>2021-05-27T12:10:43Z</time>
      </trkpt>
      <trkpt lat="47.70609" lon="-2.35625">
        <ele>74.8</ele>
        <time>2021-05-27T12:10:44Z</time>
      </trkpt>
      <trkpt lat="47.70609" lon="-2.35625">
        <ele>74.8</ele>
        <time>2021-05-27T12:10:45Z</time>
      </trkpt>
      <trkpt lat="47.70609" lon="-2.35625">
        <ele>74.8</ele>
        <time>2021-05-27T12:10:46Z</time>
      </trkpt>
      <trkpt lat="47.70609" lon="-2.35625">
        <ele>74.8</ele>
        <time>2021-05-27T12:10:47Z</time>
      </trkpt>
      <trkpt lat="47.70609" lon="-2.35625">
        <ele>74.8</ele>
        <time>2021-05-27T12:10:48Z</time>
      </trkpt>
      <trkpt lat="47.70609" lon="-2.35625">
        <ele>74.8</ele>
        <time>2021-05-27T12:10:49Z</time>
      </trkpt>
      <trkpt lat="47.70609" lon="-2.35625">
        <ele>74.8</ele>
        <time>2021-05-27T12:10:50Z</time>
      </trkpt>
      <trkpt lat="47.70609" lon="-2.35625">
        <ele>74.8</ele>
        <time>2021-05-27T12:10:51Z</time>
      </trkpt>
      <trkpt lat="47.70609" lon="-2.35625">
        <ele>74.8</ele>
        <time>2021-05-27T12:10:52Z</time>
      </trkpt>
      <trkpt lat="47.70609" lon="-2.35625">
        <ele>74.8</ele>
        <time>2021-05-27T12:10:53Z</time>
      </trkpt>
      <trkpt lat="47.70609" lon="-2.35625">
        <ele>74.8</ele>
        <time>2021-05-27T12:10:54Z</time>
      </trkpt>
      <trkpt lat="47.70609" lon="-2.35625">
        <ele>74.8</ele>
        <time>2021-05-27T12:10:55Z</time>
      </trkpt>
      <trkpt lat="47.70609" lon="-2.35625">
        <ele>74.8</ele>
        <time>2021-05-27T12:10:56Z</time>
      </trkpt>
      <trkpt lat="47.70609" lon="-2.35625">
        <ele>74.8</ele>
        <time>2021-05-27T12:10:57Z</time>
      </trkpt>
      <trkpt lat="47.70609" lon="-2.35625">
        <ele>74.8</ele>
        <time>2021-05-27T12:10:58Z</time>
      </trkpt>
      <trkpt lat="47.70609" lon="-2.35625">
        <ele>74.8</ele>
        <time>2021-05-27T12:10:59Z</time>
      </trkpt>
      <trkpt lat="47.70609" lon="-2.35625">
        <ele>74.8</ele>
        <time>2021-05-27T12:11:00Z</time>
      </trkpt>
      <trkpt lat="47.70609" lon="-2.35625">
        <ele>74.8</ele>
        <time>2021-05-27T12:11:01Z</time>
      </trkpt>
      <trkpt lat="47.70609" lon="-2.35625">
        <ele>74.8</ele>
        <time>2021-05-27T12:11:02Z</time>
      </trkpt>
      <trkpt lat="47.70609" lon="-2.35625">
        <ele>74.8</ele>
        <time>2021-05-27T12:11:03Z</time>
      </trkpt>
      <trkpt lat="47.70609" lon="-2.35625">
        <ele>74.8</ele>
        <time>2021-05-27T12:11:04Z</time>
      </trkpt>
      <trkpt lat="47.70609" lon="-2.35625">
        <ele>74.8</ele>
        <time>2021-05-27T12:11:05Z</time>
      </trkpt>
      <trkpt lat="47.70609" lon="-2.35625">
        <ele>74.8</ele>
        <time>2021-05-27T12:11:06Z</time>
      </trkpt>
      <trkpt lat="47.70609" lon="-2.35625">
        <ele>74.8</ele>
        <time>2021-05-27T12:11:07Z</time>
      </trkpt>
      <trkpt lat="47.70609" lon="-2.35625">
        <ele>74.8</ele>
        <time>2021-05-27T12:11:08Z</time>
      </trkpt>
      <trkpt lat="47.70609" lon="-2.35625">
        <ele>74.8</ele>
        <time>2021-05-27T12:11:09Z</time>
      </trkpt>
      <trkpt lat="47.70609" lon="-2.35625">
        <ele>74.8</ele>
        <time>2021-05-27T12:11:10Z</time>
      </trkpt>
      <trkpt lat="47.70609" lon="-2.35625">
        <ele>74.8</ele>
        <time>2021-05-27T12:11:11Z</time>
      </trkpt>
      <trkpt lat="47.70609" lon="-2.35625">
        <ele>74.8</ele>
        <time>2021-05-27T12:11:12Z</time>
      </trkpt>
      <trkpt lat="47.70609" lon="-2.35625">
        <ele>74.8</ele>
        <time>2021-05-27T12:11:13Z</time>
      </trkpt>
      <trkpt lat="47.70609" lon="-2.35625">
        <ele>74.8</ele>
        <time>2021-05-27T12:11:14Z</time>
      </trkpt>
      <trkpt lat="47.70609" lon="-2.35625">
        <ele>74.8</ele>
        <time>2021-05-27T12:11:15Z</time>
      </trkpt>
      <trkpt lat="47.70609" lon="-2.35625">
        <ele>74.8</ele>
        <time>2021-05-27T12:11:16Z</time>
      </trkpt>
      <trkpt lat="47.70609" lon="-2.35625">
        <ele>74.8</ele>
        <time>2021-05-27T12:11:17Z</time>
      </trkpt>
      <trkpt lat="47.70609" lon="-2.35625">
        <ele>74.8</ele>
        <time>2021-05-27T12:11:18Z</time>
      </trkpt>
      <trkpt lat="47.70609" lon="-2.35625">
        <ele>74.8</ele>
        <time>2021-05-27T12:11:19Z</time>
      </trkpt>
      <trkpt lat="47.70609" lon="-2.35625">
        <ele>74.8</ele>
        <time>2021-05-27T12:11:20Z</time>
      </trkpt>
      <trkpt lat="47.70609" lon="-2.35625">
        <ele>74.8</ele>
        <time>2021-05-27T12:11:21Z</time>
      </trkpt>
      <trkpt lat="47.70609" lon="-2.35625">
        <ele>74.8</ele>
        <time>2021-05-27T12:11:22Z</time>
      </trkpt>
      <trkpt lat="47.70609" lon="-2.35625">
        <ele>74.8</ele>
        <time>2021-05-27T12:11:23Z</time>
      </trkpt>
      <trkpt lat="47.70609" lon="-2.35625">
        <ele>74.8</ele>
        <time>2021-05-27T12:11:24Z</time>
      </trkpt>
      <trkpt lat="47.70609" lon="-2.35625">
        <ele>74.8</ele>
        <time>2021-05-27T12:11:25Z</time>
      </trkpt>
      <trkpt lat="47.70609" lon="-2.35625">
        <ele>74.8</ele>
        <time>2021-05-27T12:11:26Z</time>
      </trkpt>
      <trkpt lat="47.70609" lon="-2.35625">
        <ele>74.8</ele>
        <time>2021-05-27T12:11:27Z</time>
      </trkpt>
      <trkpt lat="47.70609" lon="-2.35625">
        <ele>74.8</ele>
        <time>2021-05-27T12:11:28Z</time>
      </trkpt>
      <trkpt lat="47.70609" lon="-2.35625">
        <ele>74.8</ele>
        <time>2021-05-27T12:11:29Z</time>
      </trkpt>
      <trkpt lat="47.70609" lon="-2.35625">
        <ele>74.8</ele>
        <time>2021-05-27T12:11:30Z</time>
      </trkpt>
      <trkpt lat="47.70609" lon="-2.35625">
        <ele>74.8</ele>
        <time>2021-05-27T12:11:31Z</time>
      </trkpt>
      <trkpt lat="47.70602" lon="-2.35624">
        <ele>75.2</ele>
        <time>2021-05-27T12:11:32Z</time>
      </trkpt>
      <trkpt lat="47.706" lon="-2.35624">
        <ele>75.3</ele>
        <time>2021-05-27T12:11:33Z</time>
      </trkpt>
      <trkpt lat="47.70597" lon="-2.35624">
        <ele>75.4</ele>
        <time>2021-05-27T12:11:34Z</time>
      </trkpt>
      <trkpt lat="47.70594" lon="-2.35624">
        <ele>75.5</ele>
        <time>2021-05-27T12:11:35Z</time>
      </trkpt>
      <trkpt lat="47.70591" lon="-2.35625">
        <ele>75.6</ele>
        <time>2021-05-27T12:11:36Z</time>
      </trkpt>
      <trkpt lat="47.70589" lon="-2.35627">
        <ele>75.7</ele>
        <time>2021-05-27T12:11:37Z</time>
      </trkpt>
      <trkpt lat="47.70586" lon="-2.35628">
        <ele>75.7</ele>
        <time>2021-05-27T12:11:38Z</time>
      </trkpt>
      <trkpt lat="47.70583" lon="-2.35629">
        <ele>75.8</ele>
        <time>2021-05-27T12:11:39Z</time>
      </trkpt>
      <trkpt lat="47.70582" lon="-2.35627">
        <ele>75.8</ele>
        <time>2021-05-27T12:11:40Z</time>
      </trkpt>
      <trkpt lat="47.70581" lon="-2.35624">
        <ele>75.8</ele>
        <time>2021-05-27T12:11:41Z</time>
      </trkpt>
      <trkpt lat="47.70581" lon="-2.3562">
        <ele>76</ele>
        <time>2021-05-27T12:11:42Z</time>
      </trkpt>
      <trkpt lat="47.7058" lon="-2.35617">
        <ele>76.1</ele>
        <time>2021-05-27T12:11:43Z</time>
      </trkpt>
      <trkpt lat="47.7058" lon="-2.35614">
        <ele>76.1</ele>
        <time>2021-05-27T12:11:44Z</time>
      </trkpt>
      <trkpt lat="47.70579" lon="-2.35612">
        <ele>76.2</ele>
        <time>2021-05-27T12:11:45Z</time>
      </trkpt>
      <trkpt lat="47.70577" lon="-2.35609">
        <ele>76.2</ele>
        <time>2021-05-27T12:11:46Z</time>
      </trkpt>
      <trkpt lat="47.70576" lon="-2.35606">
        <ele>76.1</ele>
        <time>2021-05-27T12:11:47Z</time>
      </trkpt>
      <trkpt lat="47.70574" lon="-2.35606">
        <ele>75.9</ele>
        <time>2021-05-27T12:11:48Z</time>
      </trkpt>
      <trkpt lat="47.70572" lon="-2.35604">
        <ele>75.7</ele>
        <time>2021-05-27T12:11:49Z</time>
      </trkpt>
      <trkpt lat="47.7057" lon="-2.35603">
        <ele>75.7</ele>
        <time>2021-05-27T12:11:50Z</time>
      </trkpt>
      <trkpt lat="47.7057" lon="-2.35601">
        <ele>75.7</ele>
        <time>2021-05-27T12:11:51Z</time>
      </trkpt>
      <trkpt lat="47.7057" lon="-2.35599">
        <ele>75.8</ele>
        <time>2021-05-27T12:11:52Z</time>
      </trkpt>
      <trkpt lat="47.7057" lon="-2.35595">
        <ele>75.9</ele>
        <time>2021-05-27T12:11:53Z</time>
      </trkpt>
      <trkpt lat="47.7057" lon="-2.35592">
        <ele>76</ele>
        <time>2021-05-27T12:11:54Z</time>
      </trkpt>
      <trkpt lat="47.70569" lon="-2.35589">
        <ele>76.1</ele>
        <time>2021-05-27T12:11:55Z</time>
      </trkpt>
      <trkpt lat="47.70569" lon="-2.35586">
        <ele>76.1</ele>
        <time>2021-05-27T12:11:56Z</time>
      </trkpt>
      <trkpt lat="47.70568" lon="-2.35583">
        <ele>76.2</ele>
        <time>2021-05-27T12:11:57Z</time>
      </trkpt>
      <trkpt lat="47.70568" lon="-2.35581">
        <ele>76.1</ele>
        <time>2021-05-27T12:11:58Z</time>
      </trkpt>
      <trkpt lat="47.70567" lon="-2.35579">
        <ele>76</ele>
        <time>2021-05-27T12:11:59Z</time>
      </trkpt>
      <trkpt lat="47.70567" lon="-2.35576">
        <ele>75.8</ele>
        <time>2021-05-27T12:12:00Z</time>
      </trkpt>
      <trkpt lat="47.70566" lon="-2.35574">
        <ele>75.6</ele>
        <time>2021-05-27T12:12:01Z</time>
      </trkpt>
      <trkpt lat="47.70565" lon="-2.35573">
        <ele>75.5</ele>
        <time>2021-05-27T12:12:02Z</time>
      </trkpt>
      <trkpt lat="47.70565" lon="-2.3557">
        <ele>75.4</ele>
        <time>2021-05-27T12:12:03Z</time>
      </trkpt>
      <trkpt lat="47.70565" lon="-2.35567">
        <ele>75.3</ele>
        <time>2021-05-27T12:12:04Z</time>
      </trkpt>
      <trkpt lat="47.70563" lon="-2.35561">
        <ele>74.9</ele>
        <time>2021-05-27T12:12:05Z</time>
      </trkpt>
      <trkpt lat="47.70561" lon="-2.35556">
        <ele>74.5</ele>
        <time>2021-05-27T12:12:06Z</time>
      </trkpt>
      <trkpt lat="47.70559" lon="-2.35551">
        <ele>74.1</ele>
        <time>2021-05-27T12:12:07Z</time>
      </trkpt>
      <trkpt lat="47.70558" lon="-2.35546">
        <ele>73.8</ele>
        <time>2021-05-27T12:12:08Z</time>
      </trkpt>
      <trkpt lat="47.70557" lon="-2.35541">
        <ele>73.5</ele>
        <time>2021-05-27T12:12:09Z</time>
      </trkpt>
      <trkpt lat="47.70556" lon="-2.35536">
        <ele>73.2</ele>
        <time>2021-05-27T12:12:10Z</time>
      </trkpt>
      <trkpt lat="47.70555" lon="-2.35532">
        <ele>72.9</ele>
        <time>2021-05-27T12:12:11Z</time>
      </trkpt>
      <trkpt lat="47.70554" lon="-2.35529">
        <ele>72.8</ele>
        <time>2021-05-27T12:12:12Z</time>
      </trkpt>
      <trkpt lat="47.70554" lon="-2.35524">
        <ele>72.5</ele>
        <time>2021-05-27T12:12:13Z</time>
      </trkpt>
      <trkpt lat="47.70553" lon="-2.35521">
        <ele>72.4</ele>
        <time>2021-05-27T12:12:14Z</time>
      </trkpt>
      <trkpt lat="47.70553" lon="-2.35516">
        <ele>72.1</ele>
        <time>2021-05-27T12:12:15Z</time>
      </trkpt>
      <trkpt lat="47.70551" lon="-2.35511">
        <ele>71.8</ele>
        <time>2021-05-27T12:12:16Z</time>
      </trkpt>
      <trkpt lat="47.70551" lon="-2.35507">
        <ele>71.6</ele>
        <time>2021-05-27T12:12:17Z</time>
      </trkpt>
      <trkpt lat="47.70552" lon="-2.35503">
        <ele>71.5</ele>
        <time>2021-05-27T12:12:18Z</time>
      </trkpt>
      <trkpt lat="47.70553" lon="-2.35498">
        <ele>71.5</ele>
        <time>2021-05-27T12:12:19Z</time>
      </trkpt>
      <trkpt lat="47.70552" lon="-2.35493">
        <ele>71.5</ele>
        <time>2021-05-27T12:12:20Z</time>
      </trkpt>
      <trkpt lat="47.70552" lon="-2.3549">
        <ele>71.4</ele>
        <time>2021-05-27T12:12:21Z</time>
      </trkpt>
      <trkpt lat="47.7055" lon="-2.35488">
        <ele>71.2</ele>
        <time>2021-05-27T12:12:22Z</time>
      </trkpt>
      <trkpt lat="47.70548" lon="-2.35487">
        <ele>70.9</ele>
        <time>2021-05-27T12:12:23Z</time>
      </trkpt>
      <trkpt lat="47.70547" lon="-2.35487">
        <ele>70.6</ele>
        <time>2021-05-27T12:12:24Z</time>
      </trkpt>
      <trkpt lat="47.70544" lon="-2.35487">
        <ele>70.3</ele>
        <time>2021-05-27T12:12:25Z</time>
      </trkpt>
      <trkpt lat="47.70542" lon="-2.35485">
        <ele>70</ele>
        <time>2021-05-27T12:12:26Z</time>
      </trkpt>
      <trkpt lat="47.7054" lon="-2.35481">
        <ele>69.6</ele>
        <time>2021-05-27T12:12:27Z</time>
      </trkpt>
      <trkpt lat="47.70537" lon="-2.35478">
        <ele>69.2</ele>
        <time>2021-05-27T12:12:28Z</time>
      </trkpt>
      <trkpt lat="47.70534" lon="-2.35476">
        <ele>68.8</ele>
        <time>2021-05-27T12:12:29Z</time>
      </trkpt>
      <trkpt lat="47.70531" lon="-2.35472">
        <ele>68.4</ele>
        <time>2021-05-27T12:12:30Z</time>
      </trkpt>
      <trkpt lat="47.70529" lon="-2.35468">
        <ele>68</ele>
        <time>2021-05-27T12:12:31Z</time>
      </trkpt>
      <trkpt lat="47.70528" lon="-2.35464">
        <ele>67.9</ele>
        <time>2021-05-27T12:12:32Z</time>
      </trkpt>
      <trkpt lat="47.70528" lon="-2.35461">
        <ele>67.9</ele>
        <time>2021-05-27T12:12:33Z</time>
      </trkpt>
      <trkpt lat="47.70528" lon="-2.35456">
        <ele>67.9</ele>
        <time>2021-05-27T12:12:34Z</time>
      </trkpt>
      <trkpt lat="47.70528" lon="-2.35452">
        <ele>67.9</ele>
        <time>2021-05-27T12:12:35Z</time>
      </trkpt>
      <trkpt lat="47.70529" lon="-2.35448">
        <ele>68</ele>
        <time>2021-05-27T12:12:36Z</time>
      </trkpt>
      <trkpt lat="47.70529" lon="-2.35445">
        <ele>68</ele>
        <time>2021-05-27T12:12:37Z</time>
      </trkpt>
      <trkpt lat="47.70529" lon="-2.35442">
        <ele>68</ele>
        <time>2021-05-27T12:12:38Z</time>
      </trkpt>
      <trkpt lat="47.70529" lon="-2.35438">
        <ele>68</ele>
        <time>2021-05-27T12:12:39Z</time>
      </trkpt>
      <trkpt lat="47.7053" lon="-2.35435">
        <ele>68</ele>
        <time>2021-05-27T12:12:40Z</time>
      </trkpt>
      <trkpt lat="47.7053" lon="-2.35432">
        <ele>68</ele>
        <time>2021-05-27T12:12:41Z</time>
      </trkpt>
      <trkpt lat="47.70531" lon="-2.35428">
        <ele>68.1</ele>
        <time>2021-05-27T12:12:42Z</time>
      </trkpt>
      <trkpt lat="47.70531" lon="-2.35424">
        <ele>68.1</ele>
        <time>2021-05-27T12:12:43Z</time>
      </trkpt>
      <trkpt lat="47.70531" lon="-2.3542">
        <ele>68.1</ele>
        <time>2021-05-27T12:12:44Z</time>
      </trkpt>
      <trkpt lat="47.7053" lon="-2.35416">
        <ele>68</ele>
        <time>2021-05-27T12:12:45Z</time>
      </trkpt>
      <trkpt lat="47.7053" lon="-2.35412">
        <ele>67.8</ele>
        <time>2021-05-27T12:12:46Z</time>
      </trkpt>
      <trkpt lat="47.70529" lon="-2.35407">
        <ele>67.7</ele>
        <time>2021-05-27T12:12:47Z</time>
      </trkpt>
      <trkpt lat="47.70529" lon="-2.35403">
        <ele>67.7</ele>
        <time>2021-05-27T12:12:48Z</time>
      </trkpt>
      <trkpt lat="47.70528" lon="-2.35399">
        <ele>67.6</ele>
        <time>2021-05-27T12:12:49Z</time>
      </trkpt>
      <trkpt lat="47.70528" lon="-2.35396">
        <ele>67.5</ele>
        <time>2021-05-27T12:12:50Z</time>
      </trkpt>
      <trkpt lat="47.70528" lon="-2.35393">
        <ele>67.4</ele>
        <time>2021-05-27T12:12:51Z</time>
      </trkpt>
      <trkpt lat="47.70528" lon="-2.35389">
        <ele>67.3</ele>
        <time>2021-05-27T12:12:52Z</time>
      </trkpt>
      <trkpt lat="47.70527" lon="-2.35385">
        <ele>67.2</ele>
        <time>2021-05-27T12:12:53Z</time>
      </trkpt>
      <trkpt lat="47.70527" lon="-2.3538">
        <ele>67.1</ele>
        <time>2021-05-27T12:12:54Z</time>
      </trkpt>
      <trkpt lat="47.70527" lon="-2.35375">
        <ele>67</ele>
        <time>2021-05-27T12:12:55Z</time>
      </trkpt>
      <trkpt lat="47.70527" lon="-2.3537">
        <ele>66.9</ele>
        <time>2021-05-27T12:12:56Z</time>
      </trkpt>
      <trkpt lat="47.70526" lon="-2.35365">
        <ele>66.9</ele>
        <time>2021-05-27T12:12:57Z</time>
      </trkpt>
      <trkpt lat="47.70526" lon="-2.35361">
        <ele>66.7</ele>
        <time>2021-05-27T12:12:58Z</time>
      </trkpt>
      <trkpt lat="47.70525" lon="-2.35356">
        <ele>66.6</ele>
        <time>2021-05-27T12:12:59Z</time>
      </trkpt>
      <trkpt lat="47.70525" lon="-2.35352">
        <ele>66.6</ele>
        <time>2021-05-27T12:13:00Z</time>
      </trkpt>
      <trkpt lat="47.70526" lon="-2.35348">
        <ele>66.6</ele>
        <time>2021-05-27T12:13:01Z</time>
      </trkpt>
      <trkpt lat="47.70526" lon="-2.35343">
        <ele>66.6</ele>
        <time>2021-05-27T12:13:02Z</time>
      </trkpt>
      <trkpt lat="47.70526" lon="-2.35338">
        <ele>66.5</ele>
        <time>2021-05-27T12:13:03Z</time>
      </trkpt>
      <trkpt lat="47.70525" lon="-2.35333">
        <ele>66.4</ele>
        <time>2021-05-27T12:13:04Z</time>
      </trkpt>
      <trkpt lat="47.70525" lon="-2.35328">
        <ele>66.4</ele>
        <time>2021-05-27T12:13:05Z</time>
      </trkpt>
      <trkpt lat="47.70525" lon="-2.35324">
        <ele>66.5</ele>
        <time>2021-05-27T12:13:06Z</time>
      </trkpt>
      <trkpt lat="47.70525" lon="-2.35319">
        <ele>66.5</ele>
        <time>2021-05-27T12:13:07Z</time>
      </trkpt>
      <trkpt lat="47.70524" lon="-2.35315">
        <ele>66.6</ele>
        <time>2021-05-27T12:13:08Z</time>
      </trkpt>
      <trkpt lat="47.70525" lon="-2.35311">
        <ele>66.8</ele>
        <time>2021-05-27T12:13:09Z</time>
      </trkpt>
      <trkpt lat="47.70526" lon="-2.35306">
        <ele>67</ele>
        <time>2021-05-27T12:13:10Z</time>
      </trkpt>
      <trkpt lat="47.70526" lon="-2.35301">
        <ele>67.1</ele>
        <time>2021-05-27T12:13:11Z</time>
      </trkpt>
      <trkpt lat="47.70527" lon="-2.35297">
        <ele>67.2</ele>
        <time>2021-05-27T12:13:12Z</time>
      </trkpt>
      <trkpt lat="47.70528" lon="-2.35293">
        <ele>67.5</ele>
        <time>2021-05-27T12:13:13Z</time>
      </trkpt>
      <trkpt lat="47.70529" lon="-2.3529">
        <ele>67.7</ele>
        <time>2021-05-27T12:13:14Z</time>
      </trkpt>
      <trkpt lat="47.70531" lon="-2.35288">
        <ele>68</ele>
        <time>2021-05-27T12:13:15Z</time>
      </trkpt>
      <trkpt lat="47.70533" lon="-2.35286">
        <ele>68.3</ele>
        <time>2021-05-27T12:13:16Z</time>
      </trkpt>
      <trkpt lat="47.70535" lon="-2.35285">
        <ele>68.6</ele>
        <time>2021-05-27T12:13:17Z</time>
      </trkpt>
      <trkpt lat="47.70536" lon="-2.35285">
        <ele>68.7</ele>
        <time>2021-05-27T12:13:18Z</time>
      </trkpt>
      <trkpt lat="47.70537" lon="-2.35284">
        <ele>68.9</ele>
        <time>2021-05-27T12:13:19Z</time>
      </trkpt>
      <trkpt lat="47.70539" lon="-2.35283">
        <ele>69.1</ele>
        <time>2021-05-27T12:13:20Z</time>
      </trkpt>
      <trkpt lat="47.70541" lon="-2.35283">
        <ele>69.3</ele>
        <time>2021-05-27T12:13:21Z</time>
      </trkpt>
      <trkpt lat="47.70543" lon="-2.35282">
        <ele>69.6</ele>
        <time>2021-05-27T12:13:22Z</time>
      </trkpt>
      <trkpt lat="47.70544" lon="-2.3528">
        <ele>69.8</ele>
        <time>2021-05-27T12:13:23Z</time>
      </trkpt>
      <trkpt lat="47.70545" lon="-2.35278">
        <ele>69.9</ele>
        <time>2021-05-27T12:13:24Z</time>
      </trkpt>
      <trkpt lat="47.70547" lon="-2.35276">
        <ele>70.2</ele>
        <time>2021-05-27T12:13:25Z</time>
      </trkpt>
      <trkpt lat="47.70548" lon="-2.35274">
        <ele>70.3</ele>
        <time>2021-05-27T12:13:26Z</time>
      </trkpt>
      <trkpt lat="47.70548" lon="-2.35273">
        <ele>70.4</ele>
        <time>2021-05-27T12:13:27Z</time>
      </trkpt>
      <trkpt lat="47.70548" lon="-2.35273">
        <ele>70.4</ele>
        <time>2021-05-27T12:13:28Z</time>
      </trkpt>
      <trkpt lat="47.70548" lon="-2.35273">
        <ele>70.4</ele>
        <time>2021-05-27T12:13:29Z</time>
      </trkpt>
      <trkpt lat="47.70548" lon="-2.35273">
        <ele>70.4</ele>
        <time>2021-05-27T12:13:30Z</time>
      </trkpt>
      <trkpt lat="47.70548" lon="-2.35273">
        <ele>70.4</ele>
        <time>2021-05-27T12:13:31Z</time>
      </trkpt>
      <trkpt lat="47.70548" lon="-2.35273">
        <ele>70.4</ele>
        <time>2021-05-27T12:13:32Z</time>
      </trkpt>
      <trkpt lat="47.70548" lon="-2.35273">
        <ele>70.4</ele>
        <time>2021-05-27T12:13:33Z</time>
      </trkpt>
      <trkpt lat="47.70548" lon="-2.35273">
        <ele>70.4</ele>
        <time>2021-05-27T12:13:34Z</time>
      </trkpt>
      <trkpt lat="47.70548" lon="-2.35273">
        <ele>70.4</ele>
        <time>2021-05-27T12:13:35Z</time>
      </trkpt>
      <trkpt lat="47.70548" lon="-2.35273">
        <ele>70.4</ele>
        <time>2021-05-27T12:13:36Z</time>
      </trkpt>
      <trkpt lat="47.70548" lon="-2.3527">
        <ele>70.4</ele>
        <time>2021-05-27T12:13:37Z</time>
      </trkpt>
      <trkpt lat="47.70547" lon="-2.35268">
        <ele>70.4</ele>
        <time>2021-05-27T12:13:38Z</time>
      </trkpt>
      <trkpt lat="47.70546" lon="-2.35266">
        <ele>70.3</ele>
        <time>2021-05-27T12:13:39Z</time>
      </trkpt>
      <trkpt lat="47.70545" lon="-2.35264">
        <ele>70.2</ele>
        <time>2021-05-27T12:13:40Z</time>
      </trkpt>
      <trkpt lat="47.70545" lon="-2.35261">
        <ele>70.2</ele>
        <time>2021-05-27T12:13:41Z</time>
      </trkpt>
      <trkpt lat="47.70546" lon="-2.35259">
        <ele>70.3</ele>
        <time>2021-05-27T12:13:42Z</time>
      </trkpt>
      <trkpt lat="47.70546" lon="-2.35256">
        <ele>70.4</ele>
        <time>2021-05-27T12:13:43Z</time>
      </trkpt>
      <trkpt lat="47.70546" lon="-2.35252">
        <ele>70.4</ele>
        <time>2021-05-27T12:13:44Z</time>
      </trkpt>
      <trkpt lat="47.70545" lon="-2.35249">
        <ele>70.4</ele>
        <time>2021-05-27T12:13:45Z</time>
      </trkpt>
      <trkpt lat="47.70544" lon="-2.35247">
        <ele>70.3</ele>
        <time>2021-05-27T12:13:46Z</time>
      </trkpt>
      <trkpt lat="47.70542" lon="-2.35244">
        <ele>70.1</ele>
        <time>2021-05-27T12:13:47Z</time>
      </trkpt>
      <trkpt lat="47.70541" lon="-2.35242">
        <ele>69.9</ele>
        <time>2021-05-27T12:13:48Z</time>
      </trkpt>
      <trkpt lat="47.70538" lon="-2.3524">
        <ele>69.7</ele>
        <time>2021-05-27T12:13:49Z</time>
      </trkpt>
      <trkpt lat="47.70538" lon="-2.35238">
        <ele>69.6</ele>
        <time>2021-05-27T12:13:50Z</time>
      </trkpt>
      <trkpt lat="47.70537" lon="-2.35236">
        <ele>69.6</ele>
        <time>2021-05-27T12:13:51Z</time>
      </trkpt>
      <trkpt lat="47.70537" lon="-2.35233">
        <ele>69.5</ele>
        <time>2021-05-27T12:13:52Z</time>
      </trkpt>
      <trkpt lat="47.70536" lon="-2.3523">
        <ele>69.5</ele>
        <time>2021-05-27T12:13:53Z</time>
      </trkpt>
      <trkpt lat="47.70535" lon="-2.35227">
        <ele>69.4</ele>
        <time>2021-05-27T12:13:54Z</time>
      </trkpt>
      <trkpt lat="47.70534" lon="-2.35223">
        <ele>69.3</ele>
        <time>2021-05-27T12:13:55Z</time>
      </trkpt>
      <trkpt lat="47.70534" lon="-2.35219">
        <ele>69.3</ele>
        <time>2021-05-27T12:13:56Z</time>
      </trkpt>
      <trkpt lat="47.70534" lon="-2.35216">
        <ele>69.4</ele>
        <time>2021-05-27T12:13:57Z</time>
      </trkpt>
      <trkpt lat="47.70536" lon="-2.35214">
        <ele>69.6</ele>
        <time>2021-05-27T12:13:58Z</time>
      </trkpt>
      <trkpt lat="47.70537" lon="-2.35211">
        <ele>69.7</ele>
        <time>2021-05-27T12:13:59Z</time>
      </trkpt>
      <trkpt lat="47.70537" lon="-2.35206">
        <ele>69.8</ele>
        <time>2021-05-27T12:14:00Z</time>
      </trkpt>
      <trkpt lat="47.70537" lon="-2.35202">
        <ele>69.7</ele>
        <time>2021-05-27T12:14:01Z</time>
      </trkpt>
      <trkpt lat="47.70536" lon="-2.35197">
        <ele>69.7</ele>
        <time>2021-05-27T12:14:02Z</time>
      </trkpt>
      <trkpt lat="47.70535" lon="-2.35192">
        <ele>69.6</ele>
        <time>2021-05-27T12:14:03Z</time>
      </trkpt>
      <trkpt lat="47.70535" lon="-2.35189">
        <ele>69.6</ele>
        <time>2021-05-27T12:14:04Z</time>
      </trkpt>
      <trkpt lat="47.70536" lon="-2.35185">
        <ele>69.7</ele>
        <time>2021-05-27T12:14:05Z</time>
      </trkpt>
      <trkpt lat="47.70537" lon="-2.35182">
        <ele>69.9</ele>
        <time>2021-05-27T12:14:06Z</time>
      </trkpt>
      <trkpt lat="47.70537" lon="-2.35179">
        <ele>70</ele>
        <time>2021-05-27T12:14:07Z</time>
      </trkpt>
      <trkpt lat="47.70538" lon="-2.35175">
        <ele>70</ele>
        <time>2021-05-27T12:14:08Z</time>
      </trkpt>
      <trkpt lat="47.70538" lon="-2.35172">
        <ele>70.1</ele>
        <time>2021-05-27T12:14:09Z</time>
      </trkpt>
      <trkpt lat="47.70537" lon="-2.35167">
        <ele>70</ele>
        <time>2021-05-27T12:14:10Z</time>
      </trkpt>
      <trkpt lat="47.70537" lon="-2.35163">
        <ele>70</ele>
        <time>2021-05-27T12:14:11Z</time>
      </trkpt>
      <trkpt lat="47.70536" lon="-2.3516">
        <ele>70</ele>
        <time>2021-05-27T12:14:12Z</time>
      </trkpt>
      <trkpt lat="47.70535" lon="-2.35157">
        <ele>70</ele>
        <time>2021-05-27T12:14:13Z</time>
      </trkpt>
      <trkpt lat="47.70535" lon="-2.35155">
        <ele>70.1</ele>
        <time>2021-05-27T12:14:14Z</time>
      </trkpt>
      <trkpt lat="47.70535" lon="-2.35152">
        <ele>70.1</ele>
        <time>2021-05-27T12:14:15Z</time>
      </trkpt>
      <trkpt lat="47.70535" lon="-2.3515">
        <ele>70.1</ele>
        <time>2021-05-27T12:14:16Z</time>
      </trkpt>
      <trkpt lat="47.70534" lon="-2.35148">
        <ele>70.1</ele>
        <time>2021-05-27T12:14:17Z</time>
      </trkpt>
      <trkpt lat="47.70534" lon="-2.35145">
        <ele>70.1</ele>
        <time>2021-05-27T12:14:18Z</time>
      </trkpt>
      <trkpt lat="47.70534" lon="-2.35143">
        <ele>70.2</ele>
        <time>2021-05-27T12:14:19Z</time>
      </trkpt>
      <trkpt lat="47.70533" lon="-2.3514">
        <ele>70.1</ele>
        <time>2021-05-27T12:14:20Z</time>
      </trkpt>
      <trkpt lat="47.70532" lon="-2.35138">
        <ele>70.1</ele>
        <time>2021-05-27T12:14:21Z</time>
      </trkpt>
      <trkpt lat="47.70531" lon="-2.35136">
        <ele>70</ele>
        <time>2021-05-27T12:14:22Z</time>
      </trkpt>
      <trkpt lat="47.70531" lon="-2.35135">
        <ele>70.1</ele>
        <time>2021-05-27T12:14:23Z</time>
      </trkpt>
      <trkpt lat="47.70532" lon="-2.35133">
        <ele>70.2</ele>
        <time>2021-05-27T12:14:24Z</time>
      </trkpt>
      <trkpt lat="47.70532" lon="-2.3513">
        <ele>70.3</ele>
        <time>2021-05-27T12:14:25Z</time>
      </trkpt>
      <trkpt lat="47.70532" lon="-2.35127">
        <ele>70.4</ele>
        <time>2021-05-27T12:14:26Z</time>
      </trkpt>
      <trkpt lat="47.70533" lon="-2.35124">
        <ele>70.5</ele>
        <time>2021-05-27T12:14:27Z</time>
      </trkpt>
      <trkpt lat="47.70533" lon="-2.35121">
        <ele>70.6</ele>
        <time>2021-05-27T12:14:28Z</time>
      </trkpt>
      <trkpt lat="47.70532" lon="-2.35117">
        <ele>70.6</ele>
        <time>2021-05-27T12:14:29Z</time>
      </trkpt>
      <trkpt lat="47.70532" lon="-2.35113">
        <ele>70.6</ele>
        <time>2021-05-27T12:14:30Z</time>
      </trkpt>
      <trkpt lat="47.70532" lon="-2.3511">
        <ele>70.7</ele>
        <time>2021-05-27T12:14:31Z</time>
      </trkpt>
      <trkpt lat="47.70532" lon="-2.35106">
        <ele>70.8</ele>
        <time>2021-05-27T12:14:32Z</time>
      </trkpt>
      <trkpt lat="47.70534" lon="-2.35103">
        <ele>71</ele>
        <time>2021-05-27T12:14:33Z</time>
      </trkpt>
      <trkpt lat="47.70536" lon="-2.35102">
        <ele>71.2</ele>
        <time>2021-05-27T12:14:34Z</time>
      </trkpt>
      <trkpt lat="47.70538" lon="-2.35102">
        <ele>71.3</ele>
        <time>2021-05-27T12:14:35Z</time>
      </trkpt>
      <trkpt lat="47.70539" lon="-2.35102">
        <ele>71.5</ele>
        <time>2021-05-27T12:14:36Z</time>
      </trkpt>
      <trkpt lat="47.70541" lon="-2.35103">
        <ele>71.6</ele>
        <time>2021-05-27T12:14:37Z</time>
      </trkpt>
      <trkpt lat="47.70542" lon="-2.35102">
        <ele>71.7</ele>
        <time>2021-05-27T12:14:38Z</time>
      </trkpt>
      <trkpt lat="47.70542" lon="-2.351">
        <ele>71.8</ele>
        <time>2021-05-27T12:14:39Z</time>
      </trkpt>
      <trkpt lat="47.70544" lon="-2.35097">
        <ele>71.9</ele>
        <time>2021-05-27T12:14:40Z</time>
      </trkpt>
      <trkpt lat="47.70545" lon="-2.35095">
        <ele>72.1</ele>
        <time>2021-05-27T12:14:41Z</time>
      </trkpt>
      <trkpt lat="47.70547" lon="-2.35094">
        <ele>72.2</ele>
        <time>2021-05-27T12:14:42Z</time>
      </trkpt>
      <trkpt lat="47.70548" lon="-2.35092">
        <ele>72.3</ele>
        <time>2021-05-27T12:14:43Z</time>
      </trkpt>
      <trkpt lat="47.70549" lon="-2.35089">
        <ele>72.4</ele>
        <time>2021-05-27T12:14:44Z</time>
      </trkpt>
      <trkpt lat="47.7055" lon="-2.35087">
        <ele>72.5</ele>
        <time>2021-05-27T12:14:45Z</time>
      </trkpt>
      <trkpt lat="47.7055" lon="-2.35086">
        <ele>72.6</ele>
        <time>2021-05-27T12:14:46Z</time>
      </trkpt>
      <trkpt lat="47.70552" lon="-2.35084">
        <ele>72.7</ele>
        <time>2021-05-27T12:14:47Z</time>
      </trkpt>
      <trkpt lat="47.70554" lon="-2.35083">
        <ele>72.9</ele>
        <time>2021-05-27T12:14:48Z</time>
      </trkpt>
      <trkpt lat="47.70555" lon="-2.35081">
        <ele>73</ele>
        <time>2021-05-27T12:14:49Z</time>
      </trkpt>
      <trkpt lat="47.70557" lon="-2.35079">
        <ele>73.2</ele>
        <time>2021-05-27T12:14:50Z</time>
      </trkpt>
      <trkpt lat="47.70558" lon="-2.35077">
        <ele>73.3</ele>
        <time>2021-05-27T12:14:51Z</time>
      </trkpt>
      <trkpt lat="47.70558" lon="-2.35073">
        <ele>73.4</ele>
        <time>2021-05-27T12:14:52Z</time>
      </trkpt>
      <trkpt lat="47.70559" lon="-2.3507">
        <ele>73.4</ele>
        <time>2021-05-27T12:14:53Z</time>
      </trkpt>
      <trkpt lat="47.70559" lon="-2.35067">
        <ele>73.5</ele>
        <time>2021-05-27T12:14:54Z</time>
      </trkpt>
      <trkpt lat="47.7056" lon="-2.35064">
        <ele>73.6</ele>
        <time>2021-05-27T12:14:55Z</time>
      </trkpt>
      <trkpt lat="47.70561" lon="-2.35062">
        <ele>73.7</ele>
        <time>2021-05-27T12:14:56Z</time>
      </trkpt>
      <trkpt lat="47.70563" lon="-2.3506">
        <ele>73.9</ele>
        <time>2021-05-27T12:14:57Z</time>
      </trkpt>
      <trkpt lat="47.70564" lon="-2.35058">
        <ele>74</ele>
        <time>2021-05-27T12:14:58Z</time>
      </trkpt>
      <trkpt lat="47.70565" lon="-2.35057">
        <ele>74.1</ele>
        <time>2021-05-27T12:14:59Z</time>
      </trkpt>
      <trkpt lat="47.70567" lon="-2.35055">
        <ele>74.2</ele>
        <time>2021-05-27T12:15:00Z</time>
      </trkpt>
      <trkpt lat="47.70567" lon="-2.35053">
        <ele>74.3</ele>
        <time>2021-05-27T12:15:01Z</time>
      </trkpt>
      <trkpt lat="47.70568" lon="-2.35049">
        <ele>74.4</ele>
        <time>2021-05-27T12:15:02Z</time>
      </trkpt>
      <trkpt lat="47.70568" lon="-2.35046">
        <ele>74.4</ele>
        <time>2021-05-27T12:15:03Z</time>
      </trkpt>
      <trkpt lat="47.70567" lon="-2.35043">
        <ele>74.4</ele>
        <time>2021-05-27T12:15:04Z</time>
      </trkpt>
      <trkpt lat="47.70567" lon="-2.35039">
        <ele>74.5</ele>
        <time>2021-05-27T12:15:05Z</time>
      </trkpt>
      <trkpt lat="47.70568" lon="-2.35034">
        <ele>74.6</ele>
        <time>2021-05-27T12:15:06Z</time>
      </trkpt>
      <trkpt lat="47.70568" lon="-2.3503">
        <ele>74.7</ele>
        <time>2021-05-27T12:15:07Z</time>
      </trkpt>
      <trkpt lat="47.70569" lon="-2.35025">
        <ele>74.8</ele>
        <time>2021-05-27T12:15:08Z</time>
      </trkpt>
      <trkpt lat="47.7057" lon="-2.35021">
        <ele>74.9</ele>
        <time>2021-05-27T12:15:09Z</time>
      </trkpt>
      <trkpt lat="47.70571" lon="-2.35018">
        <ele>75</ele>
        <time>2021-05-27T12:15:10Z</time>
      </trkpt>
      <trkpt lat="47.70573" lon="-2.35015">
        <ele>75.2</ele>
        <time>2021-05-27T12:15:11Z</time>
      </trkpt>
      <trkpt lat="47.70574" lon="-2.35012">
        <ele>75.3</ele>
        <time>2021-05-27T12:15:12Z</time>
      </trkpt>
      <trkpt lat="47.70574" lon="-2.35009">
        <ele>75.4</ele>
        <time>2021-05-27T12:15:13Z</time>
      </trkpt>
      <trkpt lat="47.70575" lon="-2.35006">
        <ele>75.4</ele>
        <time>2021-05-27T12:15:14Z</time>
      </trkpt>
      <trkpt lat="47.70576" lon="-2.35002">
        <ele>75.5</ele>
        <time>2021-05-27T12:15:15Z</time>
      </trkpt>
      <trkpt lat="47.70575" lon="-2.34999">
        <ele>75.5</ele>
        <time>2021-05-27T12:15:16Z</time>
      </trkpt>
      <trkpt lat="47.70575" lon="-2.34996">
        <ele>75.6</ele>
        <time>2021-05-27T12:15:17Z</time>
      </trkpt>
      <trkpt lat="47.70574" lon="-2.34992">
        <ele>75.6</ele>
        <time>2021-05-27T12:15:18Z</time>
      </trkpt>
      <trkpt lat="47.70574" lon="-2.34989">
        <ele>75.6</ele>
        <time>2021-05-27T12:15:19Z</time>
      </trkpt>
      <trkpt lat="47.70573" lon="-2.34987">
        <ele>75.6</ele>
        <time>2021-05-27T12:15:20Z</time>
      </trkpt>
      <trkpt lat="47.70572" lon="-2.34985">
        <ele>75.5</ele>
        <time>2021-05-27T12:15:21Z</time>
      </trkpt>
      <trkpt lat="47.70569" lon="-2.34984">
        <ele>75.4</ele>
        <time>2021-05-27T12:15:22Z</time>
      </trkpt>
      <trkpt lat="47.70567" lon="-2.34984">
        <ele>75.3</ele>
        <time>2021-05-27T12:15:23Z</time>
      </trkpt>
      <trkpt lat="47.70565" lon="-2.34984">
        <ele>75.2</ele>
        <time>2021-05-27T12:15:24Z</time>
      </trkpt>
      <trkpt lat="47.70563" lon="-2.34985">
        <ele>75</ele>
        <time>2021-05-27T12:15:25Z</time>
      </trkpt>
      <trkpt lat="47.7056" lon="-2.34987">
        <ele>74.8</ele>
        <time>2021-05-27T12:15:26Z</time>
      </trkpt>
      <trkpt lat="47.70557" lon="-2.34989">
        <ele>74.6</ele>
        <time>2021-05-27T12:15:27Z</time>
      </trkpt>
      <trkpt lat="47.70555" lon="-2.34991">
        <ele>74.5</ele>
        <time>2021-05-27T12:15:28Z</time>
      </trkpt>
      <trkpt lat="47.70554" lon="-2.34992">
        <ele>74.3</ele>
        <time>2021-05-27T12:15:29Z</time>
      </trkpt>
      <trkpt lat="47.70551" lon="-2.34993">
        <ele>74.2</ele>
        <time>2021-05-27T12:15:30Z</time>
      </trkpt>
      <trkpt lat="47.70548" lon="-2.34994">
        <ele>74</ele>
        <time>2021-05-27T12:15:31Z</time>
      </trkpt>
      <trkpt lat="47.70546" lon="-2.34995">
        <ele>73.8</ele>
        <time>2021-05-27T12:15:32Z</time>
      </trkpt>
      <trkpt lat="47.70543" lon="-2.34996">
        <ele>73.6</ele>
        <time>2021-05-27T12:15:33Z</time>
      </trkpt>
      <trkpt lat="47.7054" lon="-2.34997">
        <ele>73.5</ele>
        <time>2021-05-27T12:15:34Z</time>
      </trkpt>
      <trkpt lat="47.70538" lon="-2.34999">
        <ele>73.3</ele>
        <time>2021-05-27T12:15:35Z</time>
      </trkpt>
      <trkpt lat="47.70536" lon="-2.35001">
        <ele>73.1</ele>
        <time>2021-05-27T12:15:36Z</time>
      </trkpt>
      <trkpt lat="47.70533" lon="-2.35003">
        <ele>72.9</ele>
        <time>2021-05-27T12:15:37Z</time>
      </trkpt>
      <trkpt lat="47.7053" lon="-2.35005">
        <ele>72.7</ele>
        <time>2021-05-27T12:15:38Z</time>
      </trkpt>
      <trkpt lat="47.70528" lon="-2.35007">
        <ele>72.5</ele>
        <time>2021-05-27T12:15:39Z</time>
      </trkpt>
      <trkpt lat="47.70525" lon="-2.35009">
        <ele>72.3</ele>
        <time>2021-05-27T12:15:40Z</time>
      </trkpt>
      <trkpt lat="47.70523" lon="-2.3501">
        <ele>72.2</ele>
        <time>2021-05-27T12:15:41Z</time>
      </trkpt>
      <trkpt lat="47.7052" lon="-2.35011">
        <ele>72</ele>
        <time>2021-05-27T12:15:42Z</time>
      </trkpt>
      <trkpt lat="47.70518" lon="-2.35012">
        <ele>71.8</ele>
        <time>2021-05-27T12:15:43Z</time>
      </trkpt>
      <trkpt lat="47.70516" lon="-2.35013">
        <ele>71.7</ele>
        <time>2021-05-27T12:15:44Z</time>
      </trkpt>
      <trkpt lat="47.70514" lon="-2.35015">
        <ele>71.5</ele>
        <time>2021-05-27T12:15:45Z</time>
      </trkpt>
      <trkpt lat="47.70512" lon="-2.35015">
        <ele>71.4</ele>
        <time>2021-05-27T12:15:46Z</time>
      </trkpt>
      <trkpt lat="47.7051" lon="-2.35015">
        <ele>71.3</ele>
        <time>2021-05-27T12:15:47Z</time>
      </trkpt>
      <trkpt lat="47.70509" lon="-2.35014">
        <ele>71.2</ele>
        <time>2021-05-27T12:15:48Z</time>
      </trkpt>
      <trkpt lat="47.70509" lon="-2.35013">
        <ele>71.3</ele>
        <time>2021-05-27T12:15:49Z</time>
      </trkpt>
      <trkpt lat="47.7051" lon="-2.35014">
        <ele>71.3</ele>
        <time>2021-05-27T12:15:50Z</time>
      </trkpt>
      <trkpt lat="47.7051" lon="-2.35014">
        <ele>71.3</ele>
        <time>2021-05-27T12:15:51Z</time>
      </trkpt>
      <trkpt lat="47.7051" lon="-2.35014">
        <ele>71.3</ele>
        <time>2021-05-27T12:15:52Z</time>
      </trkpt>
      <trkpt lat="47.7051" lon="-2.35014">
        <ele>71.3</ele>
        <time>2021-05-27T12:15:53Z</time>
      </trkpt>
      <trkpt lat="47.7051" lon="-2.35014">
        <ele>71.3</ele>
        <time>2021-05-27T12:15:54Z</time>
      </trkpt>
      <trkpt lat="47.7051" lon="-2.35014">
        <ele>71.3</ele>
        <time>2021-05-27T12:15:55Z</time>
      </trkpt>
      <trkpt lat="47.7051" lon="-2.35014">
        <ele>71.3</ele>
        <time>2021-05-27T12:15:56Z</time>
      </trkpt>
      <trkpt lat="47.7051" lon="-2.35014">
        <ele>71.3</ele>
        <time>2021-05-27T12:15:57Z</time>
      </trkpt>
      <trkpt lat="47.7051" lon="-2.35014">
        <ele>71.3</ele>
        <time>2021-05-27T12:15:58Z</time>
      </trkpt>
      <trkpt lat="47.7051" lon="-2.35014">
        <ele>71.3</ele>
        <time>2021-05-27T12:15:59Z</time>
      </trkpt>
      <trkpt lat="47.7051" lon="-2.35014">
        <ele>71.3</ele>
        <time>2021-05-27T12:16:00Z</time>
      </trkpt>
      <trkpt lat="47.7051" lon="-2.35014">
        <ele>71.3</ele>
        <time>2021-05-27T12:16:01Z</time>
      </trkpt>
      <trkpt lat="47.7051" lon="-2.35014">
        <ele>71.3</ele>
        <time>2021-05-27T12:16:02Z</time>
      </trkpt>
      <trkpt lat="47.7051" lon="-2.35014">
        <ele>71.3</ele>
        <time>2021-05-27T12:16:03Z</time>
      </trkpt>
      <trkpt lat="47.7051" lon="-2.35014">
        <ele>71.3</ele>
        <time>2021-05-27T12:16:04Z</time>
      </trkpt>
      <trkpt lat="47.7051" lon="-2.35014">
        <ele>71.3</ele>
        <time>2021-05-27T12:16:05Z</time>
      </trkpt>
      <trkpt lat="47.7051" lon="-2.35014">
        <ele>71.3</ele>
        <time>2021-05-27T12:16:06Z</time>
      </trkpt>
      <trkpt lat="47.7051" lon="-2.35014">
        <ele>71.3</ele>
        <time>2021-05-27T12:16:07Z</time>
      </trkpt>
      <trkpt lat="47.7051" lon="-2.35014">
        <ele>71.3</ele>
        <time>2021-05-27T12:16:08Z</time>
      </trkpt>
      <trkpt lat="47.7051" lon="-2.35014">
        <ele>71.3</ele>
        <time>2021-05-27T12:16:09Z</time>
      </trkpt>
      <trkpt lat="47.7051" lon="-2.35014">
        <ele>71.3</ele>
        <time>2021-05-27T12:16:10Z</time>
      </trkpt>
      <trkpt lat="47.7051" lon="-2.35014">
        <ele>71.3</ele>
        <time>2021-05-27T12:16:11Z</time>
      </trkpt>
      <trkpt lat="47.7051" lon="-2.35014">
        <ele>71.3</ele>
        <time>2021-05-27T12:16:12Z</time>
      </trkpt>
      <trkpt lat="47.7051" lon="-2.35014">
        <ele>71.3</ele>
        <time>2021-05-27T12:16:13Z</time>
      </trkpt>
      <trkpt lat="47.7051" lon="-2.35014">
        <ele>71.3</ele>
        <time>2021-05-27T12:16:14Z</time>
      </trkpt>
      <trkpt lat="47.7051" lon="-2.35014">
        <ele>71.3</ele>
        <time>2021-05-27T12:16:15Z</time>
      </trkpt>
      <trkpt lat="47.70511" lon="-2.3501">
        <ele>71.5</ele>
        <time>2021-05-27T12:16:16Z</time>
      </trkpt>
      <trkpt lat="47.70509" lon="-2.35005">
        <ele>71.5</ele>
        <time>2021-05-27T12:16:17Z</time>
      </trkpt>
      <trkpt lat="47.70508" lon="-2.35001">
        <ele>71.5</ele>
        <time>2021-05-27T12:16:18Z</time>
      </trkpt>
      <trkpt lat="47.70506" lon="-2.34996">
        <ele>71.5</ele>
        <time>2021-05-27T12:16:19Z</time>
      </trkpt>
      <trkpt lat="47.70505" lon="-2.34992">
        <ele>71.5</ele>
        <time>2021-05-27T12:16:20Z</time>
      </trkpt>
      <trkpt lat="47.70503" lon="-2.34988">
        <ele>71.5</ele>
        <time>2021-05-27T12:16:21Z</time>
      </trkpt>
      <trkpt lat="47.70502" lon="-2.34984">
        <ele>71.5</ele>
        <time>2021-05-27T12:16:22Z</time>
      </trkpt>
      <trkpt lat="47.70501" lon="-2.34982">
        <ele>71.5</ele>
        <time>2021-05-27T12:16:23Z</time>
      </trkpt>
      <trkpt lat="47.70501" lon="-2.34981">
        <ele>71.5</ele>
        <time>2021-05-27T12:16:24Z</time>
      </trkpt>
      <trkpt lat="47.70501" lon="-2.34981">
        <ele>71.5</ele>
        <time>2021-05-27T12:16:25Z</time>
      </trkpt>
      <trkpt lat="47.70501" lon="-2.34981">
        <ele>71.5</ele>
        <time>2021-05-27T12:16:26Z</time>
      </trkpt>
      <trkpt lat="47.70501" lon="-2.34981">
        <ele>71.5</ele>
        <time>2021-05-27T12:16:27Z</time>
      </trkpt>
      <trkpt lat="47.70501" lon="-2.34981">
        <ele>71.5</ele>
        <time>2021-05-27T12:16:28Z</time>
      </trkpt>
      <trkpt lat="47.70501" lon="-2.34981">
        <ele>71.5</ele>
        <time>2021-05-27T12:16:29Z</time>
      </trkpt>
      <trkpt lat="47.70501" lon="-2.34981">
        <ele>71.5</ele>
        <time>2021-05-27T12:16:30Z</time>
      </trkpt>
      <trkpt lat="47.70501" lon="-2.34981">
        <ele>71.5</ele>
        <time>2021-05-27T12:16:31Z</time>
      </trkpt>
      <trkpt lat="47.70501" lon="-2.34981">
        <ele>71.5</ele>
        <time>2021-05-27T12:16:32Z</time>
      </trkpt>
      <trkpt lat="47.70501" lon="-2.34981">
        <ele>71.5</ele>
        <time>2021-05-27T12:16:33Z</time>
      </trkpt>
      <trkpt lat="47.70501" lon="-2.34981">
        <ele>71.5</ele>
        <time>2021-05-27T12:16:34Z</time>
      </trkpt>
      <trkpt lat="47.70499" lon="-2.34973">
        <ele>71.4</ele>
        <time>2021-05-27T12:16:35Z</time>
      </trkpt>
      <trkpt lat="47.70499" lon="-2.34972">
        <ele>71.4</ele>
        <time>2021-05-27T12:16:36Z</time>
      </trkpt>
      <trkpt lat="47.70498" lon="-2.3497">
        <ele>71.4</ele>
        <time>2021-05-27T12:16:37Z</time>
      </trkpt>
      <trkpt lat="47.70498" lon="-2.34967">
        <ele>71.4</ele>
        <time>2021-05-27T12:16:38Z</time>
      </trkpt>
      <trkpt lat="47.70499" lon="-2.34965">
        <ele>71.6</ele>
        <time>2021-05-27T12:16:39Z</time>
      </trkpt>
      <trkpt lat="47.705" lon="-2.34963">
        <ele>71.8</ele>
        <time>2021-05-27T12:16:40Z</time>
      </trkpt>
      <trkpt lat="47.70501" lon="-2.34961">
        <ele>72</ele>
        <time>2021-05-27T12:16:41Z</time>
      </trkpt>
      <trkpt lat="47.70501" lon="-2.34959">
        <ele>72</ele>
        <time>2021-05-27T12:16:42Z</time>
      </trkpt>
      <trkpt lat="47.70501" lon="-2.34956">
        <ele>72.1</ele>
        <time>2021-05-27T12:16:43Z</time>
      </trkpt>
      <trkpt lat="47.70501" lon="-2.34952">
        <ele>72.2</ele>
        <time>2021-05-27T12:16:44Z</time>
      </trkpt>
      <trkpt lat="47.70501" lon="-2.3495">
        <ele>72.3</ele>
        <time>2021-05-27T12:16:45Z</time>
      </trkpt>
      <trkpt lat="47.70501" lon="-2.34947">
        <ele>72.3</ele>
        <time>2021-05-27T12:16:46Z</time>
      </trkpt>
      <trkpt lat="47.70501" lon="-2.34943">
        <ele>72.4</ele>
        <time>2021-05-27T12:16:47Z</time>
      </trkpt>
      <trkpt lat="47.70501" lon="-2.3494">
        <ele>72.5</ele>
        <time>2021-05-27T12:16:48Z</time>
      </trkpt>
      <trkpt lat="47.70501" lon="-2.34937">
        <ele>72.6</ele>
        <time>2021-05-27T12:16:49Z</time>
      </trkpt>
      <trkpt lat="47.70501" lon="-2.34933">
        <ele>72.7</ele>
        <time>2021-05-27T12:16:50Z</time>
      </trkpt>
      <trkpt lat="47.70501" lon="-2.3493">
        <ele>72.7</ele>
        <time>2021-05-27T12:16:51Z</time>
      </trkpt>
      <trkpt lat="47.70501" lon="-2.34926">
        <ele>72.8</ele>
        <time>2021-05-27T12:16:52Z</time>
      </trkpt>
      <trkpt lat="47.705" lon="-2.34922">
        <ele>72.9</ele>
        <time>2021-05-27T12:16:53Z</time>
      </trkpt>
      <trkpt lat="47.70499" lon="-2.34918">
        <ele>72.7</ele>
        <time>2021-05-27T12:16:54Z</time>
      </trkpt>
      <trkpt lat="47.70498" lon="-2.34914">
        <ele>72.5</ele>
        <time>2021-05-27T12:16:55Z</time>
      </trkpt>
      <trkpt lat="47.70496" lon="-2.3491">
        <ele>72.2</ele>
        <time>2021-05-27T12:16:56Z</time>
      </trkpt>
      <trkpt lat="47.70495" lon="-2.34906">
        <ele>72</ele>
        <time>2021-05-27T12:16:57Z</time>
      </trkpt>
      <trkpt lat="47.70494" lon="-2.34903">
        <ele>71.9</ele>
        <time>2021-05-27T12:16:58Z</time>
      </trkpt>
      <trkpt lat="47.70494" lon="-2.34899">
        <ele>71.8</ele>
        <time>2021-05-27T12:16:59Z</time>
      </trkpt>
      <trkpt lat="47.70493" lon="-2.34895">
        <ele>71.8</ele>
        <time>2021-05-27T12:17:00Z</time>
      </trkpt>
      <trkpt lat="47.70493" lon="-2.34891">
        <ele>71.9</ele>
        <time>2021-05-27T12:17:01Z</time>
      </trkpt>
      <trkpt lat="47.70493" lon="-2.34887">
        <ele>72.1</ele>
        <time>2021-05-27T12:17:02Z</time>
      </trkpt>
      <trkpt lat="47.70492" lon="-2.34883">
        <ele>72</ele>
        <time>2021-05-27T12:17:03Z</time>
      </trkpt>
      <trkpt lat="47.70492" lon="-2.34882">
        <ele>71.8</ele>
        <time>2021-05-27T12:17:04Z</time>
      </trkpt>
      <trkpt lat="47.70491" lon="-2.3488">
        <ele>71.7</ele>
        <time>2021-05-27T12:17:05Z</time>
      </trkpt>
      <trkpt lat="47.7049" lon="-2.34877">
        <ele>71.6</ele>
        <time>2021-05-27T12:17:06Z</time>
      </trkpt>
      <trkpt lat="47.70489" lon="-2.34874">
        <ele>71.3</ele>
        <time>2021-05-27T12:17:07Z</time>
      </trkpt>
      <trkpt lat="47.70488" lon="-2.3487">
        <ele>71.1</ele>
        <time>2021-05-27T12:17:08Z</time>
      </trkpt>
      <trkpt lat="47.70486" lon="-2.34868">
        <ele>70.8</ele>
        <time>2021-05-27T12:17:09Z</time>
      </trkpt>
      <trkpt lat="47.70483" lon="-2.34867">
        <ele>70.1</ele>
        <time>2021-05-27T12:17:10Z</time>
      </trkpt>
      <trkpt lat="47.70481" lon="-2.34866">
        <ele>69.7</ele>
        <time>2021-05-27T12:17:11Z</time>
      </trkpt>
      <trkpt lat="47.70479" lon="-2.34862">
        <ele>69.5</ele>
        <time>2021-05-27T12:17:12Z</time>
      </trkpt>
      <trkpt lat="47.70478" lon="-2.34858">
        <ele>69.3</ele>
        <time>2021-05-27T12:17:13Z</time>
      </trkpt>
      <trkpt lat="47.70477" lon="-2.34854">
        <ele>69.1</ele>
        <time>2021-05-27T12:17:14Z</time>
      </trkpt>
      <trkpt lat="47.70476" lon="-2.34851">
        <ele>68.9</ele>
        <time>2021-05-27T12:17:15Z</time>
      </trkpt>
      <trkpt lat="47.70475" lon="-2.34848">
        <ele>68.8</ele>
        <time>2021-05-27T12:17:16Z</time>
      </trkpt>
      <trkpt lat="47.70475" lon="-2.34846">
        <ele>68.9</ele>
        <time>2021-05-27T12:17:17Z</time>
      </trkpt>
      <trkpt lat="47.70476" lon="-2.34844">
        <ele>69.2</ele>
        <time>2021-05-27T12:17:18Z</time>
      </trkpt>
      <trkpt lat="47.70477" lon="-2.34844">
        <ele>69.5</ele>
        <time>2021-05-27T12:17:19Z</time>
      </trkpt>
      <trkpt lat="47.70477" lon="-2.34843">
        <ele>69.5</ele>
        <time>2021-05-27T12:17:20Z</time>
      </trkpt>
      <trkpt lat="47.70478" lon="-2.34843">
        <ele>69.8</ele>
        <time>2021-05-27T12:17:21Z</time>
      </trkpt>
      <trkpt lat="47.70479" lon="-2.34842">
        <ele>70</ele>
        <time>2021-05-27T12:17:22Z</time>
      </trkpt>
      <trkpt lat="47.7048" lon="-2.34841">
        <ele>70.3</ele>
        <time>2021-05-27T12:17:23Z</time>
      </trkpt>
      <trkpt lat="47.70482" lon="-2.34841">
        <ele>70.6</ele>
        <time>2021-05-27T12:17:24Z</time>
      </trkpt>
      <trkpt lat="47.70484" lon="-2.3484">
        <ele>71</ele>
        <time>2021-05-27T12:17:25Z</time>
      </trkpt>
      <trkpt lat="47.70485" lon="-2.34838">
        <ele>71.5</ele>
        <time>2021-05-27T12:17:26Z</time>
      </trkpt>
      <trkpt lat="47.70488" lon="-2.34837">
        <ele>72.1</ele>
        <time>2021-05-27T12:17:27Z</time>
      </trkpt>
      <trkpt lat="47.7049" lon="-2.34835">
        <ele>72.6</ele>
        <time>2021-05-27T12:17:28Z</time>
      </trkpt>
      <trkpt lat="47.70491" lon="-2.34833">
        <ele>73</ele>
        <time>2021-05-27T12:17:29Z</time>
      </trkpt>
      <trkpt lat="47.70493" lon="-2.34831">
        <ele>73.3</ele>
        <time>2021-05-27T12:17:30Z</time>
      </trkpt>
      <trkpt lat="47.70494" lon="-2.34829">
        <ele>73.7</ele>
        <time>2021-05-27T12:17:31Z</time>
      </trkpt>
      <trkpt lat="47.70496" lon="-2.34827">
        <ele>74.1</ele>
        <time>2021-05-27T12:17:32Z</time>
      </trkpt>
      <trkpt lat="47.70499" lon="-2.34825">
        <ele>74.6</ele>
        <time>2021-05-27T12:17:33Z</time>
      </trkpt>
      <trkpt lat="47.70501" lon="-2.34824">
        <ele>74.9</ele>
        <time>2021-05-27T12:17:34Z</time>
      </trkpt>
      <trkpt lat="47.70504" lon="-2.34823">
        <ele>75</ele>
        <time>2021-05-27T12:17:35Z</time>
      </trkpt>
      <trkpt lat="47.70507" lon="-2.34823">
        <ele>75</ele>
        <time>2021-05-27T12:17:36Z</time>
      </trkpt>
      <trkpt lat="47.70508" lon="-2.34823">
        <ele>75.1</ele>
        <time>2021-05-27T12:17:37Z</time>
      </trkpt>
      <trkpt lat="47.7051" lon="-2.34824">
        <ele>75.1</ele>
        <time>2021-05-27T12:17:38Z</time>
      </trkpt>
      <trkpt lat="47.70512" lon="-2.34825">
        <ele>75.2</ele>
        <time>2021-05-27T12:17:39Z</time>
      </trkpt>
      <trkpt lat="47.70514" lon="-2.34825">
        <ele>75.2</ele>
        <time>2021-05-27T12:17:40Z</time>
      </trkpt>
      <trkpt lat="47.70517" lon="-2.34825">
        <ele>75.3</ele>
        <time>2021-05-27T12:17:41Z</time>
      </trkpt>
      <trkpt lat="47.7052" lon="-2.34823">
        <ele>75.4</ele>
        <time>2021-05-27T12:17:42Z</time>
      </trkpt>
      <trkpt lat="47.70522" lon="-2.3482">
        <ele>75.4</ele>
        <time>2021-05-27T12:17:43Z</time>
      </trkpt>
      <trkpt lat="47.70523" lon="-2.34817">
        <ele>75.4</ele>
        <time>2021-05-27T12:17:44Z</time>
      </trkpt>
      <trkpt lat="47.70523" lon="-2.34814">
        <ele>75.3</ele>
        <time>2021-05-27T12:17:45Z</time>
      </trkpt>
      <trkpt lat="47.70523" lon="-2.34811">
        <ele>75.3</ele>
        <time>2021-05-27T12:17:46Z</time>
      </trkpt>
      <trkpt lat="47.70523" lon="-2.34808">
        <ele>75.2</ele>
        <time>2021-05-27T12:17:47Z</time>
      </trkpt>
      <trkpt lat="47.70524" lon="-2.34805">
        <ele>75.2</ele>
        <time>2021-05-27T12:17:48Z</time>
      </trkpt>
      <trkpt lat="47.70523" lon="-2.34802">
        <ele>75.2</ele>
        <time>2021-05-27T12:17:49Z</time>
      </trkpt>
      <trkpt lat="47.70522" lon="-2.34799">
        <ele>75.1</ele>
        <time>2021-05-27T12:17:50Z</time>
      </trkpt>
      <trkpt lat="47.70522" lon="-2.34796">
        <ele>75.1</ele>
        <time>2021-05-27T12:17:51Z</time>
      </trkpt>
      <trkpt lat="47.70521" lon="-2.34795">
        <ele>75</ele>
        <time>2021-05-27T12:17:52Z</time>
      </trkpt>
      <trkpt lat="47.70519" lon="-2.34793">
        <ele>75</ele>
        <time>2021-05-27T12:17:53Z</time>
      </trkpt>
      <trkpt lat="47.70518" lon="-2.34792">
        <ele>74.9</ele>
        <time>2021-05-27T12:17:54Z</time>
      </trkpt>
      <trkpt lat="47.70516" lon="-2.34791">
        <ele>74.9</ele>
        <time>2021-05-27T12:17:55Z</time>
      </trkpt>
      <trkpt lat="47.70514" lon="-2.34789">
        <ele>74.8</ele>
        <time>2021-05-27T12:17:56Z</time>
      </trkpt>
      <trkpt lat="47.70512" lon="-2.3479">
        <ele>74.8</ele>
        <time>2021-05-27T12:17:57Z</time>
      </trkpt>
      <trkpt lat="47.70509" lon="-2.3479">
        <ele>74.7</ele>
        <time>2021-05-27T12:17:58Z</time>
      </trkpt>
      <trkpt lat="47.70507" lon="-2.3479">
        <ele>74.6</ele>
        <time>2021-05-27T12:17:59Z</time>
      </trkpt>
      <trkpt lat="47.70505" lon="-2.34789">
        <ele>74.6</ele>
        <time>2021-05-27T12:18:00Z</time>
      </trkpt>
      <trkpt lat="47.70503" lon="-2.34787">
        <ele>74.5</ele>
        <time>2021-05-27T12:18:01Z</time>
      </trkpt>
      <trkpt lat="47.70502" lon="-2.34784">
        <ele>74.5</ele>
        <time>2021-05-27T12:18:02Z</time>
      </trkpt>
      <trkpt lat="47.70502" lon="-2.3478">
        <ele>74.4</ele>
        <time>2021-05-27T12:18:03Z</time>
      </trkpt>
      <trkpt lat="47.70501" lon="-2.34778">
        <ele>74.3</ele>
        <time>2021-05-27T12:18:04Z</time>
      </trkpt>
      <trkpt lat="47.705" lon="-2.34778">
        <ele>74.3</ele>
        <time>2021-05-27T12:18:05Z</time>
      </trkpt>
      <trkpt lat="47.70499" lon="-2.3478">
        <ele>74.1</ele>
        <time>2021-05-27T12:18:06Z</time>
      </trkpt>
      <trkpt lat="47.70497" lon="-2.34781">
        <ele>73.8</ele>
        <time>2021-05-27T12:18:07Z</time>
      </trkpt>
      <trkpt lat="47.70495" lon="-2.34781">
        <ele>73.4</ele>
        <time>2021-05-27T12:18:08Z</time>
      </trkpt>
      <trkpt lat="47.70493" lon="-2.34779">
        <ele>73.1</ele>
        <time>2021-05-27T12:18:09Z</time>
      </trkpt>
      <trkpt lat="47.70491" lon="-2.34776">
        <ele>72.7</ele>
        <time>2021-05-27T12:18:10Z</time>
      </trkpt>
      <trkpt lat="47.70489" lon="-2.34773">
        <ele>72.4</ele>
        <time>2021-05-27T12:18:11Z</time>
      </trkpt>
      <trkpt lat="47.70488" lon="-2.34769">
        <ele>72.2</ele>
        <time>2021-05-27T12:18:12Z</time>
      </trkpt>
      <trkpt lat="47.70487" lon="-2.34765">
        <ele>71.9</ele>
        <time>2021-05-27T12:18:13Z</time>
      </trkpt>
      <trkpt lat="47.70485" lon="-2.34762">
        <ele>71.6</ele>
        <time>2021-05-27T12:18:14Z</time>
      </trkpt>
      <trkpt lat="47.70482" lon="-2.34757">
        <ele>71.2</ele>
        <time>2021-05-27T12:18:15Z</time>
      </trkpt>
      <trkpt lat="47.70481" lon="-2.34752">
        <ele>71</ele>
        <time>2021-05-27T12:18:16Z</time>
      </trkpt>
      <trkpt lat="47.70479" lon="-2.34747">
        <ele>70.7</ele>
        <time>2021-05-27T12:18:17Z</time>
      </trkpt>
      <trkpt lat="47.70477" lon="-2.34743">
        <ele>70.5</ele>
        <time>2021-05-27T12:18:18Z</time>
      </trkpt>
      <trkpt lat="47.70475" lon="-2.34739">
        <ele>70.3</ele>
        <time>2021-05-27T12:18:19Z</time>
      </trkpt>
      <trkpt lat="47.70473" lon="-2.34736">
        <ele>70</ele>
        <time>2021-05-27T12:18:20Z</time>
      </trkpt>
      <trkpt lat="47.70471" lon="-2.34733">
        <ele>69.8</ele>
        <time>2021-05-27T12:18:21Z</time>
      </trkpt>
      <trkpt lat="47.70469" lon="-2.34732">
        <ele>69.5</ele>
        <time>2021-05-27T12:18:22Z</time>
      </trkpt>
      <trkpt lat="47.70466" lon="-2.3473">
        <ele>69.1</ele>
        <time>2021-05-27T12:18:23Z</time>
      </trkpt>
      <trkpt lat="47.70463" lon="-2.34731">
        <ele>68.7</ele>
        <time>2021-05-27T12:18:24Z</time>
      </trkpt>
      <trkpt lat="47.70461" lon="-2.3473">
        <ele>68.3</ele>
        <time>2021-05-27T12:18:25Z</time>
      </trkpt>
      <trkpt lat="47.70459" lon="-2.34729">
        <ele>68</ele>
        <time>2021-05-27T12:18:26Z</time>
      </trkpt>
      <trkpt lat="47.70457" lon="-2.34729">
        <ele>67.8</ele>
        <time>2021-05-27T12:18:27Z</time>
      </trkpt>
      <trkpt lat="47.70455" lon="-2.34728">
        <ele>67.6</ele>
        <time>2021-05-27T12:18:28Z</time>
      </trkpt>
      <trkpt lat="47.70455" lon="-2.34728">
        <ele>67.5</ele>
        <time>2021-05-27T12:18:29Z</time>
      </trkpt>
      <trkpt lat="47.70454" lon="-2.34728">
        <ele>67.4</ele>
        <time>2021-05-27T12:18:30Z</time>
      </trkpt>
      <trkpt lat="47.70454" lon="-2.34728">
        <ele>67.4</ele>
        <time>2021-05-27T12:18:31Z</time>
      </trkpt>
      <trkpt lat="47.70454" lon="-2.34728">
        <ele>67.4</ele>
        <time>2021-05-27T12:18:32Z</time>
      </trkpt>
      <trkpt lat="47.70454" lon="-2.34728">
        <ele>67.4</ele>
        <time>2021-05-27T12:18:33Z</time>
      </trkpt>
      <trkpt lat="47.70454" lon="-2.34728">
        <ele>67.4</ele>
        <time>2021-05-27T12:18:34Z</time>
      </trkpt>
      <trkpt lat="47.70454" lon="-2.34728">
        <ele>67.4</ele>
        <time>2021-05-27T12:18:35Z</time>
      </trkpt>
      <trkpt lat="47.70454" lon="-2.34728">
        <ele>67.4</ele>
        <time>2021-05-27T12:18:36Z</time>
      </trkpt>
      <trkpt lat="47.70454" lon="-2.34728">
        <ele>67.4</ele>
        <time>2021-05-27T12:18:37Z</time>
      </trkpt>
      <trkpt lat="47.70454" lon="-2.34728">
        <ele>67.4</ele>
        <time>2021-05-27T12:18:38Z</time>
      </trkpt>
      <trkpt lat="47.70451" lon="-2.34717">
        <ele>67.2</ele>
        <time>2021-05-27T12:18:39Z</time>
      </trkpt>
      <trkpt lat="47.7045" lon="-2.34713">
        <ele>67.2</ele>
        <time>2021-05-27T12:18:40Z</time>
      </trkpt>
      <trkpt lat="47.7045" lon="-2.34709">
        <ele>67.4</ele>
        <time>2021-05-27T12:18:41Z</time>
      </trkpt>
      <trkpt lat="47.7045" lon="-2.34705">
        <ele>67.5</ele>
        <time>2021-05-27T12:18:42Z</time>
      </trkpt>
      <trkpt lat="47.7045" lon="-2.347">
        <ele>67.7</ele>
        <time>2021-05-27T12:18:43Z</time>
      </trkpt>
      <trkpt lat="47.70451" lon="-2.34697">
        <ele>67.9</ele>
        <time>2021-05-27T12:18:44Z</time>
      </trkpt>
      <trkpt lat="47.70451" lon="-2.34694">
        <ele>67.9</ele>
        <time>2021-05-27T12:18:45Z</time>
      </trkpt>
      <trkpt lat="47.70449" lon="-2.3469">
        <ele>67.9</ele>
        <time>2021-05-27T12:18:46Z</time>
      </trkpt>
      <trkpt lat="47.70447" lon="-2.34687">
        <ele>67.7</ele>
        <time>2021-05-27T12:18:47Z</time>
      </trkpt>
      <trkpt lat="47.70446" lon="-2.34684">
        <ele>67.6</ele>
        <time>2021-05-27T12:18:48Z</time>
      </trkpt>
      <trkpt lat="47.70445" lon="-2.34683">
        <ele>67.6</ele>
        <time>2021-05-27T12:18:49Z</time>
      </trkpt>
      <trkpt lat="47.70445" lon="-2.34683">
        <ele>67.5</ele>
        <time>2021-05-27T12:18:50Z</time>
      </trkpt>
      <trkpt lat="47.70445" lon="-2.34683">
        <ele>67.5</ele>
        <time>2021-05-27T12:18:51Z</time>
      </trkpt>
      <trkpt lat="47.70445" lon="-2.34683">
        <ele>67.5</ele>
        <time>2021-05-27T12:18:52Z</time>
      </trkpt>
      <trkpt lat="47.70445" lon="-2.34683">
        <ele>67.5</ele>
        <time>2021-05-27T12:18:53Z</time>
      </trkpt>
      <trkpt lat="47.70445" lon="-2.34683">
        <ele>67.5</ele>
        <time>2021-05-27T12:18:54Z</time>
      </trkpt>
      <trkpt lat="47.70445" lon="-2.34683">
        <ele>67.5</ele>
        <time>2021-05-27T12:18:55Z</time>
      </trkpt>
      <trkpt lat="47.70445" lon="-2.34683">
        <ele>67.5</ele>
        <time>2021-05-27T12:18:56Z</time>
      </trkpt>
      <trkpt lat="47.70445" lon="-2.34683">
        <ele>67.5</ele>
        <time>2021-05-27T12:18:57Z</time>
      </trkpt>
      <trkpt lat="47.70445" lon="-2.34683">
        <ele>67.5</ele>
        <time>2021-05-27T12:18:58Z</time>
      </trkpt>
      <trkpt lat="47.70445" lon="-2.34683">
        <ele>67.5</ele>
        <time>2021-05-27T12:18:59Z</time>
      </trkpt>
      <trkpt lat="47.70445" lon="-2.34683">
        <ele>67.5</ele>
        <time>2021-05-27T12:19:00Z</time>
      </trkpt>
      <trkpt lat="47.70445" lon="-2.34683">
        <ele>67.5</ele>
        <time>2021-05-27T12:19:01Z</time>
      </trkpt>
      <trkpt lat="47.70445" lon="-2.34683">
        <ele>67.5</ele>
        <time>2021-05-27T12:19:02Z</time>
      </trkpt>
      <trkpt lat="47.70445" lon="-2.34683">
        <ele>67.5</ele>
        <time>2021-05-27T12:19:03Z</time>
      </trkpt>
      <trkpt lat="47.70443" lon="-2.3468">
        <ele>67.4</ele>
        <time>2021-05-27T12:19:04Z</time>
      </trkpt>
      <trkpt lat="47.70442" lon="-2.34677">
        <ele>67.4</ele>
        <time>2021-05-27T12:19:05Z</time>
      </trkpt>
      <trkpt lat="47.70441" lon="-2.34674">
        <ele>67.4</ele>
        <time>2021-05-27T12:19:06Z</time>
      </trkpt>
      <trkpt lat="47.7044" lon="-2.34672">
        <ele>67.3</ele>
        <time>2021-05-27T12:19:07Z</time>
      </trkpt>
      <trkpt lat="47.70439" lon="-2.34669">
        <ele>67.3</ele>
        <time>2021-05-27T12:19:08Z</time>
      </trkpt>
      <trkpt lat="47.70438" lon="-2.34667">
        <ele>67.3</ele>
        <time>2021-05-27T12:19:09Z</time>
      </trkpt>
      <trkpt lat="47.70436" lon="-2.34664">
        <ele>67.3</ele>
        <time>2021-05-27T12:19:10Z</time>
      </trkpt>
      <trkpt lat="47.70434" lon="-2.3466">
        <ele>67.2</ele>
        <time>2021-05-27T12:19:11Z</time>
      </trkpt>
      <trkpt lat="47.70432" lon="-2.34656">
        <ele>67.3</ele>
        <time>2021-05-27T12:19:12Z</time>
      </trkpt>
      <trkpt lat="47.7043" lon="-2.34651">
        <ele>67.3</ele>
        <time>2021-05-27T12:19:13Z</time>
      </trkpt>
      <trkpt lat="47.70429" lon="-2.34647">
        <ele>67.4</ele>
        <time>2021-05-27T12:19:14Z</time>
      </trkpt>
      <trkpt lat="47.70427" lon="-2.34642">
        <ele>67.5</ele>
        <time>2021-05-27T12:19:15Z</time>
      </trkpt>
      <trkpt lat="47.70425" lon="-2.34638">
        <ele>67.5</ele>
        <time>2021-05-27T12:19:16Z</time>
      </trkpt>
      <trkpt lat="47.70423" lon="-2.34635">
        <ele>67.5</ele>
        <time>2021-05-27T12:19:17Z</time>
      </trkpt>
      <trkpt lat="47.70421" lon="-2.34631">
        <ele>67.6</ele>
        <time>2021-05-27T12:19:18Z</time>
      </trkpt>
      <trkpt lat="47.7042" lon="-2.34627">
        <ele>67.7</ele>
        <time>2021-05-27T12:19:19Z</time>
      </trkpt>
      <trkpt lat="47.70418" lon="-2.34623">
        <ele>67.7</ele>
        <time>2021-05-27T12:19:20Z</time>
      </trkpt>
      <trkpt lat="47.70418" lon="-2.34619">
        <ele>68</ele>
        <time>2021-05-27T12:19:21Z</time>
      </trkpt>
      <trkpt lat="47.70417" lon="-2.34615">
        <ele>68.2</ele>
        <time>2021-05-27T12:19:22Z</time>
      </trkpt>
      <trkpt lat="47.70418" lon="-2.34612">
        <ele>68.4</ele>
        <time>2021-05-27T12:19:23Z</time>
      </trkpt>
      <trkpt lat="47.70417" lon="-2.34608">
        <ele>68.6</ele>
        <time>2021-05-27T12:19:24Z</time>
      </trkpt>
      <trkpt lat="47.70417" lon="-2.34605">
        <ele>68.7</ele>
        <time>2021-05-27T12:19:25Z</time>
      </trkpt>
      <trkpt lat="47.70416" lon="-2.34602">
        <ele>68.7</ele>
        <time>2021-05-27T12:19:26Z</time>
      </trkpt>
      <trkpt lat="47.70414" lon="-2.346">
        <ele>68.5</ele>
        <time>2021-05-27T12:19:27Z</time>
      </trkpt>
      <trkpt lat="47.70413" lon="-2.34597">
        <ele>68.4</ele>
        <time>2021-05-27T12:19:28Z</time>
      </trkpt>
      <trkpt lat="47.70411" lon="-2.34594">
        <ele>68.2</ele>
        <time>2021-05-27T12:19:29Z</time>
      </trkpt>
      <trkpt lat="47.7041" lon="-2.3459">
        <ele>68.2</ele>
        <time>2021-05-27T12:19:30Z</time>
      </trkpt>
      <trkpt lat="47.70409" lon="-2.34586">
        <ele>68.3</ele>
        <time>2021-05-27T12:19:31Z</time>
      </trkpt>
      <trkpt lat="47.70407" lon="-2.34581">
        <ele>68.2</ele>
        <time>2021-05-27T12:19:32Z</time>
      </trkpt>
      <trkpt lat="47.70405" lon="-2.34577">
        <ele>68.1</ele>
        <time>2021-05-27T12:19:33Z</time>
      </trkpt>
      <trkpt lat="47.70404" lon="-2.34573">
        <ele>67.9</ele>
        <time>2021-05-27T12:19:34Z</time>
      </trkpt>
      <trkpt lat="47.70403" lon="-2.34568">
        <ele>67.8</ele>
        <time>2021-05-27T12:19:35Z</time>
      </trkpt>
      <trkpt lat="47.70402" lon="-2.34564">
        <ele>67.8</ele>
        <time>2021-05-27T12:19:36Z</time>
      </trkpt>
      <trkpt lat="47.70401" lon="-2.34561">
        <ele>67.8</ele>
        <time>2021-05-27T12:19:37Z</time>
      </trkpt>
      <trkpt lat="47.70401" lon="-2.34557">
        <ele>67.9</ele>
        <time>2021-05-27T12:19:38Z</time>
      </trkpt>
      <trkpt lat="47.704" lon="-2.34553">
        <ele>68</ele>
        <time>2021-05-27T12:19:39Z</time>
      </trkpt>
      <trkpt lat="47.704" lon="-2.34549">
        <ele>68.1</ele>
        <time>2021-05-27T12:19:40Z</time>
      </trkpt>
      <trkpt lat="47.70399" lon="-2.34545">
        <ele>68.1</ele>
        <time>2021-05-27T12:19:41Z</time>
      </trkpt>
      <trkpt lat="47.70398" lon="-2.34541">
        <ele>68</ele>
        <time>2021-05-27T12:19:42Z</time>
      </trkpt>
      <trkpt lat="47.70397" lon="-2.34536">
        <ele>67.9</ele>
        <time>2021-05-27T12:19:43Z</time>
      </trkpt>
      <trkpt lat="47.70396" lon="-2.34532">
        <ele>67.9</ele>
        <time>2021-05-27T12:19:44Z</time>
      </trkpt>
      <trkpt lat="47.70395" lon="-2.34529">
        <ele>67.8</ele>
        <time>2021-05-27T12:19:45Z</time>
      </trkpt>
      <trkpt lat="47.70395" lon="-2.34525">
        <ele>67.9</ele>
        <time>2021-05-27T12:19:46Z</time>
      </trkpt>
      <trkpt lat="47.70394" lon="-2.34521">
        <ele>67.8</ele>
        <time>2021-05-27T12:19:47Z</time>
      </trkpt>
      <trkpt lat="47.70393" lon="-2.34518">
        <ele>67.8</ele>
        <time>2021-05-27T12:19:48Z</time>
      </trkpt>
      <trkpt lat="47.70391" lon="-2.34515">
        <ele>67.6</ele>
        <time>2021-05-27T12:19:49Z</time>
      </trkpt>
      <trkpt lat="47.70389" lon="-2.34512">
        <ele>67.2</ele>
        <time>2021-05-27T12:19:50Z</time>
      </trkpt>
      <trkpt lat="47.70386" lon="-2.3451">
        <ele>66.7</ele>
        <time>2021-05-27T12:19:51Z</time>
      </trkpt>
      <trkpt lat="47.70383" lon="-2.34508">
        <ele>66.3</ele>
        <time>2021-05-27T12:19:52Z</time>
      </trkpt>
      <trkpt lat="47.70381" lon="-2.34507">
        <ele>65.9</ele>
        <time>2021-05-27T12:19:53Z</time>
      </trkpt>
      <trkpt lat="47.70379" lon="-2.34505">
        <ele>65.5</ele>
        <time>2021-05-27T12:19:54Z</time>
      </trkpt>
      <trkpt lat="47.70376" lon="-2.34503">
        <ele>65</ele>
        <time>2021-05-27T12:19:55Z</time>
      </trkpt>
      <trkpt lat="47.70373" lon="-2.34501">
        <ele>64.6</ele>
        <time>2021-05-27T12:19:56Z</time>
      </trkpt>
      <trkpt lat="47.70371" lon="-2.34499">
        <ele>64.3</ele>
        <time>2021-05-27T12:19:57Z</time>
      </trkpt>
      <trkpt lat="47.70369" lon="-2.34496">
        <ele>64</ele>
        <time>2021-05-27T12:19:58Z</time>
      </trkpt>
      <trkpt lat="47.70367" lon="-2.34493">
        <ele>63.7</ele>
        <time>2021-05-27T12:19:59Z</time>
      </trkpt>
      <trkpt lat="47.70366" lon="-2.3449">
        <ele>63.6</ele>
        <time>2021-05-27T12:20:00Z</time>
      </trkpt>
      <trkpt lat="47.70366" lon="-2.34486">
        <ele>63.8</ele>
        <time>2021-05-27T12:20:01Z</time>
      </trkpt>
      <trkpt lat="47.70366" lon="-2.34482">
        <ele>63.9</ele>
        <time>2021-05-27T12:20:02Z</time>
      </trkpt>
      <trkpt lat="47.70367" lon="-2.34477">
        <ele>64.2</ele>
        <time>2021-05-27T12:20:03Z</time>
      </trkpt>
      <trkpt lat="47.70367" lon="-2.34473">
        <ele>64.4</ele>
        <time>2021-05-27T12:20:04Z</time>
      </trkpt>
      <trkpt lat="47.70368" lon="-2.3447">
        <ele>64.7</ele>
        <time>2021-05-27T12:20:05Z</time>
      </trkpt>
      <trkpt lat="47.7037" lon="-2.34466">
        <ele>65.1</ele>
        <time>2021-05-27T12:20:06Z</time>
      </trkpt>
      <trkpt lat="47.70371" lon="-2.34462">
        <ele>65.5</ele>
        <time>2021-05-27T12:20:07Z</time>
      </trkpt>
      <trkpt lat="47.70373" lon="-2.34459">
        <ele>65.8</ele>
        <time>2021-05-27T12:20:08Z</time>
      </trkpt>
      <trkpt lat="47.70374" lon="-2.34455">
        <ele>66.3</ele>
        <time>2021-05-27T12:20:09Z</time>
      </trkpt>
      <trkpt lat="47.70376" lon="-2.34451">
        <ele>66.7</ele>
        <time>2021-05-27T12:20:10Z</time>
      </trkpt>
      <trkpt lat="47.70378" lon="-2.34448">
        <ele>67.1</ele>
        <time>2021-05-27T12:20:11Z</time>
      </trkpt>
      <trkpt lat="47.70379" lon="-2.34445">
        <ele>67.3</ele>
        <time>2021-05-27T12:20:12Z</time>
      </trkpt>
      <trkpt lat="47.7038" lon="-2.34441">
        <ele>67.5</ele>
        <time>2021-05-27T12:20:13Z</time>
      </trkpt>
      <trkpt lat="47.7038" lon="-2.34437">
        <ele>67.7</ele>
        <time>2021-05-27T12:20:14Z</time>
      </trkpt>
      <trkpt lat="47.7038" lon="-2.34432">
        <ele>67.8</ele>
        <time>2021-05-27T12:20:15Z</time>
      </trkpt>
      <trkpt lat="47.70379" lon="-2.34427">
        <ele>67.9</ele>
        <time>2021-05-27T12:20:16Z</time>
      </trkpt>
      <trkpt lat="47.70379" lon="-2.34422">
        <ele>67.9</ele>
        <time>2021-05-27T12:20:17Z</time>
      </trkpt>
      <trkpt lat="47.70378" lon="-2.34416">
        <ele>68</ele>
        <time>2021-05-27T12:20:18Z</time>
      </trkpt>
      <trkpt lat="47.70377" lon="-2.34411">
        <ele>67.8</ele>
        <time>2021-05-27T12:20:19Z</time>
      </trkpt>
      <trkpt lat="47.70375" lon="-2.34405">
        <ele>67.7</ele>
        <time>2021-05-27T12:20:20Z</time>
      </trkpt>
      <trkpt lat="47.70374" lon="-2.34401">
        <ele>67.7</ele>
        <time>2021-05-27T12:20:21Z</time>
      </trkpt>
      <trkpt lat="47.70373" lon="-2.34396">
        <ele>67.6</ele>
        <time>2021-05-27T12:20:22Z</time>
      </trkpt>
      <trkpt lat="47.70372" lon="-2.34392">
        <ele>67.5</ele>
        <time>2021-05-27T12:20:23Z</time>
      </trkpt>
      <trkpt lat="47.70372" lon="-2.34388">
        <ele>67.6</ele>
        <time>2021-05-27T12:20:24Z</time>
      </trkpt>
      <trkpt lat="47.70371" lon="-2.34383">
        <ele>67.6</ele>
        <time>2021-05-27T12:20:25Z</time>
      </trkpt>
      <trkpt lat="47.70371" lon="-2.34379">
        <ele>67.7</ele>
        <time>2021-05-27T12:20:26Z</time>
      </trkpt>
      <trkpt lat="47.70371" lon="-2.34375">
        <ele>67.8</ele>
        <time>2021-05-27T12:20:27Z</time>
      </trkpt>
      <trkpt lat="47.70371" lon="-2.34372">
        <ele>67.8</ele>
        <time>2021-05-27T12:20:28Z</time>
      </trkpt>
      <trkpt lat="47.70372" lon="-2.34368">
        <ele>68</ele>
        <time>2021-05-27T12:20:29Z</time>
      </trkpt>
      <trkpt lat="47.70373" lon="-2.34365">
        <ele>68.2</ele>
        <time>2021-05-27T12:20:30Z</time>
      </trkpt>
      <trkpt lat="47.70373" lon="-2.3436">
        <ele>68.3</ele>
        <time>2021-05-27T12:20:31Z</time>
      </trkpt>
      <trkpt lat="47.70373" lon="-2.34355">
        <ele>68.4</ele>
        <time>2021-05-27T12:20:32Z</time>
      </trkpt>
      <trkpt lat="47.70372" lon="-2.3435">
        <ele>68.4</ele>
        <time>2021-05-27T12:20:33Z</time>
      </trkpt>
      <trkpt lat="47.70371" lon="-2.34345">
        <ele>68.4</ele>
        <time>2021-05-27T12:20:34Z</time>
      </trkpt>
      <trkpt lat="47.70371" lon="-2.34341">
        <ele>68.4</ele>
        <time>2021-05-27T12:20:35Z</time>
      </trkpt>
      <trkpt lat="47.70371" lon="-2.34336">
        <ele>68.5</ele>
        <time>2021-05-27T12:20:36Z</time>
      </trkpt>
      <trkpt lat="47.70371" lon="-2.34331">
        <ele>68.6</ele>
        <time>2021-05-27T12:20:37Z</time>
      </trkpt>
      <trkpt lat="47.7037" lon="-2.34325">
        <ele>68.6</ele>
        <time>2021-05-27T12:20:38Z</time>
      </trkpt>
      <trkpt lat="47.70369" lon="-2.34321">
        <ele>68.4</ele>
        <time>2021-05-27T12:20:39Z</time>
      </trkpt>
      <trkpt lat="47.70367" lon="-2.34319">
        <ele>68.3</ele>
        <time>2021-05-27T12:20:40Z</time>
      </trkpt>
      <trkpt lat="47.70365" lon="-2.34316">
        <ele>68.1</ele>
        <time>2021-05-27T12:20:41Z</time>
      </trkpt>
      <trkpt lat="47.70364" lon="-2.34313">
        <ele>68</ele>
        <time>2021-05-27T12:20:42Z</time>
      </trkpt>
      <trkpt lat="47.70362" lon="-2.34309">
        <ele>67.9</ele>
        <time>2021-05-27T12:20:43Z</time>
      </trkpt>
      <trkpt lat="47.70361" lon="-2.34304">
        <ele>67.8</ele>
        <time>2021-05-27T12:20:44Z</time>
      </trkpt>
      <trkpt lat="47.7036" lon="-2.34299">
        <ele>67.8</ele>
        <time>2021-05-27T12:20:45Z</time>
      </trkpt>
      <trkpt lat="47.70359" lon="-2.34293">
        <ele>67.6</ele>
        <time>2021-05-27T12:20:46Z</time>
      </trkpt>
      <trkpt lat="47.70358" lon="-2.34288">
        <ele>67.6</ele>
        <time>2021-05-27T12:20:47Z</time>
      </trkpt>
      <trkpt lat="47.70357" lon="-2.34283">
        <ele>67.5</ele>
        <time>2021-05-27T12:20:48Z</time>
      </trkpt>
      <trkpt lat="47.70356" lon="-2.34278">
        <ele>67.5</ele>
        <time>2021-05-27T12:20:49Z</time>
      </trkpt>
      <trkpt lat="47.70354" lon="-2.34274">
        <ele>67.3</ele>
        <time>2021-05-27T12:20:50Z</time>
      </trkpt>
      <trkpt lat="47.70351" lon="-2.3427">
        <ele>67.1</ele>
        <time>2021-05-27T12:20:51Z</time>
      </trkpt>
      <trkpt lat="47.70349" lon="-2.34266">
        <ele>67</ele>
        <time>2021-05-27T12:20:52Z</time>
      </trkpt>
      <trkpt lat="47.70347" lon="-2.34262">
        <ele>66.9</ele>
        <time>2021-05-27T12:20:53Z</time>
      </trkpt>
      <trkpt lat="47.70345" lon="-2.34258">
        <ele>66.8</ele>
        <time>2021-05-27T12:20:54Z</time>
      </trkpt>
      <trkpt lat="47.70344" lon="-2.34253">
        <ele>66.8</ele>
        <time>2021-05-27T12:20:55Z</time>
      </trkpt>
      <trkpt lat="47.70344" lon="-2.34248">
        <ele>66.7</ele>
        <time>2021-05-27T12:20:56Z</time>
      </trkpt>
      <trkpt lat="47.70344" lon="-2.34243">
        <ele>66.8</ele>
        <time>2021-05-27T12:20:57Z</time>
      </trkpt>
      <trkpt lat="47.70344" lon="-2.34237">
        <ele>66.8</ele>
        <time>2021-05-27T12:20:58Z</time>
      </trkpt>
      <trkpt lat="47.70344" lon="-2.34232">
        <ele>66.9</ele>
        <time>2021-05-27T12:20:59Z</time>
      </trkpt>
      <trkpt lat="47.70345" lon="-2.34227">
        <ele>66.9</ele>
        <time>2021-05-27T12:21:00Z</time>
      </trkpt>
      <trkpt lat="47.70345" lon="-2.34222">
        <ele>67</ele>
        <time>2021-05-27T12:21:01Z</time>
      </trkpt>
      <trkpt lat="47.70343" lon="-2.34216">
        <ele>66.9</ele>
        <time>2021-05-27T12:21:02Z</time>
      </trkpt>
      <trkpt lat="47.70342" lon="-2.3421">
        <ele>66.9</ele>
        <time>2021-05-27T12:21:03Z</time>
      </trkpt>
      <trkpt lat="47.7034" lon="-2.34203">
        <ele>66.9</ele>
        <time>2021-05-27T12:21:04Z</time>
      </trkpt>
      <trkpt lat="47.70339" lon="-2.34196">
        <ele>66.9</ele>
        <time>2021-05-27T12:21:05Z</time>
      </trkpt>
      <trkpt lat="47.70338" lon="-2.3419">
        <ele>66.9</ele>
        <time>2021-05-27T12:21:06Z</time>
      </trkpt>
      <trkpt lat="47.70339" lon="-2.34184">
        <ele>67</ele>
        <time>2021-05-27T12:21:07Z</time>
      </trkpt>
      <trkpt lat="47.7034" lon="-2.34178">
        <ele>67.1</ele>
        <time>2021-05-27T12:21:08Z</time>
      </trkpt>
      <trkpt lat="47.70341" lon="-2.34173">
        <ele>67.1</ele>
        <time>2021-05-27T12:21:09Z</time>
      </trkpt>
      <trkpt lat="47.70341" lon="-2.34168">
        <ele>67.2</ele>
        <time>2021-05-27T12:21:10Z</time>
      </trkpt>
      <trkpt lat="47.7034" lon="-2.34163">
        <ele>67.4</ele>
        <time>2021-05-27T12:21:11Z</time>
      </trkpt>
      <trkpt lat="47.70338" lon="-2.34152">
        <ele>67.9</ele>
        <time>2021-05-27T12:21:13Z</time>
      </trkpt>
      <trkpt lat="47.70337" lon="-2.34147">
        <ele>68.2</ele>
        <time>2021-05-27T12:21:14Z</time>
      </trkpt>
      <trkpt lat="47.70337" lon="-2.34141">
        <ele>68.6</ele>
        <time>2021-05-27T12:21:15Z</time>
      </trkpt>
      <trkpt lat="47.70335" lon="-2.34135">
        <ele>68.9</ele>
        <time>2021-05-27T12:21:16Z</time>
      </trkpt>
      <trkpt lat="47.70334" lon="-2.34129">
        <ele>69.2</ele>
        <time>2021-05-27T12:21:17Z</time>
      </trkpt>
      <trkpt lat="47.70332" lon="-2.34123">
        <ele>69.4</ele>
        <time>2021-05-27T12:21:18Z</time>
      </trkpt>
      <trkpt lat="47.7033" lon="-2.34118">
        <ele>69.2</ele>
        <time>2021-05-27T12:21:19Z</time>
      </trkpt>
      <trkpt lat="47.70328" lon="-2.34115">
        <ele>69</ele>
        <time>2021-05-27T12:21:20Z</time>
      </trkpt>
      <trkpt lat="47.70327" lon="-2.34114">
        <ele>68.8</ele>
        <time>2021-05-27T12:21:21Z</time>
      </trkpt>
      <trkpt lat="47.70327" lon="-2.34114">
        <ele>68.7</ele>
        <time>2021-05-27T12:21:22Z</time>
      </trkpt>
      <trkpt lat="47.70327" lon="-2.34114">
        <ele>68.7</ele>
        <time>2021-05-27T12:21:23Z</time>
      </trkpt>
      <trkpt lat="47.70327" lon="-2.34114">
        <ele>68.7</ele>
        <time>2021-05-27T12:21:24Z</time>
      </trkpt>
      <trkpt lat="47.70327" lon="-2.34114">
        <ele>68.7</ele>
        <time>2021-05-27T12:21:25Z</time>
      </trkpt>
      <trkpt lat="47.70327" lon="-2.34114">
        <ele>68.7</ele>
        <time>2021-05-27T12:21:26Z</time>
      </trkpt>
      <trkpt lat="47.70327" lon="-2.34114">
        <ele>68.7</ele>
        <time>2021-05-27T12:21:27Z</time>
      </trkpt>
      <trkpt lat="47.70327" lon="-2.34114">
        <ele>68.7</ele>
        <time>2021-05-27T12:21:28Z</time>
      </trkpt>
      <trkpt lat="47.70327" lon="-2.34114">
        <ele>68.7</ele>
        <time>2021-05-27T12:21:29Z</time>
      </trkpt>
      <trkpt lat="47.70327" lon="-2.34114">
        <ele>68.7</ele>
        <time>2021-05-27T12:21:30Z</time>
      </trkpt>
      <trkpt lat="47.70327" lon="-2.34114">
        <ele>68.7</ele>
        <time>2021-05-27T12:21:31Z</time>
      </trkpt>
      <trkpt lat="47.70327" lon="-2.34114">
        <ele>68.7</ele>
        <time>2021-05-27T12:21:32Z</time>
      </trkpt>
      <trkpt lat="47.70327" lon="-2.34114">
        <ele>68.7</ele>
        <time>2021-05-27T12:21:33Z</time>
      </trkpt>
      <trkpt lat="47.70327" lon="-2.34114">
        <ele>68.7</ele>
        <time>2021-05-27T12:21:34Z</time>
      </trkpt>
      <trkpt lat="47.70327" lon="-2.34114">
        <ele>68.7</ele>
        <time>2021-05-27T12:21:35Z</time>
      </trkpt>
      <trkpt lat="47.70327" lon="-2.34114">
        <ele>68.7</ele>
        <time>2021-05-27T12:21:36Z</time>
      </trkpt>
      <trkpt lat="47.70327" lon="-2.34114">
        <ele>68.7</ele>
        <time>2021-05-27T12:21:37Z</time>
      </trkpt>
      <trkpt lat="47.70327" lon="-2.34114">
        <ele>68.7</ele>
        <time>2021-05-27T12:21:38Z</time>
      </trkpt>
      <trkpt lat="47.70327" lon="-2.34114">
        <ele>68.7</ele>
        <time>2021-05-27T12:21:39Z</time>
      </trkpt>
      <trkpt lat="47.70327" lon="-2.34114">
        <ele>68.7</ele>
        <time>2021-05-27T12:21:40Z</time>
      </trkpt>
      <trkpt lat="47.70327" lon="-2.34114">
        <ele>68.7</ele>
        <time>2021-05-27T12:21:41Z</time>
      </trkpt>
      <trkpt lat="47.70327" lon="-2.34114">
        <ele>68.7</ele>
        <time>2021-05-27T12:21:42Z</time>
      </trkpt>
      <trkpt lat="47.70327" lon="-2.34114">
        <ele>68.7</ele>
        <time>2021-05-27T12:21:43Z</time>
      </trkpt>
      <trkpt lat="47.70327" lon="-2.34114">
        <ele>68.7</ele>
        <time>2021-05-27T12:21:44Z</time>
      </trkpt>
      <trkpt lat="47.70327" lon="-2.34114">
        <ele>68.7</ele>
        <time>2021-05-27T12:21:45Z</time>
      </trkpt>
      <trkpt lat="47.70327" lon="-2.34114">
        <ele>68.7</ele>
        <time>2021-05-27T12:21:46Z</time>
      </trkpt>
      <trkpt lat="47.70327" lon="-2.34114">
        <ele>68.7</ele>
        <time>2021-05-27T12:21:47Z</time>
      </trkpt>
      <trkpt lat="47.70327" lon="-2.34114">
        <ele>68.7</ele>
        <time>2021-05-27T12:21:48Z</time>
      </trkpt>
      <trkpt lat="47.70327" lon="-2.34114">
        <ele>68.7</ele>
        <time>2021-05-27T12:21:49Z</time>
      </trkpt>
      <trkpt lat="47.70327" lon="-2.34114">
        <ele>68.7</ele>
        <time>2021-05-27T12:21:50Z</time>
      </trkpt>
      <trkpt lat="47.70327" lon="-2.34114">
        <ele>68.7</ele>
        <time>2021-05-27T12:21:51Z</time>
      </trkpt>
      <trkpt lat="47.70327" lon="-2.34114">
        <ele>68.7</ele>
        <time>2021-05-27T12:21:52Z</time>
      </trkpt>
      <trkpt lat="47.70327" lon="-2.34114">
        <ele>68.7</ele>
        <time>2021-05-27T12:21:53Z</time>
      </trkpt>
      <trkpt lat="47.70327" lon="-2.34114">
        <ele>68.7</ele>
        <time>2021-05-27T12:21:54Z</time>
      </trkpt>
      <trkpt lat="47.70327" lon="-2.34114">
        <ele>68.7</ele>
        <time>2021-05-27T12:21:55Z</time>
      </trkpt>
      <trkpt lat="47.70327" lon="-2.34114">
        <ele>68.7</ele>
        <time>2021-05-27T12:21:56Z</time>
      </trkpt>
      <trkpt lat="47.70327" lon="-2.34114">
        <ele>68.7</ele>
        <time>2021-05-27T12:21:57Z</time>
      </trkpt>
      <trkpt lat="47.70327" lon="-2.34114">
        <ele>68.7</ele>
        <time>2021-05-27T12:21:58Z</time>
      </trkpt>
      <trkpt lat="47.70327" lon="-2.34114">
        <ele>68.7</ele>
        <time>2021-05-27T12:21:59Z</time>
      </trkpt>
      <trkpt lat="47.70327" lon="-2.34114">
        <ele>68.7</ele>
        <time>2021-05-27T12:22:00Z</time>
      </trkpt>
      <trkpt lat="47.70327" lon="-2.34114">
        <ele>68.7</ele>
        <time>2021-05-27T12:22:01Z</time>
      </trkpt>
      <trkpt lat="47.70327" lon="-2.34114">
        <ele>68.7</ele>
        <time>2021-05-27T12:22:02Z</time>
      </trkpt>
      <trkpt lat="47.70327" lon="-2.34114">
        <ele>68.7</ele>
        <time>2021-05-27T12:22:03Z</time>
      </trkpt>
      <trkpt lat="47.70327" lon="-2.34114">
        <ele>68.7</ele>
        <time>2021-05-27T12:22:04Z</time>
      </trkpt>
      <trkpt lat="47.70327" lon="-2.34114">
        <ele>68.7</ele>
        <time>2021-05-27T12:22:05Z</time>
      </trkpt>
      <trkpt lat="47.70327" lon="-2.34114">
        <ele>68.7</ele>
        <time>2021-05-27T12:22:06Z</time>
      </trkpt>
      <trkpt lat="47.70327" lon="-2.34114">
        <ele>68.7</ele>
        <time>2021-05-27T12:22:07Z</time>
      </trkpt>
      <trkpt lat="47.70327" lon="-2.34114">
        <ele>68.7</ele>
        <time>2021-05-27T12:22:08Z</time>
      </trkpt>
      <trkpt lat="47.70327" lon="-2.34114">
        <ele>68.7</ele>
        <time>2021-05-27T12:22:09Z</time>
      </trkpt>
      <trkpt lat="47.70327" lon="-2.34114">
        <ele>68.7</ele>
        <time>2021-05-27T12:22:10Z</time>
      </trkpt>
      <trkpt lat="47.70327" lon="-2.34114">
        <ele>68.7</ele>
        <time>2021-05-27T12:22:11Z</time>
      </trkpt>
      <trkpt lat="47.70327" lon="-2.34114">
        <ele>68.7</ele>
        <time>2021-05-27T12:22:12Z</time>
      </trkpt>
      <trkpt lat="47.70327" lon="-2.34114">
        <ele>68.7</ele>
        <time>2021-05-27T12:22:13Z</time>
      </trkpt>
      <trkpt lat="47.70327" lon="-2.34114">
        <ele>68.7</ele>
        <time>2021-05-27T12:22:14Z</time>
      </trkpt>
      <trkpt lat="47.70327" lon="-2.34114">
        <ele>68.7</ele>
        <time>2021-05-27T12:22:15Z</time>
      </trkpt>
      <trkpt lat="47.70327" lon="-2.34114">
        <ele>68.7</ele>
        <time>2021-05-27T12:22:16Z</time>
      </trkpt>
      <trkpt lat="47.70327" lon="-2.34114">
        <ele>68.7</ele>
        <time>2021-05-27T12:22:17Z</time>
      </trkpt>
      <trkpt lat="47.70327" lon="-2.34114">
        <ele>68.7</ele>
        <time>2021-05-27T12:22:18Z</time>
      </trkpt>
      <trkpt lat="47.70327" lon="-2.34114">
        <ele>68.7</ele>
        <time>2021-05-27T12:22:19Z</time>
      </trkpt>
      <trkpt lat="47.70327" lon="-2.34114">
        <ele>68.7</ele>
        <time>2021-05-27T12:22:20Z</time>
      </trkpt>
      <trkpt lat="47.70327" lon="-2.34114">
        <ele>68.7</ele>
        <time>2021-05-27T12:22:21Z</time>
      </trkpt>
      <trkpt lat="47.70327" lon="-2.34114">
        <ele>68.7</ele>
        <time>2021-05-27T12:22:22Z</time>
      </trkpt>
      <trkpt lat="47.70327" lon="-2.34114">
        <ele>68.7</ele>
        <time>2021-05-27T12:22:23Z</time>
      </trkpt>
      <trkpt lat="47.70327" lon="-2.34114">
        <ele>68.7</ele>
        <time>2021-05-27T12:22:24Z</time>
      </trkpt>
      <trkpt lat="47.70327" lon="-2.34114">
        <ele>68.7</ele>
        <time>2021-05-27T12:22:25Z</time>
      </trkpt>
      <trkpt lat="47.70327" lon="-2.34114">
        <ele>68.7</ele>
        <time>2021-05-27T12:22:26Z</time>
      </trkpt>
      <trkpt lat="47.70327" lon="-2.34114">
        <ele>68.7</ele>
        <time>2021-05-27T12:22:27Z</time>
      </trkpt>
      <trkpt lat="47.70327" lon="-2.34114">
        <ele>68.7</ele>
        <time>2021-05-27T12:22:28Z</time>
      </trkpt>
      <trkpt lat="47.70327" lon="-2.34114">
        <ele>68.7</ele>
        <time>2021-05-27T12:22:29Z</time>
      </trkpt>
      <trkpt lat="47.70327" lon="-2.34114">
        <ele>68.7</ele>
        <time>2021-05-27T12:22:30Z</time>
      </trkpt>
      <trkpt lat="47.70327" lon="-2.34114">
        <ele>68.7</ele>
        <time>2021-05-27T12:22:31Z</time>
      </trkpt>
      <trkpt lat="47.70327" lon="-2.34114">
        <ele>68.7</ele>
        <time>2021-05-27T12:22:32Z</time>
      </trkpt>
      <trkpt lat="47.70327" lon="-2.34114">
        <ele>68.7</ele>
        <time>2021-05-27T12:22:33Z</time>
      </trkpt>
      <trkpt lat="47.70327" lon="-2.34114">
        <ele>68.7</ele>
        <time>2021-05-27T12:22:34Z</time>
      </trkpt>
      <trkpt lat="47.70327" lon="-2.34114">
        <ele>68.7</ele>
        <time>2021-05-27T12:22:35Z</time>
      </trkpt>
      <trkpt lat="47.70327" lon="-2.34114">
        <ele>68.7</ele>
        <time>2021-05-27T12:22:36Z</time>
      </trkpt>
      <trkpt lat="47.70327" lon="-2.34114">
        <ele>68.7</ele>
        <time>2021-05-27T12:22:37Z</time>
      </trkpt>
      <trkpt lat="47.70327" lon="-2.34114">
        <ele>68.7</ele>
        <time>2021-05-27T12:22:38Z</time>
      </trkpt>
      <trkpt lat="47.70327" lon="-2.34114">
        <ele>68.7</ele>
        <time>2021-05-27T12:22:39Z</time>
      </trkpt>
      <trkpt lat="47.70327" lon="-2.34114">
        <ele>68.7</ele>
        <time>2021-05-27T12:22:40Z</time>
      </trkpt>
      <trkpt lat="47.70327" lon="-2.34114">
        <ele>68.7</ele>
        <time>2021-05-27T12:22:41Z</time>
      </trkpt>
      <trkpt lat="47.70327" lon="-2.34114">
        <ele>68.7</ele>
        <time>2021-05-27T12:22:42Z</time>
      </trkpt>
      <trkpt lat="47.70327" lon="-2.34114">
        <ele>68.7</ele>
        <time>2021-05-27T12:22:43Z</time>
      </trkpt>
      <trkpt lat="47.70327" lon="-2.34114">
        <ele>68.7</ele>
        <time>2021-05-27T12:22:44Z</time>
      </trkpt>
      <trkpt lat="47.70323" lon="-2.34111">
        <ele>68.1</ele>
        <time>2021-05-27T12:22:45Z</time>
      </trkpt>
      <trkpt lat="47.70323" lon="-2.34109">
        <ele>68.2</ele>
        <time>2021-05-27T12:22:46Z</time>
      </trkpt>
      <trkpt lat="47.70323" lon="-2.34109">
        <ele>68.2</ele>
        <time>2021-05-27T12:22:47Z</time>
      </trkpt>
      <trkpt lat="47.70322" lon="-2.34109">
        <ele>68.1</ele>
        <time>2021-05-27T12:22:48Z</time>
      </trkpt>
      <trkpt lat="47.70322" lon="-2.34109">
        <ele>68.1</ele>
        <time>2021-05-27T12:22:49Z</time>
      </trkpt>
      <trkpt lat="47.70322" lon="-2.34109">
        <ele>68.1</ele>
        <time>2021-05-27T12:22:50Z</time>
      </trkpt>
      <trkpt lat="47.70321" lon="-2.34104">
        <ele>68.1</ele>
        <time>2021-05-27T12:22:51Z</time>
      </trkpt>
      <trkpt lat="47.7032" lon="-2.34102">
        <ele>68.1</ele>
        <time>2021-05-27T12:22:52Z</time>
      </trkpt>
      <trkpt lat="47.70319" lon="-2.34099">
        <ele>68.1</ele>
        <time>2021-05-27T12:22:53Z</time>
      </trkpt>
      <trkpt lat="47.70317" lon="-2.34097">
        <ele>67.9</ele>
        <time>2021-05-27T12:22:54Z</time>
      </trkpt>
      <trkpt lat="47.70315" lon="-2.34096">
        <ele>67.6</ele>
        <time>2021-05-27T12:22:55Z</time>
      </trkpt>
      <trkpt lat="47.70313" lon="-2.34095">
        <ele>67.3</ele>
        <time>2021-05-27T12:22:56Z</time>
      </trkpt>
      <trkpt lat="47.70311" lon="-2.34093">
        <ele>67.1</ele>
        <time>2021-05-27T12:22:57Z</time>
      </trkpt>
      <trkpt lat="47.70309" lon="-2.34091">
        <ele>66.7</ele>
        <time>2021-05-27T12:22:58Z</time>
      </trkpt>
      <trkpt lat="47.70307" lon="-2.34089">
        <ele>66.5</ele>
        <time>2021-05-27T12:22:59Z</time>
      </trkpt>
      <trkpt lat="47.70305" lon="-2.34087">
        <ele>66.2</ele>
        <time>2021-05-27T12:23:00Z</time>
      </trkpt>
      <trkpt lat="47.70302" lon="-2.34085">
        <ele>65.9</ele>
        <time>2021-05-27T12:23:01Z</time>
      </trkpt>
      <trkpt lat="47.703" lon="-2.34082">
        <ele>65.6</ele>
        <time>2021-05-27T12:23:02Z</time>
      </trkpt>
      <trkpt lat="47.70297" lon="-2.34081">
        <ele>65.1</ele>
        <time>2021-05-27T12:23:03Z</time>
      </trkpt>
      <trkpt lat="47.70295" lon="-2.34078">
        <ele>64.8</ele>
        <time>2021-05-27T12:23:04Z</time>
      </trkpt>
      <trkpt lat="47.70293" lon="-2.34074">
        <ele>64.6</ele>
        <time>2021-05-27T12:23:05Z</time>
      </trkpt>
      <trkpt lat="47.70291" lon="-2.34071">
        <ele>64.4</ele>
        <time>2021-05-27T12:23:06Z</time>
      </trkpt>
      <trkpt lat="47.7029" lon="-2.34068">
        <ele>64.3</ele>
        <time>2021-05-27T12:23:07Z</time>
      </trkpt>
      <trkpt lat="47.70289" lon="-2.34064">
        <ele>64.1</ele>
        <time>2021-05-27T12:23:08Z</time>
      </trkpt>
      <trkpt lat="47.70289" lon="-2.3406">
        <ele>64.2</ele>
        <time>2021-05-27T12:23:09Z</time>
      </trkpt>
      <trkpt lat="47.70289" lon="-2.34056">
        <ele>64.5</ele>
        <time>2021-05-27T12:23:10Z</time>
      </trkpt>
      <trkpt lat="47.7029" lon="-2.34052">
        <ele>64.8</ele>
        <time>2021-05-27T12:23:11Z</time>
      </trkpt>
      <trkpt lat="47.70291" lon="-2.34047">
        <ele>65.2</ele>
        <time>2021-05-27T12:23:12Z</time>
      </trkpt>
      <trkpt lat="47.70293" lon="-2.34043">
        <ele>65.7</ele>
        <time>2021-05-27T12:23:13Z</time>
      </trkpt>
      <trkpt lat="47.70294" lon="-2.34039">
        <ele>66.1</ele>
        <time>2021-05-27T12:23:14Z</time>
      </trkpt>
      <trkpt lat="47.70295" lon="-2.34036">
        <ele>66.3</ele>
        <time>2021-05-27T12:23:15Z</time>
      </trkpt>
      <trkpt lat="47.70295" lon="-2.34032">
        <ele>66.5</ele>
        <time>2021-05-27T12:23:16Z</time>
      </trkpt>
      <trkpt lat="47.70295" lon="-2.34029">
        <ele>66.7</ele>
        <time>2021-05-27T12:23:17Z</time>
      </trkpt>
      <trkpt lat="47.70296" lon="-2.34025">
        <ele>67</ele>
        <time>2021-05-27T12:23:18Z</time>
      </trkpt>
      <trkpt lat="47.70297" lon="-2.34021">
        <ele>67.4</ele>
        <time>2021-05-27T12:23:19Z</time>
      </trkpt>
      <trkpt lat="47.70298" lon="-2.34017">
        <ele>67.7</ele>
        <time>2021-05-27T12:23:20Z</time>
      </trkpt>
      <trkpt lat="47.70297" lon="-2.34012">
        <ele>67.8</ele>
        <time>2021-05-27T12:23:21Z</time>
      </trkpt>
      <trkpt lat="47.70297" lon="-2.34007">
        <ele>67.9</ele>
        <time>2021-05-27T12:23:22Z</time>
      </trkpt>
      <trkpt lat="47.70296" lon="-2.34002">
        <ele>67.8</ele>
        <time>2021-05-27T12:23:23Z</time>
      </trkpt>
      <trkpt lat="47.70295" lon="-2.33996">
        <ele>67.7</ele>
        <time>2021-05-27T12:23:24Z</time>
      </trkpt>
      <trkpt lat="47.70295" lon="-2.33991">
        <ele>67.5</ele>
        <time>2021-05-27T12:23:25Z</time>
      </trkpt>
      <trkpt lat="47.70295" lon="-2.33986">
        <ele>67.3</ele>
        <time>2021-05-27T12:23:26Z</time>
      </trkpt>
      <trkpt lat="47.70295" lon="-2.33981">
        <ele>67.3</ele>
        <time>2021-05-27T12:23:27Z</time>
      </trkpt>
      <trkpt lat="47.70297" lon="-2.33976">
        <ele>67.6</ele>
        <time>2021-05-27T12:23:28Z</time>
      </trkpt>
      <trkpt lat="47.70299" lon="-2.33971">
        <ele>67.8</ele>
        <time>2021-05-27T12:23:29Z</time>
      </trkpt>
      <trkpt lat="47.703" lon="-2.33967">
        <ele>68</ele>
        <time>2021-05-27T12:23:30Z</time>
      </trkpt>
      <trkpt lat="47.70301" lon="-2.33961">
        <ele>68</ele>
        <time>2021-05-27T12:23:31Z</time>
      </trkpt>
      <trkpt lat="47.70301" lon="-2.33956">
        <ele>68</ele>
        <time>2021-05-27T12:23:32Z</time>
      </trkpt>
      <trkpt lat="47.70301" lon="-2.33951">
        <ele>68</ele>
        <time>2021-05-27T12:23:33Z</time>
      </trkpt>
      <trkpt lat="47.70302" lon="-2.33947">
        <ele>68.1</ele>
        <time>2021-05-27T12:23:34Z</time>
      </trkpt>
      <trkpt lat="47.70304" lon="-2.33943">
        <ele>68.3</ele>
        <time>2021-05-27T12:23:35Z</time>
      </trkpt>
      <trkpt lat="47.70304" lon="-2.33939">
        <ele>68.4</ele>
        <time>2021-05-27T12:23:36Z</time>
      </trkpt>
      <trkpt lat="47.70305" lon="-2.33934">
        <ele>68.4</ele>
        <time>2021-05-27T12:23:37Z</time>
      </trkpt>
      <trkpt lat="47.70305" lon="-2.3393">
        <ele>68.5</ele>
        <time>2021-05-27T12:23:38Z</time>
      </trkpt>
      <trkpt lat="47.70306" lon="-2.33925">
        <ele>68.7</ele>
        <time>2021-05-27T12:23:39Z</time>
      </trkpt>
      <trkpt lat="47.70308" lon="-2.33921">
        <ele>69</ele>
        <time>2021-05-27T12:23:40Z</time>
      </trkpt>
      <trkpt lat="47.70308" lon="-2.33916">
        <ele>68.9</ele>
        <time>2021-05-27T12:23:41Z</time>
      </trkpt>
      <trkpt lat="47.70308" lon="-2.33912">
        <ele>68.5</ele>
        <time>2021-05-27T12:23:42Z</time>
      </trkpt>
      <trkpt lat="47.70308" lon="-2.33908">
        <ele>68.2</ele>
        <time>2021-05-27T12:23:43Z</time>
      </trkpt>
      <trkpt lat="47.70308" lon="-2.33904">
        <ele>67.9</ele>
        <time>2021-05-27T12:23:44Z</time>
      </trkpt>
      <trkpt lat="47.70308" lon="-2.33901">
        <ele>67.7</ele>
        <time>2021-05-27T12:23:45Z</time>
      </trkpt>
      <trkpt lat="47.7031" lon="-2.33898">
        <ele>67.9</ele>
        <time>2021-05-27T12:23:46Z</time>
      </trkpt>
      <trkpt lat="47.70312" lon="-2.33895">
        <ele>68.3</ele>
        <time>2021-05-27T12:23:47Z</time>
      </trkpt>
      <trkpt lat="47.70314" lon="-2.33893">
        <ele>68.8</ele>
        <time>2021-05-27T12:23:48Z</time>
      </trkpt>
      <trkpt lat="47.70318" lon="-2.3389">
        <ele>69.5</ele>
        <time>2021-05-27T12:23:49Z</time>
      </trkpt>
      <trkpt lat="47.70321" lon="-2.33889">
        <ele>70.3</ele>
        <time>2021-05-27T12:23:50Z</time>
      </trkpt>
      <trkpt lat="47.70324" lon="-2.33889">
        <ele>71.2</ele>
        <time>2021-05-27T12:23:51Z</time>
      </trkpt>
      <trkpt lat="47.70328" lon="-2.33889">
        <ele>72.1</ele>
        <time>2021-05-27T12:23:52Z</time>
      </trkpt>
      <trkpt lat="47.70331" lon="-2.33888">
        <ele>73</ele>
        <time>2021-05-27T12:23:53Z</time>
      </trkpt>
      <trkpt lat="47.70334" lon="-2.33888">
        <ele>73.6</ele>
        <time>2021-05-27T12:23:54Z</time>
      </trkpt>
      <trkpt lat="47.70337" lon="-2.33888">
        <ele>73.5</ele>
        <time>2021-05-27T12:23:55Z</time>
      </trkpt>
      <trkpt lat="47.70338" lon="-2.3389">
        <ele>73.6</ele>
        <time>2021-05-27T12:23:56Z</time>
      </trkpt>
      <trkpt lat="47.70339" lon="-2.33892">
        <ele>73.7</ele>
        <time>2021-05-27T12:23:57Z</time>
      </trkpt>
      <trkpt lat="47.70339" lon="-2.33893">
        <ele>73.8</ele>
        <time>2021-05-27T12:23:58Z</time>
      </trkpt>
      <trkpt lat="47.7034" lon="-2.33893">
        <ele>73.8</ele>
        <time>2021-05-27T12:23:59Z</time>
      </trkpt>
      <trkpt lat="47.70339" lon="-2.33893">
        <ele>73.8</ele>
        <time>2021-05-27T12:24:00Z</time>
      </trkpt>
      <trkpt lat="47.70339" lon="-2.33893">
        <ele>73.8</ele>
        <time>2021-05-27T12:24:01Z</time>
      </trkpt>
      <trkpt lat="47.70339" lon="-2.33893">
        <ele>73.8</ele>
        <time>2021-05-27T12:24:02Z</time>
      </trkpt>
      <trkpt lat="47.70339" lon="-2.33893">
        <ele>73.8</ele>
        <time>2021-05-27T12:24:03Z</time>
      </trkpt>
      <trkpt lat="47.70339" lon="-2.33893">
        <ele>73.8</ele>
        <time>2021-05-27T12:24:04Z</time>
      </trkpt>
      <trkpt lat="47.70339" lon="-2.33893">
        <ele>73.8</ele>
        <time>2021-05-27T12:24:05Z</time>
      </trkpt>
      <trkpt lat="47.70339" lon="-2.33893">
        <ele>73.8</ele>
        <time>2021-05-27T12:24:06Z</time>
      </trkpt>
      <trkpt lat="47.70344" lon="-2.3389">
        <ele>73.4</ele>
        <time>2021-05-27T12:24:07Z</time>
      </trkpt>
      <trkpt lat="47.70345" lon="-2.33888">
        <ele>73.2</ele>
        <time>2021-05-27T12:24:08Z</time>
      </trkpt>
      <trkpt lat="47.70346" lon="-2.33886">
        <ele>73</ele>
        <time>2021-05-27T12:24:09Z</time>
      </trkpt>
      <trkpt lat="47.70348" lon="-2.33885">
        <ele>72.8</ele>
        <time>2021-05-27T12:24:10Z</time>
      </trkpt>
      <trkpt lat="47.70351" lon="-2.33885">
        <ele>72.8</ele>
        <time>2021-05-27T12:24:11Z</time>
      </trkpt>
      <trkpt lat="47.70353" lon="-2.33887">
        <ele>72.8</ele>
        <time>2021-05-27T12:24:12Z</time>
      </trkpt>
      <trkpt lat="47.70355" lon="-2.33889">
        <ele>72.9</ele>
        <time>2021-05-27T12:24:13Z</time>
      </trkpt>
      <trkpt lat="47.70357" lon="-2.3389">
        <ele>72.9</ele>
        <time>2021-05-27T12:24:14Z</time>
      </trkpt>
      <trkpt lat="47.70358" lon="-2.33892">
        <ele>73</ele>
        <time>2021-05-27T12:24:15Z</time>
      </trkpt>
      <trkpt lat="47.7036" lon="-2.33892">
        <ele>73</ele>
        <time>2021-05-27T12:24:16Z</time>
      </trkpt>
      <trkpt lat="47.70362" lon="-2.33893">
        <ele>72.9</ele>
        <time>2021-05-27T12:24:17Z</time>
      </trkpt>
      <trkpt lat="47.70364" lon="-2.33894">
        <ele>72.9</ele>
        <time>2021-05-27T12:24:18Z</time>
      </trkpt>
      <trkpt lat="47.70367" lon="-2.33894">
        <ele>72.8</ele>
        <time>2021-05-27T12:24:19Z</time>
      </trkpt>
      <trkpt lat="47.7037" lon="-2.33895">
        <ele>72.7</ele>
        <time>2021-05-27T12:24:20Z</time>
      </trkpt>
      <trkpt lat="47.70374" lon="-2.33895">
        <ele>72.6</ele>
        <time>2021-05-27T12:24:21Z</time>
      </trkpt>
      <trkpt lat="47.70376" lon="-2.33894">
        <ele>72.4</ele>
        <time>2021-05-27T12:24:22Z</time>
      </trkpt>
      <trkpt lat="47.70379" lon="-2.33892">
        <ele>72.2</ele>
        <time>2021-05-27T12:24:23Z</time>
      </trkpt>
      <trkpt lat="47.70381" lon="-2.33889">
        <ele>72</ele>
        <time>2021-05-27T12:24:24Z</time>
      </trkpt>
      <trkpt lat="47.70384" lon="-2.33886">
        <ele>71.7</ele>
        <time>2021-05-27T12:24:25Z</time>
      </trkpt>
      <trkpt lat="47.70386" lon="-2.33883">
        <ele>71.4</ele>
        <time>2021-05-27T12:24:26Z</time>
      </trkpt>
      <trkpt lat="47.70387" lon="-2.33882">
        <ele>71.3</ele>
        <time>2021-05-27T12:24:27Z</time>
      </trkpt>
      <trkpt lat="47.70389" lon="-2.3388">
        <ele>71.1</ele>
        <time>2021-05-27T12:24:28Z</time>
      </trkpt>
      <trkpt lat="47.7039" lon="-2.33876">
        <ele>70.9</ele>
        <time>2021-05-27T12:24:29Z</time>
      </trkpt>
      <trkpt lat="47.7039" lon="-2.33872">
        <ele>70.6</ele>
        <time>2021-05-27T12:24:30Z</time>
      </trkpt>
      <trkpt lat="47.70391" lon="-2.33869">
        <ele>70.4</ele>
        <time>2021-05-27T12:24:31Z</time>
      </trkpt>
      <trkpt lat="47.70393" lon="-2.33866">
        <ele>70.2</ele>
        <time>2021-05-27T12:24:32Z</time>
      </trkpt>
      <trkpt lat="47.70396" lon="-2.33862">
        <ele>69.9</ele>
        <time>2021-05-27T12:24:33Z</time>
      </trkpt>
      <trkpt lat="47.70398" lon="-2.33857">
        <ele>69.6</ele>
        <time>2021-05-27T12:24:34Z</time>
      </trkpt>
      <trkpt lat="47.704" lon="-2.33853">
        <ele>69.3</ele>
        <time>2021-05-27T12:24:35Z</time>
      </trkpt>
      <trkpt lat="47.70403" lon="-2.3385">
        <ele>69.1</ele>
        <time>2021-05-27T12:24:36Z</time>
      </trkpt>
      <trkpt lat="47.70406" lon="-2.33847">
        <ele>68.9</ele>
        <time>2021-05-27T12:24:37Z</time>
      </trkpt>
      <trkpt lat="47.7041" lon="-2.33844">
        <ele>68.6</ele>
        <time>2021-05-27T12:24:38Z</time>
      </trkpt>
      <trkpt lat="47.70414" lon="-2.33841">
        <ele>68.4</ele>
        <time>2021-05-27T12:24:39Z</time>
      </trkpt>
      <trkpt lat="47.70418" lon="-2.33837">
        <ele>67.9</ele>
        <time>2021-05-27T12:24:40Z</time>
      </trkpt>
      <trkpt lat="47.7042" lon="-2.33833">
        <ele>67.3</ele>
        <time>2021-05-27T12:24:41Z</time>
      </trkpt>
      <trkpt lat="47.70421" lon="-2.3383">
        <ele>66.3</ele>
        <time>2021-05-27T12:24:42Z</time>
      </trkpt>
      <trkpt lat="47.70423" lon="-2.33826">
        <ele>65.5</ele>
        <time>2021-05-27T12:24:43Z</time>
      </trkpt>
      <trkpt lat="47.70424" lon="-2.33824">
        <ele>64.8</ele>
        <time>2021-05-27T12:24:44Z</time>
      </trkpt>
      <trkpt lat="47.70425" lon="-2.33822">
        <ele>64.1</ele>
        <time>2021-05-27T12:24:45Z</time>
      </trkpt>
      <trkpt lat="47.70427" lon="-2.33819">
        <ele>63.2</ele>
        <time>2021-05-27T12:24:46Z</time>
      </trkpt>
      <trkpt lat="47.70428" lon="-2.33816">
        <ele>62.5</ele>
        <time>2021-05-27T12:24:47Z</time>
      </trkpt>
      <trkpt lat="47.7043" lon="-2.33814">
        <ele>61.8</ele>
        <time>2021-05-27T12:24:48Z</time>
      </trkpt>
      <trkpt lat="47.70432" lon="-2.33812">
        <ele>61.1</ele>
        <time>2021-05-27T12:24:49Z</time>
      </trkpt>
      <trkpt lat="47.70434" lon="-2.33811">
        <ele>60.6</ele>
        <time>2021-05-27T12:24:50Z</time>
      </trkpt>
      <trkpt lat="47.70436" lon="-2.33807">
        <ele>59.6</ele>
        <time>2021-05-27T12:24:51Z</time>
      </trkpt>
      <trkpt lat="47.70438" lon="-2.33803">
        <ele>58.6</ele>
        <time>2021-05-27T12:24:52Z</time>
      </trkpt>
      <trkpt lat="47.70441" lon="-2.338">
        <ele>57.7</ele>
        <time>2021-05-27T12:24:53Z</time>
      </trkpt>
      <trkpt lat="47.70445" lon="-2.33799">
        <ele>56.8</ele>
        <time>2021-05-27T12:24:54Z</time>
      </trkpt>
      <trkpt lat="47.70448" lon="-2.33797">
        <ele>56.1</ele>
        <time>2021-05-27T12:24:55Z</time>
      </trkpt>
      <trkpt lat="47.70452" lon="-2.33797">
        <ele>55.4</ele>
        <time>2021-05-27T12:24:56Z</time>
      </trkpt>
      <trkpt lat="47.70456" lon="-2.33797">
        <ele>54.8</ele>
        <time>2021-05-27T12:24:57Z</time>
      </trkpt>
      <trkpt lat="47.70459" lon="-2.33798">
        <ele>54.3</ele>
        <time>2021-05-27T12:24:58Z</time>
      </trkpt>
      <trkpt lat="47.70463" lon="-2.33797">
        <ele>53.5</ele>
        <time>2021-05-27T12:24:59Z</time>
      </trkpt>
      <trkpt lat="47.70468" lon="-2.33793">
        <ele>52.5</ele>
        <time>2021-05-27T12:25:00Z</time>
      </trkpt>
      <trkpt lat="47.70471" lon="-2.33789">
        <ele>51.7</ele>
        <time>2021-05-27T12:25:01Z</time>
      </trkpt>
      <trkpt lat="47.70472" lon="-2.33786">
        <ele>51</ele>
        <time>2021-05-27T12:25:02Z</time>
      </trkpt>
      <trkpt lat="47.70475" lon="-2.33782">
        <ele>50.3</ele>
        <time>2021-05-27T12:25:03Z</time>
      </trkpt>
      <trkpt lat="47.70477" lon="-2.33778">
        <ele>49.6</ele>
        <time>2021-05-27T12:25:04Z</time>
      </trkpt>
      <trkpt lat="47.7048" lon="-2.33773">
        <ele>48.8</ele>
        <time>2021-05-27T12:25:05Z</time>
      </trkpt>
      <trkpt lat="47.70481" lon="-2.33769">
        <ele>48.3</ele>
        <time>2021-05-27T12:25:06Z</time>
      </trkpt>
      <trkpt lat="47.70481" lon="-2.33763">
        <ele>47.8</ele>
        <time>2021-05-27T12:25:07Z</time>
      </trkpt>
      <trkpt lat="47.70481" lon="-2.33758">
        <ele>47.3</ele>
        <time>2021-05-27T12:25:08Z</time>
      </trkpt>
      <trkpt lat="47.70482" lon="-2.33754">
        <ele>46.9</ele>
        <time>2021-05-27T12:25:09Z</time>
      </trkpt>
      <trkpt lat="47.70482" lon="-2.3375">
        <ele>46.4</ele>
        <time>2021-05-27T12:25:10Z</time>
      </trkpt>
      <trkpt lat="47.70484" lon="-2.33745">
        <ele>45.8</ele>
        <time>2021-05-27T12:25:11Z</time>
      </trkpt>
      <trkpt lat="47.70486" lon="-2.33741">
        <ele>44.9</ele>
        <time>2021-05-27T12:25:12Z</time>
      </trkpt>
      <trkpt lat="47.70489" lon="-2.33735">
        <ele>43.9</ele>
        <time>2021-05-27T12:25:13Z</time>
      </trkpt>
      <trkpt lat="47.70492" lon="-2.33729">
        <ele>43</ele>
        <time>2021-05-27T12:25:14Z</time>
      </trkpt>
      <trkpt lat="47.70495" lon="-2.33724">
        <ele>42.1</ele>
        <time>2021-05-27T12:25:15Z</time>
      </trkpt>
      <trkpt lat="47.70499" lon="-2.33718">
        <ele>41.1</ele>
        <time>2021-05-27T12:25:16Z</time>
      </trkpt>
      <trkpt lat="47.70504" lon="-2.33712">
        <ele>40.1</ele>
        <time>2021-05-27T12:25:17Z</time>
      </trkpt>
      <trkpt lat="47.70508" lon="-2.33704">
        <ele>39</ele>
        <time>2021-05-27T12:25:18Z</time>
      </trkpt>
      <trkpt lat="47.70512" lon="-2.33697">
        <ele>38</ele>
        <time>2021-05-27T12:25:19Z</time>
      </trkpt>
      <trkpt lat="47.70514" lon="-2.33693">
        <ele>37.5</ele>
        <time>2021-05-27T12:25:20Z</time>
      </trkpt>
      <trkpt lat="47.70515" lon="-2.3369">
        <ele>37.1</ele>
        <time>2021-05-27T12:25:21Z</time>
      </trkpt>
      <trkpt lat="47.70516" lon="-2.33688">
        <ele>36.9</ele>
        <time>2021-05-27T12:25:22Z</time>
      </trkpt>
      <trkpt lat="47.70517" lon="-2.33686">
        <ele>36.5</ele>
        <time>2021-05-27T12:25:23Z</time>
      </trkpt>
      <trkpt lat="47.70519" lon="-2.33682">
        <ele>36.1</ele>
        <time>2021-05-27T12:25:24Z</time>
      </trkpt>
      <trkpt lat="47.70521" lon="-2.33679">
        <ele>35.7</ele>
        <time>2021-05-27T12:25:25Z</time>
      </trkpt>
      <trkpt lat="47.70521" lon="-2.33673">
        <ele>35.2</ele>
        <time>2021-05-27T12:25:26Z</time>
      </trkpt>
      <trkpt lat="47.70522" lon="-2.33669">
        <ele>34.7</ele>
        <time>2021-05-27T12:25:27Z</time>
      </trkpt>
      <trkpt lat="47.70523" lon="-2.33665">
        <ele>34.3</ele>
        <time>2021-05-27T12:25:28Z</time>
      </trkpt>
      <trkpt lat="47.70524" lon="-2.33662">
        <ele>33.9</ele>
        <time>2021-05-27T12:25:29Z</time>
      </trkpt>
      <trkpt lat="47.70524" lon="-2.3366">
        <ele>33.7</ele>
        <time>2021-05-27T12:25:30Z</time>
      </trkpt>
      <trkpt lat="47.70524" lon="-2.33658">
        <ele>33.5</ele>
        <time>2021-05-27T12:25:31Z</time>
      </trkpt>
      <trkpt lat="47.70525" lon="-2.33655">
        <ele>33.2</ele>
        <time>2021-05-27T12:25:32Z</time>
      </trkpt>
      <trkpt lat="47.70525" lon="-2.33652">
        <ele>32.8</ele>
        <time>2021-05-27T12:25:33Z</time>
      </trkpt>
      <trkpt lat="47.70526" lon="-2.33649">
        <ele>32.5</ele>
        <time>2021-05-27T12:25:34Z</time>
      </trkpt>
      <trkpt lat="47.70525" lon="-2.33647">
        <ele>32.2</ele>
        <time>2021-05-27T12:25:35Z</time>
      </trkpt>
      <trkpt lat="47.70525" lon="-2.33645">
        <ele>32.1</ele>
        <time>2021-05-27T12:25:36Z</time>
      </trkpt>
      <trkpt lat="47.70524" lon="-2.33644">
        <ele>31.9</ele>
        <time>2021-05-27T12:25:37Z</time>
      </trkpt>
      <trkpt lat="47.70522" lon="-2.33642">
        <ele>31.7</ele>
        <time>2021-05-27T12:25:38Z</time>
      </trkpt>
      <trkpt lat="47.7052" lon="-2.3364">
        <ele>31.5</ele>
        <time>2021-05-27T12:25:39Z</time>
      </trkpt>
      <trkpt lat="47.70518" lon="-2.33637">
        <ele>31.3</ele>
        <time>2021-05-27T12:25:40Z</time>
      </trkpt>
      <trkpt lat="47.70514" lon="-2.33636">
        <ele>31.2</ele>
        <time>2021-05-27T12:25:41Z</time>
      </trkpt>
      <trkpt lat="47.70511" lon="-2.33636">
        <ele>31.2</ele>
        <time>2021-05-27T12:25:42Z</time>
      </trkpt>
      <trkpt lat="47.70506" lon="-2.33635">
        <ele>31.1</ele>
        <time>2021-05-27T12:25:43Z</time>
      </trkpt>
      <trkpt lat="47.705" lon="-2.33636">
        <ele>31.4</ele>
        <time>2021-05-27T12:25:44Z</time>
      </trkpt>
      <trkpt lat="47.70495" lon="-2.33638">
        <ele>31.9</ele>
        <time>2021-05-27T12:25:45Z</time>
      </trkpt>
      <trkpt lat="47.70489" lon="-2.33641">
        <ele>32.5</ele>
        <time>2021-05-27T12:25:46Z</time>
      </trkpt>
      <trkpt lat="47.70485" lon="-2.33643">
        <ele>32.9</ele>
        <time>2021-05-27T12:25:47Z</time>
      </trkpt>
      <trkpt lat="47.70479" lon="-2.33645">
        <ele>33.4</ele>
        <time>2021-05-27T12:25:48Z</time>
      </trkpt>
      <trkpt lat="47.70474" lon="-2.33646">
        <ele>33.7</ele>
        <time>2021-05-27T12:25:49Z</time>
      </trkpt>
      <trkpt lat="47.7047" lon="-2.33648">
        <ele>33.9</ele>
        <time>2021-05-27T12:25:50Z</time>
      </trkpt>
      <trkpt lat="47.70466" lon="-2.3365">
        <ele>34.2</ele>
        <time>2021-05-27T12:25:51Z</time>
      </trkpt>
      <trkpt lat="47.70461" lon="-2.33651">
        <ele>34.5</ele>
        <time>2021-05-27T12:25:52Z</time>
      </trkpt>
      <trkpt lat="47.70457" lon="-2.33654">
        <ele>34.7</ele>
        <time>2021-05-27T12:25:53Z</time>
      </trkpt>
      <trkpt lat="47.70453" lon="-2.33657">
        <ele>34.8</ele>
        <time>2021-05-27T12:25:54Z</time>
      </trkpt>
      <trkpt lat="47.70448" lon="-2.33659">
        <ele>34.9</ele>
        <time>2021-05-27T12:25:55Z</time>
      </trkpt>
      <trkpt lat="47.70443" lon="-2.33662">
        <ele>35</ele>
        <time>2021-05-27T12:25:56Z</time>
      </trkpt>
      <trkpt lat="47.70438" lon="-2.33664">
        <ele>35</ele>
        <time>2021-05-27T12:25:57Z</time>
      </trkpt>
      <trkpt lat="47.70433" lon="-2.33666">
        <ele>35</ele>
        <time>2021-05-27T12:25:58Z</time>
      </trkpt>
      <trkpt lat="47.70427" lon="-2.33666">
        <ele>35</ele>
        <time>2021-05-27T12:25:59Z</time>
      </trkpt>
      <trkpt lat="47.70422" lon="-2.33669">
        <ele>35.4</ele>
        <time>2021-05-27T12:26:00Z</time>
      </trkpt>
      <trkpt lat="47.70417" lon="-2.33672">
        <ele>36.2</ele>
        <time>2021-05-27T12:26:01Z</time>
      </trkpt>
      <trkpt lat="47.70412" lon="-2.33676">
        <ele>37</ele>
        <time>2021-05-27T12:26:02Z</time>
      </trkpt>
      <trkpt lat="47.70407" lon="-2.3368">
        <ele>37.8</ele>
        <time>2021-05-27T12:26:03Z</time>
      </trkpt>
      <trkpt lat="47.70403" lon="-2.33684">
        <ele>38.5</ele>
        <time>2021-05-27T12:26:04Z</time>
      </trkpt>
      <trkpt lat="47.70398" lon="-2.33687">
        <ele>39.1</ele>
        <time>2021-05-27T12:26:05Z</time>
      </trkpt>
      <trkpt lat="47.70393" lon="-2.3369">
        <ele>39.6</ele>
        <time>2021-05-27T12:26:06Z</time>
      </trkpt>
      <trkpt lat="47.70389" lon="-2.33693">
        <ele>40</ele>
        <time>2021-05-27T12:26:07Z</time>
      </trkpt>
      <trkpt lat="47.70384" lon="-2.33696">
        <ele>40.4</ele>
        <time>2021-05-27T12:26:08Z</time>
      </trkpt>
      <trkpt lat="47.70379" lon="-2.33699">
        <ele>40.8</ele>
        <time>2021-05-27T12:26:09Z</time>
      </trkpt>
      <trkpt lat="47.70374" lon="-2.33703">
        <ele>41.2</ele>
        <time>2021-05-27T12:26:10Z</time>
      </trkpt>
      <trkpt lat="47.70369" lon="-2.33707">
        <ele>41.5</ele>
        <time>2021-05-27T12:26:11Z</time>
      </trkpt>
      <trkpt lat="47.70364" lon="-2.3371">
        <ele>41.8</ele>
        <time>2021-05-27T12:26:12Z</time>
      </trkpt>
      <trkpt lat="47.70358" lon="-2.33714">
        <ele>42</ele>
        <time>2021-05-27T12:26:13Z</time>
      </trkpt>
      <trkpt lat="47.70354" lon="-2.33717">
        <ele>42.2</ele>
        <time>2021-05-27T12:26:14Z</time>
      </trkpt>
      <trkpt lat="47.70349" lon="-2.3372">
        <ele>42.3</ele>
        <time>2021-05-27T12:26:15Z</time>
      </trkpt>
      <trkpt lat="47.70344" lon="-2.33724">
        <ele>42.4</ele>
        <time>2021-05-27T12:26:16Z</time>
      </trkpt>
      <trkpt lat="47.70339" lon="-2.33727">
        <ele>42.5</ele>
        <time>2021-05-27T12:26:17Z</time>
      </trkpt>
      <trkpt lat="47.70334" lon="-2.33731">
        <ele>42.4</ele>
        <time>2021-05-27T12:26:18Z</time>
      </trkpt>
      <trkpt lat="47.70329" lon="-2.33734">
        <ele>42.1</ele>
        <time>2021-05-27T12:26:19Z</time>
      </trkpt>
      <trkpt lat="47.70324" lon="-2.33737">
        <ele>41.6</ele>
        <time>2021-05-27T12:26:20Z</time>
      </trkpt>
      <trkpt lat="47.70319" lon="-2.3374">
        <ele>41.1</ele>
        <time>2021-05-27T12:26:21Z</time>
      </trkpt>
      <trkpt lat="47.70314" lon="-2.33743">
        <ele>40.6</ele>
        <time>2021-05-27T12:26:22Z</time>
      </trkpt>
      <trkpt lat="47.70309" lon="-2.33746">
        <ele>40.1</ele>
        <time>2021-05-27T12:26:23Z</time>
      </trkpt>
      <trkpt lat="47.70304" lon="-2.33748">
        <ele>39.4</ele>
        <time>2021-05-27T12:26:24Z</time>
      </trkpt>
      <trkpt lat="47.70298" lon="-2.3375">
        <ele>38.6</ele>
        <time>2021-05-27T12:26:25Z</time>
      </trkpt>
      <trkpt lat="47.70293" lon="-2.33751">
        <ele>38.1</ele>
        <time>2021-05-27T12:26:26Z</time>
      </trkpt>
      <trkpt lat="47.70288" lon="-2.33754">
        <ele>38</ele>
        <time>2021-05-27T12:26:27Z</time>
      </trkpt>
      <trkpt lat="47.70283" lon="-2.33757">
        <ele>37.6</ele>
        <time>2021-05-27T12:26:28Z</time>
      </trkpt>
      <trkpt lat="47.70278" lon="-2.33758">
        <ele>37.2</ele>
        <time>2021-05-27T12:26:29Z</time>
      </trkpt>
      <trkpt lat="47.70272" lon="-2.33759">
        <ele>36.5</ele>
        <time>2021-05-27T12:26:30Z</time>
      </trkpt>
      <trkpt lat="47.70267" lon="-2.3376">
        <ele>35.6</ele>
        <time>2021-05-27T12:26:31Z</time>
      </trkpt>
      <trkpt lat="47.70262" lon="-2.3376">
        <ele>34.9</ele>
        <time>2021-05-27T12:26:32Z</time>
      </trkpt>
      <trkpt lat="47.70257" lon="-2.33761">
        <ele>34.1</ele>
        <time>2021-05-27T12:26:33Z</time>
      </trkpt>
      <trkpt lat="47.70252" lon="-2.33761">
        <ele>33.2</ele>
        <time>2021-05-27T12:26:34Z</time>
      </trkpt>
      <trkpt lat="47.70247" lon="-2.3376">
        <ele>32.6</ele>
        <time>2021-05-27T12:26:35Z</time>
      </trkpt>
      <trkpt lat="47.70242" lon="-2.3376">
        <ele>32.3</ele>
        <time>2021-05-27T12:26:36Z</time>
      </trkpt>
      <trkpt lat="47.70238" lon="-2.33759">
        <ele>31.9</ele>
        <time>2021-05-27T12:26:37Z</time>
      </trkpt>
      <trkpt lat="47.70233" lon="-2.33758">
        <ele>31.5</ele>
        <time>2021-05-27T12:26:38Z</time>
      </trkpt>
      <trkpt lat="47.70229" lon="-2.33756">
        <ele>31.1</ele>
        <time>2021-05-27T12:26:39Z</time>
      </trkpt>
      <trkpt lat="47.70224" lon="-2.33755">
        <ele>30.8</ele>
        <time>2021-05-27T12:26:40Z</time>
      </trkpt>
      <trkpt lat="47.70219" lon="-2.33755">
        <ele>30.6</ele>
        <time>2021-05-27T12:26:41Z</time>
      </trkpt>
      <trkpt lat="47.70214" lon="-2.33755">
        <ele>30.3</ele>
        <time>2021-05-27T12:26:42Z</time>
      </trkpt>
      <trkpt lat="47.70209" lon="-2.33754">
        <ele>30</ele>
        <time>2021-05-27T12:26:43Z</time>
      </trkpt>
      <trkpt lat="47.70204" lon="-2.33754">
        <ele>29.8</ele>
        <time>2021-05-27T12:26:44Z</time>
      </trkpt>
      <trkpt lat="47.70199" lon="-2.33753">
        <ele>29.5</ele>
        <time>2021-05-27T12:26:45Z</time>
      </trkpt>
      <trkpt lat="47.70194" lon="-2.33753">
        <ele>29.2</ele>
        <time>2021-05-27T12:26:46Z</time>
      </trkpt>
      <trkpt lat="47.70189" lon="-2.33751">
        <ele>28.9</ele>
        <time>2021-05-27T12:26:47Z</time>
      </trkpt>
      <trkpt lat="47.70185" lon="-2.3375">
        <ele>28.7</ele>
        <time>2021-05-27T12:26:48Z</time>
      </trkpt>
      <trkpt lat="47.70182" lon="-2.33747">
        <ele>28.5</ele>
        <time>2021-05-27T12:26:49Z</time>
      </trkpt>
      <trkpt lat="47.70179" lon="-2.33743">
        <ele>28.5</ele>
        <time>2021-05-27T12:26:50Z</time>
      </trkpt>
      <trkpt lat="47.70177" lon="-2.33738">
        <ele>28.4</ele>
        <time>2021-05-27T12:26:51Z</time>
      </trkpt>
      <trkpt lat="47.70177" lon="-2.33732">
        <ele>28.4</ele>
        <time>2021-05-27T12:26:52Z</time>
      </trkpt>
      <trkpt lat="47.70179" lon="-2.33725">
        <ele>28.4</ele>
        <time>2021-05-27T12:26:53Z</time>
      </trkpt>
      <trkpt lat="47.70181" lon="-2.33719">
        <ele>28.6</ele>
        <time>2021-05-27T12:26:54Z</time>
      </trkpt>
      <trkpt lat="47.70183" lon="-2.33711">
        <ele>28.8</ele>
        <time>2021-05-27T12:26:55Z</time>
      </trkpt>
      <trkpt lat="47.70184" lon="-2.33703">
        <ele>28.9</ele>
        <time>2021-05-27T12:26:56Z</time>
      </trkpt>
      <trkpt lat="47.70186" lon="-2.33695">
        <ele>29.1</ele>
        <time>2021-05-27T12:26:57Z</time>
      </trkpt>
      <trkpt lat="47.70188" lon="-2.33688">
        <ele>29.3</ele>
        <time>2021-05-27T12:26:58Z</time>
      </trkpt>
      <trkpt lat="47.7019" lon="-2.3368">
        <ele>29.6</ele>
        <time>2021-05-27T12:26:59Z</time>
      </trkpt>
      <trkpt lat="47.70191" lon="-2.33672">
        <ele>29.8</ele>
        <time>2021-05-27T12:27:00Z</time>
      </trkpt>
      <trkpt lat="47.70193" lon="-2.33665">
        <ele>30.2</ele>
        <time>2021-05-27T12:27:01Z</time>
      </trkpt>
      <trkpt lat="47.70195" lon="-2.33659">
        <ele>30.9</ele>
        <time>2021-05-27T12:27:02Z</time>
      </trkpt>
      <trkpt lat="47.70196" lon="-2.33653">
        <ele>31.6</ele>
        <time>2021-05-27T12:27:03Z</time>
      </trkpt>
      <trkpt lat="47.70199" lon="-2.33647">
        <ele>32.4</ele>
        <time>2021-05-27T12:27:04Z</time>
      </trkpt>
      <trkpt lat="47.702" lon="-2.3364">
        <ele>33.1</ele>
        <time>2021-05-27T12:27:05Z</time>
      </trkpt>
      <trkpt lat="47.70202" lon="-2.33633">
        <ele>33.9</ele>
        <time>2021-05-27T12:27:06Z</time>
      </trkpt>
      <trkpt lat="47.70203" lon="-2.33626">
        <ele>34.5</ele>
        <time>2021-05-27T12:27:07Z</time>
      </trkpt>
      <trkpt lat="47.70203" lon="-2.33619">
        <ele>35.1</ele>
        <time>2021-05-27T12:27:08Z</time>
      </trkpt>
      <trkpt lat="47.70202" lon="-2.33613">
        <ele>35.5</ele>
        <time>2021-05-27T12:27:09Z</time>
      </trkpt>
      <trkpt lat="47.70203" lon="-2.33608">
        <ele>36</ele>
        <time>2021-05-27T12:27:10Z</time>
      </trkpt>
      <trkpt lat="47.70201" lon="-2.33603">
        <ele>36.2</ele>
        <time>2021-05-27T12:27:11Z</time>
      </trkpt>
      <trkpt lat="47.70201" lon="-2.33598">
        <ele>36.4</ele>
        <time>2021-05-27T12:27:12Z</time>
      </trkpt>
      <trkpt lat="47.702" lon="-2.33594">
        <ele>36.6</ele>
        <time>2021-05-27T12:27:13Z</time>
      </trkpt>
      <trkpt lat="47.70201" lon="-2.3359">
        <ele>37.1</ele>
        <time>2021-05-27T12:27:14Z</time>
      </trkpt>
      <trkpt lat="47.70202" lon="-2.33586">
        <ele>37.5</ele>
        <time>2021-05-27T12:27:15Z</time>
      </trkpt>
      <trkpt lat="47.70202" lon="-2.33583">
        <ele>37.8</ele>
        <time>2021-05-27T12:27:16Z</time>
      </trkpt>
      <trkpt lat="47.70203" lon="-2.33579">
        <ele>38.2</ele>
        <time>2021-05-27T12:27:17Z</time>
      </trkpt>
      <trkpt lat="47.70205" lon="-2.33576">
        <ele>38.6</ele>
        <time>2021-05-27T12:27:18Z</time>
      </trkpt>
      <trkpt lat="47.70206" lon="-2.33573">
        <ele>39</ele>
        <time>2021-05-27T12:27:19Z</time>
      </trkpt>
      <trkpt lat="47.70207" lon="-2.33571">
        <ele>39.3</ele>
        <time>2021-05-27T12:27:20Z</time>
      </trkpt>
      <trkpt lat="47.70207" lon="-2.33568">
        <ele>39.6</ele>
        <time>2021-05-27T12:27:21Z</time>
      </trkpt>
      <trkpt lat="47.70208" lon="-2.33564">
        <ele>39.8</ele>
        <time>2021-05-27T12:27:22Z</time>
      </trkpt>
      <trkpt lat="47.70208" lon="-2.33561">
        <ele>40.1</ele>
        <time>2021-05-27T12:27:23Z</time>
      </trkpt>
      <trkpt lat="47.70209" lon="-2.33559">
        <ele>40.3</ele>
        <time>2021-05-27T12:27:24Z</time>
      </trkpt>
      <trkpt lat="47.70209" lon="-2.33558">
        <ele>40.4</ele>
        <time>2021-05-27T12:27:25Z</time>
      </trkpt>
      <trkpt lat="47.7021" lon="-2.33556">
        <ele>40.6</ele>
        <time>2021-05-27T12:27:26Z</time>
      </trkpt>
      <trkpt lat="47.70209" lon="-2.33553">
        <ele>40.7</ele>
        <time>2021-05-27T12:27:27Z</time>
      </trkpt>
      <trkpt lat="47.7021" lon="-2.3355">
        <ele>40.9</ele>
        <time>2021-05-27T12:27:28Z</time>
      </trkpt>
      <trkpt lat="47.7021" lon="-2.33548">
        <ele>41.1</ele>
        <time>2021-05-27T12:27:29Z</time>
      </trkpt>
      <trkpt lat="47.70211" lon="-2.33546">
        <ele>41.3</ele>
        <time>2021-05-27T12:27:30Z</time>
      </trkpt>
      <trkpt lat="47.70212" lon="-2.33545">
        <ele>41.5</ele>
        <time>2021-05-27T12:27:31Z</time>
      </trkpt>
      <trkpt lat="47.70212" lon="-2.33543">
        <ele>41.7</ele>
        <time>2021-05-27T12:27:32Z</time>
      </trkpt>
      <trkpt lat="47.70212" lon="-2.33541">
        <ele>41.8</ele>
        <time>2021-05-27T12:27:33Z</time>
      </trkpt>
      <trkpt lat="47.70213" lon="-2.33538">
        <ele>42.2</ele>
        <time>2021-05-27T12:27:34Z</time>
      </trkpt>
      <trkpt lat="47.70213" lon="-2.33536">
        <ele>42.1</ele>
        <time>2021-05-27T12:27:35Z</time>
      </trkpt>
      <trkpt lat="47.70212" lon="-2.33534">
        <ele>42.2</ele>
        <time>2021-05-27T12:27:36Z</time>
      </trkpt>
      <trkpt lat="47.70212" lon="-2.33532">
        <ele>42.1</ele>
        <time>2021-05-27T12:27:37Z</time>
      </trkpt>
      <trkpt lat="47.70212" lon="-2.33529">
        <ele>42.3</ele>
        <time>2021-05-27T12:27:38Z</time>
      </trkpt>
      <trkpt lat="47.70211" lon="-2.33527">
        <ele>42.3</ele>
        <time>2021-05-27T12:27:39Z</time>
      </trkpt>
      <trkpt lat="47.7021" lon="-2.33524">
        <ele>42.3</ele>
        <time>2021-05-27T12:27:40Z</time>
      </trkpt>
      <trkpt lat="47.7021" lon="-2.3352">
        <ele>42.4</ele>
        <time>2021-05-27T12:27:41Z</time>
      </trkpt>
      <trkpt lat="47.7021" lon="-2.33516">
        <ele>42.6</ele>
        <time>2021-05-27T12:27:42Z</time>
      </trkpt>
      <trkpt lat="47.7021" lon="-2.33513">
        <ele>42.7</ele>
        <time>2021-05-27T12:27:43Z</time>
      </trkpt>
      <trkpt lat="47.70209" lon="-2.33509">
        <ele>42.7</ele>
        <time>2021-05-27T12:27:44Z</time>
      </trkpt>
      <trkpt lat="47.70208" lon="-2.33505">
        <ele>42.8</ele>
        <time>2021-05-27T12:27:45Z</time>
      </trkpt>
      <trkpt lat="47.70208" lon="-2.33503">
        <ele>42.7</ele>
        <time>2021-05-27T12:27:46Z</time>
      </trkpt>
      <trkpt lat="47.70207" lon="-2.33499">
        <ele>42.7</ele>
        <time>2021-05-27T12:27:47Z</time>
      </trkpt>
      <trkpt lat="47.70206" lon="-2.33495">
        <ele>43</ele>
        <time>2021-05-27T12:27:48Z</time>
      </trkpt>
      <trkpt lat="47.70206" lon="-2.33492">
        <ele>43.2</ele>
        <time>2021-05-27T12:27:49Z</time>
      </trkpt>
      <trkpt lat="47.70206" lon="-2.33488">
        <ele>43.4</ele>
        <time>2021-05-27T12:27:50Z</time>
      </trkpt>
      <trkpt lat="47.70206" lon="-2.33484">
        <ele>43.9</ele>
        <time>2021-05-27T12:27:51Z</time>
      </trkpt>
      <trkpt lat="47.70206" lon="-2.33479">
        <ele>44.1</ele>
        <time>2021-05-27T12:27:52Z</time>
      </trkpt>
      <trkpt lat="47.70205" lon="-2.33475">
        <ele>44.2</ele>
        <time>2021-05-27T12:27:53Z</time>
      </trkpt>
      <trkpt lat="47.70203" lon="-2.33472">
        <ele>44.3</ele>
        <time>2021-05-27T12:27:54Z</time>
      </trkpt>
      <trkpt lat="47.70203" lon="-2.33468">
        <ele>44.4</ele>
        <time>2021-05-27T12:27:55Z</time>
      </trkpt>
      <trkpt lat="47.70202" lon="-2.33465">
        <ele>44.5</ele>
        <time>2021-05-27T12:27:56Z</time>
      </trkpt>
      <trkpt lat="47.70201" lon="-2.33462">
        <ele>44.6</ele>
        <time>2021-05-27T12:27:57Z</time>
      </trkpt>
      <trkpt lat="47.70201" lon="-2.33457">
        <ele>44.8</ele>
        <time>2021-05-27T12:27:58Z</time>
      </trkpt>
      <trkpt lat="47.702" lon="-2.33453">
        <ele>45</ele>
        <time>2021-05-27T12:27:59Z</time>
      </trkpt>
      <trkpt lat="47.70199" lon="-2.33448">
        <ele>45.1</ele>
        <time>2021-05-27T12:28:00Z</time>
      </trkpt>
      <trkpt lat="47.70197" lon="-2.33443">
        <ele>45.2</ele>
        <time>2021-05-27T12:28:01Z</time>
      </trkpt>
      <trkpt lat="47.70196" lon="-2.33438">
        <ele>45.3</ele>
        <time>2021-05-27T12:28:02Z</time>
      </trkpt>
      <trkpt lat="47.70194" lon="-2.33434">
        <ele>45.3</ele>
        <time>2021-05-27T12:28:03Z</time>
      </trkpt>
      <trkpt lat="47.70193" lon="-2.3343">
        <ele>45.3</ele>
        <time>2021-05-27T12:28:04Z</time>
      </trkpt>
      <trkpt lat="47.70192" lon="-2.33426">
        <ele>45.4</ele>
        <time>2021-05-27T12:28:05Z</time>
      </trkpt>
      <trkpt lat="47.70192" lon="-2.33423">
        <ele>45.5</ele>
        <time>2021-05-27T12:28:06Z</time>
      </trkpt>
      <trkpt lat="47.7019" lon="-2.33419">
        <ele>45.4</ele>
        <time>2021-05-27T12:28:07Z</time>
      </trkpt>
      <trkpt lat="47.70189" lon="-2.33415">
        <ele>45.4</ele>
        <time>2021-05-27T12:28:08Z</time>
      </trkpt>
      <trkpt lat="47.70187" lon="-2.33411">
        <ele>45.1</ele>
        <time>2021-05-27T12:28:09Z</time>
      </trkpt>
      <trkpt lat="47.70186" lon="-2.33406">
        <ele>45.2</ele>
        <time>2021-05-27T12:28:10Z</time>
      </trkpt>
      <trkpt lat="47.70185" lon="-2.33401">
        <ele>45.1</ele>
        <time>2021-05-27T12:28:11Z</time>
      </trkpt>
      <trkpt lat="47.70183" lon="-2.33397">
        <ele>45</ele>
        <time>2021-05-27T12:28:12Z</time>
      </trkpt>
      <trkpt lat="47.70182" lon="-2.33393">
        <ele>44.8</ele>
        <time>2021-05-27T12:28:13Z</time>
      </trkpt>
      <trkpt lat="47.7018" lon="-2.33388">
        <ele>44.7</ele>
        <time>2021-05-27T12:28:14Z</time>
      </trkpt>
      <trkpt lat="47.70179" lon="-2.33383">
        <ele>44.6</ele>
        <time>2021-05-27T12:28:15Z</time>
      </trkpt>
      <trkpt lat="47.70178" lon="-2.33378">
        <ele>44.6</ele>
        <time>2021-05-27T12:28:16Z</time>
      </trkpt>
      <trkpt lat="47.70176" lon="-2.33373">
        <ele>44.5</ele>
        <time>2021-05-27T12:28:17Z</time>
      </trkpt>
      <trkpt lat="47.70175" lon="-2.33369">
        <ele>44.3</ele>
        <time>2021-05-27T12:28:18Z</time>
      </trkpt>
      <trkpt lat="47.70174" lon="-2.33363">
        <ele>44.4</ele>
        <time>2021-05-27T12:28:19Z</time>
      </trkpt>
      <trkpt lat="47.70173" lon="-2.33358">
        <ele>44.4</ele>
        <time>2021-05-27T12:28:20Z</time>
      </trkpt>
      <trkpt lat="47.70173" lon="-2.33352">
        <ele>44.6</ele>
        <time>2021-05-27T12:28:21Z</time>
      </trkpt>
      <trkpt lat="47.70172" lon="-2.33346">
        <ele>44.7</ele>
        <time>2021-05-27T12:28:22Z</time>
      </trkpt>
      <trkpt lat="47.70171" lon="-2.33341">
        <ele>44.7</ele>
        <time>2021-05-27T12:28:23Z</time>
      </trkpt>
      <trkpt lat="47.7017" lon="-2.33335">
        <ele>44.9</ele>
        <time>2021-05-27T12:28:24Z</time>
      </trkpt>
      <trkpt lat="47.7017" lon="-2.3333">
        <ele>45.2</ele>
        <time>2021-05-27T12:28:25Z</time>
      </trkpt>
      <trkpt lat="47.70168" lon="-2.33326">
        <ele>45.3</ele>
        <time>2021-05-27T12:28:26Z</time>
      </trkpt>
      <trkpt lat="47.70167" lon="-2.33321">
        <ele>45.6</ele>
        <time>2021-05-27T12:28:27Z</time>
      </trkpt>
      <trkpt lat="47.70166" lon="-2.33317">
        <ele>45.9</ele>
        <time>2021-05-27T12:28:28Z</time>
      </trkpt>
      <trkpt lat="47.70165" lon="-2.33311">
        <ele>46.3</ele>
        <time>2021-05-27T12:28:29Z</time>
      </trkpt>
      <trkpt lat="47.70163" lon="-2.33304">
        <ele>46.7</ele>
        <time>2021-05-27T12:28:30Z</time>
      </trkpt>
      <trkpt lat="47.70162" lon="-2.33298">
        <ele>47.2</ele>
        <time>2021-05-27T12:28:31Z</time>
      </trkpt>
      <trkpt lat="47.7016" lon="-2.33294">
        <ele>47.3</ele>
        <time>2021-05-27T12:28:32Z</time>
      </trkpt>
      <trkpt lat="47.70157" lon="-2.33289">
        <ele>47.1</ele>
        <time>2021-05-27T12:28:33Z</time>
      </trkpt>
      <trkpt lat="47.70154" lon="-2.33285">
        <ele>47</ele>
        <time>2021-05-27T12:28:34Z</time>
      </trkpt>
      <trkpt lat="47.70153" lon="-2.33279">
        <ele>47.4</ele>
        <time>2021-05-27T12:28:35Z</time>
      </trkpt>
      <trkpt lat="47.70154" lon="-2.33273">
        <ele>48.3</ele>
        <time>2021-05-27T12:28:36Z</time>
      </trkpt>
      <trkpt lat="47.70153" lon="-2.33268">
        <ele>48.5</ele>
        <time>2021-05-27T12:28:37Z</time>
      </trkpt>
      <trkpt lat="47.70152" lon="-2.33263">
        <ele>48.8</ele>
        <time>2021-05-27T12:28:38Z</time>
      </trkpt>
      <trkpt lat="47.70151" lon="-2.33258">
        <ele>49</ele>
        <time>2021-05-27T12:28:39Z</time>
      </trkpt>
      <trkpt lat="47.7015" lon="-2.33254">
        <ele>49.1</ele>
        <time>2021-05-27T12:28:40Z</time>
      </trkpt>
      <trkpt lat="47.70148" lon="-2.3325">
        <ele>49.2</ele>
        <time>2021-05-27T12:28:41Z</time>
      </trkpt>
      <trkpt lat="47.70146" lon="-2.33245">
        <ele>49.1</ele>
        <time>2021-05-27T12:28:42Z</time>
      </trkpt>
      <trkpt lat="47.70146" lon="-2.33242">
        <ele>49.2</ele>
        <time>2021-05-27T12:28:43Z</time>
      </trkpt>
      <trkpt lat="47.70145" lon="-2.33238">
        <ele>49.3</ele>
        <time>2021-05-27T12:28:44Z</time>
      </trkpt>
      <trkpt lat="47.70143" lon="-2.33234">
        <ele>49.2</ele>
        <time>2021-05-27T12:28:45Z</time>
      </trkpt>
      <trkpt lat="47.70143" lon="-2.3323">
        <ele>49.5</ele>
        <time>2021-05-27T12:28:46Z</time>
      </trkpt>
      <trkpt lat="47.70142" lon="-2.33226">
        <ele>49.7</ele>
        <time>2021-05-27T12:28:47Z</time>
      </trkpt>
      <trkpt lat="47.70141" lon="-2.33221">
        <ele>50</ele>
        <time>2021-05-27T12:28:48Z</time>
      </trkpt>
      <trkpt lat="47.70141" lon="-2.33218">
        <ele>50.1</ele>
        <time>2021-05-27T12:28:49Z</time>
      </trkpt>
      <trkpt lat="47.7014" lon="-2.33215">
        <ele>50.1</ele>
        <time>2021-05-27T12:28:50Z</time>
      </trkpt>
      <trkpt lat="47.70138" lon="-2.33209">
        <ele>50.2</ele>
        <time>2021-05-27T12:28:51Z</time>
      </trkpt>
      <trkpt lat="47.70137" lon="-2.33205">
        <ele>50.3</ele>
        <time>2021-05-27T12:28:52Z</time>
      </trkpt>
      <trkpt lat="47.70135" lon="-2.33202">
        <ele>50.2</ele>
        <time>2021-05-27T12:28:53Z</time>
      </trkpt>
      <trkpt lat="47.70133" lon="-2.33196">
        <ele>50.1</ele>
        <time>2021-05-27T12:28:54Z</time>
      </trkpt>
      <trkpt lat="47.70131" lon="-2.3319">
        <ele>49.9</ele>
        <time>2021-05-27T12:28:55Z</time>
      </trkpt>
      <trkpt lat="47.70128" lon="-2.33184">
        <ele>49.7</ele>
        <time>2021-05-27T12:28:56Z</time>
      </trkpt>
      <trkpt lat="47.70125" lon="-2.33179">
        <ele>49.4</ele>
        <time>2021-05-27T12:28:57Z</time>
      </trkpt>
      <trkpt lat="47.70122" lon="-2.33173">
        <ele>49.2</ele>
        <time>2021-05-27T12:28:58Z</time>
      </trkpt>
      <trkpt lat="47.70121" lon="-2.33168">
        <ele>49.3</ele>
        <time>2021-05-27T12:28:59Z</time>
      </trkpt>
      <trkpt lat="47.7012" lon="-2.33162">
        <ele>49.5</ele>
        <time>2021-05-27T12:29:00Z</time>
      </trkpt>
      <trkpt lat="47.70119" lon="-2.33157">
        <ele>49.6</ele>
        <time>2021-05-27T12:29:01Z</time>
      </trkpt>
      <trkpt lat="47.70117" lon="-2.33151">
        <ele>49.6</ele>
        <time>2021-05-27T12:29:02Z</time>
      </trkpt>
      <trkpt lat="47.70116" lon="-2.33146">
        <ele>49.7</ele>
        <time>2021-05-27T12:29:03Z</time>
      </trkpt>
      <trkpt lat="47.70113" lon="-2.3314">
        <ele>49.2</ele>
        <time>2021-05-27T12:29:04Z</time>
      </trkpt>
      <trkpt lat="47.7011" lon="-2.33136">
        <ele>48.9</ele>
        <time>2021-05-27T12:29:05Z</time>
      </trkpt>
      <trkpt lat="47.70108" lon="-2.33131">
        <ele>48.7</ele>
        <time>2021-05-27T12:29:06Z</time>
      </trkpt>
      <trkpt lat="47.70106" lon="-2.33127">
        <ele>48.6</ele>
        <time>2021-05-27T12:29:07Z</time>
      </trkpt>
      <trkpt lat="47.70104" lon="-2.33122">
        <ele>48.5</ele>
        <time>2021-05-27T12:29:08Z</time>
      </trkpt>
      <trkpt lat="47.70102" lon="-2.33117">
        <ele>48.3</ele>
        <time>2021-05-27T12:29:09Z</time>
      </trkpt>
      <trkpt lat="47.701" lon="-2.33112">
        <ele>48.2</ele>
        <time>2021-05-27T12:29:10Z</time>
      </trkpt>
      <trkpt lat="47.70098" lon="-2.33107">
        <ele>48</ele>
        <time>2021-05-27T12:29:11Z</time>
      </trkpt>
      <trkpt lat="47.70096" lon="-2.33102">
        <ele>47.8</ele>
        <time>2021-05-27T12:29:12Z</time>
      </trkpt>
      <trkpt lat="47.70094" lon="-2.33098">
        <ele>47.5</ele>
        <time>2021-05-27T12:29:13Z</time>
      </trkpt>
      <trkpt lat="47.70091" lon="-2.33092">
        <ele>47.4</ele>
        <time>2021-05-27T12:29:14Z</time>
      </trkpt>
      <trkpt lat="47.70089" lon="-2.33087">
        <ele>47.2</ele>
        <time>2021-05-27T12:29:15Z</time>
      </trkpt>
      <trkpt lat="47.70086" lon="-2.33081">
        <ele>47</ele>
        <time>2021-05-27T12:29:16Z</time>
      </trkpt>
      <trkpt lat="47.70083" lon="-2.33073">
        <ele>47</ele>
        <time>2021-05-27T12:29:17Z</time>
      </trkpt>
      <trkpt lat="47.7008" lon="-2.33066">
        <ele>47.1</ele>
        <time>2021-05-27T12:29:18Z</time>
      </trkpt>
      <trkpt lat="47.70078" lon="-2.33059">
        <ele>47.2</ele>
        <time>2021-05-27T12:29:19Z</time>
      </trkpt>
      <trkpt lat="47.70075" lon="-2.33052">
        <ele>47.4</ele>
        <time>2021-05-27T12:29:20Z</time>
      </trkpt>
      <trkpt lat="47.70072" lon="-2.33045">
        <ele>47.4</ele>
        <time>2021-05-27T12:29:21Z</time>
      </trkpt>
      <trkpt lat="47.70069" lon="-2.33039">
        <ele>47.5</ele>
        <time>2021-05-27T12:29:22Z</time>
      </trkpt>
      <trkpt lat="47.70067" lon="-2.33035">
        <ele>47.4</ele>
        <time>2021-05-27T12:29:23Z</time>
      </trkpt>
      <trkpt lat="47.70065" lon="-2.33029">
        <ele>47.4</ele>
        <time>2021-05-27T12:29:24Z</time>
      </trkpt>
      <trkpt lat="47.70062" lon="-2.33025">
        <ele>47.3</ele>
        <time>2021-05-27T12:29:25Z</time>
      </trkpt>
      <trkpt lat="47.7006" lon="-2.33021">
        <ele>47.2</ele>
        <time>2021-05-27T12:29:26Z</time>
      </trkpt>
      <trkpt lat="47.70059" lon="-2.33017">
        <ele>47.3</ele>
        <time>2021-05-27T12:29:27Z</time>
      </trkpt>
      <trkpt lat="47.70058" lon="-2.33012">
        <ele>47.6</ele>
        <time>2021-05-27T12:29:28Z</time>
      </trkpt>
      <trkpt lat="47.70058" lon="-2.33008">
        <ele>47.9</ele>
        <time>2021-05-27T12:29:29Z</time>
      </trkpt>
      <trkpt lat="47.70056" lon="-2.33003">
        <ele>47.9</ele>
        <time>2021-05-27T12:29:30Z</time>
      </trkpt>
      <trkpt lat="47.70057" lon="-2.32998">
        <ele>48.5</ele>
        <time>2021-05-27T12:29:31Z</time>
      </trkpt>
      <trkpt lat="47.70058" lon="-2.32993">
        <ele>49.3</ele>
        <time>2021-05-27T12:29:32Z</time>
      </trkpt>
      <trkpt lat="47.70058" lon="-2.32989">
        <ele>49.8</ele>
        <time>2021-05-27T12:29:33Z</time>
      </trkpt>
      <trkpt lat="47.70058" lon="-2.32986">
        <ele>50.1</ele>
        <time>2021-05-27T12:29:34Z</time>
      </trkpt>
      <trkpt lat="47.70058" lon="-2.32982">
        <ele>50.3</ele>
        <time>2021-05-27T12:29:35Z</time>
      </trkpt>
      <trkpt lat="47.70057" lon="-2.32979">
        <ele>50.5</ele>
        <time>2021-05-27T12:29:36Z</time>
      </trkpt>
      <trkpt lat="47.70057" lon="-2.32976">
        <ele>50.8</ele>
        <time>2021-05-27T12:29:37Z</time>
      </trkpt>
      <trkpt lat="47.70055" lon="-2.32973">
        <ele>50.8</ele>
        <time>2021-05-27T12:29:38Z</time>
      </trkpt>
      <trkpt lat="47.70055" lon="-2.3297">
        <ele>51.1</ele>
        <time>2021-05-27T12:29:39Z</time>
      </trkpt>
      <trkpt lat="47.70055" lon="-2.32966">
        <ele>51.3</ele>
        <time>2021-05-27T12:29:40Z</time>
      </trkpt>
      <trkpt lat="47.70055" lon="-2.32963">
        <ele>51.6</ele>
        <time>2021-05-27T12:29:41Z</time>
      </trkpt>
      <trkpt lat="47.70054" lon="-2.3296">
        <ele>51.8</ele>
        <time>2021-05-27T12:29:42Z</time>
      </trkpt>
      <trkpt lat="47.70052" lon="-2.32957">
        <ele>51.8</ele>
        <time>2021-05-27T12:29:43Z</time>
      </trkpt>
      <trkpt lat="47.70052" lon="-2.32955">
        <ele>52</ele>
        <time>2021-05-27T12:29:44Z</time>
      </trkpt>
      <trkpt lat="47.70052" lon="-2.32951">
        <ele>52.4</ele>
        <time>2021-05-27T12:29:45Z</time>
      </trkpt>
      <trkpt lat="47.70052" lon="-2.32948">
        <ele>52.7</ele>
        <time>2021-05-27T12:29:46Z</time>
      </trkpt>
      <trkpt lat="47.70051" lon="-2.32946">
        <ele>52.8</ele>
        <time>2021-05-27T12:29:47Z</time>
      </trkpt>
      <trkpt lat="47.70051" lon="-2.32942">
        <ele>53</ele>
        <time>2021-05-27T12:29:48Z</time>
      </trkpt>
      <trkpt lat="47.70051" lon="-2.32939">
        <ele>53.4</ele>
        <time>2021-05-27T12:29:49Z</time>
      </trkpt>
      <trkpt lat="47.7005" lon="-2.32937">
        <ele>53.5</ele>
        <time>2021-05-27T12:29:50Z</time>
      </trkpt>
      <trkpt lat="47.70049" lon="-2.32935">
        <ele>53.4</ele>
        <time>2021-05-27T12:29:51Z</time>
      </trkpt>
      <trkpt lat="47.70048" lon="-2.32933">
        <ele>53.5</ele>
        <time>2021-05-27T12:29:52Z</time>
      </trkpt>
      <trkpt lat="47.70048" lon="-2.32932">
        <ele>53.6</ele>
        <time>2021-05-27T12:29:53Z</time>
      </trkpt>
      <trkpt lat="47.70049" lon="-2.32929">
        <ele>54</ele>
        <time>2021-05-27T12:29:54Z</time>
      </trkpt>
      <trkpt lat="47.70048" lon="-2.32927">
        <ele>54.1</ele>
        <time>2021-05-27T12:29:55Z</time>
      </trkpt>
      <trkpt lat="47.70047" lon="-2.32925">
        <ele>54.2</ele>
        <time>2021-05-27T12:29:56Z</time>
      </trkpt>
      <trkpt lat="47.70047" lon="-2.32923">
        <ele>54.3</ele>
        <time>2021-05-27T12:29:57Z</time>
      </trkpt>
      <trkpt lat="47.70046" lon="-2.32921">
        <ele>54.3</ele>
        <time>2021-05-27T12:29:58Z</time>
      </trkpt>
      <trkpt lat="47.70045" lon="-2.32918">
        <ele>54.4</ele>
        <time>2021-05-27T12:29:59Z</time>
      </trkpt>
      <trkpt lat="47.70044" lon="-2.32915">
        <ele>54.6</ele>
        <time>2021-05-27T12:30:00Z</time>
      </trkpt>
      <trkpt lat="47.70045" lon="-2.32913">
        <ele>54.9</ele>
        <time>2021-05-27T12:30:01Z</time>
      </trkpt>
      <trkpt lat="47.70045" lon="-2.3291">
        <ele>55.3</ele>
        <time>2021-05-27T12:30:02Z</time>
      </trkpt>
      <trkpt lat="47.70046" lon="-2.32907">
        <ele>55.7</ele>
        <time>2021-05-27T12:30:03Z</time>
      </trkpt>
      <trkpt lat="47.70045" lon="-2.32904">
        <ele>55.9</ele>
        <time>2021-05-27T12:30:04Z</time>
      </trkpt>
      <trkpt lat="47.70045" lon="-2.32901">
        <ele>56.1</ele>
        <time>2021-05-27T12:30:05Z</time>
      </trkpt>
      <trkpt lat="47.70045" lon="-2.32898">
        <ele>56.4</ele>
        <time>2021-05-27T12:30:06Z</time>
      </trkpt>
      <trkpt lat="47.70046" lon="-2.32896">
        <ele>56.8</ele>
        <time>2021-05-27T12:30:07Z</time>
      </trkpt>
      <trkpt lat="47.70046" lon="-2.32893">
        <ele>57.2</ele>
        <time>2021-05-27T12:30:08Z</time>
      </trkpt>
      <trkpt lat="47.70046" lon="-2.32891">
        <ele>57.3</ele>
        <time>2021-05-27T12:30:09Z</time>
      </trkpt>
      <trkpt lat="47.70046" lon="-2.32889">
        <ele>57.5</ele>
        <time>2021-05-27T12:30:10Z</time>
      </trkpt>
      <trkpt lat="47.70046" lon="-2.32887">
        <ele>57.7</ele>
        <time>2021-05-27T12:30:11Z</time>
      </trkpt>
      <trkpt lat="47.70045" lon="-2.32884">
        <ele>57.8</ele>
        <time>2021-05-27T12:30:12Z</time>
      </trkpt>
      <trkpt lat="47.70044" lon="-2.32882">
        <ele>57.8</ele>
        <time>2021-05-27T12:30:13Z</time>
      </trkpt>
      <trkpt lat="47.70044" lon="-2.32879">
        <ele>58</ele>
        <time>2021-05-27T12:30:14Z</time>
      </trkpt>
      <trkpt lat="47.70043" lon="-2.32877">
        <ele>58.1</ele>
        <time>2021-05-27T12:30:15Z</time>
      </trkpt>
      <trkpt lat="47.70043" lon="-2.32874">
        <ele>58.3</ele>
        <time>2021-05-27T12:30:16Z</time>
      </trkpt>
      <trkpt lat="47.70042" lon="-2.32872">
        <ele>58.4</ele>
        <time>2021-05-27T12:30:17Z</time>
      </trkpt>
      <trkpt lat="47.70041" lon="-2.32868">
        <ele>58.6</ele>
        <time>2021-05-27T12:30:18Z</time>
      </trkpt>
      <trkpt lat="47.70041" lon="-2.32866">
        <ele>58.6</ele>
        <time>2021-05-27T12:30:19Z</time>
      </trkpt>
      <trkpt lat="47.7004" lon="-2.32864">
        <ele>58.7</ele>
        <time>2021-05-27T12:30:20Z</time>
      </trkpt>
      <trkpt lat="47.70039" lon="-2.32862">
        <ele>58.7</ele>
        <time>2021-05-27T12:30:21Z</time>
      </trkpt>
      <trkpt lat="47.70038" lon="-2.32861">
        <ele>58.8</ele>
        <time>2021-05-27T12:30:22Z</time>
      </trkpt>
      <trkpt lat="47.70038" lon="-2.32859">
        <ele>58.9</ele>
        <time>2021-05-27T12:30:23Z</time>
      </trkpt>
      <trkpt lat="47.70037" lon="-2.32857">
        <ele>58.9</ele>
        <time>2021-05-27T12:30:24Z</time>
      </trkpt>
      <trkpt lat="47.70036" lon="-2.32854">
        <ele>59</ele>
        <time>2021-05-27T12:30:25Z</time>
      </trkpt>
      <trkpt lat="47.70036" lon="-2.32851">
        <ele>59.3</ele>
        <time>2021-05-27T12:30:26Z</time>
      </trkpt>
      <trkpt lat="47.70035" lon="-2.32846">
        <ele>59.7</ele>
        <time>2021-05-27T12:30:27Z</time>
      </trkpt>
      <trkpt lat="47.70034" lon="-2.32843">
        <ele>59.7</ele>
        <time>2021-05-27T12:30:28Z</time>
      </trkpt>
      <trkpt lat="47.70033" lon="-2.3284">
        <ele>59.9</ele>
        <time>2021-05-27T12:30:29Z</time>
      </trkpt>
      <trkpt lat="47.70032" lon="-2.32838">
        <ele>59.9</ele>
        <time>2021-05-27T12:30:30Z</time>
      </trkpt>
      <trkpt lat="47.70031" lon="-2.32835">
        <ele>60</ele>
        <time>2021-05-27T12:30:31Z</time>
      </trkpt>
      <trkpt lat="47.7003" lon="-2.32833">
        <ele>60</ele>
        <time>2021-05-27T12:30:32Z</time>
      </trkpt>
      <trkpt lat="47.70029" lon="-2.32831">
        <ele>59.9</ele>
        <time>2021-05-27T12:30:33Z</time>
      </trkpt>
      <trkpt lat="47.70028" lon="-2.32829">
        <ele>59.9</ele>
        <time>2021-05-27T12:30:34Z</time>
      </trkpt>
      <trkpt lat="47.70028" lon="-2.32827">
        <ele>60</ele>
        <time>2021-05-27T12:30:35Z</time>
      </trkpt>
      <trkpt lat="47.70028" lon="-2.32824">
        <ele>60.1</ele>
        <time>2021-05-27T12:30:36Z</time>
      </trkpt>
      <trkpt lat="47.70027" lon="-2.32822">
        <ele>60.1</ele>
        <time>2021-05-27T12:30:37Z</time>
      </trkpt>
      <trkpt lat="47.70027" lon="-2.32819">
        <ele>60.1</ele>
        <time>2021-05-27T12:30:38Z</time>
      </trkpt>
      <trkpt lat="47.70026" lon="-2.32815">
        <ele>60.2</ele>
        <time>2021-05-27T12:30:39Z</time>
      </trkpt>
      <trkpt lat="47.70026" lon="-2.32812">
        <ele>60.3</ele>
        <time>2021-05-27T12:30:40Z</time>
      </trkpt>
      <trkpt lat="47.70024" lon="-2.32808">
        <ele>60.2</ele>
        <time>2021-05-27T12:30:41Z</time>
      </trkpt>
      <trkpt lat="47.70023" lon="-2.32803">
        <ele>60.2</ele>
        <time>2021-05-27T12:30:42Z</time>
      </trkpt>
      <trkpt lat="47.70022" lon="-2.32799">
        <ele>60.2</ele>
        <time>2021-05-27T12:30:43Z</time>
      </trkpt>
      <trkpt lat="47.70021" lon="-2.32796">
        <ele>60.2</ele>
        <time>2021-05-27T12:30:44Z</time>
      </trkpt>
      <trkpt lat="47.70019" lon="-2.32792">
        <ele>60.2</ele>
        <time>2021-05-27T12:30:45Z</time>
      </trkpt>
      <trkpt lat="47.70019" lon="-2.32787">
        <ele>60.3</ele>
        <time>2021-05-27T12:30:46Z</time>
      </trkpt>
      <trkpt lat="47.70019" lon="-2.32785">
        <ele>60.3</ele>
        <time>2021-05-27T12:30:47Z</time>
      </trkpt>
      <trkpt lat="47.70018" lon="-2.32783">
        <ele>60.4</ele>
        <time>2021-05-27T12:30:48Z</time>
      </trkpt>
      <trkpt lat="47.70018" lon="-2.3278">
        <ele>60.4</ele>
        <time>2021-05-27T12:30:49Z</time>
      </trkpt>
      <trkpt lat="47.70019" lon="-2.32777">
        <ele>60.6</ele>
        <time>2021-05-27T12:30:50Z</time>
      </trkpt>
      <trkpt lat="47.70018" lon="-2.32775">
        <ele>60.6</ele>
        <time>2021-05-27T12:30:51Z</time>
      </trkpt>
      <trkpt lat="47.70018" lon="-2.32772">
        <ele>60.7</ele>
        <time>2021-05-27T12:30:52Z</time>
      </trkpt>
      <trkpt lat="47.70018" lon="-2.32771">
        <ele>60.8</ele>
        <time>2021-05-27T12:30:53Z</time>
      </trkpt>
      <trkpt lat="47.70018" lon="-2.32769">
        <ele>60.9</ele>
        <time>2021-05-27T12:30:54Z</time>
      </trkpt>
      <trkpt lat="47.70016" lon="-2.32766">
        <ele>60.8</ele>
        <time>2021-05-27T12:30:55Z</time>
      </trkpt>
      <trkpt lat="47.70015" lon="-2.32763">
        <ele>60.8</ele>
        <time>2021-05-27T12:30:56Z</time>
      </trkpt>
      <trkpt lat="47.70015" lon="-2.32761">
        <ele>60.8</ele>
        <time>2021-05-27T12:30:57Z</time>
      </trkpt>
      <trkpt lat="47.70015" lon="-2.32761">
        <ele>60.8</ele>
        <time>2021-05-27T12:30:58Z</time>
      </trkpt>
      <trkpt lat="47.70014" lon="-2.3276">
        <ele>60.7</ele>
        <time>2021-05-27T12:30:59Z</time>
      </trkpt>
      <trkpt lat="47.70014" lon="-2.3276">
        <ele>60.7</ele>
        <time>2021-05-27T12:31:00Z</time>
      </trkpt>
      <trkpt lat="47.70014" lon="-2.3276">
        <ele>60.7</ele>
        <time>2021-05-27T12:31:01Z</time>
      </trkpt>
      <trkpt lat="47.70014" lon="-2.3276">
        <ele>60.7</ele>
        <time>2021-05-27T12:31:02Z</time>
      </trkpt>
      <trkpt lat="47.70014" lon="-2.3276">
        <ele>60.7</ele>
        <time>2021-05-27T12:31:03Z</time>
      </trkpt>
      <trkpt lat="47.70014" lon="-2.3276">
        <ele>60.7</ele>
        <time>2021-05-27T12:31:04Z</time>
      </trkpt>
      <trkpt lat="47.70014" lon="-2.3276">
        <ele>60.7</ele>
        <time>2021-05-27T12:31:05Z</time>
      </trkpt>
      <trkpt lat="47.70014" lon="-2.3276">
        <ele>60.7</ele>
        <time>2021-05-27T12:31:06Z</time>
      </trkpt>
      <trkpt lat="47.70014" lon="-2.3276">
        <ele>60.7</ele>
        <time>2021-05-27T12:31:07Z</time>
      </trkpt>
      <trkpt lat="47.70014" lon="-2.3276">
        <ele>60.7</ele>
        <time>2021-05-27T12:31:08Z</time>
      </trkpt>
      <trkpt lat="47.70014" lon="-2.3276">
        <ele>60.7</ele>
        <time>2021-05-27T12:31:09Z</time>
      </trkpt>
      <trkpt lat="47.70014" lon="-2.3276">
        <ele>60.7</ele>
        <time>2021-05-27T12:31:10Z</time>
      </trkpt>
      <trkpt lat="47.70014" lon="-2.3276">
        <ele>60.7</ele>
        <time>2021-05-27T12:31:11Z</time>
      </trkpt>
      <trkpt lat="47.70014" lon="-2.3276">
        <ele>60.7</ele>
        <time>2021-05-27T12:31:12Z</time>
      </trkpt>
      <trkpt lat="47.70014" lon="-2.3276">
        <ele>60.7</ele>
        <time>2021-05-27T12:31:13Z</time>
      </trkpt>
      <trkpt lat="47.70014" lon="-2.3276">
        <ele>60.7</ele>
        <time>2021-05-27T12:31:14Z</time>
      </trkpt>
      <trkpt lat="47.70014" lon="-2.3276">
        <ele>60.7</ele>
        <time>2021-05-27T12:31:15Z</time>
      </trkpt>
      <trkpt lat="47.70012" lon="-2.32748">
        <ele>60.9</ele>
        <time>2021-05-27T12:31:16Z</time>
      </trkpt>
      <trkpt lat="47.70012" lon="-2.32744">
        <ele>61.1</ele>
        <time>2021-05-27T12:31:17Z</time>
      </trkpt>
      <trkpt lat="47.70012" lon="-2.32741">
        <ele>61.3</ele>
        <time>2021-05-27T12:31:18Z</time>
      </trkpt>
      <trkpt lat="47.70012" lon="-2.32739">
        <ele>61.3</ele>
        <time>2021-05-27T12:31:19Z</time>
      </trkpt>
      <trkpt lat="47.70011" lon="-2.32735">
        <ele>61.5</ele>
        <time>2021-05-27T12:31:20Z</time>
      </trkpt>
      <trkpt lat="47.70011" lon="-2.32734">
        <ele>61.5</ele>
        <time>2021-05-27T12:31:21Z</time>
      </trkpt>
      <trkpt lat="47.70012" lon="-2.32734">
        <ele>61.6</ele>
        <time>2021-05-27T12:31:22Z</time>
      </trkpt>
      <trkpt lat="47.70012" lon="-2.32734">
        <ele>61.6</ele>
        <time>2021-05-27T12:31:23Z</time>
      </trkpt>
      <trkpt lat="47.70012" lon="-2.32734">
        <ele>61.6</ele>
        <time>2021-05-27T12:31:24Z</time>
      </trkpt>
      <trkpt lat="47.70012" lon="-2.32734">
        <ele>61.6</ele>
        <time>2021-05-27T12:31:25Z</time>
      </trkpt>
      <trkpt lat="47.70012" lon="-2.32734">
        <ele>61.6</ele>
        <time>2021-05-27T12:31:26Z</time>
      </trkpt>
      <trkpt lat="47.70012" lon="-2.32734">
        <ele>61.6</ele>
        <time>2021-05-27T12:31:27Z</time>
      </trkpt>
      <trkpt lat="47.70012" lon="-2.32734">
        <ele>61.6</ele>
        <time>2021-05-27T12:31:28Z</time>
      </trkpt>
      <trkpt lat="47.70012" lon="-2.32734">
        <ele>61.6</ele>
        <time>2021-05-27T12:31:29Z</time>
      </trkpt>
      <trkpt lat="47.70012" lon="-2.32734">
        <ele>61.6</ele>
        <time>2021-05-27T12:31:30Z</time>
      </trkpt>
      <trkpt lat="47.70012" lon="-2.32734">
        <ele>61.6</ele>
        <time>2021-05-27T12:31:31Z</time>
      </trkpt>
      <trkpt lat="47.70012" lon="-2.32734">
        <ele>61.6</ele>
        <time>2021-05-27T12:31:32Z</time>
      </trkpt>
      <trkpt lat="47.70012" lon="-2.32734">
        <ele>61.6</ele>
        <time>2021-05-27T12:31:33Z</time>
      </trkpt>
      <trkpt lat="47.70012" lon="-2.32734">
        <ele>61.6</ele>
        <time>2021-05-27T12:31:34Z</time>
      </trkpt>
      <trkpt lat="47.70012" lon="-2.32734">
        <ele>61.6</ele>
        <time>2021-05-27T12:31:35Z</time>
      </trkpt>
      <trkpt lat="47.70012" lon="-2.32734">
        <ele>61.6</ele>
        <time>2021-05-27T12:31:36Z</time>
      </trkpt>
      <trkpt lat="47.70012" lon="-2.32734">
        <ele>61.6</ele>
        <time>2021-05-27T12:31:37Z</time>
      </trkpt>
      <trkpt lat="47.70012" lon="-2.32734">
        <ele>61.6</ele>
        <time>2021-05-27T12:31:38Z</time>
      </trkpt>
      <trkpt lat="47.70012" lon="-2.32734">
        <ele>61.6</ele>
        <time>2021-05-27T12:31:39Z</time>
      </trkpt>
      <trkpt lat="47.70012" lon="-2.32734">
        <ele>61.6</ele>
        <time>2021-05-27T12:31:40Z</time>
      </trkpt>
      <trkpt lat="47.7001" lon="-2.3272">
        <ele>62</ele>
        <time>2021-05-27T12:31:41Z</time>
      </trkpt>
      <trkpt lat="47.7001" lon="-2.32719">
        <ele>62</ele>
        <time>2021-05-27T12:31:42Z</time>
      </trkpt>
      <trkpt lat="47.7001" lon="-2.32718">
        <ele>62.1</ele>
        <time>2021-05-27T12:31:43Z</time>
      </trkpt>
      <trkpt lat="47.7001" lon="-2.32717">
        <ele>62.1</ele>
        <time>2021-05-27T12:31:44Z</time>
      </trkpt>
      <trkpt lat="47.7001" lon="-2.32717">
        <ele>62.1</ele>
        <time>2021-05-27T12:31:45Z</time>
      </trkpt>
      <trkpt lat="47.7001" lon="-2.32717">
        <ele>62.1</ele>
        <time>2021-05-27T12:31:46Z</time>
      </trkpt>
      <trkpt lat="47.7001" lon="-2.32717">
        <ele>62.1</ele>
        <time>2021-05-27T12:31:47Z</time>
      </trkpt>
      <trkpt lat="47.7001" lon="-2.32717">
        <ele>62.1</ele>
        <time>2021-05-27T12:31:48Z</time>
      </trkpt>
      <trkpt lat="47.7001" lon="-2.32717">
        <ele>62.1</ele>
        <time>2021-05-27T12:31:49Z</time>
      </trkpt>
      <trkpt lat="47.7001" lon="-2.32717">
        <ele>62.1</ele>
        <time>2021-05-27T12:31:50Z</time>
      </trkpt>
      <trkpt lat="47.7001" lon="-2.32717">
        <ele>62.1</ele>
        <time>2021-05-27T12:31:51Z</time>
      </trkpt>
      <trkpt lat="47.7001" lon="-2.32717">
        <ele>62.1</ele>
        <time>2021-05-27T12:31:52Z</time>
      </trkpt>
      <trkpt lat="47.7001" lon="-2.32717">
        <ele>62.1</ele>
        <time>2021-05-27T12:31:53Z</time>
      </trkpt>
      <trkpt lat="47.7001" lon="-2.32717">
        <ele>62.1</ele>
        <time>2021-05-27T12:31:54Z</time>
      </trkpt>
      <trkpt lat="47.70007" lon="-2.32703">
        <ele>62.4</ele>
        <time>2021-05-27T12:31:55Z</time>
      </trkpt>
      <trkpt lat="47.70007" lon="-2.32702">
        <ele>62.3</ele>
        <time>2021-05-27T12:31:56Z</time>
      </trkpt>
      <trkpt lat="47.70007" lon="-2.32701">
        <ele>62.4</ele>
        <time>2021-05-27T12:31:57Z</time>
      </trkpt>
      <trkpt lat="47.70006" lon="-2.32699">
        <ele>62.5</ele>
        <time>2021-05-27T12:31:58Z</time>
      </trkpt>
      <trkpt lat="47.70006" lon="-2.32697">
        <ele>62.5</ele>
        <time>2021-05-27T12:31:59Z</time>
      </trkpt>
      <trkpt lat="47.70006" lon="-2.32694">
        <ele>62.5</ele>
        <time>2021-05-27T12:32:00Z</time>
      </trkpt>
      <trkpt lat="47.70005" lon="-2.32691">
        <ele>62.6</ele>
        <time>2021-05-27T12:32:01Z</time>
      </trkpt>
      <trkpt lat="47.70003" lon="-2.32688">
        <ele>62.5</ele>
        <time>2021-05-27T12:32:02Z</time>
      </trkpt>
      <trkpt lat="47.70003" lon="-2.32685">
        <ele>62.5</ele>
        <time>2021-05-27T12:32:03Z</time>
      </trkpt>
      <trkpt lat="47.70002" lon="-2.32682">
        <ele>62.6</ele>
        <time>2021-05-27T12:32:04Z</time>
      </trkpt>
      <trkpt lat="47.70002" lon="-2.32678">
        <ele>62.7</ele>
        <time>2021-05-27T12:32:05Z</time>
      </trkpt>
      <trkpt lat="47.70001" lon="-2.32675">
        <ele>62.7</ele>
        <time>2021-05-27T12:32:06Z</time>
      </trkpt>
      <trkpt lat="47.7" lon="-2.32671">
        <ele>62.8</ele>
        <time>2021-05-27T12:32:07Z</time>
      </trkpt>
      <trkpt lat="47.69999" lon="-2.32668">
        <ele>62.8</ele>
        <time>2021-05-27T12:32:08Z</time>
      </trkpt>
      <trkpt lat="47.69998" lon="-2.32663">
        <ele>62.7</ele>
        <time>2021-05-27T12:32:09Z</time>
      </trkpt>
      <trkpt lat="47.69997" lon="-2.32659">
        <ele>62.7</ele>
        <time>2021-05-27T12:32:10Z</time>
      </trkpt>
      <trkpt lat="47.69996" lon="-2.32655">
        <ele>62.5</ele>
        <time>2021-05-27T12:32:11Z</time>
      </trkpt>
      <trkpt lat="47.69995" lon="-2.32653">
        <ele>62.4</ele>
        <time>2021-05-27T12:32:12Z</time>
      </trkpt>
      <trkpt lat="47.69995" lon="-2.32653">
        <ele>62.6</ele>
        <time>2021-05-27T12:32:13Z</time>
      </trkpt>
      <trkpt lat="47.69995" lon="-2.32653">
        <ele>62.6</ele>
        <time>2021-05-27T12:32:14Z</time>
      </trkpt>
      <trkpt lat="47.69995" lon="-2.32653">
        <ele>62.5</ele>
        <time>2021-05-27T12:32:15Z</time>
      </trkpt>
      <trkpt lat="47.69995" lon="-2.32653">
        <ele>62.5</ele>
        <time>2021-05-27T12:32:16Z</time>
      </trkpt>
      <trkpt lat="47.69995" lon="-2.32653">
        <ele>62.5</ele>
        <time>2021-05-27T12:32:17Z</time>
      </trkpt>
      <trkpt lat="47.69995" lon="-2.32653">
        <ele>62.5</ele>
        <time>2021-05-27T12:32:18Z</time>
      </trkpt>
      <trkpt lat="47.69995" lon="-2.32653">
        <ele>62.5</ele>
        <time>2021-05-27T12:32:19Z</time>
      </trkpt>
      <trkpt lat="47.69995" lon="-2.32653">
        <ele>62.5</ele>
        <time>2021-05-27T12:32:20Z</time>
      </trkpt>
      <trkpt lat="47.69995" lon="-2.32653">
        <ele>62.5</ele>
        <time>2021-05-27T12:32:21Z</time>
      </trkpt>
      <trkpt lat="47.69993" lon="-2.32647">
        <ele>62.3</ele>
        <time>2021-05-27T12:32:22Z</time>
      </trkpt>
      <trkpt lat="47.69992" lon="-2.32643">
        <ele>62.3</ele>
        <time>2021-05-27T12:32:23Z</time>
      </trkpt>
      <trkpt lat="47.69991" lon="-2.32639">
        <ele>62.3</ele>
        <time>2021-05-27T12:32:24Z</time>
      </trkpt>
      <trkpt lat="47.69989" lon="-2.32634">
        <ele>62.2</ele>
        <time>2021-05-27T12:32:25Z</time>
      </trkpt>
      <trkpt lat="47.69989" lon="-2.32629">
        <ele>62.3</ele>
        <time>2021-05-27T12:32:26Z</time>
      </trkpt>
      <trkpt lat="47.69988" lon="-2.32624">
        <ele>62.3</ele>
        <time>2021-05-27T12:32:27Z</time>
      </trkpt>
      <trkpt lat="47.69987" lon="-2.32619">
        <ele>62.3</ele>
        <time>2021-05-27T12:32:28Z</time>
      </trkpt>
      <trkpt lat="47.69985" lon="-2.32614">
        <ele>62.2</ele>
        <time>2021-05-27T12:32:29Z</time>
      </trkpt>
      <trkpt lat="47.69983" lon="-2.32608">
        <ele>62</ele>
        <time>2021-05-27T12:32:30Z</time>
      </trkpt>
      <trkpt lat="47.69982" lon="-2.32603">
        <ele>62.1</ele>
        <time>2021-05-27T12:32:31Z</time>
      </trkpt>
      <trkpt lat="47.69981" lon="-2.32598">
        <ele>62.1</ele>
        <time>2021-05-27T12:32:32Z</time>
      </trkpt>
      <trkpt lat="47.6998" lon="-2.32593">
        <ele>62.1</ele>
        <time>2021-05-27T12:32:33Z</time>
      </trkpt>
      <trkpt lat="47.69979" lon="-2.32588">
        <ele>62.1</ele>
        <time>2021-05-27T12:32:34Z</time>
      </trkpt>
      <trkpt lat="47.69978" lon="-2.32582">
        <ele>62</ele>
        <time>2021-05-27T12:32:35Z</time>
      </trkpt>
      <trkpt lat="47.69976" lon="-2.32577">
        <ele>61.8</ele>
        <time>2021-05-27T12:32:36Z</time>
      </trkpt>
      <trkpt lat="47.69975" lon="-2.32572">
        <ele>61.7</ele>
        <time>2021-05-27T12:32:37Z</time>
      </trkpt>
      <trkpt lat="47.69974" lon="-2.32568">
        <ele>61.5</ele>
        <time>2021-05-27T12:32:38Z</time>
      </trkpt>
      <trkpt lat="47.69973" lon="-2.32563">
        <ele>61.4</ele>
        <time>2021-05-27T12:32:39Z</time>
      </trkpt>
      <trkpt lat="47.69973" lon="-2.32558">
        <ele>61.4</ele>
        <time>2021-05-27T12:32:40Z</time>
      </trkpt>
      <trkpt lat="47.69972" lon="-2.32552">
        <ele>61.2</ele>
        <time>2021-05-27T12:32:41Z</time>
      </trkpt>
      <trkpt lat="47.6997" lon="-2.32547">
        <ele>61.1</ele>
        <time>2021-05-27T12:32:42Z</time>
      </trkpt>
      <trkpt lat="47.69969" lon="-2.32542">
        <ele>61</ele>
        <time>2021-05-27T12:32:43Z</time>
      </trkpt>
      <trkpt lat="47.69968" lon="-2.32538">
        <ele>60.8</ele>
        <time>2021-05-27T12:32:44Z</time>
      </trkpt>
      <trkpt lat="47.69968" lon="-2.32534">
        <ele>60.8</ele>
        <time>2021-05-27T12:32:45Z</time>
      </trkpt>
      <trkpt lat="47.69967" lon="-2.3253">
        <ele>60.7</ele>
        <time>2021-05-27T12:32:46Z</time>
      </trkpt>
      <trkpt lat="47.69966" lon="-2.32524">
        <ele>60.7</ele>
        <time>2021-05-27T12:32:47Z</time>
      </trkpt>
      <trkpt lat="47.69966" lon="-2.32519">
        <ele>60.7</ele>
        <time>2021-05-27T12:32:48Z</time>
      </trkpt>
      <trkpt lat="47.69966" lon="-2.32514">
        <ele>60.8</ele>
        <time>2021-05-27T12:32:49Z</time>
      </trkpt>
      <trkpt lat="47.69967" lon="-2.32508">
        <ele>60.9</ele>
        <time>2021-05-27T12:32:50Z</time>
      </trkpt>
      <trkpt lat="47.69968" lon="-2.32502">
        <ele>61.2</ele>
        <time>2021-05-27T12:32:51Z</time>
      </trkpt>
      <trkpt lat="47.69969" lon="-2.32497">
        <ele>61.2</ele>
        <time>2021-05-27T12:32:52Z</time>
      </trkpt>
      <trkpt lat="47.69969" lon="-2.32492">
        <ele>61.2</ele>
        <time>2021-05-27T12:32:53Z</time>
      </trkpt>
      <trkpt lat="47.69969" lon="-2.32487">
        <ele>61.2</ele>
        <time>2021-05-27T12:32:54Z</time>
      </trkpt>
      <trkpt lat="47.6997" lon="-2.32481">
        <ele>61.1</ele>
        <time>2021-05-27T12:32:55Z</time>
      </trkpt>
      <trkpt lat="47.6997" lon="-2.32476">
        <ele>61</ele>
        <time>2021-05-27T12:32:56Z</time>
      </trkpt>
      <trkpt lat="47.69969" lon="-2.32471">
        <ele>60.7</ele>
        <time>2021-05-27T12:32:57Z</time>
      </trkpt>
      <trkpt lat="47.6997" lon="-2.32466">
        <ele>60.7</ele>
        <time>2021-05-27T12:32:58Z</time>
      </trkpt>
      <trkpt lat="47.6997" lon="-2.32462">
        <ele>60.8</ele>
        <time>2021-05-27T12:32:59Z</time>
      </trkpt>
      <trkpt lat="47.69972" lon="-2.32459">
        <ele>61</ele>
        <time>2021-05-27T12:33:00Z</time>
      </trkpt>
      <trkpt lat="47.69974" lon="-2.32457">
        <ele>61.2</ele>
        <time>2021-05-27T12:33:01Z</time>
      </trkpt>
      <trkpt lat="47.69975" lon="-2.32454">
        <ele>61.4</ele>
        <time>2021-05-27T12:33:02Z</time>
      </trkpt>
      <trkpt lat="47.69976" lon="-2.32451">
        <ele>61.6</ele>
        <time>2021-05-27T12:33:03Z</time>
      </trkpt>
      <trkpt lat="47.69977" lon="-2.3245">
        <ele>61.7</ele>
        <time>2021-05-27T12:33:04Z</time>
      </trkpt>
      <trkpt lat="47.69979" lon="-2.32448">
        <ele>61.9</ele>
        <time>2021-05-27T12:33:05Z</time>
      </trkpt>
      <trkpt lat="47.6998" lon="-2.32445">
        <ele>62.1</ele>
        <time>2021-05-27T12:33:06Z</time>
      </trkpt>
      <trkpt lat="47.69982" lon="-2.32443">
        <ele>62.3</ele>
        <time>2021-05-27T12:33:07Z</time>
      </trkpt>
      <trkpt lat="47.69983" lon="-2.32442">
        <ele>62.5</ele>
        <time>2021-05-27T12:33:08Z</time>
      </trkpt>
      <trkpt lat="47.69983" lon="-2.32442">
        <ele>62.5</ele>
        <time>2021-05-27T12:33:09Z</time>
      </trkpt>
      <trkpt lat="47.69983" lon="-2.32441">
        <ele>62.4</ele>
        <time>2021-05-27T12:33:10Z</time>
      </trkpt>
      <trkpt lat="47.69983" lon="-2.32441">
        <ele>62.4</ele>
        <time>2021-05-27T12:33:11Z</time>
      </trkpt>
      <trkpt lat="47.69983" lon="-2.32441">
        <ele>62.4</ele>
        <time>2021-05-27T12:33:12Z</time>
      </trkpt>
      <trkpt lat="47.69983" lon="-2.32441">
        <ele>62.4</ele>
        <time>2021-05-27T12:33:13Z</time>
      </trkpt>
      <trkpt lat="47.69983" lon="-2.32441">
        <ele>62.4</ele>
        <time>2021-05-27T12:33:14Z</time>
      </trkpt>
      <trkpt lat="47.69983" lon="-2.32441">
        <ele>62.4</ele>
        <time>2021-05-27T12:33:15Z</time>
      </trkpt>
      <trkpt lat="47.69983" lon="-2.32441">
        <ele>62.4</ele>
        <time>2021-05-27T12:33:16Z</time>
      </trkpt>
      <trkpt lat="47.69983" lon="-2.32441">
        <ele>62.4</ele>
        <time>2021-05-27T12:33:17Z</time>
      </trkpt>
      <trkpt lat="47.69983" lon="-2.32441">
        <ele>62.4</ele>
        <time>2021-05-27T12:33:18Z</time>
      </trkpt>
      <trkpt lat="47.69983" lon="-2.32441">
        <ele>62.4</ele>
        <time>2021-05-27T12:33:19Z</time>
      </trkpt>
      <trkpt lat="47.69983" lon="-2.32441">
        <ele>62.4</ele>
        <time>2021-05-27T12:33:20Z</time>
      </trkpt>
      <trkpt lat="47.69983" lon="-2.32441">
        <ele>62.4</ele>
        <time>2021-05-27T12:33:21Z</time>
      </trkpt>
      <trkpt lat="47.69983" lon="-2.32441">
        <ele>62.4</ele>
        <time>2021-05-27T12:33:22Z</time>
      </trkpt>
      <trkpt lat="47.69983" lon="-2.32441">
        <ele>62.4</ele>
        <time>2021-05-27T12:33:23Z</time>
      </trkpt>
      <trkpt lat="47.69983" lon="-2.32441">
        <ele>62.4</ele>
        <time>2021-05-27T12:33:24Z</time>
      </trkpt>
      <trkpt lat="47.69983" lon="-2.32441">
        <ele>62.4</ele>
        <time>2021-05-27T12:33:25Z</time>
      </trkpt>
      <trkpt lat="47.69983" lon="-2.32441">
        <ele>62.4</ele>
        <time>2021-05-27T12:33:26Z</time>
      </trkpt>
      <trkpt lat="47.69983" lon="-2.32441">
        <ele>62.4</ele>
        <time>2021-05-27T12:33:27Z</time>
      </trkpt>
      <trkpt lat="47.69983" lon="-2.32441">
        <ele>62.4</ele>
        <time>2021-05-27T12:33:28Z</time>
      </trkpt>
      <trkpt lat="47.69989" lon="-2.32431">
        <ele>63.4</ele>
        <time>2021-05-27T12:33:29Z</time>
      </trkpt>
      <trkpt lat="47.6999" lon="-2.32429">
        <ele>63.6</ele>
        <time>2021-05-27T12:33:30Z</time>
      </trkpt>
      <trkpt lat="47.69992" lon="-2.32428">
        <ele>63.8</ele>
        <time>2021-05-27T12:33:31Z</time>
      </trkpt>
      <trkpt lat="47.69993" lon="-2.32426">
        <ele>63.9</ele>
        <time>2021-05-27T12:33:32Z</time>
      </trkpt>
      <trkpt lat="47.69994" lon="-2.32424">
        <ele>64.1</ele>
        <time>2021-05-27T12:33:33Z</time>
      </trkpt>
      <trkpt lat="47.69995" lon="-2.32422">
        <ele>64.2</ele>
        <time>2021-05-27T12:33:34Z</time>
      </trkpt>
      <trkpt lat="47.69996" lon="-2.32419">
        <ele>64.3</ele>
        <time>2021-05-27T12:33:35Z</time>
      </trkpt>
      <trkpt lat="47.69996" lon="-2.32417">
        <ele>64.4</ele>
        <time>2021-05-27T12:33:36Z</time>
      </trkpt>
      <trkpt lat="47.69998" lon="-2.32414">
        <ele>64.5</ele>
        <time>2021-05-27T12:33:37Z</time>
      </trkpt>
      <trkpt lat="47.69999" lon="-2.32411">
        <ele>64.7</ele>
        <time>2021-05-27T12:33:38Z</time>
      </trkpt>
      <trkpt lat="47.70001" lon="-2.32407">
        <ele>64.9</ele>
        <time>2021-05-27T12:33:39Z</time>
      </trkpt>
      <trkpt lat="47.70002" lon="-2.32404">
        <ele>64.9</ele>
        <time>2021-05-27T12:33:40Z</time>
      </trkpt>
      <trkpt lat="47.70003" lon="-2.32401">
        <ele>65</ele>
        <time>2021-05-27T12:33:41Z</time>
      </trkpt>
      <trkpt lat="47.70004" lon="-2.32397">
        <ele>65.1</ele>
        <time>2021-05-27T12:33:42Z</time>
      </trkpt>
      <trkpt lat="47.70005" lon="-2.32394">
        <ele>65.1</ele>
        <time>2021-05-27T12:33:43Z</time>
      </trkpt>
      <trkpt lat="47.70006" lon="-2.32391">
        <ele>65.2</ele>
        <time>2021-05-27T12:33:44Z</time>
      </trkpt>
      <trkpt lat="47.70007" lon="-2.32388">
        <ele>65.3</ele>
        <time>2021-05-27T12:33:45Z</time>
      </trkpt>
      <trkpt lat="47.70009" lon="-2.32384">
        <ele>65.4</ele>
        <time>2021-05-27T12:33:46Z</time>
      </trkpt>
      <trkpt lat="47.7001" lon="-2.3238">
        <ele>65.5</ele>
        <time>2021-05-27T12:33:47Z</time>
      </trkpt>
      <trkpt lat="47.70011" lon="-2.32377">
        <ele>65.5</ele>
        <time>2021-05-27T12:33:48Z</time>
      </trkpt>
      <trkpt lat="47.70012" lon="-2.32374">
        <ele>65.6</ele>
        <time>2021-05-27T12:33:49Z</time>
      </trkpt>
      <trkpt lat="47.70013" lon="-2.32371">
        <ele>65.8</ele>
        <time>2021-05-27T12:33:50Z</time>
      </trkpt>
      <trkpt lat="47.70015" lon="-2.32367">
        <ele>65.9</ele>
        <time>2021-05-27T12:33:51Z</time>
      </trkpt>
      <trkpt lat="47.70017" lon="-2.32364">
        <ele>66.1</ele>
        <time>2021-05-27T12:33:52Z</time>
      </trkpt>
      <trkpt lat="47.70018" lon="-2.32361">
        <ele>66.2</ele>
        <time>2021-05-27T12:33:53Z</time>
      </trkpt>
      <trkpt lat="47.70019" lon="-2.32358">
        <ele>66.3</ele>
        <time>2021-05-27T12:33:54Z</time>
      </trkpt>
      <trkpt lat="47.70022" lon="-2.32356">
        <ele>66.6</ele>
        <time>2021-05-27T12:33:55Z</time>
      </trkpt>
      <trkpt lat="47.70024" lon="-2.32352">
        <ele>66.8</ele>
        <time>2021-05-27T12:33:56Z</time>
      </trkpt>
      <trkpt lat="47.70025" lon="-2.3235">
        <ele>67</ele>
        <time>2021-05-27T12:33:57Z</time>
      </trkpt>
      <trkpt lat="47.70027" lon="-2.32347">
        <ele>67.1</ele>
        <time>2021-05-27T12:33:58Z</time>
      </trkpt>
      <trkpt lat="47.70028" lon="-2.32344">
        <ele>67.3</ele>
        <time>2021-05-27T12:33:59Z</time>
      </trkpt>
      <trkpt lat="47.7003" lon="-2.32342">
        <ele>67.4</ele>
        <time>2021-05-27T12:34:00Z</time>
      </trkpt>
      <trkpt lat="47.70031" lon="-2.32339">
        <ele>67.5</ele>
        <time>2021-05-27T12:34:01Z</time>
      </trkpt>
      <trkpt lat="47.70032" lon="-2.32336">
        <ele>67.7</ele>
        <time>2021-05-27T12:34:02Z</time>
      </trkpt>
      <trkpt lat="47.70033" lon="-2.32334">
        <ele>67.8</ele>
        <time>2021-05-27T12:34:03Z</time>
      </trkpt>
      <trkpt lat="47.70035" lon="-2.32331">
        <ele>68.1</ele>
        <time>2021-05-27T12:34:04Z</time>
      </trkpt>
      <trkpt lat="47.70037" lon="-2.32329">
        <ele>68.3</ele>
        <time>2021-05-27T12:34:05Z</time>
      </trkpt>
      <trkpt lat="47.70039" lon="-2.32327">
        <ele>68.6</ele>
        <time>2021-05-27T12:34:06Z</time>
      </trkpt>
      <trkpt lat="47.7004" lon="-2.32326">
        <ele>68.7</ele>
        <time>2021-05-27T12:34:07Z</time>
      </trkpt>
      <trkpt lat="47.70041" lon="-2.32324">
        <ele>68.8</ele>
        <time>2021-05-27T12:34:08Z</time>
      </trkpt>
      <trkpt lat="47.70042" lon="-2.32322">
        <ele>69</ele>
        <time>2021-05-27T12:34:09Z</time>
      </trkpt>
      <trkpt lat="47.70043" lon="-2.32321">
        <ele>69.1</ele>
        <time>2021-05-27T12:34:10Z</time>
      </trkpt>
      <trkpt lat="47.70043" lon="-2.32321">
        <ele>69.1</ele>
        <time>2021-05-27T12:34:11Z</time>
      </trkpt>
      <trkpt lat="47.70043" lon="-2.32321">
        <ele>69.2</ele>
        <time>2021-05-27T12:34:12Z</time>
      </trkpt>
      <trkpt lat="47.70043" lon="-2.32321">
        <ele>69.2</ele>
        <time>2021-05-27T12:34:13Z</time>
      </trkpt>
      <trkpt lat="47.70043" lon="-2.32321">
        <ele>69.2</ele>
        <time>2021-05-27T12:34:14Z</time>
      </trkpt>
      <trkpt lat="47.70043" lon="-2.32321">
        <ele>69.2</ele>
        <time>2021-05-27T12:34:15Z</time>
      </trkpt>
      <trkpt lat="47.70043" lon="-2.32321">
        <ele>69.2</ele>
        <time>2021-05-27T12:34:16Z</time>
      </trkpt>
      <trkpt lat="47.70043" lon="-2.32321">
        <ele>69.2</ele>
        <time>2021-05-27T12:34:17Z</time>
      </trkpt>
      <trkpt lat="47.70043" lon="-2.32321">
        <ele>69.2</ele>
        <time>2021-05-27T12:34:18Z</time>
      </trkpt>
      <trkpt lat="47.70045" lon="-2.32321">
        <ele>69.4</ele>
        <time>2021-05-27T12:34:19Z</time>
      </trkpt>
      <trkpt lat="47.70046" lon="-2.32322">
        <ele>69.5</ele>
        <time>2021-05-27T12:34:20Z</time>
      </trkpt>
      <trkpt lat="47.70047" lon="-2.32324">
        <ele>69.8</ele>
        <time>2021-05-27T12:34:21Z</time>
      </trkpt>
      <trkpt lat="47.70049" lon="-2.32325">
        <ele>70</ele>
        <time>2021-05-27T12:34:22Z</time>
      </trkpt>
      <trkpt lat="47.70052" lon="-2.32326">
        <ele>70.4</ele>
        <time>2021-05-27T12:34:23Z</time>
      </trkpt>
      <trkpt lat="47.70054" lon="-2.32327">
        <ele>70.8</ele>
        <time>2021-05-27T12:34:24Z</time>
      </trkpt>
      <trkpt lat="47.70057" lon="-2.32327">
        <ele>71.2</ele>
        <time>2021-05-27T12:34:25Z</time>
      </trkpt>
      <trkpt lat="47.70059" lon="-2.32327">
        <ele>71.5</ele>
        <time>2021-05-27T12:34:26Z</time>
      </trkpt>
      <trkpt lat="47.70062" lon="-2.32327">
        <ele>71.8</ele>
        <time>2021-05-27T12:34:27Z</time>
      </trkpt>
      <trkpt lat="47.70064" lon="-2.32328">
        <ele>72.2</ele>
        <time>2021-05-27T12:34:28Z</time>
      </trkpt>
      <trkpt lat="47.70066" lon="-2.32329">
        <ele>72.5</ele>
        <time>2021-05-27T12:34:29Z</time>
      </trkpt>
      <trkpt lat="47.70069" lon="-2.32329">
        <ele>72.9</ele>
        <time>2021-05-27T12:34:30Z</time>
      </trkpt>
      <trkpt lat="47.70071" lon="-2.3233">
        <ele>73.2</ele>
        <time>2021-05-27T12:34:31Z</time>
      </trkpt>
      <trkpt lat="47.70074" lon="-2.32332">
        <ele>73.6</ele>
        <time>2021-05-27T12:34:32Z</time>
      </trkpt>
      <trkpt lat="47.70075" lon="-2.32333">
        <ele>73.8</ele>
        <time>2021-05-27T12:34:33Z</time>
      </trkpt>
      <trkpt lat="47.70077" lon="-2.32335">
        <ele>74.1</ele>
        <time>2021-05-27T12:34:34Z</time>
      </trkpt>
      <trkpt lat="47.70079" lon="-2.32336">
        <ele>74.4</ele>
        <time>2021-05-27T12:34:35Z</time>
      </trkpt>
      <trkpt lat="47.70082" lon="-2.32338">
        <ele>74.8</ele>
        <time>2021-05-27T12:34:36Z</time>
      </trkpt>
      <trkpt lat="47.70085" lon="-2.32339">
        <ele>75.1</ele>
        <time>2021-05-27T12:34:37Z</time>
      </trkpt>
      <trkpt lat="47.70087" lon="-2.32342">
        <ele>75.2</ele>
        <time>2021-05-27T12:34:38Z</time>
      </trkpt>
      <trkpt lat="47.70089" lon="-2.32344">
        <ele>75.3</ele>
        <time>2021-05-27T12:34:39Z</time>
      </trkpt>
      <trkpt lat="47.70092" lon="-2.32346">
        <ele>75.3</ele>
        <time>2021-05-27T12:34:40Z</time>
      </trkpt>
      <trkpt lat="47.70096" lon="-2.32347">
        <ele>75.4</ele>
        <time>2021-05-27T12:34:41Z</time>
      </trkpt>
      <trkpt lat="47.70099" lon="-2.32349">
        <ele>75.5</ele>
        <time>2021-05-27T12:34:42Z</time>
      </trkpt>
      <trkpt lat="47.70102" lon="-2.32351">
        <ele>75.6</ele>
        <time>2021-05-27T12:34:43Z</time>
      </trkpt>
      <trkpt lat="47.70105" lon="-2.32352">
        <ele>75.7</ele>
        <time>2021-05-27T12:34:44Z</time>
      </trkpt>
      <trkpt lat="47.70108" lon="-2.32354">
        <ele>75.8</ele>
        <time>2021-05-27T12:34:45Z</time>
      </trkpt>
      <trkpt lat="47.7011" lon="-2.32356">
        <ele>75.8</ele>
        <time>2021-05-27T12:34:46Z</time>
      </trkpt>
      <trkpt lat="47.70111" lon="-2.32359">
        <ele>75.9</ele>
        <time>2021-05-27T12:34:47Z</time>
      </trkpt>
      <trkpt lat="47.70113" lon="-2.32361">
        <ele>75.9</ele>
        <time>2021-05-27T12:34:48Z</time>
      </trkpt>
      <trkpt lat="47.70114" lon="-2.32362">
        <ele>76</ele>
        <time>2021-05-27T12:34:49Z</time>
      </trkpt>
      <trkpt lat="47.70117" lon="-2.32365">
        <ele>76</ele>
        <time>2021-05-27T12:34:50Z</time>
      </trkpt>
      <trkpt lat="47.70117" lon="-2.32366">
        <ele>76.1</ele>
        <time>2021-05-27T12:34:51Z</time>
      </trkpt>
      <trkpt lat="47.70118" lon="-2.32368">
        <ele>76.1</ele>
        <time>2021-05-27T12:34:52Z</time>
      </trkpt>
      <trkpt lat="47.70117" lon="-2.32369">
        <ele>76.1</ele>
        <time>2021-05-27T12:34:53Z</time>
      </trkpt>
      <trkpt lat="47.70117" lon="-2.32369">
        <ele>76.1</ele>
        <time>2021-05-27T12:34:54Z</time>
      </trkpt>
      <trkpt lat="47.70117" lon="-2.32369">
        <ele>76.1</ele>
        <time>2021-05-27T12:34:55Z</time>
      </trkpt>
      <trkpt lat="47.70117" lon="-2.32369">
        <ele>76.1</ele>
        <time>2021-05-27T12:34:56Z</time>
      </trkpt>
      <trkpt lat="47.70117" lon="-2.32369">
        <ele>76.1</ele>
        <time>2021-05-27T12:34:57Z</time>
      </trkpt>
      <trkpt lat="47.70117" lon="-2.32369">
        <ele>76.1</ele>
        <time>2021-05-27T12:34:58Z</time>
      </trkpt>
      <trkpt lat="47.70117" lon="-2.32369">
        <ele>76.1</ele>
        <time>2021-05-27T12:34:59Z</time>
      </trkpt>
      <trkpt lat="47.70117" lon="-2.32369">
        <ele>76.1</ele>
        <time>2021-05-27T12:35:00Z</time>
      </trkpt>
      <trkpt lat="47.70117" lon="-2.32369">
        <ele>76.1</ele>
        <time>2021-05-27T12:35:01Z</time>
      </trkpt>
      <trkpt lat="47.70117" lon="-2.32369">
        <ele>76.1</ele>
        <time>2021-05-27T12:35:02Z</time>
      </trkpt>
      <trkpt lat="47.70117" lon="-2.32369">
        <ele>76.1</ele>
        <time>2021-05-27T12:35:03Z</time>
      </trkpt>
      <trkpt lat="47.70126" lon="-2.32372">
        <ele>76.3</ele>
        <time>2021-05-27T12:35:04Z</time>
      </trkpt>
      <trkpt lat="47.70129" lon="-2.32374">
        <ele>76.3</ele>
        <time>2021-05-27T12:35:05Z</time>
      </trkpt>
      <trkpt lat="47.70132" lon="-2.32375">
        <ele>76.4</ele>
        <time>2021-05-27T12:35:06Z</time>
      </trkpt>
      <trkpt lat="47.70135" lon="-2.32378">
        <ele>76.4</ele>
        <time>2021-05-27T12:35:07Z</time>
      </trkpt>
      <trkpt lat="47.70138" lon="-2.32379">
        <ele>76.5</ele>
        <time>2021-05-27T12:35:08Z</time>
      </trkpt>
      <trkpt lat="47.7014" lon="-2.32382">
        <ele>76.6</ele>
        <time>2021-05-27T12:35:09Z</time>
      </trkpt>
      <trkpt lat="47.70142" lon="-2.32385">
        <ele>76.6</ele>
        <time>2021-05-27T12:35:10Z</time>
      </trkpt>
      <trkpt lat="47.70143" lon="-2.32389">
        <ele>76.6</ele>
        <time>2021-05-27T12:35:11Z</time>
      </trkpt>
      <trkpt lat="47.70145" lon="-2.32392">
        <ele>76.7</ele>
        <time>2021-05-27T12:35:12Z</time>
      </trkpt>
      <trkpt lat="47.70147" lon="-2.32396">
        <ele>76.7</ele>
        <time>2021-05-27T12:35:13Z</time>
      </trkpt>
      <trkpt lat="47.70151" lon="-2.32399">
        <ele>76.8</ele>
        <time>2021-05-27T12:35:14Z</time>
      </trkpt>
      <trkpt lat="47.70154" lon="-2.32402">
        <ele>76.8</ele>
        <time>2021-05-27T12:35:15Z</time>
      </trkpt>
      <trkpt lat="47.70157" lon="-2.32404">
        <ele>76.9</ele>
        <time>2021-05-27T12:35:16Z</time>
      </trkpt>
      <trkpt lat="47.70161" lon="-2.32404">
        <ele>76.9</ele>
        <time>2021-05-27T12:35:17Z</time>
      </trkpt>
      <trkpt lat="47.70163" lon="-2.32402">
        <ele>77</ele>
        <time>2021-05-27T12:35:18Z</time>
      </trkpt>
      <trkpt lat="47.70164" lon="-2.32399">
        <ele>77</ele>
        <time>2021-05-27T12:35:19Z</time>
      </trkpt>
      <trkpt lat="47.70163" lon="-2.32395">
        <ele>76.9</ele>
        <time>2021-05-27T12:35:20Z</time>
      </trkpt>
      <trkpt lat="47.70163" lon="-2.32392">
        <ele>76.9</ele>
        <time>2021-05-27T12:35:21Z</time>
      </trkpt>
      <trkpt lat="47.70161" lon="-2.32388">
        <ele>76.9</ele>
        <time>2021-05-27T12:35:22Z</time>
      </trkpt>
      <trkpt lat="47.70161" lon="-2.32383">
        <ele>76.9</ele>
        <time>2021-05-27T12:35:23Z</time>
      </trkpt>
      <trkpt lat="47.7016" lon="-2.32379">
        <ele>76.9</ele>
        <time>2021-05-27T12:35:24Z</time>
      </trkpt>
      <trkpt lat="47.7016" lon="-2.32374">
        <ele>76.9</ele>
        <time>2021-05-27T12:35:25Z</time>
      </trkpt>
      <trkpt lat="47.70159" lon="-2.32369">
        <ele>76.8</ele>
        <time>2021-05-27T12:35:26Z</time>
      </trkpt>
      <trkpt lat="47.70157" lon="-2.32364">
        <ele>76.8</ele>
        <time>2021-05-27T12:35:27Z</time>
      </trkpt>
      <trkpt lat="47.70154" lon="-2.32358">
        <ele>76.8</ele>
        <time>2021-05-27T12:35:28Z</time>
      </trkpt>
      <trkpt lat="47.70153" lon="-2.32354">
        <ele>76.7</ele>
        <time>2021-05-27T12:35:29Z</time>
      </trkpt>
      <trkpt lat="47.70152" lon="-2.3235">
        <ele>76.7</ele>
        <time>2021-05-27T12:35:30Z</time>
      </trkpt>
      <trkpt lat="47.70151" lon="-2.32345">
        <ele>76.7</ele>
        <time>2021-05-27T12:35:31Z</time>
      </trkpt>
      <trkpt lat="47.70149" lon="-2.3234">
        <ele>76.6</ele>
        <time>2021-05-27T12:35:32Z</time>
      </trkpt>
      <trkpt lat="47.70147" lon="-2.32336">
        <ele>76.5</ele>
        <time>2021-05-27T12:35:33Z</time>
      </trkpt>
      <trkpt lat="47.70145" lon="-2.3233">
        <ele>76.5</ele>
        <time>2021-05-27T12:35:34Z</time>
      </trkpt>
      <trkpt lat="47.70145" lon="-2.32325">
        <ele>76.4</ele>
        <time>2021-05-27T12:35:35Z</time>
      </trkpt>
      <trkpt lat="47.70144" lon="-2.3232">
        <ele>76.3</ele>
        <time>2021-05-27T12:35:36Z</time>
      </trkpt>
      <trkpt lat="47.70143" lon="-2.32315">
        <ele>76.2</ele>
        <time>2021-05-27T12:35:37Z</time>
      </trkpt>
      <trkpt lat="47.70142" lon="-2.32311">
        <ele>76.1</ele>
        <time>2021-05-27T12:35:38Z</time>
      </trkpt>
      <trkpt lat="47.70142" lon="-2.32306">
        <ele>76.1</ele>
        <time>2021-05-27T12:35:39Z</time>
      </trkpt>
      <trkpt lat="47.7014" lon="-2.32301">
        <ele>76</ele>
        <time>2021-05-27T12:35:40Z</time>
      </trkpt>
      <trkpt lat="47.7014" lon="-2.32295">
        <ele>75.9</ele>
        <time>2021-05-27T12:35:41Z</time>
      </trkpt>
      <trkpt lat="47.70137" lon="-2.32289">
        <ele>75.8</ele>
        <time>2021-05-27T12:35:42Z</time>
      </trkpt>
      <trkpt lat="47.70135" lon="-2.32283">
        <ele>75.6</ele>
        <time>2021-05-27T12:35:43Z</time>
      </trkpt>
      <trkpt lat="47.70132" lon="-2.32277">
        <ele>75.5</ele>
        <time>2021-05-27T12:35:44Z</time>
      </trkpt>
      <trkpt lat="47.70128" lon="-2.32271">
        <ele>75.3</ele>
        <time>2021-05-27T12:35:45Z</time>
      </trkpt>
      <trkpt lat="47.70125" lon="-2.32265">
        <ele>75.2</ele>
        <time>2021-05-27T12:35:46Z</time>
      </trkpt>
      <trkpt lat="47.70121" lon="-2.3226">
        <ele>75</ele>
        <time>2021-05-27T12:35:47Z</time>
      </trkpt>
      <trkpt lat="47.70117" lon="-2.32254">
        <ele>74.9</ele>
        <time>2021-05-27T12:35:48Z</time>
      </trkpt>
      <trkpt lat="47.70114" lon="-2.32249">
        <ele>74.8</ele>
        <time>2021-05-27T12:35:49Z</time>
      </trkpt>
      <trkpt lat="47.70112" lon="-2.32242">
        <ele>74.9</ele>
        <time>2021-05-27T12:35:50Z</time>
      </trkpt>
      <trkpt lat="47.7011" lon="-2.32235">
        <ele>75</ele>
        <time>2021-05-27T12:35:51Z</time>
      </trkpt>
      <trkpt lat="47.70108" lon="-2.32229">
        <ele>75.2</ele>
        <time>2021-05-27T12:35:52Z</time>
      </trkpt>
      <trkpt lat="47.70106" lon="-2.32221">
        <ele>75.3</ele>
        <time>2021-05-27T12:35:53Z</time>
      </trkpt>
      <trkpt lat="47.70105" lon="-2.32214">
        <ele>75.5</ele>
        <time>2021-05-27T12:35:54Z</time>
      </trkpt>
      <trkpt lat="47.70103" lon="-2.32206">
        <ele>75.7</ele>
        <time>2021-05-27T12:35:55Z</time>
      </trkpt>
      <trkpt lat="47.70102" lon="-2.32199">
        <ele>75.8</ele>
        <time>2021-05-27T12:35:56Z</time>
      </trkpt>
      <trkpt lat="47.70102" lon="-2.32192">
        <ele>76</ele>
        <time>2021-05-27T12:35:57Z</time>
      </trkpt>
      <trkpt lat="47.70101" lon="-2.32185">
        <ele>76.2</ele>
        <time>2021-05-27T12:35:58Z</time>
      </trkpt>
      <trkpt lat="47.70101" lon="-2.32178">
        <ele>76.4</ele>
        <time>2021-05-27T12:35:59Z</time>
      </trkpt>
      <trkpt lat="47.701" lon="-2.32171">
        <ele>76.5</ele>
        <time>2021-05-27T12:36:00Z</time>
      </trkpt>
      <trkpt lat="47.70099" lon="-2.32163">
        <ele>76.6</ele>
        <time>2021-05-27T12:36:01Z</time>
      </trkpt>
      <trkpt lat="47.70098" lon="-2.32157">
        <ele>76.7</ele>
        <time>2021-05-27T12:36:02Z</time>
      </trkpt>
      <trkpt lat="47.70097" lon="-2.32151">
        <ele>76.8</ele>
        <time>2021-05-27T12:36:03Z</time>
      </trkpt>
      <trkpt lat="47.70096" lon="-2.32145">
        <ele>76.9</ele>
        <time>2021-05-27T12:36:04Z</time>
      </trkpt>
      <trkpt lat="47.70095" lon="-2.32139">
        <ele>76.9</ele>
        <time>2021-05-27T12:36:05Z</time>
      </trkpt>
      <trkpt lat="47.70094" lon="-2.32132">
        <ele>77</ele>
        <time>2021-05-27T12:36:06Z</time>
      </trkpt>
      <trkpt lat="47.70092" lon="-2.32126">
        <ele>77.1</ele>
        <time>2021-05-27T12:36:07Z</time>
      </trkpt>
      <trkpt lat="47.70089" lon="-2.32119">
        <ele>77.2</ele>
        <time>2021-05-27T12:36:08Z</time>
      </trkpt>
      <trkpt lat="47.70086" lon="-2.32113">
        <ele>77.3</ele>
        <time>2021-05-27T12:36:09Z</time>
      </trkpt>
      <trkpt lat="47.70083" lon="-2.32107">
        <ele>77.4</ele>
        <time>2021-05-27T12:36:10Z</time>
      </trkpt>
      <trkpt lat="47.70081" lon="-2.321">
        <ele>77.3</ele>
        <time>2021-05-27T12:36:11Z</time>
      </trkpt>
      <trkpt lat="47.7008" lon="-2.32094">
        <ele>77.4</ele>
        <time>2021-05-27T12:36:12Z</time>
      </trkpt>
      <trkpt lat="47.7008" lon="-2.32087">
        <ele>77.5</ele>
        <time>2021-05-27T12:36:13Z</time>
      </trkpt>
      <trkpt lat="47.70079" lon="-2.32078">
        <ele>77.7</ele>
        <time>2021-05-27T12:36:14Z</time>
      </trkpt>
      <trkpt lat="47.70079" lon="-2.3207">
        <ele>78</ele>
        <time>2021-05-27T12:36:15Z</time>
      </trkpt>
      <trkpt lat="47.70078" lon="-2.32063">
        <ele>78.3</ele>
        <time>2021-05-27T12:36:16Z</time>
      </trkpt>
      <trkpt lat="47.70079" lon="-2.32054">
        <ele>78.6</ele>
        <time>2021-05-27T12:36:17Z</time>
      </trkpt>
      <trkpt lat="47.7008" lon="-2.32047">
        <ele>79</ele>
        <time>2021-05-27T12:36:18Z</time>
      </trkpt>
      <trkpt lat="47.70081" lon="-2.32039">
        <ele>79.4</ele>
        <time>2021-05-27T12:36:19Z</time>
      </trkpt>
      <trkpt lat="47.70082" lon="-2.32031">
        <ele>79.8</ele>
        <time>2021-05-27T12:36:20Z</time>
      </trkpt>
      <trkpt lat="47.70084" lon="-2.32023">
        <ele>80.2</ele>
        <time>2021-05-27T12:36:21Z</time>
      </trkpt>
      <trkpt lat="47.70085" lon="-2.32015">
        <ele>80.4</ele>
        <time>2021-05-27T12:36:22Z</time>
      </trkpt>
      <trkpt lat="47.70086" lon="-2.32008">
        <ele>80.6</ele>
        <time>2021-05-27T12:36:23Z</time>
      </trkpt>
      <trkpt lat="47.70087" lon="-2.32001">
        <ele>80.9</ele>
        <time>2021-05-27T12:36:24Z</time>
      </trkpt>
      <trkpt lat="47.70088" lon="-2.31993">
        <ele>80.5</ele>
        <time>2021-05-27T12:36:25Z</time>
      </trkpt>
      <trkpt lat="47.7009" lon="-2.31986">
        <ele>80.2</ele>
        <time>2021-05-27T12:36:26Z</time>
      </trkpt>
      <trkpt lat="47.70091" lon="-2.3198">
        <ele>79.9</ele>
        <time>2021-05-27T12:36:27Z</time>
      </trkpt>
      <trkpt lat="47.70093" lon="-2.31972">
        <ele>79.6</ele>
        <time>2021-05-27T12:36:28Z</time>
      </trkpt>
      <trkpt lat="47.70093" lon="-2.31965">
        <ele>79.2</ele>
        <time>2021-05-27T12:36:29Z</time>
      </trkpt>
      <trkpt lat="47.70095" lon="-2.31957">
        <ele>78.9</ele>
        <time>2021-05-27T12:36:30Z</time>
      </trkpt>
      <trkpt lat="47.70096" lon="-2.31949">
        <ele>78.5</ele>
        <time>2021-05-27T12:36:31Z</time>
      </trkpt>
      <trkpt lat="47.70097" lon="-2.31941">
        <ele>78.2</ele>
        <time>2021-05-27T12:36:32Z</time>
      </trkpt>
      <trkpt lat="47.70098" lon="-2.31933">
        <ele>77.8</ele>
        <time>2021-05-27T12:36:33Z</time>
      </trkpt>
      <trkpt lat="47.701" lon="-2.31925">
        <ele>77.5</ele>
        <time>2021-05-27T12:36:34Z</time>
      </trkpt>
      <trkpt lat="47.70101" lon="-2.31916">
        <ele>77.2</ele>
        <time>2021-05-27T12:36:35Z</time>
      </trkpt>
      <trkpt lat="47.70102" lon="-2.31908">
        <ele>76.8</ele>
        <time>2021-05-27T12:36:36Z</time>
      </trkpt>
      <trkpt lat="47.70104" lon="-2.319">
        <ele>76.4</ele>
        <time>2021-05-27T12:36:37Z</time>
      </trkpt>
      <trkpt lat="47.70106" lon="-2.31892">
        <ele>76</ele>
        <time>2021-05-27T12:36:38Z</time>
      </trkpt>
      <trkpt lat="47.70108" lon="-2.31884">
        <ele>75.7</ele>
        <time>2021-05-27T12:36:39Z</time>
      </trkpt>
      <trkpt lat="47.70111" lon="-2.31876">
        <ele>75.4</ele>
        <time>2021-05-27T12:36:40Z</time>
      </trkpt>
      <trkpt lat="47.70111" lon="-2.31868">
        <ele>75</ele>
        <time>2021-05-27T12:36:41Z</time>
      </trkpt>
      <trkpt lat="47.70111" lon="-2.3186">
        <ele>74.6</ele>
        <time>2021-05-27T12:36:42Z</time>
      </trkpt>
      <trkpt lat="47.70112" lon="-2.31851">
        <ele>74.2</ele>
        <time>2021-05-27T12:36:43Z</time>
      </trkpt>
      <trkpt lat="47.70113" lon="-2.31843">
        <ele>73.9</ele>
        <time>2021-05-27T12:36:44Z</time>
      </trkpt>
      <trkpt lat="47.70113" lon="-2.31834">
        <ele>73.5</ele>
        <time>2021-05-27T12:36:45Z</time>
      </trkpt>
      <trkpt lat="47.70113" lon="-2.31826">
        <ele>73.6</ele>
        <time>2021-05-27T12:36:46Z</time>
      </trkpt>
      <trkpt lat="47.70114" lon="-2.31818">
        <ele>73.9</ele>
        <time>2021-05-27T12:36:47Z</time>
      </trkpt>
      <trkpt lat="47.70114" lon="-2.31811">
        <ele>74.1</ele>
        <time>2021-05-27T12:36:48Z</time>
      </trkpt>
      <trkpt lat="47.70115" lon="-2.31803">
        <ele>74.3</ele>
        <time>2021-05-27T12:36:49Z</time>
      </trkpt>
      <trkpt lat="47.70115" lon="-2.31796">
        <ele>74.5</ele>
        <time>2021-05-27T12:36:50Z</time>
      </trkpt>
      <trkpt lat="47.70116" lon="-2.31788">
        <ele>74.7</ele>
        <time>2021-05-27T12:36:51Z</time>
      </trkpt>
      <trkpt lat="47.70116" lon="-2.31781">
        <ele>74.8</ele>
        <time>2021-05-27T12:36:52Z</time>
      </trkpt>
      <trkpt lat="47.70116" lon="-2.31773">
        <ele>75</ele>
        <time>2021-05-27T12:36:53Z</time>
      </trkpt>
      <trkpt lat="47.70116" lon="-2.31766">
        <ele>75.2</ele>
        <time>2021-05-27T12:36:54Z</time>
      </trkpt>
      <trkpt lat="47.70118" lon="-2.31759">
        <ele>75.4</ele>
        <time>2021-05-27T12:36:55Z</time>
      </trkpt>
      <trkpt lat="47.70118" lon="-2.31751">
        <ele>75.6</ele>
        <time>2021-05-27T12:36:56Z</time>
      </trkpt>
      <trkpt lat="47.70119" lon="-2.31743">
        <ele>75.9</ele>
        <time>2021-05-27T12:36:57Z</time>
      </trkpt>
      <trkpt lat="47.70119" lon="-2.31735">
        <ele>76.2</ele>
        <time>2021-05-27T12:36:58Z</time>
      </trkpt>
      <trkpt lat="47.70119" lon="-2.31728">
        <ele>76.5</ele>
        <time>2021-05-27T12:36:59Z</time>
      </trkpt>
      <trkpt lat="47.70119" lon="-2.31719">
        <ele>76.9</ele>
        <time>2021-05-27T12:37:00Z</time>
      </trkpt>
      <trkpt lat="47.70119" lon="-2.31711">
        <ele>77.2</ele>
        <time>2021-05-27T12:37:01Z</time>
      </trkpt>
      <trkpt lat="47.70119" lon="-2.31703">
        <ele>77.6</ele>
        <time>2021-05-27T12:37:02Z</time>
      </trkpt>
      <trkpt lat="47.70118" lon="-2.31696">
        <ele>77.9</ele>
        <time>2021-05-27T12:37:03Z</time>
      </trkpt>
      <trkpt lat="47.70118" lon="-2.31688">
        <ele>78.3</ele>
        <time>2021-05-27T12:37:04Z</time>
      </trkpt>
      <trkpt lat="47.70118" lon="-2.3168">
        <ele>78.6</ele>
        <time>2021-05-27T12:37:05Z</time>
      </trkpt>
      <trkpt lat="47.70119" lon="-2.31673">
        <ele>78.9</ele>
        <time>2021-05-27T12:37:06Z</time>
      </trkpt>
      <trkpt lat="47.7012" lon="-2.31665">
        <ele>79.2</ele>
        <time>2021-05-27T12:37:07Z</time>
      </trkpt>
      <trkpt lat="47.70121" lon="-2.31657">
        <ele>79.3</ele>
        <time>2021-05-27T12:37:08Z</time>
      </trkpt>
      <trkpt lat="47.70124" lon="-2.3165">
        <ele>79.3</ele>
        <time>2021-05-27T12:37:09Z</time>
      </trkpt>
      <trkpt lat="47.70127" lon="-2.31643">
        <ele>79.4</ele>
        <time>2021-05-27T12:37:10Z</time>
      </trkpt>
      <trkpt lat="47.70131" lon="-2.31636">
        <ele>79.4</ele>
        <time>2021-05-27T12:37:11Z</time>
      </trkpt>
      <trkpt lat="47.70136" lon="-2.31631">
        <ele>79.4</ele>
        <time>2021-05-27T12:37:12Z</time>
      </trkpt>
      <trkpt lat="47.70141" lon="-2.31626">
        <ele>79.4</ele>
        <time>2021-05-27T12:37:13Z</time>
      </trkpt>
      <trkpt lat="47.70147" lon="-2.31621">
        <ele>79.4</ele>
        <time>2021-05-27T12:37:14Z</time>
      </trkpt>
      <trkpt lat="47.70152" lon="-2.31617">
        <ele>79.4</ele>
        <time>2021-05-27T12:37:15Z</time>
      </trkpt>
      <trkpt lat="47.70157" lon="-2.31612">
        <ele>79.5</ele>
        <time>2021-05-27T12:37:16Z</time>
      </trkpt>
      <trkpt lat="47.70162" lon="-2.31607">
        <ele>79.5</ele>
        <time>2021-05-27T12:37:17Z</time>
      </trkpt>
      <trkpt lat="47.70167" lon="-2.31603">
        <ele>79.5</ele>
        <time>2021-05-27T12:37:18Z</time>
      </trkpt>
      <trkpt lat="47.70173" lon="-2.31599">
        <ele>79.4</ele>
        <time>2021-05-27T12:37:19Z</time>
      </trkpt>
      <trkpt lat="47.70177" lon="-2.31595">
        <ele>79.4</ele>
        <time>2021-05-27T12:37:20Z</time>
      </trkpt>
      <trkpt lat="47.70182" lon="-2.31591">
        <ele>79.3</ele>
        <time>2021-05-27T12:37:21Z</time>
      </trkpt>
      <trkpt lat="47.70187" lon="-2.31587">
        <ele>79.2</ele>
        <time>2021-05-27T12:37:22Z</time>
      </trkpt>
      <trkpt lat="47.70192" lon="-2.31583">
        <ele>79.1</ele>
        <time>2021-05-27T12:37:23Z</time>
      </trkpt>
      <trkpt lat="47.70195" lon="-2.31579">
        <ele>78.9</ele>
        <time>2021-05-27T12:37:24Z</time>
      </trkpt>
      <trkpt lat="47.70199" lon="-2.31573">
        <ele>78.8</ele>
        <time>2021-05-27T12:37:25Z</time>
      </trkpt>
      <trkpt lat="47.70203" lon="-2.31565">
        <ele>78.6</ele>
        <time>2021-05-27T12:37:26Z</time>
      </trkpt>
      <trkpt lat="47.70205" lon="-2.31555">
        <ele>78.5</ele>
        <time>2021-05-27T12:37:27Z</time>
      </trkpt>
      <trkpt lat="47.70207" lon="-2.31545">
        <ele>78.3</ele>
        <time>2021-05-27T12:37:28Z</time>
      </trkpt>
      <trkpt lat="47.70207" lon="-2.31535">
        <ele>78.2</ele>
        <time>2021-05-27T12:37:29Z</time>
      </trkpt>
      <trkpt lat="47.70206" lon="-2.31526">
        <ele>78.2</ele>
        <time>2021-05-27T12:37:30Z</time>
      </trkpt>
      <trkpt lat="47.70205" lon="-2.31516">
        <ele>78.3</ele>
        <time>2021-05-27T12:37:31Z</time>
      </trkpt>
      <trkpt lat="47.70204" lon="-2.31508">
        <ele>78.2</ele>
        <time>2021-05-27T12:37:32Z</time>
      </trkpt>
      <trkpt lat="47.70203" lon="-2.31499">
        <ele>78.2</ele>
        <time>2021-05-27T12:37:33Z</time>
      </trkpt>
      <trkpt lat="47.70203" lon="-2.31491">
        <ele>78.1</ele>
        <time>2021-05-27T12:37:34Z</time>
      </trkpt>
      <trkpt lat="47.70202" lon="-2.31482">
        <ele>78</ele>
        <time>2021-05-27T12:37:35Z</time>
      </trkpt>
      <trkpt lat="47.70202" lon="-2.31474">
        <ele>77.9</ele>
        <time>2021-05-27T12:37:36Z</time>
      </trkpt>
      <trkpt lat="47.702" lon="-2.31464">
        <ele>77.8</ele>
        <time>2021-05-27T12:37:37Z</time>
      </trkpt>
      <trkpt lat="47.70199" lon="-2.31456">
        <ele>77.7</ele>
        <time>2021-05-27T12:37:38Z</time>
      </trkpt>
      <trkpt lat="47.70198" lon="-2.31446">
        <ele>77.6</ele>
        <time>2021-05-27T12:37:39Z</time>
      </trkpt>
      <trkpt lat="47.70197" lon="-2.31437">
        <ele>77.5</ele>
        <time>2021-05-27T12:37:40Z</time>
      </trkpt>
      <trkpt lat="47.70196" lon="-2.31429">
        <ele>77.5</ele>
        <time>2021-05-27T12:37:41Z</time>
      </trkpt>
      <trkpt lat="47.70194" lon="-2.31421">
        <ele>77.4</ele>
        <time>2021-05-27T12:37:42Z</time>
      </trkpt>
      <trkpt lat="47.70194" lon="-2.31414">
        <ele>77.4</ele>
        <time>2021-05-27T12:37:43Z</time>
      </trkpt>
      <trkpt lat="47.70193" lon="-2.31407">
        <ele>77.4</ele>
        <time>2021-05-27T12:37:44Z</time>
      </trkpt>
      <trkpt lat="47.70193" lon="-2.31399">
        <ele>77.4</ele>
        <time>2021-05-27T12:37:45Z</time>
      </trkpt>
      <trkpt lat="47.70192" lon="-2.31391">
        <ele>77.5</ele>
        <time>2021-05-27T12:37:46Z</time>
      </trkpt>
      <trkpt lat="47.70191" lon="-2.31384">
        <ele>77.6</ele>
        <time>2021-05-27T12:37:47Z</time>
      </trkpt>
      <trkpt lat="47.7019" lon="-2.31376">
        <ele>77.6</ele>
        <time>2021-05-27T12:37:48Z</time>
      </trkpt>
      <trkpt lat="47.7019" lon="-2.31369">
        <ele>77.6</ele>
        <time>2021-05-27T12:37:49Z</time>
      </trkpt>
      <trkpt lat="47.70189" lon="-2.31361">
        <ele>77.7</ele>
        <time>2021-05-27T12:37:50Z</time>
      </trkpt>
      <trkpt lat="47.70188" lon="-2.31352">
        <ele>77.7</ele>
        <time>2021-05-27T12:37:51Z</time>
      </trkpt>
      <trkpt lat="47.70187" lon="-2.31344">
        <ele>77.8</ele>
        <time>2021-05-27T12:37:52Z</time>
      </trkpt>
      <trkpt lat="47.70186" lon="-2.31335">
        <ele>77.8</ele>
        <time>2021-05-27T12:37:53Z</time>
      </trkpt>
      <trkpt lat="47.70186" lon="-2.31325">
        <ele>77.8</ele>
        <time>2021-05-27T12:37:54Z</time>
      </trkpt>
      <trkpt lat="47.70186" lon="-2.31317">
        <ele>77.8</ele>
        <time>2021-05-27T12:37:55Z</time>
      </trkpt>
      <trkpt lat="47.70186" lon="-2.31309">
        <ele>77.9</ele>
        <time>2021-05-27T12:37:56Z</time>
      </trkpt>
      <trkpt lat="47.70185" lon="-2.313">
        <ele>77.9</ele>
        <time>2021-05-27T12:37:57Z</time>
      </trkpt>
      <trkpt lat="47.70184" lon="-2.31291">
        <ele>78</ele>
        <time>2021-05-27T12:37:58Z</time>
      </trkpt>
      <trkpt lat="47.70183" lon="-2.31282">
        <ele>78</ele>
        <time>2021-05-27T12:37:59Z</time>
      </trkpt>
      <trkpt lat="47.70182" lon="-2.31273">
        <ele>78.1</ele>
        <time>2021-05-27T12:38:00Z</time>
      </trkpt>
      <trkpt lat="47.70182" lon="-2.31265">
        <ele>78.1</ele>
        <time>2021-05-27T12:38:01Z</time>
      </trkpt>
      <trkpt lat="47.70181" lon="-2.31256">
        <ele>78.1</ele>
        <time>2021-05-27T12:38:02Z</time>
      </trkpt>
      <trkpt lat="47.7018" lon="-2.31248">
        <ele>78.2</ele>
        <time>2021-05-27T12:38:03Z</time>
      </trkpt>
      <trkpt lat="47.70179" lon="-2.3124">
        <ele>78.4</ele>
        <time>2021-05-27T12:38:04Z</time>
      </trkpt>
      <trkpt lat="47.70178" lon="-2.31233">
        <ele>78.5</ele>
        <time>2021-05-27T12:38:05Z</time>
      </trkpt>
      <trkpt lat="47.70177" lon="-2.31226">
        <ele>78.7</ele>
        <time>2021-05-27T12:38:06Z</time>
      </trkpt>
      <trkpt lat="47.70175" lon="-2.31218">
        <ele>78.9</ele>
        <time>2021-05-27T12:38:07Z</time>
      </trkpt>
      <trkpt lat="47.70174" lon="-2.3121">
        <ele>79</ele>
        <time>2021-05-27T12:38:08Z</time>
      </trkpt>
      <trkpt lat="47.70173" lon="-2.31203">
        <ele>79.2</ele>
        <time>2021-05-27T12:38:09Z</time>
      </trkpt>
      <trkpt lat="47.70172" lon="-2.31195">
        <ele>79.3</ele>
        <time>2021-05-27T12:38:10Z</time>
      </trkpt>
      <trkpt lat="47.70172" lon="-2.31188">
        <ele>79.4</ele>
        <time>2021-05-27T12:38:11Z</time>
      </trkpt>
      <trkpt lat="47.70172" lon="-2.3118">
        <ele>79.5</ele>
        <time>2021-05-27T12:38:12Z</time>
      </trkpt>
      <trkpt lat="47.70171" lon="-2.31172">
        <ele>79.7</ele>
        <time>2021-05-27T12:38:13Z</time>
      </trkpt>
      <trkpt lat="47.70171" lon="-2.31164">
        <ele>79.8</ele>
        <time>2021-05-27T12:38:14Z</time>
      </trkpt>
      <trkpt lat="47.70171" lon="-2.31156">
        <ele>79.9</ele>
        <time>2021-05-27T12:38:15Z</time>
      </trkpt>
      <trkpt lat="47.70171" lon="-2.31148">
        <ele>80</ele>
        <time>2021-05-27T12:38:16Z</time>
      </trkpt>
      <trkpt lat="47.70171" lon="-2.3114">
        <ele>80</ele>
        <time>2021-05-27T12:38:17Z</time>
      </trkpt>
      <trkpt lat="47.70172" lon="-2.31132">
        <ele>80.1</ele>
        <time>2021-05-27T12:38:18Z</time>
      </trkpt>
      <trkpt lat="47.70172" lon="-2.31124">
        <ele>80.2</ele>
        <time>2021-05-27T12:38:19Z</time>
      </trkpt>
      <trkpt lat="47.70172" lon="-2.31116">
        <ele>80.3</ele>
        <time>2021-05-27T12:38:20Z</time>
      </trkpt>
      <trkpt lat="47.70172" lon="-2.31108">
        <ele>80.4</ele>
        <time>2021-05-27T12:38:21Z</time>
      </trkpt>
      <trkpt lat="47.70173" lon="-2.31101">
        <ele>80.4</ele>
        <time>2021-05-27T12:38:22Z</time>
      </trkpt>
      <trkpt lat="47.70173" lon="-2.31094">
        <ele>80.5</ele>
        <time>2021-05-27T12:38:23Z</time>
      </trkpt>
      <trkpt lat="47.70173" lon="-2.31088">
        <ele>80.6</ele>
        <time>2021-05-27T12:38:24Z</time>
      </trkpt>
      <trkpt lat="47.70194" lon="-2.31094">
        <ele>79.2</ele>
        <time>2021-05-27T12:39:00Z</time>
      </trkpt>
      <trkpt lat="47.702" lon="-2.31098">
        <ele>78.9</ele>
        <time>2021-05-27T12:39:01Z</time>
      </trkpt>
      <trkpt lat="47.70205" lon="-2.31102">
        <ele>78.5</ele>
        <time>2021-05-27T12:39:02Z</time>
      </trkpt>
      <trkpt lat="47.7021" lon="-2.31105">
        <ele>78.1</ele>
        <time>2021-05-27T12:39:03Z</time>
      </trkpt>
      <trkpt lat="47.70215" lon="-2.31106">
        <ele>77.8</ele>
        <time>2021-05-27T12:39:04Z</time>
      </trkpt>
      <trkpt lat="47.70221" lon="-2.31106">
        <ele>77.5</ele>
        <time>2021-05-27T12:39:05Z</time>
      </trkpt>
      <trkpt lat="47.70226" lon="-2.31106">
        <ele>77.2</ele>
        <time>2021-05-27T12:39:06Z</time>
      </trkpt>
      <trkpt lat="47.70231" lon="-2.31105">
        <ele>76.9</ele>
        <time>2021-05-27T12:39:07Z</time>
      </trkpt>
      <trkpt lat="47.70237" lon="-2.31104">
        <ele>76.6</ele>
        <time>2021-05-27T12:39:08Z</time>
      </trkpt>
      <trkpt lat="47.70242" lon="-2.31102">
        <ele>76.2</ele>
        <time>2021-05-27T12:39:09Z</time>
      </trkpt>
      <trkpt lat="47.70248" lon="-2.31101">
        <ele>75.9</ele>
        <time>2021-05-27T12:39:10Z</time>
      </trkpt>
      <trkpt lat="47.70254" lon="-2.311">
        <ele>75.7</ele>
        <time>2021-05-27T12:39:11Z</time>
      </trkpt>
      <trkpt lat="47.7026" lon="-2.31099">
        <ele>75.7</ele>
        <time>2021-05-27T12:39:12Z</time>
      </trkpt>
      <trkpt lat="47.70267" lon="-2.31099">
        <ele>75.6</ele>
        <time>2021-05-27T12:39:13Z</time>
      </trkpt>
      <trkpt lat="47.70273" lon="-2.311">
        <ele>75.5</ele>
        <time>2021-05-27T12:39:14Z</time>
      </trkpt>
      <trkpt lat="47.70279" lon="-2.31101">
        <ele>75.4</ele>
        <time>2021-05-27T12:39:15Z</time>
      </trkpt>
      <trkpt lat="47.70285" lon="-2.31104">
        <ele>75.2</ele>
        <time>2021-05-27T12:39:16Z</time>
      </trkpt>
      <trkpt lat="47.70291" lon="-2.31105">
        <ele>75.1</ele>
        <time>2021-05-27T12:39:17Z</time>
      </trkpt>
      <trkpt lat="47.70296" lon="-2.31106">
        <ele>75</ele>
        <time>2021-05-27T12:39:18Z</time>
      </trkpt>
      <trkpt lat="47.703" lon="-2.31103">
        <ele>75</ele>
        <time>2021-05-27T12:39:19Z</time>
      </trkpt>
      <trkpt lat="47.70303" lon="-2.31099">
        <ele>75.1</ele>
        <time>2021-05-27T12:39:20Z</time>
      </trkpt>
      <trkpt lat="47.70304" lon="-2.31093">
        <ele>75.2</ele>
        <time>2021-05-27T12:39:21Z</time>
      </trkpt>
      <trkpt lat="47.70304" lon="-2.31086">
        <ele>75.3</ele>
        <time>2021-05-27T12:39:22Z</time>
      </trkpt>
      <trkpt lat="47.70303" lon="-2.31079">
        <ele>75.4</ele>
        <time>2021-05-27T12:39:23Z</time>
      </trkpt>
      <trkpt lat="47.70303" lon="-2.31071">
        <ele>75.4</ele>
        <time>2021-05-27T12:39:24Z</time>
      </trkpt>
      <trkpt lat="47.70302" lon="-2.31063">
        <ele>75.4</ele>
        <time>2021-05-27T12:39:25Z</time>
      </trkpt>
      <trkpt lat="47.70301" lon="-2.31056">
        <ele>75.5</ele>
        <time>2021-05-27T12:39:26Z</time>
      </trkpt>
      <trkpt lat="47.70301" lon="-2.31049">
        <ele>75.5</ele>
        <time>2021-05-27T12:39:27Z</time>
      </trkpt>
      <trkpt lat="47.703" lon="-2.31041">
        <ele>75.5</ele>
        <time>2021-05-27T12:39:28Z</time>
      </trkpt>
      <trkpt lat="47.70301" lon="-2.31034">
        <ele>75.5</ele>
        <time>2021-05-27T12:39:29Z</time>
      </trkpt>
      <trkpt lat="47.70301" lon="-2.31028">
        <ele>75.5</ele>
        <time>2021-05-27T12:39:30Z</time>
      </trkpt>
      <trkpt lat="47.70301" lon="-2.31022">
        <ele>75.6</ele>
        <time>2021-05-27T12:39:31Z</time>
      </trkpt>
      <trkpt lat="47.70302" lon="-2.31016">
        <ele>75.6</ele>
        <time>2021-05-27T12:39:32Z</time>
      </trkpt>
      <trkpt lat="47.70302" lon="-2.3101">
        <ele>75.6</ele>
        <time>2021-05-27T12:39:33Z</time>
      </trkpt>
      <trkpt lat="47.70301" lon="-2.31005">
        <ele>75.6</ele>
        <time>2021-05-27T12:39:34Z</time>
      </trkpt>
      <trkpt lat="47.70301" lon="-2.31001">
        <ele>75.6</ele>
        <time>2021-05-27T12:39:35Z</time>
      </trkpt>
      <trkpt lat="47.70302" lon="-2.30995">
        <ele>75.5</ele>
        <time>2021-05-27T12:39:36Z</time>
      </trkpt>
      <trkpt lat="47.70302" lon="-2.30989">
        <ele>75.2</ele>
        <time>2021-05-27T12:39:37Z</time>
      </trkpt>
      <trkpt lat="47.70303" lon="-2.30983">
        <ele>75.1</ele>
        <time>2021-05-27T12:39:38Z</time>
      </trkpt>
      <trkpt lat="47.70305" lon="-2.30977">
        <ele>74.8</ele>
        <time>2021-05-27T12:39:39Z</time>
      </trkpt>
      <trkpt lat="47.70306" lon="-2.30971">
        <ele>74.6</ele>
        <time>2021-05-27T12:39:40Z</time>
      </trkpt>
      <trkpt lat="47.70308" lon="-2.30966">
        <ele>74.4</ele>
        <time>2021-05-27T12:39:41Z</time>
      </trkpt>
      <trkpt lat="47.70309" lon="-2.30962">
        <ele>74.3</ele>
        <time>2021-05-27T12:39:42Z</time>
      </trkpt>
      <trkpt lat="47.70311" lon="-2.30957">
        <ele>74.1</ele>
        <time>2021-05-27T12:39:43Z</time>
      </trkpt>
      <trkpt lat="47.70311" lon="-2.30952">
        <ele>73.9</ele>
        <time>2021-05-27T12:39:44Z</time>
      </trkpt>
      <trkpt lat="47.70311" lon="-2.30948">
        <ele>73.7</ele>
        <time>2021-05-27T12:39:45Z</time>
      </trkpt>
      <trkpt lat="47.70311" lon="-2.30943">
        <ele>73.6</ele>
        <time>2021-05-27T12:39:46Z</time>
      </trkpt>
      <trkpt lat="47.70311" lon="-2.30938">
        <ele>73.3</ele>
        <time>2021-05-27T12:39:47Z</time>
      </trkpt>
      <trkpt lat="47.70311" lon="-2.30932">
        <ele>73.1</ele>
        <time>2021-05-27T12:39:48Z</time>
      </trkpt>
      <trkpt lat="47.70311" lon="-2.30928">
        <ele>73</ele>
        <time>2021-05-27T12:39:49Z</time>
      </trkpt>
      <trkpt lat="47.70312" lon="-2.30923">
        <ele>72.8</ele>
        <time>2021-05-27T12:39:50Z</time>
      </trkpt>
      <trkpt lat="47.70312" lon="-2.30917">
        <ele>72.5</ele>
        <time>2021-05-27T12:39:51Z</time>
      </trkpt>
      <trkpt lat="47.70314" lon="-2.30912">
        <ele>72.4</ele>
        <time>2021-05-27T12:39:52Z</time>
      </trkpt>
      <trkpt lat="47.70315" lon="-2.30906">
        <ele>72.4</ele>
        <time>2021-05-27T12:39:53Z</time>
      </trkpt>
      <trkpt lat="47.70315" lon="-2.309">
        <ele>72.4</ele>
        <time>2021-05-27T12:39:54Z</time>
      </trkpt>
      <trkpt lat="47.70315" lon="-2.30894">
        <ele>72.4</ele>
        <time>2021-05-27T12:39:55Z</time>
      </trkpt>
      <trkpt lat="47.70314" lon="-2.30888">
        <ele>72.4</ele>
        <time>2021-05-27T12:39:56Z</time>
      </trkpt>
      <trkpt lat="47.70312" lon="-2.30883">
        <ele>72.4</ele>
        <time>2021-05-27T12:39:57Z</time>
      </trkpt>
      <trkpt lat="47.70312" lon="-2.30879">
        <ele>72.4</ele>
        <time>2021-05-27T12:39:58Z</time>
      </trkpt>
      <trkpt lat="47.70311" lon="-2.30875">
        <ele>72.4</ele>
        <time>2021-05-27T12:39:59Z</time>
      </trkpt>
      <trkpt lat="47.70311" lon="-2.30871">
        <ele>72.4</ele>
        <time>2021-05-27T12:40:00Z</time>
      </trkpt>
      <trkpt lat="47.7031" lon="-2.30868">
        <ele>72.4</ele>
        <time>2021-05-27T12:40:01Z</time>
      </trkpt>
      <trkpt lat="47.70308" lon="-2.30866">
        <ele>72.4</ele>
        <time>2021-05-27T12:40:02Z</time>
      </trkpt>
      <trkpt lat="47.70307" lon="-2.30864">
        <ele>72.4</ele>
        <time>2021-05-27T12:40:03Z</time>
      </trkpt>
      <trkpt lat="47.70305" lon="-2.30864">
        <ele>72.5</ele>
        <time>2021-05-27T12:40:04Z</time>
      </trkpt>
      <trkpt lat="47.70302" lon="-2.30863">
        <ele>72.5</ele>
        <time>2021-05-27T12:40:05Z</time>
      </trkpt>
      <trkpt lat="47.703" lon="-2.30863">
        <ele>72.5</ele>
        <time>2021-05-27T12:40:06Z</time>
      </trkpt>
      <trkpt lat="47.70298" lon="-2.30864">
        <ele>72.6</ele>
        <time>2021-05-27T12:40:07Z</time>
      </trkpt>
      <trkpt lat="47.70296" lon="-2.30865">
        <ele>72.6</ele>
        <time>2021-05-27T12:40:08Z</time>
      </trkpt>
      <trkpt lat="47.70295" lon="-2.30866">
        <ele>72.6</ele>
        <time>2021-05-27T12:40:09Z</time>
      </trkpt>
      <trkpt lat="47.70292" lon="-2.30867">
        <ele>72.7</ele>
        <time>2021-05-27T12:40:10Z</time>
      </trkpt>
      <trkpt lat="47.7029" lon="-2.30867">
        <ele>72.7</ele>
        <time>2021-05-27T12:40:11Z</time>
      </trkpt>
      <trkpt lat="47.70288" lon="-2.30866">
        <ele>72.8</ele>
        <time>2021-05-27T12:40:12Z</time>
      </trkpt>
      <trkpt lat="47.70287" lon="-2.30864">
        <ele>72.8</ele>
        <time>2021-05-27T12:40:13Z</time>
      </trkpt>
      <trkpt lat="47.70286" lon="-2.3086">
        <ele>72.8</ele>
        <time>2021-05-27T12:40:14Z</time>
      </trkpt>
      <trkpt lat="47.70285" lon="-2.30856">
        <ele>72.7</ele>
        <time>2021-05-27T12:40:15Z</time>
      </trkpt>
      <trkpt lat="47.70286" lon="-2.30853">
        <ele>72.7</ele>
        <time>2021-05-27T12:40:16Z</time>
      </trkpt>
      <trkpt lat="47.70288" lon="-2.30849">
        <ele>72.7</ele>
        <time>2021-05-27T12:40:17Z</time>
      </trkpt>
      <trkpt lat="47.7029" lon="-2.30845">
        <ele>72.6</ele>
        <time>2021-05-27T12:40:18Z</time>
      </trkpt>
      <trkpt lat="47.70291" lon="-2.3084">
        <ele>72.6</ele>
        <time>2021-05-27T12:40:19Z</time>
      </trkpt>
      <trkpt lat="47.70291" lon="-2.30836">
        <ele>72.5</ele>
        <time>2021-05-27T12:40:20Z</time>
      </trkpt>
      <trkpt lat="47.70291" lon="-2.30831">
        <ele>72.5</ele>
        <time>2021-05-27T12:40:21Z</time>
      </trkpt>
      <trkpt lat="47.7029" lon="-2.30826">
        <ele>72.5</ele>
        <time>2021-05-27T12:40:22Z</time>
      </trkpt>
      <trkpt lat="47.70288" lon="-2.30823">
        <ele>72.5</ele>
        <time>2021-05-27T12:40:23Z</time>
      </trkpt>
      <trkpt lat="47.70287" lon="-2.30818">
        <ele>72.5</ele>
        <time>2021-05-27T12:40:24Z</time>
      </trkpt>
      <trkpt lat="47.70287" lon="-2.30813">
        <ele>72.5</ele>
        <time>2021-05-27T12:40:25Z</time>
      </trkpt>
      <trkpt lat="47.70287" lon="-2.30809">
        <ele>72.5</ele>
        <time>2021-05-27T12:40:26Z</time>
      </trkpt>
      <trkpt lat="47.70286" lon="-2.30805">
        <ele>72.5</ele>
        <time>2021-05-27T12:40:27Z</time>
      </trkpt>
      <trkpt lat="47.70286" lon="-2.308">
        <ele>72.4</ele>
        <time>2021-05-27T12:40:28Z</time>
      </trkpt>
      <trkpt lat="47.70287" lon="-2.30794">
        <ele>72.4</ele>
        <time>2021-05-27T12:40:29Z</time>
      </trkpt>
      <trkpt lat="47.70287" lon="-2.30789">
        <ele>72.4</ele>
        <time>2021-05-27T12:40:30Z</time>
      </trkpt>
      <trkpt lat="47.70286" lon="-2.30783">
        <ele>72.4</ele>
        <time>2021-05-27T12:40:31Z</time>
      </trkpt>
      <trkpt lat="47.70284" lon="-2.30777">
        <ele>72.5</ele>
        <time>2021-05-27T12:40:32Z</time>
      </trkpt>
      <trkpt lat="47.70283" lon="-2.30772">
        <ele>72.5</ele>
        <time>2021-05-27T12:40:33Z</time>
      </trkpt>
      <trkpt lat="47.70283" lon="-2.30768">
        <ele>72.4</ele>
        <time>2021-05-27T12:40:34Z</time>
      </trkpt>
      <trkpt lat="47.70283" lon="-2.30762">
        <ele>72.4</ele>
        <time>2021-05-27T12:40:35Z</time>
      </trkpt>
      <trkpt lat="47.70282" lon="-2.30757">
        <ele>72.5</ele>
        <time>2021-05-27T12:40:36Z</time>
      </trkpt>
      <trkpt lat="47.70281" lon="-2.30752">
        <ele>72.5</ele>
        <time>2021-05-27T12:40:37Z</time>
      </trkpt>
      <trkpt lat="47.70281" lon="-2.30747">
        <ele>72.5</ele>
        <time>2021-05-27T12:40:38Z</time>
      </trkpt>
      <trkpt lat="47.70281" lon="-2.30743">
        <ele>72.6</ele>
        <time>2021-05-27T12:40:39Z</time>
      </trkpt>
      <trkpt lat="47.70281" lon="-2.30738">
        <ele>72.7</ele>
        <time>2021-05-27T12:40:40Z</time>
      </trkpt>
      <trkpt lat="47.70281" lon="-2.30732">
        <ele>72.7</ele>
        <time>2021-05-27T12:40:41Z</time>
      </trkpt>
      <trkpt lat="47.7028" lon="-2.30726">
        <ele>72.8</ele>
        <time>2021-05-27T12:40:42Z</time>
      </trkpt>
      <trkpt lat="47.7028" lon="-2.3072">
        <ele>72.9</ele>
        <time>2021-05-27T12:40:43Z</time>
      </trkpt>
      <trkpt lat="47.7028" lon="-2.30714">
        <ele>73</ele>
        <time>2021-05-27T12:40:44Z</time>
      </trkpt>
      <trkpt lat="47.7028" lon="-2.30709">
        <ele>73</ele>
        <time>2021-05-27T12:40:45Z</time>
      </trkpt>
      <trkpt lat="47.70281" lon="-2.30705">
        <ele>73</ele>
        <time>2021-05-27T12:40:46Z</time>
      </trkpt>
      <trkpt lat="47.70282" lon="-2.30701">
        <ele>73</ele>
        <time>2021-05-27T12:40:47Z</time>
      </trkpt>
      <trkpt lat="47.70284" lon="-2.30698">
        <ele>72.9</ele>
        <time>2021-05-27T12:40:48Z</time>
      </trkpt>
      <trkpt lat="47.70286" lon="-2.30696">
        <ele>72.7</ele>
        <time>2021-05-27T12:40:49Z</time>
      </trkpt>
      <trkpt lat="47.7029" lon="-2.30694">
        <ele>72.5</ele>
        <time>2021-05-27T12:40:50Z</time>
      </trkpt>
      <trkpt lat="47.70292" lon="-2.30692">
        <ele>72.3</ele>
        <time>2021-05-27T12:40:51Z</time>
      </trkpt>
      <trkpt lat="47.70294" lon="-2.30688">
        <ele>72.2</ele>
        <time>2021-05-27T12:40:52Z</time>
      </trkpt>
      <trkpt lat="47.70295" lon="-2.30684">
        <ele>72.1</ele>
        <time>2021-05-27T12:40:53Z</time>
      </trkpt>
      <trkpt lat="47.70296" lon="-2.30679">
        <ele>72.1</ele>
        <time>2021-05-27T12:40:54Z</time>
      </trkpt>
      <trkpt lat="47.70297" lon="-2.30674">
        <ele>72.1</ele>
        <time>2021-05-27T12:40:55Z</time>
      </trkpt>
      <trkpt lat="47.70297" lon="-2.3067">
        <ele>72</ele>
        <time>2021-05-27T12:40:56Z</time>
      </trkpt>
      <trkpt lat="47.70299" lon="-2.30665">
        <ele>71.9</ele>
        <time>2021-05-27T12:40:57Z</time>
      </trkpt>
      <trkpt lat="47.70301" lon="-2.30659">
        <ele>72</ele>
        <time>2021-05-27T12:40:58Z</time>
      </trkpt>
      <trkpt lat="47.70301" lon="-2.30654">
        <ele>72.1</ele>
        <time>2021-05-27T12:40:59Z</time>
      </trkpt>
      <trkpt lat="47.703" lon="-2.30648">
        <ele>72.4</ele>
        <time>2021-05-27T12:41:00Z</time>
      </trkpt>
      <trkpt lat="47.70298" lon="-2.30643">
        <ele>72.7</ele>
        <time>2021-05-27T12:41:01Z</time>
      </trkpt>
      <trkpt lat="47.70296" lon="-2.30638">
        <ele>73</ele>
        <time>2021-05-27T12:41:02Z</time>
      </trkpt>
      <trkpt lat="47.70295" lon="-2.30632">
        <ele>73.3</ele>
        <time>2021-05-27T12:41:03Z</time>
      </trkpt>
      <trkpt lat="47.70293" lon="-2.30628">
        <ele>73.6</ele>
        <time>2021-05-27T12:41:04Z</time>
      </trkpt>
      <trkpt lat="47.70291" lon="-2.30623">
        <ele>73.9</ele>
        <time>2021-05-27T12:41:05Z</time>
      </trkpt>
      <trkpt lat="47.70288" lon="-2.30619">
        <ele>74.2</ele>
        <time>2021-05-27T12:41:06Z</time>
      </trkpt>
      <trkpt lat="47.70284" lon="-2.30617">
        <ele>74.6</ele>
        <time>2021-05-27T12:41:07Z</time>
      </trkpt>
      <trkpt lat="47.70281" lon="-2.30614">
        <ele>74.9</ele>
        <time>2021-05-27T12:41:08Z</time>
      </trkpt>
      <trkpt lat="47.70277" lon="-2.30613">
        <ele>75.3</ele>
        <time>2021-05-27T12:41:09Z</time>
      </trkpt>
      <trkpt lat="47.70273" lon="-2.30612">
        <ele>75.5</ele>
        <time>2021-05-27T12:41:10Z</time>
      </trkpt>
      <trkpt lat="47.7027" lon="-2.30613">
        <ele>75.8</ele>
        <time>2021-05-27T12:41:11Z</time>
      </trkpt>
      <trkpt lat="47.70266" lon="-2.30615">
        <ele>76</ele>
        <time>2021-05-27T12:41:12Z</time>
      </trkpt>
      <trkpt lat="47.70263" lon="-2.30617">
        <ele>76.2</ele>
        <time>2021-05-27T12:41:13Z</time>
      </trkpt>
      <trkpt lat="47.70259" lon="-2.30619">
        <ele>76.5</ele>
        <time>2021-05-27T12:41:14Z</time>
      </trkpt>
      <trkpt lat="47.70255" lon="-2.3062">
        <ele>76.7</ele>
        <time>2021-05-27T12:41:15Z</time>
      </trkpt>
      <trkpt lat="47.70252" lon="-2.3062">
        <ele>77</ele>
        <time>2021-05-27T12:41:16Z</time>
      </trkpt>
      <trkpt lat="47.70248" lon="-2.3062">
        <ele>77.1</ele>
        <time>2021-05-27T12:41:17Z</time>
      </trkpt>
      <trkpt lat="47.70245" lon="-2.30619">
        <ele>77.2</ele>
        <time>2021-05-27T12:41:18Z</time>
      </trkpt>
      <trkpt lat="47.70242" lon="-2.30615">
        <ele>77.3</ele>
        <time>2021-05-27T12:41:19Z</time>
      </trkpt>
      <trkpt lat="47.7024" lon="-2.30611">
        <ele>77.4</ele>
        <time>2021-05-27T12:41:20Z</time>
      </trkpt>
      <trkpt lat="47.70238" lon="-2.30606">
        <ele>77.5</ele>
        <time>2021-05-27T12:41:21Z</time>
      </trkpt>
      <trkpt lat="47.70236" lon="-2.30602">
        <ele>77.6</ele>
        <time>2021-05-27T12:41:22Z</time>
      </trkpt>
      <trkpt lat="47.70234" lon="-2.30598">
        <ele>77.7</ele>
        <time>2021-05-27T12:41:23Z</time>
      </trkpt>
      <trkpt lat="47.70232" lon="-2.30595">
        <ele>77.8</ele>
        <time>2021-05-27T12:41:24Z</time>
      </trkpt>
      <trkpt lat="47.70231" lon="-2.30591">
        <ele>77.8</ele>
        <time>2021-05-27T12:41:25Z</time>
      </trkpt>
      <trkpt lat="47.70231" lon="-2.30587">
        <ele>77.9</ele>
        <time>2021-05-27T12:41:26Z</time>
      </trkpt>
      <trkpt lat="47.70231" lon="-2.30584">
        <ele>78</ele>
        <time>2021-05-27T12:41:27Z</time>
      </trkpt>
      <trkpt lat="47.70232" lon="-2.3058">
        <ele>78</ele>
        <time>2021-05-27T12:41:28Z</time>
      </trkpt>
      <trkpt lat="47.70234" lon="-2.30577">
        <ele>77.9</ele>
        <time>2021-05-27T12:41:29Z</time>
      </trkpt>
      <trkpt lat="47.70236" lon="-2.30573">
        <ele>77.9</ele>
        <time>2021-05-27T12:41:30Z</time>
      </trkpt>
      <trkpt lat="47.70236" lon="-2.30568">
        <ele>77.8</ele>
        <time>2021-05-27T12:41:31Z</time>
      </trkpt>
      <trkpt lat="47.70236" lon="-2.30563">
        <ele>77.8</ele>
        <time>2021-05-27T12:41:32Z</time>
      </trkpt>
      <trkpt lat="47.70234" lon="-2.30558">
        <ele>77.7</ele>
        <time>2021-05-27T12:41:33Z</time>
      </trkpt>
      <trkpt lat="47.70233" lon="-2.30554">
        <ele>77.7</ele>
        <time>2021-05-27T12:41:34Z</time>
      </trkpt>
      <trkpt lat="47.70231" lon="-2.30553">
        <ele>77.6</ele>
        <time>2021-05-27T12:41:35Z</time>
      </trkpt>
      <trkpt lat="47.70229" lon="-2.30553">
        <ele>77.6</ele>
        <time>2021-05-27T12:41:36Z</time>
      </trkpt>
      <trkpt lat="47.70226" lon="-2.30553">
        <ele>77.6</ele>
        <time>2021-05-27T12:41:37Z</time>
      </trkpt>
      <trkpt lat="47.70224" lon="-2.3055">
        <ele>77.6</ele>
        <time>2021-05-27T12:41:38Z</time>
      </trkpt>
      <trkpt lat="47.70222" lon="-2.30547">
        <ele>77.6</ele>
        <time>2021-05-27T12:41:39Z</time>
      </trkpt>
      <trkpt lat="47.7022" lon="-2.30543">
        <ele>77.5</ele>
        <time>2021-05-27T12:41:40Z</time>
      </trkpt>
      <trkpt lat="47.70218" lon="-2.30538">
        <ele>77.5</ele>
        <time>2021-05-27T12:41:41Z</time>
      </trkpt>
      <trkpt lat="47.70217" lon="-2.30534">
        <ele>77.4</ele>
        <time>2021-05-27T12:41:42Z</time>
      </trkpt>
      <trkpt lat="47.70217" lon="-2.3053">
        <ele>77.4</ele>
        <time>2021-05-27T12:41:43Z</time>
      </trkpt>
      <trkpt lat="47.70217" lon="-2.30527">
        <ele>77.3</ele>
        <time>2021-05-27T12:41:44Z</time>
      </trkpt>
      <trkpt lat="47.70218" lon="-2.30521">
        <ele>77.3</ele>
        <time>2021-05-27T12:41:45Z</time>
      </trkpt>
      <trkpt lat="47.70218" lon="-2.30515">
        <ele>77.2</ele>
        <time>2021-05-27T12:41:46Z</time>
      </trkpt>
      <trkpt lat="47.70219" lon="-2.3051">
        <ele>77.1</ele>
        <time>2021-05-27T12:41:47Z</time>
      </trkpt>
      <trkpt lat="47.70222" lon="-2.30507">
        <ele>77.1</ele>
        <time>2021-05-27T12:41:48Z</time>
      </trkpt>
      <trkpt lat="47.70224" lon="-2.30503">
        <ele>77</ele>
        <time>2021-05-27T12:41:49Z</time>
      </trkpt>
      <trkpt lat="47.70226" lon="-2.30499">
        <ele>77</ele>
        <time>2021-05-27T12:41:50Z</time>
      </trkpt>
      <trkpt lat="47.70229" lon="-2.30496">
        <ele>77</ele>
        <time>2021-05-27T12:41:51Z</time>
      </trkpt>
      <trkpt lat="47.70232" lon="-2.30494">
        <ele>77</ele>
        <time>2021-05-27T12:41:52Z</time>
      </trkpt>
      <trkpt lat="47.70235" lon="-2.30493">
        <ele>77</ele>
        <time>2021-05-27T12:41:53Z</time>
      </trkpt>
      <trkpt lat="47.70238" lon="-2.30491">
        <ele>77</ele>
        <time>2021-05-27T12:41:54Z</time>
      </trkpt>
      <trkpt lat="47.70242" lon="-2.3049">
        <ele>77</ele>
        <time>2021-05-27T12:41:55Z</time>
      </trkpt>
      <trkpt lat="47.70245" lon="-2.30489">
        <ele>77</ele>
        <time>2021-05-27T12:41:56Z</time>
      </trkpt>
      <trkpt lat="47.70248" lon="-2.3049">
        <ele>77</ele>
        <time>2021-05-27T12:41:57Z</time>
      </trkpt>
      <trkpt lat="47.7025" lon="-2.30491">
        <ele>77</ele>
        <time>2021-05-27T12:41:58Z</time>
      </trkpt>
      <trkpt lat="47.70252" lon="-2.30493">
        <ele>76.9</ele>
        <time>2021-05-27T12:41:59Z</time>
      </trkpt>
      <trkpt lat="47.70254" lon="-2.30495">
        <ele>76.9</ele>
        <time>2021-05-27T12:42:00Z</time>
      </trkpt>
      <trkpt lat="47.70255" lon="-2.30498">
        <ele>76.8</ele>
        <time>2021-05-27T12:42:01Z</time>
      </trkpt>
      <trkpt lat="47.70255" lon="-2.30501">
        <ele>76.8</ele>
        <time>2021-05-27T12:42:02Z</time>
      </trkpt>
      <trkpt lat="47.70257" lon="-2.30504">
        <ele>76.8</ele>
        <time>2021-05-27T12:42:03Z</time>
      </trkpt>
      <trkpt lat="47.70259" lon="-2.30508">
        <ele>76.7</ele>
        <time>2021-05-27T12:42:04Z</time>
      </trkpt>
      <trkpt lat="47.70261" lon="-2.3051">
        <ele>76.7</ele>
        <time>2021-05-27T12:42:05Z</time>
      </trkpt>
      <trkpt lat="47.70263" lon="-2.30513">
        <ele>76.6</ele>
        <time>2021-05-27T12:42:06Z</time>
      </trkpt>
      <trkpt lat="47.70265" lon="-2.30514">
        <ele>76.6</ele>
        <time>2021-05-27T12:42:07Z</time>
      </trkpt>
      <trkpt lat="47.70266" lon="-2.30512">
        <ele>76.5</ele>
        <time>2021-05-27T12:42:08Z</time>
      </trkpt>
      <trkpt lat="47.70268" lon="-2.30509">
        <ele>76.4</ele>
        <time>2021-05-27T12:42:09Z</time>
      </trkpt>
      <trkpt lat="47.7027" lon="-2.30505">
        <ele>76.3</ele>
        <time>2021-05-27T12:42:10Z</time>
      </trkpt>
      <trkpt lat="47.70271" lon="-2.30499">
        <ele>76.3</ele>
        <time>2021-05-27T12:42:11Z</time>
      </trkpt>
      <trkpt lat="47.70272" lon="-2.30493">
        <ele>76.2</ele>
        <time>2021-05-27T12:42:12Z</time>
      </trkpt>
      <trkpt lat="47.70272" lon="-2.30487">
        <ele>76.2</ele>
        <time>2021-05-27T12:42:13Z</time>
      </trkpt>
      <trkpt lat="47.70272" lon="-2.3048">
        <ele>76.3</ele>
        <time>2021-05-27T12:42:14Z</time>
      </trkpt>
      <trkpt lat="47.70272" lon="-2.30474">
        <ele>76.3</ele>
        <time>2021-05-27T12:42:15Z</time>
      </trkpt>
      <trkpt lat="47.70271" lon="-2.30468">
        <ele>76.3</ele>
        <time>2021-05-27T12:42:16Z</time>
      </trkpt>
      <trkpt lat="47.70269" lon="-2.30462">
        <ele>76.4</ele>
        <time>2021-05-27T12:42:17Z</time>
      </trkpt>
      <trkpt lat="47.70269" lon="-2.30457">
        <ele>76.4</ele>
        <time>2021-05-27T12:42:18Z</time>
      </trkpt>
      <trkpt lat="47.70268" lon="-2.30452">
        <ele>76.5</ele>
        <time>2021-05-27T12:42:19Z</time>
      </trkpt>
      <trkpt lat="47.70267" lon="-2.30446">
        <ele>76.5</ele>
        <time>2021-05-27T12:42:20Z</time>
      </trkpt>
      <trkpt lat="47.70264" lon="-2.30442">
        <ele>76.6</ele>
        <time>2021-05-27T12:42:21Z</time>
      </trkpt>
      <trkpt lat="47.70263" lon="-2.30436">
        <ele>76.7</ele>
        <time>2021-05-27T12:42:22Z</time>
      </trkpt>
      <trkpt lat="47.70263" lon="-2.30431">
        <ele>76.7</ele>
        <time>2021-05-27T12:42:23Z</time>
      </trkpt>
      <trkpt lat="47.70263" lon="-2.30425">
        <ele>76.7</ele>
        <time>2021-05-27T12:42:24Z</time>
      </trkpt>
      <trkpt lat="47.70263" lon="-2.3042">
        <ele>76.7</ele>
        <time>2021-05-27T12:42:25Z</time>
      </trkpt>
      <trkpt lat="47.70263" lon="-2.30414">
        <ele>76.6</ele>
        <time>2021-05-27T12:42:26Z</time>
      </trkpt>
      <trkpt lat="47.70264" lon="-2.30409">
        <ele>76.6</ele>
        <time>2021-05-27T12:42:27Z</time>
      </trkpt>
      <trkpt lat="47.70263" lon="-2.30404">
        <ele>76.5</ele>
        <time>2021-05-27T12:42:28Z</time>
      </trkpt>
      <trkpt lat="47.70262" lon="-2.30399">
        <ele>76.5</ele>
        <time>2021-05-27T12:42:29Z</time>
      </trkpt>
      <trkpt lat="47.70262" lon="-2.30395">
        <ele>76.4</ele>
        <time>2021-05-27T12:42:30Z</time>
      </trkpt>
      <trkpt lat="47.70261" lon="-2.3039">
        <ele>76.4</ele>
        <time>2021-05-27T12:42:31Z</time>
      </trkpt>
      <trkpt lat="47.70261" lon="-2.30384">
        <ele>76.3</ele>
        <time>2021-05-27T12:42:32Z</time>
      </trkpt>
      <trkpt lat="47.70262" lon="-2.30379">
        <ele>76.2</ele>
        <time>2021-05-27T12:42:33Z</time>
      </trkpt>
      <trkpt lat="47.70263" lon="-2.30374">
        <ele>76.1</ele>
        <time>2021-05-27T12:42:34Z</time>
      </trkpt>
      <trkpt lat="47.70263" lon="-2.30368">
        <ele>76</ele>
        <time>2021-05-27T12:42:35Z</time>
      </trkpt>
      <trkpt lat="47.70263" lon="-2.30363">
        <ele>75.9</ele>
        <time>2021-05-27T12:42:36Z</time>
      </trkpt>
      <trkpt lat="47.70265" lon="-2.30357">
        <ele>75.8</ele>
        <time>2021-05-27T12:42:37Z</time>
      </trkpt>
      <trkpt lat="47.70266" lon="-2.30351">
        <ele>75.7</ele>
        <time>2021-05-27T12:42:38Z</time>
      </trkpt>
      <trkpt lat="47.70267" lon="-2.30346">
        <ele>75.6</ele>
        <time>2021-05-27T12:42:39Z</time>
      </trkpt>
      <trkpt lat="47.70269" lon="-2.30341">
        <ele>75.4</ele>
        <time>2021-05-27T12:42:40Z</time>
      </trkpt>
      <trkpt lat="47.70273" lon="-2.30338">
        <ele>75.2</ele>
        <time>2021-05-27T12:42:41Z</time>
      </trkpt>
      <trkpt lat="47.70277" lon="-2.30337">
        <ele>75.1</ele>
        <time>2021-05-27T12:42:42Z</time>
      </trkpt>
      <trkpt lat="47.70281" lon="-2.30336">
        <ele>74.9</ele>
        <time>2021-05-27T12:42:43Z</time>
      </trkpt>
      <trkpt lat="47.70285" lon="-2.30334">
        <ele>74.8</ele>
        <time>2021-05-27T12:42:44Z</time>
      </trkpt>
      <trkpt lat="47.70288" lon="-2.30331">
        <ele>74.5</ele>
        <time>2021-05-27T12:42:45Z</time>
      </trkpt>
      <trkpt lat="47.70291" lon="-2.30327">
        <ele>74.1</ele>
        <time>2021-05-27T12:42:46Z</time>
      </trkpt>
      <trkpt lat="47.70295" lon="-2.30322">
        <ele>73.7</ele>
        <time>2021-05-27T12:42:47Z</time>
      </trkpt>
      <trkpt lat="47.70298" lon="-2.3032">
        <ele>73.4</ele>
        <time>2021-05-27T12:42:48Z</time>
      </trkpt>
      <trkpt lat="47.70301" lon="-2.30317">
        <ele>73.1</ele>
        <time>2021-05-27T12:42:49Z</time>
      </trkpt>
      <trkpt lat="47.70303" lon="-2.30314">
        <ele>72.8</ele>
        <time>2021-05-27T12:42:50Z</time>
      </trkpt>
      <trkpt lat="47.70305" lon="-2.30311">
        <ele>72.5</ele>
        <time>2021-05-27T12:42:51Z</time>
      </trkpt>
      <trkpt lat="47.70305" lon="-2.30306">
        <ele>72.1</ele>
        <time>2021-05-27T12:42:52Z</time>
      </trkpt>
      <trkpt lat="47.70305" lon="-2.30301">
        <ele>71.8</ele>
        <time>2021-05-27T12:42:53Z</time>
      </trkpt>
      <trkpt lat="47.70305" lon="-2.30296">
        <ele>71.5</ele>
        <time>2021-05-27T12:42:54Z</time>
      </trkpt>
      <trkpt lat="47.70302" lon="-2.30291">
        <ele>71.3</ele>
        <time>2021-05-27T12:42:55Z</time>
      </trkpt>
      <trkpt lat="47.703" lon="-2.30288">
        <ele>71.3</ele>
        <time>2021-05-27T12:42:56Z</time>
      </trkpt>
      <trkpt lat="47.70297" lon="-2.30285">
        <ele>71.3</ele>
        <time>2021-05-27T12:42:57Z</time>
      </trkpt>
      <trkpt lat="47.70295" lon="-2.30284">
        <ele>71.3</ele>
        <time>2021-05-27T12:42:58Z</time>
      </trkpt>
      <trkpt lat="47.70293" lon="-2.30282">
        <ele>71.3</ele>
        <time>2021-05-27T12:42:59Z</time>
      </trkpt>
      <trkpt lat="47.70291" lon="-2.3028">
        <ele>71.3</ele>
        <time>2021-05-27T12:43:00Z</time>
      </trkpt>
      <trkpt lat="47.70288" lon="-2.30277">
        <ele>71.4</ele>
        <time>2021-05-27T12:43:01Z</time>
      </trkpt>
      <trkpt lat="47.70287" lon="-2.30276">
        <ele>71.4</ele>
        <time>2021-05-27T12:43:02Z</time>
      </trkpt>
      <trkpt lat="47.70284" lon="-2.30276">
        <ele>71.6</ele>
        <time>2021-05-27T12:43:03Z</time>
      </trkpt>
      <trkpt lat="47.70282" lon="-2.30276">
        <ele>71.8</ele>
        <time>2021-05-27T12:43:04Z</time>
      </trkpt>
      <trkpt lat="47.7028" lon="-2.30276">
        <ele>71.9</ele>
        <time>2021-05-27T12:43:05Z</time>
      </trkpt>
      <trkpt lat="47.70278" lon="-2.30276">
        <ele>72</ele>
        <time>2021-05-27T12:43:06Z</time>
      </trkpt>
      <trkpt lat="47.70277" lon="-2.30276">
        <ele>72.1</ele>
        <time>2021-05-27T12:43:07Z</time>
      </trkpt>
      <trkpt lat="47.70275" lon="-2.30276">
        <ele>72.2</ele>
        <time>2021-05-27T12:43:08Z</time>
      </trkpt>
      <trkpt lat="47.70274" lon="-2.30276">
        <ele>72.3</ele>
        <time>2021-05-27T12:43:09Z</time>
      </trkpt>
      <trkpt lat="47.70273" lon="-2.30277">
        <ele>72.4</ele>
        <time>2021-05-27T12:43:10Z</time>
      </trkpt>
      <trkpt lat="47.70272" lon="-2.30278">
        <ele>72.5</ele>
        <time>2021-05-27T12:43:11Z</time>
      </trkpt>
      <trkpt lat="47.70271" lon="-2.3028">
        <ele>72.7</ele>
        <time>2021-05-27T12:43:12Z</time>
      </trkpt>
      <trkpt lat="47.7027" lon="-2.30282">
        <ele>72.8</ele>
        <time>2021-05-27T12:43:13Z</time>
      </trkpt>
      <trkpt lat="47.70268" lon="-2.30283">
        <ele>73</ele>
        <time>2021-05-27T12:43:14Z</time>
      </trkpt>
      <trkpt lat="47.70267" lon="-2.30283">
        <ele>73.1</ele>
        <time>2021-05-27T12:43:15Z</time>
      </trkpt>
      <trkpt lat="47.70265" lon="-2.30282">
        <ele>73.1</ele>
        <time>2021-05-27T12:43:16Z</time>
      </trkpt>
      <trkpt lat="47.70263" lon="-2.30281">
        <ele>73.2</ele>
        <time>2021-05-27T12:43:17Z</time>
      </trkpt>
      <trkpt lat="47.70262" lon="-2.30281">
        <ele>73.3</ele>
        <time>2021-05-27T12:43:18Z</time>
      </trkpt>
      <trkpt lat="47.70261" lon="-2.30281">
        <ele>73.4</ele>
        <time>2021-05-27T12:43:19Z</time>
      </trkpt>
      <trkpt lat="47.70259" lon="-2.3028">
        <ele>73.5</ele>
        <time>2021-05-27T12:43:20Z</time>
      </trkpt>
      <trkpt lat="47.70258" lon="-2.3028">
        <ele>73.6</ele>
        <time>2021-05-27T12:43:21Z</time>
      </trkpt>
      <trkpt lat="47.70257" lon="-2.30279">
        <ele>73.6</ele>
        <time>2021-05-27T12:43:22Z</time>
      </trkpt>
      <trkpt lat="47.70257" lon="-2.30279">
        <ele>73.6</ele>
        <time>2021-05-27T12:43:23Z</time>
      </trkpt>
      <trkpt lat="47.70257" lon="-2.30279">
        <ele>73.6</ele>
        <time>2021-05-27T12:43:24Z</time>
      </trkpt>
      <trkpt lat="47.70257" lon="-2.30279">
        <ele>73.6</ele>
        <time>2021-05-27T12:43:25Z</time>
      </trkpt>
      <trkpt lat="47.70257" lon="-2.30279">
        <ele>73.6</ele>
        <time>2021-05-27T12:43:26Z</time>
      </trkpt>
      <trkpt lat="47.70257" lon="-2.30279">
        <ele>73.6</ele>
        <time>2021-05-27T12:43:27Z</time>
      </trkpt>
      <trkpt lat="47.70257" lon="-2.30279">
        <ele>73.6</ele>
        <time>2021-05-27T12:43:28Z</time>
      </trkpt>
      <trkpt lat="47.70257" lon="-2.30279">
        <ele>73.6</ele>
        <time>2021-05-27T12:43:29Z</time>
      </trkpt>
      <trkpt lat="47.70255" lon="-2.30281">
        <ele>73.8</ele>
        <time>2021-05-27T12:43:30Z</time>
      </trkpt>
      <trkpt lat="47.70252" lon="-2.30283">
        <ele>74.1</ele>
        <time>2021-05-27T12:43:31Z</time>
      </trkpt>
      <trkpt lat="47.7025" lon="-2.30286">
        <ele>74.3</ele>
        <time>2021-05-27T12:43:32Z</time>
      </trkpt>
      <trkpt lat="47.70247" lon="-2.30288">
        <ele>74.4</ele>
        <time>2021-05-27T12:43:33Z</time>
      </trkpt>
      <trkpt lat="47.70244" lon="-2.30291">
        <ele>74.5</ele>
        <time>2021-05-27T12:43:34Z</time>
      </trkpt>
      <trkpt lat="47.70243" lon="-2.30294">
        <ele>74.5</ele>
        <time>2021-05-27T12:43:35Z</time>
      </trkpt>
      <trkpt lat="47.70241" lon="-2.30297">
        <ele>74.6</ele>
        <time>2021-05-27T12:43:36Z</time>
      </trkpt>
      <trkpt lat="47.70239" lon="-2.303">
        <ele>74.7</ele>
        <time>2021-05-27T12:43:37Z</time>
      </trkpt>
      <trkpt lat="47.70238" lon="-2.30302">
        <ele>74.8</ele>
        <time>2021-05-27T12:43:38Z</time>
      </trkpt>
      <trkpt lat="47.70236" lon="-2.30305">
        <ele>74.9</ele>
        <time>2021-05-27T12:43:39Z</time>
      </trkpt>
      <trkpt lat="47.70235" lon="-2.30308">
        <ele>75</ele>
        <time>2021-05-27T12:43:40Z</time>
      </trkpt>
      <trkpt lat="47.70234" lon="-2.30312">
        <ele>75.1</ele>
        <time>2021-05-27T12:43:41Z</time>
      </trkpt>
      <trkpt lat="47.70233" lon="-2.30316">
        <ele>75.2</ele>
        <time>2021-05-27T12:43:42Z</time>
      </trkpt>
      <trkpt lat="47.70231" lon="-2.30318">
        <ele>75.3</ele>
        <time>2021-05-27T12:43:43Z</time>
      </trkpt>
      <trkpt lat="47.7023" lon="-2.3032">
        <ele>75.3</ele>
        <time>2021-05-27T12:43:44Z</time>
      </trkpt>
      <trkpt lat="47.70227" lon="-2.30321">
        <ele>75.3</ele>
        <time>2021-05-27T12:43:45Z</time>
      </trkpt>
      <trkpt lat="47.70225" lon="-2.30322">
        <ele>75.3</ele>
        <time>2021-05-27T12:43:46Z</time>
      </trkpt>
      <trkpt lat="47.70223" lon="-2.30326">
        <ele>75.4</ele>
        <time>2021-05-27T12:43:47Z</time>
      </trkpt>
      <trkpt lat="47.7022" lon="-2.30333">
        <ele>75.6</ele>
        <time>2021-05-27T12:43:48Z</time>
      </trkpt>
      <trkpt lat="47.7022" lon="-2.30339">
        <ele>75.7</ele>
        <time>2021-05-27T12:43:49Z</time>
      </trkpt>
      <trkpt lat="47.70219" lon="-2.30344">
        <ele>75.7</ele>
        <time>2021-05-27T12:43:50Z</time>
      </trkpt>
      <trkpt lat="47.70218" lon="-2.30348">
        <ele>75.7</ele>
        <time>2021-05-27T12:43:51Z</time>
      </trkpt>
      <trkpt lat="47.70218" lon="-2.30353">
        <ele>75.8</ele>
        <time>2021-05-27T12:43:52Z</time>
      </trkpt>
      <trkpt lat="47.70218" lon="-2.30358">
        <ele>75.8</ele>
        <time>2021-05-27T12:43:53Z</time>
      </trkpt>
      <trkpt lat="47.70218" lon="-2.30363">
        <ele>75.8</ele>
        <time>2021-05-27T12:43:54Z</time>
      </trkpt>
      <trkpt lat="47.70217" lon="-2.30367">
        <ele>75.8</ele>
        <time>2021-05-27T12:43:55Z</time>
      </trkpt>
      <trkpt lat="47.70215" lon="-2.3037">
        <ele>75.8</ele>
        <time>2021-05-27T12:43:56Z</time>
      </trkpt>
      <trkpt lat="47.70214" lon="-2.30374">
        <ele>75.8</ele>
        <time>2021-05-27T12:43:57Z</time>
      </trkpt>
      <trkpt lat="47.70212" lon="-2.30379">
        <ele>75.8</ele>
        <time>2021-05-27T12:43:58Z</time>
      </trkpt>
      <trkpt lat="47.7021" lon="-2.30382">
        <ele>75.8</ele>
        <time>2021-05-27T12:43:59Z</time>
      </trkpt>
      <trkpt lat="47.70208" lon="-2.30385">
        <ele>75.8</ele>
        <time>2021-05-27T12:44:00Z</time>
      </trkpt>
      <trkpt lat="47.70206" lon="-2.30387">
        <ele>75.8</ele>
        <time>2021-05-27T12:44:01Z</time>
      </trkpt>
      <trkpt lat="47.70203" lon="-2.30389">
        <ele>75.7</ele>
        <time>2021-05-27T12:44:02Z</time>
      </trkpt>
      <trkpt lat="47.70199" lon="-2.30391">
        <ele>75.6</ele>
        <time>2021-05-27T12:44:03Z</time>
      </trkpt>
      <trkpt lat="47.70196" lon="-2.30392">
        <ele>75.6</ele>
        <time>2021-05-27T12:44:04Z</time>
      </trkpt>
      <trkpt lat="47.70193" lon="-2.30393">
        <ele>75.5</ele>
        <time>2021-05-27T12:44:05Z</time>
      </trkpt>
      <trkpt lat="47.70191" lon="-2.30395">
        <ele>75.5</ele>
        <time>2021-05-27T12:44:06Z</time>
      </trkpt>
      <trkpt lat="47.70191" lon="-2.30395">
        <ele>75.5</ele>
        <time>2021-05-27T12:44:07Z</time>
      </trkpt>
      <trkpt lat="47.70191" lon="-2.30395">
        <ele>75.5</ele>
        <time>2021-05-27T12:44:08Z</time>
      </trkpt>
      <trkpt lat="47.70184" lon="-2.30397">
        <ele>75.4</ele>
        <time>2021-05-27T12:44:34Z</time>
      </trkpt>
      <trkpt lat="47.70184" lon="-2.30399">
        <ele>75.4</ele>
        <time>2021-05-27T12:44:35Z</time>
      </trkpt>
      <trkpt lat="47.70184" lon="-2.30402">
        <ele>75.4</ele>
        <time>2021-05-27T12:44:36Z</time>
      </trkpt>
      <trkpt lat="47.70184" lon="-2.30405">
        <ele>75.4</ele>
        <time>2021-05-27T12:44:37Z</time>
      </trkpt>
      <trkpt lat="47.70183" lon="-2.30409">
        <ele>75.4</ele>
        <time>2021-05-27T12:44:38Z</time>
      </trkpt>
      <trkpt lat="47.70181" lon="-2.30413">
        <ele>75.3</ele>
        <time>2021-05-27T12:44:39Z</time>
      </trkpt>
      <trkpt lat="47.70179" lon="-2.30419">
        <ele>75.3</ele>
        <time>2021-05-27T12:44:40Z</time>
      </trkpt>
      <trkpt lat="47.70177" lon="-2.30425">
        <ele>75.4</ele>
        <time>2021-05-27T12:44:41Z</time>
      </trkpt>
      <trkpt lat="47.70175" lon="-2.3043">
        <ele>75.5</ele>
        <time>2021-05-27T12:44:42Z</time>
      </trkpt>
      <trkpt lat="47.70173" lon="-2.30436">
        <ele>75.6</ele>
        <time>2021-05-27T12:44:43Z</time>
      </trkpt>
      <trkpt lat="47.70171" lon="-2.30442">
        <ele>75.7</ele>
        <time>2021-05-27T12:44:44Z</time>
      </trkpt>
      <trkpt lat="47.70169" lon="-2.30449">
        <ele>75.8</ele>
        <time>2021-05-27T12:44:45Z</time>
      </trkpt>
      <trkpt lat="47.70167" lon="-2.30455">
        <ele>75.9</ele>
        <time>2021-05-27T12:44:46Z</time>
      </trkpt>
      <trkpt lat="47.70164" lon="-2.30461">
        <ele>76</ele>
        <time>2021-05-27T12:44:47Z</time>
      </trkpt>
      <trkpt lat="47.70162" lon="-2.30468">
        <ele>76.2</ele>
        <time>2021-05-27T12:44:48Z</time>
      </trkpt>
      <trkpt lat="47.70158" lon="-2.30475">
        <ele>76.3</ele>
        <time>2021-05-27T12:44:49Z</time>
      </trkpt>
      <trkpt lat="47.70156" lon="-2.30482">
        <ele>76.5</ele>
        <time>2021-05-27T12:44:50Z</time>
      </trkpt>
      <trkpt lat="47.70153" lon="-2.3049">
        <ele>76.6</ele>
        <time>2021-05-27T12:44:51Z</time>
      </trkpt>
      <trkpt lat="47.70151" lon="-2.30498">
        <ele>76.8</ele>
        <time>2021-05-27T12:44:52Z</time>
      </trkpt>
      <trkpt lat="47.70149" lon="-2.30505">
        <ele>76.8</ele>
        <time>2021-05-27T12:44:53Z</time>
      </trkpt>
      <trkpt lat="47.70147" lon="-2.30513">
        <ele>76.9</ele>
        <time>2021-05-27T12:44:54Z</time>
      </trkpt>
      <trkpt lat="47.70145" lon="-2.30521">
        <ele>77</ele>
        <time>2021-05-27T12:44:55Z</time>
      </trkpt>
      <trkpt lat="47.70143" lon="-2.30528">
        <ele>77</ele>
        <time>2021-05-27T12:44:56Z</time>
      </trkpt>
      <trkpt lat="47.7014" lon="-2.30535">
        <ele>77.1</ele>
        <time>2021-05-27T12:44:57Z</time>
      </trkpt>
      <trkpt lat="47.70137" lon="-2.30543">
        <ele>77.2</ele>
        <time>2021-05-27T12:44:58Z</time>
      </trkpt>
      <trkpt lat="47.70135" lon="-2.3055">
        <ele>77.2</ele>
        <time>2021-05-27T12:44:59Z</time>
      </trkpt>
      <trkpt lat="47.70133" lon="-2.30557">
        <ele>77.3</ele>
        <time>2021-05-27T12:45:00Z</time>
      </trkpt>
      <trkpt lat="47.7013" lon="-2.30565">
        <ele>77.3</ele>
        <time>2021-05-27T12:45:01Z</time>
      </trkpt>
      <trkpt lat="47.70126" lon="-2.30573">
        <ele>77.4</ele>
        <time>2021-05-27T12:45:02Z</time>
      </trkpt>
      <trkpt lat="47.70123" lon="-2.3058">
        <ele>77.4</ele>
        <time>2021-05-27T12:45:03Z</time>
      </trkpt>
      <trkpt lat="47.70121" lon="-2.30588">
        <ele>77.4</ele>
        <time>2021-05-27T12:45:04Z</time>
      </trkpt>
      <trkpt lat="47.70118" lon="-2.30596">
        <ele>77.4</ele>
        <time>2021-05-27T12:45:05Z</time>
      </trkpt>
      <trkpt lat="47.70115" lon="-2.30604">
        <ele>77.3</ele>
        <time>2021-05-27T12:45:06Z</time>
      </trkpt>
      <trkpt lat="47.70112" lon="-2.30612">
        <ele>77.2</ele>
        <time>2021-05-27T12:45:07Z</time>
      </trkpt>
      <trkpt lat="47.70109" lon="-2.3062">
        <ele>77.2</ele>
        <time>2021-05-27T12:45:08Z</time>
      </trkpt>
      <trkpt lat="47.70107" lon="-2.30628">
        <ele>77.1</ele>
        <time>2021-05-27T12:45:09Z</time>
      </trkpt>
      <trkpt lat="47.70104" lon="-2.30636">
        <ele>77.1</ele>
        <time>2021-05-27T12:45:10Z</time>
      </trkpt>
      <trkpt lat="47.70102" lon="-2.30644">
        <ele>77.1</ele>
        <time>2021-05-27T12:45:11Z</time>
      </trkpt>
      <trkpt lat="47.70099" lon="-2.30652">
        <ele>77</ele>
        <time>2021-05-27T12:45:12Z</time>
      </trkpt>
      <trkpt lat="47.70096" lon="-2.3066">
        <ele>77</ele>
        <time>2021-05-27T12:45:13Z</time>
      </trkpt>
      <trkpt lat="47.70094" lon="-2.30667">
        <ele>77</ele>
        <time>2021-05-27T12:45:14Z</time>
      </trkpt>
      <trkpt lat="47.70091" lon="-2.30675">
        <ele>77.2</ele>
        <time>2021-05-27T12:45:15Z</time>
      </trkpt>
      <trkpt lat="47.70088" lon="-2.30682">
        <ele>77.4</ele>
        <time>2021-05-27T12:45:16Z</time>
      </trkpt>
      <trkpt lat="47.70085" lon="-2.30689">
        <ele>77.5</ele>
        <time>2021-05-27T12:45:17Z</time>
      </trkpt>
      <trkpt lat="47.70081" lon="-2.30695">
        <ele>77.5</ele>
        <time>2021-05-27T12:45:18Z</time>
      </trkpt>
      <trkpt lat="47.70078" lon="-2.30702">
        <ele>77.4</ele>
        <time>2021-05-27T12:45:19Z</time>
      </trkpt>
      <trkpt lat="47.70074" lon="-2.30707">
        <ele>77.2</ele>
        <time>2021-05-27T12:45:20Z</time>
      </trkpt>
      <trkpt lat="47.7007" lon="-2.30714">
        <ele>77.1</ele>
        <time>2021-05-27T12:45:21Z</time>
      </trkpt>
      <trkpt lat="47.70067" lon="-2.30721">
        <ele>77</ele>
        <time>2021-05-27T12:45:22Z</time>
      </trkpt>
      <trkpt lat="47.70064" lon="-2.30728">
        <ele>77</ele>
        <time>2021-05-27T12:45:23Z</time>
      </trkpt>
      <trkpt lat="47.70061" lon="-2.30732">
        <ele>76.9</ele>
        <time>2021-05-27T12:45:24Z</time>
      </trkpt>
      <trkpt lat="47.70058" lon="-2.30733">
        <ele>76.7</ele>
        <time>2021-05-27T12:45:25Z</time>
      </trkpt>
      <trkpt lat="47.70057" lon="-2.30731">
        <ele>76.6</ele>
        <time>2021-05-27T12:45:26Z</time>
      </trkpt>
      <trkpt lat="47.70057" lon="-2.30729">
        <ele>76.5</ele>
        <time>2021-05-27T12:45:27Z</time>
      </trkpt>
      <trkpt lat="47.70056" lon="-2.30726">
        <ele>76.4</ele>
        <time>2021-05-27T12:45:28Z</time>
      </trkpt>
      <trkpt lat="47.70056" lon="-2.30723">
        <ele>76.3</ele>
        <time>2021-05-27T12:45:29Z</time>
      </trkpt>
      <trkpt lat="47.70058" lon="-2.30719">
        <ele>76.3</ele>
        <time>2021-05-27T12:45:30Z</time>
      </trkpt>
      <trkpt lat="47.70059" lon="-2.30714">
        <ele>76.3</ele>
        <time>2021-05-27T12:45:31Z</time>
      </trkpt>
      <trkpt lat="47.7006" lon="-2.30709">
        <ele>76.2</ele>
        <time>2021-05-27T12:45:32Z</time>
      </trkpt>
      <trkpt lat="47.70062" lon="-2.30703">
        <ele>76.2</ele>
        <time>2021-05-27T12:45:33Z</time>
      </trkpt>
      <trkpt lat="47.70064" lon="-2.30698">
        <ele>76.2</ele>
        <time>2021-05-27T12:45:34Z</time>
      </trkpt>
      <trkpt lat="47.70065" lon="-2.30691">
        <ele>76.1</ele>
        <time>2021-05-27T12:45:35Z</time>
      </trkpt>
      <trkpt lat="47.70065" lon="-2.30683">
        <ele>75.9</ele>
        <time>2021-05-27T12:45:36Z</time>
      </trkpt>
      <trkpt lat="47.70066" lon="-2.30675">
        <ele>75.8</ele>
        <time>2021-05-27T12:45:37Z</time>
      </trkpt>
      <trkpt lat="47.70068" lon="-2.30668">
        <ele>75.8</ele>
        <time>2021-05-27T12:45:38Z</time>
      </trkpt>
      <trkpt lat="47.70069" lon="-2.30662">
        <ele>75.8</ele>
        <time>2021-05-27T12:45:39Z</time>
      </trkpt>
      <trkpt lat="47.7007" lon="-2.30655">
        <ele>75.9</ele>
        <time>2021-05-27T12:45:40Z</time>
      </trkpt>
      <trkpt lat="47.70072" lon="-2.3065">
        <ele>76.1</ele>
        <time>2021-05-27T12:45:41Z</time>
      </trkpt>
      <trkpt lat="47.70073" lon="-2.30645">
        <ele>76.2</ele>
        <time>2021-05-27T12:45:42Z</time>
      </trkpt>
      <trkpt lat="47.70074" lon="-2.3064">
        <ele>76.2</ele>
        <time>2021-05-27T12:45:43Z</time>
      </trkpt>
      <trkpt lat="47.70074" lon="-2.30635">
        <ele>76.3</ele>
        <time>2021-05-27T12:45:44Z</time>
      </trkpt>
      <trkpt lat="47.70075" lon="-2.30629">
        <ele>76.3</ele>
        <time>2021-05-27T12:45:45Z</time>
      </trkpt>
      <trkpt lat="47.70075" lon="-2.30622">
        <ele>76.4</ele>
        <time>2021-05-27T12:45:46Z</time>
      </trkpt>
      <trkpt lat="47.70075" lon="-2.30615">
        <ele>76.4</ele>
        <time>2021-05-27T12:45:47Z</time>
      </trkpt>
      <trkpt lat="47.70075" lon="-2.30608">
        <ele>76.4</ele>
        <time>2021-05-27T12:45:48Z</time>
      </trkpt>
      <trkpt lat="47.70075" lon="-2.30601">
        <ele>76.4</ele>
        <time>2021-05-27T12:45:49Z</time>
      </trkpt>
      <trkpt lat="47.70076" lon="-2.30594">
        <ele>76.4</ele>
        <time>2021-05-27T12:45:50Z</time>
      </trkpt>
      <trkpt lat="47.70076" lon="-2.30587">
        <ele>76.5</ele>
        <time>2021-05-27T12:45:51Z</time>
      </trkpt>
      <trkpt lat="47.70077" lon="-2.30581">
        <ele>76.5</ele>
        <time>2021-05-27T12:45:52Z</time>
      </trkpt>
      <trkpt lat="47.70077" lon="-2.30573">
        <ele>76.4</ele>
        <time>2021-05-27T12:45:53Z</time>
      </trkpt>
      <trkpt lat="47.70077" lon="-2.30564">
        <ele>76.4</ele>
        <time>2021-05-27T12:45:54Z</time>
      </trkpt>
      <trkpt lat="47.70077" lon="-2.30557">
        <ele>76.3</ele>
        <time>2021-05-27T12:45:55Z</time>
      </trkpt>
      <trkpt lat="47.70078" lon="-2.30549">
        <ele>76.2</ele>
        <time>2021-05-27T12:45:56Z</time>
      </trkpt>
      <trkpt lat="47.70078" lon="-2.30542">
        <ele>76.2</ele>
        <time>2021-05-27T12:45:57Z</time>
      </trkpt>
      <trkpt lat="47.70079" lon="-2.30535">
        <ele>76.2</ele>
        <time>2021-05-27T12:45:58Z</time>
      </trkpt>
      <trkpt lat="47.7008" lon="-2.30529">
        <ele>76.1</ele>
        <time>2021-05-27T12:45:59Z</time>
      </trkpt>
      <trkpt lat="47.70082" lon="-2.30523">
        <ele>76.2</ele>
        <time>2021-05-27T12:46:00Z</time>
      </trkpt>
      <trkpt lat="47.70083" lon="-2.30517">
        <ele>76.2</ele>
        <time>2021-05-27T12:46:01Z</time>
      </trkpt>
      <trkpt lat="47.70085" lon="-2.30511">
        <ele>76.1</ele>
        <time>2021-05-27T12:46:02Z</time>
      </trkpt>
      <trkpt lat="47.70088" lon="-2.30504">
        <ele>76.1</ele>
        <time>2021-05-27T12:46:03Z</time>
      </trkpt>
      <trkpt lat="47.7009" lon="-2.30497">
        <ele>76</ele>
        <time>2021-05-27T12:46:04Z</time>
      </trkpt>
      <trkpt lat="47.70091" lon="-2.30489">
        <ele>76</ele>
        <time>2021-05-27T12:46:05Z</time>
      </trkpt>
      <trkpt lat="47.70092" lon="-2.30481">
        <ele>75.9</ele>
        <time>2021-05-27T12:46:06Z</time>
      </trkpt>
      <trkpt lat="47.70094" lon="-2.30473">
        <ele>75.8</ele>
        <time>2021-05-27T12:46:07Z</time>
      </trkpt>
      <trkpt lat="47.70095" lon="-2.30464">
        <ele>75.6</ele>
        <time>2021-05-27T12:46:08Z</time>
      </trkpt>
      <trkpt lat="47.70096" lon="-2.30456">
        <ele>75.5</ele>
        <time>2021-05-27T12:46:09Z</time>
      </trkpt>
      <trkpt lat="47.70096" lon="-2.30449">
        <ele>75.4</ele>
        <time>2021-05-27T12:46:10Z</time>
      </trkpt>
      <trkpt lat="47.70096" lon="-2.30442">
        <ele>75.4</ele>
        <time>2021-05-27T12:46:11Z</time>
      </trkpt>
      <trkpt lat="47.70097" lon="-2.30436">
        <ele>75.3</ele>
        <time>2021-05-27T12:46:12Z</time>
      </trkpt>
      <trkpt lat="47.70097" lon="-2.3043">
        <ele>75.2</ele>
        <time>2021-05-27T12:46:13Z</time>
      </trkpt>
      <trkpt lat="47.70098" lon="-2.30426">
        <ele>75.1</ele>
        <time>2021-05-27T12:46:14Z</time>
      </trkpt>
      <trkpt lat="47.701" lon="-2.30422">
        <ele>75.1</ele>
        <time>2021-05-27T12:46:15Z</time>
      </trkpt>
      <trkpt lat="47.701" lon="-2.30417">
        <ele>75</ele>
        <time>2021-05-27T12:46:16Z</time>
      </trkpt>
      <trkpt lat="47.70102" lon="-2.30415">
        <ele>75</ele>
        <time>2021-05-27T12:46:17Z</time>
      </trkpt>
      <trkpt lat="47.70104" lon="-2.30412">
        <ele>74.9</ele>
        <time>2021-05-27T12:46:18Z</time>
      </trkpt>
      <trkpt lat="47.70106" lon="-2.30407">
        <ele>74.8</ele>
        <time>2021-05-27T12:46:19Z</time>
      </trkpt>
      <trkpt lat="47.70107" lon="-2.30401">
        <ele>74.6</ele>
        <time>2021-05-27T12:46:20Z</time>
      </trkpt>
      <trkpt lat="47.70106" lon="-2.30393">
        <ele>74.4</ele>
        <time>2021-05-27T12:46:21Z</time>
      </trkpt>
      <trkpt lat="47.70107" lon="-2.30385">
        <ele>74.2</ele>
        <time>2021-05-27T12:46:22Z</time>
      </trkpt>
      <trkpt lat="47.70108" lon="-2.30378">
        <ele>74</ele>
        <time>2021-05-27T12:46:23Z</time>
      </trkpt>
      <trkpt lat="47.70109" lon="-2.3037">
        <ele>73.8</ele>
        <time>2021-05-27T12:46:24Z</time>
      </trkpt>
      <trkpt lat="47.70111" lon="-2.30363">
        <ele>73.7</ele>
        <time>2021-05-27T12:46:25Z</time>
      </trkpt>
      <trkpt lat="47.70112" lon="-2.30355">
        <ele>73.5</ele>
        <time>2021-05-27T12:46:26Z</time>
      </trkpt>
      <trkpt lat="47.70112" lon="-2.30347">
        <ele>73.4</ele>
        <time>2021-05-27T12:46:27Z</time>
      </trkpt>
      <trkpt lat="47.70113" lon="-2.30339">
        <ele>73.2</ele>
        <time>2021-05-27T12:46:28Z</time>
      </trkpt>
      <trkpt lat="47.70114" lon="-2.30332">
        <ele>73.1</ele>
        <time>2021-05-27T12:46:29Z</time>
      </trkpt>
      <trkpt lat="47.70115" lon="-2.30324">
        <ele>73.2</ele>
        <time>2021-05-27T12:46:30Z</time>
      </trkpt>
      <trkpt lat="47.70117" lon="-2.30317">
        <ele>73.3</ele>
        <time>2021-05-27T12:46:31Z</time>
      </trkpt>
      <trkpt lat="47.70118" lon="-2.30309">
        <ele>73.3</ele>
        <time>2021-05-27T12:46:32Z</time>
      </trkpt>
      <trkpt lat="47.7012" lon="-2.30302">
        <ele>73.4</ele>
        <time>2021-05-27T12:46:33Z</time>
      </trkpt>
      <trkpt lat="47.70121" lon="-2.30294">
        <ele>73.4</ele>
        <time>2021-05-27T12:46:34Z</time>
      </trkpt>
      <trkpt lat="47.7012" lon="-2.30283">
        <ele>73.5</ele>
        <time>2021-05-27T12:46:35Z</time>
      </trkpt>
      <trkpt lat="47.7012" lon="-2.30275">
        <ele>73.5</ele>
        <time>2021-05-27T12:46:36Z</time>
      </trkpt>
      <trkpt lat="47.70118" lon="-2.30266">
        <ele>73.5</ele>
        <time>2021-05-27T12:46:37Z</time>
      </trkpt>
      <trkpt lat="47.70117" lon="-2.30256">
        <ele>73.6</ele>
        <time>2021-05-27T12:46:38Z</time>
      </trkpt>
      <trkpt lat="47.70117" lon="-2.30248">
        <ele>73.6</ele>
        <time>2021-05-27T12:46:39Z</time>
      </trkpt>
      <trkpt lat="47.70117" lon="-2.30239">
        <ele>73.7</ele>
        <time>2021-05-27T12:46:40Z</time>
      </trkpt>
      <trkpt lat="47.70117" lon="-2.30232">
        <ele>73.8</ele>
        <time>2021-05-27T12:46:41Z</time>
      </trkpt>
      <trkpt lat="47.70117" lon="-2.30224">
        <ele>73.8</ele>
        <time>2021-05-27T12:46:42Z</time>
      </trkpt>
      <trkpt lat="47.70117" lon="-2.30217">
        <ele>73.9</ele>
        <time>2021-05-27T12:46:43Z</time>
      </trkpt>
      <trkpt lat="47.70118" lon="-2.3021">
        <ele>74</ele>
        <time>2021-05-27T12:46:44Z</time>
      </trkpt>
      <trkpt lat="47.70118" lon="-2.30205">
        <ele>74</ele>
        <time>2021-05-27T12:46:45Z</time>
      </trkpt>
      <trkpt lat="47.70117" lon="-2.30199">
        <ele>74.1</ele>
        <time>2021-05-27T12:46:46Z</time>
      </trkpt>
      <trkpt lat="47.70116" lon="-2.30192">
        <ele>74.2</ele>
        <time>2021-05-27T12:46:47Z</time>
      </trkpt>
      <trkpt lat="47.70116" lon="-2.30185">
        <ele>74.2</ele>
        <time>2021-05-27T12:46:48Z</time>
      </trkpt>
      <trkpt lat="47.70116" lon="-2.30177">
        <ele>74.3</ele>
        <time>2021-05-27T12:46:49Z</time>
      </trkpt>
      <trkpt lat="47.70116" lon="-2.30169">
        <ele>74.4</ele>
        <time>2021-05-27T12:46:50Z</time>
      </trkpt>
      <trkpt lat="47.70116" lon="-2.30162">
        <ele>74.4</ele>
        <time>2021-05-27T12:46:51Z</time>
      </trkpt>
      <trkpt lat="47.70116" lon="-2.30155">
        <ele>74.3</ele>
        <time>2021-05-27T12:46:52Z</time>
      </trkpt>
      <trkpt lat="47.70116" lon="-2.30148">
        <ele>74.3</ele>
        <time>2021-05-27T12:46:53Z</time>
      </trkpt>
      <trkpt lat="47.70116" lon="-2.30141">
        <ele>74.3</ele>
        <time>2021-05-27T12:46:54Z</time>
      </trkpt>
      <trkpt lat="47.70116" lon="-2.30134">
        <ele>74.2</ele>
        <time>2021-05-27T12:46:55Z</time>
      </trkpt>
      <trkpt lat="47.70115" lon="-2.30128">
        <ele>74.2</ele>
        <time>2021-05-27T12:46:56Z</time>
      </trkpt>
      <trkpt lat="47.70116" lon="-2.3012">
        <ele>74.2</ele>
        <time>2021-05-27T12:46:57Z</time>
      </trkpt>
      <trkpt lat="47.70117" lon="-2.30115">
        <ele>74.2</ele>
        <time>2021-05-27T12:46:58Z</time>
      </trkpt>
      <trkpt lat="47.70117" lon="-2.3011">
        <ele>74.1</ele>
        <time>2021-05-27T12:46:59Z</time>
      </trkpt>
      <trkpt lat="47.70119" lon="-2.30107">
        <ele>74.1</ele>
        <time>2021-05-27T12:47:00Z</time>
      </trkpt>
      <trkpt lat="47.70121" lon="-2.30104">
        <ele>74.1</ele>
        <time>2021-05-27T12:47:01Z</time>
      </trkpt>
      <trkpt lat="47.70122" lon="-2.30101">
        <ele>74.1</ele>
        <time>2021-05-27T12:47:02Z</time>
      </trkpt>
      <trkpt lat="47.70121" lon="-2.30098">
        <ele>74.1</ele>
        <time>2021-05-27T12:47:03Z</time>
      </trkpt>
      <trkpt lat="47.70121" lon="-2.30096">
        <ele>74.1</ele>
        <time>2021-05-27T12:47:04Z</time>
      </trkpt>
      <trkpt lat="47.70121" lon="-2.30093">
        <ele>74.1</ele>
        <time>2021-05-27T12:47:05Z</time>
      </trkpt>
      <trkpt lat="47.70122" lon="-2.30089">
        <ele>74</ele>
        <time>2021-05-27T12:47:06Z</time>
      </trkpt>
      <trkpt lat="47.70121" lon="-2.30085">
        <ele>74</ele>
        <time>2021-05-27T12:47:07Z</time>
      </trkpt>
      <trkpt lat="47.70122" lon="-2.30081">
        <ele>74</ele>
        <time>2021-05-27T12:47:08Z</time>
      </trkpt>
      <trkpt lat="47.70121" lon="-2.30076">
        <ele>73.9</ele>
        <time>2021-05-27T12:47:09Z</time>
      </trkpt>
      <trkpt lat="47.70121" lon="-2.30071">
        <ele>73.9</ele>
        <time>2021-05-27T12:47:10Z</time>
      </trkpt>
      <trkpt lat="47.70121" lon="-2.30066">
        <ele>73.9</ele>
        <time>2021-05-27T12:47:11Z</time>
      </trkpt>
      <trkpt lat="47.70121" lon="-2.3006">
        <ele>73.8</ele>
        <time>2021-05-27T12:47:12Z</time>
      </trkpt>
      <trkpt lat="47.70121" lon="-2.30054">
        <ele>73.8</ele>
        <time>2021-05-27T12:47:13Z</time>
      </trkpt>
      <trkpt lat="47.70121" lon="-2.30048">
        <ele>73.7</ele>
        <time>2021-05-27T12:47:14Z</time>
      </trkpt>
      <trkpt lat="47.70121" lon="-2.30042">
        <ele>73.7</ele>
        <time>2021-05-27T12:47:15Z</time>
      </trkpt>
      <trkpt lat="47.7012" lon="-2.30035">
        <ele>73.6</ele>
        <time>2021-05-27T12:47:16Z</time>
      </trkpt>
      <trkpt lat="47.70118" lon="-2.30028">
        <ele>73.5</ele>
        <time>2021-05-27T12:47:17Z</time>
      </trkpt>
      <trkpt lat="47.70117" lon="-2.30023">
        <ele>73.4</ele>
        <time>2021-05-27T12:47:18Z</time>
      </trkpt>
      <trkpt lat="47.70117" lon="-2.30018">
        <ele>73.4</ele>
        <time>2021-05-27T12:47:19Z</time>
      </trkpt>
      <trkpt lat="47.70119" lon="-2.30014">
        <ele>73.4</ele>
        <time>2021-05-27T12:47:20Z</time>
      </trkpt>
      <trkpt lat="47.70121" lon="-2.30011">
        <ele>73.4</ele>
        <time>2021-05-27T12:47:21Z</time>
      </trkpt>
      <trkpt lat="47.70123" lon="-2.30008">
        <ele>73.5</ele>
        <time>2021-05-27T12:47:22Z</time>
      </trkpt>
      <trkpt lat="47.70125" lon="-2.30006">
        <ele>73.5</ele>
        <time>2021-05-27T12:47:23Z</time>
      </trkpt>
      <trkpt lat="47.70127" lon="-2.30004">
        <ele>73.6</ele>
        <time>2021-05-27T12:47:24Z</time>
      </trkpt>
      <trkpt lat="47.70129" lon="-2.3">
        <ele>73.7</ele>
        <time>2021-05-27T12:47:25Z</time>
      </trkpt>
      <trkpt lat="47.70131" lon="-2.29995">
        <ele>73.8</ele>
        <time>2021-05-27T12:47:26Z</time>
      </trkpt>
      <trkpt lat="47.70132" lon="-2.29989">
        <ele>74.1</ele>
        <time>2021-05-27T12:47:27Z</time>
      </trkpt>
      <trkpt lat="47.70134" lon="-2.29984">
        <ele>74.3</ele>
        <time>2021-05-27T12:47:28Z</time>
      </trkpt>
      <trkpt lat="47.70135" lon="-2.2998">
        <ele>74.5</ele>
        <time>2021-05-27T12:47:29Z</time>
      </trkpt>
      <trkpt lat="47.70136" lon="-2.29976">
        <ele>74.6</ele>
        <time>2021-05-27T12:47:30Z</time>
      </trkpt>
      <trkpt lat="47.70136" lon="-2.29973">
        <ele>74.7</ele>
        <time>2021-05-27T12:47:31Z</time>
      </trkpt>
      <trkpt lat="47.70136" lon="-2.29969">
        <ele>74.8</ele>
        <time>2021-05-27T12:47:32Z</time>
      </trkpt>
      <trkpt lat="47.70137" lon="-2.29965">
        <ele>75</ele>
        <time>2021-05-27T12:47:33Z</time>
      </trkpt>
      <trkpt lat="47.70138" lon="-2.2996">
        <ele>75.2</ele>
        <time>2021-05-27T12:47:34Z</time>
      </trkpt>
      <trkpt lat="47.70139" lon="-2.29956">
        <ele>75.4</ele>
        <time>2021-05-27T12:47:35Z</time>
      </trkpt>
      <trkpt lat="47.70141" lon="-2.29951">
        <ele>75.7</ele>
        <time>2021-05-27T12:47:36Z</time>
      </trkpt>
      <trkpt lat="47.70142" lon="-2.29946">
        <ele>75.9</ele>
        <time>2021-05-27T12:47:37Z</time>
      </trkpt>
      <trkpt lat="47.70142" lon="-2.29941">
        <ele>76.1</ele>
        <time>2021-05-27T12:47:38Z</time>
      </trkpt>
      <trkpt lat="47.70142" lon="-2.29935">
        <ele>76.3</ele>
        <time>2021-05-27T12:47:39Z</time>
      </trkpt>
      <trkpt lat="47.70142" lon="-2.29929">
        <ele>76.5</ele>
        <time>2021-05-27T12:47:40Z</time>
      </trkpt>
      <trkpt lat="47.70142" lon="-2.29923">
        <ele>76.7</ele>
        <time>2021-05-27T12:47:41Z</time>
      </trkpt>
      <trkpt lat="47.70141" lon="-2.29917">
        <ele>76.8</ele>
        <time>2021-05-27T12:47:42Z</time>
      </trkpt>
      <trkpt lat="47.70141" lon="-2.29911">
        <ele>76.9</ele>
        <time>2021-05-27T12:47:43Z</time>
      </trkpt>
      <trkpt lat="47.70142" lon="-2.29904">
        <ele>77</ele>
        <time>2021-05-27T12:47:44Z</time>
      </trkpt>
      <trkpt lat="47.70143" lon="-2.29897">
        <ele>77.1</ele>
        <time>2021-05-27T12:47:45Z</time>
      </trkpt>
      <trkpt lat="47.70142" lon="-2.29891">
        <ele>77.2</ele>
        <time>2021-05-27T12:47:46Z</time>
      </trkpt>
      <trkpt lat="47.70142" lon="-2.29884">
        <ele>77.2</ele>
        <time>2021-05-27T12:47:47Z</time>
      </trkpt>
      <trkpt lat="47.70141" lon="-2.29879">
        <ele>77.2</ele>
        <time>2021-05-27T12:47:48Z</time>
      </trkpt>
      <trkpt lat="47.70141" lon="-2.29873">
        <ele>77.2</ele>
        <time>2021-05-27T12:47:49Z</time>
      </trkpt>
      <trkpt lat="47.7014" lon="-2.29867">
        <ele>77.2</ele>
        <time>2021-05-27T12:47:50Z</time>
      </trkpt>
      <trkpt lat="47.70139" lon="-2.29861">
        <ele>77.1</ele>
        <time>2021-05-27T12:47:51Z</time>
      </trkpt>
      <trkpt lat="47.70138" lon="-2.29854">
        <ele>77.1</ele>
        <time>2021-05-27T12:47:52Z</time>
      </trkpt>
      <trkpt lat="47.70138" lon="-2.29848">
        <ele>77.2</ele>
        <time>2021-05-27T12:47:53Z</time>
      </trkpt>
      <trkpt lat="47.70138" lon="-2.29841">
        <ele>77.2</ele>
        <time>2021-05-27T12:47:54Z</time>
      </trkpt>
      <trkpt lat="47.70138" lon="-2.29835">
        <ele>77.2</ele>
        <time>2021-05-27T12:47:55Z</time>
      </trkpt>
      <trkpt lat="47.70138" lon="-2.29828">
        <ele>77</ele>
        <time>2021-05-27T12:47:56Z</time>
      </trkpt>
      <trkpt lat="47.70138" lon="-2.29822">
        <ele>76.9</ele>
        <time>2021-05-27T12:47:57Z</time>
      </trkpt>
      <trkpt lat="47.70139" lon="-2.29814">
        <ele>76.7</ele>
        <time>2021-05-27T12:47:58Z</time>
      </trkpt>
      <trkpt lat="47.7014" lon="-2.29808">
        <ele>76.5</ele>
        <time>2021-05-27T12:47:59Z</time>
      </trkpt>
      <trkpt lat="47.7014" lon="-2.29801">
        <ele>76.2</ele>
        <time>2021-05-27T12:48:00Z</time>
      </trkpt>
      <trkpt lat="47.7014" lon="-2.29795">
        <ele>76</ele>
        <time>2021-05-27T12:48:01Z</time>
      </trkpt>
      <trkpt lat="47.7014" lon="-2.29788">
        <ele>75.8</ele>
        <time>2021-05-27T12:48:02Z</time>
      </trkpt>
      <trkpt lat="47.7014" lon="-2.29782">
        <ele>75.6</ele>
        <time>2021-05-27T12:48:03Z</time>
      </trkpt>
      <trkpt lat="47.70141" lon="-2.29776">
        <ele>75.4</ele>
        <time>2021-05-27T12:48:04Z</time>
      </trkpt>
      <trkpt lat="47.70141" lon="-2.2977">
        <ele>75.2</ele>
        <time>2021-05-27T12:48:05Z</time>
      </trkpt>
      <trkpt lat="47.70141" lon="-2.29763">
        <ele>75</ele>
        <time>2021-05-27T12:48:06Z</time>
      </trkpt>
      <trkpt lat="47.70142" lon="-2.29757">
        <ele>74.8</ele>
        <time>2021-05-27T12:48:07Z</time>
      </trkpt>
      <trkpt lat="47.70142" lon="-2.29751">
        <ele>74.5</ele>
        <time>2021-05-27T12:48:08Z</time>
      </trkpt>
      <trkpt lat="47.70141" lon="-2.29746">
        <ele>74.3</ele>
        <time>2021-05-27T12:48:09Z</time>
      </trkpt>
      <trkpt lat="47.70138" lon="-2.2974">
        <ele>74</ele>
        <time>2021-05-27T12:48:10Z</time>
      </trkpt>
      <trkpt lat="47.70136" lon="-2.29735">
        <ele>73.8</ele>
        <time>2021-05-27T12:48:11Z</time>
      </trkpt>
      <trkpt lat="47.70135" lon="-2.29729">
        <ele>73.6</ele>
        <time>2021-05-27T12:48:12Z</time>
      </trkpt>
      <trkpt lat="47.70135" lon="-2.29724">
        <ele>73.5</ele>
        <time>2021-05-27T12:48:13Z</time>
      </trkpt>
      <trkpt lat="47.70133" lon="-2.29718">
        <ele>73.2</ele>
        <time>2021-05-27T12:48:14Z</time>
      </trkpt>
      <trkpt lat="47.70132" lon="-2.29712">
        <ele>73.1</ele>
        <time>2021-05-27T12:48:15Z</time>
      </trkpt>
      <trkpt lat="47.70132" lon="-2.29706">
        <ele>72.9</ele>
        <time>2021-05-27T12:48:16Z</time>
      </trkpt>
      <trkpt lat="47.70134" lon="-2.297">
        <ele>72.8</ele>
        <time>2021-05-27T12:48:17Z</time>
      </trkpt>
      <trkpt lat="47.70136" lon="-2.29695">
        <ele>72.7</ele>
        <time>2021-05-27T12:48:18Z</time>
      </trkpt>
      <trkpt lat="47.70138" lon="-2.29692">
        <ele>72.7</ele>
        <time>2021-05-27T12:48:19Z</time>
      </trkpt>
      <trkpt lat="47.7014" lon="-2.29691">
        <ele>72.7</ele>
        <time>2021-05-27T12:48:20Z</time>
      </trkpt>
      <trkpt lat="47.70141" lon="-2.29691">
        <ele>72.7</ele>
        <time>2021-05-27T12:48:21Z</time>
      </trkpt>
      <trkpt lat="47.70141" lon="-2.29692">
        <ele>72.8</ele>
        <time>2021-05-27T12:48:22Z</time>
      </trkpt>
      <trkpt lat="47.70142" lon="-2.29692">
        <ele>72.8</ele>
        <time>2021-05-27T12:48:23Z</time>
      </trkpt>
      <trkpt lat="47.70142" lon="-2.29692">
        <ele>72.8</ele>
        <time>2021-05-27T12:48:24Z</time>
      </trkpt>
      <trkpt lat="47.70142" lon="-2.29692">
        <ele>72.8</ele>
        <time>2021-05-27T12:48:25Z</time>
      </trkpt>
      <trkpt lat="47.70142" lon="-2.29692">
        <ele>72.8</ele>
        <time>2021-05-27T12:48:26Z</time>
      </trkpt>
      <trkpt lat="47.70142" lon="-2.29692">
        <ele>72.8</ele>
        <time>2021-05-27T12:48:27Z</time>
      </trkpt>
      <trkpt lat="47.70142" lon="-2.29692">
        <ele>72.8</ele>
        <time>2021-05-27T12:48:28Z</time>
      </trkpt>
      <trkpt lat="47.70142" lon="-2.29692">
        <ele>72.8</ele>
        <time>2021-05-27T12:48:29Z</time>
      </trkpt>
      <trkpt lat="47.70142" lon="-2.29692">
        <ele>72.8</ele>
        <time>2021-05-27T12:48:30Z</time>
      </trkpt>
      <trkpt lat="47.70142" lon="-2.29692">
        <ele>72.8</ele>
        <time>2021-05-27T12:48:31Z</time>
      </trkpt>
      <trkpt lat="47.70142" lon="-2.29692">
        <ele>72.8</ele>
        <time>2021-05-27T12:48:32Z</time>
      </trkpt>
      <trkpt lat="47.70142" lon="-2.29692">
        <ele>72.8</ele>
        <time>2021-05-27T12:48:33Z</time>
      </trkpt>
      <trkpt lat="47.70142" lon="-2.29692">
        <ele>72.8</ele>
        <time>2021-05-27T12:48:34Z</time>
      </trkpt>
      <trkpt lat="47.70142" lon="-2.29692">
        <ele>72.8</ele>
        <time>2021-05-27T12:48:35Z</time>
      </trkpt>
      <trkpt lat="47.70142" lon="-2.29692">
        <ele>72.8</ele>
        <time>2021-05-27T12:48:36Z</time>
      </trkpt>
      <trkpt lat="47.70142" lon="-2.29692">
        <ele>72.8</ele>
        <time>2021-05-27T12:48:37Z</time>
      </trkpt>
      <trkpt lat="47.70142" lon="-2.29692">
        <ele>72.8</ele>
        <time>2021-05-27T12:48:38Z</time>
      </trkpt>
      <trkpt lat="47.70142" lon="-2.29692">
        <ele>72.8</ele>
        <time>2021-05-27T12:48:39Z</time>
      </trkpt>
      <trkpt lat="47.70142" lon="-2.29692">
        <ele>72.8</ele>
        <time>2021-05-27T12:48:40Z</time>
      </trkpt>
      <trkpt lat="47.70142" lon="-2.29692">
        <ele>72.8</ele>
        <time>2021-05-27T12:48:41Z</time>
      </trkpt>
      <trkpt lat="47.70142" lon="-2.29692">
        <ele>72.8</ele>
        <time>2021-05-27T12:48:42Z</time>
      </trkpt>
      <trkpt lat="47.70142" lon="-2.29692">
        <ele>72.8</ele>
        <time>2021-05-27T12:48:43Z</time>
      </trkpt>
      <trkpt lat="47.70142" lon="-2.29692">
        <ele>72.8</ele>
        <time>2021-05-27T12:48:44Z</time>
      </trkpt>
      <trkpt lat="47.70142" lon="-2.29692">
        <ele>72.8</ele>
        <time>2021-05-27T12:48:45Z</time>
      </trkpt>
      <trkpt lat="47.70142" lon="-2.29692">
        <ele>72.8</ele>
        <time>2021-05-27T12:48:46Z</time>
      </trkpt>
      <trkpt lat="47.70142" lon="-2.29692">
        <ele>72.8</ele>
        <time>2021-05-27T12:48:47Z</time>
      </trkpt>
      <trkpt lat="47.70142" lon="-2.29692">
        <ele>72.8</ele>
        <time>2021-05-27T12:48:48Z</time>
      </trkpt>
      <trkpt lat="47.70142" lon="-2.29692">
        <ele>72.8</ele>
        <time>2021-05-27T12:48:49Z</time>
      </trkpt>
      <trkpt lat="47.70142" lon="-2.29692">
        <ele>72.8</ele>
        <time>2021-05-27T12:48:50Z</time>
      </trkpt>
      <trkpt lat="47.70142" lon="-2.29692">
        <ele>72.8</ele>
        <time>2021-05-27T12:48:51Z</time>
      </trkpt>
      <trkpt lat="47.70142" lon="-2.29692">
        <ele>72.8</ele>
        <time>2021-05-27T12:48:52Z</time>
      </trkpt>
      <trkpt lat="47.70142" lon="-2.29692">
        <ele>72.8</ele>
        <time>2021-05-27T12:48:53Z</time>
      </trkpt>
      <trkpt lat="47.70142" lon="-2.29692">
        <ele>72.8</ele>
        <time>2021-05-27T12:48:54Z</time>
      </trkpt>
      <trkpt lat="47.70142" lon="-2.29692">
        <ele>72.8</ele>
        <time>2021-05-27T12:48:55Z</time>
      </trkpt>
      <trkpt lat="47.70142" lon="-2.29692">
        <ele>72.8</ele>
        <time>2021-05-27T12:48:56Z</time>
      </trkpt>
      <trkpt lat="47.70142" lon="-2.29692">
        <ele>72.8</ele>
        <time>2021-05-27T12:48:57Z</time>
      </trkpt>
      <trkpt lat="47.70151" lon="-2.2969">
        <ele>72.9</ele>
        <time>2021-05-27T12:48:58Z</time>
      </trkpt>
      <trkpt lat="47.70153" lon="-2.29691">
        <ele>72.9</ele>
        <time>2021-05-27T12:48:59Z</time>
      </trkpt>
      <trkpt lat="47.70156" lon="-2.29691">
        <ele>73</ele>
        <time>2021-05-27T12:49:00Z</time>
      </trkpt>
      <trkpt lat="47.70159" lon="-2.29693">
        <ele>73.1</ele>
        <time>2021-05-27T12:49:01Z</time>
      </trkpt>
      <trkpt lat="47.70162" lon="-2.29694">
        <ele>73.2</ele>
        <time>2021-05-27T12:49:02Z</time>
      </trkpt>
      <trkpt lat="47.70166" lon="-2.29696">
        <ele>73.4</ele>
        <time>2021-05-27T12:49:03Z</time>
      </trkpt>
      <trkpt lat="47.7017" lon="-2.29697">
        <ele>73.2</ele>
        <time>2021-05-27T12:49:04Z</time>
      </trkpt>
      <trkpt lat="47.70174" lon="-2.29699">
        <ele>72.8</ele>
        <time>2021-05-27T12:49:05Z</time>
      </trkpt>
      <trkpt lat="47.70177" lon="-2.29701">
        <ele>72.6</ele>
        <time>2021-05-27T12:49:06Z</time>
      </trkpt>
      <trkpt lat="47.70181" lon="-2.29703">
        <ele>72.3</ele>
        <time>2021-05-27T12:49:07Z</time>
      </trkpt>
      <trkpt lat="47.70185" lon="-2.29704">
        <ele>71.9</ele>
        <time>2021-05-27T12:49:08Z</time>
      </trkpt>
      <trkpt lat="47.70191" lon="-2.29704">
        <ele>71.4</ele>
        <time>2021-05-27T12:49:09Z</time>
      </trkpt>
      <trkpt lat="47.70198" lon="-2.29704">
        <ele>70.7</ele>
        <time>2021-05-27T12:49:10Z</time>
      </trkpt>
      <trkpt lat="47.70203" lon="-2.29706">
        <ele>70.3</ele>
        <time>2021-05-27T12:49:11Z</time>
      </trkpt>
      <trkpt lat="47.70209" lon="-2.29707">
        <ele>69.8</ele>
        <time>2021-05-27T12:49:12Z</time>
      </trkpt>
      <trkpt lat="47.70216" lon="-2.29707">
        <ele>69.1</ele>
        <time>2021-05-27T12:49:13Z</time>
      </trkpt>
      <trkpt lat="47.70224" lon="-2.29706">
        <ele>68.4</ele>
        <time>2021-05-27T12:49:14Z</time>
      </trkpt>
      <trkpt lat="47.70232" lon="-2.29706">
        <ele>67.6</ele>
        <time>2021-05-27T12:49:15Z</time>
      </trkpt>
      <trkpt lat="47.7024" lon="-2.29706">
        <ele>66.8</ele>
        <time>2021-05-27T12:49:16Z</time>
      </trkpt>
      <trkpt lat="47.70247" lon="-2.29706">
        <ele>66.1</ele>
        <time>2021-05-27T12:49:17Z</time>
      </trkpt>
      <trkpt lat="47.70254" lon="-2.29707">
        <ele>65</ele>
        <time>2021-05-27T12:49:18Z</time>
      </trkpt>
      <trkpt lat="47.70262" lon="-2.29707">
        <ele>63.7</ele>
        <time>2021-05-27T12:49:19Z</time>
      </trkpt>
      <trkpt lat="47.70269" lon="-2.29707">
        <ele>62.4</ele>
        <time>2021-05-27T12:49:20Z</time>
      </trkpt>
      <trkpt lat="47.70275" lon="-2.29708">
        <ele>61.4</ele>
        <time>2021-05-27T12:49:21Z</time>
      </trkpt>
      <trkpt lat="47.70279" lon="-2.29708">
        <ele>60.5</ele>
        <time>2021-05-27T12:49:22Z</time>
      </trkpt>
      <trkpt lat="47.70284" lon="-2.29707">
        <ele>59.7</ele>
        <time>2021-05-27T12:49:23Z</time>
      </trkpt>
      <trkpt lat="47.70288" lon="-2.29704">
        <ele>58.8</ele>
        <time>2021-05-27T12:49:24Z</time>
      </trkpt>
      <trkpt lat="47.70291" lon="-2.297">
        <ele>57.9</ele>
        <time>2021-05-27T12:49:25Z</time>
      </trkpt>
      <trkpt lat="47.70291" lon="-2.29692">
        <ele>57.4</ele>
        <time>2021-05-27T12:49:26Z</time>
      </trkpt>
      <trkpt lat="47.70292" lon="-2.29684">
        <ele>56.8</ele>
        <time>2021-05-27T12:49:27Z</time>
      </trkpt>
      <trkpt lat="47.70293" lon="-2.29675">
        <ele>56.2</ele>
        <time>2021-05-27T12:49:28Z</time>
      </trkpt>
      <trkpt lat="47.70294" lon="-2.29666">
        <ele>55.6</ele>
        <time>2021-05-27T12:49:29Z</time>
      </trkpt>
      <trkpt lat="47.70295" lon="-2.29658">
        <ele>55.5</ele>
        <time>2021-05-27T12:49:30Z</time>
      </trkpt>
      <trkpt lat="47.70297" lon="-2.29648">
        <ele>55.3</ele>
        <time>2021-05-27T12:49:31Z</time>
      </trkpt>
      <trkpt lat="47.70298" lon="-2.2964">
        <ele>55.1</ele>
        <time>2021-05-27T12:49:32Z</time>
      </trkpt>
      <trkpt lat="47.70299" lon="-2.2963">
        <ele>54.9</ele>
        <time>2021-05-27T12:49:33Z</time>
      </trkpt>
      <trkpt lat="47.70301" lon="-2.29621">
        <ele>54.7</ele>
        <time>2021-05-27T12:49:34Z</time>
      </trkpt>
      <trkpt lat="47.70302" lon="-2.29611">
        <ele>54.5</ele>
        <time>2021-05-27T12:49:35Z</time>
      </trkpt>
      <trkpt lat="47.70303" lon="-2.29601">
        <ele>54.3</ele>
        <time>2021-05-27T12:49:36Z</time>
      </trkpt>
      <trkpt lat="47.70304" lon="-2.29591">
        <ele>54.2</ele>
        <time>2021-05-27T12:49:37Z</time>
      </trkpt>
      <trkpt lat="47.70305" lon="-2.29582">
        <ele>54.1</ele>
        <time>2021-05-27T12:49:38Z</time>
      </trkpt>
      <trkpt lat="47.70305" lon="-2.29572">
        <ele>54</ele>
        <time>2021-05-27T12:49:39Z</time>
      </trkpt>
      <trkpt lat="47.70305" lon="-2.29563">
        <ele>53.8</ele>
        <time>2021-05-27T12:49:40Z</time>
      </trkpt>
      <trkpt lat="47.70306" lon="-2.29553">
        <ele>53.6</ele>
        <time>2021-05-27T12:49:41Z</time>
      </trkpt>
      <trkpt lat="47.70307" lon="-2.29543">
        <ele>53.4</ele>
        <time>2021-05-27T12:49:42Z</time>
      </trkpt>
      <trkpt lat="47.70307" lon="-2.29533">
        <ele>53.1</ele>
        <time>2021-05-27T12:49:43Z</time>
      </trkpt>
      <trkpt lat="47.70308" lon="-2.29523">
        <ele>52.9</ele>
        <time>2021-05-27T12:49:44Z</time>
      </trkpt>
      <trkpt lat="47.70308" lon="-2.29513">
        <ele>52.8</ele>
        <time>2021-05-27T12:49:45Z</time>
      </trkpt>
      <trkpt lat="47.70308" lon="-2.29502">
        <ele>52.5</ele>
        <time>2021-05-27T12:49:46Z</time>
      </trkpt>
      <trkpt lat="47.70309" lon="-2.29491">
        <ele>52.2</ele>
        <time>2021-05-27T12:49:47Z</time>
      </trkpt>
      <trkpt lat="47.7031" lon="-2.29479">
        <ele>51.9</ele>
        <time>2021-05-27T12:49:48Z</time>
      </trkpt>
      <trkpt lat="47.7031" lon="-2.29468">
        <ele>51.6</ele>
        <time>2021-05-27T12:49:49Z</time>
      </trkpt>
      <trkpt lat="47.70311" lon="-2.29457">
        <ele>51.4</ele>
        <time>2021-05-27T12:49:50Z</time>
      </trkpt>
      <trkpt lat="47.70311" lon="-2.29445">
        <ele>51.1</ele>
        <time>2021-05-27T12:49:51Z</time>
      </trkpt>
      <trkpt lat="47.70312" lon="-2.29433">
        <ele>50.7</ele>
        <time>2021-05-27T12:49:52Z</time>
      </trkpt>
      <trkpt lat="47.70312" lon="-2.29421">
        <ele>50.4</ele>
        <time>2021-05-27T12:49:53Z</time>
      </trkpt>
      <trkpt lat="47.70312" lon="-2.29409">
        <ele>50.3</ele>
        <time>2021-05-27T12:49:54Z</time>
      </trkpt>
      <trkpt lat="47.70313" lon="-2.29397">
        <ele>50.3</ele>
        <time>2021-05-27T12:49:55Z</time>
      </trkpt>
      <trkpt lat="47.70313" lon="-2.29385">
        <ele>50.3</ele>
        <time>2021-05-27T12:49:56Z</time>
      </trkpt>
      <trkpt lat="47.70314" lon="-2.29373">
        <ele>50.3</ele>
        <time>2021-05-27T12:49:57Z</time>
      </trkpt>
      <trkpt lat="47.70314" lon="-2.29361">
        <ele>50.2</ele>
        <time>2021-05-27T12:49:58Z</time>
      </trkpt>
      <trkpt lat="47.70315" lon="-2.2935">
        <ele>50</ele>
        <time>2021-05-27T12:49:59Z</time>
      </trkpt>
      <trkpt lat="47.70317" lon="-2.29338">
        <ele>49.8</ele>
        <time>2021-05-27T12:50:00Z</time>
      </trkpt>
      <trkpt lat="47.70317" lon="-2.29326">
        <ele>49.5</ele>
        <time>2021-05-27T12:50:01Z</time>
      </trkpt>
      <trkpt lat="47.70318" lon="-2.29314">
        <ele>48.9</ele>
        <time>2021-05-27T12:50:02Z</time>
      </trkpt>
      <trkpt lat="47.70318" lon="-2.29302">
        <ele>48.5</ele>
        <time>2021-05-27T12:50:03Z</time>
      </trkpt>
      <trkpt lat="47.70318" lon="-2.2929">
        <ele>48.3</ele>
        <time>2021-05-27T12:50:04Z</time>
      </trkpt>
      <trkpt lat="47.70318" lon="-2.29277">
        <ele>47.9</ele>
        <time>2021-05-27T12:50:05Z</time>
      </trkpt>
      <trkpt lat="47.70317" lon="-2.29265">
        <ele>47.7</ele>
        <time>2021-05-27T12:50:06Z</time>
      </trkpt>
      <trkpt lat="47.70318" lon="-2.29253">
        <ele>47.3</ele>
        <time>2021-05-27T12:50:07Z</time>
      </trkpt>
      <trkpt lat="47.70318" lon="-2.29241">
        <ele>46.6</ele>
        <time>2021-05-27T12:50:08Z</time>
      </trkpt>
      <trkpt lat="47.7032" lon="-2.29229">
        <ele>45.7</ele>
        <time>2021-05-27T12:50:09Z</time>
      </trkpt>
      <trkpt lat="47.70321" lon="-2.29217">
        <ele>45</ele>
        <time>2021-05-27T12:50:10Z</time>
      </trkpt>
      <trkpt lat="47.70321" lon="-2.29205">
        <ele>44.4</ele>
        <time>2021-05-27T12:50:11Z</time>
      </trkpt>
      <trkpt lat="47.70322" lon="-2.29193">
        <ele>43.8</ele>
        <time>2021-05-27T12:50:12Z</time>
      </trkpt>
      <trkpt lat="47.70322" lon="-2.29181">
        <ele>43.3</ele>
        <time>2021-05-27T12:50:13Z</time>
      </trkpt>
      <trkpt lat="47.70323" lon="-2.29168">
        <ele>42.7</ele>
        <time>2021-05-27T12:50:14Z</time>
      </trkpt>
      <trkpt lat="47.70323" lon="-2.29156">
        <ele>42.5</ele>
        <time>2021-05-27T12:50:15Z</time>
      </trkpt>
      <trkpt lat="47.70324" lon="-2.29144">
        <ele>42.4</ele>
        <time>2021-05-27T12:50:16Z</time>
      </trkpt>
      <trkpt lat="47.70324" lon="-2.29132">
        <ele>42.3</ele>
        <time>2021-05-27T12:50:17Z</time>
      </trkpt>
      <trkpt lat="47.70325" lon="-2.29119">
        <ele>42.1</ele>
        <time>2021-05-27T12:50:18Z</time>
      </trkpt>
      <trkpt lat="47.70325" lon="-2.29107">
        <ele>42</ele>
        <time>2021-05-27T12:50:19Z</time>
      </trkpt>
      <trkpt lat="47.70326" lon="-2.29095">
        <ele>41.8</ele>
        <time>2021-05-27T12:50:20Z</time>
      </trkpt>
      <trkpt lat="47.70327" lon="-2.29082">
        <ele>41.7</ele>
        <time>2021-05-27T12:50:21Z</time>
      </trkpt>
      <trkpt lat="47.70327" lon="-2.2907">
        <ele>41</ele>
        <time>2021-05-27T12:50:22Z</time>
      </trkpt>
      <trkpt lat="47.70328" lon="-2.29057">
        <ele>40.2</ele>
        <time>2021-05-27T12:50:23Z</time>
      </trkpt>
      <trkpt lat="47.70328" lon="-2.29044">
        <ele>39.5</ele>
        <time>2021-05-27T12:50:24Z</time>
      </trkpt>
      <trkpt lat="47.70329" lon="-2.29031">
        <ele>38.6</ele>
        <time>2021-05-27T12:50:25Z</time>
      </trkpt>
      <trkpt lat="47.7033" lon="-2.29019">
        <ele>37.9</ele>
        <time>2021-05-27T12:50:26Z</time>
      </trkpt>
      <trkpt lat="47.7033" lon="-2.29007">
        <ele>37.2</ele>
        <time>2021-05-27T12:50:27Z</time>
      </trkpt>
      <trkpt lat="47.7033" lon="-2.28994">
        <ele>36.6</ele>
        <time>2021-05-27T12:50:28Z</time>
      </trkpt>
      <trkpt lat="47.70331" lon="-2.28981">
        <ele>36.3</ele>
        <time>2021-05-27T12:50:29Z</time>
      </trkpt>
      <trkpt lat="47.70331" lon="-2.28969">
        <ele>35.9</ele>
        <time>2021-05-27T12:50:30Z</time>
      </trkpt>
      <trkpt lat="47.70331" lon="-2.28957">
        <ele>35.5</ele>
        <time>2021-05-27T12:50:31Z</time>
      </trkpt>
      <trkpt lat="47.70331" lon="-2.28945">
        <ele>35.2</ele>
        <time>2021-05-27T12:50:32Z</time>
      </trkpt>
      <trkpt lat="47.70331" lon="-2.28933">
        <ele>35</ele>
        <time>2021-05-27T12:50:33Z</time>
      </trkpt>
      <trkpt lat="47.70331" lon="-2.28922">
        <ele>34.8</ele>
        <time>2021-05-27T12:50:34Z</time>
      </trkpt>
      <trkpt lat="47.7033" lon="-2.28911">
        <ele>34.8</ele>
        <time>2021-05-27T12:50:35Z</time>
      </trkpt>
      <trkpt lat="47.7033" lon="-2.289">
        <ele>34.8</ele>
        <time>2021-05-27T12:50:36Z</time>
      </trkpt>
      <trkpt lat="47.7033" lon="-2.28889">
        <ele>34.8</ele>
        <time>2021-05-27T12:50:37Z</time>
      </trkpt>
      <trkpt lat="47.7033" lon="-2.28879">
        <ele>34.8</ele>
        <time>2021-05-27T12:50:38Z</time>
      </trkpt>
      <trkpt lat="47.7033" lon="-2.28869">
        <ele>34.8</ele>
        <time>2021-05-27T12:50:39Z</time>
      </trkpt>
      <trkpt lat="47.70329" lon="-2.28861">
        <ele>35</ele>
        <time>2021-05-27T12:50:40Z</time>
      </trkpt>
      <trkpt lat="47.70327" lon="-2.28854">
        <ele>35.6</ele>
        <time>2021-05-27T12:50:41Z</time>
      </trkpt>
      <trkpt lat="47.70323" lon="-2.28849">
        <ele>36.6</ele>
        <time>2021-05-27T12:50:42Z</time>
      </trkpt>
      <trkpt lat="47.7032" lon="-2.28845">
        <ele>37.5</ele>
        <time>2021-05-27T12:50:43Z</time>
      </trkpt>
      <trkpt lat="47.70317" lon="-2.28841">
        <ele>38.2</ele>
        <time>2021-05-27T12:50:44Z</time>
      </trkpt>
      <trkpt lat="47.70314" lon="-2.28838">
        <ele>38.8</ele>
        <time>2021-05-27T12:50:45Z</time>
      </trkpt>
      <trkpt lat="47.70312" lon="-2.28835">
        <ele>39.3</ele>
        <time>2021-05-27T12:50:46Z</time>
      </trkpt>
      <trkpt lat="47.7031" lon="-2.28832">
        <ele>39.8</ele>
        <time>2021-05-27T12:50:47Z</time>
      </trkpt>
      <trkpt lat="47.70308" lon="-2.28828">
        <ele>40.2</ele>
        <time>2021-05-27T12:50:48Z</time>
      </trkpt>
      <trkpt lat="47.70306" lon="-2.28824">
        <ele>40.5</ele>
        <time>2021-05-27T12:50:49Z</time>
      </trkpt>
      <trkpt lat="47.70304" lon="-2.28821">
        <ele>40.8</ele>
        <time>2021-05-27T12:50:50Z</time>
      </trkpt>
      <trkpt lat="47.70302" lon="-2.28816">
        <ele>41.1</ele>
        <time>2021-05-27T12:50:51Z</time>
      </trkpt>
      <trkpt lat="47.703" lon="-2.28813">
        <ele>41.5</ele>
        <time>2021-05-27T12:50:52Z</time>
      </trkpt>
      <trkpt lat="47.70297" lon="-2.28808">
        <ele>42</ele>
        <time>2021-05-27T12:50:53Z</time>
      </trkpt>
      <trkpt lat="47.70295" lon="-2.28805">
        <ele>42.4</ele>
        <time>2021-05-27T12:50:54Z</time>
      </trkpt>
      <trkpt lat="47.70292" lon="-2.28801">
        <ele>42.9</ele>
        <time>2021-05-27T12:50:55Z</time>
      </trkpt>
      <trkpt lat="47.70289" lon="-2.28796">
        <ele>43.3</ele>
        <time>2021-05-27T12:50:56Z</time>
      </trkpt>
      <trkpt lat="47.70287" lon="-2.28791">
        <ele>43.7</ele>
        <time>2021-05-27T12:50:57Z</time>
      </trkpt>
      <trkpt lat="47.70285" lon="-2.28787">
        <ele>44.1</ele>
        <time>2021-05-27T12:50:58Z</time>
      </trkpt>
      <trkpt lat="47.70282" lon="-2.28782">
        <ele>44.5</ele>
        <time>2021-05-27T12:50:59Z</time>
      </trkpt>
      <trkpt lat="47.7028" lon="-2.28778">
        <ele>44.8</ele>
        <time>2021-05-27T12:51:00Z</time>
      </trkpt>
      <trkpt lat="47.70278" lon="-2.28773">
        <ele>45</ele>
        <time>2021-05-27T12:51:01Z</time>
      </trkpt>
      <trkpt lat="47.70275" lon="-2.28768">
        <ele>45.5</ele>
        <time>2021-05-27T12:51:02Z</time>
      </trkpt>
      <trkpt lat="47.70273" lon="-2.28764">
        <ele>45.8</ele>
        <time>2021-05-27T12:51:03Z</time>
      </trkpt>
      <trkpt lat="47.70272" lon="-2.28759">
        <ele>46</ele>
        <time>2021-05-27T12:51:04Z</time>
      </trkpt>
      <trkpt lat="47.7027" lon="-2.28755">
        <ele>46.3</ele>
        <time>2021-05-27T12:51:05Z</time>
      </trkpt>
      <trkpt lat="47.70268" lon="-2.28751">
        <ele>46.6</ele>
        <time>2021-05-27T12:51:06Z</time>
      </trkpt>
      <trkpt lat="47.70265" lon="-2.28746">
        <ele>47.2</ele>
        <time>2021-05-27T12:51:07Z</time>
      </trkpt>
      <trkpt lat="47.70262" lon="-2.28743">
        <ele>47.8</ele>
        <time>2021-05-27T12:51:08Z</time>
      </trkpt>
      <trkpt lat="47.7026" lon="-2.28738">
        <ele>48.1</ele>
        <time>2021-05-27T12:51:09Z</time>
      </trkpt>
      <trkpt lat="47.70258" lon="-2.28734">
        <ele>48.5</ele>
        <time>2021-05-27T12:51:10Z</time>
      </trkpt>
      <trkpt lat="47.70256" lon="-2.2873">
        <ele>48.8</ele>
        <time>2021-05-27T12:51:11Z</time>
      </trkpt>
      <trkpt lat="47.70254" lon="-2.28726">
        <ele>49.1</ele>
        <time>2021-05-27T12:51:12Z</time>
      </trkpt>
      <trkpt lat="47.70252" lon="-2.28722">
        <ele>49.5</ele>
        <time>2021-05-27T12:51:13Z</time>
      </trkpt>
      <trkpt lat="47.7025" lon="-2.28717">
        <ele>49.8</ele>
        <time>2021-05-27T12:51:14Z</time>
      </trkpt>
      <trkpt lat="47.70248" lon="-2.28713">
        <ele>50.1</ele>
        <time>2021-05-27T12:51:15Z</time>
      </trkpt>
      <trkpt lat="47.70247" lon="-2.28708">
        <ele>50.3</ele>
        <time>2021-05-27T12:51:16Z</time>
      </trkpt>
      <trkpt lat="47.70246" lon="-2.28704">
        <ele>50.5</ele>
        <time>2021-05-27T12:51:17Z</time>
      </trkpt>
      <trkpt lat="47.70245" lon="-2.28699">
        <ele>50.5</ele>
        <time>2021-05-27T12:51:18Z</time>
      </trkpt>
      <trkpt lat="47.70244" lon="-2.28695">
        <ele>50.6</ele>
        <time>2021-05-27T12:51:19Z</time>
      </trkpt>
      <trkpt lat="47.70243" lon="-2.28691">
        <ele>50.7</ele>
        <time>2021-05-27T12:51:20Z</time>
      </trkpt>
      <trkpt lat="47.70242" lon="-2.28687">
        <ele>50.7</ele>
        <time>2021-05-27T12:51:21Z</time>
      </trkpt>
      <trkpt lat="47.70242" lon="-2.28683">
        <ele>50.8</ele>
        <time>2021-05-27T12:51:22Z</time>
      </trkpt>
      <trkpt lat="47.70241" lon="-2.28678">
        <ele>50.7</ele>
        <time>2021-05-27T12:51:23Z</time>
      </trkpt>
      <trkpt lat="47.70241" lon="-2.28673">
        <ele>50.5</ele>
        <time>2021-05-27T12:51:24Z</time>
      </trkpt>
      <trkpt lat="47.70241" lon="-2.28667">
        <ele>50.4</ele>
        <time>2021-05-27T12:51:25Z</time>
      </trkpt>
      <trkpt lat="47.70241" lon="-2.28662">
        <ele>50.7</ele>
        <time>2021-05-27T12:51:26Z</time>
      </trkpt>
      <trkpt lat="47.70242" lon="-2.28657">
        <ele>50.9</ele>
        <time>2021-05-27T12:51:27Z</time>
      </trkpt>
      <trkpt lat="47.70242" lon="-2.28652">
        <ele>51.1</ele>
        <time>2021-05-27T12:51:28Z</time>
      </trkpt>
      <trkpt lat="47.70242" lon="-2.28647">
        <ele>51.3</ele>
        <time>2021-05-27T12:51:29Z</time>
      </trkpt>
      <trkpt lat="47.70243" lon="-2.28643">
        <ele>51.5</ele>
        <time>2021-05-27T12:51:30Z</time>
      </trkpt>
      <trkpt lat="47.70243" lon="-2.28637">
        <ele>51.9</ele>
        <time>2021-05-27T12:51:31Z</time>
      </trkpt>
      <trkpt lat="47.70243" lon="-2.28632">
        <ele>52.2</ele>
        <time>2021-05-27T12:51:32Z</time>
      </trkpt>
      <trkpt lat="47.70243" lon="-2.28627">
        <ele>52.6</ele>
        <time>2021-05-27T12:51:33Z</time>
      </trkpt>
      <trkpt lat="47.70243" lon="-2.28621">
        <ele>52.8</ele>
        <time>2021-05-27T12:51:34Z</time>
      </trkpt>
      <trkpt lat="47.70243" lon="-2.28617">
        <ele>53.1</ele>
        <time>2021-05-27T12:51:35Z</time>
      </trkpt>
      <trkpt lat="47.70244" lon="-2.28612">
        <ele>53.3</ele>
        <time>2021-05-27T12:51:36Z</time>
      </trkpt>
      <trkpt lat="47.70244" lon="-2.28607">
        <ele>53.6</ele>
        <time>2021-05-27T12:51:37Z</time>
      </trkpt>
      <trkpt lat="47.70245" lon="-2.28602">
        <ele>53.7</ele>
        <time>2021-05-27T12:51:38Z</time>
      </trkpt>
      <trkpt lat="47.70246" lon="-2.28597">
        <ele>53.7</ele>
        <time>2021-05-27T12:51:39Z</time>
      </trkpt>
      <trkpt lat="47.70249" lon="-2.28593">
        <ele>53.6</ele>
        <time>2021-05-27T12:51:40Z</time>
      </trkpt>
      <trkpt lat="47.70251" lon="-2.28589">
        <ele>53.3</ele>
        <time>2021-05-27T12:51:41Z</time>
      </trkpt>
      <trkpt lat="47.70254" lon="-2.28585">
        <ele>52.8</ele>
        <time>2021-05-27T12:51:42Z</time>
      </trkpt>
      <trkpt lat="47.70257" lon="-2.28581">
        <ele>51.8</ele>
        <time>2021-05-27T12:51:43Z</time>
      </trkpt>
      <trkpt lat="47.70262" lon="-2.28577">
        <ele>50.5</ele>
        <time>2021-05-27T12:51:44Z</time>
      </trkpt>
      <trkpt lat="47.70266" lon="-2.28573">
        <ele>49.2</ele>
        <time>2021-05-27T12:51:45Z</time>
      </trkpt>
      <trkpt lat="47.7027" lon="-2.28568">
        <ele>48.2</ele>
        <time>2021-05-27T12:51:46Z</time>
      </trkpt>
      <trkpt lat="47.70273" lon="-2.28562">
        <ele>47.3</ele>
        <time>2021-05-27T12:51:47Z</time>
      </trkpt>
      <trkpt lat="47.70276" lon="-2.28555">
        <ele>46.6</ele>
        <time>2021-05-27T12:51:48Z</time>
      </trkpt>
      <trkpt lat="47.70277" lon="-2.28548">
        <ele>46.3</ele>
        <time>2021-05-27T12:51:49Z</time>
      </trkpt>
      <trkpt lat="47.70278" lon="-2.28542">
        <ele>46.2</ele>
        <time>2021-05-27T12:51:50Z</time>
      </trkpt>
      <trkpt lat="47.70277" lon="-2.28535">
        <ele>46.4</ele>
        <time>2021-05-27T12:51:51Z</time>
      </trkpt>
      <trkpt lat="47.70277" lon="-2.28528">
        <ele>46.6</ele>
        <time>2021-05-27T12:51:52Z</time>
      </trkpt>
      <trkpt lat="47.70277" lon="-2.28521">
        <ele>46.6</ele>
        <time>2021-05-27T12:51:53Z</time>
      </trkpt>
      <trkpt lat="47.70277" lon="-2.28515">
        <ele>46.8</ele>
        <time>2021-05-27T12:51:54Z</time>
      </trkpt>
      <trkpt lat="47.70275" lon="-2.28509">
        <ele>47.5</ele>
        <time>2021-05-27T12:51:55Z</time>
      </trkpt>
      <trkpt lat="47.70273" lon="-2.28505">
        <ele>47.9</ele>
        <time>2021-05-27T12:51:56Z</time>
      </trkpt>
      <trkpt lat="47.70273" lon="-2.28502">
        <ele>48.1</ele>
        <time>2021-05-27T12:51:57Z</time>
      </trkpt>
      <trkpt lat="47.70272" lon="-2.28498">
        <ele>48.3</ele>
        <time>2021-05-27T12:51:58Z</time>
      </trkpt>
      <trkpt lat="47.70272" lon="-2.28495">
        <ele>48.3</ele>
        <time>2021-05-27T12:51:59Z</time>
      </trkpt>
      <trkpt lat="47.70272" lon="-2.28492">
        <ele>48.1</ele>
        <time>2021-05-27T12:52:00Z</time>
      </trkpt>
      <trkpt lat="47.70272" lon="-2.28489">
        <ele>48</ele>
        <time>2021-05-27T12:52:01Z</time>
      </trkpt>
      <trkpt lat="47.70271" lon="-2.28486">
        <ele>48.1</ele>
        <time>2021-05-27T12:52:02Z</time>
      </trkpt>
      <trkpt lat="47.70271" lon="-2.28483">
        <ele>48</ele>
        <time>2021-05-27T12:52:03Z</time>
      </trkpt>
      <trkpt lat="47.70273" lon="-2.2848">
        <ele>47.4</ele>
        <time>2021-05-27T12:52:04Z</time>
      </trkpt>
      <trkpt lat="47.70275" lon="-2.28478">
        <ele>46.8</ele>
        <time>2021-05-27T12:52:05Z</time>
      </trkpt>
      <trkpt lat="47.70276" lon="-2.28474">
        <ele>46.2</ele>
        <time>2021-05-27T12:52:06Z</time>
      </trkpt>
      <trkpt lat="47.70276" lon="-2.28469">
        <ele>46</ele>
        <time>2021-05-27T12:52:07Z</time>
      </trkpt>
      <trkpt lat="47.70276" lon="-2.28464">
        <ele>45.9</ele>
        <time>2021-05-27T12:52:08Z</time>
      </trkpt>
      <trkpt lat="47.70276" lon="-2.2846">
        <ele>45.8</ele>
        <time>2021-05-27T12:52:09Z</time>
      </trkpt>
      <trkpt lat="47.70276" lon="-2.28456">
        <ele>45.7</ele>
        <time>2021-05-27T12:52:10Z</time>
      </trkpt>
      <trkpt lat="47.70275" lon="-2.28451">
        <ele>45.6</ele>
        <time>2021-05-27T12:52:11Z</time>
      </trkpt>
      <trkpt lat="47.70275" lon="-2.28447">
        <ele>45.6</ele>
        <time>2021-05-27T12:52:12Z</time>
      </trkpt>
      <trkpt lat="47.70274" lon="-2.28443">
        <ele>45.6</ele>
        <time>2021-05-27T12:52:13Z</time>
      </trkpt>
      <trkpt lat="47.70274" lon="-2.28439">
        <ele>45.6</ele>
        <time>2021-05-27T12:52:14Z</time>
      </trkpt>
      <trkpt lat="47.70273" lon="-2.28435">
        <ele>45.7</ele>
        <time>2021-05-27T12:52:15Z</time>
      </trkpt>
      <trkpt lat="47.70272" lon="-2.28431">
        <ele>45.6</ele>
        <time>2021-05-27T12:52:16Z</time>
      </trkpt>
      <trkpt lat="47.70272" lon="-2.28427">
        <ele>45.7</ele>
        <time>2021-05-27T12:52:17Z</time>
      </trkpt>
      <trkpt lat="47.70271" lon="-2.28423">
        <ele>45.8</ele>
        <time>2021-05-27T12:52:18Z</time>
      </trkpt>
      <trkpt lat="47.7027" lon="-2.28419">
        <ele>45.9</ele>
        <time>2021-05-27T12:52:19Z</time>
      </trkpt>
      <trkpt lat="47.70269" lon="-2.28415">
        <ele>45.8</ele>
        <time>2021-05-27T12:52:20Z</time>
      </trkpt>
      <trkpt lat="47.70268" lon="-2.28411">
        <ele>45.9</ele>
        <time>2021-05-27T12:52:21Z</time>
      </trkpt>
      <trkpt lat="47.70268" lon="-2.28407">
        <ele>45.9</ele>
        <time>2021-05-27T12:52:22Z</time>
      </trkpt>
      <trkpt lat="47.70267" lon="-2.28404">
        <ele>46</ele>
        <time>2021-05-27T12:52:23Z</time>
      </trkpt>
      <trkpt lat="47.70266" lon="-2.284">
        <ele>46.1</ele>
        <time>2021-05-27T12:52:24Z</time>
      </trkpt>
      <trkpt lat="47.70265" lon="-2.28397">
        <ele>46.3</ele>
        <time>2021-05-27T12:52:25Z</time>
      </trkpt>
      <trkpt lat="47.70264" lon="-2.28394">
        <ele>46.3</ele>
        <time>2021-05-27T12:52:26Z</time>
      </trkpt>
      <trkpt lat="47.70264" lon="-2.2839">
        <ele>46.3</ele>
        <time>2021-05-27T12:52:27Z</time>
      </trkpt>
      <trkpt lat="47.70263" lon="-2.28387">
        <ele>46.2</ele>
        <time>2021-05-27T12:52:28Z</time>
      </trkpt>
      <trkpt lat="47.70263" lon="-2.28384">
        <ele>46.3</ele>
        <time>2021-05-27T12:52:29Z</time>
      </trkpt>
      <trkpt lat="47.70262" lon="-2.28381">
        <ele>46.4</ele>
        <time>2021-05-27T12:52:30Z</time>
      </trkpt>
      <trkpt lat="47.70261" lon="-2.28378">
        <ele>46.4</ele>
        <time>2021-05-27T12:52:31Z</time>
      </trkpt>
      <trkpt lat="47.7026" lon="-2.28375">
        <ele>46.6</ele>
        <time>2021-05-27T12:52:32Z</time>
      </trkpt>
      <trkpt lat="47.70259" lon="-2.28372">
        <ele>46.6</ele>
        <time>2021-05-27T12:52:33Z</time>
      </trkpt>
      <trkpt lat="47.70259" lon="-2.28369">
        <ele>46.6</ele>
        <time>2021-05-27T12:52:34Z</time>
      </trkpt>
      <trkpt lat="47.70259" lon="-2.28365">
        <ele>46.5</ele>
        <time>2021-05-27T12:52:35Z</time>
      </trkpt>
      <trkpt lat="47.70258" lon="-2.28362">
        <ele>46.4</ele>
        <time>2021-05-27T12:52:36Z</time>
      </trkpt>
      <trkpt lat="47.70258" lon="-2.28358">
        <ele>46.4</ele>
        <time>2021-05-27T12:52:37Z</time>
      </trkpt>
      <trkpt lat="47.70258" lon="-2.28355">
        <ele>46.3</ele>
        <time>2021-05-27T12:52:38Z</time>
      </trkpt>
      <trkpt lat="47.70257" lon="-2.28352">
        <ele>46.3</ele>
        <time>2021-05-27T12:52:39Z</time>
      </trkpt>
      <trkpt lat="47.70257" lon="-2.28348">
        <ele>46.2</ele>
        <time>2021-05-27T12:52:40Z</time>
      </trkpt>
      <trkpt lat="47.70256" lon="-2.28345">
        <ele>46.2</ele>
        <time>2021-05-27T12:52:41Z</time>
      </trkpt>
      <trkpt lat="47.70256" lon="-2.28342">
        <ele>46.1</ele>
        <time>2021-05-27T12:52:42Z</time>
      </trkpt>
      <trkpt lat="47.70256" lon="-2.28339">
        <ele>46</ele>
        <time>2021-05-27T12:52:43Z</time>
      </trkpt>
      <trkpt lat="47.70256" lon="-2.28338">
        <ele>46</ele>
        <time>2021-05-27T12:52:44Z</time>
      </trkpt>
      <trkpt lat="47.70255" lon="-2.28338">
        <ele>46</ele>
        <time>2021-05-27T12:52:45Z</time>
      </trkpt>
      <trkpt lat="47.70255" lon="-2.28338">
        <ele>46</ele>
        <time>2021-05-27T12:52:46Z</time>
      </trkpt>
      <trkpt lat="47.70255" lon="-2.28338">
        <ele>46</ele>
        <time>2021-05-27T12:52:47Z</time>
      </trkpt>
      <trkpt lat="47.70255" lon="-2.28338">
        <ele>46</ele>
        <time>2021-05-27T12:52:48Z</time>
      </trkpt>
      <trkpt lat="47.70255" lon="-2.28338">
        <ele>46</ele>
        <time>2021-05-27T12:52:49Z</time>
      </trkpt>
      <trkpt lat="47.70255" lon="-2.28338">
        <ele>46</ele>
        <time>2021-05-27T12:52:50Z</time>
      </trkpt>
      <trkpt lat="47.70251" lon="-2.28334">
        <ele>46.8</ele>
        <time>2021-05-27T12:52:51Z</time>
      </trkpt>
      <trkpt lat="47.7025" lon="-2.28334">
        <ele>47.1</ele>
        <time>2021-05-27T12:52:52Z</time>
      </trkpt>
      <trkpt lat="47.70249" lon="-2.28332">
        <ele>47.3</ele>
        <time>2021-05-27T12:52:53Z</time>
      </trkpt>
      <trkpt lat="47.70248" lon="-2.28331">
        <ele>47.5</ele>
        <time>2021-05-27T12:52:54Z</time>
      </trkpt>
      <trkpt lat="47.70247" lon="-2.28329">
        <ele>47.7</ele>
        <time>2021-05-27T12:52:55Z</time>
      </trkpt>
      <trkpt lat="47.70246" lon="-2.28328">
        <ele>47.9</ele>
        <time>2021-05-27T12:52:56Z</time>
      </trkpt>
      <trkpt lat="47.70246" lon="-2.28328">
        <ele>48</ele>
        <time>2021-05-27T12:52:57Z</time>
      </trkpt>
      <trkpt lat="47.70245" lon="-2.28327">
        <ele>48.1</ele>
        <time>2021-05-27T12:52:58Z</time>
      </trkpt>
      <trkpt lat="47.70245" lon="-2.28326">
        <ele>48.2</ele>
        <time>2021-05-27T12:52:59Z</time>
      </trkpt>
      <trkpt lat="47.70245" lon="-2.28326">
        <ele>48.2</ele>
        <time>2021-05-27T12:53:00Z</time>
      </trkpt>
      <trkpt lat="47.70245" lon="-2.28326">
        <ele>48.2</ele>
        <time>2021-05-27T12:53:01Z</time>
      </trkpt>
      <trkpt lat="47.70245" lon="-2.28326">
        <ele>48.2</ele>
        <time>2021-05-27T12:53:02Z</time>
      </trkpt>
      <trkpt lat="47.70245" lon="-2.28326">
        <ele>48.2</ele>
        <time>2021-05-27T12:53:03Z</time>
      </trkpt>
      <trkpt lat="47.70245" lon="-2.28326">
        <ele>48.2</ele>
        <time>2021-05-27T12:53:04Z</time>
      </trkpt>
      <trkpt lat="47.70245" lon="-2.28326">
        <ele>48.2</ele>
        <time>2021-05-27T12:53:05Z</time>
      </trkpt>
      <trkpt lat="47.70244" lon="-2.28315">
        <ele>48.2</ele>
        <time>2021-05-27T12:53:06Z</time>
      </trkpt>
      <trkpt lat="47.70244" lon="-2.28312">
        <ele>48.1</ele>
        <time>2021-05-27T12:53:07Z</time>
      </trkpt>
      <trkpt lat="47.70244" lon="-2.28309">
        <ele>48.1</ele>
        <time>2021-05-27T12:53:08Z</time>
      </trkpt>
      <trkpt lat="47.70243" lon="-2.28306">
        <ele>48.2</ele>
        <time>2021-05-27T12:53:09Z</time>
      </trkpt>
      <trkpt lat="47.70243" lon="-2.28304">
        <ele>48.1</ele>
        <time>2021-05-27T12:53:10Z</time>
      </trkpt>
      <trkpt lat="47.70243" lon="-2.28301">
        <ele>48.1</ele>
        <time>2021-05-27T12:53:11Z</time>
      </trkpt>
      <trkpt lat="47.70243" lon="-2.28299">
        <ele>48</ele>
        <time>2021-05-27T12:53:12Z</time>
      </trkpt>
      <trkpt lat="47.70243" lon="-2.28295">
        <ele>48.1</ele>
        <time>2021-05-27T12:53:13Z</time>
      </trkpt>
      <trkpt lat="47.70243" lon="-2.28292">
        <ele>48</ele>
        <time>2021-05-27T12:53:14Z</time>
      </trkpt>
      <trkpt lat="47.70243" lon="-2.28289">
        <ele>47.8</ele>
        <time>2021-05-27T12:53:15Z</time>
      </trkpt>
      <trkpt lat="47.70243" lon="-2.28283">
        <ele>47.7</ele>
        <time>2021-05-27T12:53:16Z</time>
      </trkpt>
      <trkpt lat="47.70242" lon="-2.28278">
        <ele>47.8</ele>
        <time>2021-05-27T12:53:17Z</time>
      </trkpt>
      <trkpt lat="47.70241" lon="-2.28272">
        <ele>48.1</ele>
        <time>2021-05-27T12:53:18Z</time>
      </trkpt>
      <trkpt lat="47.7024" lon="-2.28267">
        <ele>48.3</ele>
        <time>2021-05-27T12:53:19Z</time>
      </trkpt>
      <trkpt lat="47.70239" lon="-2.28262">
        <ele>48.3</ele>
        <time>2021-05-27T12:53:20Z</time>
      </trkpt>
      <trkpt lat="47.70238" lon="-2.28258">
        <ele>48.5</ele>
        <time>2021-05-27T12:53:21Z</time>
      </trkpt>
      <trkpt lat="47.70238" lon="-2.28254">
        <ele>48.5</ele>
        <time>2021-05-27T12:53:22Z</time>
      </trkpt>
      <trkpt lat="47.70236" lon="-2.2825">
        <ele>48.8</ele>
        <time>2021-05-27T12:53:23Z</time>
      </trkpt>
      <trkpt lat="47.70235" lon="-2.28246">
        <ele>49.1</ele>
        <time>2021-05-27T12:53:24Z</time>
      </trkpt>
      <trkpt lat="47.70233" lon="-2.2824">
        <ele>49.6</ele>
        <time>2021-05-27T12:53:25Z</time>
      </trkpt>
      <trkpt lat="47.70231" lon="-2.28236">
        <ele>50</ele>
        <time>2021-05-27T12:53:26Z</time>
      </trkpt>
      <trkpt lat="47.70228" lon="-2.2823">
        <ele>50.7</ele>
        <time>2021-05-27T12:53:27Z</time>
      </trkpt>
      <trkpt lat="47.70226" lon="-2.28225">
        <ele>51</ele>
        <time>2021-05-27T12:53:28Z</time>
      </trkpt>
      <trkpt lat="47.70225" lon="-2.2822">
        <ele>51.1</ele>
        <time>2021-05-27T12:53:29Z</time>
      </trkpt>
      <trkpt lat="47.70223" lon="-2.28214">
        <ele>51.5</ele>
        <time>2021-05-27T12:53:30Z</time>
      </trkpt>
      <trkpt lat="47.70222" lon="-2.28209">
        <ele>51.7</ele>
        <time>2021-05-27T12:53:31Z</time>
      </trkpt>
      <trkpt lat="47.70222" lon="-2.28205">
        <ele>51.8</ele>
        <time>2021-05-27T12:53:32Z</time>
      </trkpt>
      <trkpt lat="47.70221" lon="-2.28201">
        <ele>51.9</ele>
        <time>2021-05-27T12:53:33Z</time>
      </trkpt>
      <trkpt lat="47.7022" lon="-2.28197">
        <ele>51.8</ele>
        <time>2021-05-27T12:53:34Z</time>
      </trkpt>
      <trkpt lat="47.70219" lon="-2.28194">
        <ele>52</ele>
        <time>2021-05-27T12:53:35Z</time>
      </trkpt>
      <trkpt lat="47.70218" lon="-2.28189">
        <ele>52.2</ele>
        <time>2021-05-27T12:53:36Z</time>
      </trkpt>
      <trkpt lat="47.70218" lon="-2.28185">
        <ele>52.2</ele>
        <time>2021-05-27T12:53:37Z</time>
      </trkpt>
      <trkpt lat="47.70218" lon="-2.28182">
        <ele>52.1</ele>
        <time>2021-05-27T12:53:38Z</time>
      </trkpt>
      <trkpt lat="47.70217" lon="-2.28179">
        <ele>52.2</ele>
        <time>2021-05-27T12:53:39Z</time>
      </trkpt>
      <trkpt lat="47.70216" lon="-2.28174">
        <ele>52.4</ele>
        <time>2021-05-27T12:53:40Z</time>
      </trkpt>
      <trkpt lat="47.70215" lon="-2.28169">
        <ele>52.5</ele>
        <time>2021-05-27T12:53:41Z</time>
      </trkpt>
      <trkpt lat="47.70213" lon="-2.28163">
        <ele>52.7</ele>
        <time>2021-05-27T12:53:42Z</time>
      </trkpt>
      <trkpt lat="47.70213" lon="-2.28157">
        <ele>52.6</ele>
        <time>2021-05-27T12:53:43Z</time>
      </trkpt>
      <trkpt lat="47.70212" lon="-2.28151">
        <ele>52.6</ele>
        <time>2021-05-27T12:53:44Z</time>
      </trkpt>
      <trkpt lat="47.70211" lon="-2.28145">
        <ele>52.7</ele>
        <time>2021-05-27T12:53:45Z</time>
      </trkpt>
      <trkpt lat="47.7021" lon="-2.28139">
        <ele>52.8</ele>
        <time>2021-05-27T12:53:46Z</time>
      </trkpt>
      <trkpt lat="47.70209" lon="-2.28134">
        <ele>53</ele>
        <time>2021-05-27T12:53:47Z</time>
      </trkpt>
      <trkpt lat="47.70207" lon="-2.28129">
        <ele>53.1</ele>
        <time>2021-05-27T12:53:48Z</time>
      </trkpt>
      <trkpt lat="47.70207" lon="-2.28125">
        <ele>53.1</ele>
        <time>2021-05-27T12:53:49Z</time>
      </trkpt>
      <trkpt lat="47.70206" lon="-2.2812">
        <ele>53.1</ele>
        <time>2021-05-27T12:53:50Z</time>
      </trkpt>
      <trkpt lat="47.70205" lon="-2.28117">
        <ele>53.4</ele>
        <time>2021-05-27T12:53:51Z</time>
      </trkpt>
      <trkpt lat="47.70204" lon="-2.28114">
        <ele>53.6</ele>
        <time>2021-05-27T12:53:52Z</time>
      </trkpt>
      <trkpt lat="47.70202" lon="-2.2811">
        <ele>53.9</ele>
        <time>2021-05-27T12:53:53Z</time>
      </trkpt>
      <trkpt lat="47.702" lon="-2.28106">
        <ele>54.3</ele>
        <time>2021-05-27T12:53:54Z</time>
      </trkpt>
      <trkpt lat="47.70198" lon="-2.28103">
        <ele>54.7</ele>
        <time>2021-05-27T12:53:55Z</time>
      </trkpt>
      <trkpt lat="47.70197" lon="-2.281">
        <ele>54.8</ele>
        <time>2021-05-27T12:53:56Z</time>
      </trkpt>
      <trkpt lat="47.70197" lon="-2.28098">
        <ele>54.8</ele>
        <time>2021-05-27T12:53:57Z</time>
      </trkpt>
      <trkpt lat="47.70195" lon="-2.28095">
        <ele>55.2</ele>
        <time>2021-05-27T12:53:58Z</time>
      </trkpt>
      <trkpt lat="47.70193" lon="-2.28094">
        <ele>55.6</ele>
        <time>2021-05-27T12:53:59Z</time>
      </trkpt>
      <trkpt lat="47.70191" lon="-2.28092">
        <ele>56.1</ele>
        <time>2021-05-27T12:54:00Z</time>
      </trkpt>
      <trkpt lat="47.70189" lon="-2.28089">
        <ele>56.5</ele>
        <time>2021-05-27T12:54:01Z</time>
      </trkpt>
      <trkpt lat="47.70187" lon="-2.28087">
        <ele>57</ele>
        <time>2021-05-27T12:54:02Z</time>
      </trkpt>
      <trkpt lat="47.70186" lon="-2.28083">
        <ele>57.2</ele>
        <time>2021-05-27T12:54:03Z</time>
      </trkpt>
      <trkpt lat="47.70184" lon="-2.28079">
        <ele>57.4</ele>
        <time>2021-05-27T12:54:04Z</time>
      </trkpt>
      <trkpt lat="47.70183" lon="-2.28077">
        <ele>57.7</ele>
        <time>2021-05-27T12:54:05Z</time>
      </trkpt>
      <trkpt lat="47.70182" lon="-2.28073">
        <ele>57.9</ele>
        <time>2021-05-27T12:54:06Z</time>
      </trkpt>
      <trkpt lat="47.7018" lon="-2.2807">
        <ele>58.2</ele>
        <time>2021-05-27T12:54:07Z</time>
      </trkpt>
      <trkpt lat="47.70179" lon="-2.28068">
        <ele>58.5</ele>
        <time>2021-05-27T12:54:08Z</time>
      </trkpt>
      <trkpt lat="47.70178" lon="-2.28065">
        <ele>58.6</ele>
        <time>2021-05-27T12:54:09Z</time>
      </trkpt>
      <trkpt lat="47.70177" lon="-2.28063">
        <ele>58.9</ele>
        <time>2021-05-27T12:54:10Z</time>
      </trkpt>
      <trkpt lat="47.70177" lon="-2.2806">
        <ele>58.9</ele>
        <time>2021-05-27T12:54:11Z</time>
      </trkpt>
      <trkpt lat="47.70176" lon="-2.28058">
        <ele>59</ele>
        <time>2021-05-27T12:54:12Z</time>
      </trkpt>
      <trkpt lat="47.70176" lon="-2.28056">
        <ele>59</ele>
        <time>2021-05-27T12:54:13Z</time>
      </trkpt>
      <trkpt lat="47.70176" lon="-2.28054">
        <ele>59</ele>
        <time>2021-05-27T12:54:14Z</time>
      </trkpt>
      <trkpt lat="47.70175" lon="-2.28051">
        <ele>59</ele>
        <time>2021-05-27T12:54:15Z</time>
      </trkpt>
      <trkpt lat="47.70174" lon="-2.28049">
        <ele>59.2</ele>
        <time>2021-05-27T12:54:16Z</time>
      </trkpt>
      <trkpt lat="47.70173" lon="-2.28047">
        <ele>59.4</ele>
        <time>2021-05-27T12:54:17Z</time>
      </trkpt>
      <trkpt lat="47.70172" lon="-2.28045">
        <ele>59.7</ele>
        <time>2021-05-27T12:54:18Z</time>
      </trkpt>
      <trkpt lat="47.70171" lon="-2.28044">
        <ele>59.9</ele>
        <time>2021-05-27T12:54:19Z</time>
      </trkpt>
      <trkpt lat="47.7017" lon="-2.28043">
        <ele>60.1</ele>
        <time>2021-05-27T12:54:20Z</time>
      </trkpt>
      <trkpt lat="47.70169" lon="-2.28041">
        <ele>60.5</ele>
        <time>2021-05-27T12:54:21Z</time>
      </trkpt>
      <trkpt lat="47.70168" lon="-2.28038">
        <ele>60.5</ele>
        <time>2021-05-27T12:54:22Z</time>
      </trkpt>
      <trkpt lat="47.70168" lon="-2.28035">
        <ele>60.5</ele>
        <time>2021-05-27T12:54:23Z</time>
      </trkpt>
      <trkpt lat="47.70168" lon="-2.28033">
        <ele>60.4</ele>
        <time>2021-05-27T12:54:24Z</time>
      </trkpt>
      <trkpt lat="47.70168" lon="-2.2803">
        <ele>60.3</ele>
        <time>2021-05-27T12:54:25Z</time>
      </trkpt>
      <trkpt lat="47.70167" lon="-2.28027">
        <ele>60.4</ele>
        <time>2021-05-27T12:54:26Z</time>
      </trkpt>
      <trkpt lat="47.70167" lon="-2.28026">
        <ele>60.7</ele>
        <time>2021-05-27T12:54:27Z</time>
      </trkpt>
      <trkpt lat="47.70166" lon="-2.28024">
        <ele>60.8</ele>
        <time>2021-05-27T12:54:28Z</time>
      </trkpt>
      <trkpt lat="47.70164" lon="-2.28022">
        <ele>61</ele>
        <time>2021-05-27T12:54:29Z</time>
      </trkpt>
      <trkpt lat="47.70163" lon="-2.2802">
        <ele>61</ele>
        <time>2021-05-27T12:54:30Z</time>
      </trkpt>
      <trkpt lat="47.70163" lon="-2.28017">
        <ele>61</ele>
        <time>2021-05-27T12:54:31Z</time>
      </trkpt>
      <trkpt lat="47.70162" lon="-2.28015">
        <ele>61.2</ele>
        <time>2021-05-27T12:54:32Z</time>
      </trkpt>
      <trkpt lat="47.70161" lon="-2.28013">
        <ele>61.2</ele>
        <time>2021-05-27T12:54:33Z</time>
      </trkpt>
      <trkpt lat="47.7016" lon="-2.2801">
        <ele>61.3</ele>
        <time>2021-05-27T12:54:34Z</time>
      </trkpt>
      <trkpt lat="47.7016" lon="-2.28007">
        <ele>61.3</ele>
        <time>2021-05-27T12:54:35Z</time>
      </trkpt>
      <trkpt lat="47.7016" lon="-2.28006">
        <ele>61.3</ele>
        <time>2021-05-27T12:54:36Z</time>
      </trkpt>
      <trkpt lat="47.70159" lon="-2.28003">
        <ele>61.3</ele>
        <time>2021-05-27T12:54:37Z</time>
      </trkpt>
      <trkpt lat="47.70159" lon="-2.28">
        <ele>61.3</ele>
        <time>2021-05-27T12:54:38Z</time>
      </trkpt>
      <trkpt lat="47.70157" lon="-2.27997">
        <ele>61.4</ele>
        <time>2021-05-27T12:54:39Z</time>
      </trkpt>
      <trkpt lat="47.70157" lon="-2.27995">
        <ele>61.4</ele>
        <time>2021-05-27T12:54:40Z</time>
      </trkpt>
      <trkpt lat="47.70156" lon="-2.27992">
        <ele>61.5</ele>
        <time>2021-05-27T12:54:41Z</time>
      </trkpt>
      <trkpt lat="47.70154" lon="-2.2799">
        <ele>61.6</ele>
        <time>2021-05-27T12:54:42Z</time>
      </trkpt>
      <trkpt lat="47.70154" lon="-2.27988">
        <ele>61.7</ele>
        <time>2021-05-27T12:54:43Z</time>
      </trkpt>
      <trkpt lat="47.70152" lon="-2.27983">
        <ele>61.7</ele>
        <time>2021-05-27T12:54:44Z</time>
      </trkpt>
      <trkpt lat="47.70151" lon="-2.2798">
        <ele>61.8</ele>
        <time>2021-05-27T12:54:45Z</time>
      </trkpt>
      <trkpt lat="47.7015" lon="-2.27977">
        <ele>61.7</ele>
        <time>2021-05-27T12:54:46Z</time>
      </trkpt>
      <trkpt lat="47.70149" lon="-2.27974">
        <ele>61.9</ele>
        <time>2021-05-27T12:54:47Z</time>
      </trkpt>
      <trkpt lat="47.70147" lon="-2.2797">
        <ele>62</ele>
        <time>2021-05-27T12:54:48Z</time>
      </trkpt>
      <trkpt lat="47.70145" lon="-2.27967">
        <ele>62.2</ele>
        <time>2021-05-27T12:54:49Z</time>
      </trkpt>
      <trkpt lat="47.70144" lon="-2.27964">
        <ele>62.3</ele>
        <time>2021-05-27T12:54:50Z</time>
      </trkpt>
      <trkpt lat="47.70143" lon="-2.27962">
        <ele>62.5</ele>
        <time>2021-05-27T12:54:51Z</time>
      </trkpt>
      <trkpt lat="47.70141" lon="-2.27958">
        <ele>62.6</ele>
        <time>2021-05-27T12:54:52Z</time>
      </trkpt>
      <trkpt lat="47.7014" lon="-2.27956">
        <ele>62.7</ele>
        <time>2021-05-27T12:54:53Z</time>
      </trkpt>
      <trkpt lat="47.70139" lon="-2.27954">
        <ele>62.8</ele>
        <time>2021-05-27T12:54:54Z</time>
      </trkpt>
      <trkpt lat="47.70139" lon="-2.2795">
        <ele>62.7</ele>
        <time>2021-05-27T12:54:55Z</time>
      </trkpt>
      <trkpt lat="47.70138" lon="-2.27946">
        <ele>62.7</ele>
        <time>2021-05-27T12:54:56Z</time>
      </trkpt>
      <trkpt lat="47.70137" lon="-2.27943">
        <ele>62.8</ele>
        <time>2021-05-27T12:54:57Z</time>
      </trkpt>
      <trkpt lat="47.70136" lon="-2.27941">
        <ele>62.9</ele>
        <time>2021-05-27T12:54:58Z</time>
      </trkpt>
      <trkpt lat="47.70135" lon="-2.27938">
        <ele>62.9</ele>
        <time>2021-05-27T12:54:59Z</time>
      </trkpt>
      <trkpt lat="47.70133" lon="-2.27935">
        <ele>63.1</ele>
        <time>2021-05-27T12:55:00Z</time>
      </trkpt>
      <trkpt lat="47.70132" lon="-2.27931">
        <ele>63.3</ele>
        <time>2021-05-27T12:55:01Z</time>
      </trkpt>
      <trkpt lat="47.70131" lon="-2.27928">
        <ele>63.3</ele>
        <time>2021-05-27T12:55:02Z</time>
      </trkpt>
      <trkpt lat="47.7013" lon="-2.27924">
        <ele>63.3</ele>
        <time>2021-05-27T12:55:03Z</time>
      </trkpt>
      <trkpt lat="47.7013" lon="-2.27921">
        <ele>63.2</ele>
        <time>2021-05-27T12:55:04Z</time>
      </trkpt>
      <trkpt lat="47.70129" lon="-2.27918">
        <ele>63.3</ele>
        <time>2021-05-27T12:55:05Z</time>
      </trkpt>
      <trkpt lat="47.70128" lon="-2.27915">
        <ele>63.3</ele>
        <time>2021-05-27T12:55:06Z</time>
      </trkpt>
      <trkpt lat="47.70127" lon="-2.27911">
        <ele>63.4</ele>
        <time>2021-05-27T12:55:07Z</time>
      </trkpt>
      <trkpt lat="47.70125" lon="-2.27907">
        <ele>63.5</ele>
        <time>2021-05-27T12:55:08Z</time>
      </trkpt>
      <trkpt lat="47.70124" lon="-2.27902">
        <ele>63.6</ele>
        <time>2021-05-27T12:55:09Z</time>
      </trkpt>
      <trkpt lat="47.70123" lon="-2.27898">
        <ele>63.7</ele>
        <time>2021-05-27T12:55:10Z</time>
      </trkpt>
      <trkpt lat="47.70123" lon="-2.27896">
        <ele>63.7</ele>
        <time>2021-05-27T12:55:11Z</time>
      </trkpt>
      <trkpt lat="47.70122" lon="-2.27892">
        <ele>63.7</ele>
        <time>2021-05-27T12:55:12Z</time>
      </trkpt>
      <trkpt lat="47.70122" lon="-2.27889">
        <ele>63.7</ele>
        <time>2021-05-27T12:55:13Z</time>
      </trkpt>
      <trkpt lat="47.70121" lon="-2.27887">
        <ele>63.7</ele>
        <time>2021-05-27T12:55:14Z</time>
      </trkpt>
      <trkpt lat="47.70121" lon="-2.27883">
        <ele>63.6</ele>
        <time>2021-05-27T12:55:15Z</time>
      </trkpt>
      <trkpt lat="47.7012" lon="-2.27879">
        <ele>63.6</ele>
        <time>2021-05-27T12:55:16Z</time>
      </trkpt>
      <trkpt lat="47.70119" lon="-2.27875">
        <ele>63.8</ele>
        <time>2021-05-27T12:55:17Z</time>
      </trkpt>
      <trkpt lat="47.70118" lon="-2.27871">
        <ele>63.9</ele>
        <time>2021-05-27T12:55:18Z</time>
      </trkpt>
      <trkpt lat="47.70117" lon="-2.27867">
        <ele>64.1</ele>
        <time>2021-05-27T12:55:19Z</time>
      </trkpt>
      <trkpt lat="47.70115" lon="-2.27863">
        <ele>64.2</ele>
        <time>2021-05-27T12:55:20Z</time>
      </trkpt>
      <trkpt lat="47.70114" lon="-2.27859">
        <ele>64.4</ele>
        <time>2021-05-27T12:55:21Z</time>
      </trkpt>
      <trkpt lat="47.70112" lon="-2.27855">
        <ele>64.6</ele>
        <time>2021-05-27T12:55:22Z</time>
      </trkpt>
      <trkpt lat="47.70111" lon="-2.2785">
        <ele>64.7</ele>
        <time>2021-05-27T12:55:23Z</time>
      </trkpt>
      <trkpt lat="47.7011" lon="-2.27846">
        <ele>65.1</ele>
        <time>2021-05-27T12:55:24Z</time>
      </trkpt>
      <trkpt lat="47.70107" lon="-2.27842">
        <ele>65.5</ele>
        <time>2021-05-27T12:55:25Z</time>
      </trkpt>
      <trkpt lat="47.70104" lon="-2.27839">
        <ele>66</ele>
        <time>2021-05-27T12:55:26Z</time>
      </trkpt>
      <trkpt lat="47.70103" lon="-2.27835">
        <ele>66.4</ele>
        <time>2021-05-27T12:55:27Z</time>
      </trkpt>
      <trkpt lat="47.701" lon="-2.27832">
        <ele>67</ele>
        <time>2021-05-27T12:55:28Z</time>
      </trkpt>
      <trkpt lat="47.70098" lon="-2.27829">
        <ele>67.4</ele>
        <time>2021-05-27T12:55:29Z</time>
      </trkpt>
      <trkpt lat="47.70097" lon="-2.27828">
        <ele>67.8</ele>
        <time>2021-05-27T12:55:30Z</time>
      </trkpt>
      <trkpt lat="47.70094" lon="-2.27827">
        <ele>68.4</ele>
        <time>2021-05-27T12:55:31Z</time>
      </trkpt>
      <trkpt lat="47.70091" lon="-2.27826">
        <ele>68.9</ele>
        <time>2021-05-27T12:55:32Z</time>
      </trkpt>
      <trkpt lat="47.70089" lon="-2.27825">
        <ele>69.5</ele>
        <time>2021-05-27T12:55:33Z</time>
      </trkpt>
      <trkpt lat="47.70088" lon="-2.27825">
        <ele>69.9</ele>
        <time>2021-05-27T12:55:34Z</time>
      </trkpt>
      <trkpt lat="47.70086" lon="-2.27825">
        <ele>70.3</ele>
        <time>2021-05-27T12:55:35Z</time>
      </trkpt>
      <trkpt lat="47.70084" lon="-2.27825">
        <ele>70.9</ele>
        <time>2021-05-27T12:55:36Z</time>
      </trkpt>
      <trkpt lat="47.70082" lon="-2.27825">
        <ele>71</ele>
        <time>2021-05-27T12:55:37Z</time>
      </trkpt>
      <trkpt lat="47.70079" lon="-2.27825">
        <ele>71.1</ele>
        <time>2021-05-27T12:55:38Z</time>
      </trkpt>
      <trkpt lat="47.70076" lon="-2.27826">
        <ele>71.2</ele>
        <time>2021-05-27T12:55:39Z</time>
      </trkpt>
      <trkpt lat="47.70074" lon="-2.27826">
        <ele>71.3</ele>
        <time>2021-05-27T12:55:40Z</time>
      </trkpt>
      <trkpt lat="47.70071" lon="-2.27826">
        <ele>71.4</ele>
        <time>2021-05-27T12:55:41Z</time>
      </trkpt>
      <trkpt lat="47.70069" lon="-2.27828">
        <ele>71.5</ele>
        <time>2021-05-27T12:55:42Z</time>
      </trkpt>
      <trkpt lat="47.70067" lon="-2.27828">
        <ele>71.6</ele>
        <time>2021-05-27T12:55:43Z</time>
      </trkpt>
      <trkpt lat="47.70064" lon="-2.27829">
        <ele>71.7</ele>
        <time>2021-05-27T12:55:44Z</time>
      </trkpt>
      <trkpt lat="47.70062" lon="-2.27829">
        <ele>71.7</ele>
        <time>2021-05-27T12:55:45Z</time>
      </trkpt>
      <trkpt lat="47.7006" lon="-2.27829">
        <ele>71.8</ele>
        <time>2021-05-27T12:55:46Z</time>
      </trkpt>
      <trkpt lat="47.70059" lon="-2.27828">
        <ele>71.8</ele>
        <time>2021-05-27T12:55:47Z</time>
      </trkpt>
      <trkpt lat="47.70058" lon="-2.27828">
        <ele>71.9</ele>
        <time>2021-05-27T12:55:48Z</time>
      </trkpt>
      <trkpt lat="47.70057" lon="-2.27828">
        <ele>71.9</ele>
        <time>2021-05-27T12:55:49Z</time>
      </trkpt>
      <trkpt lat="47.70055" lon="-2.27828">
        <ele>72</ele>
        <time>2021-05-27T12:55:50Z</time>
      </trkpt>
      <trkpt lat="47.70053" lon="-2.27828">
        <ele>72.1</ele>
        <time>2021-05-27T12:55:51Z</time>
      </trkpt>
      <trkpt lat="47.7005" lon="-2.27828">
        <ele>72.2</ele>
        <time>2021-05-27T12:55:52Z</time>
      </trkpt>
      <trkpt lat="47.70048" lon="-2.27829">
        <ele>72.3</ele>
        <time>2021-05-27T12:55:53Z</time>
      </trkpt>
      <trkpt lat="47.70047" lon="-2.2783">
        <ele>72.3</ele>
        <time>2021-05-27T12:55:54Z</time>
      </trkpt>
      <trkpt lat="47.70047" lon="-2.27829">
        <ele>72.3</ele>
        <time>2021-05-27T12:55:55Z</time>
      </trkpt>
      <trkpt lat="47.70046" lon="-2.27829">
        <ele>72.3</ele>
        <time>2021-05-27T12:55:56Z</time>
      </trkpt>
      <trkpt lat="47.70046" lon="-2.27829">
        <ele>72.3</ele>
        <time>2021-05-27T12:55:57Z</time>
      </trkpt>
      <trkpt lat="47.70046" lon="-2.27829">
        <ele>72.3</ele>
        <time>2021-05-27T12:55:58Z</time>
      </trkpt>
      <trkpt lat="47.70046" lon="-2.27829">
        <ele>72.3</ele>
        <time>2021-05-27T12:55:59Z</time>
      </trkpt>
      <trkpt lat="47.70046" lon="-2.27829">
        <ele>72.3</ele>
        <time>2021-05-27T12:56:00Z</time>
      </trkpt>
      <trkpt lat="47.70046" lon="-2.27829">
        <ele>72.3</ele>
        <time>2021-05-27T12:56:01Z</time>
      </trkpt>
      <trkpt lat="47.70046" lon="-2.27829">
        <ele>72.3</ele>
        <time>2021-05-27T12:56:02Z</time>
      </trkpt>
      <trkpt lat="47.70046" lon="-2.27829">
        <ele>72.3</ele>
        <time>2021-05-27T12:56:03Z</time>
      </trkpt>
      <trkpt lat="47.70046" lon="-2.27829">
        <ele>72.3</ele>
        <time>2021-05-27T12:56:04Z</time>
      </trkpt>
      <trkpt lat="47.70046" lon="-2.27829">
        <ele>72.3</ele>
        <time>2021-05-27T12:56:05Z</time>
      </trkpt>
      <trkpt lat="47.70046" lon="-2.27829">
        <ele>72.3</ele>
        <time>2021-05-27T12:56:06Z</time>
      </trkpt>
      <trkpt lat="47.70046" lon="-2.27829">
        <ele>72.3</ele>
        <time>2021-05-27T12:56:07Z</time>
      </trkpt>
      <trkpt lat="47.70046" lon="-2.27829">
        <ele>72.3</ele>
        <time>2021-05-27T12:56:08Z</time>
      </trkpt>
      <trkpt lat="47.70046" lon="-2.27829">
        <ele>72.3</ele>
        <time>2021-05-27T12:56:09Z</time>
      </trkpt>
      <trkpt lat="47.70046" lon="-2.27829">
        <ele>72.3</ele>
        <time>2021-05-27T12:56:10Z</time>
      </trkpt>
      <trkpt lat="47.70046" lon="-2.27829">
        <ele>72.3</ele>
        <time>2021-05-27T12:56:11Z</time>
      </trkpt>
      <trkpt lat="47.70046" lon="-2.27829">
        <ele>72.3</ele>
        <time>2021-05-27T12:56:12Z</time>
      </trkpt>
      <trkpt lat="47.70046" lon="-2.27829">
        <ele>72.3</ele>
        <time>2021-05-27T12:56:13Z</time>
      </trkpt>
      <trkpt lat="47.70046" lon="-2.27829">
        <ele>72.3</ele>
        <time>2021-05-27T12:56:14Z</time>
      </trkpt>
      <trkpt lat="47.70046" lon="-2.27829">
        <ele>72.3</ele>
        <time>2021-05-27T12:56:15Z</time>
      </trkpt>
      <trkpt lat="47.70046" lon="-2.27829">
        <ele>72.3</ele>
        <time>2021-05-27T12:56:16Z</time>
      </trkpt>
      <trkpt lat="47.70046" lon="-2.27829">
        <ele>72.3</ele>
        <time>2021-05-27T12:56:17Z</time>
      </trkpt>
      <trkpt lat="47.70046" lon="-2.27829">
        <ele>72.3</ele>
        <time>2021-05-27T12:56:18Z</time>
      </trkpt>
      <trkpt lat="47.70046" lon="-2.27829">
        <ele>72.3</ele>
        <time>2021-05-27T12:56:19Z</time>
      </trkpt>
      <trkpt lat="47.70046" lon="-2.27829">
        <ele>72.3</ele>
        <time>2021-05-27T12:56:20Z</time>
      </trkpt>
      <trkpt lat="47.70046" lon="-2.27829">
        <ele>72.3</ele>
        <time>2021-05-27T12:56:21Z</time>
      </trkpt>
      <trkpt lat="47.70046" lon="-2.2784">
        <ele>72.4</ele>
        <time>2021-05-27T12:56:22Z</time>
      </trkpt>
      <trkpt lat="47.70046" lon="-2.27843">
        <ele>72.5</ele>
        <time>2021-05-27T12:56:23Z</time>
      </trkpt>
      <trkpt lat="47.70046" lon="-2.27846">
        <ele>72.5</ele>
        <time>2021-05-27T12:56:24Z</time>
      </trkpt>
      <trkpt lat="47.70047" lon="-2.2785">
        <ele>72.5</ele>
        <time>2021-05-27T12:56:25Z</time>
      </trkpt>
      <trkpt lat="47.70047" lon="-2.27852">
        <ele>72.5</ele>
        <time>2021-05-27T12:56:26Z</time>
      </trkpt>
      <trkpt lat="47.70047" lon="-2.27856">
        <ele>72.6</ele>
        <time>2021-05-27T12:56:27Z</time>
      </trkpt>
      <trkpt lat="47.70048" lon="-2.27859">
        <ele>72.6</ele>
        <time>2021-05-27T12:56:28Z</time>
      </trkpt>
      <trkpt lat="47.70048" lon="-2.27864">
        <ele>72.6</ele>
        <time>2021-05-27T12:56:29Z</time>
      </trkpt>
      <trkpt lat="47.70049" lon="-2.27869">
        <ele>72.7</ele>
        <time>2021-05-27T12:56:30Z</time>
      </trkpt>
      <trkpt lat="47.70049" lon="-2.27873">
        <ele>72.7</ele>
        <time>2021-05-27T12:56:31Z</time>
      </trkpt>
      <trkpt lat="47.70049" lon="-2.27878">
        <ele>72.8</ele>
        <time>2021-05-27T12:56:32Z</time>
      </trkpt>
      <trkpt lat="47.7005" lon="-2.27882">
        <ele>72.8</ele>
        <time>2021-05-27T12:56:33Z</time>
      </trkpt>
      <trkpt lat="47.7005" lon="-2.27886">
        <ele>72.8</ele>
        <time>2021-05-27T12:56:34Z</time>
      </trkpt>
      <trkpt lat="47.70051" lon="-2.27892">
        <ele>72.9</ele>
        <time>2021-05-27T12:56:35Z</time>
      </trkpt>
      <trkpt lat="47.70051" lon="-2.27897">
        <ele>72.9</ele>
        <time>2021-05-27T12:56:36Z</time>
      </trkpt>
      <trkpt lat="47.70051" lon="-2.27902">
        <ele>73</ele>
        <time>2021-05-27T12:56:37Z</time>
      </trkpt>
      <trkpt lat="47.7005" lon="-2.27908">
        <ele>73.1</ele>
        <time>2021-05-27T12:56:38Z</time>
      </trkpt>
      <trkpt lat="47.70052" lon="-2.27914">
        <ele>73.1</ele>
        <time>2021-05-27T12:56:39Z</time>
      </trkpt>
      <trkpt lat="47.70054" lon="-2.27921">
        <ele>73.1</ele>
        <time>2021-05-27T12:56:40Z</time>
      </trkpt>
      <trkpt lat="47.70055" lon="-2.27928">
        <ele>73.1</ele>
        <time>2021-05-27T12:56:41Z</time>
      </trkpt>
      <trkpt lat="47.70056" lon="-2.27934">
        <ele>73.1</ele>
        <time>2021-05-27T12:56:42Z</time>
      </trkpt>
      <trkpt lat="47.70057" lon="-2.27938">
        <ele>73.1</ele>
        <time>2021-05-27T12:56:43Z</time>
      </trkpt>
      <trkpt lat="47.70057" lon="-2.27942">
        <ele>73.2</ele>
        <time>2021-05-27T12:56:44Z</time>
      </trkpt>
      <trkpt lat="47.70058" lon="-2.27947">
        <ele>73.2</ele>
        <time>2021-05-27T12:56:45Z</time>
      </trkpt>
      <trkpt lat="47.70059" lon="-2.27951">
        <ele>73.2</ele>
        <time>2021-05-27T12:56:46Z</time>
      </trkpt>
      <trkpt lat="47.7006" lon="-2.27957">
        <ele>73.3</ele>
        <time>2021-05-27T12:56:47Z</time>
      </trkpt>
      <trkpt lat="47.70062" lon="-2.27962">
        <ele>73.3</ele>
        <time>2021-05-27T12:56:48Z</time>
      </trkpt>
      <trkpt lat="47.70062" lon="-2.27967">
        <ele>73.4</ele>
        <time>2021-05-27T12:56:49Z</time>
      </trkpt>
      <trkpt lat="47.70062" lon="-2.27973">
        <ele>73.4</ele>
        <time>2021-05-27T12:56:50Z</time>
      </trkpt>
      <trkpt lat="47.70065" lon="-2.27979">
        <ele>73.5</ele>
        <time>2021-05-27T12:56:51Z</time>
      </trkpt>
      <trkpt lat="47.70066" lon="-2.27985">
        <ele>73.6</ele>
        <time>2021-05-27T12:56:52Z</time>
      </trkpt>
      <trkpt lat="47.70067" lon="-2.2799">
        <ele>73.7</ele>
        <time>2021-05-27T12:56:53Z</time>
      </trkpt>
      <trkpt lat="47.70069" lon="-2.27996">
        <ele>73.8</ele>
        <time>2021-05-27T12:56:54Z</time>
      </trkpt>
      <trkpt lat="47.7007" lon="-2.28002">
        <ele>73.8</ele>
        <time>2021-05-27T12:56:55Z</time>
      </trkpt>
      <trkpt lat="47.70072" lon="-2.28007">
        <ele>73.9</ele>
        <time>2021-05-27T12:56:56Z</time>
      </trkpt>
      <trkpt lat="47.70074" lon="-2.28013">
        <ele>73.9</ele>
        <time>2021-05-27T12:56:57Z</time>
      </trkpt>
      <trkpt lat="47.70075" lon="-2.28019">
        <ele>73.9</ele>
        <time>2021-05-27T12:56:58Z</time>
      </trkpt>
      <trkpt lat="47.70077" lon="-2.28025">
        <ele>73.9</ele>
        <time>2021-05-27T12:56:59Z</time>
      </trkpt>
      <trkpt lat="47.70078" lon="-2.28032">
        <ele>74</ele>
        <time>2021-05-27T12:57:00Z</time>
      </trkpt>
      <trkpt lat="47.70079" lon="-2.28039">
        <ele>74</ele>
        <time>2021-05-27T12:57:01Z</time>
      </trkpt>
      <trkpt lat="47.7008" lon="-2.28046">
        <ele>74</ele>
        <time>2021-05-27T12:57:02Z</time>
      </trkpt>
      <trkpt lat="47.70081" lon="-2.28053">
        <ele>74</ele>
        <time>2021-05-27T12:57:03Z</time>
      </trkpt>
      <trkpt lat="47.70081" lon="-2.28059">
        <ele>74</ele>
        <time>2021-05-27T12:57:04Z</time>
      </trkpt>
      <trkpt lat="47.70082" lon="-2.28064">
        <ele>74</ele>
        <time>2021-05-27T12:57:05Z</time>
      </trkpt>
      <trkpt lat="47.70082" lon="-2.2807">
        <ele>74</ele>
        <time>2021-05-27T12:57:06Z</time>
      </trkpt>
      <trkpt lat="47.70083" lon="-2.28079">
        <ele>74</ele>
        <time>2021-05-27T12:57:07Z</time>
      </trkpt>
      <trkpt lat="47.70084" lon="-2.28087">
        <ele>73.8</ele>
        <time>2021-05-27T12:57:08Z</time>
      </trkpt>
      <trkpt lat="47.70086" lon="-2.28094">
        <ele>73.5</ele>
        <time>2021-05-27T12:57:09Z</time>
      </trkpt>
      <trkpt lat="47.70087" lon="-2.28102">
        <ele>73.3</ele>
        <time>2021-05-27T12:57:10Z</time>
      </trkpt>
      <trkpt lat="47.70088" lon="-2.28109">
        <ele>73.1</ele>
        <time>2021-05-27T12:57:11Z</time>
      </trkpt>
      <trkpt lat="47.70089" lon="-2.28117">
        <ele>72.9</ele>
        <time>2021-05-27T12:57:12Z</time>
      </trkpt>
      <trkpt lat="47.7009" lon="-2.28125">
        <ele>72.7</ele>
        <time>2021-05-27T12:57:13Z</time>
      </trkpt>
      <trkpt lat="47.7009" lon="-2.28132">
        <ele>72.6</ele>
        <time>2021-05-27T12:57:14Z</time>
      </trkpt>
      <trkpt lat="47.70091" lon="-2.2814">
        <ele>72.4</ele>
        <time>2021-05-27T12:57:15Z</time>
      </trkpt>
      <trkpt lat="47.70092" lon="-2.28147">
        <ele>72.3</ele>
        <time>2021-05-27T12:57:16Z</time>
      </trkpt>
      <trkpt lat="47.70092" lon="-2.28155">
        <ele>72.1</ele>
        <time>2021-05-27T12:57:17Z</time>
      </trkpt>
      <trkpt lat="47.70093" lon="-2.28163">
        <ele>72</ele>
        <time>2021-05-27T12:57:18Z</time>
      </trkpt>
      <trkpt lat="47.70094" lon="-2.2817">
        <ele>71.9</ele>
        <time>2021-05-27T12:57:19Z</time>
      </trkpt>
      <trkpt lat="47.70095" lon="-2.28177">
        <ele>71.8</ele>
        <time>2021-05-27T12:57:20Z</time>
      </trkpt>
      <trkpt lat="47.70095" lon="-2.28184">
        <ele>71.8</ele>
        <time>2021-05-27T12:57:21Z</time>
      </trkpt>
      <trkpt lat="47.70096" lon="-2.28191">
        <ele>71.8</ele>
        <time>2021-05-27T12:57:22Z</time>
      </trkpt>
      <trkpt lat="47.70097" lon="-2.28197">
        <ele>71.8</ele>
        <time>2021-05-27T12:57:23Z</time>
      </trkpt>
      <trkpt lat="47.70098" lon="-2.28203">
        <ele>71.7</ele>
        <time>2021-05-27T12:57:24Z</time>
      </trkpt>
      <trkpt lat="47.70098" lon="-2.2821">
        <ele>71.7</ele>
        <time>2021-05-27T12:57:25Z</time>
      </trkpt>
      <trkpt lat="47.70099" lon="-2.28216">
        <ele>71.7</ele>
        <time>2021-05-27T12:57:26Z</time>
      </trkpt>
      <trkpt lat="47.701" lon="-2.28222">
        <ele>71.7</ele>
        <time>2021-05-27T12:57:27Z</time>
      </trkpt>
      <trkpt lat="47.70101" lon="-2.28228">
        <ele>71.7</ele>
        <time>2021-05-27T12:57:28Z</time>
      </trkpt>
      <trkpt lat="47.701" lon="-2.28234">
        <ele>71.8</ele>
        <time>2021-05-27T12:57:29Z</time>
      </trkpt>
      <trkpt lat="47.701" lon="-2.2824">
        <ele>71.9</ele>
        <time>2021-05-27T12:57:30Z</time>
      </trkpt>
      <trkpt lat="47.70101" lon="-2.28246">
        <ele>71.9</ele>
        <time>2021-05-27T12:57:31Z</time>
      </trkpt>
      <trkpt lat="47.70101" lon="-2.28252">
        <ele>72</ele>
        <time>2021-05-27T12:57:32Z</time>
      </trkpt>
      <trkpt lat="47.70101" lon="-2.28259">
        <ele>72.1</ele>
        <time>2021-05-27T12:57:33Z</time>
      </trkpt>
      <trkpt lat="47.70101" lon="-2.28266">
        <ele>72.1</ele>
        <time>2021-05-27T12:57:34Z</time>
      </trkpt>
      <trkpt lat="47.70101" lon="-2.28272">
        <ele>72.2</ele>
        <time>2021-05-27T12:57:35Z</time>
      </trkpt>
      <trkpt lat="47.70101" lon="-2.28278">
        <ele>72.3</ele>
        <time>2021-05-27T12:57:36Z</time>
      </trkpt>
      <trkpt lat="47.70101" lon="-2.28284">
        <ele>72.4</ele>
        <time>2021-05-27T12:57:37Z</time>
      </trkpt>
      <trkpt lat="47.70101" lon="-2.28291">
        <ele>72.5</ele>
        <time>2021-05-27T12:57:38Z</time>
      </trkpt>
      <trkpt lat="47.70101" lon="-2.28298">
        <ele>72.7</ele>
        <time>2021-05-27T12:57:39Z</time>
      </trkpt>
      <trkpt lat="47.701" lon="-2.28306">
        <ele>72.8</ele>
        <time>2021-05-27T12:57:40Z</time>
      </trkpt>
      <trkpt lat="47.701" lon="-2.28313">
        <ele>72.9</ele>
        <time>2021-05-27T12:57:41Z</time>
      </trkpt>
      <trkpt lat="47.701" lon="-2.28319">
        <ele>73</ele>
        <time>2021-05-27T12:57:42Z</time>
      </trkpt>
      <trkpt lat="47.70099" lon="-2.28326">
        <ele>73.1</ele>
        <time>2021-05-27T12:57:43Z</time>
      </trkpt>
      <trkpt lat="47.70098" lon="-2.28332">
        <ele>73.2</ele>
        <time>2021-05-27T12:57:44Z</time>
      </trkpt>
      <trkpt lat="47.70098" lon="-2.28338">
        <ele>73.3</ele>
        <time>2021-05-27T12:57:45Z</time>
      </trkpt>
      <trkpt lat="47.70099" lon="-2.28344">
        <ele>73.4</ele>
        <time>2021-05-27T12:57:46Z</time>
      </trkpt>
      <trkpt lat="47.70099" lon="-2.2835">
        <ele>73.5</ele>
        <time>2021-05-27T12:57:47Z</time>
      </trkpt>
      <trkpt lat="47.70099" lon="-2.28353">
        <ele>73.5</ele>
        <time>2021-05-27T12:57:48Z</time>
      </trkpt>
      <trkpt lat="47.70099" lon="-2.28354">
        <ele>73.5</ele>
        <time>2021-05-27T12:57:49Z</time>
      </trkpt>
      <trkpt lat="47.701" lon="-2.2836">
        <ele>73.5</ele>
        <time>2021-05-27T12:59:49Z</time>
      </trkpt>
      <trkpt lat="47.70101" lon="-2.28365">
        <ele>73.5</ele>
        <time>2021-05-27T12:59:50Z</time>
      </trkpt>
      <trkpt lat="47.70101" lon="-2.2837">
        <ele>73.6</ele>
        <time>2021-05-27T12:59:51Z</time>
      </trkpt>
      <trkpt lat="47.70102" lon="-2.28375">
        <ele>73.6</ele>
        <time>2021-05-27T12:59:52Z</time>
      </trkpt>
      <trkpt lat="47.70102" lon="-2.2838">
        <ele>73.6</ele>
        <time>2021-05-27T12:59:53Z</time>
      </trkpt>
      <trkpt lat="47.70103" lon="-2.28386">
        <ele>73.7</ele>
        <time>2021-05-27T12:59:54Z</time>
      </trkpt>
      <trkpt lat="47.70103" lon="-2.28392">
        <ele>73.7</ele>
        <time>2021-05-27T12:59:55Z</time>
      </trkpt>
      <trkpt lat="47.70103" lon="-2.28398">
        <ele>73.8</ele>
        <time>2021-05-27T12:59:56Z</time>
      </trkpt>
      <trkpt lat="47.70102" lon="-2.28404">
        <ele>73.9</ele>
        <time>2021-05-27T12:59:57Z</time>
      </trkpt>
      <trkpt lat="47.70102" lon="-2.2841">
        <ele>74</ele>
        <time>2021-05-27T12:59:58Z</time>
      </trkpt>
      <trkpt lat="47.70102" lon="-2.28416">
        <ele>74.1</ele>
        <time>2021-05-27T12:59:59Z</time>
      </trkpt>
      <trkpt lat="47.70101" lon="-2.28423">
        <ele>74.2</ele>
        <time>2021-05-27T13:00:00Z</time>
      </trkpt>
      <trkpt lat="47.701" lon="-2.28429">
        <ele>74.2</ele>
        <time>2021-05-27T13:00:01Z</time>
      </trkpt>
      <trkpt lat="47.701" lon="-2.28435">
        <ele>74.3</ele>
        <time>2021-05-27T13:00:02Z</time>
      </trkpt>
      <trkpt lat="47.70099" lon="-2.28441">
        <ele>74.3</ele>
        <time>2021-05-27T13:00:03Z</time>
      </trkpt>
      <trkpt lat="47.70098" lon="-2.28446">
        <ele>74.4</ele>
        <time>2021-05-27T13:00:04Z</time>
      </trkpt>
      <trkpt lat="47.70097" lon="-2.28452">
        <ele>74.4</ele>
        <time>2021-05-27T13:00:05Z</time>
      </trkpt>
      <trkpt lat="47.70096" lon="-2.28459">
        <ele>74.5</ele>
        <time>2021-05-27T13:00:06Z</time>
      </trkpt>
      <trkpt lat="47.70095" lon="-2.28465">
        <ele>74.5</ele>
        <time>2021-05-27T13:00:07Z</time>
      </trkpt>
      <trkpt lat="47.70094" lon="-2.28471">
        <ele>74.6</ele>
        <time>2021-05-27T13:00:08Z</time>
      </trkpt>
      <trkpt lat="47.70093" lon="-2.28478">
        <ele>74.6</ele>
        <time>2021-05-27T13:00:09Z</time>
      </trkpt>
      <trkpt lat="47.70092" lon="-2.28484">
        <ele>74.7</ele>
        <time>2021-05-27T13:00:10Z</time>
      </trkpt>
      <trkpt lat="47.70091" lon="-2.2849">
        <ele>74.7</ele>
        <time>2021-05-27T13:00:11Z</time>
      </trkpt>
      <trkpt lat="47.70091" lon="-2.28496">
        <ele>74.7</ele>
        <time>2021-05-27T13:00:12Z</time>
      </trkpt>
      <trkpt lat="47.7009" lon="-2.28501">
        <ele>74.7</ele>
        <time>2021-05-27T13:00:13Z</time>
      </trkpt>
      <trkpt lat="47.7009" lon="-2.28507">
        <ele>74.7</ele>
        <time>2021-05-27T13:00:14Z</time>
      </trkpt>
      <trkpt lat="47.70089" lon="-2.28512">
        <ele>74.7</ele>
        <time>2021-05-27T13:00:15Z</time>
      </trkpt>
      <trkpt lat="47.70088" lon="-2.28516">
        <ele>74.6</ele>
        <time>2021-05-27T13:00:16Z</time>
      </trkpt>
      <trkpt lat="47.70088" lon="-2.2852">
        <ele>74.6</ele>
        <time>2021-05-27T13:00:17Z</time>
      </trkpt>
      <trkpt lat="47.70087" lon="-2.28521">
        <ele>74.6</ele>
        <time>2021-05-27T13:00:18Z</time>
      </trkpt>
      <trkpt lat="47.70086" lon="-2.28522">
        <ele>74.6</ele>
        <time>2021-05-27T13:00:19Z</time>
      </trkpt>
      <trkpt lat="47.70086" lon="-2.28522">
        <ele>74.7</ele>
        <time>2021-05-27T13:00:20Z</time>
      </trkpt>
      <trkpt lat="47.70085" lon="-2.28521">
        <ele>74.7</ele>
        <time>2021-05-27T13:00:21Z</time>
      </trkpt>
      <trkpt lat="47.70085" lon="-2.28521">
        <ele>74.7</ele>
        <time>2021-05-27T13:00:22Z</time>
      </trkpt>
      <trkpt lat="47.70085" lon="-2.28521">
        <ele>74.7</ele>
        <time>2021-05-27T13:00:23Z</time>
      </trkpt>
      <trkpt lat="47.70082" lon="-2.28521">
        <ele>74.7</ele>
        <time>2021-05-27T13:00:24Z</time>
      </trkpt>
      <trkpt lat="47.7008" lon="-2.28522">
        <ele>74.7</ele>
        <time>2021-05-27T13:00:25Z</time>
      </trkpt>
      <trkpt lat="47.70079" lon="-2.28522">
        <ele>74.7</ele>
        <time>2021-05-27T13:00:26Z</time>
      </trkpt>
      <trkpt lat="47.70078" lon="-2.28522">
        <ele>74.7</ele>
        <time>2021-05-27T13:00:27Z</time>
      </trkpt>
      <trkpt lat="47.70077" lon="-2.28522">
        <ele>74.6</ele>
        <time>2021-05-27T13:00:28Z</time>
      </trkpt>
      <trkpt lat="47.70075" lon="-2.28523">
        <ele>74.6</ele>
        <time>2021-05-27T13:00:29Z</time>
      </trkpt>
      <trkpt lat="47.70074" lon="-2.28522">
        <ele>74.6</ele>
        <time>2021-05-27T13:00:30Z</time>
      </trkpt>
      <trkpt lat="47.70072" lon="-2.28521">
        <ele>74.6</ele>
        <time>2021-05-27T13:00:31Z</time>
      </trkpt>
      <trkpt lat="47.70071" lon="-2.28519">
        <ele>74.6</ele>
        <time>2021-05-27T13:00:32Z</time>
      </trkpt>
      <trkpt lat="47.7007" lon="-2.28516">
        <ele>74.6</ele>
        <time>2021-05-27T13:00:33Z</time>
      </trkpt>
      <trkpt lat="47.70069" lon="-2.28515">
        <ele>74.6</ele>
        <time>2021-05-27T13:00:34Z</time>
      </trkpt>
      <trkpt lat="47.70069" lon="-2.28514">
        <ele>74.6</ele>
        <time>2021-05-27T13:00:35Z</time>
      </trkpt>
      <trkpt lat="47.70069" lon="-2.28514">
        <ele>74.6</ele>
        <time>2021-05-27T13:00:36Z</time>
      </trkpt>
      <trkpt lat="47.70069" lon="-2.28514">
        <ele>74.6</ele>
        <time>2021-05-27T13:00:37Z</time>
      </trkpt>
      <trkpt lat="47.70069" lon="-2.28514">
        <ele>74.6</ele>
        <time>2021-05-27T13:00:38Z</time>
      </trkpt>
      <trkpt lat="47.70069" lon="-2.28514">
        <ele>74.6</ele>
        <time>2021-05-27T13:00:39Z</time>
      </trkpt>
      <trkpt lat="47.70069" lon="-2.28514">
        <ele>74.6</ele>
        <time>2021-05-27T13:00:40Z</time>
      </trkpt>
      <trkpt lat="47.70069" lon="-2.28514">
        <ele>74.6</ele>
        <time>2021-05-27T13:00:41Z</time>
      </trkpt>
      <trkpt lat="47.70069" lon="-2.28514">
        <ele>74.6</ele>
        <time>2021-05-27T13:00:42Z</time>
      </trkpt>
      <trkpt lat="47.70069" lon="-2.28514">
        <ele>74.6</ele>
        <time>2021-05-27T13:00:43Z</time>
      </trkpt>
      <trkpt lat="47.70069" lon="-2.28514">
        <ele>74.6</ele>
        <time>2021-05-27T13:00:44Z</time>
      </trkpt>
      <trkpt lat="47.70069" lon="-2.28514">
        <ele>74.6</ele>
        <time>2021-05-27T13:00:45Z</time>
      </trkpt>
      <trkpt lat="47.70069" lon="-2.28514">
        <ele>74.6</ele>
        <time>2021-05-27T13:00:46Z</time>
      </trkpt>
      <trkpt lat="47.70069" lon="-2.28514">
        <ele>74.6</ele>
        <time>2021-05-27T13:00:47Z</time>
      </trkpt>
      <trkpt lat="47.70069" lon="-2.28514">
        <ele>74.6</ele>
        <time>2021-05-27T13:00:48Z</time>
      </trkpt>
      <trkpt lat="47.7007" lon="-2.28512">
        <ele>74.7</ele>
        <time>2021-05-27T13:00:49Z</time>
      </trkpt>
      <trkpt lat="47.70069" lon="-2.28511">
        <ele>74.7</ele>
        <time>2021-05-27T13:00:50Z</time>
      </trkpt>
      <trkpt lat="47.70069" lon="-2.28508">
        <ele>74.7</ele>
        <time>2021-05-27T13:00:51Z</time>
      </trkpt>
      <trkpt lat="47.70068" lon="-2.28507">
        <ele>74.7</ele>
        <time>2021-05-27T13:00:52Z</time>
      </trkpt>
      <trkpt lat="47.70066" lon="-2.28506">
        <ele>74.7</ele>
        <time>2021-05-27T13:00:53Z</time>
      </trkpt>
      <trkpt lat="47.70065" lon="-2.28505">
        <ele>74.7</ele>
        <time>2021-05-27T13:00:54Z</time>
      </trkpt>
      <trkpt lat="47.70063" lon="-2.28503">
        <ele>74.7</ele>
        <time>2021-05-27T13:00:55Z</time>
      </trkpt>
      <trkpt lat="47.70061" lon="-2.28501">
        <ele>74.7</ele>
        <time>2021-05-27T13:00:56Z</time>
      </trkpt>
      <trkpt lat="47.70058" lon="-2.28498">
        <ele>74.7</ele>
        <time>2021-05-27T13:00:57Z</time>
      </trkpt>
      <trkpt lat="47.70056" lon="-2.28494">
        <ele>74.7</ele>
        <time>2021-05-27T13:00:58Z</time>
      </trkpt>
      <trkpt lat="47.70055" lon="-2.28491">
        <ele>74.7</ele>
        <time>2021-05-27T13:00:59Z</time>
      </trkpt>
      <trkpt lat="47.70054" lon="-2.28489">
        <ele>74.7</ele>
        <time>2021-05-27T13:01:00Z</time>
      </trkpt>
      <trkpt lat="47.70052" lon="-2.28486">
        <ele>74.7</ele>
        <time>2021-05-27T13:01:01Z</time>
      </trkpt>
      <trkpt lat="47.70051" lon="-2.28483">
        <ele>74.8</ele>
        <time>2021-05-27T13:01:02Z</time>
      </trkpt>
      <trkpt lat="47.70049" lon="-2.28479">
        <ele>74.8</ele>
        <time>2021-05-27T13:01:03Z</time>
      </trkpt>
      <trkpt lat="47.70048" lon="-2.28475">
        <ele>74.8</ele>
        <time>2021-05-27T13:01:04Z</time>
      </trkpt>
      <trkpt lat="47.70047" lon="-2.28471">
        <ele>74.9</ele>
        <time>2021-05-27T13:01:05Z</time>
      </trkpt>
      <trkpt lat="47.70047" lon="-2.28467">
        <ele>74.9</ele>
        <time>2021-05-27T13:01:06Z</time>
      </trkpt>
      <trkpt lat="47.70046" lon="-2.28462">
        <ele>75</ele>
        <time>2021-05-27T13:01:07Z</time>
      </trkpt>
      <trkpt lat="47.70045" lon="-2.28458">
        <ele>75</ele>
        <time>2021-05-27T13:01:08Z</time>
      </trkpt>
      <trkpt lat="47.70044" lon="-2.28453">
        <ele>75.1</ele>
        <time>2021-05-27T13:01:09Z</time>
      </trkpt>
      <trkpt lat="47.70043" lon="-2.2845">
        <ele>75.1</ele>
        <time>2021-05-27T13:01:10Z</time>
      </trkpt>
      <trkpt lat="47.70042" lon="-2.28446">
        <ele>75.1</ele>
        <time>2021-05-27T13:01:11Z</time>
      </trkpt>
      <trkpt lat="47.70042" lon="-2.28442">
        <ele>75.2</ele>
        <time>2021-05-27T13:01:12Z</time>
      </trkpt>
      <trkpt lat="47.70041" lon="-2.28438">
        <ele>75.3</ele>
        <time>2021-05-27T13:01:13Z</time>
      </trkpt>
      <trkpt lat="47.7004" lon="-2.28433">
        <ele>75.3</ele>
        <time>2021-05-27T13:01:14Z</time>
      </trkpt>
      <trkpt lat="47.70038" lon="-2.28426">
        <ele>75.4</ele>
        <time>2021-05-27T13:01:15Z</time>
      </trkpt>
      <trkpt lat="47.70036" lon="-2.2842">
        <ele>75.5</ele>
        <time>2021-05-27T13:01:16Z</time>
      </trkpt>
      <trkpt lat="47.70035" lon="-2.28415">
        <ele>75.6</ele>
        <time>2021-05-27T13:01:17Z</time>
      </trkpt>
      <trkpt lat="47.70033" lon="-2.2841">
        <ele>75.6</ele>
        <time>2021-05-27T13:01:18Z</time>
      </trkpt>
      <trkpt lat="47.70032" lon="-2.28405">
        <ele>75.6</ele>
        <time>2021-05-27T13:01:19Z</time>
      </trkpt>
      <trkpt lat="47.70031" lon="-2.28401">
        <ele>75.6</ele>
        <time>2021-05-27T13:01:20Z</time>
      </trkpt>
      <trkpt lat="47.70031" lon="-2.28395">
        <ele>75.5</ele>
        <time>2021-05-27T13:01:21Z</time>
      </trkpt>
      <trkpt lat="47.7003" lon="-2.2839">
        <ele>75.5</ele>
        <time>2021-05-27T13:01:22Z</time>
      </trkpt>
      <trkpt lat="47.70029" lon="-2.28384">
        <ele>75.5</ele>
        <time>2021-05-27T13:01:23Z</time>
      </trkpt>
      <trkpt lat="47.70029" lon="-2.28379">
        <ele>75.5</ele>
        <time>2021-05-27T13:01:24Z</time>
      </trkpt>
      <trkpt lat="47.70029" lon="-2.28373">
        <ele>75.5</ele>
        <time>2021-05-27T13:01:25Z</time>
      </trkpt>
      <trkpt lat="47.70028" lon="-2.28366">
        <ele>75.5</ele>
        <time>2021-05-27T13:01:26Z</time>
      </trkpt>
      <trkpt lat="47.70026" lon="-2.2836">
        <ele>75.5</ele>
        <time>2021-05-27T13:01:27Z</time>
      </trkpt>
      <trkpt lat="47.70025" lon="-2.28352">
        <ele>75.5</ele>
        <time>2021-05-27T13:01:28Z</time>
      </trkpt>
      <trkpt lat="47.70026" lon="-2.28347">
        <ele>75.4</ele>
        <time>2021-05-27T13:01:29Z</time>
      </trkpt>
      <trkpt lat="47.70026" lon="-2.28341">
        <ele>75.4</ele>
        <time>2021-05-27T13:01:30Z</time>
      </trkpt>
      <trkpt lat="47.70025" lon="-2.28335">
        <ele>75.4</ele>
        <time>2021-05-27T13:01:31Z</time>
      </trkpt>
      <trkpt lat="47.70024" lon="-2.28329">
        <ele>75.4</ele>
        <time>2021-05-27T13:01:32Z</time>
      </trkpt>
      <trkpt lat="47.70024" lon="-2.28323">
        <ele>75.5</ele>
        <time>2021-05-27T13:01:33Z</time>
      </trkpt>
      <trkpt lat="47.70023" lon="-2.28319">
        <ele>75.5</ele>
        <time>2021-05-27T13:01:34Z</time>
      </trkpt>
      <trkpt lat="47.70022" lon="-2.28315">
        <ele>75.6</ele>
        <time>2021-05-27T13:01:35Z</time>
      </trkpt>
      <trkpt lat="47.70022" lon="-2.28313">
        <ele>75.6</ele>
        <time>2021-05-27T13:01:36Z</time>
      </trkpt>
      <trkpt lat="47.70021" lon="-2.28311">
        <ele>75.6</ele>
        <time>2021-05-27T13:01:37Z</time>
      </trkpt>
      <trkpt lat="47.70021" lon="-2.28308">
        <ele>75.6</ele>
        <time>2021-05-27T13:01:38Z</time>
      </trkpt>
      <trkpt lat="47.70021" lon="-2.28306">
        <ele>75.7</ele>
        <time>2021-05-27T13:01:39Z</time>
      </trkpt>
      <trkpt lat="47.70021" lon="-2.28304">
        <ele>75.7</ele>
        <time>2021-05-27T13:01:40Z</time>
      </trkpt>
      <trkpt lat="47.7002" lon="-2.28301">
        <ele>75.7</ele>
        <time>2021-05-27T13:01:41Z</time>
      </trkpt>
      <trkpt lat="47.7002" lon="-2.28297">
        <ele>75.7</ele>
        <time>2021-05-27T13:01:42Z</time>
      </trkpt>
      <trkpt lat="47.70019" lon="-2.28293">
        <ele>75.8</ele>
        <time>2021-05-27T13:01:43Z</time>
      </trkpt>
      <trkpt lat="47.70018" lon="-2.28288">
        <ele>75.9</ele>
        <time>2021-05-27T13:01:44Z</time>
      </trkpt>
      <trkpt lat="47.70017" lon="-2.28283">
        <ele>75.9</ele>
        <time>2021-05-27T13:01:45Z</time>
      </trkpt>
      <trkpt lat="47.70017" lon="-2.28277">
        <ele>76</ele>
        <time>2021-05-27T13:01:46Z</time>
      </trkpt>
      <trkpt lat="47.70016" lon="-2.28271">
        <ele>76.1</ele>
        <time>2021-05-27T13:01:47Z</time>
      </trkpt>
      <trkpt lat="47.70016" lon="-2.28265">
        <ele>76.1</ele>
        <time>2021-05-27T13:01:48Z</time>
      </trkpt>
      <trkpt lat="47.70015" lon="-2.28259">
        <ele>76.2</ele>
        <time>2021-05-27T13:01:49Z</time>
      </trkpt>
      <trkpt lat="47.70015" lon="-2.28253">
        <ele>76.3</ele>
        <time>2021-05-27T13:01:50Z</time>
      </trkpt>
      <trkpt lat="47.70014" lon="-2.28247">
        <ele>76.3</ele>
        <time>2021-05-27T13:01:51Z</time>
      </trkpt>
      <trkpt lat="47.70014" lon="-2.28241">
        <ele>76.2</ele>
        <time>2021-05-27T13:01:52Z</time>
      </trkpt>
      <trkpt lat="47.70013" lon="-2.28235">
        <ele>76.1</ele>
        <time>2021-05-27T13:01:53Z</time>
      </trkpt>
      <trkpt lat="47.70013" lon="-2.28229">
        <ele>75.9</ele>
        <time>2021-05-27T13:01:54Z</time>
      </trkpt>
      <trkpt lat="47.70012" lon="-2.28222">
        <ele>75.9</ele>
        <time>2021-05-27T13:01:55Z</time>
      </trkpt>
      <trkpt lat="47.70012" lon="-2.28216">
        <ele>75.7</ele>
        <time>2021-05-27T13:01:56Z</time>
      </trkpt>
      <trkpt lat="47.70011" lon="-2.2821">
        <ele>75.6</ele>
        <time>2021-05-27T13:01:57Z</time>
      </trkpt>
      <trkpt lat="47.7001" lon="-2.28204">
        <ele>75.5</ele>
        <time>2021-05-27T13:01:58Z</time>
      </trkpt>
      <trkpt lat="47.70009" lon="-2.28197">
        <ele>75.4</ele>
        <time>2021-05-27T13:01:59Z</time>
      </trkpt>
      <trkpt lat="47.70008" lon="-2.28191">
        <ele>75.3</ele>
        <time>2021-05-27T13:02:00Z</time>
      </trkpt>
      <trkpt lat="47.70008" lon="-2.28185">
        <ele>75.2</ele>
        <time>2021-05-27T13:02:01Z</time>
      </trkpt>
      <trkpt lat="47.70008" lon="-2.28178">
        <ele>75.1</ele>
        <time>2021-05-27T13:02:02Z</time>
      </trkpt>
      <trkpt lat="47.70007" lon="-2.28171">
        <ele>74.9</ele>
        <time>2021-05-27T13:02:03Z</time>
      </trkpt>
      <trkpt lat="47.70007" lon="-2.28165">
        <ele>74.8</ele>
        <time>2021-05-27T13:02:04Z</time>
      </trkpt>
      <trkpt lat="47.70006" lon="-2.28158">
        <ele>74.8</ele>
        <time>2021-05-27T13:02:05Z</time>
      </trkpt>
      <trkpt lat="47.70006" lon="-2.28151">
        <ele>74.7</ele>
        <time>2021-05-27T13:02:06Z</time>
      </trkpt>
      <trkpt lat="47.70005" lon="-2.28144">
        <ele>74.6</ele>
        <time>2021-05-27T13:02:07Z</time>
      </trkpt>
      <trkpt lat="47.70005" lon="-2.28137">
        <ele>74.6</ele>
        <time>2021-05-27T13:02:08Z</time>
      </trkpt>
      <trkpt lat="47.70005" lon="-2.28131">
        <ele>74.5</ele>
        <time>2021-05-27T13:02:09Z</time>
      </trkpt>
      <trkpt lat="47.70005" lon="-2.28124">
        <ele>74.4</ele>
        <time>2021-05-27T13:02:10Z</time>
      </trkpt>
      <trkpt lat="47.70004" lon="-2.28118">
        <ele>74.4</ele>
        <time>2021-05-27T13:02:11Z</time>
      </trkpt>
      <trkpt lat="47.70003" lon="-2.28113">
        <ele>74.3</ele>
        <time>2021-05-27T13:02:12Z</time>
      </trkpt>
      <trkpt lat="47.7" lon="-2.28109">
        <ele>74.3</ele>
        <time>2021-05-27T13:02:13Z</time>
      </trkpt>
      <trkpt lat="47.69997" lon="-2.28106">
        <ele>74.1</ele>
        <time>2021-05-27T13:02:14Z</time>
      </trkpt>
      <trkpt lat="47.69995" lon="-2.28103">
        <ele>73.9</ele>
        <time>2021-05-27T13:02:15Z</time>
      </trkpt>
      <trkpt lat="47.69993" lon="-2.281">
        <ele>73.7</ele>
        <time>2021-05-27T13:02:16Z</time>
      </trkpt>
      <trkpt lat="47.6999" lon="-2.28097">
        <ele>73.4</ele>
        <time>2021-05-27T13:02:17Z</time>
      </trkpt>
      <trkpt lat="47.69987" lon="-2.28094">
        <ele>73.2</ele>
        <time>2021-05-27T13:02:18Z</time>
      </trkpt>
      <trkpt lat="47.69985" lon="-2.28092">
        <ele>73</ele>
        <time>2021-05-27T13:02:19Z</time>
      </trkpt>
      <trkpt lat="47.69982" lon="-2.2809">
        <ele>72.8</ele>
        <time>2021-05-27T13:02:20Z</time>
      </trkpt>
      <trkpt lat="47.6998" lon="-2.28091">
        <ele>72.7</ele>
        <time>2021-05-27T13:02:21Z</time>
      </trkpt>
      <trkpt lat="47.69979" lon="-2.28095">
        <ele>72.6</ele>
        <time>2021-05-27T13:02:22Z</time>
      </trkpt>
      <trkpt lat="47.69977" lon="-2.28097">
        <ele>72.5</ele>
        <time>2021-05-27T13:02:23Z</time>
      </trkpt>
      <trkpt lat="47.69976" lon="-2.28099">
        <ele>72.4</ele>
        <time>2021-05-27T13:02:24Z</time>
      </trkpt>
      <trkpt lat="47.69973" lon="-2.28099">
        <ele>72.3</ele>
        <time>2021-05-27T13:02:25Z</time>
      </trkpt>
      <trkpt lat="47.69971" lon="-2.281">
        <ele>72.1</ele>
        <time>2021-05-27T13:02:26Z</time>
      </trkpt>
      <trkpt lat="47.69968" lon="-2.28101">
        <ele>71.9</ele>
        <time>2021-05-27T13:02:27Z</time>
      </trkpt>
      <trkpt lat="47.69966" lon="-2.28103">
        <ele>71.8</ele>
        <time>2021-05-27T13:02:28Z</time>
      </trkpt>
      <trkpt lat="47.69963" lon="-2.28105">
        <ele>71.6</ele>
        <time>2021-05-27T13:02:29Z</time>
      </trkpt>
      <trkpt lat="47.69962" lon="-2.28109">
        <ele>71.6</ele>
        <time>2021-05-27T13:02:30Z</time>
      </trkpt>
      <trkpt lat="47.69962" lon="-2.28115">
        <ele>71.6</ele>
        <time>2021-05-27T13:02:31Z</time>
      </trkpt>
      <trkpt lat="47.69961" lon="-2.28119">
        <ele>71.6</ele>
        <time>2021-05-27T13:02:32Z</time>
      </trkpt>
      <trkpt lat="47.6996" lon="-2.28123">
        <ele>71.6</ele>
        <time>2021-05-27T13:02:33Z</time>
      </trkpt>
      <trkpt lat="47.6996" lon="-2.28127">
        <ele>71.6</ele>
        <time>2021-05-27T13:02:34Z</time>
      </trkpt>
      <trkpt lat="47.6996" lon="-2.28132">
        <ele>71.7</ele>
        <time>2021-05-27T13:02:35Z</time>
      </trkpt>
      <trkpt lat="47.6996" lon="-2.28137">
        <ele>71.8</ele>
        <time>2021-05-27T13:02:36Z</time>
      </trkpt>
      <trkpt lat="47.6996" lon="-2.28141">
        <ele>71.8</ele>
        <time>2021-05-27T13:02:37Z</time>
      </trkpt>
      <trkpt lat="47.69959" lon="-2.28143">
        <ele>71.8</ele>
        <time>2021-05-27T13:02:38Z</time>
      </trkpt>
      <trkpt lat="47.69957" lon="-2.28144">
        <ele>71.6</ele>
        <time>2021-05-27T13:02:39Z</time>
      </trkpt>
      <trkpt lat="47.69954" lon="-2.28144">
        <ele>71.4</ele>
        <time>2021-05-27T13:02:40Z</time>
      </trkpt>
      <trkpt lat="47.6995" lon="-2.28146">
        <ele>71.2</ele>
        <time>2021-05-27T13:02:41Z</time>
      </trkpt>
      <trkpt lat="47.69947" lon="-2.28148">
        <ele>70.9</ele>
        <time>2021-05-27T13:02:42Z</time>
      </trkpt>
      <trkpt lat="47.69943" lon="-2.28149">
        <ele>70.7</ele>
        <time>2021-05-27T13:02:43Z</time>
      </trkpt>
      <trkpt lat="47.6994" lon="-2.28152">
        <ele>70.5</ele>
        <time>2021-05-27T13:02:44Z</time>
      </trkpt>
      <trkpt lat="47.69937" lon="-2.28155">
        <ele>70.3</ele>
        <time>2021-05-27T13:02:45Z</time>
      </trkpt>
      <trkpt lat="47.69935" lon="-2.28158">
        <ele>70.2</ele>
        <time>2021-05-27T13:02:46Z</time>
      </trkpt>
      <trkpt lat="47.69934" lon="-2.28159">
        <ele>70.2</ele>
        <time>2021-05-27T13:02:47Z</time>
      </trkpt>
      <trkpt lat="47.69935" lon="-2.28158">
        <ele>70.2</ele>
        <time>2021-05-27T13:02:48Z</time>
      </trkpt>
      <trkpt lat="47.69935" lon="-2.28158">
        <ele>70.2</ele>
        <time>2021-05-27T13:02:49Z</time>
      </trkpt>
      <trkpt lat="47.69935" lon="-2.28158">
        <ele>70.2</ele>
        <time>2021-05-27T13:02:50Z</time>
      </trkpt>
      <trkpt lat="47.69935" lon="-2.28158">
        <ele>70.2</ele>
        <time>2021-05-27T13:02:51Z</time>
      </trkpt>
      <trkpt lat="47.69935" lon="-2.28158">
        <ele>70.2</ele>
        <time>2021-05-27T13:02:52Z</time>
      </trkpt>
      <trkpt lat="47.69935" lon="-2.28158">
        <ele>70.2</ele>
        <time>2021-05-27T13:02:53Z</time>
      </trkpt>
      <trkpt lat="47.69935" lon="-2.28158">
        <ele>70.2</ele>
        <time>2021-05-27T13:02:54Z</time>
      </trkpt>
      <trkpt lat="47.69935" lon="-2.28158">
        <ele>70.2</ele>
        <time>2021-05-27T13:02:55Z</time>
      </trkpt>
      <trkpt lat="47.69935" lon="-2.28158">
        <ele>70.2</ele>
        <time>2021-05-27T13:02:56Z</time>
      </trkpt>
      <trkpt lat="47.69933" lon="-2.28161">
        <ele>70.1</ele>
        <time>2021-05-27T13:02:57Z</time>
      </trkpt>
      <trkpt lat="47.69931" lon="-2.28163">
        <ele>70</ele>
        <time>2021-05-27T13:02:58Z</time>
      </trkpt>
      <trkpt lat="47.69929" lon="-2.28165">
        <ele>69.9</ele>
        <time>2021-05-27T13:02:59Z</time>
      </trkpt>
      <trkpt lat="47.69927" lon="-2.28166">
        <ele>69.7</ele>
        <time>2021-05-27T13:03:00Z</time>
      </trkpt>
      <trkpt lat="47.69925" lon="-2.28165">
        <ele>69.6</ele>
        <time>2021-05-27T13:03:01Z</time>
      </trkpt>
      <trkpt lat="47.69923" lon="-2.28164">
        <ele>69.4</ele>
        <time>2021-05-27T13:03:02Z</time>
      </trkpt>
      <trkpt lat="47.69922" lon="-2.28161">
        <ele>69.3</ele>
        <time>2021-05-27T13:03:03Z</time>
      </trkpt>
      <trkpt lat="47.69921" lon="-2.28158">
        <ele>69.2</ele>
        <time>2021-05-27T13:03:04Z</time>
      </trkpt>
      <trkpt lat="47.69919" lon="-2.28157">
        <ele>69.1</ele>
        <time>2021-05-27T13:03:05Z</time>
      </trkpt>
      <trkpt lat="47.69917" lon="-2.28158">
        <ele>69</ele>
        <time>2021-05-27T13:03:06Z</time>
      </trkpt>
      <trkpt lat="47.69915" lon="-2.28161">
        <ele>68.7</ele>
        <time>2021-05-27T13:03:07Z</time>
      </trkpt>
      <trkpt lat="47.69914" lon="-2.28164">
        <ele>68.6</ele>
        <time>2021-05-27T13:03:08Z</time>
      </trkpt>
      <trkpt lat="47.69913" lon="-2.28168">
        <ele>68.4</ele>
        <time>2021-05-27T13:03:09Z</time>
      </trkpt>
      <trkpt lat="47.69913" lon="-2.28171">
        <ele>68.4</ele>
        <time>2021-05-27T13:03:10Z</time>
      </trkpt>
      <trkpt lat="47.69913" lon="-2.28172">
        <ele>68.5</ele>
        <time>2021-05-27T13:03:11Z</time>
      </trkpt>
      <trkpt lat="47.69913" lon="-2.28174">
        <ele>68.6</ele>
        <time>2021-05-27T13:03:12Z</time>
      </trkpt>
      <trkpt lat="47.69914" lon="-2.28178">
        <ele>68.7</ele>
        <time>2021-05-27T13:03:13Z</time>
      </trkpt>
      <trkpt lat="47.69914" lon="-2.28182">
        <ele>68.8</ele>
        <time>2021-05-27T13:03:14Z</time>
      </trkpt>
      <trkpt lat="47.69915" lon="-2.28187">
        <ele>68.9</ele>
        <time>2021-05-27T13:03:15Z</time>
      </trkpt>
      <trkpt lat="47.69914" lon="-2.2819">
        <ele>68.9</ele>
        <time>2021-05-27T13:03:16Z</time>
      </trkpt>
      <trkpt lat="47.69913" lon="-2.28193">
        <ele>68.7</ele>
        <time>2021-05-27T13:03:17Z</time>
      </trkpt>
      <trkpt lat="47.69911" lon="-2.28194">
        <ele>68.4</ele>
        <time>2021-05-27T13:03:18Z</time>
      </trkpt>
      <trkpt lat="47.69908" lon="-2.28194">
        <ele>68</ele>
        <time>2021-05-27T13:03:19Z</time>
      </trkpt>
      <trkpt lat="47.69906" lon="-2.28197">
        <ele>67.6</ele>
        <time>2021-05-27T13:03:20Z</time>
      </trkpt>
      <trkpt lat="47.69904" lon="-2.282">
        <ele>67.3</ele>
        <time>2021-05-27T13:03:21Z</time>
      </trkpt>
      <trkpt lat="47.69902" lon="-2.28205">
        <ele>67</ele>
        <time>2021-05-27T13:03:22Z</time>
      </trkpt>
      <trkpt lat="47.69901" lon="-2.28211">
        <ele>66.9</ele>
        <time>2021-05-27T13:03:23Z</time>
      </trkpt>
      <trkpt lat="47.69901" lon="-2.28217">
        <ele>66.9</ele>
        <time>2021-05-27T13:03:24Z</time>
      </trkpt>
      <trkpt lat="47.69901" lon="-2.28223">
        <ele>66.9</ele>
        <time>2021-05-27T13:03:25Z</time>
      </trkpt>
      <trkpt lat="47.699" lon="-2.28229">
        <ele>66.8</ele>
        <time>2021-05-27T13:03:26Z</time>
      </trkpt>
      <trkpt lat="47.699" lon="-2.28234">
        <ele>66.9</ele>
        <time>2021-05-27T13:03:27Z</time>
      </trkpt>
      <trkpt lat="47.699" lon="-2.28239">
        <ele>67</ele>
        <time>2021-05-27T13:03:28Z</time>
      </trkpt>
      <trkpt lat="47.69901" lon="-2.28243">
        <ele>67.2</ele>
        <time>2021-05-27T13:03:29Z</time>
      </trkpt>
      <trkpt lat="47.69902" lon="-2.28247">
        <ele>67.3</ele>
        <time>2021-05-27T13:03:30Z</time>
      </trkpt>
      <trkpt lat="47.69903" lon="-2.2825">
        <ele>67.5</ele>
        <time>2021-05-27T13:03:31Z</time>
      </trkpt>
      <trkpt lat="47.69903" lon="-2.28253">
        <ele>67.6</ele>
        <time>2021-05-27T13:03:32Z</time>
      </trkpt>
      <trkpt lat="47.69904" lon="-2.28256">
        <ele>67.6</ele>
        <time>2021-05-27T13:03:33Z</time>
      </trkpt>
      <trkpt lat="47.69904" lon="-2.28259">
        <ele>67.6</ele>
        <time>2021-05-27T13:03:34Z</time>
      </trkpt>
      <trkpt lat="47.69903" lon="-2.28261">
        <ele>67.4</ele>
        <time>2021-05-27T13:03:35Z</time>
      </trkpt>
      <trkpt lat="47.69902" lon="-2.28262">
        <ele>67.2</ele>
        <time>2021-05-27T13:03:36Z</time>
      </trkpt>
      <trkpt lat="47.69901" lon="-2.28263">
        <ele>66.9</ele>
        <time>2021-05-27T13:03:37Z</time>
      </trkpt>
      <trkpt lat="47.69898" lon="-2.28264">
        <ele>66.5</ele>
        <time>2021-05-27T13:03:38Z</time>
      </trkpt>
      <trkpt lat="47.69896" lon="-2.28266">
        <ele>66</ele>
        <time>2021-05-27T13:03:39Z</time>
      </trkpt>
      <trkpt lat="47.69893" lon="-2.28268">
        <ele>65.5</ele>
        <time>2021-05-27T13:03:40Z</time>
      </trkpt>
      <trkpt lat="47.69891" lon="-2.28269">
        <ele>65</ele>
        <time>2021-05-27T13:03:41Z</time>
      </trkpt>
      <trkpt lat="47.69887" lon="-2.28272">
        <ele>64.3</ele>
        <time>2021-05-27T13:03:42Z</time>
      </trkpt>
      <trkpt lat="47.69883" lon="-2.28274">
        <ele>63.5</ele>
        <time>2021-05-27T13:03:43Z</time>
      </trkpt>
      <trkpt lat="47.69879" lon="-2.28276">
        <ele>62.8</ele>
        <time>2021-05-27T13:03:44Z</time>
      </trkpt>
      <trkpt lat="47.69876" lon="-2.28279">
        <ele>62.1</ele>
        <time>2021-05-27T13:03:45Z</time>
      </trkpt>
      <trkpt lat="47.69873" lon="-2.28284">
        <ele>61.6</ele>
        <time>2021-05-27T13:03:46Z</time>
      </trkpt>
      <trkpt lat="47.69871" lon="-2.28288">
        <ele>61.1</ele>
        <time>2021-05-27T13:03:47Z</time>
      </trkpt>
      <trkpt lat="47.69869" lon="-2.28291">
        <ele>60.6</ele>
        <time>2021-05-27T13:03:48Z</time>
      </trkpt>
      <trkpt lat="47.69867" lon="-2.28295">
        <ele>60.1</ele>
        <time>2021-05-27T13:03:49Z</time>
      </trkpt>
      <trkpt lat="47.69864" lon="-2.28297">
        <ele>59.7</ele>
        <time>2021-05-27T13:03:50Z</time>
      </trkpt>
      <trkpt lat="47.69861" lon="-2.28301">
        <ele>59.1</ele>
        <time>2021-05-27T13:03:51Z</time>
      </trkpt>
      <trkpt lat="47.69859" lon="-2.28305">
        <ele>58.4</ele>
        <time>2021-05-27T13:03:52Z</time>
      </trkpt>
      <trkpt lat="47.69856" lon="-2.2831">
        <ele>57.9</ele>
        <time>2021-05-27T13:03:53Z</time>
      </trkpt>
      <trkpt lat="47.69855" lon="-2.28315">
        <ele>57.5</ele>
        <time>2021-05-27T13:03:54Z</time>
      </trkpt>
      <trkpt lat="47.69855" lon="-2.2832">
        <ele>57.3</ele>
        <time>2021-05-27T13:03:55Z</time>
      </trkpt>
      <trkpt lat="47.69854" lon="-2.28325">
        <ele>57.2</ele>
        <time>2021-05-27T13:03:56Z</time>
      </trkpt>
      <trkpt lat="47.69855" lon="-2.28329">
        <ele>57.2</ele>
        <time>2021-05-27T13:03:57Z</time>
      </trkpt>
      <trkpt lat="47.69854" lon="-2.28333">
        <ele>57</ele>
        <time>2021-05-27T13:03:58Z</time>
      </trkpt>
      <trkpt lat="47.69853" lon="-2.28336">
        <ele>56.8</ele>
        <time>2021-05-27T13:03:59Z</time>
      </trkpt>
      <trkpt lat="47.69852" lon="-2.28339">
        <ele>56.5</ele>
        <time>2021-05-27T13:04:00Z</time>
      </trkpt>
      <trkpt lat="47.69852" lon="-2.28343">
        <ele>56.3</ele>
        <time>2021-05-27T13:04:01Z</time>
      </trkpt>
      <trkpt lat="47.69852" lon="-2.28346">
        <ele>56.3</ele>
        <time>2021-05-27T13:04:02Z</time>
      </trkpt>
      <trkpt lat="47.69851" lon="-2.28348">
        <ele>56.2</ele>
        <time>2021-05-27T13:04:03Z</time>
      </trkpt>
      <trkpt lat="47.69851" lon="-2.28351">
        <ele>56</ele>
        <time>2021-05-27T13:04:04Z</time>
      </trkpt>
      <trkpt lat="47.6985" lon="-2.28354">
        <ele>55.9</ele>
        <time>2021-05-27T13:04:05Z</time>
      </trkpt>
      <trkpt lat="47.6985" lon="-2.28355">
        <ele>55.9</ele>
        <time>2021-05-27T13:04:06Z</time>
      </trkpt>
      <trkpt lat="47.6985" lon="-2.28358">
        <ele>55.7</ele>
        <time>2021-05-27T13:04:07Z</time>
      </trkpt>
      <trkpt lat="47.69849" lon="-2.28361">
        <ele>55.6</ele>
        <time>2021-05-27T13:04:08Z</time>
      </trkpt>
      <trkpt lat="47.69849" lon="-2.28363">
        <ele>55.5</ele>
        <time>2021-05-27T13:04:09Z</time>
      </trkpt>
      <trkpt lat="47.69849" lon="-2.28365">
        <ele>55.4</ele>
        <time>2021-05-27T13:04:10Z</time>
      </trkpt>
      <trkpt lat="47.69848" lon="-2.28366">
        <ele>55.3</ele>
        <time>2021-05-27T13:04:11Z</time>
      </trkpt>
      <trkpt lat="47.69848" lon="-2.28367">
        <ele>55.3</ele>
        <time>2021-05-27T13:04:12Z</time>
      </trkpt>
      <trkpt lat="47.69848" lon="-2.28367">
        <ele>55.3</ele>
        <time>2021-05-27T13:04:13Z</time>
      </trkpt>
      <trkpt lat="47.69848" lon="-2.28367">
        <ele>55.3</ele>
        <time>2021-05-27T13:04:14Z</time>
      </trkpt>
      <trkpt lat="47.69848" lon="-2.28367">
        <ele>55.3</ele>
        <time>2021-05-27T13:04:15Z</time>
      </trkpt>
      <trkpt lat="47.69848" lon="-2.28367">
        <ele>55.3</ele>
        <time>2021-05-27T13:04:16Z</time>
      </trkpt>
      <trkpt lat="47.69848" lon="-2.28367">
        <ele>55.3</ele>
        <time>2021-05-27T13:04:17Z</time>
      </trkpt>
      <trkpt lat="47.69848" lon="-2.28367">
        <ele>55.3</ele>
        <time>2021-05-27T13:04:18Z</time>
      </trkpt>
      <trkpt lat="47.69848" lon="-2.28367">
        <ele>55.3</ele>
        <time>2021-05-27T13:04:19Z</time>
      </trkpt>
      <trkpt lat="47.69848" lon="-2.28367">
        <ele>55.3</ele>
        <time>2021-05-27T13:04:20Z</time>
      </trkpt>
      <trkpt lat="47.69848" lon="-2.28367">
        <ele>55.3</ele>
        <time>2021-05-27T13:04:21Z</time>
      </trkpt>
      <trkpt lat="47.69848" lon="-2.28367">
        <ele>55.3</ele>
        <time>2021-05-27T13:04:22Z</time>
      </trkpt>
      <trkpt lat="47.69848" lon="-2.28367">
        <ele>55.3</ele>
        <time>2021-05-27T13:04:23Z</time>
      </trkpt>
      <trkpt lat="47.69848" lon="-2.28367">
        <ele>55.3</ele>
        <time>2021-05-27T13:04:24Z</time>
      </trkpt>
      <trkpt lat="47.69848" lon="-2.28367">
        <ele>55.3</ele>
        <time>2021-05-27T13:04:25Z</time>
      </trkpt>
      <trkpt lat="47.69848" lon="-2.28367">
        <ele>55.3</ele>
        <time>2021-05-27T13:04:26Z</time>
      </trkpt>
      <trkpt lat="47.69848" lon="-2.28367">
        <ele>55.3</ele>
        <time>2021-05-27T13:04:27Z</time>
      </trkpt>
      <trkpt lat="47.69848" lon="-2.28367">
        <ele>55.3</ele>
        <time>2021-05-27T13:04:28Z</time>
      </trkpt>
      <trkpt lat="47.69848" lon="-2.28367">
        <ele>55.3</ele>
        <time>2021-05-27T13:04:29Z</time>
      </trkpt>
      <trkpt lat="47.69848" lon="-2.28367">
        <ele>55.3</ele>
        <time>2021-05-27T13:04:30Z</time>
      </trkpt>
      <trkpt lat="47.69848" lon="-2.28367">
        <ele>55.3</ele>
        <time>2021-05-27T13:04:31Z</time>
      </trkpt>
      <trkpt lat="47.69848" lon="-2.28367">
        <ele>55.3</ele>
        <time>2021-05-27T13:04:32Z</time>
      </trkpt>
      <trkpt lat="47.69848" lon="-2.28367">
        <ele>55.3</ele>
        <time>2021-05-27T13:04:33Z</time>
      </trkpt>
      <trkpt lat="47.69845" lon="-2.28373">
        <ele>54.6</ele>
        <time>2021-05-27T13:04:34Z</time>
      </trkpt>
      <trkpt lat="47.69843" lon="-2.28372">
        <ele>54.3</ele>
        <time>2021-05-27T13:04:35Z</time>
      </trkpt>
      <trkpt lat="47.69842" lon="-2.28371">
        <ele>54.1</ele>
        <time>2021-05-27T13:04:36Z</time>
      </trkpt>
      <trkpt lat="47.6984" lon="-2.2837">
        <ele>53.8</ele>
        <time>2021-05-27T13:04:37Z</time>
      </trkpt>
      <trkpt lat="47.69839" lon="-2.2837">
        <ele>53.7</ele>
        <time>2021-05-27T13:04:38Z</time>
      </trkpt>
      <trkpt lat="47.69839" lon="-2.28369">
        <ele>53.5</ele>
        <time>2021-05-27T13:04:39Z</time>
      </trkpt>
      <trkpt lat="47.69837" lon="-2.28368">
        <ele>53.3</ele>
        <time>2021-05-27T13:04:40Z</time>
      </trkpt>
      <trkpt lat="47.69836" lon="-2.28367">
        <ele>53</ele>
        <time>2021-05-27T13:04:41Z</time>
      </trkpt>
      <trkpt lat="47.69834" lon="-2.28366">
        <ele>52.7</ele>
        <time>2021-05-27T13:04:42Z</time>
      </trkpt>
      <trkpt lat="47.69832" lon="-2.28364">
        <ele>52.4</ele>
        <time>2021-05-27T13:04:43Z</time>
      </trkpt>
      <trkpt lat="47.69831" lon="-2.28362">
        <ele>52.4</ele>
        <time>2021-05-27T13:04:44Z</time>
      </trkpt>
      <trkpt lat="47.69831" lon="-2.28361">
        <ele>52.4</ele>
        <time>2021-05-27T13:04:45Z</time>
      </trkpt>
      <trkpt lat="47.69831" lon="-2.28361">
        <ele>52.3</ele>
        <time>2021-05-27T13:04:46Z</time>
      </trkpt>
      <trkpt lat="47.6983" lon="-2.28361">
        <ele>52.3</ele>
        <time>2021-05-27T13:04:47Z</time>
      </trkpt>
      <trkpt lat="47.6983" lon="-2.28361">
        <ele>52.3</ele>
        <time>2021-05-27T13:04:48Z</time>
      </trkpt>
      <trkpt lat="47.6983" lon="-2.28361">
        <ele>52.3</ele>
        <time>2021-05-27T13:04:49Z</time>
      </trkpt>
      <trkpt lat="47.6983" lon="-2.28361">
        <ele>52.3</ele>
        <time>2021-05-27T13:04:50Z</time>
      </trkpt>
      <trkpt lat="47.6983" lon="-2.28361">
        <ele>52.3</ele>
        <time>2021-05-27T13:04:51Z</time>
      </trkpt>
      <trkpt lat="47.6983" lon="-2.28361">
        <ele>52.3</ele>
        <time>2021-05-27T13:04:52Z</time>
      </trkpt>
      <trkpt lat="47.6983" lon="-2.28361">
        <ele>52.3</ele>
        <time>2021-05-27T13:04:53Z</time>
      </trkpt>
      <trkpt lat="47.6983" lon="-2.28361">
        <ele>52.3</ele>
        <time>2021-05-27T13:04:54Z</time>
      </trkpt>
      <trkpt lat="47.6983" lon="-2.28361">
        <ele>52.3</ele>
        <time>2021-05-27T13:04:55Z</time>
      </trkpt>
      <trkpt lat="47.6983" lon="-2.28361">
        <ele>52.3</ele>
        <time>2021-05-27T13:04:56Z</time>
      </trkpt>
      <trkpt lat="47.6983" lon="-2.28361">
        <ele>52.3</ele>
        <time>2021-05-27T13:04:57Z</time>
      </trkpt>
      <trkpt lat="47.6983" lon="-2.28361">
        <ele>52.3</ele>
        <time>2021-05-27T13:04:58Z</time>
      </trkpt>
      <trkpt lat="47.6983" lon="-2.28361">
        <ele>52.3</ele>
        <time>2021-05-27T13:04:59Z</time>
      </trkpt>
      <trkpt lat="47.6983" lon="-2.28361">
        <ele>52.3</ele>
        <time>2021-05-27T13:05:00Z</time>
      </trkpt>
      <trkpt lat="47.6983" lon="-2.28361">
        <ele>52.3</ele>
        <time>2021-05-27T13:05:01Z</time>
      </trkpt>
      <trkpt lat="47.6983" lon="-2.28361">
        <ele>52.3</ele>
        <time>2021-05-27T13:05:02Z</time>
      </trkpt>
      <trkpt lat="47.6983" lon="-2.28361">
        <ele>52.3</ele>
        <time>2021-05-27T13:05:03Z</time>
      </trkpt>
      <trkpt lat="47.6983" lon="-2.28361">
        <ele>52.3</ele>
        <time>2021-05-27T13:05:04Z</time>
      </trkpt>
      <trkpt lat="47.6983" lon="-2.28361">
        <ele>52.3</ele>
        <time>2021-05-27T13:05:05Z</time>
      </trkpt>
      <trkpt lat="47.6983" lon="-2.28361">
        <ele>52.3</ele>
        <time>2021-05-27T13:05:06Z</time>
      </trkpt>
      <trkpt lat="47.6983" lon="-2.28361">
        <ele>52.3</ele>
        <time>2021-05-27T13:05:07Z</time>
      </trkpt>
      <trkpt lat="47.6983" lon="-2.28361">
        <ele>52.3</ele>
        <time>2021-05-27T13:05:08Z</time>
      </trkpt>
      <trkpt lat="47.6983" lon="-2.28361">
        <ele>52.3</ele>
        <time>2021-05-27T13:05:09Z</time>
      </trkpt>
      <trkpt lat="47.6983" lon="-2.28361">
        <ele>52.3</ele>
        <time>2021-05-27T13:05:10Z</time>
      </trkpt>
      <trkpt lat="47.6983" lon="-2.28361">
        <ele>52.3</ele>
        <time>2021-05-27T13:05:11Z</time>
      </trkpt>
      <trkpt lat="47.6983" lon="-2.28361">
        <ele>52.3</ele>
        <time>2021-05-27T13:05:12Z</time>
      </trkpt>
      <trkpt lat="47.6983" lon="-2.28361">
        <ele>52.3</ele>
        <time>2021-05-27T13:05:13Z</time>
      </trkpt>
      <trkpt lat="47.69824" lon="-2.28353">
        <ele>51.6</ele>
        <time>2021-05-27T13:05:14Z</time>
      </trkpt>
      <trkpt lat="47.69824" lon="-2.2835">
        <ele>51.7</ele>
        <time>2021-05-27T13:05:15Z</time>
      </trkpt>
      <trkpt lat="47.69823" lon="-2.28347">
        <ele>51.6</ele>
        <time>2021-05-27T13:05:16Z</time>
      </trkpt>
      <trkpt lat="47.69823" lon="-2.28343">
        <ele>51.6</ele>
        <time>2021-05-27T13:05:17Z</time>
      </trkpt>
      <trkpt lat="47.69822" lon="-2.2834">
        <ele>51.6</ele>
        <time>2021-05-27T13:05:18Z</time>
      </trkpt>
      <trkpt lat="47.69822" lon="-2.28338">
        <ele>51.6</ele>
        <time>2021-05-27T13:05:19Z</time>
      </trkpt>
      <trkpt lat="47.69822" lon="-2.28335">
        <ele>51.7</ele>
        <time>2021-05-27T13:05:20Z</time>
      </trkpt>
      <trkpt lat="47.69823" lon="-2.28331">
        <ele>51.8</ele>
        <time>2021-05-27T13:05:21Z</time>
      </trkpt>
      <trkpt lat="47.69823" lon="-2.28328">
        <ele>51.8</ele>
        <time>2021-05-27T13:05:22Z</time>
      </trkpt>
      <trkpt lat="47.69823" lon="-2.28324">
        <ele>51.9</ele>
        <time>2021-05-27T13:05:23Z</time>
      </trkpt>
      <trkpt lat="47.69822" lon="-2.2832">
        <ele>52</ele>
        <time>2021-05-27T13:05:24Z</time>
      </trkpt>
      <trkpt lat="47.69823" lon="-2.28315">
        <ele>52.2</ele>
        <time>2021-05-27T13:05:25Z</time>
      </trkpt>
      <trkpt lat="47.69824" lon="-2.28311">
        <ele>52.3</ele>
        <time>2021-05-27T13:05:26Z</time>
      </trkpt>
      <trkpt lat="47.69823" lon="-2.28306">
        <ele>52.4</ele>
        <time>2021-05-27T13:05:27Z</time>
      </trkpt>
      <trkpt lat="47.69823" lon="-2.28301">
        <ele>52.4</ele>
        <time>2021-05-27T13:05:28Z</time>
      </trkpt>
      <trkpt lat="47.69823" lon="-2.28296">
        <ele>52.5</ele>
        <time>2021-05-27T13:05:29Z</time>
      </trkpt>
      <trkpt lat="47.69822" lon="-2.28292">
        <ele>52.5</ele>
        <time>2021-05-27T13:05:30Z</time>
      </trkpt>
      <trkpt lat="47.69822" lon="-2.28287">
        <ele>52.6</ele>
        <time>2021-05-27T13:05:31Z</time>
      </trkpt>
      <trkpt lat="47.69822" lon="-2.28283">
        <ele>52.6</ele>
        <time>2021-05-27T13:05:32Z</time>
      </trkpt>
      <trkpt lat="47.69821" lon="-2.28279">
        <ele>52.7</ele>
        <time>2021-05-27T13:05:33Z</time>
      </trkpt>
      <trkpt lat="47.69822" lon="-2.28273">
        <ele>52.8</ele>
        <time>2021-05-27T13:05:34Z</time>
      </trkpt>
      <trkpt lat="47.69822" lon="-2.28269">
        <ele>52.9</ele>
        <time>2021-05-27T13:05:35Z</time>
      </trkpt>
      <trkpt lat="47.69821" lon="-2.28264">
        <ele>53</ele>
        <time>2021-05-27T13:05:36Z</time>
      </trkpt>
      <trkpt lat="47.69821" lon="-2.2826">
        <ele>53</ele>
        <time>2021-05-27T13:05:37Z</time>
      </trkpt>
      <trkpt lat="47.6982" lon="-2.28256">
        <ele>52.9</ele>
        <time>2021-05-27T13:05:38Z</time>
      </trkpt>
      <trkpt lat="47.6982" lon="-2.28253">
        <ele>53</ele>
        <time>2021-05-27T13:05:39Z</time>
      </trkpt>
      <trkpt lat="47.6982" lon="-2.2825">
        <ele>53.1</ele>
        <time>2021-05-27T13:05:40Z</time>
      </trkpt>
      <trkpt lat="47.69821" lon="-2.28248">
        <ele>53.2</ele>
        <time>2021-05-27T13:05:41Z</time>
      </trkpt>
      <trkpt lat="47.69822" lon="-2.28246">
        <ele>53.4</ele>
        <time>2021-05-27T13:05:42Z</time>
      </trkpt>
      <trkpt lat="47.69822" lon="-2.28244">
        <ele>53.4</ele>
        <time>2021-05-27T13:05:43Z</time>
      </trkpt>
      <trkpt lat="47.69823" lon="-2.28242">
        <ele>53.6</ele>
        <time>2021-05-27T13:05:44Z</time>
      </trkpt>
      <trkpt lat="47.69823" lon="-2.2824">
        <ele>53.6</ele>
        <time>2021-05-27T13:05:45Z</time>
      </trkpt>
      <trkpt lat="47.69824" lon="-2.28239">
        <ele>53.8</ele>
        <time>2021-05-27T13:05:46Z</time>
      </trkpt>
      <trkpt lat="47.69824" lon="-2.28236">
        <ele>53.9</ele>
        <time>2021-05-27T13:05:47Z</time>
      </trkpt>
      <trkpt lat="47.69825" lon="-2.28232">
        <ele>54</ele>
        <time>2021-05-27T13:05:48Z</time>
      </trkpt>
      <trkpt lat="47.69825" lon="-2.28227">
        <ele>54.1</ele>
        <time>2021-05-27T13:05:49Z</time>
      </trkpt>
      <trkpt lat="47.69824" lon="-2.28223">
        <ele>54</ele>
        <time>2021-05-27T13:05:50Z</time>
      </trkpt>
      <trkpt lat="47.69824" lon="-2.28219">
        <ele>54.1</ele>
        <time>2021-05-27T13:05:51Z</time>
      </trkpt>
      <trkpt lat="47.69825" lon="-2.28215">
        <ele>54.2</ele>
        <time>2021-05-27T13:05:52Z</time>
      </trkpt>
      <trkpt lat="47.69826" lon="-2.28211">
        <ele>54.5</ele>
        <time>2021-05-27T13:05:53Z</time>
      </trkpt>
      <trkpt lat="47.69828" lon="-2.28207">
        <ele>54.8</ele>
        <time>2021-05-27T13:05:54Z</time>
      </trkpt>
      <trkpt lat="47.6983" lon="-2.28202">
        <ele>55.1</ele>
        <time>2021-05-27T13:05:55Z</time>
      </trkpt>
      <trkpt lat="47.69832" lon="-2.28197">
        <ele>55.5</ele>
        <time>2021-05-27T13:05:56Z</time>
      </trkpt>
      <trkpt lat="47.69833" lon="-2.28194">
        <ele>55.6</ele>
        <time>2021-05-27T13:05:57Z</time>
      </trkpt>
      <trkpt lat="47.69834" lon="-2.28191">
        <ele>55.8</ele>
        <time>2021-05-27T13:05:58Z</time>
      </trkpt>
      <trkpt lat="47.69836" lon="-2.28189">
        <ele>56.1</ele>
        <time>2021-05-27T13:05:59Z</time>
      </trkpt>
      <trkpt lat="47.69837" lon="-2.28187">
        <ele>56.3</ele>
        <time>2021-05-27T13:06:00Z</time>
      </trkpt>
      <trkpt lat="47.69839" lon="-2.28184">
        <ele>56.6</ele>
        <time>2021-05-27T13:06:01Z</time>
      </trkpt>
      <trkpt lat="47.6984" lon="-2.28183">
        <ele>56.9</ele>
        <time>2021-05-27T13:06:02Z</time>
      </trkpt>
      <trkpt lat="47.69842" lon="-2.2818">
        <ele>57.3</ele>
        <time>2021-05-27T13:06:03Z</time>
      </trkpt>
      <trkpt lat="47.69844" lon="-2.28179">
        <ele>57.5</ele>
        <time>2021-05-27T13:06:04Z</time>
      </trkpt>
      <trkpt lat="47.69846" lon="-2.28177">
        <ele>57.8</ele>
        <time>2021-05-27T13:06:05Z</time>
      </trkpt>
      <trkpt lat="47.69847" lon="-2.28176">
        <ele>58.1</ele>
        <time>2021-05-27T13:06:06Z</time>
      </trkpt>
      <trkpt lat="47.69849" lon="-2.28174">
        <ele>58.3</ele>
        <time>2021-05-27T13:06:07Z</time>
      </trkpt>
      <trkpt lat="47.6985" lon="-2.28172">
        <ele>58.6</ele>
        <time>2021-05-27T13:06:08Z</time>
      </trkpt>
      <trkpt lat="47.69851" lon="-2.28171">
        <ele>58.7</ele>
        <time>2021-05-27T13:06:09Z</time>
      </trkpt>
      <trkpt lat="47.69852" lon="-2.28171">
        <ele>58.9</ele>
        <time>2021-05-27T13:06:10Z</time>
      </trkpt>
      <trkpt lat="47.69853" lon="-2.2817">
        <ele>59</ele>
        <time>2021-05-27T13:06:11Z</time>
      </trkpt>
      <trkpt lat="47.69854" lon="-2.28168">
        <ele>59.2</ele>
        <time>2021-05-27T13:06:12Z</time>
      </trkpt>
      <trkpt lat="47.69854" lon="-2.28166">
        <ele>59.2</ele>
        <time>2021-05-27T13:06:13Z</time>
      </trkpt>
      <trkpt lat="47.69854" lon="-2.28165">
        <ele>59.3</ele>
        <time>2021-05-27T13:06:14Z</time>
      </trkpt>
      <trkpt lat="47.69855" lon="-2.28164">
        <ele>59.4</ele>
        <time>2021-05-27T13:06:15Z</time>
      </trkpt>
      <trkpt lat="47.69855" lon="-2.28163">
        <ele>59.4</ele>
        <time>2021-05-27T13:06:16Z</time>
      </trkpt>
      <trkpt lat="47.69855" lon="-2.28163">
        <ele>59.4</ele>
        <time>2021-05-27T13:06:17Z</time>
      </trkpt>
      <trkpt lat="47.69857" lon="-2.28159">
        <ele>59.6</ele>
        <time>2021-05-27T13:06:18Z</time>
      </trkpt>
      <trkpt lat="47.69858" lon="-2.28157">
        <ele>59.8</ele>
        <time>2021-05-27T13:06:19Z</time>
      </trkpt>
      <trkpt lat="47.69859" lon="-2.28154">
        <ele>59.9</ele>
        <time>2021-05-27T13:06:20Z</time>
      </trkpt>
      <trkpt lat="47.69859" lon="-2.28153">
        <ele>60</ele>
        <time>2021-05-27T13:06:21Z</time>
      </trkpt>
      <trkpt lat="47.69861" lon="-2.2815">
        <ele>60.2</ele>
        <time>2021-05-27T13:06:22Z</time>
      </trkpt>
      <trkpt lat="47.69861" lon="-2.28148">
        <ele>60.2</ele>
        <time>2021-05-27T13:06:23Z</time>
      </trkpt>
      <trkpt lat="47.69861" lon="-2.28147">
        <ele>60.2</ele>
        <time>2021-05-27T13:06:24Z</time>
      </trkpt>
      <trkpt lat="47.69862" lon="-2.28146">
        <ele>60.3</ele>
        <time>2021-05-27T13:06:25Z</time>
      </trkpt>
      <trkpt lat="47.69863" lon="-2.28142">
        <ele>60.5</ele>
        <time>2021-05-27T13:06:26Z</time>
      </trkpt>
      <trkpt lat="47.69864" lon="-2.28141">
        <ele>60.7</ele>
        <time>2021-05-27T13:06:27Z</time>
      </trkpt>
      <trkpt lat="47.69866" lon="-2.28139">
        <ele>60.9</ele>
        <time>2021-05-27T13:06:28Z</time>
      </trkpt>
      <trkpt lat="47.69867" lon="-2.28137">
        <ele>61.1</ele>
        <time>2021-05-27T13:06:29Z</time>
      </trkpt>
      <trkpt lat="47.69868" lon="-2.28133">
        <ele>61.3</ele>
        <time>2021-05-27T13:06:30Z</time>
      </trkpt>
      <trkpt lat="47.6987" lon="-2.28131">
        <ele>61.5</ele>
        <time>2021-05-27T13:06:31Z</time>
      </trkpt>
      <trkpt lat="47.69871" lon="-2.28128">
        <ele>61.7</ele>
        <time>2021-05-27T13:06:32Z</time>
      </trkpt>
      <trkpt lat="47.69873" lon="-2.28125">
        <ele>61.9</ele>
        <time>2021-05-27T13:06:33Z</time>
      </trkpt>
      <trkpt lat="47.69874" lon="-2.28122">
        <ele>62.1</ele>
        <time>2021-05-27T13:06:34Z</time>
      </trkpt>
      <trkpt lat="47.69876" lon="-2.28119">
        <ele>62.3</ele>
        <time>2021-05-27T13:06:35Z</time>
      </trkpt>
      <trkpt lat="47.69877" lon="-2.28117">
        <ele>62.5</ele>
        <time>2021-05-27T13:06:36Z</time>
      </trkpt>
      <trkpt lat="47.69878" lon="-2.28114">
        <ele>62.6</ele>
        <time>2021-05-27T13:06:37Z</time>
      </trkpt>
      <trkpt lat="47.69879" lon="-2.28112">
        <ele>62.8</ele>
        <time>2021-05-27T13:06:38Z</time>
      </trkpt>
      <trkpt lat="47.69881" lon="-2.28109">
        <ele>63</ele>
        <time>2021-05-27T13:06:39Z</time>
      </trkpt>
      <trkpt lat="47.69882" lon="-2.28106">
        <ele>63.1</ele>
        <time>2021-05-27T13:06:40Z</time>
      </trkpt>
      <trkpt lat="47.69883" lon="-2.28104">
        <ele>63.3</ele>
        <time>2021-05-27T13:06:41Z</time>
      </trkpt>
      <trkpt lat="47.69884" lon="-2.28102">
        <ele>63.5</ele>
        <time>2021-05-27T13:06:42Z</time>
      </trkpt>
      <trkpt lat="47.69886" lon="-2.28099">
        <ele>63.7</ele>
        <time>2021-05-27T13:06:43Z</time>
      </trkpt>
      <trkpt lat="47.69887" lon="-2.28097">
        <ele>63.9</ele>
        <time>2021-05-27T13:06:44Z</time>
      </trkpt>
      <trkpt lat="47.69889" lon="-2.28094">
        <ele>64.1</ele>
        <time>2021-05-27T13:06:45Z</time>
      </trkpt>
      <trkpt lat="47.6989" lon="-2.28092">
        <ele>64.2</ele>
        <time>2021-05-27T13:06:46Z</time>
      </trkpt>
      <trkpt lat="47.69891" lon="-2.28091">
        <ele>64.3</ele>
        <time>2021-05-27T13:06:47Z</time>
      </trkpt>
      <trkpt lat="47.69891" lon="-2.28088">
        <ele>64.4</ele>
        <time>2021-05-27T13:06:48Z</time>
      </trkpt>
      <trkpt lat="47.69893" lon="-2.28086">
        <ele>64.6</ele>
        <time>2021-05-27T13:06:49Z</time>
      </trkpt>
      <trkpt lat="47.69894" lon="-2.28084">
        <ele>64.8</ele>
        <time>2021-05-27T13:06:50Z</time>
      </trkpt>
      <trkpt lat="47.69896" lon="-2.28082">
        <ele>65</ele>
        <time>2021-05-27T13:06:51Z</time>
      </trkpt>
      <trkpt lat="47.69897" lon="-2.28081">
        <ele>65.2</ele>
        <time>2021-05-27T13:06:52Z</time>
      </trkpt>
      <trkpt lat="47.69898" lon="-2.28078">
        <ele>65.5</ele>
        <time>2021-05-27T13:06:53Z</time>
      </trkpt>
      <trkpt lat="47.69899" lon="-2.28076">
        <ele>65.7</ele>
        <time>2021-05-27T13:06:54Z</time>
      </trkpt>
      <trkpt lat="47.699" lon="-2.28074">
        <ele>65.9</ele>
        <time>2021-05-27T13:06:55Z</time>
      </trkpt>
      <trkpt lat="47.69901" lon="-2.28072">
        <ele>66.1</ele>
        <time>2021-05-27T13:06:56Z</time>
      </trkpt>
      <trkpt lat="47.69903" lon="-2.28069">
        <ele>66.3</ele>
        <time>2021-05-27T13:06:57Z</time>
      </trkpt>
      <trkpt lat="47.69904" lon="-2.28068">
        <ele>66.6</ele>
        <time>2021-05-27T13:06:58Z</time>
      </trkpt>
      <trkpt lat="47.69905" lon="-2.28066">
        <ele>66.8</ele>
        <time>2021-05-27T13:06:59Z</time>
      </trkpt>
      <trkpt lat="47.69907" lon="-2.28063">
        <ele>67.1</ele>
        <time>2021-05-27T13:07:00Z</time>
      </trkpt>
      <trkpt lat="47.69909" lon="-2.28061">
        <ele>67.5</ele>
        <time>2021-05-27T13:07:01Z</time>
      </trkpt>
      <trkpt lat="47.69911" lon="-2.28058">
        <ele>67.8</ele>
        <time>2021-05-27T13:07:02Z</time>
      </trkpt>
      <trkpt lat="47.69913" lon="-2.28055">
        <ele>68.1</ele>
        <time>2021-05-27T13:07:03Z</time>
      </trkpt>
      <trkpt lat="47.69914" lon="-2.28053">
        <ele>68.4</ele>
        <time>2021-05-27T13:07:04Z</time>
      </trkpt>
      <trkpt lat="47.69916" lon="-2.2805">
        <ele>68.7</ele>
        <time>2021-05-27T13:07:05Z</time>
      </trkpt>
      <trkpt lat="47.69917" lon="-2.28047">
        <ele>68.9</ele>
        <time>2021-05-27T13:07:06Z</time>
      </trkpt>
      <trkpt lat="47.69918" lon="-2.28045">
        <ele>69</ele>
        <time>2021-05-27T13:07:07Z</time>
      </trkpt>
      <trkpt lat="47.69919" lon="-2.28042">
        <ele>69.1</ele>
        <time>2021-05-27T13:07:08Z</time>
      </trkpt>
      <trkpt lat="47.6992" lon="-2.28039">
        <ele>69.2</ele>
        <time>2021-05-27T13:07:09Z</time>
      </trkpt>
      <trkpt lat="47.6992" lon="-2.28036">
        <ele>69.3</ele>
        <time>2021-05-27T13:07:10Z</time>
      </trkpt>
      <trkpt lat="47.6992" lon="-2.28033">
        <ele>69.4</ele>
        <time>2021-05-27T13:07:11Z</time>
      </trkpt>
      <trkpt lat="47.6992" lon="-2.28031">
        <ele>69.4</ele>
        <time>2021-05-27T13:07:12Z</time>
      </trkpt>
      <trkpt lat="47.69919" lon="-2.28029">
        <ele>69.4</ele>
        <time>2021-05-27T13:07:13Z</time>
      </trkpt>
      <trkpt lat="47.69917" lon="-2.28026">
        <ele>69.4</ele>
        <time>2021-05-27T13:07:14Z</time>
      </trkpt>
      <trkpt lat="47.69915" lon="-2.28024">
        <ele>69.2</ele>
        <time>2021-05-27T13:07:15Z</time>
      </trkpt>
      <trkpt lat="47.69913" lon="-2.28021">
        <ele>68.9</ele>
        <time>2021-05-27T13:07:16Z</time>
      </trkpt>
      <trkpt lat="47.6991" lon="-2.28018">
        <ele>68.7</ele>
        <time>2021-05-27T13:07:17Z</time>
      </trkpt>
      <trkpt lat="47.69908" lon="-2.28015">
        <ele>68.4</ele>
        <time>2021-05-27T13:07:18Z</time>
      </trkpt>
      <trkpt lat="47.69906" lon="-2.28012">
        <ele>68.1</ele>
        <time>2021-05-27T13:07:19Z</time>
      </trkpt>
      <trkpt lat="47.69903" lon="-2.2801">
        <ele>67.9</ele>
        <time>2021-05-27T13:07:20Z</time>
      </trkpt>
      <trkpt lat="47.699" lon="-2.28007">
        <ele>67.5</ele>
        <time>2021-05-27T13:07:21Z</time>
      </trkpt>
      <trkpt lat="47.69897" lon="-2.28004">
        <ele>67</ele>
        <time>2021-05-27T13:07:22Z</time>
      </trkpt>
      <trkpt lat="47.69894" lon="-2.28001">
        <ele>66.6</ele>
        <time>2021-05-27T13:07:23Z</time>
      </trkpt>
      <trkpt lat="47.69891" lon="-2.27996">
        <ele>66.4</ele>
        <time>2021-05-27T13:07:24Z</time>
      </trkpt>
      <trkpt lat="47.69891" lon="-2.2799">
        <ele>66.3</ele>
        <time>2021-05-27T13:07:25Z</time>
      </trkpt>
      <trkpt lat="47.69891" lon="-2.27984">
        <ele>66.4</ele>
        <time>2021-05-27T13:07:26Z</time>
      </trkpt>
      <trkpt lat="47.69891" lon="-2.27978">
        <ele>66.5</ele>
        <time>2021-05-27T13:07:27Z</time>
      </trkpt>
      <trkpt lat="47.69892" lon="-2.27974">
        <ele>66.6</ele>
        <time>2021-05-27T13:07:28Z</time>
      </trkpt>
      <trkpt lat="47.69892" lon="-2.2797">
        <ele>66.7</ele>
        <time>2021-05-27T13:07:29Z</time>
      </trkpt>
      <trkpt lat="47.69892" lon="-2.27966">
        <ele>66.8</ele>
        <time>2021-05-27T13:07:30Z</time>
      </trkpt>
      <trkpt lat="47.69892" lon="-2.27962">
        <ele>66.8</ele>
        <time>2021-05-27T13:07:31Z</time>
      </trkpt>
      <trkpt lat="47.69893" lon="-2.27959">
        <ele>66.9</ele>
        <time>2021-05-27T13:07:32Z</time>
      </trkpt>
      <trkpt lat="47.69893" lon="-2.27956">
        <ele>67</ele>
        <time>2021-05-27T13:07:33Z</time>
      </trkpt>
      <trkpt lat="47.69894" lon="-2.27952">
        <ele>67.1</ele>
        <time>2021-05-27T13:07:34Z</time>
      </trkpt>
      <trkpt lat="47.69895" lon="-2.27948">
        <ele>67.3</ele>
        <time>2021-05-27T13:07:35Z</time>
      </trkpt>
      <trkpt lat="47.69896" lon="-2.27945">
        <ele>67.5</ele>
        <time>2021-05-27T13:07:36Z</time>
      </trkpt>
      <trkpt lat="47.69897" lon="-2.27942">
        <ele>67.7</ele>
        <time>2021-05-27T13:07:37Z</time>
      </trkpt>
      <trkpt lat="47.69898" lon="-2.27938">
        <ele>67.9</ele>
        <time>2021-05-27T13:07:38Z</time>
      </trkpt>
      <trkpt lat="47.69898" lon="-2.27935">
        <ele>68</ele>
        <time>2021-05-27T13:07:39Z</time>
      </trkpt>
      <trkpt lat="47.69898" lon="-2.27931">
        <ele>67.9</ele>
        <time>2021-05-27T13:07:40Z</time>
      </trkpt>
      <trkpt lat="47.69896" lon="-2.27927">
        <ele>67.7</ele>
        <time>2021-05-27T13:07:41Z</time>
      </trkpt>
      <trkpt lat="47.69894" lon="-2.27922">
        <ele>67.5</ele>
        <time>2021-05-27T13:07:42Z</time>
      </trkpt>
      <trkpt lat="47.69893" lon="-2.27916">
        <ele>67.3</ele>
        <time>2021-05-27T13:07:43Z</time>
      </trkpt>
      <trkpt lat="47.69893" lon="-2.27911">
        <ele>67.3</ele>
        <time>2021-05-27T13:07:44Z</time>
      </trkpt>
      <trkpt lat="47.69892" lon="-2.27907">
        <ele>67.2</ele>
        <time>2021-05-27T13:07:45Z</time>
      </trkpt>
      <trkpt lat="47.69891" lon="-2.27902">
        <ele>67</ele>
        <time>2021-05-27T13:07:46Z</time>
      </trkpt>
      <trkpt lat="47.6989" lon="-2.27898">
        <ele>66.8</ele>
        <time>2021-05-27T13:07:47Z</time>
      </trkpt>
      <trkpt lat="47.69887" lon="-2.27893">
        <ele>66.4</ele>
        <time>2021-05-27T13:07:48Z</time>
      </trkpt>
      <trkpt lat="47.69885" lon="-2.27888">
        <ele>66.1</ele>
        <time>2021-05-27T13:07:49Z</time>
      </trkpt>
      <trkpt lat="47.69883" lon="-2.27882">
        <ele>65.8</ele>
        <time>2021-05-27T13:07:50Z</time>
      </trkpt>
      <trkpt lat="47.69882" lon="-2.27876">
        <ele>65.7</ele>
        <time>2021-05-27T13:07:51Z</time>
      </trkpt>
      <trkpt lat="47.69881" lon="-2.27871">
        <ele>65.5</ele>
        <time>2021-05-27T13:07:52Z</time>
      </trkpt>
      <trkpt lat="47.6988" lon="-2.27866">
        <ele>65.3</ele>
        <time>2021-05-27T13:07:53Z</time>
      </trkpt>
      <trkpt lat="47.69878" lon="-2.27862">
        <ele>65</ele>
        <time>2021-05-27T13:07:54Z</time>
      </trkpt>
      <trkpt lat="47.69877" lon="-2.27857">
        <ele>64.8</ele>
        <time>2021-05-27T13:07:55Z</time>
      </trkpt>
      <trkpt lat="47.69876" lon="-2.27852">
        <ele>64.7</ele>
        <time>2021-05-27T13:07:56Z</time>
      </trkpt>
      <trkpt lat="47.69876" lon="-2.27846">
        <ele>64.6</ele>
        <time>2021-05-27T13:07:57Z</time>
      </trkpt>
      <trkpt lat="47.69876" lon="-2.2784">
        <ele>64.6</ele>
        <time>2021-05-27T13:07:58Z</time>
      </trkpt>
      <trkpt lat="47.69876" lon="-2.27835">
        <ele>64.6</ele>
        <time>2021-05-27T13:07:59Z</time>
      </trkpt>
      <trkpt lat="47.69875" lon="-2.27829">
        <ele>64.6</ele>
        <time>2021-05-27T13:08:00Z</time>
      </trkpt>
      <trkpt lat="47.69874" lon="-2.27823">
        <ele>64.5</ele>
        <time>2021-05-27T13:08:01Z</time>
      </trkpt>
      <trkpt lat="47.69873" lon="-2.27817">
        <ele>64.3</ele>
        <time>2021-05-27T13:08:02Z</time>
      </trkpt>
      <trkpt lat="47.69872" lon="-2.27812">
        <ele>64.2</ele>
        <time>2021-05-27T13:08:03Z</time>
      </trkpt>
      <trkpt lat="47.69871" lon="-2.27806">
        <ele>64.1</ele>
        <time>2021-05-27T13:08:04Z</time>
      </trkpt>
      <trkpt lat="47.69871" lon="-2.278">
        <ele>64.1</ele>
        <time>2021-05-27T13:08:05Z</time>
      </trkpt>
      <trkpt lat="47.69871" lon="-2.27794">
        <ele>64.2</ele>
        <time>2021-05-27T13:08:06Z</time>
      </trkpt>
      <trkpt lat="47.69871" lon="-2.27789">
        <ele>64.2</ele>
        <time>2021-05-27T13:08:07Z</time>
      </trkpt>
      <trkpt lat="47.69871" lon="-2.27784">
        <ele>64.2</ele>
        <time>2021-05-27T13:08:08Z</time>
      </trkpt>
      <trkpt lat="47.6987" lon="-2.2778">
        <ele>64.1</ele>
        <time>2021-05-27T13:08:09Z</time>
      </trkpt>
      <trkpt lat="47.69869" lon="-2.27776">
        <ele>63.9</ele>
        <time>2021-05-27T13:08:10Z</time>
      </trkpt>
      <trkpt lat="47.69868" lon="-2.27772">
        <ele>63.8</ele>
        <time>2021-05-27T13:08:11Z</time>
      </trkpt>
      <trkpt lat="47.69867" lon="-2.27767">
        <ele>63.7</ele>
        <time>2021-05-27T13:08:12Z</time>
      </trkpt>
      <trkpt lat="47.69867" lon="-2.2776">
        <ele>63.7</ele>
        <time>2021-05-27T13:08:13Z</time>
      </trkpt>
      <trkpt lat="47.69867" lon="-2.27754">
        <ele>63.9</ele>
        <time>2021-05-27T13:08:14Z</time>
      </trkpt>
      <trkpt lat="47.69868" lon="-2.27748">
        <ele>64.1</ele>
        <time>2021-05-27T13:08:15Z</time>
      </trkpt>
      <trkpt lat="47.69869" lon="-2.27743">
        <ele>64.3</ele>
        <time>2021-05-27T13:08:16Z</time>
      </trkpt>
      <trkpt lat="47.6987" lon="-2.27739">
        <ele>64.3</ele>
        <time>2021-05-27T13:08:17Z</time>
      </trkpt>
      <trkpt lat="47.69869" lon="-2.27735">
        <ele>64.2</ele>
        <time>2021-05-27T13:08:18Z</time>
      </trkpt>
      <trkpt lat="47.69869" lon="-2.27732">
        <ele>64.2</ele>
        <time>2021-05-27T13:08:19Z</time>
      </trkpt>
      <trkpt lat="47.69869" lon="-2.27727">
        <ele>64.3</ele>
        <time>2021-05-27T13:08:20Z</time>
      </trkpt>
      <trkpt lat="47.69869" lon="-2.27723">
        <ele>64.4</ele>
        <time>2021-05-27T13:08:21Z</time>
      </trkpt>
      <trkpt lat="47.6987" lon="-2.2772">
        <ele>64.5</ele>
        <time>2021-05-27T13:08:22Z</time>
      </trkpt>
      <trkpt lat="47.69869" lon="-2.27717">
        <ele>64.4</ele>
        <time>2021-05-27T13:08:23Z</time>
      </trkpt>
      <trkpt lat="47.69868" lon="-2.27715">
        <ele>64.3</ele>
        <time>2021-05-27T13:08:24Z</time>
      </trkpt>
      <trkpt lat="47.69868" lon="-2.27712">
        <ele>64.2</ele>
        <time>2021-05-27T13:08:25Z</time>
      </trkpt>
      <trkpt lat="47.69867" lon="-2.27708">
        <ele>64.2</ele>
        <time>2021-05-27T13:08:26Z</time>
      </trkpt>
      <trkpt lat="47.69866" lon="-2.27704">
        <ele>64.1</ele>
        <time>2021-05-27T13:08:27Z</time>
      </trkpt>
      <trkpt lat="47.69866" lon="-2.27699">
        <ele>64.1</ele>
        <time>2021-05-27T13:08:28Z</time>
      </trkpt>
      <trkpt lat="47.69865" lon="-2.27695">
        <ele>64</ele>
        <time>2021-05-27T13:08:29Z</time>
      </trkpt>
      <trkpt lat="47.69865" lon="-2.27692">
        <ele>63.9</ele>
        <time>2021-05-27T13:08:30Z</time>
      </trkpt>
      <trkpt lat="47.69864" lon="-2.27691">
        <ele>63.8</ele>
        <time>2021-05-27T13:08:31Z</time>
      </trkpt>
      <trkpt lat="47.69861" lon="-2.27691">
        <ele>63.5</ele>
        <time>2021-05-27T13:08:32Z</time>
      </trkpt>
      <trkpt lat="47.69858" lon="-2.27691">
        <ele>63.1</ele>
        <time>2021-05-27T13:08:33Z</time>
      </trkpt>
      <trkpt lat="47.69856" lon="-2.27688">
        <ele>62.8</ele>
        <time>2021-05-27T13:08:34Z</time>
      </trkpt>
      <trkpt lat="47.69854" lon="-2.27684">
        <ele>62.6</ele>
        <time>2021-05-27T13:08:35Z</time>
      </trkpt>
      <trkpt lat="47.69854" lon="-2.27679">
        <ele>62.6</ele>
        <time>2021-05-27T13:08:36Z</time>
      </trkpt>
      <trkpt lat="47.69854" lon="-2.27675">
        <ele>62.6</ele>
        <time>2021-05-27T13:08:37Z</time>
      </trkpt>
      <trkpt lat="47.69853" lon="-2.27671">
        <ele>62.6</ele>
        <time>2021-05-27T13:08:38Z</time>
      </trkpt>
      <trkpt lat="47.69852" lon="-2.27668">
        <ele>62.4</ele>
        <time>2021-05-27T13:08:39Z</time>
      </trkpt>
      <trkpt lat="47.69851" lon="-2.27663">
        <ele>62.4</ele>
        <time>2021-05-27T13:08:40Z</time>
      </trkpt>
      <trkpt lat="47.6985" lon="-2.27659">
        <ele>62.3</ele>
        <time>2021-05-27T13:08:41Z</time>
      </trkpt>
      <trkpt lat="47.6985" lon="-2.27655">
        <ele>62.4</ele>
        <time>2021-05-27T13:08:42Z</time>
      </trkpt>
      <trkpt lat="47.69851" lon="-2.27652">
        <ele>62.5</ele>
        <time>2021-05-27T13:08:43Z</time>
      </trkpt>
      <trkpt lat="47.69851" lon="-2.27649">
        <ele>62.6</ele>
        <time>2021-05-27T13:08:44Z</time>
      </trkpt>
      <trkpt lat="47.6985" lon="-2.27646">
        <ele>62.6</ele>
        <time>2021-05-27T13:08:45Z</time>
      </trkpt>
      <trkpt lat="47.6985" lon="-2.27643">
        <ele>62.6</ele>
        <time>2021-05-27T13:08:46Z</time>
      </trkpt>
      <trkpt lat="47.69849" lon="-2.27639">
        <ele>62.5</ele>
        <time>2021-05-27T13:08:47Z</time>
      </trkpt>
      <trkpt lat="47.69847" lon="-2.27636">
        <ele>62.4</ele>
        <time>2021-05-27T13:08:48Z</time>
      </trkpt>
      <trkpt lat="47.69846" lon="-2.27631">
        <ele>62.3</ele>
        <time>2021-05-27T13:08:49Z</time>
      </trkpt>
      <trkpt lat="47.69846" lon="-2.27626">
        <ele>62.5</ele>
        <time>2021-05-27T13:08:50Z</time>
      </trkpt>
      <trkpt lat="47.69847" lon="-2.27622">
        <ele>62.6</ele>
        <time>2021-05-27T13:08:51Z</time>
      </trkpt>
      <trkpt lat="47.69849" lon="-2.27618">
        <ele>62.9</ele>
        <time>2021-05-27T13:08:52Z</time>
      </trkpt>
      <trkpt lat="47.69851" lon="-2.27615">
        <ele>63.1</ele>
        <time>2021-05-27T13:08:53Z</time>
      </trkpt>
      <trkpt lat="47.69852" lon="-2.27613">
        <ele>63.4</ele>
        <time>2021-05-27T13:08:54Z</time>
      </trkpt>
      <trkpt lat="47.69854" lon="-2.27611">
        <ele>63.6</ele>
        <time>2021-05-27T13:08:55Z</time>
      </trkpt>
      <trkpt lat="47.69855" lon="-2.27608">
        <ele>63.7</ele>
        <time>2021-05-27T13:08:56Z</time>
      </trkpt>
      <trkpt lat="47.69855" lon="-2.27606">
        <ele>63.8</ele>
        <time>2021-05-27T13:08:57Z</time>
      </trkpt>
      <trkpt lat="47.69856" lon="-2.27603">
        <ele>63.9</ele>
        <time>2021-05-27T13:08:58Z</time>
      </trkpt>
      <trkpt lat="47.69858" lon="-2.276">
        <ele>64.1</ele>
        <time>2021-05-27T13:08:59Z</time>
      </trkpt>
      <trkpt lat="47.69859" lon="-2.27599">
        <ele>64.3</ele>
        <time>2021-05-27T13:09:00Z</time>
      </trkpt>
      <trkpt lat="47.69861" lon="-2.27597">
        <ele>64.4</ele>
        <time>2021-05-27T13:09:01Z</time>
      </trkpt>
      <trkpt lat="47.69861" lon="-2.27595">
        <ele>64.6</ele>
        <time>2021-05-27T13:09:02Z</time>
      </trkpt>
      <trkpt lat="47.69862" lon="-2.2759">
        <ele>64.7</ele>
        <time>2021-05-27T13:09:03Z</time>
      </trkpt>
      <trkpt lat="47.69862" lon="-2.27586">
        <ele>64.7</ele>
        <time>2021-05-27T13:09:04Z</time>
      </trkpt>
      <trkpt lat="47.69862" lon="-2.2758">
        <ele>64.8</ele>
        <time>2021-05-27T13:09:05Z</time>
      </trkpt>
      <trkpt lat="47.69862" lon="-2.27576">
        <ele>65</ele>
        <time>2021-05-27T13:09:06Z</time>
      </trkpt>
      <trkpt lat="47.69861" lon="-2.27572">
        <ele>65</ele>
        <time>2021-05-27T13:09:07Z</time>
      </trkpt>
      <trkpt lat="47.6986" lon="-2.27569">
        <ele>65</ele>
        <time>2021-05-27T13:09:08Z</time>
      </trkpt>
      <trkpt lat="47.69859" lon="-2.27566">
        <ele>65.1</ele>
        <time>2021-05-27T13:09:09Z</time>
      </trkpt>
      <trkpt lat="47.69858" lon="-2.27563">
        <ele>65</ele>
        <time>2021-05-27T13:09:10Z</time>
      </trkpt>
      <trkpt lat="47.69855" lon="-2.2756">
        <ele>64.9</ele>
        <time>2021-05-27T13:09:11Z</time>
      </trkpt>
      <trkpt lat="47.69853" lon="-2.27555">
        <ele>64.8</ele>
        <time>2021-05-27T13:09:12Z</time>
      </trkpt>
      <trkpt lat="47.69851" lon="-2.2755">
        <ele>64.8</ele>
        <time>2021-05-27T13:09:13Z</time>
      </trkpt>
      <trkpt lat="47.6985" lon="-2.27546">
        <ele>64.9</ele>
        <time>2021-05-27T13:09:14Z</time>
      </trkpt>
      <trkpt lat="47.6985" lon="-2.27541">
        <ele>65</ele>
        <time>2021-05-27T13:09:15Z</time>
      </trkpt>
      <trkpt lat="47.69849" lon="-2.27537">
        <ele>65.1</ele>
        <time>2021-05-27T13:09:16Z</time>
      </trkpt>
      <trkpt lat="47.69849" lon="-2.27532">
        <ele>65.2</ele>
        <time>2021-05-27T13:09:17Z</time>
      </trkpt>
      <trkpt lat="47.6985" lon="-2.27528">
        <ele>65.4</ele>
        <time>2021-05-27T13:09:18Z</time>
      </trkpt>
      <trkpt lat="47.69851" lon="-2.27523">
        <ele>65.7</ele>
        <time>2021-05-27T13:09:19Z</time>
      </trkpt>
      <trkpt lat="47.69851" lon="-2.2752">
        <ele>65.9</ele>
        <time>2021-05-27T13:09:20Z</time>
      </trkpt>
      <trkpt lat="47.69852" lon="-2.27517">
        <ele>66</ele>
        <time>2021-05-27T13:09:21Z</time>
      </trkpt>
      <trkpt lat="47.69854" lon="-2.27516">
        <ele>66.2</ele>
        <time>2021-05-27T13:09:22Z</time>
      </trkpt>
      <trkpt lat="47.69855" lon="-2.27514">
        <ele>66.4</ele>
        <time>2021-05-27T13:09:23Z</time>
      </trkpt>
      <trkpt lat="47.69856" lon="-2.27511">
        <ele>66.6</ele>
        <time>2021-05-27T13:09:24Z</time>
      </trkpt>
      <trkpt lat="47.69858" lon="-2.27508">
        <ele>66.8</ele>
        <time>2021-05-27T13:09:25Z</time>
      </trkpt>
      <trkpt lat="47.6986" lon="-2.27503">
        <ele>67.1</ele>
        <time>2021-05-27T13:09:26Z</time>
      </trkpt>
      <trkpt lat="47.6986" lon="-2.27499">
        <ele>67.3</ele>
        <time>2021-05-27T13:09:27Z</time>
      </trkpt>
      <trkpt lat="47.69861" lon="-2.27495">
        <ele>67.4</ele>
        <time>2021-05-27T13:09:28Z</time>
      </trkpt>
      <trkpt lat="47.69861" lon="-2.27492">
        <ele>67.5</ele>
        <time>2021-05-27T13:09:29Z</time>
      </trkpt>
      <trkpt lat="47.69862" lon="-2.27488">
        <ele>67.7</ele>
        <time>2021-05-27T13:09:30Z</time>
      </trkpt>
      <trkpt lat="47.69863" lon="-2.27484">
        <ele>67.8</ele>
        <time>2021-05-27T13:09:31Z</time>
      </trkpt>
      <trkpt lat="47.69862" lon="-2.27481">
        <ele>67.8</ele>
        <time>2021-05-27T13:09:32Z</time>
      </trkpt>
      <trkpt lat="47.69861" lon="-2.27477">
        <ele>67.8</ele>
        <time>2021-05-27T13:09:33Z</time>
      </trkpt>
      <trkpt lat="47.69861" lon="-2.27472">
        <ele>67.8</ele>
        <time>2021-05-27T13:09:34Z</time>
      </trkpt>
      <trkpt lat="47.6986" lon="-2.27468">
        <ele>67.9</ele>
        <time>2021-05-27T13:09:35Z</time>
      </trkpt>
      <trkpt lat="47.6986" lon="-2.27464">
        <ele>67.9</ele>
        <time>2021-05-27T13:09:36Z</time>
      </trkpt>
      <trkpt lat="47.69861" lon="-2.27459">
        <ele>68.1</ele>
        <time>2021-05-27T13:09:37Z</time>
      </trkpt>
      <trkpt lat="47.69861" lon="-2.27454">
        <ele>68.2</ele>
        <time>2021-05-27T13:09:38Z</time>
      </trkpt>
      <trkpt lat="47.69861" lon="-2.27449">
        <ele>68.4</ele>
        <time>2021-05-27T13:09:39Z</time>
      </trkpt>
      <trkpt lat="47.69861" lon="-2.27445">
        <ele>68.5</ele>
        <time>2021-05-27T13:09:40Z</time>
      </trkpt>
      <trkpt lat="47.69861" lon="-2.27441">
        <ele>68.5</ele>
        <time>2021-05-27T13:09:41Z</time>
      </trkpt>
      <trkpt lat="47.6986" lon="-2.27437">
        <ele>68.5</ele>
        <time>2021-05-27T13:09:42Z</time>
      </trkpt>
      <trkpt lat="47.69859" lon="-2.27432">
        <ele>68.4</ele>
        <time>2021-05-27T13:09:43Z</time>
      </trkpt>
      <trkpt lat="47.69856" lon="-2.27428">
        <ele>68.2</ele>
        <time>2021-05-27T13:09:44Z</time>
      </trkpt>
      <trkpt lat="47.69854" lon="-2.27425">
        <ele>68.1</ele>
        <time>2021-05-27T13:09:45Z</time>
      </trkpt>
      <trkpt lat="47.69852" lon="-2.27421">
        <ele>67.9</ele>
        <time>2021-05-27T13:09:46Z</time>
      </trkpt>
      <trkpt lat="47.69849" lon="-2.27418">
        <ele>67.7</ele>
        <time>2021-05-27T13:09:47Z</time>
      </trkpt>
      <trkpt lat="47.69847" lon="-2.27415">
        <ele>67.4</ele>
        <time>2021-05-27T13:09:48Z</time>
      </trkpt>
      <trkpt lat="47.69844" lon="-2.27411">
        <ele>67.2</ele>
        <time>2021-05-27T13:09:49Z</time>
      </trkpt>
      <trkpt lat="47.69841" lon="-2.27408">
        <ele>66.8</ele>
        <time>2021-05-27T13:09:50Z</time>
      </trkpt>
      <trkpt lat="47.69837" lon="-2.27403">
        <ele>66.4</ele>
        <time>2021-05-27T13:09:51Z</time>
      </trkpt>
      <trkpt lat="47.69833" lon="-2.27399">
        <ele>66</ele>
        <time>2021-05-27T13:09:52Z</time>
      </trkpt>
      <trkpt lat="47.6983" lon="-2.27395">
        <ele>65.4</ele>
        <time>2021-05-27T13:09:53Z</time>
      </trkpt>
      <trkpt lat="47.69827" lon="-2.27391">
        <ele>64.8</ele>
        <time>2021-05-27T13:09:54Z</time>
      </trkpt>
      <trkpt lat="47.69825" lon="-2.27386">
        <ele>64.5</ele>
        <time>2021-05-27T13:09:55Z</time>
      </trkpt>
      <trkpt lat="47.69824" lon="-2.27381">
        <ele>64.2</ele>
        <time>2021-05-27T13:09:56Z</time>
      </trkpt>
      <trkpt lat="47.69822" lon="-2.27375">
        <ele>63.9</ele>
        <time>2021-05-27T13:09:57Z</time>
      </trkpt>
      <trkpt lat="47.69821" lon="-2.27368">
        <ele>63.6</ele>
        <time>2021-05-27T13:09:58Z</time>
      </trkpt>
      <trkpt lat="47.6982" lon="-2.27361">
        <ele>63.4</ele>
        <time>2021-05-27T13:09:59Z</time>
      </trkpt>
      <trkpt lat="47.69821" lon="-2.27355">
        <ele>63.6</ele>
        <time>2021-05-27T13:10:00Z</time>
      </trkpt>
      <trkpt lat="47.69823" lon="-2.2735">
        <ele>63.9</ele>
        <time>2021-05-27T13:10:01Z</time>
      </trkpt>
      <trkpt lat="47.69824" lon="-2.27346">
        <ele>64.1</ele>
        <time>2021-05-27T13:10:02Z</time>
      </trkpt>
      <trkpt lat="47.69825" lon="-2.27341">
        <ele>64.3</ele>
        <time>2021-05-27T13:10:03Z</time>
      </trkpt>
      <trkpt lat="47.69826" lon="-2.27337">
        <ele>64.5</ele>
        <time>2021-05-27T13:10:04Z</time>
      </trkpt>
      <trkpt lat="47.69827" lon="-2.27333">
        <ele>64.7</ele>
        <time>2021-05-27T13:10:05Z</time>
      </trkpt>
      <trkpt lat="47.69829" lon="-2.2733">
        <ele>65.2</ele>
        <time>2021-05-27T13:10:06Z</time>
      </trkpt>
      <trkpt lat="47.6983" lon="-2.27327">
        <ele>65.6</ele>
        <time>2021-05-27T13:10:07Z</time>
      </trkpt>
      <trkpt lat="47.69831" lon="-2.27324">
        <ele>65.9</ele>
        <time>2021-05-27T13:10:08Z</time>
      </trkpt>
      <trkpt lat="47.69832" lon="-2.27321">
        <ele>66.3</ele>
        <time>2021-05-27T13:10:09Z</time>
      </trkpt>
      <trkpt lat="47.69834" lon="-2.27319">
        <ele>66.6</ele>
        <time>2021-05-27T13:10:10Z</time>
      </trkpt>
      <trkpt lat="47.69835" lon="-2.27318">
        <ele>66.8</ele>
        <time>2021-05-27T13:10:11Z</time>
      </trkpt>
      <trkpt lat="47.69837" lon="-2.27317">
        <ele>67</ele>
        <time>2021-05-27T13:10:12Z</time>
      </trkpt>
      <trkpt lat="47.69837" lon="-2.27317">
        <ele>67</ele>
        <time>2021-05-27T13:10:13Z</time>
      </trkpt>
      <trkpt lat="47.69838" lon="-2.27317">
        <ele>67</ele>
        <time>2021-05-27T13:10:14Z</time>
      </trkpt>
      <trkpt lat="47.69838" lon="-2.27317">
        <ele>67</ele>
        <time>2021-05-27T13:10:15Z</time>
      </trkpt>
      <trkpt lat="47.69838" lon="-2.27317">
        <ele>67</ele>
        <time>2021-05-27T13:10:16Z</time>
      </trkpt>
      <trkpt lat="47.69838" lon="-2.27317">
        <ele>67</ele>
        <time>2021-05-27T13:10:17Z</time>
      </trkpt>
      <trkpt lat="47.69838" lon="-2.27317">
        <ele>67</ele>
        <time>2021-05-27T13:10:18Z</time>
      </trkpt>
      <trkpt lat="47.69838" lon="-2.27317">
        <ele>67</ele>
        <time>2021-05-27T13:10:19Z</time>
      </trkpt>
      <trkpt lat="47.69838" lon="-2.27317">
        <ele>67</ele>
        <time>2021-05-27T13:10:20Z</time>
      </trkpt>
      <trkpt lat="47.69842" lon="-2.27313">
        <ele>67.7</ele>
        <time>2021-05-27T13:10:21Z</time>
      </trkpt>
      <trkpt lat="47.69843" lon="-2.27311">
        <ele>67.8</ele>
        <time>2021-05-27T13:10:22Z</time>
      </trkpt>
      <trkpt lat="47.69843" lon="-2.2731">
        <ele>67.9</ele>
        <time>2021-05-27T13:10:23Z</time>
      </trkpt>
      <trkpt lat="47.69843" lon="-2.2731">
        <ele>68</ele>
        <time>2021-05-27T13:10:24Z</time>
      </trkpt>
      <trkpt lat="47.69843" lon="-2.27309">
        <ele>68</ele>
        <time>2021-05-27T13:10:25Z</time>
      </trkpt>
      <trkpt lat="47.69843" lon="-2.27309">
        <ele>68</ele>
        <time>2021-05-27T13:10:26Z</time>
      </trkpt>
      <trkpt lat="47.69843" lon="-2.27309">
        <ele>68</ele>
        <time>2021-05-27T13:10:27Z</time>
      </trkpt>
      <trkpt lat="47.69843" lon="-2.27309">
        <ele>68</ele>
        <time>2021-05-27T13:10:28Z</time>
      </trkpt>
      <trkpt lat="47.69843" lon="-2.27303">
        <ele>68.2</ele>
        <time>2021-05-27T13:10:29Z</time>
      </trkpt>
      <trkpt lat="47.69843" lon="-2.27299">
        <ele>68.3</ele>
        <time>2021-05-27T13:10:30Z</time>
      </trkpt>
      <trkpt lat="47.69843" lon="-2.27295">
        <ele>68.5</ele>
        <time>2021-05-27T13:10:31Z</time>
      </trkpt>
      <trkpt lat="47.69845" lon="-2.27291">
        <ele>68.8</ele>
        <time>2021-05-27T13:10:32Z</time>
      </trkpt>
      <trkpt lat="47.69846" lon="-2.27288">
        <ele>69</ele>
        <time>2021-05-27T13:10:33Z</time>
      </trkpt>
      <trkpt lat="47.69847" lon="-2.27285">
        <ele>69.3</ele>
        <time>2021-05-27T13:10:34Z</time>
      </trkpt>
      <trkpt lat="47.69848" lon="-2.27283">
        <ele>69.6</ele>
        <time>2021-05-27T13:10:35Z</time>
      </trkpt>
      <trkpt lat="47.6985" lon="-2.27281">
        <ele>69.8</ele>
        <time>2021-05-27T13:10:36Z</time>
      </trkpt>
      <trkpt lat="47.69852" lon="-2.27278">
        <ele>70.2</ele>
        <time>2021-05-27T13:10:37Z</time>
      </trkpt>
      <trkpt lat="47.69855" lon="-2.27276">
        <ele>70.5</ele>
        <time>2021-05-27T13:10:38Z</time>
      </trkpt>
      <trkpt lat="47.69857" lon="-2.27275">
        <ele>70.9</ele>
        <time>2021-05-27T13:10:39Z</time>
      </trkpt>
      <trkpt lat="47.69859" lon="-2.27274">
        <ele>71.2</ele>
        <time>2021-05-27T13:10:40Z</time>
      </trkpt>
      <trkpt lat="47.69862" lon="-2.27272">
        <ele>71.6</ele>
        <time>2021-05-27T13:10:41Z</time>
      </trkpt>
      <trkpt lat="47.69865" lon="-2.27271">
        <ele>71.9</ele>
        <time>2021-05-27T13:10:42Z</time>
      </trkpt>
      <trkpt lat="47.69867" lon="-2.27268">
        <ele>72.3</ele>
        <time>2021-05-27T13:10:43Z</time>
      </trkpt>
      <trkpt lat="47.69868" lon="-2.27267">
        <ele>72.5</ele>
        <time>2021-05-27T13:10:44Z</time>
      </trkpt>
      <trkpt lat="47.69869" lon="-2.27264">
        <ele>72.7</ele>
        <time>2021-05-27T13:10:45Z</time>
      </trkpt>
      <trkpt lat="47.69869" lon="-2.27261">
        <ele>72.8</ele>
        <time>2021-05-27T13:10:46Z</time>
      </trkpt>
      <trkpt lat="47.69868" lon="-2.27258">
        <ele>72.9</ele>
        <time>2021-05-27T13:10:47Z</time>
      </trkpt>
      <trkpt lat="47.69866" lon="-2.27255">
        <ele>72.7</ele>
        <time>2021-05-27T13:10:48Z</time>
      </trkpt>
      <trkpt lat="47.69866" lon="-2.27252">
        <ele>72.8</ele>
        <time>2021-05-27T13:10:49Z</time>
      </trkpt>
      <trkpt lat="47.69865" lon="-2.27248">
        <ele>72.8</ele>
        <time>2021-05-27T13:10:50Z</time>
      </trkpt>
      <trkpt lat="47.69865" lon="-2.27245">
        <ele>72.8</ele>
        <time>2021-05-27T13:10:51Z</time>
      </trkpt>
      <trkpt lat="47.69865" lon="-2.27241">
        <ele>72.9</ele>
        <time>2021-05-27T13:10:52Z</time>
      </trkpt>
      <trkpt lat="47.69864" lon="-2.27237">
        <ele>72.9</ele>
        <time>2021-05-27T13:10:53Z</time>
      </trkpt>
      <trkpt lat="47.69863" lon="-2.27232">
        <ele>72.8</ele>
        <time>2021-05-27T13:10:54Z</time>
      </trkpt>
      <trkpt lat="47.69863" lon="-2.27228">
        <ele>72.8</ele>
        <time>2021-05-27T13:10:55Z</time>
      </trkpt>
      <trkpt lat="47.69862" lon="-2.27223">
        <ele>72.7</ele>
        <time>2021-05-27T13:10:56Z</time>
      </trkpt>
      <trkpt lat="47.69861" lon="-2.27218">
        <ele>72.7</ele>
        <time>2021-05-27T13:10:57Z</time>
      </trkpt>
      <trkpt lat="47.6986" lon="-2.27214">
        <ele>72.6</ele>
        <time>2021-05-27T13:10:58Z</time>
      </trkpt>
      <trkpt lat="47.69859" lon="-2.2721">
        <ele>72.6</ele>
        <time>2021-05-27T13:10:59Z</time>
      </trkpt>
      <trkpt lat="47.69858" lon="-2.27207">
        <ele>72.6</ele>
        <time>2021-05-27T13:11:00Z</time>
      </trkpt>
      <trkpt lat="47.69858" lon="-2.27204">
        <ele>72.5</ele>
        <time>2021-05-27T13:11:01Z</time>
      </trkpt>
      <trkpt lat="47.69856" lon="-2.27201">
        <ele>72.4</ele>
        <time>2021-05-27T13:11:02Z</time>
      </trkpt>
      <trkpt lat="47.69854" lon="-2.27198">
        <ele>72.2</ele>
        <time>2021-05-27T13:11:03Z</time>
      </trkpt>
      <trkpt lat="47.69852" lon="-2.27196">
        <ele>72.1</ele>
        <time>2021-05-27T13:11:04Z</time>
      </trkpt>
      <trkpt lat="47.6985" lon="-2.27195">
        <ele>71.9</ele>
        <time>2021-05-27T13:11:05Z</time>
      </trkpt>
      <trkpt lat="47.69848" lon="-2.27195">
        <ele>71.7</ele>
        <time>2021-05-27T13:11:06Z</time>
      </trkpt>
      <trkpt lat="47.69845" lon="-2.27195">
        <ele>71.4</ele>
        <time>2021-05-27T13:11:07Z</time>
      </trkpt>
      <trkpt lat="47.69843" lon="-2.27195">
        <ele>71.3</ele>
        <time>2021-05-27T13:11:08Z</time>
      </trkpt>
      <trkpt lat="47.69842" lon="-2.27194">
        <ele>71.1</ele>
        <time>2021-05-27T13:11:09Z</time>
      </trkpt>
      <trkpt lat="47.69841" lon="-2.27191">
        <ele>71.1</ele>
        <time>2021-05-27T13:11:10Z</time>
      </trkpt>
      <trkpt lat="47.69839" lon="-2.27188">
        <ele>71.1</ele>
        <time>2021-05-27T13:11:11Z</time>
      </trkpt>
      <trkpt lat="47.69839" lon="-2.27183">
        <ele>71.1</ele>
        <time>2021-05-27T13:11:12Z</time>
      </trkpt>
      <trkpt lat="47.69839" lon="-2.27179">
        <ele>71.2</ele>
        <time>2021-05-27T13:11:13Z</time>
      </trkpt>
      <trkpt lat="47.69841" lon="-2.27171">
        <ele>71.5</ele>
        <time>2021-05-27T13:11:15Z</time>
      </trkpt>
      <trkpt lat="47.69841" lon="-2.27167">
        <ele>71.6</ele>
        <time>2021-05-27T13:11:16Z</time>
      </trkpt>
      <trkpt lat="47.6984" lon="-2.27164">
        <ele>71.5</ele>
        <time>2021-05-27T13:11:17Z</time>
      </trkpt>
      <trkpt lat="47.69838" lon="-2.2716">
        <ele>71.3</ele>
        <time>2021-05-27T13:11:18Z</time>
      </trkpt>
      <trkpt lat="47.69836" lon="-2.27156">
        <ele>71.1</ele>
        <time>2021-05-27T13:11:19Z</time>
      </trkpt>
      <trkpt lat="47.69835" lon="-2.27152">
        <ele>71</ele>
        <time>2021-05-27T13:11:20Z</time>
      </trkpt>
      <trkpt lat="47.69835" lon="-2.27147">
        <ele>70.9</ele>
        <time>2021-05-27T13:11:21Z</time>
      </trkpt>
      <trkpt lat="47.69834" lon="-2.27143">
        <ele>70.8</ele>
        <time>2021-05-27T13:11:22Z</time>
      </trkpt>
      <trkpt lat="47.69834" lon="-2.27139">
        <ele>70.7</ele>
        <time>2021-05-27T13:11:23Z</time>
      </trkpt>
      <trkpt lat="47.69833" lon="-2.27134">
        <ele>70.6</ele>
        <time>2021-05-27T13:11:24Z</time>
      </trkpt>
      <trkpt lat="47.69833" lon="-2.27129">
        <ele>70.5</ele>
        <time>2021-05-27T13:11:25Z</time>
      </trkpt>
      <trkpt lat="47.69833" lon="-2.27125">
        <ele>70.5</ele>
        <time>2021-05-27T13:11:26Z</time>
      </trkpt>
      <trkpt lat="47.69834" lon="-2.27122">
        <ele>70.5</ele>
        <time>2021-05-27T13:11:27Z</time>
      </trkpt>
      <trkpt lat="47.69835" lon="-2.27121">
        <ele>70.6</ele>
        <time>2021-05-27T13:11:28Z</time>
      </trkpt>
      <trkpt lat="47.69837" lon="-2.2712">
        <ele>70.6</ele>
        <time>2021-05-27T13:11:29Z</time>
      </trkpt>
      <trkpt lat="47.69838" lon="-2.2712">
        <ele>70.7</ele>
        <time>2021-05-27T13:11:30Z</time>
      </trkpt>
      <trkpt lat="47.69838" lon="-2.2712">
        <ele>70.7</ele>
        <time>2021-05-27T13:11:31Z</time>
      </trkpt>
      <trkpt lat="47.69839" lon="-2.2712">
        <ele>70.7</ele>
        <time>2021-05-27T13:11:32Z</time>
      </trkpt>
      <trkpt lat="47.69839" lon="-2.2712">
        <ele>70.8</ele>
        <time>2021-05-27T13:11:33Z</time>
      </trkpt>
      <trkpt lat="47.69839" lon="-2.2712">
        <ele>70.8</ele>
        <time>2021-05-27T13:11:34Z</time>
      </trkpt>
      <trkpt lat="47.69839" lon="-2.2712">
        <ele>70.8</ele>
        <time>2021-05-27T13:11:35Z</time>
      </trkpt>
      <trkpt lat="47.69839" lon="-2.2712">
        <ele>70.8</ele>
        <time>2021-05-27T13:11:36Z</time>
      </trkpt>
      <trkpt lat="47.69839" lon="-2.2712">
        <ele>70.8</ele>
        <time>2021-05-27T13:11:37Z</time>
      </trkpt>
      <trkpt lat="47.69839" lon="-2.2712">
        <ele>70.8</ele>
        <time>2021-05-27T13:11:38Z</time>
      </trkpt>
      <trkpt lat="47.69839" lon="-2.2712">
        <ele>70.8</ele>
        <time>2021-05-27T13:11:39Z</time>
      </trkpt>
      <trkpt lat="47.69839" lon="-2.2712">
        <ele>70.8</ele>
        <time>2021-05-27T13:11:40Z</time>
      </trkpt>
      <trkpt lat="47.69839" lon="-2.2712">
        <ele>70.8</ele>
        <time>2021-05-27T13:11:41Z</time>
      </trkpt>
      <trkpt lat="47.69839" lon="-2.2712">
        <ele>70.8</ele>
        <time>2021-05-27T13:11:42Z</time>
      </trkpt>
      <trkpt lat="47.69845" lon="-2.27114">
        <ele>71</ele>
        <time>2021-05-27T13:11:43Z</time>
      </trkpt>
      <trkpt lat="47.69845" lon="-2.2711">
        <ele>70.9</ele>
        <time>2021-05-27T13:11:44Z</time>
      </trkpt>
      <trkpt lat="47.69845" lon="-2.27106">
        <ele>70.9</ele>
        <time>2021-05-27T13:11:45Z</time>
      </trkpt>
      <trkpt lat="47.69846" lon="-2.27101">
        <ele>70.8</ele>
        <time>2021-05-27T13:11:46Z</time>
      </trkpt>
      <trkpt lat="47.69846" lon="-2.27097">
        <ele>70.7</ele>
        <time>2021-05-27T13:11:47Z</time>
      </trkpt>
      <trkpt lat="47.69847" lon="-2.27093">
        <ele>70.7</ele>
        <time>2021-05-27T13:11:48Z</time>
      </trkpt>
      <trkpt lat="47.69848" lon="-2.27089">
        <ele>70.6</ele>
        <time>2021-05-27T13:11:49Z</time>
      </trkpt>
      <trkpt lat="47.69849" lon="-2.27084">
        <ele>70.6</ele>
        <time>2021-05-27T13:11:50Z</time>
      </trkpt>
      <trkpt lat="47.6985" lon="-2.2708">
        <ele>70.5</ele>
        <time>2021-05-27T13:11:51Z</time>
      </trkpt>
      <trkpt lat="47.69851" lon="-2.27075">
        <ele>70.5</ele>
        <time>2021-05-27T13:11:52Z</time>
      </trkpt>
      <trkpt lat="47.69852" lon="-2.27072">
        <ele>70.5</ele>
        <time>2021-05-27T13:11:53Z</time>
      </trkpt>
      <trkpt lat="47.69851" lon="-2.27069">
        <ele>70.4</ele>
        <time>2021-05-27T13:11:54Z</time>
      </trkpt>
      <trkpt lat="47.69849" lon="-2.27066">
        <ele>70.3</ele>
        <time>2021-05-27T13:11:55Z</time>
      </trkpt>
      <trkpt lat="47.69847" lon="-2.27064">
        <ele>70.2</ele>
        <time>2021-05-27T13:11:56Z</time>
      </trkpt>
      <trkpt lat="47.69845" lon="-2.27061">
        <ele>70.1</ele>
        <time>2021-05-27T13:11:57Z</time>
      </trkpt>
      <trkpt lat="47.69844" lon="-2.27058">
        <ele>70</ele>
        <time>2021-05-27T13:11:58Z</time>
      </trkpt>
      <trkpt lat="47.69843" lon="-2.27053">
        <ele>69.9</ele>
        <time>2021-05-27T13:11:59Z</time>
      </trkpt>
      <trkpt lat="47.69841" lon="-2.27049">
        <ele>69.8</ele>
        <time>2021-05-27T13:12:00Z</time>
      </trkpt>
      <trkpt lat="47.69839" lon="-2.27046">
        <ele>69.7</ele>
        <time>2021-05-27T13:12:01Z</time>
      </trkpt>
      <trkpt lat="47.69836" lon="-2.27045">
        <ele>69.6</ele>
        <time>2021-05-27T13:12:02Z</time>
      </trkpt>
      <trkpt lat="47.69833" lon="-2.27042">
        <ele>69.5</ele>
        <time>2021-05-27T13:12:03Z</time>
      </trkpt>
      <trkpt lat="47.69832" lon="-2.27038">
        <ele>69.2</ele>
        <time>2021-05-27T13:12:04Z</time>
      </trkpt>
      <trkpt lat="47.69831" lon="-2.27034">
        <ele>69</ele>
        <time>2021-05-27T13:12:05Z</time>
      </trkpt>
      <trkpt lat="47.69831" lon="-2.27028">
        <ele>68.8</ele>
        <time>2021-05-27T13:12:06Z</time>
      </trkpt>
      <trkpt lat="47.6983" lon="-2.27022">
        <ele>68.6</ele>
        <time>2021-05-27T13:12:07Z</time>
      </trkpt>
      <trkpt lat="47.6983" lon="-2.27017">
        <ele>68.5</ele>
        <time>2021-05-27T13:12:08Z</time>
      </trkpt>
      <trkpt lat="47.6983" lon="-2.27011">
        <ele>68.6</ele>
        <time>2021-05-27T13:12:09Z</time>
      </trkpt>
      <trkpt lat="47.69831" lon="-2.27006">
        <ele>68.6</ele>
        <time>2021-05-27T13:12:10Z</time>
      </trkpt>
      <trkpt lat="47.69832" lon="-2.27001">
        <ele>68.8</ele>
        <time>2021-05-27T13:12:11Z</time>
      </trkpt>
      <trkpt lat="47.69833" lon="-2.26996">
        <ele>69.1</ele>
        <time>2021-05-27T13:12:12Z</time>
      </trkpt>
      <trkpt lat="47.69832" lon="-2.26991">
        <ele>69.1</ele>
        <time>2021-05-27T13:12:13Z</time>
      </trkpt>
      <trkpt lat="47.69832" lon="-2.26986">
        <ele>69.1</ele>
        <time>2021-05-27T13:12:14Z</time>
      </trkpt>
      <trkpt lat="47.69831" lon="-2.26982">
        <ele>69.3</ele>
        <time>2021-05-27T13:12:15Z</time>
      </trkpt>
      <trkpt lat="47.69831" lon="-2.26977">
        <ele>69.3</ele>
        <time>2021-05-27T13:12:16Z</time>
      </trkpt>
      <trkpt lat="47.6983" lon="-2.26972">
        <ele>69.3</ele>
        <time>2021-05-27T13:12:17Z</time>
      </trkpt>
      <trkpt lat="47.69828" lon="-2.26966">
        <ele>69.2</ele>
        <time>2021-05-27T13:12:18Z</time>
      </trkpt>
      <trkpt lat="47.69826" lon="-2.26961">
        <ele>69.1</ele>
        <time>2021-05-27T13:12:19Z</time>
      </trkpt>
      <trkpt lat="47.69825" lon="-2.26956">
        <ele>69.1</ele>
        <time>2021-05-27T13:12:20Z</time>
      </trkpt>
      <trkpt lat="47.69825" lon="-2.26951">
        <ele>69.3</ele>
        <time>2021-05-27T13:12:21Z</time>
      </trkpt>
      <trkpt lat="47.69825" lon="-2.26947">
        <ele>69.4</ele>
        <time>2021-05-27T13:12:22Z</time>
      </trkpt>
      <trkpt lat="47.69825" lon="-2.26943">
        <ele>69.6</ele>
        <time>2021-05-27T13:12:23Z</time>
      </trkpt>
      <trkpt lat="47.69824" lon="-2.2694">
        <ele>69.5</ele>
        <time>2021-05-27T13:12:24Z</time>
      </trkpt>
      <trkpt lat="47.69822" lon="-2.26938">
        <ele>69.3</ele>
        <time>2021-05-27T13:12:25Z</time>
      </trkpt>
      <trkpt lat="47.69819" lon="-2.26937">
        <ele>68.9</ele>
        <time>2021-05-27T13:12:26Z</time>
      </trkpt>
      <trkpt lat="47.69817" lon="-2.26935">
        <ele>68.4</ele>
        <time>2021-05-27T13:12:27Z</time>
      </trkpt>
      <trkpt lat="47.69814" lon="-2.26933">
        <ele>68.1</ele>
        <time>2021-05-27T13:12:28Z</time>
      </trkpt>
      <trkpt lat="47.69812" lon="-2.26932">
        <ele>67.7</ele>
        <time>2021-05-27T13:12:29Z</time>
      </trkpt>
      <trkpt lat="47.6981" lon="-2.26931">
        <ele>67.4</ele>
        <time>2021-05-27T13:12:30Z</time>
      </trkpt>
      <trkpt lat="47.69808" lon="-2.2693">
        <ele>67.1</ele>
        <time>2021-05-27T13:12:31Z</time>
      </trkpt>
      <trkpt lat="47.69806" lon="-2.26928">
        <ele>67</ele>
        <time>2021-05-27T13:12:32Z</time>
      </trkpt>
      <trkpt lat="47.69806" lon="-2.26927">
        <ele>67</ele>
        <time>2021-05-27T13:12:33Z</time>
      </trkpt>
      <trkpt lat="47.69806" lon="-2.26926">
        <ele>66.9</ele>
        <time>2021-05-27T13:12:34Z</time>
      </trkpt>
      <trkpt lat="47.69806" lon="-2.26926">
        <ele>66.9</ele>
        <time>2021-05-27T13:12:35Z</time>
      </trkpt>
      <trkpt lat="47.69806" lon="-2.26926">
        <ele>66.9</ele>
        <time>2021-05-27T13:12:36Z</time>
      </trkpt>
      <trkpt lat="47.69804" lon="-2.26922">
        <ele>66.9</ele>
        <time>2021-05-27T13:12:37Z</time>
      </trkpt>
      <trkpt lat="47.69804" lon="-2.2692">
        <ele>66.9</ele>
        <time>2021-05-27T13:12:38Z</time>
      </trkpt>
      <trkpt lat="47.69803" lon="-2.26917">
        <ele>66.9</ele>
        <time>2021-05-27T13:12:39Z</time>
      </trkpt>
      <trkpt lat="47.69803" lon="-2.26914">
        <ele>67</ele>
        <time>2021-05-27T13:12:40Z</time>
      </trkpt>
      <trkpt lat="47.69804" lon="-2.2691">
        <ele>67</ele>
        <time>2021-05-27T13:12:41Z</time>
      </trkpt>
      <trkpt lat="47.69804" lon="-2.26906">
        <ele>67</ele>
        <time>2021-05-27T13:12:42Z</time>
      </trkpt>
      <trkpt lat="47.69804" lon="-2.26903">
        <ele>67.1</ele>
        <time>2021-05-27T13:12:43Z</time>
      </trkpt>
      <trkpt lat="47.69804" lon="-2.26898">
        <ele>67</ele>
        <time>2021-05-27T13:12:44Z</time>
      </trkpt>
      <trkpt lat="47.69804" lon="-2.26894">
        <ele>67</ele>
        <time>2021-05-27T13:12:45Z</time>
      </trkpt>
      <trkpt lat="47.69804" lon="-2.2689">
        <ele>67.1</ele>
        <time>2021-05-27T13:12:46Z</time>
      </trkpt>
      <trkpt lat="47.69804" lon="-2.26885">
        <ele>67.1</ele>
        <time>2021-05-27T13:12:47Z</time>
      </trkpt>
      <trkpt lat="47.69805" lon="-2.26882">
        <ele>67.2</ele>
        <time>2021-05-27T13:12:48Z</time>
      </trkpt>
      <trkpt lat="47.69805" lon="-2.26878">
        <ele>67.2</ele>
        <time>2021-05-27T13:12:49Z</time>
      </trkpt>
      <trkpt lat="47.69806" lon="-2.26874">
        <ele>67.4</ele>
        <time>2021-05-27T13:12:50Z</time>
      </trkpt>
      <trkpt lat="47.69806" lon="-2.2687">
        <ele>67.5</ele>
        <time>2021-05-27T13:12:51Z</time>
      </trkpt>
      <trkpt lat="47.69807" lon="-2.26866">
        <ele>67.6</ele>
        <time>2021-05-27T13:12:52Z</time>
      </trkpt>
      <trkpt lat="47.69808" lon="-2.26862">
        <ele>67.7</ele>
        <time>2021-05-27T13:12:53Z</time>
      </trkpt>
      <trkpt lat="47.69809" lon="-2.2686">
        <ele>68</ele>
        <time>2021-05-27T13:12:54Z</time>
      </trkpt>
      <trkpt lat="47.69811" lon="-2.26857">
        <ele>68.2</ele>
        <time>2021-05-27T13:12:55Z</time>
      </trkpt>
      <trkpt lat="47.69812" lon="-2.26854">
        <ele>68.4</ele>
        <time>2021-05-27T13:12:56Z</time>
      </trkpt>
      <trkpt lat="47.69812" lon="-2.26851">
        <ele>68.4</ele>
        <time>2021-05-27T13:12:57Z</time>
      </trkpt>
      <trkpt lat="47.69811" lon="-2.26847">
        <ele>68.3</ele>
        <time>2021-05-27T13:12:58Z</time>
      </trkpt>
      <trkpt lat="47.6981" lon="-2.26842">
        <ele>68.1</ele>
        <time>2021-05-27T13:12:59Z</time>
      </trkpt>
      <trkpt lat="47.69809" lon="-2.26838">
        <ele>67.9</ele>
        <time>2021-05-27T13:13:00Z</time>
      </trkpt>
      <trkpt lat="47.69808" lon="-2.26833">
        <ele>67.7</ele>
        <time>2021-05-27T13:13:01Z</time>
      </trkpt>
      <trkpt lat="47.69806" lon="-2.26828">
        <ele>67.5</ele>
        <time>2021-05-27T13:13:02Z</time>
      </trkpt>
      <trkpt lat="47.69805" lon="-2.26824">
        <ele>67.2</ele>
        <time>2021-05-27T13:13:03Z</time>
      </trkpt>
      <trkpt lat="47.69802" lon="-2.26821">
        <ele>66.8</ele>
        <time>2021-05-27T13:13:04Z</time>
      </trkpt>
      <trkpt lat="47.69801" lon="-2.26816">
        <ele>66.7</ele>
        <time>2021-05-27T13:13:05Z</time>
      </trkpt>
      <trkpt lat="47.698" lon="-2.26811">
        <ele>66.5</ele>
        <time>2021-05-27T13:13:06Z</time>
      </trkpt>
      <trkpt lat="47.698" lon="-2.26806">
        <ele>66.5</ele>
        <time>2021-05-27T13:13:07Z</time>
      </trkpt>
      <trkpt lat="47.69801" lon="-2.268">
        <ele>66.6</ele>
        <time>2021-05-27T13:13:08Z</time>
      </trkpt>
      <trkpt lat="47.69801" lon="-2.26795">
        <ele>66.7</ele>
        <time>2021-05-27T13:13:09Z</time>
      </trkpt>
      <trkpt lat="47.69801" lon="-2.2679">
        <ele>66.7</ele>
        <time>2021-05-27T13:13:10Z</time>
      </trkpt>
      <trkpt lat="47.698" lon="-2.26785">
        <ele>66.5</ele>
        <time>2021-05-27T13:13:11Z</time>
      </trkpt>
      <trkpt lat="47.69798" lon="-2.2678">
        <ele>66.2</ele>
        <time>2021-05-27T13:13:12Z</time>
      </trkpt>
      <trkpt lat="47.69795" lon="-2.26775">
        <ele>65.9</ele>
        <time>2021-05-27T13:13:13Z</time>
      </trkpt>
      <trkpt lat="47.69794" lon="-2.2677">
        <ele>65.7</ele>
        <time>2021-05-27T13:13:14Z</time>
      </trkpt>
      <trkpt lat="47.69794" lon="-2.26765">
        <ele>65.7</ele>
        <time>2021-05-27T13:13:15Z</time>
      </trkpt>
      <trkpt lat="47.69793" lon="-2.26759">
        <ele>65.7</ele>
        <time>2021-05-27T13:13:16Z</time>
      </trkpt>
      <trkpt lat="47.69793" lon="-2.26753">
        <ele>65.7</ele>
        <time>2021-05-27T13:13:17Z</time>
      </trkpt>
      <trkpt lat="47.69792" lon="-2.26747">
        <ele>65.4</ele>
        <time>2021-05-27T13:13:18Z</time>
      </trkpt>
      <trkpt lat="47.6979" lon="-2.26742">
        <ele>65</ele>
        <time>2021-05-27T13:13:19Z</time>
      </trkpt>
      <trkpt lat="47.69789" lon="-2.26737">
        <ele>64.7</ele>
        <time>2021-05-27T13:13:20Z</time>
      </trkpt>
      <trkpt lat="47.69789" lon="-2.26732">
        <ele>64.4</ele>
        <time>2021-05-27T13:13:21Z</time>
      </trkpt>
      <trkpt lat="47.69788" lon="-2.26727">
        <ele>64.1</ele>
        <time>2021-05-27T13:13:22Z</time>
      </trkpt>
      <trkpt lat="47.69786" lon="-2.26724">
        <ele>63.7</ele>
        <time>2021-05-27T13:13:23Z</time>
      </trkpt>
      <trkpt lat="47.69783" lon="-2.2672">
        <ele>63.2</ele>
        <time>2021-05-27T13:13:24Z</time>
      </trkpt>
      <trkpt lat="47.69782" lon="-2.26716">
        <ele>62.9</ele>
        <time>2021-05-27T13:13:25Z</time>
      </trkpt>
      <trkpt lat="47.69781" lon="-2.26712">
        <ele>62.6</ele>
        <time>2021-05-27T13:13:26Z</time>
      </trkpt>
      <trkpt lat="47.6978" lon="-2.26706">
        <ele>62.3</ele>
        <time>2021-05-27T13:13:27Z</time>
      </trkpt>
      <trkpt lat="47.6978" lon="-2.267">
        <ele>62</ele>
        <time>2021-05-27T13:13:28Z</time>
      </trkpt>
      <trkpt lat="47.69779" lon="-2.26694">
        <ele>61.7</ele>
        <time>2021-05-27T13:13:29Z</time>
      </trkpt>
      <trkpt lat="47.69779" lon="-2.26689">
        <ele>61.4</ele>
        <time>2021-05-27T13:13:30Z</time>
      </trkpt>
      <trkpt lat="47.69778" lon="-2.26684">
        <ele>61.1</ele>
        <time>2021-05-27T13:13:31Z</time>
      </trkpt>
      <trkpt lat="47.69778" lon="-2.26678">
        <ele>60.8</ele>
        <time>2021-05-27T13:13:32Z</time>
      </trkpt>
      <trkpt lat="47.69778" lon="-2.26672">
        <ele>60.6</ele>
        <time>2021-05-27T13:13:33Z</time>
      </trkpt>
      <trkpt lat="47.6978" lon="-2.26667">
        <ele>60.7</ele>
        <time>2021-05-27T13:13:34Z</time>
      </trkpt>
      <trkpt lat="47.69781" lon="-2.26661">
        <ele>60.5</ele>
        <time>2021-05-27T13:13:35Z</time>
      </trkpt>
      <trkpt lat="47.69782" lon="-2.26656">
        <ele>60</ele>
        <time>2021-05-27T13:13:36Z</time>
      </trkpt>
      <trkpt lat="47.69783" lon="-2.2665">
        <ele>59.7</ele>
        <time>2021-05-27T13:13:37Z</time>
      </trkpt>
      <trkpt lat="47.69785" lon="-2.26646">
        <ele>59.7</ele>
        <time>2021-05-27T13:13:38Z</time>
      </trkpt>
      <trkpt lat="47.69787" lon="-2.26643">
        <ele>59.8</ele>
        <time>2021-05-27T13:13:39Z</time>
      </trkpt>
      <trkpt lat="47.69789" lon="-2.26641">
        <ele>60</ele>
        <time>2021-05-27T13:13:40Z</time>
      </trkpt>
      <trkpt lat="47.69791" lon="-2.2664">
        <ele>60.1</ele>
        <time>2021-05-27T13:13:41Z</time>
      </trkpt>
      <trkpt lat="47.69792" lon="-2.26639">
        <ele>60.3</ele>
        <time>2021-05-27T13:13:42Z</time>
      </trkpt>
      <trkpt lat="47.69793" lon="-2.2664">
        <ele>60.5</ele>
        <time>2021-05-27T13:13:43Z</time>
      </trkpt>
      <trkpt lat="47.69795" lon="-2.26641">
        <ele>60.9</ele>
        <time>2021-05-27T13:13:44Z</time>
      </trkpt>
      <trkpt lat="47.69797" lon="-2.26644">
        <ele>61.4</ele>
        <time>2021-05-27T13:13:45Z</time>
      </trkpt>
      <trkpt lat="47.69799" lon="-2.26647">
        <ele>61.9</ele>
        <time>2021-05-27T13:13:46Z</time>
      </trkpt>
      <trkpt lat="47.69801" lon="-2.2665">
        <ele>62.5</ele>
        <time>2021-05-27T13:13:47Z</time>
      </trkpt>
      <trkpt lat="47.69804" lon="-2.26652">
        <ele>63.1</ele>
        <time>2021-05-27T13:13:48Z</time>
      </trkpt>
      <trkpt lat="47.69806" lon="-2.26651">
        <ele>63.5</ele>
        <time>2021-05-27T13:13:49Z</time>
      </trkpt>
      <trkpt lat="47.69809" lon="-2.2665">
        <ele>63.7</ele>
        <time>2021-05-27T13:13:50Z</time>
      </trkpt>
      <trkpt lat="47.69812" lon="-2.26648">
        <ele>64</ele>
        <time>2021-05-27T13:13:51Z</time>
      </trkpt>
      <trkpt lat="47.69815" lon="-2.26646">
        <ele>64.3</ele>
        <time>2021-05-27T13:13:52Z</time>
      </trkpt>
      <trkpt lat="47.69818" lon="-2.26646">
        <ele>64.8</ele>
        <time>2021-05-27T13:13:53Z</time>
      </trkpt>
      <trkpt lat="47.69821" lon="-2.26645">
        <ele>65.2</ele>
        <time>2021-05-27T13:13:54Z</time>
      </trkpt>
      <trkpt lat="47.69823" lon="-2.26644">
        <ele>65.5</ele>
        <time>2021-05-27T13:13:55Z</time>
      </trkpt>
      <trkpt lat="47.69825" lon="-2.26642">
        <ele>65.6</ele>
        <time>2021-05-27T13:13:56Z</time>
      </trkpt>
      <trkpt lat="47.69828" lon="-2.26639">
        <ele>65.8</ele>
        <time>2021-05-27T13:13:57Z</time>
      </trkpt>
      <trkpt lat="47.6983" lon="-2.26636">
        <ele>65.9</ele>
        <time>2021-05-27T13:13:58Z</time>
      </trkpt>
      <trkpt lat="47.69832" lon="-2.26632">
        <ele>66</ele>
        <time>2021-05-27T13:13:59Z</time>
      </trkpt>
      <trkpt lat="47.69835" lon="-2.26628">
        <ele>65.9</ele>
        <time>2021-05-27T13:14:00Z</time>
      </trkpt>
      <trkpt lat="47.69838" lon="-2.26625">
        <ele>65.7</ele>
        <time>2021-05-27T13:14:01Z</time>
      </trkpt>
      <trkpt lat="47.6984" lon="-2.26624">
        <ele>65.8</ele>
        <time>2021-05-27T13:14:59Z</time>
      </trkpt>
      <trkpt lat="47.69842" lon="-2.26625">
        <ele>65.9</ele>
        <time>2021-05-27T13:15:09Z</time>
      </trkpt>
      <trkpt lat="47.69843" lon="-2.26625">
        <ele>66</ele>
        <time>2021-05-27T13:15:10Z</time>
      </trkpt>
      <trkpt lat="47.69844" lon="-2.26626">
        <ele>66.1</ele>
        <time>2021-05-27T13:15:11Z</time>
      </trkpt>
      <trkpt lat="47.69845" lon="-2.26627">
        <ele>66.2</ele>
        <time>2021-05-27T13:15:12Z</time>
      </trkpt>
      <trkpt lat="47.69845" lon="-2.26627">
        <ele>66.2</ele>
        <time>2021-05-27T13:15:13Z</time>
      </trkpt>
      <trkpt lat="47.69845" lon="-2.26627">
        <ele>66.2</ele>
        <time>2021-05-27T13:15:14Z</time>
      </trkpt>
      <trkpt lat="47.69845" lon="-2.26627">
        <ele>66.2</ele>
        <time>2021-05-27T13:15:15Z</time>
      </trkpt>
      <trkpt lat="47.69845" lon="-2.26627">
        <ele>66.2</ele>
        <time>2021-05-27T13:15:16Z</time>
      </trkpt>
      <trkpt lat="47.69845" lon="-2.26627">
        <ele>66.2</ele>
        <time>2021-05-27T13:15:17Z</time>
      </trkpt>
      <trkpt lat="47.69845" lon="-2.26627">
        <ele>66.2</ele>
        <time>2021-05-27T13:15:18Z</time>
      </trkpt>
      <trkpt lat="47.69845" lon="-2.26627">
        <ele>66.2</ele>
        <time>2021-05-27T13:15:19Z</time>
      </trkpt>
      <trkpt lat="47.69845" lon="-2.26627">
        <ele>66.2</ele>
        <time>2021-05-27T13:15:20Z</time>
      </trkpt>
      <trkpt lat="47.69845" lon="-2.26627">
        <ele>66.2</ele>
        <time>2021-05-27T13:15:21Z</time>
      </trkpt>
      <trkpt lat="47.69845" lon="-2.26627">
        <ele>66.2</ele>
        <time>2021-05-27T13:15:22Z</time>
      </trkpt>
      <trkpt lat="47.69845" lon="-2.26627">
        <ele>66.2</ele>
        <time>2021-05-27T13:15:23Z</time>
      </trkpt>
      <trkpt lat="47.69845" lon="-2.26627">
        <ele>66.2</ele>
        <time>2021-05-27T13:15:24Z</time>
      </trkpt>
      <trkpt lat="47.69845" lon="-2.26627">
        <ele>66.2</ele>
        <time>2021-05-27T13:15:25Z</time>
      </trkpt>
      <trkpt lat="47.69845" lon="-2.26627">
        <ele>66.2</ele>
        <time>2021-05-27T13:15:26Z</time>
      </trkpt>
      <trkpt lat="47.69855" lon="-2.26624">
        <ele>66.6</ele>
        <time>2021-05-27T13:15:27Z</time>
      </trkpt>
      <trkpt lat="47.69856" lon="-2.26622">
        <ele>66.5</ele>
        <time>2021-05-27T13:15:28Z</time>
      </trkpt>
      <trkpt lat="47.69857" lon="-2.2662">
        <ele>66.5</ele>
        <time>2021-05-27T13:15:29Z</time>
      </trkpt>
      <trkpt lat="47.69859" lon="-2.26618">
        <ele>66.5</ele>
        <time>2021-05-27T13:15:30Z</time>
      </trkpt>
      <trkpt lat="47.69861" lon="-2.26616">
        <ele>66.5</ele>
        <time>2021-05-27T13:15:31Z</time>
      </trkpt>
      <trkpt lat="47.69863" lon="-2.26614">
        <ele>66.5</ele>
        <time>2021-05-27T13:15:32Z</time>
      </trkpt>
      <trkpt lat="47.69866" lon="-2.26612">
        <ele>66.6</ele>
        <time>2021-05-27T13:15:33Z</time>
      </trkpt>
      <trkpt lat="47.69869" lon="-2.26611">
        <ele>66.8</ele>
        <time>2021-05-27T13:15:34Z</time>
      </trkpt>
      <trkpt lat="47.69872" lon="-2.26611">
        <ele>67</ele>
        <time>2021-05-27T13:15:35Z</time>
      </trkpt>
      <trkpt lat="47.69874" lon="-2.26611">
        <ele>67.1</ele>
        <time>2021-05-27T13:15:36Z</time>
      </trkpt>
      <trkpt lat="47.69877" lon="-2.26611">
        <ele>67.3</ele>
        <time>2021-05-27T13:15:37Z</time>
      </trkpt>
      <trkpt lat="47.69879" lon="-2.2661">
        <ele>67.4</ele>
        <time>2021-05-27T13:15:38Z</time>
      </trkpt>
      <trkpt lat="47.69881" lon="-2.26609">
        <ele>67.5</ele>
        <time>2021-05-27T13:15:39Z</time>
      </trkpt>
      <trkpt lat="47.69884" lon="-2.26608">
        <ele>67.6</ele>
        <time>2021-05-27T13:15:40Z</time>
      </trkpt>
      <trkpt lat="47.69886" lon="-2.26606">
        <ele>67.8</ele>
        <time>2021-05-27T13:15:41Z</time>
      </trkpt>
      <trkpt lat="47.69889" lon="-2.26605">
        <ele>68</ele>
        <time>2021-05-27T13:15:42Z</time>
      </trkpt>
      <trkpt lat="47.69891" lon="-2.26602">
        <ele>68</ele>
        <time>2021-05-27T13:15:43Z</time>
      </trkpt>
      <trkpt lat="47.69892" lon="-2.26598">
        <ele>68</ele>
        <time>2021-05-27T13:16:32Z</time>
      </trkpt>
      <trkpt lat="47.6989" lon="-2.26598">
        <ele>67.8</ele>
        <time>2021-05-27T13:16:33Z</time>
      </trkpt>
      <trkpt lat="47.69887" lon="-2.266">
        <ele>67.6</ele>
        <time>2021-05-27T13:16:34Z</time>
      </trkpt>
      <trkpt lat="47.69884" lon="-2.26599">
        <ele>67.4</ele>
        <time>2021-05-27T13:16:35Z</time>
      </trkpt>
      <trkpt lat="47.69884" lon="-2.26597">
        <ele>67.3</ele>
        <time>2021-05-27T13:16:36Z</time>
      </trkpt>
      <trkpt lat="47.69884" lon="-2.26595">
        <ele>67.2</ele>
        <time>2021-05-27T13:16:37Z</time>
      </trkpt>
      <trkpt lat="47.69883" lon="-2.26593">
        <ele>67.1</ele>
        <time>2021-05-27T13:16:38Z</time>
      </trkpt>
      <trkpt lat="47.69884" lon="-2.26591">
        <ele>67.1</ele>
        <time>2021-05-27T13:16:39Z</time>
      </trkpt>
      <trkpt lat="47.69882" lon="-2.26587">
        <ele>66.9</ele>
        <time>2021-05-27T13:16:40Z</time>
      </trkpt>
      <trkpt lat="47.69881" lon="-2.26584">
        <ele>66.7</ele>
        <time>2021-05-27T13:16:41Z</time>
      </trkpt>
      <trkpt lat="47.6988" lon="-2.26581">
        <ele>66.2</ele>
        <time>2021-05-27T13:16:42Z</time>
      </trkpt>
      <trkpt lat="47.69881" lon="-2.26577">
        <ele>65.8</ele>
        <time>2021-05-27T13:16:43Z</time>
      </trkpt>
      <trkpt lat="47.69882" lon="-2.26574">
        <ele>65.5</ele>
        <time>2021-05-27T13:16:44Z</time>
      </trkpt>
      <trkpt lat="47.69883" lon="-2.26571">
        <ele>65.3</ele>
        <time>2021-05-27T13:16:45Z</time>
      </trkpt>
      <trkpt lat="47.69884" lon="-2.26569">
        <ele>65.1</ele>
        <time>2021-05-27T13:16:46Z</time>
      </trkpt>
      <trkpt lat="47.69884" lon="-2.26567">
        <ele>64.8</ele>
        <time>2021-05-27T13:16:47Z</time>
      </trkpt>
      <trkpt lat="47.69884" lon="-2.26565">
        <ele>64.5</ele>
        <time>2021-05-27T13:16:48Z</time>
      </trkpt>
      <trkpt lat="47.69884" lon="-2.26561">
        <ele>64.1</ele>
        <time>2021-05-27T13:16:49Z</time>
      </trkpt>
      <trkpt lat="47.69882" lon="-2.26558">
        <ele>63.6</ele>
        <time>2021-05-27T13:16:50Z</time>
      </trkpt>
      <trkpt lat="47.69881" lon="-2.26556">
        <ele>63.1</ele>
        <time>2021-05-27T13:16:51Z</time>
      </trkpt>
      <trkpt lat="47.69881" lon="-2.26553">
        <ele>62.7</ele>
        <time>2021-05-27T13:16:52Z</time>
      </trkpt>
      <trkpt lat="47.69881" lon="-2.26549">
        <ele>62.3</ele>
        <time>2021-05-27T13:16:53Z</time>
      </trkpt>
      <trkpt lat="47.69882" lon="-2.26545">
        <ele>61.9</ele>
        <time>2021-05-27T13:16:54Z</time>
      </trkpt>
      <trkpt lat="47.69883" lon="-2.26542">
        <ele>61.5</ele>
        <time>2021-05-27T13:16:55Z</time>
      </trkpt>
      <trkpt lat="47.69883" lon="-2.26538">
        <ele>61</ele>
        <time>2021-05-27T13:16:56Z</time>
      </trkpt>
      <trkpt lat="47.69882" lon="-2.26534">
        <ele>60.5</ele>
        <time>2021-05-27T13:16:57Z</time>
      </trkpt>
      <trkpt lat="47.6988" lon="-2.26532">
        <ele>60</ele>
        <time>2021-05-27T13:16:58Z</time>
      </trkpt>
      <trkpt lat="47.69878" lon="-2.2653">
        <ele>59.6</ele>
        <time>2021-05-27T13:16:59Z</time>
      </trkpt>
      <trkpt lat="47.69875" lon="-2.26529">
        <ele>59.2</ele>
        <time>2021-05-27T13:17:00Z</time>
      </trkpt>
      <trkpt lat="47.69875" lon="-2.26526">
        <ele>58.7</ele>
        <time>2021-05-27T13:17:01Z</time>
      </trkpt>
      <trkpt lat="47.69874" lon="-2.26521">
        <ele>58</ele>
        <time>2021-05-27T13:17:02Z</time>
      </trkpt>
      <trkpt lat="47.69872" lon="-2.26517">
        <ele>57.3</ele>
        <time>2021-05-27T13:17:03Z</time>
      </trkpt>
      <trkpt lat="47.69871" lon="-2.26514">
        <ele>56.8</ele>
        <time>2021-05-27T13:17:04Z</time>
      </trkpt>
      <trkpt lat="47.69869" lon="-2.26511">
        <ele>56.3</ele>
        <time>2021-05-27T13:17:05Z</time>
      </trkpt>
      <trkpt lat="47.69867" lon="-2.26509">
        <ele>55.8</ele>
        <time>2021-05-27T13:17:06Z</time>
      </trkpt>
      <trkpt lat="47.69865" lon="-2.26509">
        <ele>55.5</ele>
        <time>2021-05-27T13:17:07Z</time>
      </trkpt>
      <trkpt lat="47.69862" lon="-2.2651">
        <ele>55.4</ele>
        <time>2021-05-27T13:17:08Z</time>
      </trkpt>
      <trkpt lat="47.69859" lon="-2.2651">
        <ele>55</ele>
        <time>2021-05-27T13:17:09Z</time>
      </trkpt>
      <trkpt lat="47.69857" lon="-2.26509">
        <ele>54.6</ele>
        <time>2021-05-27T13:17:10Z</time>
      </trkpt>
      <trkpt lat="47.69855" lon="-2.26506">
        <ele>54.1</ele>
        <time>2021-05-27T13:17:11Z</time>
      </trkpt>
      <trkpt lat="47.69854" lon="-2.26503">
        <ele>53.5</ele>
        <time>2021-05-27T13:17:12Z</time>
      </trkpt>
      <trkpt lat="47.69853" lon="-2.26499">
        <ele>53</ele>
        <time>2021-05-27T13:17:13Z</time>
      </trkpt>
      <trkpt lat="47.69854" lon="-2.26496">
        <ele>52.6</ele>
        <time>2021-05-27T13:17:14Z</time>
      </trkpt>
      <trkpt lat="47.69855" lon="-2.26493">
        <ele>52.3</ele>
        <time>2021-05-27T13:17:15Z</time>
      </trkpt>
      <trkpt lat="47.69855" lon="-2.2649">
        <ele>51.9</ele>
        <time>2021-05-27T13:17:16Z</time>
      </trkpt>
      <trkpt lat="47.69856" lon="-2.26486">
        <ele>51.5</ele>
        <time>2021-05-27T13:17:17Z</time>
      </trkpt>
      <trkpt lat="47.69857" lon="-2.26483">
        <ele>51.1</ele>
        <time>2021-05-27T13:17:18Z</time>
      </trkpt>
      <trkpt lat="47.69858" lon="-2.26481">
        <ele>51</ele>
        <time>2021-05-27T13:17:19Z</time>
      </trkpt>
      <trkpt lat="47.6986" lon="-2.26479">
        <ele>50.8</ele>
        <time>2021-05-27T13:17:20Z</time>
      </trkpt>
      <trkpt lat="47.69862" lon="-2.26477">
        <ele>50.8</ele>
        <time>2021-05-27T13:17:21Z</time>
      </trkpt>
      <trkpt lat="47.69864" lon="-2.26476">
        <ele>50.8</ele>
        <time>2021-05-27T13:17:22Z</time>
      </trkpt>
      <trkpt lat="47.69866" lon="-2.26474">
        <ele>50.8</ele>
        <time>2021-05-27T13:17:23Z</time>
      </trkpt>
      <trkpt lat="47.69868" lon="-2.26473">
        <ele>50.8</ele>
        <time>2021-05-27T13:17:24Z</time>
      </trkpt>
      <trkpt lat="47.69871" lon="-2.2647">
        <ele>50.7</ele>
        <time>2021-05-27T13:17:25Z</time>
      </trkpt>
      <trkpt lat="47.69873" lon="-2.26467">
        <ele>50.4</ele>
        <time>2021-05-27T13:17:26Z</time>
      </trkpt>
      <trkpt lat="47.69873" lon="-2.26463">
        <ele>49.9</ele>
        <time>2021-05-27T13:17:27Z</time>
      </trkpt>
      <trkpt lat="47.69873" lon="-2.26459">
        <ele>49.4</ele>
        <time>2021-05-27T13:17:28Z</time>
      </trkpt>
      <trkpt lat="47.69875" lon="-2.26456">
        <ele>49.1</ele>
        <time>2021-05-27T13:17:29Z</time>
      </trkpt>
      <trkpt lat="47.69876" lon="-2.26452">
        <ele>48.7</ele>
        <time>2021-05-27T13:17:30Z</time>
      </trkpt>
      <trkpt lat="47.69878" lon="-2.2645">
        <ele>48.5</ele>
        <time>2021-05-27T13:17:31Z</time>
      </trkpt>
      <trkpt lat="47.69878" lon="-2.26449">
        <ele>48.4</ele>
        <time>2021-05-27T13:17:32Z</time>
      </trkpt>
      <trkpt lat="47.69878" lon="-2.26448">
        <ele>48.4</ele>
        <time>2021-05-27T13:17:33Z</time>
      </trkpt>
      <trkpt lat="47.69878" lon="-2.26448">
        <ele>48.4</ele>
        <time>2021-05-27T13:17:34Z</time>
      </trkpt>
      <trkpt lat="47.69878" lon="-2.26448">
        <ele>48.4</ele>
        <time>2021-05-27T13:17:35Z</time>
      </trkpt>
      <trkpt lat="47.69878" lon="-2.26448">
        <ele>48.4</ele>
        <time>2021-05-27T13:17:36Z</time>
      </trkpt>
      <trkpt lat="47.69878" lon="-2.26448">
        <ele>48.4</ele>
        <time>2021-05-27T13:17:37Z</time>
      </trkpt>
      <trkpt lat="47.69878" lon="-2.26448">
        <ele>48.4</ele>
        <time>2021-05-27T13:17:38Z</time>
      </trkpt>
      <trkpt lat="47.69878" lon="-2.26448">
        <ele>48.4</ele>
        <time>2021-05-27T13:17:39Z</time>
      </trkpt>
      <trkpt lat="47.69878" lon="-2.26448">
        <ele>48.4</ele>
        <time>2021-05-27T13:17:40Z</time>
      </trkpt>
      <trkpt lat="47.69878" lon="-2.26448">
        <ele>48.4</ele>
        <time>2021-05-27T13:17:41Z</time>
      </trkpt>
      <trkpt lat="47.69878" lon="-2.26448">
        <ele>48.4</ele>
        <time>2021-05-27T13:17:42Z</time>
      </trkpt>
      <trkpt lat="47.69878" lon="-2.26448">
        <ele>48.4</ele>
        <time>2021-05-27T13:17:43Z</time>
      </trkpt>
      <trkpt lat="47.69878" lon="-2.26448">
        <ele>48.4</ele>
        <time>2021-05-27T13:17:44Z</time>
      </trkpt>
      <trkpt lat="47.69878" lon="-2.26448">
        <ele>48.4</ele>
        <time>2021-05-27T13:17:45Z</time>
      </trkpt>
      <trkpt lat="47.69878" lon="-2.26448">
        <ele>48.4</ele>
        <time>2021-05-27T13:17:46Z</time>
      </trkpt>
      <trkpt lat="47.69878" lon="-2.26448">
        <ele>48.4</ele>
        <time>2021-05-27T13:17:47Z</time>
      </trkpt>
      <trkpt lat="47.69878" lon="-2.26448">
        <ele>48.4</ele>
        <time>2021-05-27T13:17:48Z</time>
      </trkpt>
      <trkpt lat="47.69878" lon="-2.26448">
        <ele>48.4</ele>
        <time>2021-05-27T13:17:49Z</time>
      </trkpt>
      <trkpt lat="47.69878" lon="-2.26448">
        <ele>48.4</ele>
        <time>2021-05-27T13:17:50Z</time>
      </trkpt>
      <trkpt lat="47.69878" lon="-2.26448">
        <ele>48.4</ele>
        <time>2021-05-27T13:17:51Z</time>
      </trkpt>
      <trkpt lat="47.69878" lon="-2.26448">
        <ele>48.4</ele>
        <time>2021-05-27T13:17:52Z</time>
      </trkpt>
      <trkpt lat="47.69878" lon="-2.26448">
        <ele>48.4</ele>
        <time>2021-05-27T13:17:53Z</time>
      </trkpt>
      <trkpt lat="47.69878" lon="-2.26448">
        <ele>48.4</ele>
        <time>2021-05-27T13:17:54Z</time>
      </trkpt>
      <trkpt lat="47.69878" lon="-2.26448">
        <ele>48.4</ele>
        <time>2021-05-27T13:17:55Z</time>
      </trkpt>
      <trkpt lat="47.69878" lon="-2.26448">
        <ele>48.4</ele>
        <time>2021-05-27T13:17:56Z</time>
      </trkpt>
      <trkpt lat="47.69879" lon="-2.26438">
        <ele>47</ele>
        <time>2021-05-27T13:17:57Z</time>
      </trkpt>
      <trkpt lat="47.6988" lon="-2.26435">
        <ele>46.7</ele>
        <time>2021-05-27T13:17:58Z</time>
      </trkpt>
      <trkpt lat="47.6988" lon="-2.26433">
        <ele>46.4</ele>
        <time>2021-05-27T13:17:59Z</time>
      </trkpt>
      <trkpt lat="47.69881" lon="-2.2643">
        <ele>46.1</ele>
        <time>2021-05-27T13:18:00Z</time>
      </trkpt>
      <trkpt lat="47.69883" lon="-2.26426">
        <ele>45.7</ele>
        <time>2021-05-27T13:18:01Z</time>
      </trkpt>
      <trkpt lat="47.69883" lon="-2.26423">
        <ele>45.3</ele>
        <time>2021-05-27T13:18:02Z</time>
      </trkpt>
      <trkpt lat="47.69882" lon="-2.26421">
        <ele>44.8</ele>
        <time>2021-05-27T13:18:03Z</time>
      </trkpt>
      <trkpt lat="47.6988" lon="-2.26419">
        <ele>44.4</ele>
        <time>2021-05-27T13:18:04Z</time>
      </trkpt>
      <trkpt lat="47.69879" lon="-2.26419">
        <ele>44.2</ele>
        <time>2021-05-27T13:18:05Z</time>
      </trkpt>
      <trkpt lat="47.69876" lon="-2.26417">
        <ele>43.7</ele>
        <time>2021-05-27T13:18:06Z</time>
      </trkpt>
      <trkpt lat="47.69873" lon="-2.26416">
        <ele>43.2</ele>
        <time>2021-05-27T13:18:07Z</time>
      </trkpt>
      <trkpt lat="47.6987" lon="-2.26415">
        <ele>42.9</ele>
        <time>2021-05-27T13:18:08Z</time>
      </trkpt>
      <trkpt lat="47.69866" lon="-2.26415">
        <ele>42.4</ele>
        <time>2021-05-27T13:18:09Z</time>
      </trkpt>
      <trkpt lat="47.69862" lon="-2.26415">
        <ele>42</ele>
        <time>2021-05-27T13:18:10Z</time>
      </trkpt>
      <trkpt lat="47.69858" lon="-2.26414">
        <ele>41.5</ele>
        <time>2021-05-27T13:18:11Z</time>
      </trkpt>
      <trkpt lat="47.69853" lon="-2.26414">
        <ele>41</ele>
        <time>2021-05-27T13:18:12Z</time>
      </trkpt>
      <trkpt lat="47.6985" lon="-2.26413">
        <ele>40.7</ele>
        <time>2021-05-27T13:18:13Z</time>
      </trkpt>
      <trkpt lat="47.69847" lon="-2.26413">
        <ele>40.4</ele>
        <time>2021-05-27T13:18:14Z</time>
      </trkpt>
      <trkpt lat="47.69845" lon="-2.26413">
        <ele>40.2</ele>
        <time>2021-05-27T13:18:15Z</time>
      </trkpt>
      <trkpt lat="47.69843" lon="-2.26414">
        <ele>40</ele>
        <time>2021-05-27T13:18:16Z</time>
      </trkpt>
      <trkpt lat="47.69842" lon="-2.26415">
        <ele>39.8</ele>
        <time>2021-05-27T13:18:17Z</time>
      </trkpt>
      <trkpt lat="47.6984" lon="-2.26416">
        <ele>39.7</ele>
        <time>2021-05-27T13:18:18Z</time>
      </trkpt>
      <trkpt lat="47.69839" lon="-2.26416">
        <ele>39.6</ele>
        <time>2021-05-27T13:18:19Z</time>
      </trkpt>
      <trkpt lat="47.69838" lon="-2.26416">
        <ele>39.5</ele>
        <time>2021-05-27T13:18:20Z</time>
      </trkpt>
      <trkpt lat="47.69837" lon="-2.26414">
        <ele>39.3</ele>
        <time>2021-05-27T13:18:21Z</time>
      </trkpt>
      <trkpt lat="47.69836" lon="-2.26414">
        <ele>39.2</ele>
        <time>2021-05-27T13:18:22Z</time>
      </trkpt>
      <trkpt lat="47.69834" lon="-2.26412">
        <ele>39</ele>
        <time>2021-05-27T13:18:23Z</time>
      </trkpt>
      <trkpt lat="47.69832" lon="-2.26411">
        <ele>38.8</ele>
        <time>2021-05-27T13:18:24Z</time>
      </trkpt>
      <trkpt lat="47.69832" lon="-2.2641">
        <ele>38.8</ele>
        <time>2021-05-27T13:18:25Z</time>
      </trkpt>
      <trkpt lat="47.69832" lon="-2.2641">
        <ele>38.8</ele>
        <time>2021-05-27T13:18:26Z</time>
      </trkpt>
      <trkpt lat="47.69828" lon="-2.26414">
        <ele>38.5</ele>
        <time>2021-05-27T13:20:21Z</time>
      </trkpt>
      <trkpt lat="47.69825" lon="-2.2642">
        <ele>38.7</ele>
        <time>2021-05-27T13:20:22Z</time>
      </trkpt>
      <trkpt lat="47.69822" lon="-2.26424">
        <ele>39</ele>
        <time>2021-05-27T13:20:23Z</time>
      </trkpt>
      <trkpt lat="47.69819" lon="-2.26427">
        <ele>39.1</ele>
        <time>2021-05-27T13:20:24Z</time>
      </trkpt>
      <trkpt lat="47.69815" lon="-2.26428">
        <ele>39</ele>
        <time>2021-05-27T13:20:25Z</time>
      </trkpt>
      <trkpt lat="47.69812" lon="-2.2643">
        <ele>38.9</ele>
        <time>2021-05-27T13:20:26Z</time>
      </trkpt>
      <trkpt lat="47.69807" lon="-2.2643">
        <ele>38.5</ele>
        <time>2021-05-27T13:20:27Z</time>
      </trkpt>
      <trkpt lat="47.69805" lon="-2.26431">
        <ele>38.4</ele>
        <time>2021-05-27T13:20:28Z</time>
      </trkpt>
      <trkpt lat="47.69802" lon="-2.26432">
        <ele>38.3</ele>
        <time>2021-05-27T13:20:29Z</time>
      </trkpt>
      <trkpt lat="47.69799" lon="-2.26434">
        <ele>38.3</ele>
        <time>2021-05-27T13:20:30Z</time>
      </trkpt>
      <trkpt lat="47.69797" lon="-2.26435">
        <ele>38.2</ele>
        <time>2021-05-27T13:20:31Z</time>
      </trkpt>
      <trkpt lat="47.69793" lon="-2.26437">
        <ele>38.1</ele>
        <time>2021-05-27T13:20:32Z</time>
      </trkpt>
      <trkpt lat="47.6979" lon="-2.26438">
        <ele>37.9</ele>
        <time>2021-05-27T13:20:33Z</time>
      </trkpt>
      <trkpt lat="47.69787" lon="-2.26438">
        <ele>37.7</ele>
        <time>2021-05-27T13:20:34Z</time>
      </trkpt>
      <trkpt lat="47.69783" lon="-2.26438">
        <ele>37.3</ele>
        <time>2021-05-27T13:20:35Z</time>
      </trkpt>
      <trkpt lat="47.69779" lon="-2.26438">
        <ele>36.9</ele>
        <time>2021-05-27T13:20:36Z</time>
      </trkpt>
      <trkpt lat="47.69775" lon="-2.26439">
        <ele>36.5</ele>
        <time>2021-05-27T13:20:37Z</time>
      </trkpt>
      <trkpt lat="47.69772" lon="-2.2644">
        <ele>36.4</ele>
        <time>2021-05-27T13:20:38Z</time>
      </trkpt>
      <trkpt lat="47.69769" lon="-2.2644">
        <ele>36.1</ele>
        <time>2021-05-27T13:20:39Z</time>
      </trkpt>
      <trkpt lat="47.69765" lon="-2.2644">
        <ele>35.7</ele>
        <time>2021-05-27T13:20:40Z</time>
      </trkpt>
      <trkpt lat="47.69761" lon="-2.2644">
        <ele>35.3</ele>
        <time>2021-05-27T13:20:41Z</time>
      </trkpt>
      <trkpt lat="47.69756" lon="-2.2644">
        <ele>34.8</ele>
        <time>2021-05-27T13:20:42Z</time>
      </trkpt>
      <trkpt lat="47.69752" lon="-2.2644">
        <ele>34.4</ele>
        <time>2021-05-27T13:20:43Z</time>
      </trkpt>
      <trkpt lat="47.69748" lon="-2.26442">
        <ele>34.4</ele>
        <time>2021-05-27T13:20:44Z</time>
      </trkpt>
      <trkpt lat="47.69745" lon="-2.26443">
        <ele>34.5</ele>
        <time>2021-05-27T13:20:45Z</time>
      </trkpt>
      <trkpt lat="47.69743" lon="-2.26443">
        <ele>34.5</ele>
        <time>2021-05-27T13:20:46Z</time>
      </trkpt>
      <trkpt lat="47.69742" lon="-2.26443">
        <ele>34.5</ele>
        <time>2021-05-27T13:20:47Z</time>
      </trkpt>
      <trkpt lat="47.69741" lon="-2.26441">
        <ele>34.4</ele>
        <time>2021-05-27T13:20:48Z</time>
      </trkpt>
      <trkpt lat="47.6974" lon="-2.26442">
        <ele>34.5</ele>
        <time>2021-05-27T13:20:49Z</time>
      </trkpt>
      <trkpt lat="47.6974" lon="-2.26442">
        <ele>34.5</ele>
        <time>2021-05-27T13:20:50Z</time>
      </trkpt>
      <trkpt lat="47.6974" lon="-2.26444">
        <ele>34.6</ele>
        <time>2021-05-27T13:20:51Z</time>
      </trkpt>
      <trkpt lat="47.6974" lon="-2.26444">
        <ele>34.6</ele>
        <time>2021-05-27T13:20:52Z</time>
      </trkpt>
      <trkpt lat="47.6974" lon="-2.26444">
        <ele>34.6</ele>
        <time>2021-05-27T13:20:53Z</time>
      </trkpt>
      <trkpt lat="47.69738" lon="-2.26447">
        <ele>34.9</ele>
        <time>2021-05-27T13:20:54Z</time>
      </trkpt>
      <trkpt lat="47.69737" lon="-2.26449">
        <ele>35</ele>
        <time>2021-05-27T13:20:55Z</time>
      </trkpt>
      <trkpt lat="47.69737" lon="-2.26449">
        <ele>35</ele>
        <time>2021-05-27T13:20:56Z</time>
      </trkpt>
      <trkpt lat="47.69738" lon="-2.2645">
        <ele>35</ele>
        <time>2021-05-27T13:20:57Z</time>
      </trkpt>
      <trkpt lat="47.69738" lon="-2.2645">
        <ele>35</ele>
        <time>2021-05-27T13:20:58Z</time>
      </trkpt>
      <trkpt lat="47.69738" lon="-2.2645">
        <ele>35</ele>
        <time>2021-05-27T13:20:59Z</time>
      </trkpt>
      <trkpt lat="47.69738" lon="-2.2645">
        <ele>35</ele>
        <time>2021-05-27T13:21:00Z</time>
      </trkpt>
      <trkpt lat="47.69738" lon="-2.2645">
        <ele>35</ele>
        <time>2021-05-27T13:21:01Z</time>
      </trkpt>
      <trkpt lat="47.69738" lon="-2.2645">
        <ele>35</ele>
        <time>2021-05-27T13:21:02Z</time>
      </trkpt>
      <trkpt lat="47.69738" lon="-2.2645">
        <ele>35</ele>
        <time>2021-05-27T13:21:03Z</time>
      </trkpt>
      <trkpt lat="47.69738" lon="-2.2645">
        <ele>35</ele>
        <time>2021-05-27T13:21:04Z</time>
      </trkpt>
      <trkpt lat="47.69738" lon="-2.2645">
        <ele>35</ele>
        <time>2021-05-27T13:21:05Z</time>
      </trkpt>
      <trkpt lat="47.69738" lon="-2.2645">
        <ele>35</ele>
        <time>2021-05-27T13:21:06Z</time>
      </trkpt>
      <trkpt lat="47.69738" lon="-2.2645">
        <ele>35</ele>
        <time>2021-05-27T13:21:07Z</time>
      </trkpt>
      <trkpt lat="47.69738" lon="-2.2645">
        <ele>35</ele>
        <time>2021-05-27T13:21:08Z</time>
      </trkpt>
      <trkpt lat="47.69738" lon="-2.2645">
        <ele>35</ele>
        <time>2021-05-27T13:21:09Z</time>
      </trkpt>
      <trkpt lat="47.69738" lon="-2.2645">
        <ele>35</ele>
        <time>2021-05-27T13:21:10Z</time>
      </trkpt>
      <trkpt lat="47.69738" lon="-2.2645">
        <ele>35</ele>
        <time>2021-05-27T13:21:11Z</time>
      </trkpt>
      <trkpt lat="47.69738" lon="-2.2645">
        <ele>35</ele>
        <time>2021-05-27T13:21:12Z</time>
      </trkpt>
      <trkpt lat="47.69738" lon="-2.2645">
        <ele>35</ele>
        <time>2021-05-27T13:21:13Z</time>
      </trkpt>
      <trkpt lat="47.69733" lon="-2.26446">
        <ele>34.7</ele>
        <time>2021-05-27T13:21:14Z</time>
      </trkpt>
      <trkpt lat="47.69731" lon="-2.26444">
        <ele>34.6</ele>
        <time>2021-05-27T13:21:15Z</time>
      </trkpt>
      <trkpt lat="47.69729" lon="-2.26441">
        <ele>34.4</ele>
        <time>2021-05-27T13:21:16Z</time>
      </trkpt>
      <trkpt lat="47.69727" lon="-2.26437">
        <ele>34.2</ele>
        <time>2021-05-27T13:21:17Z</time>
      </trkpt>
      <trkpt lat="47.69726" lon="-2.26433">
        <ele>34</ele>
        <time>2021-05-27T13:21:18Z</time>
      </trkpt>
      <trkpt lat="47.69725" lon="-2.26429">
        <ele>33.9</ele>
        <time>2021-05-27T13:21:19Z</time>
      </trkpt>
      <trkpt lat="47.69724" lon="-2.26425">
        <ele>33.7</ele>
        <time>2021-05-27T13:21:20Z</time>
      </trkpt>
      <trkpt lat="47.69724" lon="-2.26422">
        <ele>33.5</ele>
        <time>2021-05-27T13:21:21Z</time>
      </trkpt>
      <trkpt lat="47.69723" lon="-2.26419">
        <ele>33.4</ele>
        <time>2021-05-27T13:21:22Z</time>
      </trkpt>
      <trkpt lat="47.69722" lon="-2.26416">
        <ele>33.4</ele>
        <time>2021-05-27T13:21:23Z</time>
      </trkpt>
      <trkpt lat="47.69721" lon="-2.26411">
        <ele>34</ele>
        <time>2021-05-27T13:21:24Z</time>
      </trkpt>
      <trkpt lat="47.6972" lon="-2.26408">
        <ele>34.4</ele>
        <time>2021-05-27T13:21:25Z</time>
      </trkpt>
      <trkpt lat="47.6972" lon="-2.26406">
        <ele>34.6</ele>
        <time>2021-05-27T13:21:26Z</time>
      </trkpt>
      <trkpt lat="47.69718" lon="-2.26404">
        <ele>35</ele>
        <time>2021-05-27T13:21:27Z</time>
      </trkpt>
      <trkpt lat="47.69719" lon="-2.26402">
        <ele>35.2</ele>
        <time>2021-05-27T13:21:28Z</time>
      </trkpt>
      <trkpt lat="47.69719" lon="-2.26399">
        <ele>35.4</ele>
        <time>2021-05-27T13:21:29Z</time>
      </trkpt>
      <trkpt lat="47.69719" lon="-2.26397">
        <ele>35.7</ele>
        <time>2021-05-27T13:21:30Z</time>
      </trkpt>
      <trkpt lat="47.69719" lon="-2.26395">
        <ele>35.9</ele>
        <time>2021-05-27T13:21:31Z</time>
      </trkpt>
      <trkpt lat="47.6972" lon="-2.26395">
        <ele>36</ele>
        <time>2021-05-27T13:21:32Z</time>
      </trkpt>
      <trkpt lat="47.6972" lon="-2.26395">
        <ele>36</ele>
        <time>2021-05-27T13:21:33Z</time>
      </trkpt>
      <trkpt lat="47.6972" lon="-2.26395">
        <ele>35.9</ele>
        <time>2021-05-27T13:22:33Z</time>
      </trkpt>
      <trkpt lat="47.69723" lon="-2.26399">
        <ele>35.4</ele>
        <time>2021-05-27T13:22:34Z</time>
      </trkpt>
      <trkpt lat="47.69726" lon="-2.26402">
        <ele>34.9</ele>
        <time>2021-05-27T13:22:35Z</time>
      </trkpt>
      <trkpt lat="47.69729" lon="-2.26405">
        <ele>34.5</ele>
        <time>2021-05-27T13:22:36Z</time>
      </trkpt>
      <trkpt lat="47.69733" lon="-2.26405">
        <ele>34.3</ele>
        <time>2021-05-27T13:22:37Z</time>
      </trkpt>
      <trkpt lat="47.69734" lon="-2.26405">
        <ele>34.2</ele>
        <time>2021-05-27T13:22:38Z</time>
      </trkpt>
      <trkpt lat="47.69735" lon="-2.26405">
        <ele>34.2</ele>
        <time>2021-05-27T13:22:39Z</time>
      </trkpt>
      <trkpt lat="47.69736" lon="-2.26405">
        <ele>34.1</ele>
        <time>2021-05-27T13:22:40Z</time>
      </trkpt>
      <trkpt lat="47.69736" lon="-2.26405">
        <ele>34.1</ele>
        <time>2021-05-27T13:22:41Z</time>
      </trkpt>
      <trkpt lat="47.69736" lon="-2.26405">
        <ele>34.1</ele>
        <time>2021-05-27T13:22:42Z</time>
      </trkpt>
      <trkpt lat="47.69736" lon="-2.26405">
        <ele>34.1</ele>
        <time>2021-05-27T13:22:43Z</time>
      </trkpt>
      <trkpt lat="47.69736" lon="-2.26405">
        <ele>34.1</ele>
        <time>2021-05-27T13:22:44Z</time>
      </trkpt>
      <trkpt lat="47.69736" lon="-2.26405">
        <ele>34.1</ele>
        <time>2021-05-27T13:22:45Z</time>
      </trkpt>
      <trkpt lat="47.69736" lon="-2.26405">
        <ele>34.1</ele>
        <time>2021-05-27T13:22:46Z</time>
      </trkpt>
      <trkpt lat="47.69736" lon="-2.26405">
        <ele>34.1</ele>
        <time>2021-05-27T13:22:47Z</time>
      </trkpt>
      <trkpt lat="47.69736" lon="-2.26405">
        <ele>34.1</ele>
        <time>2021-05-27T13:22:48Z</time>
      </trkpt>
      <trkpt lat="47.69736" lon="-2.26405">
        <ele>34.1</ele>
        <time>2021-05-27T13:22:49Z</time>
      </trkpt>
      <trkpt lat="47.69736" lon="-2.26405">
        <ele>34.1</ele>
        <time>2021-05-27T13:22:50Z</time>
      </trkpt>
      <trkpt lat="47.69736" lon="-2.26405">
        <ele>34.1</ele>
        <time>2021-05-27T13:22:51Z</time>
      </trkpt>
      <trkpt lat="47.69736" lon="-2.26405">
        <ele>34.1</ele>
        <time>2021-05-27T13:22:52Z</time>
      </trkpt>
      <trkpt lat="47.69736" lon="-2.26405">
        <ele>34.1</ele>
        <time>2021-05-27T13:22:53Z</time>
      </trkpt>
      <trkpt lat="47.69736" lon="-2.26405">
        <ele>34.1</ele>
        <time>2021-05-27T13:22:54Z</time>
      </trkpt>
      <trkpt lat="47.69741" lon="-2.2641">
        <ele>33.3</ele>
        <time>2021-05-27T13:22:55Z</time>
      </trkpt>
      <trkpt lat="47.69745" lon="-2.26411">
        <ele>33</ele>
        <time>2021-05-27T13:22:56Z</time>
      </trkpt>
      <trkpt lat="47.69748" lon="-2.26411">
        <ele>32.8</ele>
        <time>2021-05-27T13:22:57Z</time>
      </trkpt>
      <trkpt lat="47.6975" lon="-2.26411">
        <ele>32.8</ele>
        <time>2021-05-27T13:22:58Z</time>
      </trkpt>
      <trkpt lat="47.69753" lon="-2.26411">
        <ele>33</ele>
        <time>2021-05-27T13:22:59Z</time>
      </trkpt>
      <trkpt lat="47.69755" lon="-2.26411">
        <ele>33.1</ele>
        <time>2021-05-27T13:23:00Z</time>
      </trkpt>
      <trkpt lat="47.69757" lon="-2.26412">
        <ele>33.1</ele>
        <time>2021-05-27T13:23:01Z</time>
      </trkpt>
      <trkpt lat="47.69759" lon="-2.26412">
        <ele>33.3</ele>
        <time>2021-05-27T13:23:02Z</time>
      </trkpt>
      <trkpt lat="47.69763" lon="-2.2641">
        <ele>33.8</ele>
        <time>2021-05-27T13:23:03Z</time>
      </trkpt>
      <trkpt lat="47.69766" lon="-2.26408">
        <ele>34.2</ele>
        <time>2021-05-27T13:23:04Z</time>
      </trkpt>
      <trkpt lat="47.69769" lon="-2.26407">
        <ele>34.6</ele>
        <time>2021-05-27T13:23:05Z</time>
      </trkpt>
      <trkpt lat="47.69772" lon="-2.26406">
        <ele>34.9</ele>
        <time>2021-05-27T13:23:06Z</time>
      </trkpt>
      <trkpt lat="47.69775" lon="-2.26404">
        <ele>35.3</ele>
        <time>2021-05-27T13:23:07Z</time>
      </trkpt>
      <trkpt lat="47.69778" lon="-2.26401">
        <ele>35.7</ele>
        <time>2021-05-27T13:23:08Z</time>
      </trkpt>
      <trkpt lat="47.69782" lon="-2.26399">
        <ele>36</ele>
        <time>2021-05-27T13:23:09Z</time>
      </trkpt>
      <trkpt lat="47.69785" lon="-2.26398">
        <ele>36.3</ele>
        <time>2021-05-27T13:23:10Z</time>
      </trkpt>
      <trkpt lat="47.69789" lon="-2.26394">
        <ele>36.7</ele>
        <time>2021-05-27T13:23:11Z</time>
      </trkpt>
      <trkpt lat="47.69792" lon="-2.26391">
        <ele>37.1</ele>
        <time>2021-05-27T13:23:12Z</time>
      </trkpt>
      <trkpt lat="47.69796" lon="-2.26387">
        <ele>37.4</ele>
        <time>2021-05-27T13:23:13Z</time>
      </trkpt>
      <trkpt lat="47.69798" lon="-2.26384">
        <ele>37.6</ele>
        <time>2021-05-27T13:23:14Z</time>
      </trkpt>
      <trkpt lat="47.698" lon="-2.26381">
        <ele>37.9</ele>
        <time>2021-05-27T13:23:15Z</time>
      </trkpt>
      <trkpt lat="47.69803" lon="-2.26378">
        <ele>38</ele>
        <time>2021-05-27T13:23:16Z</time>
      </trkpt>
      <trkpt lat="47.69806" lon="-2.26376">
        <ele>38.1</ele>
        <time>2021-05-27T13:23:17Z</time>
      </trkpt>
      <trkpt lat="47.69808" lon="-2.26374">
        <ele>38.2</ele>
        <time>2021-05-27T13:23:18Z</time>
      </trkpt>
      <trkpt lat="47.6981" lon="-2.26371">
        <ele>38.3</ele>
        <time>2021-05-27T13:23:19Z</time>
      </trkpt>
      <trkpt lat="47.69812" lon="-2.26369">
        <ele>38.4</ele>
        <time>2021-05-27T13:23:20Z</time>
      </trkpt>
      <trkpt lat="47.69813" lon="-2.26367">
        <ele>38.4</ele>
        <time>2021-05-27T13:23:21Z</time>
      </trkpt>
      <trkpt lat="47.69815" lon="-2.26364">
        <ele>38.5</ele>
        <time>2021-05-27T13:23:22Z</time>
      </trkpt>
      <trkpt lat="47.69817" lon="-2.26361">
        <ele>38.5</ele>
        <time>2021-05-27T13:23:23Z</time>
      </trkpt>
      <trkpt lat="47.69819" lon="-2.26358">
        <ele>38.6</ele>
        <time>2021-05-27T13:23:24Z</time>
      </trkpt>
      <trkpt lat="47.69821" lon="-2.26354">
        <ele>38.6</ele>
        <time>2021-05-27T13:23:25Z</time>
      </trkpt>
      <trkpt lat="47.69822" lon="-2.2635">
        <ele>38.5</ele>
        <time>2021-05-27T13:23:26Z</time>
      </trkpt>
      <trkpt lat="47.69824" lon="-2.26347">
        <ele>38.5</ele>
        <time>2021-05-27T13:23:27Z</time>
      </trkpt>
      <trkpt lat="47.69827" lon="-2.26344">
        <ele>38.4</ele>
        <time>2021-05-27T13:23:28Z</time>
      </trkpt>
      <trkpt lat="47.69828" lon="-2.26341">
        <ele>38.3</ele>
        <time>2021-05-27T13:23:29Z</time>
      </trkpt>
      <trkpt lat="47.69831" lon="-2.26339">
        <ele>38.2</ele>
        <time>2021-05-27T13:23:30Z</time>
      </trkpt>
      <trkpt lat="47.69833" lon="-2.26336">
        <ele>38</ele>
        <time>2021-05-27T13:23:31Z</time>
      </trkpt>
      <trkpt lat="47.69835" lon="-2.26334">
        <ele>38</ele>
        <time>2021-05-27T13:23:32Z</time>
      </trkpt>
      <trkpt lat="47.69837" lon="-2.26333">
        <ele>37.9</ele>
        <time>2021-05-27T13:23:33Z</time>
      </trkpt>
      <trkpt lat="47.6984" lon="-2.26333">
        <ele>37.8</ele>
        <time>2021-05-27T13:23:34Z</time>
      </trkpt>
      <trkpt lat="47.69844" lon="-2.26332">
        <ele>37.8</ele>
        <time>2021-05-27T13:23:35Z</time>
      </trkpt>
      <trkpt lat="47.69847" lon="-2.26332">
        <ele>37.8</ele>
        <time>2021-05-27T13:23:36Z</time>
      </trkpt>
      <trkpt lat="47.6985" lon="-2.26332">
        <ele>37.6</ele>
        <time>2021-05-27T13:23:37Z</time>
      </trkpt>
      <trkpt lat="47.69853" lon="-2.26333">
        <ele>37.3</ele>
        <time>2021-05-27T13:23:38Z</time>
      </trkpt>
      <trkpt lat="47.69858" lon="-2.26331">
        <ele>37.4</ele>
        <time>2021-05-27T13:23:39Z</time>
      </trkpt>
      <trkpt lat="47.69865" lon="-2.26329">
        <ele>37.3</ele>
        <time>2021-05-27T13:23:40Z</time>
      </trkpt>
      <trkpt lat="47.69868" lon="-2.26327">
        <ele>37.4</ele>
        <time>2021-05-27T13:23:41Z</time>
      </trkpt>
      <trkpt lat="47.69871" lon="-2.26325">
        <ele>37.4</ele>
        <time>2021-05-27T13:23:42Z</time>
      </trkpt>
      <trkpt lat="47.69874" lon="-2.26323">
        <ele>37.5</ele>
        <time>2021-05-27T13:23:43Z</time>
      </trkpt>
      <trkpt lat="47.69877" lon="-2.2632">
        <ele>37.5</ele>
        <time>2021-05-27T13:23:44Z</time>
      </trkpt>
      <trkpt lat="47.6988" lon="-2.26319">
        <ele>37.5</ele>
        <time>2021-05-27T13:23:45Z</time>
      </trkpt>
      <trkpt lat="47.69884" lon="-2.26317">
        <ele>37.3</ele>
        <time>2021-05-27T13:23:46Z</time>
      </trkpt>
      <trkpt lat="47.69887" lon="-2.26314">
        <ele>37.2</ele>
        <time>2021-05-27T13:23:47Z</time>
      </trkpt>
      <trkpt lat="47.6989" lon="-2.26311">
        <ele>37.2</ele>
        <time>2021-05-27T13:23:48Z</time>
      </trkpt>
      <trkpt lat="47.69892" lon="-2.26308">
        <ele>37.1</ele>
        <time>2021-05-27T13:23:49Z</time>
      </trkpt>
      <trkpt lat="47.69895" lon="-2.26305">
        <ele>37</ele>
        <time>2021-05-27T13:23:50Z</time>
      </trkpt>
      <trkpt lat="47.69898" lon="-2.26301">
        <ele>36.8</ele>
        <time>2021-05-27T13:23:51Z</time>
      </trkpt>
      <trkpt lat="47.69901" lon="-2.26297">
        <ele>36.6</ele>
        <time>2021-05-27T13:23:52Z</time>
      </trkpt>
      <trkpt lat="47.69902" lon="-2.26294">
        <ele>36.4</ele>
        <time>2021-05-27T13:23:53Z</time>
      </trkpt>
      <trkpt lat="47.69904" lon="-2.2629">
        <ele>36.2</ele>
        <time>2021-05-27T13:23:54Z</time>
      </trkpt>
      <trkpt lat="47.69906" lon="-2.26287">
        <ele>36.1</ele>
        <time>2021-05-27T13:23:55Z</time>
      </trkpt>
      <trkpt lat="47.69907" lon="-2.26283">
        <ele>35.9</ele>
        <time>2021-05-27T13:23:56Z</time>
      </trkpt>
      <trkpt lat="47.69908" lon="-2.26277">
        <ele>35.8</ele>
        <time>2021-05-27T13:23:57Z</time>
      </trkpt>
      <trkpt lat="47.6991" lon="-2.26271">
        <ele>35.5</ele>
        <time>2021-05-27T13:23:58Z</time>
      </trkpt>
      <trkpt lat="47.69912" lon="-2.26262">
        <ele>35.2</ele>
        <time>2021-05-27T13:23:59Z</time>
      </trkpt>
      <trkpt lat="47.69914" lon="-2.26255">
        <ele>34.8</ele>
        <time>2021-05-27T13:24:00Z</time>
      </trkpt>
      <trkpt lat="47.69915" lon="-2.2625">
        <ele>34.5</ele>
        <time>2021-05-27T13:24:01Z</time>
      </trkpt>
      <trkpt lat="47.69916" lon="-2.26247">
        <ele>34.5</ele>
        <time>2021-05-27T13:24:02Z</time>
      </trkpt>
      <trkpt lat="47.69917" lon="-2.26243">
        <ele>34.7</ele>
        <time>2021-05-27T13:24:03Z</time>
      </trkpt>
      <trkpt lat="47.69918" lon="-2.26239">
        <ele>34.8</ele>
        <time>2021-05-27T13:24:04Z</time>
      </trkpt>
      <trkpt lat="47.69921" lon="-2.26235">
        <ele>34.8</ele>
        <time>2021-05-27T13:24:05Z</time>
      </trkpt>
      <trkpt lat="47.69923" lon="-2.2623">
        <ele>34.9</ele>
        <time>2021-05-27T13:24:06Z</time>
      </trkpt>
      <trkpt lat="47.69925" lon="-2.26225">
        <ele>35</ele>
        <time>2021-05-27T13:24:07Z</time>
      </trkpt>
      <trkpt lat="47.69927" lon="-2.2622">
        <ele>35.1</ele>
        <time>2021-05-27T13:24:08Z</time>
      </trkpt>
      <trkpt lat="47.69929" lon="-2.26216">
        <ele>35</ele>
        <time>2021-05-27T13:24:09Z</time>
      </trkpt>
      <trkpt lat="47.6993" lon="-2.26211">
        <ele>35.1</ele>
        <time>2021-05-27T13:24:10Z</time>
      </trkpt>
      <trkpt lat="47.69932" lon="-2.26206">
        <ele>35.1</ele>
        <time>2021-05-27T13:24:11Z</time>
      </trkpt>
      <trkpt lat="47.69934" lon="-2.262">
        <ele>35.2</ele>
        <time>2021-05-27T13:24:12Z</time>
      </trkpt>
      <trkpt lat="47.69937" lon="-2.26194">
        <ele>35</ele>
        <time>2021-05-27T13:24:13Z</time>
      </trkpt>
      <trkpt lat="47.69938" lon="-2.26188">
        <ele>35</ele>
        <time>2021-05-27T13:24:14Z</time>
      </trkpt>
      <trkpt lat="47.69941" lon="-2.26181">
        <ele>34.7</ele>
        <time>2021-05-27T13:24:15Z</time>
      </trkpt>
      <trkpt lat="47.69944" lon="-2.26175">
        <ele>34.3</ele>
        <time>2021-05-27T13:24:16Z</time>
      </trkpt>
      <trkpt lat="47.69946" lon="-2.26169">
        <ele>34.1</ele>
        <time>2021-05-27T13:24:17Z</time>
      </trkpt>
      <trkpt lat="47.69947" lon="-2.26164">
        <ele>34.2</ele>
        <time>2021-05-27T13:24:18Z</time>
      </trkpt>
      <trkpt lat="47.69948" lon="-2.26159">
        <ele>34.3</ele>
        <time>2021-05-27T13:24:19Z</time>
      </trkpt>
      <trkpt lat="47.69948" lon="-2.26155">
        <ele>34.5</ele>
        <time>2021-05-27T13:24:20Z</time>
      </trkpt>
      <trkpt lat="47.69949" lon="-2.2615">
        <ele>34.6</ele>
        <time>2021-05-27T13:24:21Z</time>
      </trkpt>
      <trkpt lat="47.6995" lon="-2.26145">
        <ele>34.7</ele>
        <time>2021-05-27T13:24:22Z</time>
      </trkpt>
      <trkpt lat="47.69953" lon="-2.26139">
        <ele>34.4</ele>
        <time>2021-05-27T13:28:38Z</time>
      </trkpt>
      <trkpt lat="47.69955" lon="-2.26135">
        <ele>34.1</ele>
        <time>2021-05-27T13:28:39Z</time>
      </trkpt>
      <trkpt lat="47.69956" lon="-2.26132">
        <ele>34</ele>
        <time>2021-05-27T13:28:40Z</time>
      </trkpt>
      <trkpt lat="47.69957" lon="-2.26129">
        <ele>33.8</ele>
        <time>2021-05-27T13:28:41Z</time>
      </trkpt>
      <trkpt lat="47.6996" lon="-2.26124">
        <ele>33.4</ele>
        <time>2021-05-27T13:28:42Z</time>
      </trkpt>
      <trkpt lat="47.6996" lon="-2.2612">
        <ele>33.5</ele>
        <time>2021-05-27T13:28:43Z</time>
      </trkpt>
      <trkpt lat="47.69961" lon="-2.26115">
        <ele>33.5</ele>
        <time>2021-05-27T13:28:44Z</time>
      </trkpt>
      <trkpt lat="47.69962" lon="-2.26112">
        <ele>33.5</ele>
        <time>2021-05-27T13:28:45Z</time>
      </trkpt>
      <trkpt lat="47.69962" lon="-2.26108">
        <ele>33.9</ele>
        <time>2021-05-27T13:28:46Z</time>
      </trkpt>
      <trkpt lat="47.69961" lon="-2.26103">
        <ele>34.3</ele>
        <time>2021-05-27T13:28:47Z</time>
      </trkpt>
      <trkpt lat="47.69962" lon="-2.26099">
        <ele>34.4</ele>
        <time>2021-05-27T13:28:48Z</time>
      </trkpt>
      <trkpt lat="47.69963" lon="-2.26096">
        <ele>34.3</ele>
        <time>2021-05-27T13:28:49Z</time>
      </trkpt>
      <trkpt lat="47.69963" lon="-2.26092">
        <ele>34.5</ele>
        <time>2021-05-27T13:28:50Z</time>
      </trkpt>
      <trkpt lat="47.69963" lon="-2.26089">
        <ele>34.7</ele>
        <time>2021-05-27T13:28:51Z</time>
      </trkpt>
      <trkpt lat="47.69963" lon="-2.26085">
        <ele>35</ele>
        <time>2021-05-27T13:28:52Z</time>
      </trkpt>
      <trkpt lat="47.69964" lon="-2.2608">
        <ele>35.1</ele>
        <time>2021-05-27T13:28:53Z</time>
      </trkpt>
      <trkpt lat="47.69965" lon="-2.26076">
        <ele>35</ele>
        <time>2021-05-27T13:28:54Z</time>
      </trkpt>
      <trkpt lat="47.69966" lon="-2.2607">
        <ele>35.2</ele>
        <time>2021-05-27T13:28:55Z</time>
      </trkpt>
      <trkpt lat="47.69967" lon="-2.26065">
        <ele>35.3</ele>
        <time>2021-05-27T13:28:56Z</time>
      </trkpt>
      <trkpt lat="47.69968" lon="-2.2606">
        <ele>35.4</ele>
        <time>2021-05-27T13:28:57Z</time>
      </trkpt>
      <trkpt lat="47.69969" lon="-2.26056">
        <ele>35.6</ele>
        <time>2021-05-27T13:28:58Z</time>
      </trkpt>
      <trkpt lat="47.69969" lon="-2.26052">
        <ele>35.7</ele>
        <time>2021-05-27T13:28:59Z</time>
      </trkpt>
      <trkpt lat="47.6997" lon="-2.26048">
        <ele>35.7</ele>
        <time>2021-05-27T13:29:00Z</time>
      </trkpt>
      <trkpt lat="47.69971" lon="-2.26044">
        <ele>35.8</ele>
        <time>2021-05-27T13:29:01Z</time>
      </trkpt>
      <trkpt lat="47.69972" lon="-2.26038">
        <ele>35.8</ele>
        <time>2021-05-27T13:29:02Z</time>
      </trkpt>
      <trkpt lat="47.69973" lon="-2.26033">
        <ele>35.9</ele>
        <time>2021-05-27T13:29:03Z</time>
      </trkpt>
      <trkpt lat="47.69974" lon="-2.26027">
        <ele>36</ele>
        <time>2021-05-27T13:29:04Z</time>
      </trkpt>
      <trkpt lat="47.69975" lon="-2.26022">
        <ele>36.1</ele>
        <time>2021-05-27T13:29:05Z</time>
      </trkpt>
      <trkpt lat="47.69976" lon="-2.26017">
        <ele>36.2</ele>
        <time>2021-05-27T13:29:06Z</time>
      </trkpt>
      <trkpt lat="47.69977" lon="-2.26013">
        <ele>36.2</ele>
        <time>2021-05-27T13:29:07Z</time>
      </trkpt>
      <trkpt lat="47.69978" lon="-2.26008">
        <ele>36.2</ele>
        <time>2021-05-27T13:29:08Z</time>
      </trkpt>
      <trkpt lat="47.6998" lon="-2.26003">
        <ele>36.2</ele>
        <time>2021-05-27T13:29:09Z</time>
      </trkpt>
      <trkpt lat="47.69981" lon="-2.25998">
        <ele>36</ele>
        <time>2021-05-27T13:29:10Z</time>
      </trkpt>
      <trkpt lat="47.69982" lon="-2.25995">
        <ele>35.8</ele>
        <time>2021-05-27T13:29:11Z</time>
      </trkpt>
      <trkpt lat="47.69983" lon="-2.25991">
        <ele>35.5</ele>
        <time>2021-05-27T13:29:12Z</time>
      </trkpt>
      <trkpt lat="47.69984" lon="-2.25987">
        <ele>35.3</ele>
        <time>2021-05-27T13:29:13Z</time>
      </trkpt>
      <trkpt lat="47.69985" lon="-2.25983">
        <ele>35.3</ele>
        <time>2021-05-27T13:29:14Z</time>
      </trkpt>
      <trkpt lat="47.69986" lon="-2.25978">
        <ele>35.1</ele>
        <time>2021-05-27T13:29:15Z</time>
      </trkpt>
      <trkpt lat="47.69987" lon="-2.25973">
        <ele>35.1</ele>
        <time>2021-05-27T13:29:16Z</time>
      </trkpt>
      <trkpt lat="47.69988" lon="-2.25968">
        <ele>35.1</ele>
        <time>2021-05-27T13:29:17Z</time>
      </trkpt>
      <trkpt lat="47.69988" lon="-2.25963">
        <ele>35</ele>
        <time>2021-05-27T13:29:18Z</time>
      </trkpt>
      <trkpt lat="47.69989" lon="-2.25958">
        <ele>35</ele>
        <time>2021-05-27T13:29:19Z</time>
      </trkpt>
      <trkpt lat="47.6999" lon="-2.25951">
        <ele>35.1</ele>
        <time>2021-05-27T13:29:20Z</time>
      </trkpt>
      <trkpt lat="47.6999" lon="-2.25946">
        <ele>35</ele>
        <time>2021-05-27T13:29:21Z</time>
      </trkpt>
      <trkpt lat="47.69991" lon="-2.2594">
        <ele>35.1</ele>
        <time>2021-05-27T13:29:22Z</time>
      </trkpt>
      <trkpt lat="47.69992" lon="-2.25935">
        <ele>35.1</ele>
        <time>2021-05-27T13:29:23Z</time>
      </trkpt>
      <trkpt lat="47.69992" lon="-2.2593">
        <ele>35.1</ele>
        <time>2021-05-27T13:29:24Z</time>
      </trkpt>
      <trkpt lat="47.69992" lon="-2.25925">
        <ele>35.2</ele>
        <time>2021-05-27T13:29:25Z</time>
      </trkpt>
      <trkpt lat="47.69993" lon="-2.25919">
        <ele>35.3</ele>
        <time>2021-05-27T13:29:26Z</time>
      </trkpt>
      <trkpt lat="47.69993" lon="-2.25914">
        <ele>35.4</ele>
        <time>2021-05-27T13:29:27Z</time>
      </trkpt>
      <trkpt lat="47.69993" lon="-2.25909">
        <ele>35.4</ele>
        <time>2021-05-27T13:29:28Z</time>
      </trkpt>
      <trkpt lat="47.69993" lon="-2.25904">
        <ele>35.3</ele>
        <time>2021-05-27T13:29:29Z</time>
      </trkpt>
      <trkpt lat="47.69994" lon="-2.25898">
        <ele>35.2</ele>
        <time>2021-05-27T13:29:30Z</time>
      </trkpt>
      <trkpt lat="47.69995" lon="-2.25892">
        <ele>35.1</ele>
        <time>2021-05-27T13:29:31Z</time>
      </trkpt>
      <trkpt lat="47.69996" lon="-2.25887">
        <ele>34.9</ele>
        <time>2021-05-27T13:29:32Z</time>
      </trkpt>
      <trkpt lat="47.69996" lon="-2.25882">
        <ele>34.8</ele>
        <time>2021-05-27T13:29:33Z</time>
      </trkpt>
      <trkpt lat="47.69997" lon="-2.25877">
        <ele>34.7</ele>
        <time>2021-05-27T13:29:34Z</time>
      </trkpt>
      <trkpt lat="47.69999" lon="-2.25872">
        <ele>34.5</ele>
        <time>2021-05-27T13:29:35Z</time>
      </trkpt>
      <trkpt lat="47.7" lon="-2.25866">
        <ele>34.2</ele>
        <time>2021-05-27T13:29:36Z</time>
      </trkpt>
      <trkpt lat="47.70001" lon="-2.25861">
        <ele>34.1</ele>
        <time>2021-05-27T13:29:37Z</time>
      </trkpt>
      <trkpt lat="47.70002" lon="-2.25854">
        <ele>34.1</ele>
        <time>2021-05-27T13:29:38Z</time>
      </trkpt>
      <trkpt lat="47.70003" lon="-2.25848">
        <ele>34.2</ele>
        <time>2021-05-27T13:29:39Z</time>
      </trkpt>
      <trkpt lat="47.70003" lon="-2.25842">
        <ele>34.1</ele>
        <time>2021-05-27T13:29:40Z</time>
      </trkpt>
      <trkpt lat="47.70005" lon="-2.25837">
        <ele>34.1</ele>
        <time>2021-05-27T13:29:41Z</time>
      </trkpt>
      <trkpt lat="47.70005" lon="-2.25831">
        <ele>34.1</ele>
        <time>2021-05-27T13:29:42Z</time>
      </trkpt>
      <trkpt lat="47.70006" lon="-2.25825">
        <ele>34.2</ele>
        <time>2021-05-27T13:29:43Z</time>
      </trkpt>
      <trkpt lat="47.70006" lon="-2.2582">
        <ele>34.2</ele>
        <time>2021-05-27T13:29:44Z</time>
      </trkpt>
      <trkpt lat="47.70008" lon="-2.25815">
        <ele>34.1</ele>
        <time>2021-05-27T13:29:45Z</time>
      </trkpt>
      <trkpt lat="47.70009" lon="-2.2581">
        <ele>34.2</ele>
        <time>2021-05-27T13:29:46Z</time>
      </trkpt>
      <trkpt lat="47.70009" lon="-2.25804">
        <ele>34.2</ele>
        <time>2021-05-27T13:29:47Z</time>
      </trkpt>
      <trkpt lat="47.70011" lon="-2.25798">
        <ele>34.2</ele>
        <time>2021-05-27T13:29:48Z</time>
      </trkpt>
      <trkpt lat="47.70012" lon="-2.25792">
        <ele>34.1</ele>
        <time>2021-05-27T13:29:49Z</time>
      </trkpt>
      <trkpt lat="47.70014" lon="-2.25786">
        <ele>34</ele>
        <time>2021-05-27T13:29:50Z</time>
      </trkpt>
      <trkpt lat="47.70016" lon="-2.25784">
        <ele>33.8</ele>
        <time>2021-05-27T13:29:51Z</time>
      </trkpt>
      <trkpt lat="47.70016" lon="-2.25784">
        <ele>33.6</ele>
        <time>2021-05-27T13:29:52Z</time>
      </trkpt>
      <trkpt lat="47.70018" lon="-2.2578">
        <ele>33.6</ele>
        <time>2021-05-27T13:30:16Z</time>
      </trkpt>
      <trkpt lat="47.70019" lon="-2.25771">
        <ele>33.7</ele>
        <time>2021-05-27T13:30:17Z</time>
      </trkpt>
      <trkpt lat="47.70019" lon="-2.25764">
        <ele>33.8</ele>
        <time>2021-05-27T13:30:18Z</time>
      </trkpt>
      <trkpt lat="47.7002" lon="-2.25757">
        <ele>34</ele>
        <time>2021-05-27T13:30:19Z</time>
      </trkpt>
      <trkpt lat="47.7002" lon="-2.2575">
        <ele>34.1</ele>
        <time>2021-05-27T13:30:20Z</time>
      </trkpt>
      <trkpt lat="47.70021" lon="-2.25745">
        <ele>34.2</ele>
        <time>2021-05-27T13:30:21Z</time>
      </trkpt>
      <trkpt lat="47.70022" lon="-2.25739">
        <ele>34.1</ele>
        <time>2021-05-27T13:30:22Z</time>
      </trkpt>
      <trkpt lat="47.70023" lon="-2.25732">
        <ele>34.1</ele>
        <time>2021-05-27T13:30:23Z</time>
      </trkpt>
      <trkpt lat="47.70024" lon="-2.25726">
        <ele>34.1</ele>
        <time>2021-05-27T13:30:24Z</time>
      </trkpt>
      <trkpt lat="47.70025" lon="-2.2572">
        <ele>34.2</ele>
        <time>2021-05-27T13:30:25Z</time>
      </trkpt>
      <trkpt lat="47.70026" lon="-2.25713">
        <ele>34.3</ele>
        <time>2021-05-27T13:30:26Z</time>
      </trkpt>
      <trkpt lat="47.70026" lon="-2.25706">
        <ele>34.6</ele>
        <time>2021-05-27T13:30:27Z</time>
      </trkpt>
      <trkpt lat="47.70027" lon="-2.257">
        <ele>34.5</ele>
        <time>2021-05-27T13:30:28Z</time>
      </trkpt>
      <trkpt lat="47.70027" lon="-2.25694">
        <ele>34.6</ele>
        <time>2021-05-27T13:30:29Z</time>
      </trkpt>
      <trkpt lat="47.70026" lon="-2.25686">
        <ele>35</ele>
        <time>2021-05-27T13:30:30Z</time>
      </trkpt>
      <trkpt lat="47.70026" lon="-2.2568">
        <ele>35.4</ele>
        <time>2021-05-27T13:30:31Z</time>
      </trkpt>
      <trkpt lat="47.70025" lon="-2.25673">
        <ele>35.8</ele>
        <time>2021-05-27T13:30:32Z</time>
      </trkpt>
      <trkpt lat="47.70024" lon="-2.25667">
        <ele>36.3</ele>
        <time>2021-05-27T13:30:33Z</time>
      </trkpt>
      <trkpt lat="47.70023" lon="-2.2566">
        <ele>36.6</ele>
        <time>2021-05-27T13:30:34Z</time>
      </trkpt>
      <trkpt lat="47.70021" lon="-2.25654">
        <ele>37</ele>
        <time>2021-05-27T13:30:35Z</time>
      </trkpt>
      <trkpt lat="47.7002" lon="-2.25649">
        <ele>37.2</ele>
        <time>2021-05-27T13:30:36Z</time>
      </trkpt>
      <trkpt lat="47.70018" lon="-2.25641">
        <ele>37.6</ele>
        <time>2021-05-27T13:30:37Z</time>
      </trkpt>
      <trkpt lat="47.70017" lon="-2.25634">
        <ele>37.8</ele>
        <time>2021-05-27T13:30:38Z</time>
      </trkpt>
      <trkpt lat="47.70016" lon="-2.25629">
        <ele>38</ele>
        <time>2021-05-27T13:30:39Z</time>
      </trkpt>
      <trkpt lat="47.70015" lon="-2.25622">
        <ele>38.2</ele>
        <time>2021-05-27T13:30:40Z</time>
      </trkpt>
      <trkpt lat="47.70015" lon="-2.25617">
        <ele>38.3</ele>
        <time>2021-05-27T13:30:41Z</time>
      </trkpt>
      <trkpt lat="47.70015" lon="-2.25612">
        <ele>38.3</ele>
        <time>2021-05-27T13:30:42Z</time>
      </trkpt>
      <trkpt lat="47.70014" lon="-2.25608">
        <ele>38.4</ele>
        <time>2021-05-27T13:30:43Z</time>
      </trkpt>
      <trkpt lat="47.70014" lon="-2.25604">
        <ele>38.4</ele>
        <time>2021-05-27T13:30:44Z</time>
      </trkpt>
      <trkpt lat="47.70013" lon="-2.25599">
        <ele>38.5</ele>
        <time>2021-05-27T13:30:45Z</time>
      </trkpt>
      <trkpt lat="47.70012" lon="-2.25595">
        <ele>38.8</ele>
        <time>2021-05-27T13:30:46Z</time>
      </trkpt>
      <trkpt lat="47.70011" lon="-2.2559">
        <ele>38.9</ele>
        <time>2021-05-27T13:30:47Z</time>
      </trkpt>
      <trkpt lat="47.70011" lon="-2.25585">
        <ele>38.9</ele>
        <time>2021-05-27T13:30:48Z</time>
      </trkpt>
      <trkpt lat="47.70011" lon="-2.2558">
        <ele>39</ele>
        <time>2021-05-27T13:30:49Z</time>
      </trkpt>
      <trkpt lat="47.7001" lon="-2.25575">
        <ele>39.1</ele>
        <time>2021-05-27T13:30:50Z</time>
      </trkpt>
      <trkpt lat="47.70008" lon="-2.25571">
        <ele>39.5</ele>
        <time>2021-05-27T13:30:51Z</time>
      </trkpt>
      <trkpt lat="47.70006" lon="-2.25567">
        <ele>40</ele>
        <time>2021-05-27T13:30:52Z</time>
      </trkpt>
      <trkpt lat="47.70005" lon="-2.25562">
        <ele>40.2</ele>
        <time>2021-05-27T13:30:53Z</time>
      </trkpt>
      <trkpt lat="47.70005" lon="-2.25558">
        <ele>40.4</ele>
        <time>2021-05-27T13:30:54Z</time>
      </trkpt>
      <trkpt lat="47.70004" lon="-2.25553">
        <ele>40.6</ele>
        <time>2021-05-27T13:30:55Z</time>
      </trkpt>
      <trkpt lat="47.70003" lon="-2.25549">
        <ele>40.8</ele>
        <time>2021-05-27T13:30:56Z</time>
      </trkpt>
      <trkpt lat="47.70003" lon="-2.25544">
        <ele>40.9</ele>
        <time>2021-05-27T13:30:57Z</time>
      </trkpt>
      <trkpt lat="47.70002" lon="-2.25539">
        <ele>41.2</ele>
        <time>2021-05-27T13:30:58Z</time>
      </trkpt>
      <trkpt lat="47.70001" lon="-2.25535">
        <ele>41.3</ele>
        <time>2021-05-27T13:30:59Z</time>
      </trkpt>
      <trkpt lat="47.7" lon="-2.25532">
        <ele>41.6</ele>
        <time>2021-05-27T13:31:00Z</time>
      </trkpt>
      <trkpt lat="47.69999" lon="-2.25526">
        <ele>41.9</ele>
        <time>2021-05-27T13:31:01Z</time>
      </trkpt>
      <trkpt lat="47.69998" lon="-2.25522">
        <ele>42.2</ele>
        <time>2021-05-27T13:31:02Z</time>
      </trkpt>
      <trkpt lat="47.69996" lon="-2.25518">
        <ele>42.6</ele>
        <time>2021-05-27T13:31:03Z</time>
      </trkpt>
      <trkpt lat="47.69994" lon="-2.25514">
        <ele>43</ele>
        <time>2021-05-27T13:31:04Z</time>
      </trkpt>
      <trkpt lat="47.69992" lon="-2.25511">
        <ele>43.5</ele>
        <time>2021-05-27T13:31:05Z</time>
      </trkpt>
      <trkpt lat="47.6999" lon="-2.25507">
        <ele>43.8</ele>
        <time>2021-05-27T13:31:06Z</time>
      </trkpt>
      <trkpt lat="47.69988" lon="-2.25503">
        <ele>44.2</ele>
        <time>2021-05-27T13:31:07Z</time>
      </trkpt>
      <trkpt lat="47.69987" lon="-2.25501">
        <ele>44.4</ele>
        <time>2021-05-27T13:31:08Z</time>
      </trkpt>
      <trkpt lat="47.69985" lon="-2.25498">
        <ele>44.7</ele>
        <time>2021-05-27T13:31:09Z</time>
      </trkpt>
      <trkpt lat="47.69983" lon="-2.25495">
        <ele>44.9</ele>
        <time>2021-05-27T13:31:10Z</time>
      </trkpt>
      <trkpt lat="47.6998" lon="-2.25492">
        <ele>45.3</ele>
        <time>2021-05-27T13:31:11Z</time>
      </trkpt>
      <trkpt lat="47.69977" lon="-2.25487">
        <ele>45.7</ele>
        <time>2021-05-27T13:31:12Z</time>
      </trkpt>
      <trkpt lat="47.69975" lon="-2.25484">
        <ele>45.9</ele>
        <time>2021-05-27T13:31:13Z</time>
      </trkpt>
      <trkpt lat="47.69974" lon="-2.2548">
        <ele>46</ele>
        <time>2021-05-27T13:31:14Z</time>
      </trkpt>
      <trkpt lat="47.69972" lon="-2.25477">
        <ele>46.2</ele>
        <time>2021-05-27T13:31:15Z</time>
      </trkpt>
      <trkpt lat="47.6997" lon="-2.25473">
        <ele>46.4</ele>
        <time>2021-05-27T13:31:16Z</time>
      </trkpt>
      <trkpt lat="47.69968" lon="-2.25469">
        <ele>46.5</ele>
        <time>2021-05-27T13:31:17Z</time>
      </trkpt>
      <trkpt lat="47.69966" lon="-2.25466">
        <ele>46.6</ele>
        <time>2021-05-27T13:31:18Z</time>
      </trkpt>
      <trkpt lat="47.69964" lon="-2.25463">
        <ele>46.9</ele>
        <time>2021-05-27T13:31:19Z</time>
      </trkpt>
      <trkpt lat="47.69962" lon="-2.2546">
        <ele>47</ele>
        <time>2021-05-27T13:31:20Z</time>
      </trkpt>
      <trkpt lat="47.6996" lon="-2.25457">
        <ele>47.2</ele>
        <time>2021-05-27T13:31:21Z</time>
      </trkpt>
      <trkpt lat="47.69959" lon="-2.25454">
        <ele>47.2</ele>
        <time>2021-05-27T13:31:22Z</time>
      </trkpt>
      <trkpt lat="47.69958" lon="-2.2545">
        <ele>47.2</ele>
        <time>2021-05-27T13:31:23Z</time>
      </trkpt>
      <trkpt lat="47.69956" lon="-2.25447">
        <ele>47.3</ele>
        <time>2021-05-27T13:31:24Z</time>
      </trkpt>
      <trkpt lat="47.69954" lon="-2.25444">
        <ele>47.3</ele>
        <time>2021-05-27T13:31:25Z</time>
      </trkpt>
      <trkpt lat="47.69953" lon="-2.2544">
        <ele>47.3</ele>
        <time>2021-05-27T13:31:26Z</time>
      </trkpt>
      <trkpt lat="47.69952" lon="-2.25436">
        <ele>47.2</ele>
        <time>2021-05-27T13:31:27Z</time>
      </trkpt>
      <trkpt lat="47.69951" lon="-2.25433">
        <ele>47.1</ele>
        <time>2021-05-27T13:31:28Z</time>
      </trkpt>
      <trkpt lat="47.6995" lon="-2.2543">
        <ele>47.1</ele>
        <time>2021-05-27T13:31:29Z</time>
      </trkpt>
      <trkpt lat="47.69949" lon="-2.25426">
        <ele>47</ele>
        <time>2021-05-27T13:31:30Z</time>
      </trkpt>
      <trkpt lat="47.69948" lon="-2.25422">
        <ele>47</ele>
        <time>2021-05-27T13:31:31Z</time>
      </trkpt>
      <trkpt lat="47.69947" lon="-2.25418">
        <ele>46.8</ele>
        <time>2021-05-27T13:31:32Z</time>
      </trkpt>
      <trkpt lat="47.69946" lon="-2.25414">
        <ele>46.8</ele>
        <time>2021-05-27T13:31:33Z</time>
      </trkpt>
      <trkpt lat="47.69944" lon="-2.2541">
        <ele>46.9</ele>
        <time>2021-05-27T13:31:34Z</time>
      </trkpt>
      <trkpt lat="47.69943" lon="-2.25406">
        <ele>47</ele>
        <time>2021-05-27T13:31:35Z</time>
      </trkpt>
      <trkpt lat="47.69941" lon="-2.25401">
        <ele>47.1</ele>
        <time>2021-05-27T13:31:36Z</time>
      </trkpt>
      <trkpt lat="47.6994" lon="-2.25397">
        <ele>47.2</ele>
        <time>2021-05-27T13:31:37Z</time>
      </trkpt>
      <trkpt lat="47.69938" lon="-2.25393">
        <ele>47.3</ele>
        <time>2021-05-27T13:31:38Z</time>
      </trkpt>
      <trkpt lat="47.69937" lon="-2.25389">
        <ele>47.3</ele>
        <time>2021-05-27T13:31:39Z</time>
      </trkpt>
      <trkpt lat="47.69936" lon="-2.25384">
        <ele>47.5</ele>
        <time>2021-05-27T13:31:40Z</time>
      </trkpt>
      <trkpt lat="47.69935" lon="-2.2538">
        <ele>47.5</ele>
        <time>2021-05-27T13:31:41Z</time>
      </trkpt>
      <trkpt lat="47.69933" lon="-2.25375">
        <ele>47.6</ele>
        <time>2021-05-27T13:31:42Z</time>
      </trkpt>
      <trkpt lat="47.69932" lon="-2.2537">
        <ele>47.7</ele>
        <time>2021-05-27T13:31:43Z</time>
      </trkpt>
      <trkpt lat="47.69931" lon="-2.25366">
        <ele>47.8</ele>
        <time>2021-05-27T13:31:44Z</time>
      </trkpt>
      <trkpt lat="47.6993" lon="-2.25361">
        <ele>47.8</ele>
        <time>2021-05-27T13:31:45Z</time>
      </trkpt>
      <trkpt lat="47.69928" lon="-2.25357">
        <ele>47.9</ele>
        <time>2021-05-27T13:31:46Z</time>
      </trkpt>
      <trkpt lat="47.69927" lon="-2.25352">
        <ele>48</ele>
        <time>2021-05-27T13:31:47Z</time>
      </trkpt>
      <trkpt lat="47.69927" lon="-2.25348">
        <ele>48</ele>
        <time>2021-05-27T13:31:48Z</time>
      </trkpt>
      <trkpt lat="47.69926" lon="-2.25344">
        <ele>48</ele>
        <time>2021-05-27T13:31:49Z</time>
      </trkpt>
      <trkpt lat="47.69925" lon="-2.25339">
        <ele>48.1</ele>
        <time>2021-05-27T13:31:50Z</time>
      </trkpt>
      <trkpt lat="47.69924" lon="-2.25335">
        <ele>48.2</ele>
        <time>2021-05-27T13:31:51Z</time>
      </trkpt>
      <trkpt lat="47.69923" lon="-2.25331">
        <ele>48.2</ele>
        <time>2021-05-27T13:31:52Z</time>
      </trkpt>
      <trkpt lat="47.69921" lon="-2.25326">
        <ele>48.1</ele>
        <time>2021-05-27T13:31:53Z</time>
      </trkpt>
      <trkpt lat="47.6992" lon="-2.2532">
        <ele>48</ele>
        <time>2021-05-27T13:31:54Z</time>
      </trkpt>
      <trkpt lat="47.69919" lon="-2.25314">
        <ele>47.8</ele>
        <time>2021-05-27T13:31:55Z</time>
      </trkpt>
      <trkpt lat="47.69918" lon="-2.25307">
        <ele>47.6</ele>
        <time>2021-05-27T13:31:56Z</time>
      </trkpt>
      <trkpt lat="47.69916" lon="-2.253">
        <ele>47.5</ele>
        <time>2021-05-27T13:31:57Z</time>
      </trkpt>
      <trkpt lat="47.69915" lon="-2.25293">
        <ele>47.3</ele>
        <time>2021-05-27T13:31:58Z</time>
      </trkpt>
      <trkpt lat="47.69913" lon="-2.25285">
        <ele>47.2</ele>
        <time>2021-05-27T13:31:59Z</time>
      </trkpt>
      <trkpt lat="47.69911" lon="-2.25278">
        <ele>47.1</ele>
        <time>2021-05-27T13:32:00Z</time>
      </trkpt>
      <trkpt lat="47.69908" lon="-2.25271">
        <ele>47</ele>
        <time>2021-05-27T13:32:01Z</time>
      </trkpt>
      <trkpt lat="47.69907" lon="-2.25263">
        <ele>46.8</ele>
        <time>2021-05-27T13:32:02Z</time>
      </trkpt>
      <trkpt lat="47.69907" lon="-2.25255">
        <ele>46.5</ele>
        <time>2021-05-27T13:32:03Z</time>
      </trkpt>
      <trkpt lat="47.69906" lon="-2.25246">
        <ele>46.2</ele>
        <time>2021-05-27T13:32:04Z</time>
      </trkpt>
      <trkpt lat="47.69906" lon="-2.25237">
        <ele>45.8</ele>
        <time>2021-05-27T13:32:05Z</time>
      </trkpt>
      <trkpt lat="47.69906" lon="-2.25228">
        <ele>45.3</ele>
        <time>2021-05-27T13:32:06Z</time>
      </trkpt>
      <trkpt lat="47.69905" lon="-2.2522">
        <ele>45</ele>
        <time>2021-05-27T13:32:07Z</time>
      </trkpt>
      <trkpt lat="47.69903" lon="-2.25213">
        <ele>45</ele>
        <time>2021-05-27T13:32:08Z</time>
      </trkpt>
      <trkpt lat="47.69898" lon="-2.25209">
        <ele>45.3</ele>
        <time>2021-05-27T13:32:09Z</time>
      </trkpt>
      <trkpt lat="47.69894" lon="-2.25208">
        <ele>45.9</ele>
        <time>2021-05-27T13:32:10Z</time>
      </trkpt>
      <trkpt lat="47.69891" lon="-2.25209">
        <ele>46.3</ele>
        <time>2021-05-27T13:32:11Z</time>
      </trkpt>
      <trkpt lat="47.69888" lon="-2.25209">
        <ele>46.7</ele>
        <time>2021-05-27T13:32:12Z</time>
      </trkpt>
      <trkpt lat="47.69885" lon="-2.25208">
        <ele>47</ele>
        <time>2021-05-27T13:32:13Z</time>
      </trkpt>
      <trkpt lat="47.69883" lon="-2.25208">
        <ele>47.3</ele>
        <time>2021-05-27T13:32:14Z</time>
      </trkpt>
      <trkpt lat="47.69881" lon="-2.25207">
        <ele>47.4</ele>
        <time>2021-05-27T13:32:15Z</time>
      </trkpt>
      <trkpt lat="47.6988" lon="-2.25207">
        <ele>47.6</ele>
        <time>2021-05-27T13:32:16Z</time>
      </trkpt>
      <trkpt lat="47.69878" lon="-2.25206">
        <ele>47.7</ele>
        <time>2021-05-27T13:32:17Z</time>
      </trkpt>
      <trkpt lat="47.69876" lon="-2.25206">
        <ele>48</ele>
        <time>2021-05-27T13:32:18Z</time>
      </trkpt>
      <trkpt lat="47.69874" lon="-2.25205">
        <ele>48.3</ele>
        <time>2021-05-27T13:32:19Z</time>
      </trkpt>
      <trkpt lat="47.69872" lon="-2.25204">
        <ele>48.5</ele>
        <time>2021-05-27T13:32:20Z</time>
      </trkpt>
      <trkpt lat="47.6987" lon="-2.25204">
        <ele>48.6</ele>
        <time>2021-05-27T13:32:21Z</time>
      </trkpt>
      <trkpt lat="47.69868" lon="-2.25203">
        <ele>48.8</ele>
        <time>2021-05-27T13:32:22Z</time>
      </trkpt>
      <trkpt lat="47.69866" lon="-2.25203">
        <ele>49.1</ele>
        <time>2021-05-27T13:32:23Z</time>
      </trkpt>
      <trkpt lat="47.69864" lon="-2.25204">
        <ele>49.5</ele>
        <time>2021-05-27T13:32:24Z</time>
      </trkpt>
      <trkpt lat="47.69861" lon="-2.25204">
        <ele>49.7</ele>
        <time>2021-05-27T13:32:25Z</time>
      </trkpt>
      <trkpt lat="47.69859" lon="-2.25204">
        <ele>50</ele>
        <time>2021-05-27T13:32:26Z</time>
      </trkpt>
      <trkpt lat="47.69857" lon="-2.25204">
        <ele>50.3</ele>
        <time>2021-05-27T13:32:27Z</time>
      </trkpt>
      <trkpt lat="47.69855" lon="-2.25204">
        <ele>50.6</ele>
        <time>2021-05-27T13:32:28Z</time>
      </trkpt>
      <trkpt lat="47.69852" lon="-2.25203">
        <ele>50.8</ele>
        <time>2021-05-27T13:32:29Z</time>
      </trkpt>
      <trkpt lat="47.6985" lon="-2.25203">
        <ele>51.1</ele>
        <time>2021-05-27T13:32:30Z</time>
      </trkpt>
      <trkpt lat="47.69848" lon="-2.25203">
        <ele>51.4</ele>
        <time>2021-05-27T13:32:31Z</time>
      </trkpt>
      <trkpt lat="47.69845" lon="-2.25203">
        <ele>51.6</ele>
        <time>2021-05-27T13:32:32Z</time>
      </trkpt>
      <trkpt lat="47.69843" lon="-2.25202">
        <ele>51.9</ele>
        <time>2021-05-27T13:32:33Z</time>
      </trkpt>
      <trkpt lat="47.69841" lon="-2.25202">
        <ele>52.1</ele>
        <time>2021-05-27T13:32:34Z</time>
      </trkpt>
      <trkpt lat="47.69839" lon="-2.25202">
        <ele>52.4</ele>
        <time>2021-05-27T13:32:35Z</time>
      </trkpt>
      <trkpt lat="47.69838" lon="-2.25202">
        <ele>52.6</ele>
        <time>2021-05-27T13:32:36Z</time>
      </trkpt>
      <trkpt lat="47.69837" lon="-2.25201">
        <ele>52.7</ele>
        <time>2021-05-27T13:32:37Z</time>
      </trkpt>
      <trkpt lat="47.69835" lon="-2.25201">
        <ele>52.8</ele>
        <time>2021-05-27T13:32:38Z</time>
      </trkpt>
      <trkpt lat="47.69834" lon="-2.25201">
        <ele>53</ele>
        <time>2021-05-27T13:32:39Z</time>
      </trkpt>
      <trkpt lat="47.69833" lon="-2.25201">
        <ele>53.2</ele>
        <time>2021-05-27T13:32:40Z</time>
      </trkpt>
      <trkpt lat="47.69831" lon="-2.25201">
        <ele>53.4</ele>
        <time>2021-05-27T13:32:41Z</time>
      </trkpt>
      <trkpt lat="47.69829" lon="-2.25201">
        <ele>53.7</ele>
        <time>2021-05-27T13:32:42Z</time>
      </trkpt>
      <trkpt lat="47.69829" lon="-2.25202">
        <ele>53.9</ele>
        <time>2021-05-27T13:32:43Z</time>
      </trkpt>
      <trkpt lat="47.69827" lon="-2.25202">
        <ele>54.2</ele>
        <time>2021-05-27T13:32:44Z</time>
      </trkpt>
      <trkpt lat="47.69825" lon="-2.25202">
        <ele>54.4</ele>
        <time>2021-05-27T13:32:45Z</time>
      </trkpt>
      <trkpt lat="47.69824" lon="-2.25202">
        <ele>54.7</ele>
        <time>2021-05-27T13:32:46Z</time>
      </trkpt>
      <trkpt lat="47.69821" lon="-2.25202">
        <ele>55.1</ele>
        <time>2021-05-27T13:32:47Z</time>
      </trkpt>
      <trkpt lat="47.69819" lon="-2.25202">
        <ele>55.5</ele>
        <time>2021-05-27T13:32:48Z</time>
      </trkpt>
      <trkpt lat="47.69817" lon="-2.25203">
        <ele>55.8</ele>
        <time>2021-05-27T13:32:49Z</time>
      </trkpt>
      <trkpt lat="47.69815" lon="-2.25203">
        <ele>56</ele>
        <time>2021-05-27T13:32:50Z</time>
      </trkpt>
      <trkpt lat="47.69814" lon="-2.25203">
        <ele>56.3</ele>
        <time>2021-05-27T13:32:51Z</time>
      </trkpt>
      <trkpt lat="47.69813" lon="-2.25202">
        <ele>56.4</ele>
        <time>2021-05-27T13:32:52Z</time>
      </trkpt>
      <trkpt lat="47.69811" lon="-2.25201">
        <ele>56.6</ele>
        <time>2021-05-27T13:32:53Z</time>
      </trkpt>
      <trkpt lat="47.69809" lon="-2.25201">
        <ele>56.9</ele>
        <time>2021-05-27T13:32:54Z</time>
      </trkpt>
      <trkpt lat="47.69807" lon="-2.252">
        <ele>57.3</ele>
        <time>2021-05-27T13:32:55Z</time>
      </trkpt>
      <trkpt lat="47.69806" lon="-2.252">
        <ele>57.5</ele>
        <time>2021-05-27T13:32:56Z</time>
      </trkpt>
      <trkpt lat="47.69801" lon="-2.25199">
        <ele>58.1</ele>
        <time>2021-05-27T13:32:58Z</time>
      </trkpt>
      <trkpt lat="47.69799" lon="-2.25198">
        <ele>58.4</ele>
        <time>2021-05-27T13:32:59Z</time>
      </trkpt>
      <trkpt lat="47.69798" lon="-2.25197">
        <ele>58.6</ele>
        <time>2021-05-27T13:33:00Z</time>
      </trkpt>
      <trkpt lat="47.69796" lon="-2.25196">
        <ele>58.8</ele>
        <time>2021-05-27T13:33:01Z</time>
      </trkpt>
      <trkpt lat="47.69794" lon="-2.25195">
        <ele>59.1</ele>
        <time>2021-05-27T13:33:02Z</time>
      </trkpt>
      <trkpt lat="47.69793" lon="-2.25193">
        <ele>59.3</ele>
        <time>2021-05-27T13:33:03Z</time>
      </trkpt>
      <trkpt lat="47.69792" lon="-2.25193">
        <ele>59.5</ele>
        <time>2021-05-27T13:33:04Z</time>
      </trkpt>
      <trkpt lat="47.6979" lon="-2.25193">
        <ele>59.7</ele>
        <time>2021-05-27T13:33:05Z</time>
      </trkpt>
      <trkpt lat="47.69787" lon="-2.25193">
        <ele>60.2</ele>
        <time>2021-05-27T13:33:06Z</time>
      </trkpt>
      <trkpt lat="47.69785" lon="-2.25193">
        <ele>60.5</ele>
        <time>2021-05-27T13:33:07Z</time>
      </trkpt>
      <trkpt lat="47.69784" lon="-2.25193">
        <ele>60.8</ele>
        <time>2021-05-27T13:33:08Z</time>
      </trkpt>
      <trkpt lat="47.69782" lon="-2.25194">
        <ele>61.1</ele>
        <time>2021-05-27T13:33:09Z</time>
      </trkpt>
      <trkpt lat="47.6978" lon="-2.25194">
        <ele>61.4</ele>
        <time>2021-05-27T13:33:10Z</time>
      </trkpt>
      <trkpt lat="47.69777" lon="-2.25195">
        <ele>61.9</ele>
        <time>2021-05-27T13:33:11Z</time>
      </trkpt>
      <trkpt lat="47.69776" lon="-2.25195">
        <ele>62.1</ele>
        <time>2021-05-27T13:33:12Z</time>
      </trkpt>
      <trkpt lat="47.69773" lon="-2.25196">
        <ele>62.6</ele>
        <time>2021-05-27T13:33:13Z</time>
      </trkpt>
      <trkpt lat="47.69771" lon="-2.25197">
        <ele>63</ele>
        <time>2021-05-27T13:33:14Z</time>
      </trkpt>
      <trkpt lat="47.69769" lon="-2.25197">
        <ele>63.2</ele>
        <time>2021-05-27T13:33:15Z</time>
      </trkpt>
      <trkpt lat="47.69767" lon="-2.25196">
        <ele>63.5</ele>
        <time>2021-05-27T13:33:16Z</time>
      </trkpt>
      <trkpt lat="47.69766" lon="-2.25195">
        <ele>63.8</ele>
        <time>2021-05-27T13:33:17Z</time>
      </trkpt>
      <trkpt lat="47.69763" lon="-2.25195">
        <ele>64.2</ele>
        <time>2021-05-27T13:33:18Z</time>
      </trkpt>
      <trkpt lat="47.6976" lon="-2.25194">
        <ele>64.6</ele>
        <time>2021-05-27T13:33:19Z</time>
      </trkpt>
      <trkpt lat="47.69759" lon="-2.25193">
        <ele>64.9</ele>
        <time>2021-05-27T13:33:20Z</time>
      </trkpt>
      <trkpt lat="47.69756" lon="-2.25192">
        <ele>65.2</ele>
        <time>2021-05-27T13:33:21Z</time>
      </trkpt>
      <trkpt lat="47.69754" lon="-2.25192">
        <ele>65.6</ele>
        <time>2021-05-27T13:33:22Z</time>
      </trkpt>
      <trkpt lat="47.69753" lon="-2.25191">
        <ele>65.9</ele>
        <time>2021-05-27T13:33:23Z</time>
      </trkpt>
      <trkpt lat="47.6975" lon="-2.25191">
        <ele>66.2</ele>
        <time>2021-05-27T13:33:24Z</time>
      </trkpt>
      <trkpt lat="47.69748" lon="-2.25191">
        <ele>66.3</ele>
        <time>2021-05-27T13:33:25Z</time>
      </trkpt>
      <trkpt lat="47.69746" lon="-2.25191">
        <ele>66.3</ele>
        <time>2021-05-27T13:33:26Z</time>
      </trkpt>
      <trkpt lat="47.69743" lon="-2.2519">
        <ele>66.3</ele>
        <time>2021-05-27T13:33:27Z</time>
      </trkpt>
      <trkpt lat="47.6974" lon="-2.2519">
        <ele>66.3</ele>
        <time>2021-05-27T13:33:28Z</time>
      </trkpt>
      <trkpt lat="47.69738" lon="-2.25189">
        <ele>66.3</ele>
        <time>2021-05-27T13:33:29Z</time>
      </trkpt>
      <trkpt lat="47.69736" lon="-2.2519">
        <ele>66.3</ele>
        <time>2021-05-27T13:33:30Z</time>
      </trkpt>
      <trkpt lat="47.69734" lon="-2.2519">
        <ele>66.3</ele>
        <time>2021-05-27T13:33:31Z</time>
      </trkpt>
      <trkpt lat="47.69734" lon="-2.2519">
        <ele>66.3</ele>
        <time>2021-05-27T13:33:32Z</time>
      </trkpt>
      <trkpt lat="47.69734" lon="-2.25189">
        <ele>66.3</ele>
        <time>2021-05-27T13:33:33Z</time>
      </trkpt>
      <trkpt lat="47.69734" lon="-2.25189">
        <ele>66.3</ele>
        <time>2021-05-27T13:33:34Z</time>
      </trkpt>
      <trkpt lat="47.69734" lon="-2.25189">
        <ele>66.3</ele>
        <time>2021-05-27T13:33:35Z</time>
      </trkpt>
      <trkpt lat="47.69734" lon="-2.25189">
        <ele>66.3</ele>
        <time>2021-05-27T13:33:36Z</time>
      </trkpt>
      <trkpt lat="47.69734" lon="-2.25189">
        <ele>66.3</ele>
        <time>2021-05-27T13:33:37Z</time>
      </trkpt>
      <trkpt lat="47.69734" lon="-2.25189">
        <ele>66.3</ele>
        <time>2021-05-27T13:33:38Z</time>
      </trkpt>
      <trkpt lat="47.69734" lon="-2.25189">
        <ele>66.3</ele>
        <time>2021-05-27T13:33:39Z</time>
      </trkpt>
      <trkpt lat="47.69734" lon="-2.25189">
        <ele>66.3</ele>
        <time>2021-05-27T13:33:40Z</time>
      </trkpt>
      <trkpt lat="47.69734" lon="-2.25189">
        <ele>66.3</ele>
        <time>2021-05-27T13:33:41Z</time>
      </trkpt>
      <trkpt lat="47.69734" lon="-2.25189">
        <ele>66.3</ele>
        <time>2021-05-27T13:33:42Z</time>
      </trkpt>
      <trkpt lat="47.69734" lon="-2.25189">
        <ele>66.3</ele>
        <time>2021-05-27T13:33:43Z</time>
      </trkpt>
      <trkpt lat="47.69731" lon="-2.25188">
        <ele>66.3</ele>
        <time>2021-05-27T13:33:44Z</time>
      </trkpt>
      <trkpt lat="47.6973" lon="-2.25187">
        <ele>66.3</ele>
        <time>2021-05-27T13:33:45Z</time>
      </trkpt>
      <trkpt lat="47.69728" lon="-2.25185">
        <ele>66.3</ele>
        <time>2021-05-27T13:33:46Z</time>
      </trkpt>
      <trkpt lat="47.69726" lon="-2.25183">
        <ele>66.3</ele>
        <time>2021-05-27T13:33:47Z</time>
      </trkpt>
      <trkpt lat="47.69724" lon="-2.2518">
        <ele>66.3</ele>
        <time>2021-05-27T13:33:48Z</time>
      </trkpt>
      <trkpt lat="47.69723" lon="-2.25178">
        <ele>66.3</ele>
        <time>2021-05-27T13:33:49Z</time>
      </trkpt>
      <trkpt lat="47.69721" lon="-2.25175">
        <ele>66.3</ele>
        <time>2021-05-27T13:33:50Z</time>
      </trkpt>
      <trkpt lat="47.69719" lon="-2.25173">
        <ele>66.4</ele>
        <time>2021-05-27T13:33:51Z</time>
      </trkpt>
      <trkpt lat="47.69716" lon="-2.25169">
        <ele>66.4</ele>
        <time>2021-05-27T13:33:52Z</time>
      </trkpt>
      <trkpt lat="47.69714" lon="-2.25166">
        <ele>66.4</ele>
        <time>2021-05-27T13:33:53Z</time>
      </trkpt>
      <trkpt lat="47.69712" lon="-2.25164">
        <ele>66.5</ele>
        <time>2021-05-27T13:33:54Z</time>
      </trkpt>
      <trkpt lat="47.6971" lon="-2.2516">
        <ele>66.6</ele>
        <time>2021-05-27T13:33:55Z</time>
      </trkpt>
      <trkpt lat="47.69707" lon="-2.25157">
        <ele>66.7</ele>
        <time>2021-05-27T13:33:56Z</time>
      </trkpt>
      <trkpt lat="47.69706" lon="-2.25154">
        <ele>66.8</ele>
        <time>2021-05-27T13:33:57Z</time>
      </trkpt>
      <trkpt lat="47.69704" lon="-2.25151">
        <ele>66.9</ele>
        <time>2021-05-27T13:33:58Z</time>
      </trkpt>
      <trkpt lat="47.69701" lon="-2.25148">
        <ele>66.9</ele>
        <time>2021-05-27T13:33:59Z</time>
      </trkpt>
      <trkpt lat="47.697" lon="-2.25144">
        <ele>67</ele>
        <time>2021-05-27T13:34:00Z</time>
      </trkpt>
      <trkpt lat="47.69698" lon="-2.25141">
        <ele>67.1</ele>
        <time>2021-05-27T13:34:01Z</time>
      </trkpt>
      <trkpt lat="47.69696" lon="-2.25137">
        <ele>67.2</ele>
        <time>2021-05-27T13:34:02Z</time>
      </trkpt>
      <trkpt lat="47.69695" lon="-2.25134">
        <ele>67.3</ele>
        <time>2021-05-27T13:34:03Z</time>
      </trkpt>
      <trkpt lat="47.69694" lon="-2.2513">
        <ele>67.4</ele>
        <time>2021-05-27T13:34:04Z</time>
      </trkpt>
      <trkpt lat="47.69692" lon="-2.25126">
        <ele>67.5</ele>
        <time>2021-05-27T13:34:05Z</time>
      </trkpt>
      <trkpt lat="47.69691" lon="-2.25122">
        <ele>67.6</ele>
        <time>2021-05-27T13:34:06Z</time>
      </trkpt>
      <trkpt lat="47.69689" lon="-2.25118">
        <ele>67.8</ele>
        <time>2021-05-27T13:34:07Z</time>
      </trkpt>
      <trkpt lat="47.69687" lon="-2.25114">
        <ele>67.9</ele>
        <time>2021-05-27T13:34:08Z</time>
      </trkpt>
      <trkpt lat="47.69685" lon="-2.2511">
        <ele>68</ele>
        <time>2021-05-27T13:34:09Z</time>
      </trkpt>
      <trkpt lat="47.69684" lon="-2.25106">
        <ele>68.1</ele>
        <time>2021-05-27T13:34:10Z</time>
      </trkpt>
      <trkpt lat="47.69683" lon="-2.25101">
        <ele>68.2</ele>
        <time>2021-05-27T13:34:11Z</time>
      </trkpt>
      <trkpt lat="47.69681" lon="-2.25097">
        <ele>68.4</ele>
        <time>2021-05-27T13:34:12Z</time>
      </trkpt>
      <trkpt lat="47.6968" lon="-2.25092">
        <ele>68.5</ele>
        <time>2021-05-27T13:34:13Z</time>
      </trkpt>
      <trkpt lat="47.69678" lon="-2.25087">
        <ele>68.6</ele>
        <time>2021-05-27T13:34:14Z</time>
      </trkpt>
      <trkpt lat="47.69677" lon="-2.25082">
        <ele>68.8</ele>
        <time>2021-05-27T13:34:15Z</time>
      </trkpt>
      <trkpt lat="47.69675" lon="-2.25078">
        <ele>68.7</ele>
        <time>2021-05-27T13:34:16Z</time>
      </trkpt>
      <trkpt lat="47.69675" lon="-2.25073">
        <ele>68.7</ele>
        <time>2021-05-27T13:34:17Z</time>
      </trkpt>
      <trkpt lat="47.69673" lon="-2.25069">
        <ele>68.8</ele>
        <time>2021-05-27T13:34:18Z</time>
      </trkpt>
      <trkpt lat="47.69672" lon="-2.25065">
        <ele>68.8</ele>
        <time>2021-05-27T13:34:19Z</time>
      </trkpt>
      <trkpt lat="47.69671" lon="-2.25061">
        <ele>68.8</ele>
        <time>2021-05-27T13:34:20Z</time>
      </trkpt>
      <trkpt lat="47.6967" lon="-2.25057">
        <ele>68.8</ele>
        <time>2021-05-27T13:34:21Z</time>
      </trkpt>
      <trkpt lat="47.69669" lon="-2.25052">
        <ele>68.9</ele>
        <time>2021-05-27T13:34:22Z</time>
      </trkpt>
      <trkpt lat="47.69669" lon="-2.25047">
        <ele>68.9</ele>
        <time>2021-05-27T13:34:23Z</time>
      </trkpt>
      <trkpt lat="47.69669" lon="-2.25042">
        <ele>68.9</ele>
        <time>2021-05-27T13:34:24Z</time>
      </trkpt>
      <trkpt lat="47.69669" lon="-2.25037">
        <ele>68.9</ele>
        <time>2021-05-27T13:34:25Z</time>
      </trkpt>
      <trkpt lat="47.69668" lon="-2.25032">
        <ele>68.9</ele>
        <time>2021-05-27T13:34:26Z</time>
      </trkpt>
      <trkpt lat="47.69668" lon="-2.25027">
        <ele>68.9</ele>
        <time>2021-05-27T13:34:27Z</time>
      </trkpt>
      <trkpt lat="47.69667" lon="-2.25021">
        <ele>69</ele>
        <time>2021-05-27T13:34:28Z</time>
      </trkpt>
      <trkpt lat="47.69666" lon="-2.25015">
        <ele>69</ele>
        <time>2021-05-27T13:34:29Z</time>
      </trkpt>
      <trkpt lat="47.69665" lon="-2.25008">
        <ele>69</ele>
        <time>2021-05-27T13:34:30Z</time>
      </trkpt>
      <trkpt lat="47.69664" lon="-2.25002">
        <ele>68.9</ele>
        <time>2021-05-27T13:34:31Z</time>
      </trkpt>
      <trkpt lat="47.69664" lon="-2.24995">
        <ele>68.9</ele>
        <time>2021-05-27T13:34:32Z</time>
      </trkpt>
      <trkpt lat="47.69663" lon="-2.2499">
        <ele>69</ele>
        <time>2021-05-27T13:34:33Z</time>
      </trkpt>
      <trkpt lat="47.69662" lon="-2.24984">
        <ele>69.1</ele>
        <time>2021-05-27T13:34:34Z</time>
      </trkpt>
      <trkpt lat="47.69662" lon="-2.24979">
        <ele>69.1</ele>
        <time>2021-05-27T13:34:35Z</time>
      </trkpt>
      <trkpt lat="47.69662" lon="-2.24973">
        <ele>69.2</ele>
        <time>2021-05-27T13:34:36Z</time>
      </trkpt>
      <trkpt lat="47.69662" lon="-2.24967">
        <ele>69.3</ele>
        <time>2021-05-27T13:34:37Z</time>
      </trkpt>
      <trkpt lat="47.69661" lon="-2.24961">
        <ele>69.3</ele>
        <time>2021-05-27T13:34:38Z</time>
      </trkpt>
      <trkpt lat="47.69661" lon="-2.24956">
        <ele>69.4</ele>
        <time>2021-05-27T13:34:39Z</time>
      </trkpt>
      <trkpt lat="47.6966" lon="-2.2495">
        <ele>69.5</ele>
        <time>2021-05-27T13:34:40Z</time>
      </trkpt>
      <trkpt lat="47.69648" lon="-2.2495">
        <ele>69.2</ele>
      </trkpt>
      <trkpt lat="47.69634" lon="-2.24944">
        <ele>69</ele>
      </trkpt>
      <trkpt lat="47.69628" lon="-2.24928">
        <ele>69.3</ele>
      </trkpt>
      <trkpt lat="47.69625" lon="-2.24905">
        <ele>69.6</ele>
      </trkpt>
      <trkpt lat="47.69628" lon="-2.24887">
        <ele>69.7</ele>
      </trkpt>
      <trkpt lat="47.69629" lon="-2.24877">
        <ele>69.8</ele>
      </trkpt>
      <trkpt lat="47.6963" lon="-2.24865">
        <ele>69.8</ele>
      </trkpt>
      <trkpt lat="47.6962" lon="-2.24843">
        <ele>69.9</ele>
      </trkpt>
      <trkpt lat="47.69618" lon="-2.2484">
        <ele>70</ele>
      </trkpt>
      <trkpt lat="47.69606" lon="-2.24837">
        <ele>70</ele>
      </trkpt>
      <trkpt lat="47.69596" lon="-2.24827">
        <ele>69.9</ele>
      </trkpt>
      <trkpt lat="47.6959" lon="-2.24804">
        <ele>69.6</ele>
      </trkpt>
      <trkpt lat="47.69587" lon="-2.24796">
        <ele>69.5</ele>
      </trkpt>
      <trkpt lat="47.69586" lon="-2.24778">
        <ele>69.3</ele>
      </trkpt>
      <trkpt lat="47.69578" lon="-2.24741">
        <ele>68.4</ele>
      </trkpt>
      <trkpt lat="47.69578" lon="-2.2473">
        <ele>68.2</ele>
      </trkpt>
      <trkpt lat="47.69579" lon="-2.24695">
        <ele>67.5</ele>
      </trkpt>
      <trkpt lat="47.69571" lon="-2.24663">
        <ele>66.6</ele>
      </trkpt>
      <trkpt lat="47.69571" lon="-2.24654">
        <ele>66.7</ele>
      </trkpt>
      <trkpt lat="47.69571" lon="-2.24634">
        <ele>67</ele>
      </trkpt>
      <trkpt lat="47.69576" lon="-2.24613">
        <ele>67.4</ele>
      </trkpt>
      <trkpt lat="47.69581" lon="-2.24593">
        <ele>67.8</ele>
      </trkpt>
      <trkpt lat="47.69587" lon="-2.2458">
        <ele>67.6</ele>
      </trkpt>
      <trkpt lat="47.69582" lon="-2.24574">
        <ele>68</ele>
      </trkpt>
      <trkpt lat="47.69578" lon="-2.24571">
        <ele>67.9</ele>
      </trkpt>
      <trkpt lat="47.69576" lon="-2.24567">
        <ele>67.8</ele>
      </trkpt>
      <trkpt lat="47.69575" lon="-2.24563">
        <ele>67.8</ele>
      </trkpt>
      <trkpt lat="47.69574" lon="-2.24559">
        <ele>67.8</ele>
      </trkpt>
      <trkpt lat="47.69573" lon="-2.24556">
        <ele>67.8</ele>
      </trkpt>
      <trkpt lat="47.69567" lon="-2.24553">
        <ele>67.7</ele>
      </trkpt>
      <trkpt lat="47.69565" lon="-2.24546">
        <ele>67.7</ele>
      </trkpt>
      <trkpt lat="47.69563" lon="-2.24543">
        <ele>67.6</ele>
      </trkpt>
      <trkpt lat="47.69561" lon="-2.24534">
        <ele>67.6</ele>
      </trkpt>
      <trkpt lat="47.69559" lon="-2.2453">
        <ele>67.6</ele>
      </trkpt>
      <trkpt lat="47.69552" lon="-2.24528">
        <ele>67.5</ele>
      </trkpt>
      <trkpt lat="47.69549" lon="-2.24526">
        <ele>67.5</ele>
      </trkpt>
      <trkpt lat="47.69547" lon="-2.24522">
        <ele>67.5</ele>
      </trkpt>
      <trkpt lat="47.69548" lon="-2.24518">
        <ele>67.5</ele>
      </trkpt>
      <trkpt lat="47.69549" lon="-2.24505">
        <ele>67.6</ele>
      </trkpt>
      <trkpt lat="47.69544" lon="-2.24496">
        <ele>67.5</ele>
      </trkpt>
      <trkpt lat="47.69545" lon="-2.24491">
        <ele>67.5</ele>
      </trkpt>
      <trkpt lat="47.69546" lon="-2.24487">
        <ele>67.5</ele>
      </trkpt>
      <trkpt lat="47.69544" lon="-2.24468">
        <ele>67.3</ele>
      </trkpt>
      <trkpt lat="47.69543" lon="-2.24463">
        <ele>67.3</ele>
      </trkpt>
      <trkpt lat="47.69542" lon="-2.24458">
        <ele>67.3</ele>
      </trkpt>
      <trkpt lat="47.69542" lon="-2.24453">
        <ele>67.2</ele>
      </trkpt>
      <trkpt lat="47.69541" lon="-2.24449">
        <ele>67.2</ele>
      </trkpt>
      <trkpt lat="47.6954" lon="-2.24442">
        <ele>67.1</ele>
      </trkpt>
      <trkpt lat="47.69538" lon="-2.24433">
        <ele>67.1</ele>
      </trkpt>
      <trkpt lat="47.69538" lon="-2.24427">
        <ele>67.1</ele>
      </trkpt>
      <trkpt lat="47.69538" lon="-2.24423">
        <ele>67</ele>
      </trkpt>
      <trkpt lat="47.69538" lon="-2.24417">
        <ele>67</ele>
      </trkpt>
      <trkpt lat="47.69538" lon="-2.24413">
        <ele>67.1</ele>
      </trkpt>
      <trkpt lat="47.69538" lon="-2.24407">
        <ele>67.2</ele>
      </trkpt>
      <trkpt lat="47.6954" lon="-2.24393">
        <ele>67.4</ele>
      </trkpt>
      <trkpt lat="47.6954" lon="-2.24385">
        <ele>67.6</ele>
      </trkpt>
      <trkpt lat="47.69539" lon="-2.24381">
        <ele>67.6</ele>
      </trkpt>
      <trkpt lat="47.69539" lon="-2.24376">
        <ele>67.7</ele>
      </trkpt>
      <trkpt lat="47.69538" lon="-2.24371">
        <ele>67.8</ele>
      </trkpt>
      <trkpt lat="47.69542" lon="-2.24364">
        <ele>68</ele>
      </trkpt>
      <trkpt lat="47.69545" lon="-2.24356">
        <ele>68.1</ele>
      </trkpt>
      <trkpt lat="47.69541" lon="-2.24345">
        <ele>68.3</ele>
      </trkpt>
      <trkpt lat="47.69538" lon="-2.24336">
        <ele>68.4</ele>
      </trkpt>
      <trkpt lat="47.69537" lon="-2.24332">
        <ele>68.4</ele>
      </trkpt>
      <trkpt lat="47.69534" lon="-2.24324">
        <ele>68.5</ele>
      </trkpt>
      <trkpt lat="47.69532" lon="-2.24315">
        <ele>68.5</ele>
      </trkpt>
      <trkpt lat="47.69532" lon="-2.24312">
        <ele>68.5</ele>
      </trkpt>
      <trkpt lat="47.69532" lon="-2.24302">
        <ele>68.6</ele>
      </trkpt>
      <trkpt lat="47.69532" lon="-2.24294">
        <ele>68.7</ele>
      </trkpt>
      <trkpt lat="47.69532" lon="-2.24283">
        <ele>68.8</ele>
      </trkpt>
      <trkpt lat="47.69533" lon="-2.24278">
        <ele>68.8</ele>
      </trkpt>
      <trkpt lat="47.69534" lon="-2.24269">
        <ele>68.9</ele>
      </trkpt>
      <trkpt lat="47.69532" lon="-2.24259">
        <ele>68.9</ele>
      </trkpt>
      <trkpt lat="47.6953" lon="-2.2425">
        <ele>69</ele>
      </trkpt>
      <trkpt lat="47.69532" lon="-2.24242">
        <ele>69.1</ele>
      </trkpt>
      <trkpt lat="47.69534" lon="-2.24239">
        <ele>69.1</ele>
      </trkpt>
      <trkpt lat="47.69538" lon="-2.24233">
        <ele>69.2</ele>
      </trkpt>
      <trkpt lat="47.69542" lon="-2.24224">
        <ele>69.3</ele>
      </trkpt>
      <trkpt lat="47.69547" lon="-2.24221">
        <ele>69.4</ele>
      </trkpt>
      <trkpt lat="47.69553" lon="-2.24219">
        <ele>69.5</ele>
      </trkpt>
      <trkpt lat="47.69557" lon="-2.2422">
        <ele>69.5</ele>
      </trkpt>
      <trkpt lat="47.69562" lon="-2.24217">
        <ele>69.6</ele>
        <time>2021-05-27T13:48:56Z</time>
      </trkpt>
      <trkpt lat="47.69561" lon="-2.24213">
        <ele>69.7</ele>
        <time>2021-05-27T13:48:57Z</time>
      </trkpt>
      <trkpt lat="47.6956" lon="-2.2421">
        <ele>69.7</ele>
        <time>2021-05-27T13:48:58Z</time>
      </trkpt>
      <trkpt lat="47.69559" lon="-2.24207">
        <ele>69.7</ele>
        <time>2021-05-27T13:48:59Z</time>
      </trkpt>
      <trkpt lat="47.69559" lon="-2.24204">
        <ele>69.8</ele>
        <time>2021-05-27T13:49:00Z</time>
      </trkpt>
      <trkpt lat="47.69558" lon="-2.24201">
        <ele>69.8</ele>
        <time>2021-05-27T13:49:01Z</time>
      </trkpt>
      <trkpt lat="47.69556" lon="-2.24197">
        <ele>69.9</ele>
        <time>2021-05-27T13:49:02Z</time>
      </trkpt>
      <trkpt lat="47.69556" lon="-2.24193">
        <ele>69.9</ele>
        <time>2021-05-27T13:49:03Z</time>
      </trkpt>
      <trkpt lat="47.69555" lon="-2.24187">
        <ele>70</ele>
        <time>2021-05-27T13:49:04Z</time>
      </trkpt>
      <trkpt lat="47.69554" lon="-2.2418">
        <ele>70.1</ele>
        <time>2021-05-27T13:49:05Z</time>
      </trkpt>
      <trkpt lat="47.69553" lon="-2.24173">
        <ele>70.2</ele>
        <time>2021-05-27T13:49:06Z</time>
      </trkpt>
      <trkpt lat="47.69552" lon="-2.24169">
        <ele>70.2</ele>
        <time>2021-05-27T13:49:07Z</time>
      </trkpt>
      <trkpt lat="47.69551" lon="-2.24165">
        <ele>70.2</ele>
        <time>2021-05-27T13:49:08Z</time>
      </trkpt>
      <trkpt lat="47.69549" lon="-2.24162">
        <ele>70.2</ele>
        <time>2021-05-27T13:49:09Z</time>
      </trkpt>
      <trkpt lat="47.69549" lon="-2.24162">
        <ele>70.2</ele>
        <time>2021-05-27T13:49:10Z</time>
      </trkpt>
      <trkpt lat="47.69549" lon="-2.2416">
        <ele>70.2</ele>
        <time>2021-05-27T13:50:24Z</time>
      </trkpt>
      <trkpt lat="47.69548" lon="-2.24155">
        <ele>70.3</ele>
        <time>2021-05-27T13:50:25Z</time>
      </trkpt>
      <trkpt lat="47.69547" lon="-2.2415">
        <ele>70.3</ele>
        <time>2021-05-27T13:50:26Z</time>
      </trkpt>
      <trkpt lat="47.69546" lon="-2.24144">
        <ele>70.4</ele>
        <time>2021-05-27T13:50:27Z</time>
      </trkpt>
      <trkpt lat="47.69546" lon="-2.24139">
        <ele>70.4</ele>
        <time>2021-05-27T13:50:28Z</time>
      </trkpt>
      <trkpt lat="47.69545" lon="-2.24134">
        <ele>70.5</ele>
        <time>2021-05-27T13:50:29Z</time>
      </trkpt>
      <trkpt lat="47.69545" lon="-2.24128">
        <ele>70.5</ele>
        <time>2021-05-27T13:50:30Z</time>
      </trkpt>
      <trkpt lat="47.69544" lon="-2.24123">
        <ele>70.6</ele>
        <time>2021-05-27T13:50:31Z</time>
      </trkpt>
      <trkpt lat="47.69543" lon="-2.24117">
        <ele>70.6</ele>
        <time>2021-05-27T13:50:32Z</time>
      </trkpt>
      <trkpt lat="47.69542" lon="-2.24112">
        <ele>70.7</ele>
        <time>2021-05-27T13:50:33Z</time>
      </trkpt>
      <trkpt lat="47.69541" lon="-2.24107">
        <ele>70.7</ele>
        <time>2021-05-27T13:50:34Z</time>
      </trkpt>
      <trkpt lat="47.69541" lon="-2.24103">
        <ele>70.7</ele>
        <time>2021-05-27T13:50:35Z</time>
      </trkpt>
      <trkpt lat="47.6954" lon="-2.24097">
        <ele>70.8</ele>
        <time>2021-05-27T13:50:36Z</time>
      </trkpt>
      <trkpt lat="47.69538" lon="-2.24091">
        <ele>70.8</ele>
        <time>2021-05-27T13:50:37Z</time>
      </trkpt>
      <trkpt lat="47.69537" lon="-2.24086">
        <ele>70.9</ele>
        <time>2021-05-27T13:50:38Z</time>
      </trkpt>
      <trkpt lat="47.69535" lon="-2.2408">
        <ele>70.8</ele>
        <time>2021-05-27T13:50:39Z</time>
      </trkpt>
      <trkpt lat="47.69533" lon="-2.24074">
        <ele>70.7</ele>
        <time>2021-05-27T13:50:40Z</time>
      </trkpt>
      <trkpt lat="47.69531" lon="-2.24068">
        <ele>70.6</ele>
        <time>2021-05-27T13:50:41Z</time>
      </trkpt>
      <trkpt lat="47.69529" lon="-2.24063">
        <ele>70.5</ele>
        <time>2021-05-27T13:50:42Z</time>
      </trkpt>
      <trkpt lat="47.69526" lon="-2.24058">
        <ele>70.3</ele>
        <time>2021-05-27T13:50:43Z</time>
      </trkpt>
      <trkpt lat="47.69523" lon="-2.24055">
        <ele>70.2</ele>
        <time>2021-05-27T13:50:44Z</time>
      </trkpt>
      <trkpt lat="47.6952" lon="-2.24053">
        <ele>70.1</ele>
        <time>2021-05-27T13:50:45Z</time>
      </trkpt>
      <trkpt lat="47.69517" lon="-2.24052">
        <ele>70</ele>
        <time>2021-05-27T13:50:46Z</time>
      </trkpt>
      <trkpt lat="47.69515" lon="-2.2405">
        <ele>70</ele>
        <time>2021-05-27T13:50:47Z</time>
      </trkpt>
      <trkpt lat="47.69512" lon="-2.24048">
        <ele>69.9</ele>
        <time>2021-05-27T13:50:48Z</time>
      </trkpt>
      <trkpt lat="47.69509" lon="-2.24048">
        <ele>69.8</ele>
        <time>2021-05-27T13:50:49Z</time>
      </trkpt>
      <trkpt lat="47.69506" lon="-2.24048">
        <ele>69.7</ele>
        <time>2021-05-27T13:50:50Z</time>
      </trkpt>
      <trkpt lat="47.69503" lon="-2.24048">
        <ele>69.7</ele>
        <time>2021-05-27T13:50:51Z</time>
      </trkpt>
      <trkpt lat="47.695" lon="-2.24049">
        <ele>69.6</ele>
        <time>2021-05-27T13:50:52Z</time>
      </trkpt>
      <trkpt lat="47.69497" lon="-2.24051">
        <ele>69.5</ele>
        <time>2021-05-27T13:50:53Z</time>
      </trkpt>
      <trkpt lat="47.69494" lon="-2.24052">
        <ele>69.4</ele>
        <time>2021-05-27T13:50:54Z</time>
      </trkpt>
      <trkpt lat="47.69492" lon="-2.24053">
        <ele>69.3</ele>
        <time>2021-05-27T13:50:55Z</time>
      </trkpt>
      <trkpt lat="47.69491" lon="-2.24053">
        <ele>69.2</ele>
        <time>2021-05-27T13:50:56Z</time>
      </trkpt>
      <trkpt lat="47.6949" lon="-2.24054">
        <ele>69.1</ele>
        <time>2021-05-27T13:50:57Z</time>
      </trkpt>
      <trkpt lat="47.6949" lon="-2.24054">
        <ele>69.2</ele>
        <time>2021-05-27T13:50:58Z</time>
      </trkpt>
      <trkpt lat="47.6949" lon="-2.24054">
        <ele>69.2</ele>
        <time>2021-05-27T13:50:59Z</time>
      </trkpt>
      <trkpt lat="47.6949" lon="-2.24054">
        <ele>69.2</ele>
        <time>2021-05-27T13:51:00Z</time>
      </trkpt>
      <trkpt lat="47.6949" lon="-2.24054">
        <ele>69.2</ele>
        <time>2021-05-27T13:51:01Z</time>
      </trkpt>
      <trkpt lat="47.6949" lon="-2.24054">
        <ele>69.2</ele>
        <time>2021-05-27T13:51:02Z</time>
      </trkpt>
      <trkpt lat="47.6949" lon="-2.24054">
        <ele>69.2</ele>
        <time>2021-05-27T13:51:03Z</time>
      </trkpt>
      <trkpt lat="47.6949" lon="-2.24054">
        <ele>69.2</ele>
        <time>2021-05-27T13:51:04Z</time>
      </trkpt>
      <trkpt lat="47.6949" lon="-2.24054">
        <ele>69.2</ele>
        <time>2021-05-27T13:51:05Z</time>
      </trkpt>
      <trkpt lat="47.6949" lon="-2.24054">
        <ele>69.2</ele>
        <time>2021-05-27T13:51:06Z</time>
      </trkpt>
      <trkpt lat="47.6949" lon="-2.24054">
        <ele>69.2</ele>
        <time>2021-05-27T13:51:07Z</time>
      </trkpt>
      <trkpt lat="47.6949" lon="-2.24054">
        <ele>69.2</ele>
        <time>2021-05-27T13:51:08Z</time>
      </trkpt>
      <trkpt lat="47.6949" lon="-2.24054">
        <ele>69.2</ele>
        <time>2021-05-27T13:51:09Z</time>
      </trkpt>
      <trkpt lat="47.6949" lon="-2.24054">
        <ele>69.2</ele>
        <time>2021-05-27T13:51:10Z</time>
      </trkpt>
      <trkpt lat="47.6949" lon="-2.24054">
        <ele>69.2</ele>
        <time>2021-05-27T13:51:11Z</time>
      </trkpt>
      <trkpt lat="47.6949" lon="-2.24054">
        <ele>69.2</ele>
        <time>2021-05-27T13:51:12Z</time>
      </trkpt>
      <trkpt lat="47.6949" lon="-2.24054">
        <ele>69.2</ele>
        <time>2021-05-27T13:51:13Z</time>
      </trkpt>
      <trkpt lat="47.6949" lon="-2.24054">
        <ele>69.2</ele>
        <time>2021-05-27T13:51:14Z</time>
      </trkpt>
      <trkpt lat="47.6949" lon="-2.24054">
        <ele>69.2</ele>
        <time>2021-05-27T13:51:15Z</time>
      </trkpt>
      <trkpt lat="47.6949" lon="-2.24054">
        <ele>69.2</ele>
        <time>2021-05-27T13:51:16Z</time>
      </trkpt>
      <trkpt lat="47.6949" lon="-2.24054">
        <ele>69.2</ele>
        <time>2021-05-27T13:51:17Z</time>
      </trkpt>
      <trkpt lat="47.6949" lon="-2.24054">
        <ele>69.2</ele>
        <time>2021-05-27T13:51:18Z</time>
      </trkpt>
      <trkpt lat="47.6949" lon="-2.24054">
        <ele>69.2</ele>
        <time>2021-05-27T13:51:19Z</time>
      </trkpt>
      <trkpt lat="47.6949" lon="-2.24054">
        <ele>69.2</ele>
        <time>2021-05-27T13:51:20Z</time>
      </trkpt>
      <trkpt lat="47.6949" lon="-2.24054">
        <ele>69.2</ele>
        <time>2021-05-27T13:51:21Z</time>
      </trkpt>
      <trkpt lat="47.6949" lon="-2.24054">
        <ele>69.2</ele>
        <time>2021-05-27T13:51:22Z</time>
      </trkpt>
      <trkpt lat="47.6949" lon="-2.24054">
        <ele>69.2</ele>
        <time>2021-05-27T13:51:23Z</time>
      </trkpt>
      <trkpt lat="47.69489" lon="-2.24061">
        <ele>69.2</ele>
        <time>2021-05-27T13:51:24Z</time>
      </trkpt>
      <trkpt lat="47.69489" lon="-2.24064">
        <ele>69.2</ele>
        <time>2021-05-27T13:51:25Z</time>
      </trkpt>
      <trkpt lat="47.69489" lon="-2.24068">
        <ele>69.2</ele>
        <time>2021-05-27T13:51:26Z</time>
      </trkpt>
      <trkpt lat="47.69489" lon="-2.24072">
        <ele>69.2</ele>
        <time>2021-05-27T13:51:27Z</time>
      </trkpt>
      <trkpt lat="47.69488" lon="-2.24076">
        <ele>69.2</ele>
        <time>2021-05-27T13:51:28Z</time>
      </trkpt>
      <trkpt lat="47.69488" lon="-2.24081">
        <ele>69.3</ele>
        <time>2021-05-27T13:51:29Z</time>
      </trkpt>
      <trkpt lat="47.69489" lon="-2.24086">
        <ele>69.3</ele>
        <time>2021-05-27T13:51:30Z</time>
      </trkpt>
      <trkpt lat="47.6949" lon="-2.2409">
        <ele>69.3</ele>
        <time>2021-05-27T13:51:31Z</time>
      </trkpt>
      <trkpt lat="47.69491" lon="-2.24094">
        <ele>69.3</ele>
        <time>2021-05-27T13:51:32Z</time>
      </trkpt>
      <trkpt lat="47.69493" lon="-2.24098">
        <ele>69.4</ele>
        <time>2021-05-27T13:51:33Z</time>
      </trkpt>
      <trkpt lat="47.69495" lon="-2.24102">
        <ele>69.5</ele>
        <time>2021-05-27T13:51:34Z</time>
      </trkpt>
      <trkpt lat="47.69497" lon="-2.24106">
        <ele>69.6</ele>
        <time>2021-05-27T13:51:35Z</time>
      </trkpt>
      <trkpt lat="47.695" lon="-2.2411">
        <ele>69.7</ele>
        <time>2021-05-27T13:51:36Z</time>
      </trkpt>
      <trkpt lat="47.69503" lon="-2.24113">
        <ele>69.7</ele>
        <time>2021-05-27T13:51:37Z</time>
      </trkpt>
      <trkpt lat="47.69506" lon="-2.24116">
        <ele>69.7</ele>
        <time>2021-05-27T13:51:38Z</time>
      </trkpt>
      <trkpt lat="47.69509" lon="-2.24118">
        <ele>69.8</ele>
        <time>2021-05-27T13:51:39Z</time>
      </trkpt>
      <trkpt lat="47.6951" lon="-2.2412">
        <ele>69.8</ele>
        <time>2021-05-27T13:51:40Z</time>
      </trkpt>
      <trkpt lat="47.69512" lon="-2.24123">
        <ele>69.8</ele>
        <time>2021-05-27T13:51:41Z</time>
      </trkpt>
      <trkpt lat="47.69514" lon="-2.24124">
        <ele>69.8</ele>
        <time>2021-05-27T13:51:42Z</time>
      </trkpt>
      <trkpt lat="47.69517" lon="-2.24126">
        <ele>69.9</ele>
        <time>2021-05-27T13:51:43Z</time>
      </trkpt>
      <trkpt lat="47.69519" lon="-2.24127">
        <ele>69.9</ele>
        <time>2021-05-27T13:51:44Z</time>
      </trkpt>
      <trkpt lat="47.69521" lon="-2.24129">
        <ele>70</ele>
        <time>2021-05-27T13:51:45Z</time>
      </trkpt>
      <trkpt lat="47.69523" lon="-2.24132">
        <ele>70</ele>
        <time>2021-05-27T13:51:46Z</time>
      </trkpt>
      <trkpt lat="47.69524" lon="-2.24136">
        <ele>70</ele>
        <time>2021-05-27T13:51:47Z</time>
      </trkpt>
      <trkpt lat="47.69524" lon="-2.2414">
        <ele>69.9</ele>
        <time>2021-05-27T13:51:48Z</time>
      </trkpt>
      <trkpt lat="47.69523" lon="-2.24143">
        <ele>69.8</ele>
        <time>2021-05-27T13:51:49Z</time>
      </trkpt>
      <trkpt lat="47.69521" lon="-2.24146">
        <ele>69.8</ele>
        <time>2021-05-27T13:51:50Z</time>
      </trkpt>
      <trkpt lat="47.69521" lon="-2.24149">
        <ele>69.7</ele>
        <time>2021-05-27T13:51:51Z</time>
      </trkpt>
      <trkpt lat="47.69522" lon="-2.24154">
        <ele>69.7</ele>
        <time>2021-05-27T13:51:52Z</time>
      </trkpt>
      <trkpt lat="47.69523" lon="-2.24159">
        <ele>69.6</ele>
        <time>2021-05-27T13:51:53Z</time>
      </trkpt>
      <trkpt lat="47.69523" lon="-2.24163">
        <ele>69.6</ele>
        <time>2021-05-27T13:51:54Z</time>
      </trkpt>
      <trkpt lat="47.69525" lon="-2.24169">
        <ele>69.6</ele>
        <time>2021-05-27T13:51:55Z</time>
      </trkpt>
      <trkpt lat="47.69526" lon="-2.24174">
        <ele>69.6</ele>
        <time>2021-05-27T13:51:56Z</time>
      </trkpt>
      <trkpt lat="47.69527" lon="-2.2418">
        <ele>69.5</ele>
        <time>2021-05-27T13:51:57Z</time>
      </trkpt>
      <trkpt lat="47.69526" lon="-2.24184">
        <ele>69.5</ele>
        <time>2021-05-27T13:51:58Z</time>
      </trkpt>
      <trkpt lat="47.69525" lon="-2.24189">
        <ele>69.4</ele>
        <time>2021-05-27T13:51:59Z</time>
      </trkpt>
      <trkpt lat="47.69525" lon="-2.24194">
        <ele>69.4</ele>
        <time>2021-05-27T13:52:00Z</time>
      </trkpt>
      <trkpt lat="47.69524" lon="-2.24198">
        <ele>69.4</ele>
        <time>2021-05-27T13:52:01Z</time>
      </trkpt>
      <trkpt lat="47.69522" lon="-2.24202">
        <ele>69.3</ele>
        <time>2021-05-27T13:52:02Z</time>
      </trkpt>
      <trkpt lat="47.6952" lon="-2.24205">
        <ele>69.3</ele>
        <time>2021-05-27T13:52:03Z</time>
      </trkpt>
      <trkpt lat="47.69519" lon="-2.24208">
        <ele>69.2</ele>
        <time>2021-05-27T13:52:04Z</time>
      </trkpt>
      <trkpt lat="47.69518" lon="-2.24211">
        <ele>69.2</ele>
        <time>2021-05-27T13:52:05Z</time>
      </trkpt>
      <trkpt lat="47.69517" lon="-2.24214">
        <ele>69.2</ele>
        <time>2021-05-27T13:52:06Z</time>
      </trkpt>
      <trkpt lat="47.69516" lon="-2.24218">
        <ele>69.1</ele>
        <time>2021-05-27T13:52:07Z</time>
      </trkpt>
      <trkpt lat="47.69515" lon="-2.24221">
        <ele>69.1</ele>
        <time>2021-05-27T13:52:08Z</time>
      </trkpt>
      <trkpt lat="47.69513" lon="-2.24225">
        <ele>69.1</ele>
        <time>2021-05-27T13:52:09Z</time>
      </trkpt>
      <trkpt lat="47.69512" lon="-2.24229">
        <ele>69.1</ele>
        <time>2021-05-27T13:52:10Z</time>
      </trkpt>
      <trkpt lat="47.69511" lon="-2.24234">
        <ele>69</ele>
        <time>2021-05-27T13:52:11Z</time>
      </trkpt>
      <trkpt lat="47.6951" lon="-2.24239">
        <ele>69</ele>
        <time>2021-05-27T13:52:12Z</time>
      </trkpt>
      <trkpt lat="47.6951" lon="-2.24243">
        <ele>69</ele>
        <time>2021-05-27T13:52:13Z</time>
      </trkpt>
      <trkpt lat="47.69508" lon="-2.24247">
        <ele>69</ele>
        <time>2021-05-27T13:52:14Z</time>
      </trkpt>
      <trkpt lat="47.69507" lon="-2.24251">
        <ele>69</ele>
        <time>2021-05-27T13:52:15Z</time>
      </trkpt>
      <trkpt lat="47.69506" lon="-2.24256">
        <ele>68.9</ele>
        <time>2021-05-27T13:52:16Z</time>
      </trkpt>
      <trkpt lat="47.69505" lon="-2.24261">
        <ele>68.9</ele>
        <time>2021-05-27T13:52:17Z</time>
      </trkpt>
      <trkpt lat="47.69504" lon="-2.24264">
        <ele>68.8</ele>
        <time>2021-05-27T13:52:18Z</time>
      </trkpt>
      <trkpt lat="47.69504" lon="-2.24268">
        <ele>68.8</ele>
        <time>2021-05-27T13:52:19Z</time>
      </trkpt>
      <trkpt lat="47.69504" lon="-2.24273">
        <ele>68.7</ele>
        <time>2021-05-27T13:52:20Z</time>
      </trkpt>
      <trkpt lat="47.69503" lon="-2.24277">
        <ele>68.7</ele>
        <time>2021-05-27T13:52:21Z</time>
      </trkpt>
      <trkpt lat="47.69502" lon="-2.24281">
        <ele>68.6</ele>
        <time>2021-05-27T13:52:22Z</time>
      </trkpt>
      <trkpt lat="47.69502" lon="-2.24284">
        <ele>68.6</ele>
        <time>2021-05-27T13:52:23Z</time>
      </trkpt>
      <trkpt lat="47.69502" lon="-2.24289">
        <ele>68.5</ele>
        <time>2021-05-27T13:52:24Z</time>
      </trkpt>
      <trkpt lat="47.69501" lon="-2.24291">
        <ele>68.5</ele>
        <time>2021-05-27T13:52:25Z</time>
      </trkpt>
      <trkpt lat="47.69501" lon="-2.24294">
        <ele>68.5</ele>
        <time>2021-05-27T13:52:26Z</time>
      </trkpt>
      <trkpt lat="47.69501" lon="-2.24297">
        <ele>68.4</ele>
        <time>2021-05-27T13:52:27Z</time>
      </trkpt>
      <trkpt lat="47.69502" lon="-2.24301">
        <ele>68.4</ele>
        <time>2021-05-27T13:52:28Z</time>
      </trkpt>
      <trkpt lat="47.69502" lon="-2.24303">
        <ele>68.4</ele>
        <time>2021-05-27T13:52:29Z</time>
      </trkpt>
      <trkpt lat="47.69501" lon="-2.24306">
        <ele>68.3</ele>
        <time>2021-05-27T13:52:30Z</time>
      </trkpt>
      <trkpt lat="47.69501" lon="-2.2431">
        <ele>68.3</ele>
        <time>2021-05-27T13:52:31Z</time>
      </trkpt>
      <trkpt lat="47.69503" lon="-2.24314">
        <ele>68.3</ele>
        <time>2021-05-27T13:52:32Z</time>
      </trkpt>
      <trkpt lat="47.69505" lon="-2.24318">
        <ele>68.2</ele>
        <time>2021-05-27T13:52:33Z</time>
      </trkpt>
      <trkpt lat="47.69507" lon="-2.24322">
        <ele>68.2</ele>
        <time>2021-05-27T13:52:34Z</time>
      </trkpt>
      <trkpt lat="47.69509" lon="-2.24327">
        <ele>68.2</ele>
        <time>2021-05-27T13:52:35Z</time>
      </trkpt>
      <trkpt lat="47.69512" lon="-2.24332">
        <ele>68.2</ele>
        <time>2021-05-27T13:52:36Z</time>
      </trkpt>
      <trkpt lat="47.69514" lon="-2.24336">
        <ele>68.1</ele>
        <time>2021-05-27T13:52:37Z</time>
      </trkpt>
      <trkpt lat="47.69517" lon="-2.24339">
        <ele>68.1</ele>
        <time>2021-05-27T13:52:38Z</time>
      </trkpt>
      <trkpt lat="47.6952" lon="-2.24343">
        <ele>68.1</ele>
        <time>2021-05-27T13:52:39Z</time>
      </trkpt>
      <trkpt lat="47.69521" lon="-2.24346">
        <ele>68.1</ele>
        <time>2021-05-27T13:52:40Z</time>
      </trkpt>
      <trkpt lat="47.69523" lon="-2.2435">
        <ele>68</ele>
        <time>2021-05-27T13:52:41Z</time>
      </trkpt>
      <trkpt lat="47.69525" lon="-2.24354">
        <ele>68</ele>
        <time>2021-05-27T13:52:42Z</time>
      </trkpt>
      <trkpt lat="47.69526" lon="-2.24359">
        <ele>67.9</ele>
        <time>2021-05-27T13:52:43Z</time>
      </trkpt>
      <trkpt lat="47.69526" lon="-2.24364">
        <ele>67.8</ele>
        <time>2021-05-27T13:52:44Z</time>
      </trkpt>
      <trkpt lat="47.69524" lon="-2.24368">
        <ele>67.8</ele>
        <time>2021-05-27T13:52:45Z</time>
      </trkpt>
      <trkpt lat="47.69523" lon="-2.24372">
        <ele>67.7</ele>
        <time>2021-05-27T13:52:46Z</time>
      </trkpt>
      <trkpt lat="47.69524" lon="-2.24377">
        <ele>67.6</ele>
        <time>2021-05-27T13:52:47Z</time>
      </trkpt>
      <trkpt lat="47.69524" lon="-2.24381">
        <ele>67.5</ele>
        <time>2021-05-27T13:52:48Z</time>
      </trkpt>
      <trkpt lat="47.69523" lon="-2.24385">
        <ele>67.5</ele>
        <time>2021-05-27T13:52:49Z</time>
      </trkpt>
      <trkpt lat="47.69521" lon="-2.24389">
        <ele>67.4</ele>
        <time>2021-05-27T13:52:50Z</time>
      </trkpt>
      <trkpt lat="47.6952" lon="-2.24393">
        <ele>67.4</ele>
        <time>2021-05-27T13:52:51Z</time>
      </trkpt>
      <trkpt lat="47.6952" lon="-2.24397">
        <ele>67.3</ele>
        <time>2021-05-27T13:52:52Z</time>
      </trkpt>
      <trkpt lat="47.69521" lon="-2.24402">
        <ele>67.2</ele>
        <time>2021-05-27T13:52:53Z</time>
      </trkpt>
      <trkpt lat="47.69522" lon="-2.24406">
        <ele>67.2</ele>
        <time>2021-05-27T13:52:54Z</time>
      </trkpt>
      <trkpt lat="47.69523" lon="-2.24411">
        <ele>67.1</ele>
        <time>2021-05-27T13:52:55Z</time>
      </trkpt>
      <trkpt lat="47.69523" lon="-2.24416">
        <ele>67</ele>
        <time>2021-05-27T13:52:56Z</time>
      </trkpt>
      <trkpt lat="47.69522" lon="-2.24421">
        <ele>67</ele>
        <time>2021-05-27T13:52:57Z</time>
      </trkpt>
      <trkpt lat="47.69523" lon="-2.24428">
        <ele>67</ele>
        <time>2021-05-27T13:52:58Z</time>
      </trkpt>
      <trkpt lat="47.69524" lon="-2.24433">
        <ele>67.1</ele>
        <time>2021-05-27T13:52:59Z</time>
      </trkpt>
      <trkpt lat="47.69524" lon="-2.24438">
        <ele>67.1</ele>
        <time>2021-05-27T13:53:00Z</time>
      </trkpt>
      <trkpt lat="47.69526" lon="-2.24442">
        <ele>67.1</ele>
        <time>2021-05-27T13:53:01Z</time>
      </trkpt>
      <trkpt lat="47.69527" lon="-2.24445">
        <ele>67.1</ele>
        <time>2021-05-27T13:53:02Z</time>
      </trkpt>
      <trkpt lat="47.69527" lon="-2.2445">
        <ele>67.1</ele>
        <time>2021-05-27T13:53:03Z</time>
      </trkpt>
      <trkpt lat="47.69527" lon="-2.24454">
        <ele>67.1</ele>
        <time>2021-05-27T13:53:04Z</time>
      </trkpt>
      <trkpt lat="47.69526" lon="-2.24458">
        <ele>67.2</ele>
        <time>2021-05-27T13:53:05Z</time>
      </trkpt>
      <trkpt lat="47.69524" lon="-2.24462">
        <ele>67.2</ele>
        <time>2021-05-27T13:53:06Z</time>
      </trkpt>
      <trkpt lat="47.69523" lon="-2.24467">
        <ele>67.2</ele>
        <time>2021-05-27T13:53:07Z</time>
      </trkpt>
      <trkpt lat="47.69522" lon="-2.24472">
        <ele>67.2</ele>
        <time>2021-05-27T13:53:08Z</time>
      </trkpt>
      <trkpt lat="47.6952" lon="-2.24478">
        <ele>67.2</ele>
        <time>2021-05-27T13:53:09Z</time>
      </trkpt>
      <trkpt lat="47.69518" lon="-2.24482">
        <ele>67.2</ele>
        <time>2021-05-27T13:53:10Z</time>
      </trkpt>
      <trkpt lat="47.69517" lon="-2.24487">
        <ele>67.2</ele>
        <time>2021-05-27T13:53:11Z</time>
      </trkpt>
      <trkpt lat="47.69515" lon="-2.24492">
        <ele>67.2</ele>
        <time>2021-05-27T13:53:12Z</time>
      </trkpt>
      <trkpt lat="47.69515" lon="-2.24497">
        <ele>67.2</ele>
        <time>2021-05-27T13:53:13Z</time>
      </trkpt>
      <trkpt lat="47.69516" lon="-2.24501">
        <ele>67.2</ele>
        <time>2021-05-27T13:53:14Z</time>
      </trkpt>
      <trkpt lat="47.69518" lon="-2.24504">
        <ele>67.2</ele>
        <time>2021-05-27T13:53:15Z</time>
      </trkpt>
      <trkpt lat="47.6952" lon="-2.24506">
        <ele>67.2</ele>
        <time>2021-05-27T13:53:16Z</time>
      </trkpt>
      <trkpt lat="47.69522" lon="-2.24507">
        <ele>67.2</ele>
        <time>2021-05-27T13:53:17Z</time>
      </trkpt>
      <trkpt lat="47.69524" lon="-2.2451">
        <ele>67.2</ele>
        <time>2021-05-27T13:53:18Z</time>
      </trkpt>
      <trkpt lat="47.69526" lon="-2.24513">
        <ele>67.2</ele>
        <time>2021-05-27T13:53:19Z</time>
      </trkpt>
      <trkpt lat="47.69527" lon="-2.24516">
        <ele>67.2</ele>
        <time>2021-05-27T13:53:20Z</time>
      </trkpt>
      <trkpt lat="47.69528" lon="-2.2452">
        <ele>67.2</ele>
        <time>2021-05-27T13:53:21Z</time>
      </trkpt>
      <trkpt lat="47.69529" lon="-2.24525">
        <ele>67.2</ele>
        <time>2021-05-27T13:53:22Z</time>
      </trkpt>
      <trkpt lat="47.69531" lon="-2.2453">
        <ele>67.1</ele>
        <time>2021-05-27T13:53:23Z</time>
      </trkpt>
      <trkpt lat="47.69532" lon="-2.24536">
        <ele>67.1</ele>
        <time>2021-05-27T13:53:24Z</time>
      </trkpt>
      <trkpt lat="47.69534" lon="-2.2454">
        <ele>67.1</ele>
        <time>2021-05-27T13:53:25Z</time>
      </trkpt>
      <trkpt lat="47.69536" lon="-2.24544">
        <ele>67.1</ele>
        <time>2021-05-27T13:53:26Z</time>
      </trkpt>
      <trkpt lat="47.69538" lon="-2.24546">
        <ele>67.2</ele>
        <time>2021-05-27T13:53:27Z</time>
      </trkpt>
      <trkpt lat="47.6954" lon="-2.24548">
        <ele>67.2</ele>
        <time>2021-05-27T13:53:28Z</time>
      </trkpt>
      <trkpt lat="47.69542" lon="-2.24552">
        <ele>67.2</ele>
        <time>2021-05-27T13:53:29Z</time>
      </trkpt>
      <trkpt lat="47.69543" lon="-2.24555">
        <ele>67.2</ele>
        <time>2021-05-27T13:53:30Z</time>
      </trkpt>
      <trkpt lat="47.69544" lon="-2.24559">
        <ele>67.2</ele>
        <time>2021-05-27T13:53:31Z</time>
      </trkpt>
      <trkpt lat="47.69544" lon="-2.24562">
        <ele>67.2</ele>
        <time>2021-05-27T13:53:32Z</time>
      </trkpt>
      <trkpt lat="47.69544" lon="-2.24566">
        <ele>67.1</ele>
        <time>2021-05-27T13:53:33Z</time>
      </trkpt>
      <trkpt lat="47.69543" lon="-2.24571">
        <ele>67.1</ele>
        <time>2021-05-27T13:53:34Z</time>
      </trkpt>
      <trkpt lat="47.69542" lon="-2.24576">
        <ele>67.1</ele>
        <time>2021-05-27T13:53:35Z</time>
      </trkpt>
      <trkpt lat="47.69541" lon="-2.24581">
        <ele>67</ele>
        <time>2021-05-27T13:53:36Z</time>
      </trkpt>
      <trkpt lat="47.69542" lon="-2.24586">
        <ele>66.9</ele>
        <time>2021-05-27T13:53:37Z</time>
      </trkpt>
      <trkpt lat="47.69543" lon="-2.24592">
        <ele>66.9</ele>
        <time>2021-05-27T13:53:38Z</time>
      </trkpt>
      <trkpt lat="47.69544" lon="-2.24597">
        <ele>66.8</ele>
        <time>2021-05-27T13:53:39Z</time>
      </trkpt>
      <trkpt lat="47.69545" lon="-2.24601">
        <ele>66.8</ele>
        <time>2021-05-27T13:53:40Z</time>
      </trkpt>
      <trkpt lat="47.69545" lon="-2.24605">
        <ele>66.7</ele>
        <time>2021-05-27T13:53:41Z</time>
      </trkpt>
      <trkpt lat="47.69544" lon="-2.24608">
        <ele>66.6</ele>
        <time>2021-05-27T13:53:42Z</time>
      </trkpt>
      <trkpt lat="47.69543" lon="-2.2461">
        <ele>66.6</ele>
        <time>2021-05-27T13:53:43Z</time>
      </trkpt>
      <trkpt lat="47.69543" lon="-2.24613">
        <ele>66.5</ele>
        <time>2021-05-27T13:53:44Z</time>
      </trkpt>
      <trkpt lat="47.69543" lon="-2.24616">
        <ele>66.5</ele>
        <time>2021-05-27T13:53:45Z</time>
      </trkpt>
      <trkpt lat="47.69544" lon="-2.2462">
        <ele>66.4</ele>
        <time>2021-05-27T13:53:46Z</time>
      </trkpt>
      <trkpt lat="47.69545" lon="-2.24625">
        <ele>66.4</ele>
        <time>2021-05-27T13:53:47Z</time>
      </trkpt>
      <trkpt lat="47.69546" lon="-2.24628">
        <ele>66.3</ele>
        <time>2021-05-27T13:53:48Z</time>
      </trkpt>
      <trkpt lat="47.69548" lon="-2.24632">
        <ele>66.3</ele>
        <time>2021-05-27T13:53:49Z</time>
      </trkpt>
      <trkpt lat="47.69549" lon="-2.24636">
        <ele>66.3</ele>
        <time>2021-05-27T13:53:50Z</time>
      </trkpt>
      <trkpt lat="47.69548" lon="-2.24641">
        <ele>66.2</ele>
        <time>2021-05-27T13:53:51Z</time>
      </trkpt>
      <trkpt lat="47.69547" lon="-2.24645">
        <ele>66.1</ele>
        <time>2021-05-27T13:53:52Z</time>
      </trkpt>
      <trkpt lat="47.69547" lon="-2.2465">
        <ele>66</ele>
        <time>2021-05-27T13:53:53Z</time>
      </trkpt>
      <trkpt lat="47.69546" lon="-2.24655">
        <ele>65.9</ele>
        <time>2021-05-27T13:53:54Z</time>
      </trkpt>
      <trkpt lat="47.69545" lon="-2.24659">
        <ele>65.8</ele>
        <time>2021-05-27T13:53:55Z</time>
      </trkpt>
      <trkpt lat="47.69544" lon="-2.24664">
        <ele>65.6</ele>
        <time>2021-05-27T13:53:56Z</time>
      </trkpt>
      <trkpt lat="47.69542" lon="-2.24669">
        <ele>65.5</ele>
        <time>2021-05-27T13:53:57Z</time>
      </trkpt>
      <trkpt lat="47.6954" lon="-2.24673">
        <ele>65.5</ele>
        <time>2021-05-27T13:53:58Z</time>
      </trkpt>
      <trkpt lat="47.69539" lon="-2.24677">
        <ele>65.5</ele>
        <time>2021-05-27T13:53:59Z</time>
      </trkpt>
      <trkpt lat="47.69539" lon="-2.24681">
        <ele>65.5</ele>
        <time>2021-05-27T13:54:00Z</time>
      </trkpt>
      <trkpt lat="47.6954" lon="-2.24685">
        <ele>65.5</ele>
        <time>2021-05-27T13:54:01Z</time>
      </trkpt>
      <trkpt lat="47.69539" lon="-2.2469">
        <ele>65.5</ele>
        <time>2021-05-27T13:54:02Z</time>
      </trkpt>
      <trkpt lat="47.69538" lon="-2.24694">
        <ele>65.5</ele>
        <time>2021-05-27T13:54:03Z</time>
      </trkpt>
      <trkpt lat="47.69537" lon="-2.24698">
        <ele>65.5</ele>
        <time>2021-05-27T13:54:04Z</time>
      </trkpt>
      <trkpt lat="47.69536" lon="-2.24703">
        <ele>65.5</ele>
        <time>2021-05-27T13:54:05Z</time>
      </trkpt>
      <trkpt lat="47.69537" lon="-2.24708">
        <ele>65.5</ele>
        <time>2021-05-27T13:54:06Z</time>
      </trkpt>
      <trkpt lat="47.69539" lon="-2.24714">
        <ele>65.6</ele>
        <time>2021-05-27T13:54:07Z</time>
      </trkpt>
      <trkpt lat="47.6954" lon="-2.2472">
        <ele>65.7</ele>
        <time>2021-05-27T13:54:08Z</time>
      </trkpt>
      <trkpt lat="47.69542" lon="-2.24727">
        <ele>65.9</ele>
        <time>2021-05-27T13:54:09Z</time>
      </trkpt>
      <trkpt lat="47.69542" lon="-2.24733">
        <ele>65.9</ele>
        <time>2021-05-27T13:54:10Z</time>
      </trkpt>
      <trkpt lat="47.69542" lon="-2.24736">
        <ele>65.9</ele>
        <time>2021-05-27T13:54:11Z</time>
      </trkpt>
      <trkpt lat="47.6954" lon="-2.24737">
        <ele>65.8</ele>
        <time>2021-05-27T13:54:12Z</time>
      </trkpt>
      <trkpt lat="47.69537" lon="-2.24736">
        <ele>65.6</ele>
        <time>2021-05-27T13:54:13Z</time>
      </trkpt>
      <trkpt lat="47.69535" lon="-2.24735">
        <ele>65.5</ele>
        <time>2021-05-27T13:54:14Z</time>
      </trkpt>
      <trkpt lat="47.69532" lon="-2.24736">
        <ele>65.3</ele>
        <time>2021-05-27T13:54:15Z</time>
      </trkpt>
      <trkpt lat="47.6953" lon="-2.24737">
        <ele>65.1</ele>
        <time>2021-05-27T13:54:16Z</time>
      </trkpt>
      <trkpt lat="47.69527" lon="-2.24737">
        <ele>65</ele>
        <time>2021-05-27T13:54:17Z</time>
      </trkpt>
      <trkpt lat="47.69525" lon="-2.24737">
        <ele>64.8</ele>
        <time>2021-05-27T13:54:18Z</time>
      </trkpt>
      <trkpt lat="47.69523" lon="-2.24738">
        <ele>64.7</ele>
        <time>2021-05-27T13:54:19Z</time>
      </trkpt>
      <trkpt lat="47.69523" lon="-2.24741">
        <ele>64.6</ele>
        <time>2021-05-27T13:54:20Z</time>
      </trkpt>
      <trkpt lat="47.69522" lon="-2.24745">
        <ele>64.6</ele>
        <time>2021-05-27T13:54:21Z</time>
      </trkpt>
      <trkpt lat="47.69522" lon="-2.2475">
        <ele>64.6</ele>
        <time>2021-05-27T13:54:22Z</time>
      </trkpt>
      <trkpt lat="47.69522" lon="-2.24754">
        <ele>64.6</ele>
        <time>2021-05-27T13:54:23Z</time>
      </trkpt>
      <trkpt lat="47.69522" lon="-2.24758">
        <ele>64.5</ele>
        <time>2021-05-27T13:54:24Z</time>
      </trkpt>
      <trkpt lat="47.69521" lon="-2.24763">
        <ele>64.5</ele>
        <time>2021-05-27T13:54:25Z</time>
      </trkpt>
      <trkpt lat="47.69521" lon="-2.24767">
        <ele>64.4</ele>
        <time>2021-05-27T13:54:26Z</time>
      </trkpt>
      <trkpt lat="47.6952" lon="-2.24772">
        <ele>64.3</ele>
        <time>2021-05-27T13:54:27Z</time>
      </trkpt>
      <trkpt lat="47.6952" lon="-2.24777">
        <ele>64.2</ele>
        <time>2021-05-27T13:54:28Z</time>
      </trkpt>
      <trkpt lat="47.69521" lon="-2.24782">
        <ele>64.3</ele>
        <time>2021-05-27T13:54:29Z</time>
      </trkpt>
      <trkpt lat="47.69523" lon="-2.24786">
        <ele>64.5</ele>
        <time>2021-05-27T13:54:30Z</time>
      </trkpt>
      <trkpt lat="47.69525" lon="-2.2479">
        <ele>64.6</ele>
        <time>2021-05-27T13:54:31Z</time>
      </trkpt>
      <trkpt lat="47.69527" lon="-2.24794">
        <ele>64.7</ele>
        <time>2021-05-27T13:54:32Z</time>
      </trkpt>
      <trkpt lat="47.69528" lon="-2.24798">
        <ele>64.8</ele>
        <time>2021-05-27T13:54:33Z</time>
      </trkpt>
      <trkpt lat="47.69529" lon="-2.24801">
        <ele>64.9</ele>
        <time>2021-05-27T13:54:34Z</time>
      </trkpt>
      <trkpt lat="47.69531" lon="-2.24805">
        <ele>65.1</ele>
        <time>2021-05-27T13:54:35Z</time>
      </trkpt>
      <trkpt lat="47.69533" lon="-2.24808">
        <ele>65.2</ele>
        <time>2021-05-27T13:54:36Z</time>
      </trkpt>
      <trkpt lat="47.69535" lon="-2.2481">
        <ele>65.4</ele>
        <time>2021-05-27T13:54:37Z</time>
      </trkpt>
      <trkpt lat="47.69538" lon="-2.24812">
        <ele>65.6</ele>
        <time>2021-05-27T13:54:38Z</time>
      </trkpt>
      <trkpt lat="47.69539" lon="-2.24814">
        <ele>65.8</ele>
        <time>2021-05-27T13:54:39Z</time>
      </trkpt>
      <trkpt lat="47.69539" lon="-2.24819">
        <ele>65.8</ele>
        <time>2021-05-27T13:54:40Z</time>
      </trkpt>
      <trkpt lat="47.69539" lon="-2.24822">
        <ele>65.8</ele>
        <time>2021-05-27T13:54:41Z</time>
      </trkpt>
      <trkpt lat="47.6954" lon="-2.24826">
        <ele>65.8</ele>
        <time>2021-05-27T13:54:42Z</time>
      </trkpt>
      <trkpt lat="47.69541" lon="-2.24829">
        <ele>66</ele>
        <time>2021-05-27T13:54:43Z</time>
      </trkpt>
      <trkpt lat="47.69542" lon="-2.24832">
        <ele>66.1</ele>
        <time>2021-05-27T13:54:44Z</time>
      </trkpt>
      <trkpt lat="47.69543" lon="-2.24836">
        <ele>66.1</ele>
        <time>2021-05-27T13:54:45Z</time>
      </trkpt>
      <trkpt lat="47.69543" lon="-2.2484">
        <ele>66.1</ele>
        <time>2021-05-27T13:54:46Z</time>
      </trkpt>
      <trkpt lat="47.69543" lon="-2.24844">
        <ele>66.1</ele>
        <time>2021-05-27T13:54:47Z</time>
      </trkpt>
      <trkpt lat="47.69543" lon="-2.24849">
        <ele>66.1</ele>
        <time>2021-05-27T13:54:48Z</time>
      </trkpt>
      <trkpt lat="47.69542" lon="-2.24853">
        <ele>66</ele>
        <time>2021-05-27T13:54:49Z</time>
      </trkpt>
      <trkpt lat="47.6954" lon="-2.24856">
        <ele>65.9</ele>
        <time>2021-05-27T13:54:50Z</time>
      </trkpt>
      <trkpt lat="47.6954" lon="-2.24859">
        <ele>65.8</ele>
        <time>2021-05-27T13:54:51Z</time>
      </trkpt>
      <trkpt lat="47.6954" lon="-2.24861">
        <ele>65.8</ele>
        <time>2021-05-27T13:54:52Z</time>
      </trkpt>
      <trkpt lat="47.6954" lon="-2.24862">
        <ele>65.9</ele>
        <time>2021-05-27T13:54:53Z</time>
      </trkpt>
      <trkpt lat="47.69541" lon="-2.24862">
        <ele>65.9</ele>
        <time>2021-05-27T13:54:54Z</time>
      </trkpt>
      <trkpt lat="47.69541" lon="-2.24862">
        <ele>65.9</ele>
        <time>2021-05-27T13:54:55Z</time>
      </trkpt>
      <trkpt lat="47.69541" lon="-2.24862">
        <ele>65.9</ele>
        <time>2021-05-27T13:54:56Z</time>
      </trkpt>
      <trkpt lat="47.69541" lon="-2.24862">
        <ele>65.9</ele>
        <time>2021-05-27T13:54:57Z</time>
      </trkpt>
      <trkpt lat="47.69541" lon="-2.24862">
        <ele>65.9</ele>
        <time>2021-05-27T13:54:58Z</time>
      </trkpt>
      <trkpt lat="47.69541" lon="-2.24862">
        <ele>65.9</ele>
        <time>2021-05-27T13:54:59Z</time>
      </trkpt>
      <trkpt lat="47.69542" lon="-2.24867">
        <ele>66</ele>
        <time>2021-05-27T13:55:00Z</time>
      </trkpt>
      <trkpt lat="47.69543" lon="-2.2487">
        <ele>66.1</ele>
        <time>2021-05-27T13:55:01Z</time>
      </trkpt>
      <trkpt lat="47.69544" lon="-2.24873">
        <ele>66.2</ele>
        <time>2021-05-27T13:55:02Z</time>
      </trkpt>
      <trkpt lat="47.69545" lon="-2.24876">
        <ele>66.3</ele>
        <time>2021-05-27T13:55:03Z</time>
      </trkpt>
      <trkpt lat="47.69546" lon="-2.24879">
        <ele>66.3</ele>
        <time>2021-05-27T13:55:04Z</time>
      </trkpt>
      <trkpt lat="47.69545" lon="-2.24881">
        <ele>66.3</ele>
        <time>2021-05-27T13:55:05Z</time>
      </trkpt>
      <trkpt lat="47.69544" lon="-2.24884">
        <ele>66.2</ele>
        <time>2021-05-27T13:55:06Z</time>
      </trkpt>
      <trkpt lat="47.69545" lon="-2.24888">
        <ele>66.2</ele>
        <time>2021-05-27T13:55:07Z</time>
      </trkpt>
      <trkpt lat="47.69545" lon="-2.24891">
        <ele>66.3</ele>
        <time>2021-05-27T13:55:08Z</time>
      </trkpt>
      <trkpt lat="47.69546" lon="-2.24895">
        <ele>66.3</ele>
        <time>2021-05-27T13:55:09Z</time>
      </trkpt>
      <trkpt lat="47.69546" lon="-2.24898">
        <ele>66.3</ele>
        <time>2021-05-27T13:55:10Z</time>
      </trkpt>
      <trkpt lat="47.69546" lon="-2.24903">
        <ele>66.3</ele>
        <time>2021-05-27T13:55:11Z</time>
      </trkpt>
      <trkpt lat="47.69547" lon="-2.24908">
        <ele>66.4</ele>
        <time>2021-05-27T13:55:12Z</time>
      </trkpt>
      <trkpt lat="47.69549" lon="-2.24912">
        <ele>66.6</ele>
        <time>2021-05-27T13:55:13Z</time>
      </trkpt>
      <trkpt lat="47.69552" lon="-2.24916">
        <ele>66.8</ele>
        <time>2021-05-27T13:55:14Z</time>
      </trkpt>
      <trkpt lat="47.69554" lon="-2.2492">
        <ele>66.8</ele>
        <time>2021-05-27T13:55:15Z</time>
      </trkpt>
      <trkpt lat="47.69555" lon="-2.24923">
        <ele>66.8</ele>
        <time>2021-05-27T13:55:16Z</time>
      </trkpt>
      <trkpt lat="47.69556" lon="-2.24927">
        <ele>66.7</ele>
        <time>2021-05-27T13:55:17Z</time>
      </trkpt>
      <trkpt lat="47.69556" lon="-2.24931">
        <ele>66.5</ele>
        <time>2021-05-27T13:55:18Z</time>
      </trkpt>
      <trkpt lat="47.69556" lon="-2.24935">
        <ele>66.4</ele>
        <time>2021-05-27T13:55:19Z</time>
      </trkpt>
      <trkpt lat="47.69556" lon="-2.24938">
        <ele>66.4</ele>
        <time>2021-05-27T13:55:20Z</time>
      </trkpt>
      <trkpt lat="47.69557" lon="-2.24942">
        <ele>66.3</ele>
        <time>2021-05-27T13:55:21Z</time>
      </trkpt>
      <trkpt lat="47.69558" lon="-2.24946">
        <ele>66.2</ele>
        <time>2021-05-27T13:55:22Z</time>
      </trkpt>
      <trkpt lat="47.69558" lon="-2.24951">
        <ele>66</ele>
        <time>2021-05-27T13:55:23Z</time>
      </trkpt>
      <trkpt lat="47.69558" lon="-2.24957">
        <ele>65.9</ele>
        <time>2021-05-27T13:55:24Z</time>
      </trkpt>
      <trkpt lat="47.69559" lon="-2.24963">
        <ele>65.7</ele>
        <time>2021-05-27T13:55:25Z</time>
      </trkpt>
      <trkpt lat="47.6956" lon="-2.24969">
        <ele>65.6</ele>
        <time>2021-05-27T13:55:26Z</time>
      </trkpt>
      <trkpt lat="47.69561" lon="-2.24976">
        <ele>65.5</ele>
        <time>2021-05-27T13:55:27Z</time>
      </trkpt>
      <trkpt lat="47.69561" lon="-2.24982">
        <ele>65.3</ele>
        <time>2021-05-27T13:55:28Z</time>
      </trkpt>
      <trkpt lat="47.69562" lon="-2.24988">
        <ele>65.1</ele>
        <time>2021-05-27T13:55:29Z</time>
      </trkpt>
      <trkpt lat="47.69561" lon="-2.24993">
        <ele>64.9</ele>
        <time>2021-05-27T13:55:30Z</time>
      </trkpt>
      <trkpt lat="47.69559" lon="-2.24999">
        <ele>64.6</ele>
        <time>2021-05-27T13:55:31Z</time>
      </trkpt>
      <trkpt lat="47.69558" lon="-2.25004">
        <ele>64.5</ele>
        <time>2021-05-27T13:55:32Z</time>
      </trkpt>
      <trkpt lat="47.69555" lon="-2.25009">
        <ele>64.3</ele>
        <time>2021-05-27T13:55:33Z</time>
      </trkpt>
      <trkpt lat="47.69553" lon="-2.25015">
        <ele>64.1</ele>
        <time>2021-05-27T13:55:34Z</time>
      </trkpt>
      <trkpt lat="47.6955" lon="-2.2502">
        <ele>63.9</ele>
        <time>2021-05-27T13:55:35Z</time>
      </trkpt>
      <trkpt lat="47.69548" lon="-2.25026">
        <ele>63.7</ele>
        <time>2021-05-27T13:55:36Z</time>
      </trkpt>
      <trkpt lat="47.69547" lon="-2.25032">
        <ele>63.6</ele>
        <time>2021-05-27T13:55:37Z</time>
      </trkpt>
      <trkpt lat="47.69548" lon="-2.25037">
        <ele>63.6</ele>
        <time>2021-05-27T13:55:38Z</time>
      </trkpt>
      <trkpt lat="47.6955" lon="-2.25041">
        <ele>63.7</ele>
        <time>2021-05-27T13:55:39Z</time>
      </trkpt>
      <trkpt lat="47.69553" lon="-2.25045">
        <ele>63.9</ele>
        <time>2021-05-27T13:55:40Z</time>
      </trkpt>
      <trkpt lat="47.69555" lon="-2.25049">
        <ele>64.1</ele>
        <time>2021-05-27T13:55:41Z</time>
      </trkpt>
      <trkpt lat="47.69557" lon="-2.25052">
        <ele>64.2</ele>
        <time>2021-05-27T13:55:42Z</time>
      </trkpt>
      <trkpt lat="47.69558" lon="-2.25055">
        <ele>64.4</ele>
        <time>2021-05-27T13:55:43Z</time>
      </trkpt>
      <trkpt lat="47.69559" lon="-2.25058">
        <ele>64.4</ele>
        <time>2021-05-27T13:55:44Z</time>
      </trkpt>
      <trkpt lat="47.69559" lon="-2.25061">
        <ele>64.4</ele>
        <time>2021-05-27T13:55:45Z</time>
      </trkpt>
      <trkpt lat="47.69559" lon="-2.25065">
        <ele>64.4</ele>
        <time>2021-05-27T13:55:46Z</time>
      </trkpt>
      <trkpt lat="47.69559" lon="-2.25069">
        <ele>64.4</ele>
        <time>2021-05-27T13:55:47Z</time>
      </trkpt>
      <trkpt lat="47.69558" lon="-2.25071">
        <ele>64.3</ele>
        <time>2021-05-27T13:55:48Z</time>
      </trkpt>
      <trkpt lat="47.69557" lon="-2.25071">
        <ele>64.2</ele>
        <time>2021-05-27T13:55:49Z</time>
      </trkpt>
      <trkpt lat="47.69554" lon="-2.2507">
        <ele>63.9</ele>
        <time>2021-05-27T13:55:50Z</time>
      </trkpt>
      <trkpt lat="47.69551" lon="-2.25069">
        <ele>63.6</ele>
        <time>2021-05-27T13:55:51Z</time>
      </trkpt>
      <trkpt lat="47.69548" lon="-2.25068">
        <ele>63.3</ele>
        <time>2021-05-27T13:55:52Z</time>
      </trkpt>
      <trkpt lat="47.69546" lon="-2.25069">
        <ele>63.1</ele>
        <time>2021-05-27T13:55:53Z</time>
      </trkpt>
      <trkpt lat="47.69544" lon="-2.25072">
        <ele>62.9</ele>
        <time>2021-05-27T13:55:54Z</time>
      </trkpt>
      <trkpt lat="47.69542" lon="-2.25074">
        <ele>62.7</ele>
        <time>2021-05-27T13:55:55Z</time>
      </trkpt>
      <trkpt lat="47.6954" lon="-2.25077">
        <ele>62.4</ele>
        <time>2021-05-27T13:55:56Z</time>
      </trkpt>
      <trkpt lat="47.69539" lon="-2.25081">
        <ele>62.2</ele>
        <time>2021-05-27T13:55:57Z</time>
      </trkpt>
      <trkpt lat="47.69538" lon="-2.25084">
        <ele>62.1</ele>
        <time>2021-05-27T13:55:58Z</time>
      </trkpt>
      <trkpt lat="47.69537" lon="-2.25088">
        <ele>61.9</ele>
        <time>2021-05-27T13:55:59Z</time>
      </trkpt>
      <trkpt lat="47.69536" lon="-2.25091">
        <ele>61.6</ele>
        <time>2021-05-27T13:56:00Z</time>
      </trkpt>
      <trkpt lat="47.69534" lon="-2.25095">
        <ele>61.4</ele>
        <time>2021-05-27T13:56:01Z</time>
      </trkpt>
      <trkpt lat="47.69535" lon="-2.25101">
        <ele>61.3</ele>
        <time>2021-05-27T13:56:02Z</time>
      </trkpt>
      <trkpt lat="47.69536" lon="-2.25105">
        <ele>61.3</ele>
        <time>2021-05-27T13:56:03Z</time>
      </trkpt>
      <trkpt lat="47.69538" lon="-2.2511">
        <ele>61.3</ele>
        <time>2021-05-27T13:56:04Z</time>
      </trkpt>
      <trkpt lat="47.6954" lon="-2.25114">
        <ele>61.5</ele>
        <time>2021-05-27T13:56:05Z</time>
      </trkpt>
      <trkpt lat="47.69543" lon="-2.25116">
        <ele>61.7</ele>
        <time>2021-05-27T13:56:06Z</time>
      </trkpt>
      <trkpt lat="47.69546" lon="-2.25118">
        <ele>61.9</ele>
        <time>2021-05-27T13:56:07Z</time>
      </trkpt>
      <trkpt lat="47.69548" lon="-2.25121">
        <ele>62</ele>
        <time>2021-05-27T13:56:08Z</time>
      </trkpt>
      <trkpt lat="47.6955" lon="-2.25124">
        <ele>62.2</ele>
        <time>2021-05-27T13:56:09Z</time>
      </trkpt>
      <trkpt lat="47.69553" lon="-2.25128">
        <ele>62.3</ele>
        <time>2021-05-27T13:56:10Z</time>
      </trkpt>
      <trkpt lat="47.69556" lon="-2.25131">
        <ele>62.5</ele>
        <time>2021-05-27T13:56:11Z</time>
      </trkpt>
      <trkpt lat="47.69559" lon="-2.25134">
        <ele>62.7</ele>
        <time>2021-05-27T13:56:12Z</time>
      </trkpt>
      <trkpt lat="47.69562" lon="-2.25137">
        <ele>62.9</ele>
        <time>2021-05-27T13:56:13Z</time>
      </trkpt>
      <trkpt lat="47.69566" lon="-2.25138">
        <ele>63.3</ele>
        <time>2021-05-27T13:56:14Z</time>
      </trkpt>
      <trkpt lat="47.69569" lon="-2.25138">
        <ele>63.6</ele>
        <time>2021-05-27T13:56:15Z</time>
      </trkpt>
      <trkpt lat="47.69573" lon="-2.2514">
        <ele>63.9</ele>
        <time>2021-05-27T13:56:16Z</time>
      </trkpt>
      <trkpt lat="47.69576" lon="-2.25143">
        <ele>64.1</ele>
        <time>2021-05-27T13:56:17Z</time>
      </trkpt>
      <trkpt lat="47.69579" lon="-2.25146">
        <ele>64.3</ele>
        <time>2021-05-27T13:56:18Z</time>
      </trkpt>
      <trkpt lat="47.69582" lon="-2.25148">
        <ele>64.5</ele>
        <time>2021-05-27T13:56:19Z</time>
      </trkpt>
      <trkpt lat="47.69584" lon="-2.25151">
        <ele>64.6</ele>
        <time>2021-05-27T13:56:20Z</time>
      </trkpt>
      <trkpt lat="47.69587" lon="-2.25154">
        <ele>64.6</ele>
        <time>2021-05-27T13:56:21Z</time>
      </trkpt>
      <trkpt lat="47.6959" lon="-2.25154">
        <ele>64.7</ele>
        <time>2021-05-27T13:56:22Z</time>
      </trkpt>
      <trkpt lat="47.69593" lon="-2.25155">
        <ele>64.7</ele>
        <time>2021-05-27T13:56:23Z</time>
      </trkpt>
      <trkpt lat="47.69595" lon="-2.25158">
        <ele>64.7</ele>
        <time>2021-05-27T13:56:24Z</time>
      </trkpt>
      <trkpt lat="47.69596" lon="-2.25161">
        <ele>64.7</ele>
        <time>2021-05-27T13:56:25Z</time>
      </trkpt>
      <trkpt lat="47.69598" lon="-2.25165">
        <ele>64.6</ele>
        <time>2021-05-27T13:56:26Z</time>
      </trkpt>
      <trkpt lat="47.69599" lon="-2.2517">
        <ele>64.4</ele>
        <time>2021-05-27T13:56:27Z</time>
      </trkpt>
      <trkpt lat="47.69599" lon="-2.25174">
        <ele>64.2</ele>
        <time>2021-05-27T13:56:28Z</time>
      </trkpt>
      <trkpt lat="47.696" lon="-2.25177">
        <ele>64.1</ele>
        <time>2021-05-27T13:56:29Z</time>
      </trkpt>
      <trkpt lat="47.69601" lon="-2.25181">
        <ele>64</ele>
        <time>2021-05-27T13:56:30Z</time>
      </trkpt>
      <trkpt lat="47.69603" lon="-2.25184">
        <ele>64</ele>
        <time>2021-05-27T13:56:31Z</time>
      </trkpt>
      <trkpt lat="47.69606" lon="-2.25188">
        <ele>63.9</ele>
        <time>2021-05-27T13:56:32Z</time>
      </trkpt>
      <trkpt lat="47.69607" lon="-2.25193">
        <ele>63.8</ele>
        <time>2021-05-27T13:56:33Z</time>
      </trkpt>
      <trkpt lat="47.69609" lon="-2.25197">
        <ele>63.7</ele>
        <time>2021-05-27T13:56:34Z</time>
      </trkpt>
      <trkpt lat="47.69609" lon="-2.25201">
        <ele>63.5</ele>
        <time>2021-05-27T13:56:35Z</time>
      </trkpt>
      <trkpt lat="47.69609" lon="-2.25206">
        <ele>63.3</ele>
        <time>2021-05-27T13:56:36Z</time>
      </trkpt>
      <trkpt lat="47.69608" lon="-2.2521">
        <ele>63.1</ele>
        <time>2021-05-27T13:56:37Z</time>
      </trkpt>
      <trkpt lat="47.69605" lon="-2.25214">
        <ele>62.8</ele>
        <time>2021-05-27T13:56:38Z</time>
      </trkpt>
      <trkpt lat="47.69603" lon="-2.25219">
        <ele>62.5</ele>
        <time>2021-05-27T13:56:39Z</time>
      </trkpt>
      <trkpt lat="47.69602" lon="-2.25224">
        <ele>62.2</ele>
        <time>2021-05-27T13:56:40Z</time>
      </trkpt>
      <trkpt lat="47.69602" lon="-2.25229">
        <ele>62</ele>
        <time>2021-05-27T13:56:41Z</time>
      </trkpt>
      <trkpt lat="47.69603" lon="-2.25233">
        <ele>61.9</ele>
        <time>2021-05-27T13:56:42Z</time>
      </trkpt>
      <trkpt lat="47.69603" lon="-2.25237">
        <ele>61.7</ele>
        <time>2021-05-27T13:56:43Z</time>
      </trkpt>
      <trkpt lat="47.69603" lon="-2.25242">
        <ele>61.5</ele>
        <time>2021-05-27T13:56:44Z</time>
      </trkpt>
      <trkpt lat="47.69602" lon="-2.25246">
        <ele>61.3</ele>
        <time>2021-05-27T13:56:45Z</time>
      </trkpt>
      <trkpt lat="47.696" lon="-2.25249">
        <ele>61.1</ele>
        <time>2021-05-27T13:56:46Z</time>
      </trkpt>
      <trkpt lat="47.69599" lon="-2.25252">
        <ele>60.9</ele>
        <time>2021-05-27T13:56:47Z</time>
      </trkpt>
      <trkpt lat="47.69598" lon="-2.25256">
        <ele>60.8</ele>
        <time>2021-05-27T13:56:48Z</time>
      </trkpt>
      <trkpt lat="47.69596" lon="-2.2526">
        <ele>60.7</ele>
        <time>2021-05-27T13:56:49Z</time>
      </trkpt>
      <trkpt lat="47.69596" lon="-2.25265">
        <ele>60.6</ele>
        <time>2021-05-27T13:56:50Z</time>
      </trkpt>
      <trkpt lat="47.69596" lon="-2.25269">
        <ele>60.6</ele>
        <time>2021-05-27T13:56:51Z</time>
      </trkpt>
      <trkpt lat="47.69596" lon="-2.25273">
        <ele>60.5</ele>
        <time>2021-05-27T13:56:52Z</time>
      </trkpt>
      <trkpt lat="47.69597" lon="-2.25278">
        <ele>60.5</ele>
        <time>2021-05-27T13:56:53Z</time>
      </trkpt>
      <trkpt lat="47.69598" lon="-2.25283">
        <ele>60.5</ele>
        <time>2021-05-27T13:56:54Z</time>
      </trkpt>
      <trkpt lat="47.69598" lon="-2.25288">
        <ele>60.5</ele>
        <time>2021-05-27T13:56:55Z</time>
      </trkpt>
      <trkpt lat="47.69599" lon="-2.25293">
        <ele>60.5</ele>
        <time>2021-05-27T13:56:56Z</time>
      </trkpt>
      <trkpt lat="47.69598" lon="-2.25298">
        <ele>60.4</ele>
        <time>2021-05-27T13:56:57Z</time>
      </trkpt>
      <trkpt lat="47.69598" lon="-2.25303">
        <ele>60.4</ele>
        <time>2021-05-27T13:56:58Z</time>
      </trkpt>
      <trkpt lat="47.69599" lon="-2.25308">
        <ele>60.3</ele>
        <time>2021-05-27T13:56:59Z</time>
      </trkpt>
      <trkpt lat="47.69599" lon="-2.25313">
        <ele>60.3</ele>
        <time>2021-05-27T13:57:00Z</time>
      </trkpt>
      <trkpt lat="47.69599" lon="-2.25319">
        <ele>60.3</ele>
        <time>2021-05-27T13:57:01Z</time>
      </trkpt>
      <trkpt lat="47.69598" lon="-2.25324">
        <ele>60.1</ele>
        <time>2021-05-27T13:57:02Z</time>
      </trkpt>
      <trkpt lat="47.69597" lon="-2.25328">
        <ele>60</ele>
        <time>2021-05-27T13:57:03Z</time>
      </trkpt>
      <trkpt lat="47.69597" lon="-2.25332">
        <ele>60</ele>
        <time>2021-05-27T13:57:04Z</time>
      </trkpt>
      <trkpt lat="47.69599" lon="-2.25336">
        <ele>60</ele>
        <time>2021-05-27T13:57:05Z</time>
      </trkpt>
      <trkpt lat="47.696" lon="-2.25341">
        <ele>60.1</ele>
        <time>2021-05-27T13:57:06Z</time>
      </trkpt>
      <trkpt lat="47.69602" lon="-2.25345">
        <ele>60.1</ele>
        <time>2021-05-27T13:57:07Z</time>
      </trkpt>
      <trkpt lat="47.69604" lon="-2.25349">
        <ele>60.2</ele>
        <time>2021-05-27T13:57:08Z</time>
      </trkpt>
      <trkpt lat="47.69605" lon="-2.25352">
        <ele>60.3</ele>
        <time>2021-05-27T13:57:09Z</time>
      </trkpt>
      <trkpt lat="47.69608" lon="-2.25356">
        <ele>60.4</ele>
        <time>2021-05-27T13:57:10Z</time>
      </trkpt>
      <trkpt lat="47.69609" lon="-2.2536">
        <ele>60.4</ele>
        <time>2021-05-27T13:57:11Z</time>
      </trkpt>
      <trkpt lat="47.6961" lon="-2.25365">
        <ele>60.4</ele>
        <time>2021-05-27T13:57:12Z</time>
      </trkpt>
      <trkpt lat="47.6961" lon="-2.25371">
        <ele>60.3</ele>
        <time>2021-05-27T13:57:13Z</time>
      </trkpt>
      <trkpt lat="47.69611" lon="-2.25377">
        <ele>60.3</ele>
        <time>2021-05-27T13:57:14Z</time>
      </trkpt>
      <trkpt lat="47.69611" lon="-2.25383">
        <ele>60.2</ele>
        <time>2021-05-27T13:57:15Z</time>
      </trkpt>
      <trkpt lat="47.69611" lon="-2.25389">
        <ele>60.1</ele>
        <time>2021-05-27T13:57:16Z</time>
      </trkpt>
      <trkpt lat="47.69611" lon="-2.25395">
        <ele>60</ele>
        <time>2021-05-27T13:57:17Z</time>
      </trkpt>
      <trkpt lat="47.69612" lon="-2.254">
        <ele>60</ele>
        <time>2021-05-27T13:57:18Z</time>
      </trkpt>
      <trkpt lat="47.69613" lon="-2.25406">
        <ele>60.1</ele>
        <time>2021-05-27T13:57:19Z</time>
      </trkpt>
      <trkpt lat="47.69616" lon="-2.2541">
        <ele>60.3</ele>
        <time>2021-05-27T13:57:20Z</time>
      </trkpt>
      <trkpt lat="47.69619" lon="-2.25413">
        <ele>60.5</ele>
        <time>2021-05-27T13:57:21Z</time>
      </trkpt>
      <trkpt lat="47.69622" lon="-2.25417">
        <ele>60.7</ele>
        <time>2021-05-27T13:57:22Z</time>
      </trkpt>
      <trkpt lat="47.69624" lon="-2.25421">
        <ele>60.9</ele>
        <time>2021-05-27T13:57:23Z</time>
      </trkpt>
      <trkpt lat="47.69625" lon="-2.25426">
        <ele>60.9</ele>
        <time>2021-05-27T13:57:24Z</time>
      </trkpt>
      <trkpt lat="47.69624" lon="-2.25431">
        <ele>60.9</ele>
        <time>2021-05-27T13:57:25Z</time>
      </trkpt>
      <trkpt lat="47.69624" lon="-2.25436">
        <ele>60.8</ele>
        <time>2021-05-27T13:57:26Z</time>
      </trkpt>
      <trkpt lat="47.69625" lon="-2.25442">
        <ele>60.9</ele>
        <time>2021-05-27T13:57:27Z</time>
      </trkpt>
      <trkpt lat="47.69627" lon="-2.25447">
        <ele>61</ele>
        <time>2021-05-27T13:57:28Z</time>
      </trkpt>
      <trkpt lat="47.69629" lon="-2.25451">
        <ele>61.2</ele>
        <time>2021-05-27T13:57:29Z</time>
      </trkpt>
      <trkpt lat="47.69631" lon="-2.25454">
        <ele>61.4</ele>
        <time>2021-05-27T13:57:30Z</time>
      </trkpt>
      <trkpt lat="47.69633" lon="-2.25457">
        <ele>61.6</ele>
        <time>2021-05-27T13:57:31Z</time>
      </trkpt>
      <trkpt lat="47.69634" lon="-2.2546">
        <ele>61.6</ele>
        <time>2021-05-27T13:57:32Z</time>
      </trkpt>
      <trkpt lat="47.69633" lon="-2.25465">
        <ele>61.6</ele>
        <time>2021-05-27T13:57:33Z</time>
      </trkpt>
      <trkpt lat="47.69633" lon="-2.25469">
        <ele>61.5</ele>
        <time>2021-05-27T13:57:34Z</time>
      </trkpt>
      <trkpt lat="47.69632" lon="-2.25475">
        <ele>61.4</ele>
        <time>2021-05-27T13:57:35Z</time>
      </trkpt>
      <trkpt lat="47.69632" lon="-2.25479">
        <ele>61.3</ele>
        <time>2021-05-27T13:57:36Z</time>
      </trkpt>
      <trkpt lat="47.69632" lon="-2.25483">
        <ele>61.4</ele>
        <time>2021-05-27T13:57:37Z</time>
      </trkpt>
      <trkpt lat="47.69634" lon="-2.25486">
        <ele>61.5</ele>
        <time>2021-05-27T13:57:38Z</time>
      </trkpt>
      <trkpt lat="47.69635" lon="-2.25489">
        <ele>61.6</ele>
        <time>2021-05-27T13:57:39Z</time>
      </trkpt>
      <trkpt lat="47.69635" lon="-2.25493">
        <ele>61.6</ele>
        <time>2021-05-27T13:57:40Z</time>
      </trkpt>
      <trkpt lat="47.69636" lon="-2.25497">
        <ele>61.7</ele>
        <time>2021-05-27T13:57:41Z</time>
      </trkpt>
      <trkpt lat="47.69636" lon="-2.25501">
        <ele>61.7</ele>
        <time>2021-05-27T13:57:42Z</time>
      </trkpt>
      <trkpt lat="47.69637" lon="-2.25504">
        <ele>61.6</ele>
        <time>2021-05-27T13:57:43Z</time>
      </trkpt>
      <trkpt lat="47.69637" lon="-2.25508">
        <ele>61.5</ele>
        <time>2021-05-27T13:57:44Z</time>
      </trkpt>
      <trkpt lat="47.69638" lon="-2.25512">
        <ele>61.4</ele>
        <time>2021-05-27T13:57:45Z</time>
      </trkpt>
      <trkpt lat="47.69639" lon="-2.25515">
        <ele>61.4</ele>
        <time>2021-05-27T13:57:46Z</time>
      </trkpt>
      <trkpt lat="47.69639" lon="-2.25519">
        <ele>61.3</ele>
        <time>2021-05-27T13:57:47Z</time>
      </trkpt>
      <trkpt lat="47.6964" lon="-2.25523">
        <ele>61.3</ele>
        <time>2021-05-27T13:57:48Z</time>
      </trkpt>
      <trkpt lat="47.6964" lon="-2.25527">
        <ele>61.2</ele>
        <time>2021-05-27T13:57:49Z</time>
      </trkpt>
      <trkpt lat="47.69641" lon="-2.2553">
        <ele>61.2</ele>
        <time>2021-05-27T13:57:50Z</time>
      </trkpt>
      <trkpt lat="47.69643" lon="-2.25532">
        <ele>61.3</ele>
        <time>2021-05-27T13:57:51Z</time>
      </trkpt>
      <trkpt lat="47.69644" lon="-2.25535">
        <ele>61.4</ele>
        <time>2021-05-27T13:57:52Z</time>
      </trkpt>
      <trkpt lat="47.69645" lon="-2.25537">
        <ele>61.5</ele>
        <time>2021-05-27T13:57:53Z</time>
      </trkpt>
      <trkpt lat="47.69647" lon="-2.2554">
        <ele>61.6</ele>
        <time>2021-05-27T13:57:54Z</time>
      </trkpt>
      <trkpt lat="47.69648" lon="-2.25544">
        <ele>61.7</ele>
        <time>2021-05-27T13:57:55Z</time>
      </trkpt>
      <trkpt lat="47.6965" lon="-2.25547">
        <ele>61.7</ele>
        <time>2021-05-27T13:57:56Z</time>
      </trkpt>
      <trkpt lat="47.69652" lon="-2.25551">
        <ele>61.9</ele>
        <time>2021-05-27T13:57:57Z</time>
      </trkpt>
      <trkpt lat="47.69653" lon="-2.25553">
        <ele>62</ele>
        <time>2021-05-27T13:57:58Z</time>
      </trkpt>
      <trkpt lat="47.69655" lon="-2.25557">
        <ele>62</ele>
        <time>2021-05-27T13:57:59Z</time>
      </trkpt>
      <trkpt lat="47.69656" lon="-2.2556">
        <ele>62.1</ele>
        <time>2021-05-27T13:58:00Z</time>
      </trkpt>
      <trkpt lat="47.69656" lon="-2.25564">
        <ele>62.1</ele>
        <time>2021-05-27T13:58:01Z</time>
      </trkpt>
      <trkpt lat="47.69657" lon="-2.25567">
        <ele>62.1</ele>
        <time>2021-05-27T13:58:02Z</time>
      </trkpt>
      <trkpt lat="47.69657" lon="-2.2557">
        <ele>61.9</ele>
        <time>2021-05-27T13:58:03Z</time>
      </trkpt>
      <trkpt lat="47.69656" lon="-2.25572">
        <ele>61.7</ele>
        <time>2021-05-27T13:58:04Z</time>
      </trkpt>
      <trkpt lat="47.69655" lon="-2.25574">
        <ele>61.5</ele>
        <time>2021-05-27T13:58:05Z</time>
      </trkpt>
      <trkpt lat="47.69653" lon="-2.25577">
        <ele>61.3</ele>
        <time>2021-05-27T13:58:06Z</time>
      </trkpt>
      <trkpt lat="47.69652" lon="-2.25581">
        <ele>61</ele>
        <time>2021-05-27T13:58:07Z</time>
      </trkpt>
      <trkpt lat="47.69652" lon="-2.25584">
        <ele>60.9</ele>
        <time>2021-05-27T13:58:08Z</time>
      </trkpt>
      <trkpt lat="47.69653" lon="-2.25589">
        <ele>60.8</ele>
        <time>2021-05-27T13:58:09Z</time>
      </trkpt>
      <trkpt lat="47.69653" lon="-2.25594">
        <ele>60.7</ele>
        <time>2021-05-27T13:58:10Z</time>
      </trkpt>
      <trkpt lat="47.69654" lon="-2.25599">
        <ele>60.5</ele>
        <time>2021-05-27T13:58:11Z</time>
      </trkpt>
      <trkpt lat="47.69655" lon="-2.25604">
        <ele>60.5</ele>
        <time>2021-05-27T13:58:12Z</time>
      </trkpt>
      <trkpt lat="47.69658" lon="-2.2561">
        <ele>60.7</ele>
        <time>2021-05-27T13:58:13Z</time>
      </trkpt>
      <trkpt lat="47.6966" lon="-2.25614">
        <ele>60.9</ele>
        <time>2021-05-27T13:58:14Z</time>
      </trkpt>
      <trkpt lat="47.69662" lon="-2.25617">
        <ele>61</ele>
        <time>2021-05-27T13:58:15Z</time>
      </trkpt>
      <trkpt lat="47.69663" lon="-2.25621">
        <ele>61.1</ele>
        <time>2021-05-27T13:58:16Z</time>
      </trkpt>
      <trkpt lat="47.69665" lon="-2.25623">
        <ele>61.3</ele>
        <time>2021-05-27T13:58:17Z</time>
      </trkpt>
      <trkpt lat="47.69667" lon="-2.25626">
        <ele>61.5</ele>
        <time>2021-05-27T13:58:18Z</time>
      </trkpt>
      <trkpt lat="47.69668" lon="-2.25628">
        <ele>61.6</ele>
        <time>2021-05-27T13:58:19Z</time>
      </trkpt>
      <trkpt lat="47.69669" lon="-2.25631">
        <ele>61.6</ele>
        <time>2021-05-27T13:58:20Z</time>
      </trkpt>
      <trkpt lat="47.69669" lon="-2.25634">
        <ele>61.5</ele>
        <time>2021-05-27T13:58:21Z</time>
      </trkpt>
      <trkpt lat="47.69669" lon="-2.25638">
        <ele>61.3</ele>
        <time>2021-05-27T13:58:22Z</time>
      </trkpt>
      <trkpt lat="47.69668" lon="-2.25642">
        <ele>61</ele>
        <time>2021-05-27T13:58:23Z</time>
      </trkpt>
      <trkpt lat="47.69667" lon="-2.25646">
        <ele>60.8</ele>
        <time>2021-05-27T13:58:24Z</time>
      </trkpt>
      <trkpt lat="47.69666" lon="-2.25649">
        <ele>60.5</ele>
        <time>2021-05-27T13:58:25Z</time>
      </trkpt>
      <trkpt lat="47.69666" lon="-2.25654">
        <ele>60.4</ele>
        <time>2021-05-27T13:58:26Z</time>
      </trkpt>
      <trkpt lat="47.69667" lon="-2.25658">
        <ele>60.3</ele>
        <time>2021-05-27T13:58:27Z</time>
      </trkpt>
      <trkpt lat="47.69667" lon="-2.25662">
        <ele>60.2</ele>
        <time>2021-05-27T13:58:28Z</time>
      </trkpt>
      <trkpt lat="47.69667" lon="-2.25667">
        <ele>60.1</ele>
        <time>2021-05-27T13:58:29Z</time>
      </trkpt>
      <trkpt lat="47.69668" lon="-2.25671">
        <ele>60</ele>
        <time>2021-05-27T13:58:30Z</time>
      </trkpt>
      <trkpt lat="47.69668" lon="-2.25676">
        <ele>60</ele>
        <time>2021-05-27T13:58:31Z</time>
      </trkpt>
      <trkpt lat="47.6967" lon="-2.25681">
        <ele>60.1</ele>
        <time>2021-05-27T13:58:32Z</time>
      </trkpt>
      <trkpt lat="47.69671" lon="-2.25685">
        <ele>60.2</ele>
        <time>2021-05-27T13:58:33Z</time>
      </trkpt>
      <trkpt lat="47.69672" lon="-2.25689">
        <ele>60.2</ele>
        <time>2021-05-27T13:58:34Z</time>
      </trkpt>
      <trkpt lat="47.69674" lon="-2.25694">
        <ele>60.3</ele>
        <time>2021-05-27T13:58:35Z</time>
      </trkpt>
      <trkpt lat="47.69675" lon="-2.25698">
        <ele>60.4</ele>
        <time>2021-05-27T13:58:36Z</time>
      </trkpt>
      <trkpt lat="47.69678" lon="-2.257">
        <ele>60.6</ele>
        <time>2021-05-27T13:58:37Z</time>
      </trkpt>
      <trkpt lat="47.6968" lon="-2.257">
        <ele>61</ele>
        <time>2021-05-27T13:58:38Z</time>
      </trkpt>
      <trkpt lat="47.69681" lon="-2.25702">
        <ele>61.1</ele>
        <time>2021-05-27T13:58:39Z</time>
      </trkpt>
      <trkpt lat="47.69682" lon="-2.25704">
        <ele>61.2</ele>
        <time>2021-05-27T13:58:40Z</time>
      </trkpt>
      <trkpt lat="47.69683" lon="-2.25707">
        <ele>61.1</ele>
        <time>2021-05-27T13:58:41Z</time>
      </trkpt>
      <trkpt lat="47.69683" lon="-2.25712">
        <ele>61.1</ele>
        <time>2021-05-27T13:58:42Z</time>
      </trkpt>
      <trkpt lat="47.69684" lon="-2.25716">
        <ele>61.1</ele>
        <time>2021-05-27T13:58:43Z</time>
      </trkpt>
      <trkpt lat="47.69685" lon="-2.25721">
        <ele>61.2</ele>
        <time>2021-05-27T13:58:44Z</time>
      </trkpt>
      <trkpt lat="47.69686" lon="-2.25725">
        <ele>61.2</ele>
        <time>2021-05-27T13:58:45Z</time>
      </trkpt>
      <trkpt lat="47.69687" lon="-2.2573">
        <ele>61.2</ele>
        <time>2021-05-27T13:58:46Z</time>
      </trkpt>
      <trkpt lat="47.69688" lon="-2.25735">
        <ele>61.2</ele>
        <time>2021-05-27T13:58:47Z</time>
      </trkpt>
      <trkpt lat="47.6969" lon="-2.25739">
        <ele>61.3</ele>
        <time>2021-05-27T13:58:48Z</time>
      </trkpt>
      <trkpt lat="47.69692" lon="-2.25743">
        <ele>61.5</ele>
        <time>2021-05-27T13:58:49Z</time>
      </trkpt>
      <trkpt lat="47.69694" lon="-2.25746">
        <ele>61.7</ele>
        <time>2021-05-27T13:58:50Z</time>
      </trkpt>
      <trkpt lat="47.69695" lon="-2.25749">
        <ele>61.8</ele>
        <time>2021-05-27T13:58:51Z</time>
      </trkpt>
      <trkpt lat="47.69697" lon="-2.25754">
        <ele>61.8</ele>
        <time>2021-05-27T13:58:52Z</time>
      </trkpt>
      <trkpt lat="47.69699" lon="-2.25758">
        <ele>62</ele>
        <time>2021-05-27T13:58:53Z</time>
      </trkpt>
      <trkpt lat="47.69701" lon="-2.25762">
        <ele>62</ele>
        <time>2021-05-27T13:58:54Z</time>
      </trkpt>
      <trkpt lat="47.69702" lon="-2.25766">
        <ele>62.1</ele>
        <time>2021-05-27T13:58:55Z</time>
      </trkpt>
      <trkpt lat="47.69702" lon="-2.2577">
        <ele>61.9</ele>
        <time>2021-05-27T13:58:56Z</time>
      </trkpt>
      <trkpt lat="47.69701" lon="-2.25774">
        <ele>61.7</ele>
        <time>2021-05-27T13:58:57Z</time>
      </trkpt>
      <trkpt lat="47.697" lon="-2.25776">
        <ele>61.4</ele>
        <time>2021-05-27T13:58:58Z</time>
      </trkpt>
      <trkpt lat="47.69698" lon="-2.25777">
        <ele>61.1</ele>
        <time>2021-05-27T13:58:59Z</time>
      </trkpt>
      <trkpt lat="47.69696" lon="-2.25779">
        <ele>60.8</ele>
        <time>2021-05-27T13:59:00Z</time>
      </trkpt>
      <trkpt lat="47.69695" lon="-2.25782">
        <ele>60.6</ele>
        <time>2021-05-27T13:59:01Z</time>
      </trkpt>
      <trkpt lat="47.69695" lon="-2.25785">
        <ele>60.4</ele>
        <time>2021-05-27T13:59:02Z</time>
      </trkpt>
      <trkpt lat="47.69695" lon="-2.25788">
        <ele>60.3</ele>
        <time>2021-05-27T13:59:03Z</time>
      </trkpt>
      <trkpt lat="47.69696" lon="-2.25792">
        <ele>60.3</ele>
        <time>2021-05-27T13:59:04Z</time>
      </trkpt>
      <trkpt lat="47.69697" lon="-2.25796">
        <ele>60.3</ele>
        <time>2021-05-27T13:59:05Z</time>
      </trkpt>
      <trkpt lat="47.69698" lon="-2.25801">
        <ele>60.3</ele>
        <time>2021-05-27T13:59:06Z</time>
      </trkpt>
      <trkpt lat="47.69698" lon="-2.25805">
        <ele>60.2</ele>
        <time>2021-05-27T13:59:07Z</time>
      </trkpt>
      <trkpt lat="47.69698" lon="-2.25811">
        <ele>60</ele>
        <time>2021-05-27T13:59:08Z</time>
      </trkpt>
      <trkpt lat="47.69698" lon="-2.25816">
        <ele>59.8</ele>
        <time>2021-05-27T13:59:09Z</time>
      </trkpt>
      <trkpt lat="47.69698" lon="-2.25821">
        <ele>59.6</ele>
        <time>2021-05-27T13:59:10Z</time>
      </trkpt>
      <trkpt lat="47.69698" lon="-2.25826">
        <ele>59.4</ele>
        <time>2021-05-27T13:59:11Z</time>
      </trkpt>
      <trkpt lat="47.69697" lon="-2.2583">
        <ele>59.1</ele>
        <time>2021-05-27T13:59:12Z</time>
      </trkpt>
      <trkpt lat="47.69695" lon="-2.25835">
        <ele>58.6</ele>
        <time>2021-05-27T13:59:13Z</time>
      </trkpt>
      <trkpt lat="47.69693" lon="-2.2584">
        <ele>58.2</ele>
        <time>2021-05-27T13:59:14Z</time>
      </trkpt>
      <trkpt lat="47.69692" lon="-2.25844">
        <ele>57.8</ele>
        <time>2021-05-27T13:59:15Z</time>
      </trkpt>
      <trkpt lat="47.69692" lon="-2.25848">
        <ele>57.7</ele>
        <time>2021-05-27T13:59:16Z</time>
      </trkpt>
      <trkpt lat="47.69694" lon="-2.25851">
        <ele>57.8</ele>
        <time>2021-05-27T13:59:17Z</time>
      </trkpt>
      <trkpt lat="47.69695" lon="-2.25854">
        <ele>57.9</ele>
        <time>2021-05-27T13:59:18Z</time>
      </trkpt>
      <trkpt lat="47.69697" lon="-2.25857">
        <ele>58</ele>
        <time>2021-05-27T13:59:19Z</time>
      </trkpt>
      <trkpt lat="47.69698" lon="-2.2586">
        <ele>58</ele>
        <time>2021-05-27T13:59:20Z</time>
      </trkpt>
      <trkpt lat="47.697" lon="-2.25863">
        <ele>58.2</ele>
        <time>2021-05-27T13:59:21Z</time>
      </trkpt>
      <trkpt lat="47.69702" lon="-2.25867">
        <ele>58.3</ele>
        <time>2021-05-27T13:59:22Z</time>
      </trkpt>
      <trkpt lat="47.69704" lon="-2.2587">
        <ele>58.4</ele>
        <time>2021-05-27T13:59:23Z</time>
      </trkpt>
      <trkpt lat="47.69705" lon="-2.25875">
        <ele>58.4</ele>
        <time>2021-05-27T13:59:24Z</time>
      </trkpt>
      <trkpt lat="47.69706" lon="-2.25879">
        <ele>58.5</ele>
        <time>2021-05-27T13:59:25Z</time>
      </trkpt>
      <trkpt lat="47.69707" lon="-2.25883">
        <ele>58.6</ele>
        <time>2021-05-27T13:59:26Z</time>
      </trkpt>
      <trkpt lat="47.69709" lon="-2.25885">
        <ele>58.7</ele>
        <time>2021-05-27T13:59:27Z</time>
      </trkpt>
      <trkpt lat="47.69709" lon="-2.25885">
        <ele>58.8</ele>
        <time>2021-05-27T13:59:28Z</time>
      </trkpt>
      <trkpt lat="47.69709" lon="-2.25885">
        <ele>58.8</ele>
        <time>2021-05-27T13:59:29Z</time>
      </trkpt>
      <trkpt lat="47.69709" lon="-2.25885">
        <ele>58.8</ele>
        <time>2021-05-27T13:59:30Z</time>
      </trkpt>
      <trkpt lat="47.69709" lon="-2.25885">
        <ele>58.8</ele>
        <time>2021-05-27T13:59:32Z</time>
      </trkpt>
      <trkpt lat="47.69709" lon="-2.25885">
        <ele>58.8</ele>
        <time>2021-05-27T13:59:33Z</time>
      </trkpt>
      <trkpt lat="47.69709" lon="-2.25885">
        <ele>58.8</ele>
        <time>2021-05-27T13:59:34Z</time>
      </trkpt>
      <trkpt lat="47.69709" lon="-2.25885">
        <ele>58.8</ele>
        <time>2021-05-27T13:59:35Z</time>
      </trkpt>
      <trkpt lat="47.69709" lon="-2.25885">
        <ele>58.8</ele>
        <time>2021-05-27T13:59:36Z</time>
      </trkpt>
      <trkpt lat="47.69709" lon="-2.25885">
        <ele>58.8</ele>
        <time>2021-05-27T13:59:37Z</time>
      </trkpt>
      <trkpt lat="47.69709" lon="-2.25885">
        <ele>58.8</ele>
        <time>2021-05-27T13:59:38Z</time>
      </trkpt>
      <trkpt lat="47.69709" lon="-2.25885">
        <ele>58.8</ele>
        <time>2021-05-27T13:59:39Z</time>
      </trkpt>
      <trkpt lat="47.69709" lon="-2.25885">
        <ele>58.8</ele>
        <time>2021-05-27T13:59:40Z</time>
      </trkpt>
      <trkpt lat="47.69709" lon="-2.25885">
        <ele>58.8</ele>
        <time>2021-05-27T13:59:41Z</time>
      </trkpt>
      <trkpt lat="47.69709" lon="-2.25885">
        <ele>58.8</ele>
        <time>2021-05-27T13:59:42Z</time>
      </trkpt>
      <trkpt lat="47.69709" lon="-2.25885">
        <ele>58.8</ele>
        <time>2021-05-27T13:59:43Z</time>
      </trkpt>
      <trkpt lat="47.69709" lon="-2.25885">
        <ele>58.8</ele>
        <time>2021-05-27T13:59:44Z</time>
      </trkpt>
      <trkpt lat="47.69706" lon="-2.2589">
        <ele>58.1</ele>
        <time>2021-05-27T13:59:45Z</time>
      </trkpt>
      <trkpt lat="47.69704" lon="-2.25892">
        <ele>57.7</ele>
        <time>2021-05-27T13:59:46Z</time>
      </trkpt>
      <trkpt lat="47.69702" lon="-2.25894">
        <ele>57.3</ele>
        <time>2021-05-27T13:59:47Z</time>
      </trkpt>
      <trkpt lat="47.697" lon="-2.25896">
        <ele>56.9</ele>
        <time>2021-05-27T13:59:48Z</time>
      </trkpt>
      <trkpt lat="47.69698" lon="-2.25899">
        <ele>56.3</ele>
        <time>2021-05-27T13:59:49Z</time>
      </trkpt>
      <trkpt lat="47.69695" lon="-2.25901">
        <ele>55.9</ele>
        <time>2021-05-27T13:59:50Z</time>
      </trkpt>
      <trkpt lat="47.69694" lon="-2.25904">
        <ele>55.5</ele>
        <time>2021-05-27T13:59:51Z</time>
      </trkpt>
      <trkpt lat="47.69693" lon="-2.25907">
        <ele>55.1</ele>
        <time>2021-05-27T13:59:52Z</time>
      </trkpt>
      <trkpt lat="47.69692" lon="-2.2591">
        <ele>54.9</ele>
        <time>2021-05-27T13:59:53Z</time>
      </trkpt>
      <trkpt lat="47.69691" lon="-2.25912">
        <ele>54.7</ele>
        <time>2021-05-27T13:59:54Z</time>
      </trkpt>
      <trkpt lat="47.69691" lon="-2.25914">
        <ele>54.4</ele>
        <time>2021-05-27T13:59:55Z</time>
      </trkpt>
      <trkpt lat="47.6969" lon="-2.25917">
        <ele>54.1</ele>
        <time>2021-05-27T13:59:56Z</time>
      </trkpt>
      <trkpt lat="47.69688" lon="-2.2592">
        <ele>53.8</ele>
        <time>2021-05-27T13:59:57Z</time>
      </trkpt>
      <trkpt lat="47.69687" lon="-2.25922">
        <ele>53.4</ele>
        <time>2021-05-27T13:59:58Z</time>
      </trkpt>
      <trkpt lat="47.69685" lon="-2.25922">
        <ele>53.1</ele>
        <time>2021-05-27T13:59:59Z</time>
      </trkpt>
      <trkpt lat="47.69684" lon="-2.25921">
        <ele>52.8</ele>
        <time>2021-05-27T14:00:00Z</time>
      </trkpt>
      <trkpt lat="47.69681" lon="-2.25919">
        <ele>52.6</ele>
        <time>2021-05-27T14:00:01Z</time>
      </trkpt>
      <trkpt lat="47.6968" lon="-2.25916">
        <ele>52.4</ele>
        <time>2021-05-27T14:00:02Z</time>
      </trkpt>
      <trkpt lat="47.69678" lon="-2.25914">
        <ele>52.1</ele>
        <time>2021-05-27T14:00:03Z</time>
      </trkpt>
      <trkpt lat="47.69677" lon="-2.25914">
        <ele>51.9</ele>
        <time>2021-05-27T14:00:04Z</time>
      </trkpt>
      <trkpt lat="47.69676" lon="-2.25915">
        <ele>51.7</ele>
        <time>2021-05-27T14:00:05Z</time>
      </trkpt>
      <trkpt lat="47.69676" lon="-2.25918">
        <ele>51.6</ele>
        <time>2021-05-27T14:00:06Z</time>
      </trkpt>
      <trkpt lat="47.69677" lon="-2.2592">
        <ele>51.7</ele>
        <time>2021-05-27T14:00:07Z</time>
      </trkpt>
      <trkpt lat="47.69678" lon="-2.25924">
        <ele>51.7</ele>
        <time>2021-05-27T14:00:08Z</time>
      </trkpt>
      <trkpt lat="47.69679" lon="-2.25929">
        <ele>51.7</ele>
        <time>2021-05-27T14:00:09Z</time>
      </trkpt>
      <trkpt lat="47.6968" lon="-2.25933">
        <ele>51.6</ele>
        <time>2021-05-27T14:00:10Z</time>
      </trkpt>
      <trkpt lat="47.6968" lon="-2.25936">
        <ele>51.4</ele>
        <time>2021-05-27T14:00:11Z</time>
      </trkpt>
      <trkpt lat="47.69679" lon="-2.2594">
        <ele>51.1</ele>
        <time>2021-05-27T14:00:12Z</time>
      </trkpt>
      <trkpt lat="47.69677" lon="-2.25942">
        <ele>50.7</ele>
        <time>2021-05-27T14:00:13Z</time>
      </trkpt>
      <trkpt lat="47.69675" lon="-2.25942">
        <ele>50.3</ele>
        <time>2021-05-27T14:00:14Z</time>
      </trkpt>
      <trkpt lat="47.69673" lon="-2.25941">
        <ele>50</ele>
        <time>2021-05-27T14:00:15Z</time>
      </trkpt>
      <trkpt lat="47.69671" lon="-2.25939">
        <ele>49.7</ele>
        <time>2021-05-27T14:00:16Z</time>
      </trkpt>
      <trkpt lat="47.69669" lon="-2.25936">
        <ele>49.5</ele>
        <time>2021-05-27T14:00:17Z</time>
      </trkpt>
      <trkpt lat="47.69668" lon="-2.25935">
        <ele>49.3</ele>
        <time>2021-05-27T14:00:18Z</time>
      </trkpt>
      <trkpt lat="47.69666" lon="-2.25935">
        <ele>49.1</ele>
        <time>2021-05-27T14:00:19Z</time>
      </trkpt>
      <trkpt lat="47.69665" lon="-2.25935">
        <ele>49</ele>
        <time>2021-05-27T14:00:20Z</time>
      </trkpt>
      <trkpt lat="47.69665" lon="-2.25937">
        <ele>48.9</ele>
        <time>2021-05-27T14:00:21Z</time>
      </trkpt>
      <trkpt lat="47.69664" lon="-2.25939">
        <ele>48.7</ele>
        <time>2021-05-27T14:00:22Z</time>
      </trkpt>
      <trkpt lat="47.69663" lon="-2.25942">
        <ele>48.5</ele>
        <time>2021-05-27T14:00:23Z</time>
      </trkpt>
      <trkpt lat="47.69662" lon="-2.25945">
        <ele>48.3</ele>
        <time>2021-05-27T14:00:24Z</time>
      </trkpt>
      <trkpt lat="47.69661" lon="-2.25947">
        <ele>48.1</ele>
        <time>2021-05-27T14:00:25Z</time>
      </trkpt>
      <trkpt lat="47.6966" lon="-2.25949">
        <ele>48</ele>
        <time>2021-05-27T14:00:26Z</time>
      </trkpt>
      <trkpt lat="47.69659" lon="-2.25952">
        <ele>47.8</ele>
        <time>2021-05-27T14:00:27Z</time>
      </trkpt>
      <trkpt lat="47.69657" lon="-2.25953">
        <ele>47.6</ele>
        <time>2021-05-27T14:00:28Z</time>
      </trkpt>
      <trkpt lat="47.69655" lon="-2.25952">
        <ele>47.5</ele>
        <time>2021-05-27T14:00:29Z</time>
      </trkpt>
      <trkpt lat="47.69654" lon="-2.25951">
        <ele>47.5</ele>
        <time>2021-05-27T14:00:30Z</time>
      </trkpt>
      <trkpt lat="47.69653" lon="-2.25949">
        <ele>47.5</ele>
        <time>2021-05-27T14:00:31Z</time>
      </trkpt>
      <trkpt lat="47.69652" lon="-2.25947">
        <ele>47.5</ele>
        <time>2021-05-27T14:00:32Z</time>
      </trkpt>
      <trkpt lat="47.69651" lon="-2.25945">
        <ele>47.5</ele>
        <time>2021-05-27T14:00:33Z</time>
      </trkpt>
      <trkpt lat="47.69651" lon="-2.25941">
        <ele>47.5</ele>
        <time>2021-05-27T14:00:34Z</time>
      </trkpt>
      <trkpt lat="47.6965" lon="-2.25938">
        <ele>47.6</ele>
        <time>2021-05-27T14:00:35Z</time>
      </trkpt>
      <trkpt lat="47.6965" lon="-2.25938">
        <ele>47.6</ele>
        <time>2021-05-27T14:00:36Z</time>
      </trkpt>
      <trkpt lat="47.69649" lon="-2.25938">
        <ele>47.5</ele>
        <time>2021-05-27T14:00:37Z</time>
      </trkpt>
      <trkpt lat="47.69647" lon="-2.25938">
        <ele>47.3</ele>
        <time>2021-05-27T14:00:38Z</time>
      </trkpt>
      <trkpt lat="47.69646" lon="-2.25939">
        <ele>47.2</ele>
        <time>2021-05-27T14:00:39Z</time>
      </trkpt>
      <trkpt lat="47.69645" lon="-2.25941">
        <ele>47.1</ele>
        <time>2021-05-27T14:00:40Z</time>
      </trkpt>
      <trkpt lat="47.69644" lon="-2.25942">
        <ele>47</ele>
        <time>2021-05-27T14:00:41Z</time>
      </trkpt>
      <trkpt lat="47.69644" lon="-2.25944">
        <ele>46.9</ele>
        <time>2021-05-27T14:00:42Z</time>
      </trkpt>
      <trkpt lat="47.69644" lon="-2.25945">
        <ele>46.9</ele>
        <time>2021-05-27T14:00:43Z</time>
      </trkpt>
      <trkpt lat="47.69644" lon="-2.25945">
        <ele>46.9</ele>
        <time>2021-05-27T14:00:44Z</time>
      </trkpt>
      <trkpt lat="47.69644" lon="-2.25945">
        <ele>46.9</ele>
        <time>2021-05-27T14:00:45Z</time>
      </trkpt>
      <trkpt lat="47.69644" lon="-2.25945">
        <ele>46.9</ele>
        <time>2021-05-27T14:00:46Z</time>
      </trkpt>
      <trkpt lat="47.69644" lon="-2.25945">
        <ele>46.9</ele>
        <time>2021-05-27T14:00:47Z</time>
      </trkpt>
      <trkpt lat="47.69644" lon="-2.25945">
        <ele>46.9</ele>
        <time>2021-05-27T14:00:48Z</time>
      </trkpt>
      <trkpt lat="47.69644" lon="-2.25945">
        <ele>46.9</ele>
        <time>2021-05-27T14:00:49Z</time>
      </trkpt>
      <trkpt lat="47.69644" lon="-2.25945">
        <ele>46.9</ele>
        <time>2021-05-27T14:00:50Z</time>
      </trkpt>
      <trkpt lat="47.69644" lon="-2.25945">
        <ele>46.9</ele>
        <time>2021-05-27T14:00:51Z</time>
      </trkpt>
      <trkpt lat="47.69644" lon="-2.25945">
        <ele>46.9</ele>
        <time>2021-05-27T14:00:52Z</time>
      </trkpt>
      <trkpt lat="47.69644" lon="-2.25945">
        <ele>46.9</ele>
        <time>2021-05-27T14:00:53Z</time>
      </trkpt>
      <trkpt lat="47.69644" lon="-2.25945">
        <ele>46.9</ele>
        <time>2021-05-27T14:00:54Z</time>
      </trkpt>
      <trkpt lat="47.69644" lon="-2.25945">
        <ele>46.9</ele>
        <time>2021-05-27T14:00:55Z</time>
      </trkpt>
      <trkpt lat="47.69644" lon="-2.25945">
        <ele>46.9</ele>
        <time>2021-05-27T14:00:56Z</time>
      </trkpt>
      <trkpt lat="47.69644" lon="-2.25945">
        <ele>46.9</ele>
        <time>2021-05-27T14:00:57Z</time>
      </trkpt>
      <trkpt lat="47.69644" lon="-2.25945">
        <ele>46.9</ele>
        <time>2021-05-27T14:00:58Z</time>
      </trkpt>
      <trkpt lat="47.69644" lon="-2.25945">
        <ele>46.9</ele>
        <time>2021-05-27T14:00:59Z</time>
      </trkpt>
      <trkpt lat="47.69644" lon="-2.25945">
        <ele>46.9</ele>
        <time>2021-05-27T14:01:00Z</time>
      </trkpt>
      <trkpt lat="47.69644" lon="-2.25945">
        <ele>46.9</ele>
        <time>2021-05-27T14:01:01Z</time>
      </trkpt>
      <trkpt lat="47.69646" lon="-2.25932">
        <ele>47.4</ele>
        <time>2021-05-27T14:01:02Z</time>
      </trkpt>
      <trkpt lat="47.69646" lon="-2.25931">
        <ele>47.4</ele>
        <time>2021-05-27T14:01:03Z</time>
      </trkpt>
      <trkpt lat="47.69646" lon="-2.25931">
        <ele>47.4</ele>
        <time>2021-05-27T14:01:04Z</time>
      </trkpt>
      <trkpt lat="47.69646" lon="-2.25931">
        <ele>47.5</ele>
        <time>2021-05-27T14:01:05Z</time>
      </trkpt>
      <trkpt lat="47.69646" lon="-2.25931">
        <ele>47.5</ele>
        <time>2021-05-27T14:01:06Z</time>
      </trkpt>
      <trkpt lat="47.69646" lon="-2.25931">
        <ele>47.5</ele>
        <time>2021-05-27T14:01:07Z</time>
      </trkpt>
      <trkpt lat="47.69646" lon="-2.25931">
        <ele>47.5</ele>
        <time>2021-05-27T14:01:08Z</time>
      </trkpt>
      <trkpt lat="47.69646" lon="-2.25931">
        <ele>47.5</ele>
        <time>2021-05-27T14:01:09Z</time>
      </trkpt>
      <trkpt lat="47.69646" lon="-2.25931">
        <ele>47.5</ele>
        <time>2021-05-27T14:01:10Z</time>
      </trkpt>
      <trkpt lat="47.69646" lon="-2.25931">
        <ele>47.5</ele>
        <time>2021-05-27T14:01:11Z</time>
      </trkpt>
      <trkpt lat="47.69646" lon="-2.25931">
        <ele>47.5</ele>
        <time>2021-05-27T14:01:12Z</time>
      </trkpt>
      <trkpt lat="47.69644" lon="-2.25924">
        <ele>47.4</ele>
        <time>2021-05-27T14:01:13Z</time>
      </trkpt>
      <trkpt lat="47.69643" lon="-2.25921">
        <ele>47.3</ele>
        <time>2021-05-27T14:01:14Z</time>
      </trkpt>
      <trkpt lat="47.69641" lon="-2.25918">
        <ele>47.2</ele>
        <time>2021-05-27T14:01:15Z</time>
      </trkpt>
      <trkpt lat="47.69641" lon="-2.25916">
        <ele>47.2</ele>
        <time>2021-05-27T14:01:16Z</time>
      </trkpt>
      <trkpt lat="47.69639" lon="-2.25913">
        <ele>47.2</ele>
        <time>2021-05-27T14:01:17Z</time>
      </trkpt>
      <trkpt lat="47.69638" lon="-2.2591">
        <ele>47.3</ele>
        <time>2021-05-27T14:01:18Z</time>
      </trkpt>
      <trkpt lat="47.69637" lon="-2.25908">
        <ele>47.3</ele>
        <time>2021-05-27T14:01:19Z</time>
      </trkpt>
      <trkpt lat="47.69635" lon="-2.25904">
        <ele>47.2</ele>
        <time>2021-05-27T14:01:20Z</time>
      </trkpt>
      <trkpt lat="47.69633" lon="-2.25901">
        <ele>47.2</ele>
        <time>2021-05-27T14:01:21Z</time>
      </trkpt>
      <trkpt lat="47.69631" lon="-2.25897">
        <ele>47.2</ele>
        <time>2021-05-27T14:01:22Z</time>
      </trkpt>
      <trkpt lat="47.6963" lon="-2.25893">
        <ele>47.3</ele>
        <time>2021-05-27T14:01:23Z</time>
      </trkpt>
      <trkpt lat="47.69628" lon="-2.25889">
        <ele>47.3</ele>
        <time>2021-05-27T14:01:24Z</time>
      </trkpt>
      <trkpt lat="47.69627" lon="-2.25886">
        <ele>47.4</ele>
        <time>2021-05-27T14:01:25Z</time>
      </trkpt>
      <trkpt lat="47.69626" lon="-2.25884">
        <ele>47.4</ele>
        <time>2021-05-27T14:01:26Z</time>
      </trkpt>
      <trkpt lat="47.69625" lon="-2.25883">
        <ele>47.3</ele>
        <time>2021-05-27T14:01:43Z</time>
      </trkpt>
      <trkpt lat="47.69625" lon="-2.25884">
        <ele>47.3</ele>
        <time>2021-05-27T14:01:44Z</time>
      </trkpt>
      <trkpt lat="47.69625" lon="-2.25884">
        <ele>47.3</ele>
        <time>2021-05-27T14:01:45Z</time>
      </trkpt>
      <trkpt lat="47.69625" lon="-2.25884">
        <ele>47.3</ele>
        <time>2021-05-27T14:01:46Z</time>
      </trkpt>
      <trkpt lat="47.69625" lon="-2.25884">
        <ele>47.3</ele>
        <time>2021-05-27T14:01:47Z</time>
      </trkpt>
      <trkpt lat="47.69625" lon="-2.25884">
        <ele>47.3</ele>
        <time>2021-05-27T14:01:48Z</time>
      </trkpt>
      <trkpt lat="47.69625" lon="-2.25884">
        <ele>47.3</ele>
        <time>2021-05-27T14:01:49Z</time>
      </trkpt>
      <trkpt lat="47.69625" lon="-2.25884">
        <ele>47.3</ele>
        <time>2021-05-27T14:01:50Z</time>
      </trkpt>
      <trkpt lat="47.69625" lon="-2.25884">
        <ele>47.3</ele>
        <time>2021-05-27T14:01:51Z</time>
      </trkpt>
      <trkpt lat="47.69625" lon="-2.25884">
        <ele>47.3</ele>
        <time>2021-05-27T14:01:52Z</time>
      </trkpt>
      <trkpt lat="47.69625" lon="-2.25884">
        <ele>47.3</ele>
        <time>2021-05-27T14:01:53Z</time>
      </trkpt>
      <trkpt lat="47.69625" lon="-2.25884">
        <ele>47.3</ele>
        <time>2021-05-27T14:01:54Z</time>
      </trkpt>
      <trkpt lat="47.69625" lon="-2.25884">
        <ele>47.3</ele>
        <time>2021-05-27T14:01:55Z</time>
      </trkpt>
      <trkpt lat="47.69625" lon="-2.25884">
        <ele>47.3</ele>
        <time>2021-05-27T14:01:56Z</time>
      </trkpt>
      <trkpt lat="47.69625" lon="-2.25884">
        <ele>47.3</ele>
        <time>2021-05-27T14:01:57Z</time>
      </trkpt>
      <trkpt lat="47.69625" lon="-2.25884">
        <ele>47.3</ele>
        <time>2021-05-27T14:01:58Z</time>
      </trkpt>
      <trkpt lat="47.69625" lon="-2.25884">
        <ele>47.3</ele>
        <time>2021-05-27T14:01:59Z</time>
      </trkpt>
      <trkpt lat="47.69625" lon="-2.25884">
        <ele>47.3</ele>
        <time>2021-05-27T14:02:00Z</time>
      </trkpt>
      <trkpt lat="47.69625" lon="-2.25884">
        <ele>47.3</ele>
        <time>2021-05-27T14:02:01Z</time>
      </trkpt>
      <trkpt lat="47.69625" lon="-2.25884">
        <ele>47.3</ele>
        <time>2021-05-27T14:02:02Z</time>
      </trkpt>
      <trkpt lat="47.69625" lon="-2.25884">
        <ele>47.3</ele>
        <time>2021-05-27T14:02:03Z</time>
      </trkpt>
      <trkpt lat="47.69625" lon="-2.25884">
        <ele>47.3</ele>
        <time>2021-05-27T14:02:04Z</time>
      </trkpt>
      <trkpt lat="47.69625" lon="-2.25884">
        <ele>47.3</ele>
        <time>2021-05-27T14:02:05Z</time>
      </trkpt>
      <trkpt lat="47.69618" lon="-2.25893">
        <ele>46</ele>
        <time>2021-05-27T14:02:06Z</time>
      </trkpt>
      <trkpt lat="47.69617" lon="-2.25893">
        <ele>45.9</ele>
        <time>2021-05-27T14:02:07Z</time>
      </trkpt>
      <trkpt lat="47.69617" lon="-2.25893">
        <ele>45.8</ele>
        <time>2021-05-27T14:02:08Z</time>
      </trkpt>
      <trkpt lat="47.69616" lon="-2.25894">
        <ele>45.8</ele>
        <time>2021-05-27T14:02:09Z</time>
      </trkpt>
      <trkpt lat="47.69616" lon="-2.25894">
        <ele>45.8</ele>
        <time>2021-05-27T14:02:10Z</time>
      </trkpt>
      <trkpt lat="47.69616" lon="-2.25894">
        <ele>45.8</ele>
        <time>2021-05-27T14:02:11Z</time>
      </trkpt>
      <trkpt lat="47.69616" lon="-2.25894">
        <ele>45.8</ele>
        <time>2021-05-27T14:02:12Z</time>
      </trkpt>
      <trkpt lat="47.69616" lon="-2.25894">
        <ele>45.8</ele>
        <time>2021-05-27T14:02:13Z</time>
      </trkpt>
      <trkpt lat="47.69616" lon="-2.25894">
        <ele>45.8</ele>
        <time>2021-05-27T14:02:14Z</time>
      </trkpt>
      <trkpt lat="47.69616" lon="-2.25894">
        <ele>45.8</ele>
        <time>2021-05-27T14:02:15Z</time>
      </trkpt>
      <trkpt lat="47.69616" lon="-2.25894">
        <ele>45.8</ele>
        <time>2021-05-27T14:02:16Z</time>
      </trkpt>
      <trkpt lat="47.69616" lon="-2.25894">
        <ele>45.8</ele>
        <time>2021-05-27T14:02:17Z</time>
      </trkpt>
      <trkpt lat="47.69616" lon="-2.25894">
        <ele>45.8</ele>
        <time>2021-05-27T14:02:18Z</time>
      </trkpt>
      <trkpt lat="47.69616" lon="-2.25894">
        <ele>45.8</ele>
        <time>2021-05-27T14:02:19Z</time>
      </trkpt>
      <trkpt lat="47.69616" lon="-2.25894">
        <ele>45.8</ele>
        <time>2021-05-27T14:02:20Z</time>
      </trkpt>
      <trkpt lat="47.69616" lon="-2.25894">
        <ele>45.8</ele>
        <time>2021-05-27T14:02:21Z</time>
      </trkpt>
      <trkpt lat="47.69616" lon="-2.25894">
        <ele>45.8</ele>
        <time>2021-05-27T14:02:22Z</time>
      </trkpt>
      <trkpt lat="47.69616" lon="-2.25894">
        <ele>45.8</ele>
        <time>2021-05-27T14:02:23Z</time>
      </trkpt>
      <trkpt lat="47.69616" lon="-2.25894">
        <ele>45.8</ele>
        <time>2021-05-27T14:02:24Z</time>
      </trkpt>
      <trkpt lat="47.69616" lon="-2.25894">
        <ele>45.8</ele>
        <time>2021-05-27T14:02:25Z</time>
      </trkpt>
      <trkpt lat="47.69616" lon="-2.25894">
        <ele>45.8</ele>
        <time>2021-05-27T14:02:26Z</time>
      </trkpt>
      <trkpt lat="47.69616" lon="-2.25894">
        <ele>45.8</ele>
        <time>2021-05-27T14:02:27Z</time>
      </trkpt>
      <trkpt lat="47.69616" lon="-2.25894">
        <ele>45.8</ele>
        <time>2021-05-27T14:02:28Z</time>
      </trkpt>
      <trkpt lat="47.69616" lon="-2.25894">
        <ele>45.8</ele>
        <time>2021-05-27T14:02:29Z</time>
      </trkpt>
      <trkpt lat="47.69616" lon="-2.25894">
        <ele>45.8</ele>
        <time>2021-05-27T14:02:30Z</time>
      </trkpt>
      <trkpt lat="47.69616" lon="-2.25894">
        <ele>45.8</ele>
        <time>2021-05-27T14:02:31Z</time>
      </trkpt>
      <trkpt lat="47.69609" lon="-2.25886">
        <ele>45.3</ele>
        <time>2021-05-27T14:02:32Z</time>
      </trkpt>
      <trkpt lat="47.69608" lon="-2.25884">
        <ele>45.4</ele>
        <time>2021-05-27T14:02:33Z</time>
      </trkpt>
      <trkpt lat="47.69608" lon="-2.2588">
        <ele>45.5</ele>
        <time>2021-05-27T14:02:34Z</time>
      </trkpt>
      <trkpt lat="47.69607" lon="-2.25877">
        <ele>45.6</ele>
        <time>2021-05-27T14:02:35Z</time>
      </trkpt>
      <trkpt lat="47.69608" lon="-2.25874">
        <ele>45.8</ele>
        <time>2021-05-27T14:02:36Z</time>
      </trkpt>
      <trkpt lat="47.69608" lon="-2.2587">
        <ele>46</ele>
        <time>2021-05-27T14:02:37Z</time>
      </trkpt>
      <trkpt lat="47.69608" lon="-2.25867">
        <ele>46.2</ele>
        <time>2021-05-27T14:02:38Z</time>
      </trkpt>
      <trkpt lat="47.69607" lon="-2.25863">
        <ele>46.4</ele>
        <time>2021-05-27T14:02:39Z</time>
      </trkpt>
      <trkpt lat="47.69607" lon="-2.25859">
        <ele>46.5</ele>
        <time>2021-05-27T14:02:40Z</time>
      </trkpt>
      <trkpt lat="47.69607" lon="-2.25855">
        <ele>46.7</ele>
        <time>2021-05-27T14:02:41Z</time>
      </trkpt>
      <trkpt lat="47.69607" lon="-2.25851">
        <ele>46.9</ele>
        <time>2021-05-27T14:02:42Z</time>
      </trkpt>
      <trkpt lat="47.69606" lon="-2.25847">
        <ele>47.1</ele>
        <time>2021-05-27T14:02:43Z</time>
      </trkpt>
      <trkpt lat="47.69606" lon="-2.25842">
        <ele>47.3</ele>
        <time>2021-05-27T14:02:44Z</time>
      </trkpt>
      <trkpt lat="47.69606" lon="-2.25836">
        <ele>47.5</ele>
        <time>2021-05-27T14:02:45Z</time>
      </trkpt>
      <trkpt lat="47.69605" lon="-2.25832">
        <ele>47.6</ele>
        <time>2021-05-27T14:02:46Z</time>
      </trkpt>
      <trkpt lat="47.69604" lon="-2.25827">
        <ele>47.6</ele>
        <time>2021-05-27T14:02:47Z</time>
      </trkpt>
      <trkpt lat="47.69604" lon="-2.25823">
        <ele>47.7</ele>
        <time>2021-05-27T14:02:48Z</time>
      </trkpt>
      <trkpt lat="47.69603" lon="-2.25819">
        <ele>47.6</ele>
        <time>2021-05-27T14:02:49Z</time>
      </trkpt>
      <trkpt lat="47.69602" lon="-2.25815">
        <ele>47.6</ele>
        <time>2021-05-27T14:02:50Z</time>
      </trkpt>
      <trkpt lat="47.69602" lon="-2.2581">
        <ele>47.6</ele>
        <time>2021-05-27T14:02:51Z</time>
      </trkpt>
      <trkpt lat="47.69601" lon="-2.25805">
        <ele>47.6</ele>
        <time>2021-05-27T14:02:52Z</time>
      </trkpt>
      <trkpt lat="47.696" lon="-2.25801">
        <ele>47.6</ele>
        <time>2021-05-27T14:02:53Z</time>
      </trkpt>
      <trkpt lat="47.696" lon="-2.25798">
        <ele>47.6</ele>
        <time>2021-05-27T14:02:54Z</time>
      </trkpt>
      <trkpt lat="47.69599" lon="-2.25795">
        <ele>47.6</ele>
        <time>2021-05-27T14:02:55Z</time>
      </trkpt>
      <trkpt lat="47.69599" lon="-2.25792">
        <ele>47.6</ele>
        <time>2021-05-27T14:02:56Z</time>
      </trkpt>
      <trkpt lat="47.69598" lon="-2.25789">
        <ele>47.5</ele>
        <time>2021-05-27T14:02:57Z</time>
      </trkpt>
      <trkpt lat="47.69598" lon="-2.25786">
        <ele>47.5</ele>
        <time>2021-05-27T14:02:58Z</time>
      </trkpt>
      <trkpt lat="47.69597" lon="-2.25783">
        <ele>47.5</ele>
        <time>2021-05-27T14:02:59Z</time>
      </trkpt>
      <trkpt lat="47.69597" lon="-2.2578">
        <ele>47.4</ele>
        <time>2021-05-27T14:03:00Z</time>
      </trkpt>
      <trkpt lat="47.69596" lon="-2.25778">
        <ele>47.5</ele>
        <time>2021-05-27T14:03:01Z</time>
      </trkpt>
      <trkpt lat="47.69596" lon="-2.25774">
        <ele>47.5</ele>
        <time>2021-05-27T14:03:02Z</time>
      </trkpt>
      <trkpt lat="47.69595" lon="-2.25768">
        <ele>47.4</ele>
        <time>2021-05-27T14:03:03Z</time>
      </trkpt>
      <trkpt lat="47.69594" lon="-2.25764">
        <ele>47.4</ele>
        <time>2021-05-27T14:03:04Z</time>
      </trkpt>
      <trkpt lat="47.69594" lon="-2.25759">
        <ele>47.4</ele>
        <time>2021-05-27T14:03:05Z</time>
      </trkpt>
      <trkpt lat="47.69594" lon="-2.25755">
        <ele>47.4</ele>
        <time>2021-05-27T14:03:06Z</time>
      </trkpt>
      <trkpt lat="47.69594" lon="-2.25751">
        <ele>47.5</ele>
        <time>2021-05-27T14:03:07Z</time>
      </trkpt>
      <trkpt lat="47.69593" lon="-2.25748">
        <ele>47.4</ele>
        <time>2021-05-27T14:03:08Z</time>
      </trkpt>
      <trkpt lat="47.69592" lon="-2.25745">
        <ele>47.3</ele>
        <time>2021-05-27T14:03:09Z</time>
      </trkpt>
      <trkpt lat="47.69592" lon="-2.25742">
        <ele>47.3</ele>
        <time>2021-05-27T14:03:10Z</time>
      </trkpt>
      <trkpt lat="47.69592" lon="-2.2574">
        <ele>47.3</ele>
        <time>2021-05-27T14:03:11Z</time>
      </trkpt>
      <trkpt lat="47.69592" lon="-2.25737">
        <ele>47.4</ele>
        <time>2021-05-27T14:03:12Z</time>
      </trkpt>
      <trkpt lat="47.69592" lon="-2.25733">
        <ele>47.4</ele>
        <time>2021-05-27T14:03:13Z</time>
      </trkpt>
      <trkpt lat="47.6959" lon="-2.25728">
        <ele>47.3</ele>
        <time>2021-05-27T14:03:14Z</time>
      </trkpt>
      <trkpt lat="47.69589" lon="-2.25724">
        <ele>47.2</ele>
        <time>2021-05-27T14:03:15Z</time>
      </trkpt>
      <trkpt lat="47.69589" lon="-2.25719">
        <ele>47.2</ele>
        <time>2021-05-27T14:03:16Z</time>
      </trkpt>
      <trkpt lat="47.69588" lon="-2.25716">
        <ele>47.1</ele>
        <time>2021-05-27T14:03:17Z</time>
      </trkpt>
      <trkpt lat="47.69588" lon="-2.25712">
        <ele>47.1</ele>
        <time>2021-05-27T14:03:18Z</time>
      </trkpt>
      <trkpt lat="47.69587" lon="-2.25707">
        <ele>47</ele>
        <time>2021-05-27T14:03:19Z</time>
      </trkpt>
      <trkpt lat="47.69586" lon="-2.25702">
        <ele>47</ele>
        <time>2021-05-27T14:03:20Z</time>
      </trkpt>
      <trkpt lat="47.69586" lon="-2.25698">
        <ele>47</ele>
        <time>2021-05-27T14:03:21Z</time>
      </trkpt>
      <trkpt lat="47.69585" lon="-2.25694">
        <ele>46.9</ele>
        <time>2021-05-27T14:03:22Z</time>
      </trkpt>
      <trkpt lat="47.69585" lon="-2.2569">
        <ele>46.9</ele>
        <time>2021-05-27T14:03:23Z</time>
      </trkpt>
      <trkpt lat="47.69584" lon="-2.25688">
        <ele>46.9</ele>
        <time>2021-05-27T14:03:24Z</time>
      </trkpt>
      <trkpt lat="47.69583" lon="-2.25684">
        <ele>46.8</ele>
        <time>2021-05-27T14:03:25Z</time>
      </trkpt>
      <trkpt lat="47.69582" lon="-2.2568">
        <ele>46.7</ele>
        <time>2021-05-27T14:03:26Z</time>
      </trkpt>
      <trkpt lat="47.69582" lon="-2.25676">
        <ele>46.7</ele>
        <time>2021-05-27T14:03:27Z</time>
      </trkpt>
      <trkpt lat="47.69581" lon="-2.25672">
        <ele>46.7</ele>
        <time>2021-05-27T14:03:28Z</time>
      </trkpt>
      <trkpt lat="47.6958" lon="-2.25666">
        <ele>46.6</ele>
        <time>2021-05-27T14:03:29Z</time>
      </trkpt>
      <trkpt lat="47.69579" lon="-2.25662">
        <ele>46.8</ele>
        <time>2021-05-27T14:03:30Z</time>
      </trkpt>
      <trkpt lat="47.69579" lon="-2.25658">
        <ele>46.9</ele>
        <time>2021-05-27T14:03:31Z</time>
      </trkpt>
      <trkpt lat="47.69579" lon="-2.25654">
        <ele>47.1</ele>
        <time>2021-05-27T14:03:32Z</time>
      </trkpt>
      <trkpt lat="47.69579" lon="-2.25648">
        <ele>47.4</ele>
        <time>2021-05-27T14:03:33Z</time>
      </trkpt>
      <trkpt lat="47.69579" lon="-2.25643">
        <ele>47.6</ele>
        <time>2021-05-27T14:03:34Z</time>
      </trkpt>
      <trkpt lat="47.69578" lon="-2.25637">
        <ele>47.7</ele>
        <time>2021-05-27T14:03:35Z</time>
      </trkpt>
      <trkpt lat="47.69577" lon="-2.25633">
        <ele>47.9</ele>
        <time>2021-05-27T14:03:36Z</time>
      </trkpt>
      <trkpt lat="47.69577" lon="-2.25627">
        <ele>48</ele>
        <time>2021-05-27T14:03:37Z</time>
      </trkpt>
      <trkpt lat="47.69575" lon="-2.25623">
        <ele>48</ele>
        <time>2021-05-27T14:03:38Z</time>
      </trkpt>
      <trkpt lat="47.69574" lon="-2.25618">
        <ele>48.1</ele>
        <time>2021-05-27T14:03:39Z</time>
      </trkpt>
      <trkpt lat="47.69573" lon="-2.25613">
        <ele>48.1</ele>
        <time>2021-05-27T14:03:40Z</time>
      </trkpt>
      <trkpt lat="47.69572" lon="-2.25609">
        <ele>48.2</ele>
        <time>2021-05-27T14:03:41Z</time>
      </trkpt>
      <trkpt lat="47.69571" lon="-2.25603">
        <ele>48.3</ele>
        <time>2021-05-27T14:03:42Z</time>
      </trkpt>
      <trkpt lat="47.69571" lon="-2.25598">
        <ele>48.5</ele>
        <time>2021-05-27T14:03:43Z</time>
      </trkpt>
      <trkpt lat="47.6957" lon="-2.25594">
        <ele>48.7</ele>
        <time>2021-05-27T14:03:44Z</time>
      </trkpt>
      <trkpt lat="47.69569" lon="-2.2559">
        <ele>48.7</ele>
        <time>2021-05-27T14:03:45Z</time>
      </trkpt>
      <trkpt lat="47.69569" lon="-2.25587">
        <ele>48.8</ele>
        <time>2021-05-27T14:03:46Z</time>
      </trkpt>
      <trkpt lat="47.69568" lon="-2.25583">
        <ele>48.8</ele>
        <time>2021-05-27T14:03:47Z</time>
      </trkpt>
      <trkpt lat="47.69567" lon="-2.25579">
        <ele>48.8</ele>
        <time>2021-05-27T14:03:48Z</time>
      </trkpt>
      <trkpt lat="47.69566" lon="-2.25576">
        <ele>48.9</ele>
        <time>2021-05-27T14:03:49Z</time>
      </trkpt>
      <trkpt lat="47.69566" lon="-2.25573">
        <ele>49</ele>
        <time>2021-05-27T14:03:50Z</time>
      </trkpt>
      <trkpt lat="47.69565" lon="-2.2557">
        <ele>49.1</ele>
        <time>2021-05-27T14:03:51Z</time>
      </trkpt>
      <trkpt lat="47.69564" lon="-2.25566">
        <ele>49.2</ele>
        <time>2021-05-27T14:03:52Z</time>
      </trkpt>
      <trkpt lat="47.69564" lon="-2.25562">
        <ele>49.4</ele>
        <time>2021-05-27T14:03:53Z</time>
      </trkpt>
      <trkpt lat="47.69563" lon="-2.25558">
        <ele>49.5</ele>
        <time>2021-05-27T14:03:54Z</time>
      </trkpt>
      <trkpt lat="47.69561" lon="-2.25553">
        <ele>49.5</ele>
        <time>2021-05-27T14:03:55Z</time>
      </trkpt>
      <trkpt lat="47.69561" lon="-2.2555">
        <ele>49.7</ele>
        <time>2021-05-27T14:03:56Z</time>
      </trkpt>
      <trkpt lat="47.6956" lon="-2.25546">
        <ele>49.8</ele>
        <time>2021-05-27T14:03:57Z</time>
      </trkpt>
      <trkpt lat="47.6956" lon="-2.25542">
        <ele>50</ele>
        <time>2021-05-27T14:03:58Z</time>
      </trkpt>
      <trkpt lat="47.6956" lon="-2.25538">
        <ele>50.2</ele>
        <time>2021-05-27T14:03:59Z</time>
      </trkpt>
      <trkpt lat="47.6956" lon="-2.25535">
        <ele>50.4</ele>
        <time>2021-05-27T14:04:00Z</time>
      </trkpt>
      <trkpt lat="47.6956" lon="-2.25531">
        <ele>50.6</ele>
        <time>2021-05-27T14:04:01Z</time>
      </trkpt>
      <trkpt lat="47.69559" lon="-2.25527">
        <ele>50.7</ele>
        <time>2021-05-27T14:04:02Z</time>
      </trkpt>
      <trkpt lat="47.69559" lon="-2.25522">
        <ele>50.9</ele>
        <time>2021-05-27T14:04:03Z</time>
      </trkpt>
      <trkpt lat="47.69558" lon="-2.25518">
        <ele>51</ele>
        <time>2021-05-27T14:04:04Z</time>
      </trkpt>
      <trkpt lat="47.69557" lon="-2.25514">
        <ele>51.2</ele>
        <time>2021-05-27T14:04:05Z</time>
      </trkpt>
      <trkpt lat="47.69557" lon="-2.25511">
        <ele>51.3</ele>
        <time>2021-05-27T14:04:06Z</time>
      </trkpt>
      <trkpt lat="47.69556" lon="-2.25506">
        <ele>51.5</ele>
        <time>2021-05-27T14:04:07Z</time>
      </trkpt>
      <trkpt lat="47.69556" lon="-2.25501">
        <ele>51.6</ele>
        <time>2021-05-27T14:04:08Z</time>
      </trkpt>
      <trkpt lat="47.69556" lon="-2.25496">
        <ele>51.8</ele>
        <time>2021-05-27T14:04:09Z</time>
      </trkpt>
      <trkpt lat="47.69555" lon="-2.25491">
        <ele>51.8</ele>
        <time>2021-05-27T14:04:10Z</time>
      </trkpt>
      <trkpt lat="47.69555" lon="-2.25486">
        <ele>52</ele>
        <time>2021-05-27T14:04:11Z</time>
      </trkpt>
      <trkpt lat="47.69555" lon="-2.25482">
        <ele>52</ele>
        <time>2021-05-27T14:04:12Z</time>
      </trkpt>
      <trkpt lat="47.69554" lon="-2.25477">
        <ele>52</ele>
        <time>2021-05-27T14:04:13Z</time>
      </trkpt>
      <trkpt lat="47.69554" lon="-2.25472">
        <ele>52.1</ele>
        <time>2021-05-27T14:04:14Z</time>
      </trkpt>
      <trkpt lat="47.69553" lon="-2.25468">
        <ele>52.1</ele>
        <time>2021-05-27T14:04:15Z</time>
      </trkpt>
      <trkpt lat="47.69552" lon="-2.25464">
        <ele>52</ele>
        <time>2021-05-27T14:04:16Z</time>
      </trkpt>
      <trkpt lat="47.69551" lon="-2.2546">
        <ele>52</ele>
        <time>2021-05-27T14:04:17Z</time>
      </trkpt>
      <trkpt lat="47.69549" lon="-2.25456">
        <ele>51.9</ele>
        <time>2021-05-27T14:04:18Z</time>
      </trkpt>
      <trkpt lat="47.69548" lon="-2.25452">
        <ele>51.8</ele>
        <time>2021-05-27T14:04:19Z</time>
      </trkpt>
      <trkpt lat="47.69546" lon="-2.25447">
        <ele>51.7</ele>
        <time>2021-05-27T14:04:20Z</time>
      </trkpt>
      <trkpt lat="47.69545" lon="-2.25443">
        <ele>51.7</ele>
        <time>2021-05-27T14:04:21Z</time>
      </trkpt>
      <trkpt lat="47.69544" lon="-2.25438">
        <ele>51.6</ele>
        <time>2021-05-27T14:04:22Z</time>
      </trkpt>
      <trkpt lat="47.69542" lon="-2.25433">
        <ele>51.6</ele>
        <time>2021-05-27T14:04:23Z</time>
      </trkpt>
      <trkpt lat="47.69541" lon="-2.25427">
        <ele>51.6</ele>
        <time>2021-05-27T14:04:24Z</time>
      </trkpt>
      <trkpt lat="47.6954" lon="-2.25423">
        <ele>51.7</ele>
        <time>2021-05-27T14:04:25Z</time>
      </trkpt>
      <trkpt lat="47.6954" lon="-2.25417">
        <ele>51.8</ele>
        <time>2021-05-27T14:04:26Z</time>
      </trkpt>
      <trkpt lat="47.69539" lon="-2.25413">
        <ele>51.9</ele>
        <time>2021-05-27T14:04:27Z</time>
      </trkpt>
      <trkpt lat="47.69538" lon="-2.25408">
        <ele>52.1</ele>
        <time>2021-05-27T14:04:28Z</time>
      </trkpt>
      <trkpt lat="47.69537" lon="-2.25403">
        <ele>52.3</ele>
        <time>2021-05-27T14:04:29Z</time>
      </trkpt>
      <trkpt lat="47.69536" lon="-2.25398">
        <ele>52.4</ele>
        <time>2021-05-27T14:04:30Z</time>
      </trkpt>
      <trkpt lat="47.69535" lon="-2.25392">
        <ele>52.6</ele>
        <time>2021-05-27T14:04:31Z</time>
      </trkpt>
      <trkpt lat="47.69534" lon="-2.25387">
        <ele>52.8</ele>
        <time>2021-05-27T14:04:32Z</time>
      </trkpt>
      <trkpt lat="47.69533" lon="-2.2538">
        <ele>53.2</ele>
        <time>2021-05-27T14:04:33Z</time>
      </trkpt>
      <trkpt lat="47.69531" lon="-2.25373">
        <ele>53.4</ele>
        <time>2021-05-27T14:04:34Z</time>
      </trkpt>
      <trkpt lat="47.6953" lon="-2.25368">
        <ele>53.7</ele>
        <time>2021-05-27T14:04:35Z</time>
      </trkpt>
      <trkpt lat="47.69529" lon="-2.25362">
        <ele>53.9</ele>
        <time>2021-05-27T14:04:36Z</time>
      </trkpt>
      <trkpt lat="47.69527" lon="-2.25355">
        <ele>54.2</ele>
        <time>2021-05-27T14:04:37Z</time>
      </trkpt>
      <trkpt lat="47.69526" lon="-2.2535">
        <ele>54.5</ele>
        <time>2021-05-27T14:04:38Z</time>
      </trkpt>
      <trkpt lat="47.69525" lon="-2.25344">
        <ele>54.8</ele>
        <time>2021-05-27T14:04:39Z</time>
      </trkpt>
      <trkpt lat="47.69524" lon="-2.25339">
        <ele>55.1</ele>
        <time>2021-05-27T14:04:40Z</time>
      </trkpt>
      <trkpt lat="47.69524" lon="-2.25334">
        <ele>55.4</ele>
        <time>2021-05-27T14:04:41Z</time>
      </trkpt>
      <trkpt lat="47.69524" lon="-2.2533">
        <ele>55.6</ele>
        <time>2021-05-27T14:04:42Z</time>
      </trkpt>
      <trkpt lat="47.69525" lon="-2.25326">
        <ele>55.7</ele>
        <time>2021-05-27T14:04:43Z</time>
      </trkpt>
      <trkpt lat="47.69523" lon="-2.25324">
        <ele>55.8</ele>
        <time>2021-05-27T14:04:44Z</time>
      </trkpt>
      <trkpt lat="47.69523" lon="-2.25321">
        <ele>55.8</ele>
        <time>2021-05-27T14:04:45Z</time>
      </trkpt>
      <trkpt lat="47.69522" lon="-2.25318">
        <ele>55.9</ele>
        <time>2021-05-27T14:04:46Z</time>
      </trkpt>
      <trkpt lat="47.69522" lon="-2.25315">
        <ele>56</ele>
        <time>2021-05-27T14:04:47Z</time>
      </trkpt>
      <trkpt lat="47.69521" lon="-2.2531">
        <ele>56.2</ele>
        <time>2021-05-27T14:04:48Z</time>
      </trkpt>
      <trkpt lat="47.6952" lon="-2.25305">
        <ele>56.3</ele>
        <time>2021-05-27T14:04:49Z</time>
      </trkpt>
      <trkpt lat="47.69518" lon="-2.253">
        <ele>56.4</ele>
        <time>2021-05-27T14:04:50Z</time>
      </trkpt>
      <trkpt lat="47.69517" lon="-2.25295">
        <ele>56.6</ele>
        <time>2021-05-27T14:04:51Z</time>
      </trkpt>
      <trkpt lat="47.69516" lon="-2.2529">
        <ele>56.8</ele>
        <time>2021-05-27T14:04:52Z</time>
      </trkpt>
      <trkpt lat="47.69515" lon="-2.25283">
        <ele>57</ele>
        <time>2021-05-27T14:04:53Z</time>
      </trkpt>
      <trkpt lat="47.69514" lon="-2.25277">
        <ele>57.2</ele>
        <time>2021-05-27T14:04:54Z</time>
      </trkpt>
      <trkpt lat="47.69513" lon="-2.25271">
        <ele>57.4</ele>
        <time>2021-05-27T14:04:55Z</time>
      </trkpt>
      <trkpt lat="47.69511" lon="-2.25266">
        <ele>57.6</ele>
        <time>2021-05-27T14:04:56Z</time>
      </trkpt>
      <trkpt lat="47.6951" lon="-2.25261">
        <ele>57.7</ele>
        <time>2021-05-27T14:04:57Z</time>
      </trkpt>
      <trkpt lat="47.69509" lon="-2.25256">
        <ele>57.9</ele>
        <time>2021-05-27T14:04:58Z</time>
      </trkpt>
      <trkpt lat="47.69507" lon="-2.25252">
        <ele>58.1</ele>
        <time>2021-05-27T14:04:59Z</time>
      </trkpt>
      <trkpt lat="47.69506" lon="-2.25247">
        <ele>58.1</ele>
        <time>2021-05-27T14:05:00Z</time>
      </trkpt>
      <trkpt lat="47.69504" lon="-2.25243">
        <ele>58</ele>
        <time>2021-05-27T14:05:01Z</time>
      </trkpt>
      <trkpt lat="47.69504" lon="-2.25239">
        <ele>57.9</ele>
        <time>2021-05-27T14:05:02Z</time>
      </trkpt>
      <trkpt lat="47.69503" lon="-2.25235">
        <ele>57.7</ele>
        <time>2021-05-27T14:05:03Z</time>
      </trkpt>
      <trkpt lat="47.69502" lon="-2.25231">
        <ele>57.6</ele>
        <time>2021-05-27T14:05:04Z</time>
      </trkpt>
      <trkpt lat="47.69501" lon="-2.25226">
        <ele>57.4</ele>
        <time>2021-05-27T14:05:05Z</time>
      </trkpt>
      <trkpt lat="47.695" lon="-2.25221">
        <ele>57.3</ele>
        <time>2021-05-27T14:05:06Z</time>
      </trkpt>
      <trkpt lat="47.69499" lon="-2.25217">
        <ele>57.1</ele>
        <time>2021-05-27T14:05:07Z</time>
      </trkpt>
      <trkpt lat="47.69499" lon="-2.25213">
        <ele>56.9</ele>
        <time>2021-05-27T14:05:08Z</time>
      </trkpt>
      <trkpt lat="47.69498" lon="-2.2521">
        <ele>56.8</ele>
        <time>2021-05-27T14:05:09Z</time>
      </trkpt>
      <trkpt lat="47.69498" lon="-2.25206">
        <ele>56.6</ele>
        <time>2021-05-27T14:05:10Z</time>
      </trkpt>
      <trkpt lat="47.69497" lon="-2.25203">
        <ele>56.4</ele>
        <time>2021-05-27T14:05:11Z</time>
      </trkpt>
      <trkpt lat="47.69496" lon="-2.25199">
        <ele>56.2</ele>
        <time>2021-05-27T14:05:12Z</time>
      </trkpt>
      <trkpt lat="47.69495" lon="-2.25196">
        <ele>56.1</ele>
        <time>2021-05-27T14:05:13Z</time>
      </trkpt>
      <trkpt lat="47.69495" lon="-2.25193">
        <ele>56</ele>
        <time>2021-05-27T14:05:14Z</time>
      </trkpt>
      <trkpt lat="47.69495" lon="-2.2519">
        <ele>55.9</ele>
        <time>2021-05-27T14:05:15Z</time>
      </trkpt>
      <trkpt lat="47.69495" lon="-2.25186">
        <ele>55.9</ele>
        <time>2021-05-27T14:05:16Z</time>
      </trkpt>
      <trkpt lat="47.69496" lon="-2.25183">
        <ele>55.9</ele>
        <time>2021-05-27T14:05:17Z</time>
      </trkpt>
      <trkpt lat="47.69496" lon="-2.25179">
        <ele>55.8</ele>
        <time>2021-05-27T14:05:18Z</time>
      </trkpt>
      <trkpt lat="47.69496" lon="-2.25176">
        <ele>55.7</ele>
        <time>2021-05-27T14:05:19Z</time>
      </trkpt>
      <trkpt lat="47.69497" lon="-2.25172">
        <ele>55.7</ele>
        <time>2021-05-27T14:05:20Z</time>
      </trkpt>
      <trkpt lat="47.69497" lon="-2.25167">
        <ele>55.7</ele>
        <time>2021-05-27T14:05:21Z</time>
      </trkpt>
      <trkpt lat="47.69497" lon="-2.25163">
        <ele>55.7</ele>
        <time>2021-05-27T14:05:22Z</time>
      </trkpt>
      <trkpt lat="47.69496" lon="-2.25159">
        <ele>55.8</ele>
        <time>2021-05-27T14:05:23Z</time>
      </trkpt>
      <trkpt lat="47.69497" lon="-2.25155">
        <ele>55.9</ele>
        <time>2021-05-27T14:05:24Z</time>
      </trkpt>
      <trkpt lat="47.69497" lon="-2.25151">
        <ele>56.1</ele>
        <time>2021-05-27T14:05:25Z</time>
      </trkpt>
      <trkpt lat="47.69497" lon="-2.25147">
        <ele>56.2</ele>
        <time>2021-05-27T14:05:26Z</time>
      </trkpt>
      <trkpt lat="47.69497" lon="-2.25143">
        <ele>56.2</ele>
        <time>2021-05-27T14:05:27Z</time>
      </trkpt>
      <trkpt lat="47.69497" lon="-2.25139">
        <ele>56.3</ele>
        <time>2021-05-27T14:05:28Z</time>
      </trkpt>
      <trkpt lat="47.69497" lon="-2.25134">
        <ele>56.5</ele>
        <time>2021-05-27T14:05:29Z</time>
      </trkpt>
      <trkpt lat="47.69497" lon="-2.2513">
        <ele>56.6</ele>
        <time>2021-05-27T14:05:30Z</time>
      </trkpt>
      <trkpt lat="47.69498" lon="-2.25124">
        <ele>56.8</ele>
        <time>2021-05-27T14:05:31Z</time>
      </trkpt>
      <trkpt lat="47.69497" lon="-2.25119">
        <ele>56.8</ele>
        <time>2021-05-27T14:05:32Z</time>
      </trkpt>
      <trkpt lat="47.69496" lon="-2.25115">
        <ele>56.8</ele>
        <time>2021-05-27T14:05:33Z</time>
      </trkpt>
      <trkpt lat="47.69495" lon="-2.2511">
        <ele>56.8</ele>
        <time>2021-05-27T14:05:34Z</time>
      </trkpt>
      <trkpt lat="47.69494" lon="-2.25106">
        <ele>56.8</ele>
        <time>2021-05-27T14:05:35Z</time>
      </trkpt>
      <trkpt lat="47.69493" lon="-2.25101">
        <ele>56.8</ele>
        <time>2021-05-27T14:05:36Z</time>
      </trkpt>
      <trkpt lat="47.69493" lon="-2.25097">
        <ele>56.9</ele>
        <time>2021-05-27T14:05:37Z</time>
      </trkpt>
      <trkpt lat="47.69492" lon="-2.25092">
        <ele>56.9</ele>
        <time>2021-05-27T14:05:38Z</time>
      </trkpt>
      <trkpt lat="47.69491" lon="-2.25088">
        <ele>56.9</ele>
        <time>2021-05-27T14:05:39Z</time>
      </trkpt>
      <trkpt lat="47.69491" lon="-2.25083">
        <ele>57</ele>
        <time>2021-05-27T14:05:40Z</time>
      </trkpt>
      <trkpt lat="47.69492" lon="-2.25078">
        <ele>57.3</ele>
        <time>2021-05-27T14:05:41Z</time>
      </trkpt>
      <trkpt lat="47.69492" lon="-2.25073">
        <ele>57.4</ele>
        <time>2021-05-27T14:05:42Z</time>
      </trkpt>
      <trkpt lat="47.69491" lon="-2.25068">
        <ele>57.6</ele>
        <time>2021-05-27T14:05:43Z</time>
      </trkpt>
      <trkpt lat="47.6949" lon="-2.25064">
        <ele>57.6</ele>
        <time>2021-05-27T14:05:44Z</time>
      </trkpt>
      <trkpt lat="47.6949" lon="-2.2506">
        <ele>57.7</ele>
        <time>2021-05-27T14:05:45Z</time>
      </trkpt>
      <trkpt lat="47.69489" lon="-2.25055">
        <ele>57.8</ele>
        <time>2021-05-27T14:05:46Z</time>
      </trkpt>
      <trkpt lat="47.69489" lon="-2.25049">
        <ele>57.9</ele>
        <time>2021-05-27T14:05:47Z</time>
      </trkpt>
      <trkpt lat="47.69489" lon="-2.25045">
        <ele>58.1</ele>
        <time>2021-05-27T14:05:48Z</time>
      </trkpt>
      <trkpt lat="47.6949" lon="-2.2504">
        <ele>58.3</ele>
        <time>2021-05-27T14:05:49Z</time>
      </trkpt>
      <trkpt lat="47.6949" lon="-2.25036">
        <ele>58.5</ele>
        <time>2021-05-27T14:05:50Z</time>
      </trkpt>
      <trkpt lat="47.69489" lon="-2.2503">
        <ele>58.6</ele>
        <time>2021-05-27T14:05:51Z</time>
      </trkpt>
      <trkpt lat="47.69489" lon="-2.25025">
        <ele>58.7</ele>
        <time>2021-05-27T14:05:52Z</time>
      </trkpt>
      <trkpt lat="47.69489" lon="-2.2502">
        <ele>58.9</ele>
        <time>2021-05-27T14:05:53Z</time>
      </trkpt>
      <trkpt lat="47.69489" lon="-2.25015">
        <ele>59</ele>
        <time>2021-05-27T14:05:54Z</time>
      </trkpt>
      <trkpt lat="47.69489" lon="-2.25009">
        <ele>59.2</ele>
        <time>2021-05-27T14:05:55Z</time>
      </trkpt>
      <trkpt lat="47.69489" lon="-2.25003">
        <ele>59.5</ele>
        <time>2021-05-27T14:05:56Z</time>
      </trkpt>
      <trkpt lat="47.69489" lon="-2.24996">
        <ele>59.7</ele>
        <time>2021-05-27T14:05:57Z</time>
      </trkpt>
      <trkpt lat="47.69489" lon="-2.24991">
        <ele>59.7</ele>
        <time>2021-05-27T14:05:58Z</time>
      </trkpt>
      <trkpt lat="47.69488" lon="-2.24986">
        <ele>59.7</ele>
        <time>2021-05-27T14:05:59Z</time>
      </trkpt>
      <trkpt lat="47.69487" lon="-2.24979">
        <ele>59.7</ele>
        <time>2021-05-27T14:06:00Z</time>
      </trkpt>
      <trkpt lat="47.69486" lon="-2.24973">
        <ele>59.7</ele>
        <time>2021-05-27T14:06:01Z</time>
      </trkpt>
      <trkpt lat="47.69486" lon="-2.24968">
        <ele>59.7</ele>
        <time>2021-05-27T14:06:02Z</time>
      </trkpt>
      <trkpt lat="47.69485" lon="-2.24962">
        <ele>59.8</ele>
        <time>2021-05-27T14:06:03Z</time>
      </trkpt>
      <trkpt lat="47.69484" lon="-2.24957">
        <ele>59.8</ele>
        <time>2021-05-27T14:06:04Z</time>
      </trkpt>
      <trkpt lat="47.69484" lon="-2.24951">
        <ele>59.8</ele>
        <time>2021-05-27T14:06:05Z</time>
      </trkpt>
      <trkpt lat="47.69484" lon="-2.24944">
        <ele>59.9</ele>
        <time>2021-05-27T14:06:06Z</time>
      </trkpt>
      <trkpt lat="47.69483" lon="-2.24938">
        <ele>60</ele>
        <time>2021-05-27T14:06:07Z</time>
      </trkpt>
      <trkpt lat="47.69483" lon="-2.24933">
        <ele>60.1</ele>
        <time>2021-05-27T14:06:08Z</time>
      </trkpt>
      <trkpt lat="47.69484" lon="-2.24927">
        <ele>60.2</ele>
        <time>2021-05-27T14:06:09Z</time>
      </trkpt>
      <trkpt lat="47.69484" lon="-2.24921">
        <ele>60.5</ele>
        <time>2021-05-27T14:06:10Z</time>
      </trkpt>
      <trkpt lat="47.69485" lon="-2.24914">
        <ele>60.6</ele>
        <time>2021-05-27T14:06:11Z</time>
      </trkpt>
      <trkpt lat="47.69485" lon="-2.24907">
        <ele>60.6</ele>
        <time>2021-05-27T14:06:12Z</time>
      </trkpt>
      <trkpt lat="47.69485" lon="-2.24901">
        <ele>60.6</ele>
        <time>2021-05-27T14:06:13Z</time>
      </trkpt>
      <trkpt lat="47.69486" lon="-2.24896">
        <ele>60.6</ele>
        <time>2021-05-27T14:06:14Z</time>
      </trkpt>
      <trkpt lat="47.69486" lon="-2.2489">
        <ele>60.7</ele>
        <time>2021-05-27T14:06:15Z</time>
      </trkpt>
      <trkpt lat="47.69486" lon="-2.24885">
        <ele>60.6</ele>
        <time>2021-05-27T14:06:16Z</time>
      </trkpt>
      <trkpt lat="47.69486" lon="-2.24879">
        <ele>60.6</ele>
        <time>2021-05-27T14:06:17Z</time>
      </trkpt>
      <trkpt lat="47.69486" lon="-2.24875">
        <ele>60.6</ele>
        <time>2021-05-27T14:06:18Z</time>
      </trkpt>
      <trkpt lat="47.69486" lon="-2.24869">
        <ele>60.5</ele>
        <time>2021-05-27T14:06:19Z</time>
      </trkpt>
      <trkpt lat="47.69486" lon="-2.24864">
        <ele>60.5</ele>
        <time>2021-05-27T14:06:20Z</time>
      </trkpt>
      <trkpt lat="47.69486" lon="-2.24858">
        <ele>60.5</ele>
        <time>2021-05-27T14:06:21Z</time>
      </trkpt>
      <trkpt lat="47.69487" lon="-2.24852">
        <ele>60.5</ele>
        <time>2021-05-27T14:06:22Z</time>
      </trkpt>
      <trkpt lat="47.69486" lon="-2.24847">
        <ele>60.4</ele>
        <time>2021-05-27T14:06:23Z</time>
      </trkpt>
      <trkpt lat="47.69487" lon="-2.24841">
        <ele>60.4</ele>
        <time>2021-05-27T14:06:24Z</time>
      </trkpt>
      <trkpt lat="47.69488" lon="-2.24834">
        <ele>60.6</ele>
        <time>2021-05-27T14:06:25Z</time>
      </trkpt>
      <trkpt lat="47.69489" lon="-2.24828">
        <ele>60.7</ele>
        <time>2021-05-27T14:06:26Z</time>
      </trkpt>
      <trkpt lat="47.69489" lon="-2.24823">
        <ele>60.8</ele>
        <time>2021-05-27T14:06:27Z</time>
      </trkpt>
      <trkpt lat="47.69488" lon="-2.24817">
        <ele>60.8</ele>
        <time>2021-05-27T14:06:28Z</time>
      </trkpt>
      <trkpt lat="47.69488" lon="-2.24812">
        <ele>60.9</ele>
        <time>2021-05-27T14:06:29Z</time>
      </trkpt>
      <trkpt lat="47.69488" lon="-2.24806">
        <ele>60.9</ele>
        <time>2021-05-27T14:06:30Z</time>
      </trkpt>
      <trkpt lat="47.69487" lon="-2.248">
        <ele>60.9</ele>
        <time>2021-05-27T14:06:31Z</time>
      </trkpt>
      <trkpt lat="47.69487" lon="-2.24794">
        <ele>61</ele>
        <time>2021-05-27T14:06:32Z</time>
      </trkpt>
      <trkpt lat="47.69488" lon="-2.24788">
        <ele>61.1</ele>
        <time>2021-05-27T14:06:33Z</time>
      </trkpt>
      <trkpt lat="47.69487" lon="-2.24782">
        <ele>61.1</ele>
        <time>2021-05-27T14:06:34Z</time>
      </trkpt>
      <trkpt lat="47.69487" lon="-2.24776">
        <ele>61.1</ele>
        <time>2021-05-27T14:06:35Z</time>
      </trkpt>
      <trkpt lat="47.69487" lon="-2.24771">
        <ele>61.1</ele>
        <time>2021-05-27T14:06:36Z</time>
      </trkpt>
      <trkpt lat="47.69486" lon="-2.24767">
        <ele>61.1</ele>
        <time>2021-05-27T14:06:37Z</time>
      </trkpt>
      <trkpt lat="47.69485" lon="-2.24762">
        <ele>61.1</ele>
        <time>2021-05-27T14:06:38Z</time>
      </trkpt>
      <trkpt lat="47.69485" lon="-2.24757">
        <ele>61.2</ele>
        <time>2021-05-27T14:06:39Z</time>
      </trkpt>
      <trkpt lat="47.69485" lon="-2.24751">
        <ele>61.2</ele>
        <time>2021-05-27T14:06:40Z</time>
      </trkpt>
      <trkpt lat="47.69486" lon="-2.24746">
        <ele>61.4</ele>
        <time>2021-05-27T14:06:41Z</time>
      </trkpt>
      <trkpt lat="47.69486" lon="-2.24739">
        <ele>61.4</ele>
        <time>2021-05-27T14:06:42Z</time>
      </trkpt>
      <trkpt lat="47.69485" lon="-2.24733">
        <ele>61.4</ele>
        <time>2021-05-27T14:06:43Z</time>
      </trkpt>
      <trkpt lat="47.69484" lon="-2.24725">
        <ele>61.3</ele>
        <time>2021-05-27T14:06:44Z</time>
      </trkpt>
      <trkpt lat="47.69483" lon="-2.24719">
        <ele>61.2</ele>
        <time>2021-05-27T14:06:45Z</time>
      </trkpt>
      <trkpt lat="47.69481" lon="-2.24713">
        <ele>61.1</ele>
        <time>2021-05-27T14:06:46Z</time>
      </trkpt>
      <trkpt lat="47.69481" lon="-2.24707">
        <ele>61.1</ele>
        <time>2021-05-27T14:06:47Z</time>
      </trkpt>
      <trkpt lat="47.69481" lon="-2.24702">
        <ele>61.2</ele>
        <time>2021-05-27T14:06:48Z</time>
      </trkpt>
      <trkpt lat="47.6948" lon="-2.24696">
        <ele>61.1</ele>
        <time>2021-05-27T14:06:49Z</time>
      </trkpt>
      <trkpt lat="47.69479" lon="-2.2469">
        <ele>61.1</ele>
        <time>2021-05-27T14:06:50Z</time>
      </trkpt>
      <trkpt lat="47.69479" lon="-2.24684">
        <ele>61</ele>
        <time>2021-05-27T14:06:51Z</time>
      </trkpt>
      <trkpt lat="47.69479" lon="-2.24677">
        <ele>61.1</ele>
        <time>2021-05-27T14:06:52Z</time>
      </trkpt>
      <trkpt lat="47.69479" lon="-2.24669">
        <ele>61.2</ele>
        <time>2021-05-27T14:06:53Z</time>
      </trkpt>
      <trkpt lat="47.69479" lon="-2.24662">
        <ele>61.3</ele>
        <time>2021-05-27T14:06:54Z</time>
      </trkpt>
      <trkpt lat="47.69479" lon="-2.24656">
        <ele>61.4</ele>
        <time>2021-05-27T14:06:55Z</time>
      </trkpt>
      <trkpt lat="47.69478" lon="-2.2465">
        <ele>61.5</ele>
        <time>2021-05-27T14:06:56Z</time>
      </trkpt>
      <trkpt lat="47.69478" lon="-2.24644">
        <ele>61.5</ele>
        <time>2021-05-27T14:06:57Z</time>
      </trkpt>
      <trkpt lat="47.69477" lon="-2.2464">
        <ele>61.6</ele>
        <time>2021-05-27T14:06:58Z</time>
      </trkpt>
      <trkpt lat="47.69477" lon="-2.24633">
        <ele>61.7</ele>
        <time>2021-05-27T14:06:59Z</time>
      </trkpt>
      <trkpt lat="47.69477" lon="-2.24628">
        <ele>61.8</ele>
        <time>2021-05-27T14:07:00Z</time>
      </trkpt>
      <trkpt lat="47.69477" lon="-2.24622">
        <ele>62</ele>
        <time>2021-05-27T14:07:01Z</time>
      </trkpt>
      <trkpt lat="47.69477" lon="-2.24616">
        <ele>62.1</ele>
        <time>2021-05-27T14:07:02Z</time>
      </trkpt>
      <trkpt lat="47.69477" lon="-2.2461">
        <ele>62.1</ele>
        <time>2021-05-27T14:07:03Z</time>
      </trkpt>
      <trkpt lat="47.69477" lon="-2.24604">
        <ele>62.3</ele>
        <time>2021-05-27T14:07:04Z</time>
      </trkpt>
      <trkpt lat="47.69477" lon="-2.24597">
        <ele>62.3</ele>
        <time>2021-05-27T14:07:05Z</time>
      </trkpt>
      <trkpt lat="47.69476" lon="-2.24591">
        <ele>62.4</ele>
        <time>2021-05-27T14:07:06Z</time>
      </trkpt>
      <trkpt lat="47.69475" lon="-2.24585">
        <ele>62.4</ele>
        <time>2021-05-27T14:07:07Z</time>
      </trkpt>
      <trkpt lat="47.69475" lon="-2.24579">
        <ele>62.5</ele>
        <time>2021-05-27T14:07:08Z</time>
      </trkpt>
      <trkpt lat="47.69475" lon="-2.24574">
        <ele>62.6</ele>
        <time>2021-05-27T14:07:09Z</time>
      </trkpt>
      <trkpt lat="47.69475" lon="-2.24568">
        <ele>62.7</ele>
        <time>2021-05-27T14:07:10Z</time>
      </trkpt>
      <trkpt lat="47.69475" lon="-2.24562">
        <ele>62.8</ele>
        <time>2021-05-27T14:07:11Z</time>
      </trkpt>
      <trkpt lat="47.69475" lon="-2.24556">
        <ele>62.9</ele>
        <time>2021-05-27T14:07:12Z</time>
      </trkpt>
      <trkpt lat="47.69474" lon="-2.2455">
        <ele>63</ele>
        <time>2021-05-27T14:07:13Z</time>
      </trkpt>
      <trkpt lat="47.69474" lon="-2.24543">
        <ele>63</ele>
        <time>2021-05-27T14:07:14Z</time>
      </trkpt>
      <trkpt lat="47.69473" lon="-2.24536">
        <ele>63.1</ele>
        <time>2021-05-27T14:07:15Z</time>
      </trkpt>
      <trkpt lat="47.69473" lon="-2.2453">
        <ele>63.1</ele>
        <time>2021-05-27T14:07:16Z</time>
      </trkpt>
      <trkpt lat="47.69473" lon="-2.24525">
        <ele>63.2</ele>
        <time>2021-05-27T14:07:17Z</time>
      </trkpt>
      <trkpt lat="47.69472" lon="-2.2452">
        <ele>63.3</ele>
        <time>2021-05-27T14:07:18Z</time>
      </trkpt>
      <trkpt lat="47.69471" lon="-2.24516">
        <ele>63.3</ele>
        <time>2021-05-27T14:07:19Z</time>
      </trkpt>
      <trkpt lat="47.69471" lon="-2.24511">
        <ele>63.3</ele>
        <time>2021-05-27T14:07:20Z</time>
      </trkpt>
      <trkpt lat="47.6947" lon="-2.24507">
        <ele>63.3</ele>
        <time>2021-05-27T14:07:21Z</time>
      </trkpt>
      <trkpt lat="47.69471" lon="-2.24503">
        <ele>63.4</ele>
        <time>2021-05-27T14:07:22Z</time>
      </trkpt>
      <trkpt lat="47.69471" lon="-2.24498">
        <ele>63.5</ele>
        <time>2021-05-27T14:07:23Z</time>
      </trkpt>
      <trkpt lat="47.6947" lon="-2.24493">
        <ele>63.4</ele>
        <time>2021-05-27T14:07:24Z</time>
      </trkpt>
      <trkpt lat="47.69469" lon="-2.24488">
        <ele>63.4</ele>
        <time>2021-05-27T14:07:25Z</time>
      </trkpt>
      <trkpt lat="47.69469" lon="-2.24482">
        <ele>63.4</ele>
        <time>2021-05-27T14:07:26Z</time>
      </trkpt>
      <trkpt lat="47.69469" lon="-2.24476">
        <ele>63.4</ele>
        <time>2021-05-27T14:07:27Z</time>
      </trkpt>
      <trkpt lat="47.6947" lon="-2.24471">
        <ele>63.5</ele>
        <time>2021-05-27T14:07:28Z</time>
      </trkpt>
      <trkpt lat="47.69469" lon="-2.24464">
        <ele>63.5</ele>
        <time>2021-05-27T14:07:29Z</time>
      </trkpt>
      <trkpt lat="47.69469" lon="-2.24458">
        <ele>63.4</ele>
        <time>2021-05-27T14:07:30Z</time>
      </trkpt>
      <trkpt lat="47.69468" lon="-2.24452">
        <ele>63.4</ele>
        <time>2021-05-27T14:07:31Z</time>
      </trkpt>
      <trkpt lat="47.69467" lon="-2.24446">
        <ele>63.3</ele>
        <time>2021-05-27T14:07:32Z</time>
      </trkpt>
      <trkpt lat="47.69467" lon="-2.24439">
        <ele>63.3</ele>
        <time>2021-05-27T14:07:33Z</time>
      </trkpt>
      <trkpt lat="47.69467" lon="-2.24433">
        <ele>63.3</ele>
        <time>2021-05-27T14:07:34Z</time>
      </trkpt>
      <trkpt lat="47.69467" lon="-2.24426">
        <ele>63.3</ele>
        <time>2021-05-27T14:07:35Z</time>
      </trkpt>
      <trkpt lat="47.69467" lon="-2.24419">
        <ele>63.4</ele>
        <time>2021-05-27T14:07:36Z</time>
      </trkpt>
      <trkpt lat="47.69466" lon="-2.24413">
        <ele>63.4</ele>
        <time>2021-05-27T14:07:37Z</time>
      </trkpt>
      <trkpt lat="47.69466" lon="-2.24407">
        <ele>63.5</ele>
        <time>2021-05-27T14:07:38Z</time>
      </trkpt>
      <trkpt lat="47.69465" lon="-2.244">
        <ele>63.5</ele>
        <time>2021-05-27T14:07:39Z</time>
      </trkpt>
      <trkpt lat="47.69465" lon="-2.24394">
        <ele>63.6</ele>
        <time>2021-05-27T14:07:40Z</time>
      </trkpt>
      <trkpt lat="47.69464" lon="-2.24388">
        <ele>63.6</ele>
        <time>2021-05-27T14:07:41Z</time>
      </trkpt>
      <trkpt lat="47.69464" lon="-2.24382">
        <ele>63.7</ele>
        <time>2021-05-27T14:07:42Z</time>
      </trkpt>
      <trkpt lat="47.69464" lon="-2.24376">
        <ele>63.9</ele>
        <time>2021-05-27T14:07:43Z</time>
      </trkpt>
      <trkpt lat="47.69465" lon="-2.24371">
        <ele>64</ele>
        <time>2021-05-27T14:07:44Z</time>
      </trkpt>
      <trkpt lat="47.69465" lon="-2.24365">
        <ele>64.1</ele>
        <time>2021-05-27T14:07:45Z</time>
      </trkpt>
      <trkpt lat="47.69465" lon="-2.24359">
        <ele>64.2</ele>
        <time>2021-05-27T14:07:46Z</time>
      </trkpt>
      <trkpt lat="47.69465" lon="-2.24353">
        <ele>64.3</ele>
        <time>2021-05-27T14:07:47Z</time>
      </trkpt>
      <trkpt lat="47.69465" lon="-2.24348">
        <ele>64.4</ele>
        <time>2021-05-27T14:07:48Z</time>
      </trkpt>
      <trkpt lat="47.69465" lon="-2.24342">
        <ele>64.5</ele>
        <time>2021-05-27T14:07:49Z</time>
      </trkpt>
      <trkpt lat="47.69464" lon="-2.24336">
        <ele>64.5</ele>
        <time>2021-05-27T14:07:50Z</time>
      </trkpt>
      <trkpt lat="47.69464" lon="-2.2433">
        <ele>64.6</ele>
        <time>2021-05-27T14:07:51Z</time>
      </trkpt>
      <trkpt lat="47.69463" lon="-2.24323">
        <ele>64.6</ele>
        <time>2021-05-27T14:07:52Z</time>
      </trkpt>
      <trkpt lat="47.69463" lon="-2.24317">
        <ele>64.7</ele>
        <time>2021-05-27T14:07:53Z</time>
      </trkpt>
      <trkpt lat="47.69464" lon="-2.24311">
        <ele>64.9</ele>
        <time>2021-05-27T14:07:54Z</time>
      </trkpt>
      <trkpt lat="47.69464" lon="-2.24305">
        <ele>65.1</ele>
        <time>2021-05-27T14:07:55Z</time>
      </trkpt>
      <trkpt lat="47.69465" lon="-2.243">
        <ele>65.2</ele>
        <time>2021-05-27T14:07:56Z</time>
      </trkpt>
      <trkpt lat="47.69465" lon="-2.24295">
        <ele>65.3</ele>
        <time>2021-05-27T14:07:57Z</time>
      </trkpt>
      <trkpt lat="47.69465" lon="-2.2429">
        <ele>65.4</ele>
        <time>2021-05-27T14:07:58Z</time>
      </trkpt>
      <trkpt lat="47.69464" lon="-2.24286">
        <ele>65.3</ele>
        <time>2021-05-27T14:07:59Z</time>
      </trkpt>
      <trkpt lat="47.69462" lon="-2.24281">
        <ele>65.3</ele>
        <time>2021-05-27T14:08:00Z</time>
      </trkpt>
      <trkpt lat="47.69461" lon="-2.24276">
        <ele>65.3</ele>
        <time>2021-05-27T14:08:01Z</time>
      </trkpt>
      <trkpt lat="47.69461" lon="-2.2427">
        <ele>65.4</ele>
        <time>2021-05-27T14:08:02Z</time>
      </trkpt>
      <trkpt lat="47.69461" lon="-2.24264">
        <ele>65.5</ele>
        <time>2021-05-27T14:08:03Z</time>
      </trkpt>
      <trkpt lat="47.6946" lon="-2.24258">
        <ele>65.5</ele>
        <time>2021-05-27T14:08:04Z</time>
      </trkpt>
      <trkpt lat="47.69459" lon="-2.24253">
        <ele>65.5</ele>
        <time>2021-05-27T14:08:05Z</time>
      </trkpt>
      <trkpt lat="47.69458" lon="-2.24248">
        <ele>65.5</ele>
        <time>2021-05-27T14:08:06Z</time>
      </trkpt>
      <trkpt lat="47.69457" lon="-2.24243">
        <ele>65.4</ele>
        <time>2021-05-27T14:08:07Z</time>
      </trkpt>
      <trkpt lat="47.69456" lon="-2.24238">
        <ele>65.3</ele>
        <time>2021-05-27T14:08:08Z</time>
      </trkpt>
      <trkpt lat="47.69455" lon="-2.24232">
        <ele>65.2</ele>
        <time>2021-05-27T14:08:09Z</time>
      </trkpt>
      <trkpt lat="47.69455" lon="-2.24227">
        <ele>65.2</ele>
        <time>2021-05-27T14:08:10Z</time>
      </trkpt>
      <trkpt lat="47.69455" lon="-2.24222">
        <ele>65.2</ele>
        <time>2021-05-27T14:08:11Z</time>
      </trkpt>
      <trkpt lat="47.69456" lon="-2.24216">
        <ele>65.3</ele>
        <time>2021-05-27T14:08:12Z</time>
      </trkpt>
      <trkpt lat="47.69456" lon="-2.2421">
        <ele>65.3</ele>
        <time>2021-05-27T14:08:13Z</time>
      </trkpt>
      <trkpt lat="47.69456" lon="-2.24203">
        <ele>65.3</ele>
        <time>2021-05-27T14:08:14Z</time>
      </trkpt>
      <trkpt lat="47.69457" lon="-2.24198">
        <ele>65.3</ele>
        <time>2021-05-27T14:08:15Z</time>
      </trkpt>
      <trkpt lat="47.69456" lon="-2.24192">
        <ele>65.3</ele>
        <time>2021-05-27T14:08:16Z</time>
      </trkpt>
      <trkpt lat="47.69455" lon="-2.24187">
        <ele>65.3</ele>
        <time>2021-05-27T14:08:17Z</time>
      </trkpt>
      <trkpt lat="47.69455" lon="-2.24182">
        <ele>65.2</ele>
        <time>2021-05-27T14:08:18Z</time>
      </trkpt>
      <trkpt lat="47.69455" lon="-2.24177">
        <ele>65.2</ele>
        <time>2021-05-27T14:08:19Z</time>
      </trkpt>
      <trkpt lat="47.69455" lon="-2.24172">
        <ele>65.2</ele>
        <time>2021-05-27T14:08:20Z</time>
      </trkpt>
      <trkpt lat="47.69455" lon="-2.24167">
        <ele>65.2</ele>
        <time>2021-05-27T14:08:21Z</time>
      </trkpt>
      <trkpt lat="47.69454" lon="-2.24161">
        <ele>65.3</ele>
        <time>2021-05-27T14:08:22Z</time>
      </trkpt>
      <trkpt lat="47.69453" lon="-2.24156">
        <ele>65.3</ele>
        <time>2021-05-27T14:08:23Z</time>
      </trkpt>
      <trkpt lat="47.69451" lon="-2.2415">
        <ele>65.3</ele>
        <time>2021-05-27T14:08:24Z</time>
      </trkpt>
      <trkpt lat="47.69449" lon="-2.24145">
        <ele>65.3</ele>
        <time>2021-05-27T14:08:25Z</time>
      </trkpt>
      <trkpt lat="47.69448" lon="-2.2414">
        <ele>65.4</ele>
        <time>2021-05-27T14:08:26Z</time>
      </trkpt>
      <trkpt lat="47.69446" lon="-2.24134">
        <ele>65.4</ele>
        <time>2021-05-27T14:08:27Z</time>
      </trkpt>
      <trkpt lat="47.69445" lon="-2.24129">
        <ele>65.4</ele>
        <time>2021-05-27T14:08:28Z</time>
      </trkpt>
      <trkpt lat="47.69444" lon="-2.24123">
        <ele>65.5</ele>
        <time>2021-05-27T14:08:29Z</time>
      </trkpt>
      <trkpt lat="47.69442" lon="-2.24117">
        <ele>65.6</ele>
        <time>2021-05-27T14:08:30Z</time>
      </trkpt>
      <trkpt lat="47.69441" lon="-2.24111">
        <ele>65.7</ele>
        <time>2021-05-27T14:08:31Z</time>
      </trkpt>
      <trkpt lat="47.69438" lon="-2.24104">
        <ele>65.7</ele>
        <time>2021-05-27T14:08:32Z</time>
      </trkpt>
      <trkpt lat="47.69437" lon="-2.24098">
        <ele>65.8</ele>
        <time>2021-05-27T14:08:33Z</time>
      </trkpt>
      <trkpt lat="47.69435" lon="-2.24093">
        <ele>65.8</ele>
        <time>2021-05-27T14:08:34Z</time>
      </trkpt>
      <trkpt lat="47.69433" lon="-2.24087">
        <ele>65.9</ele>
        <time>2021-05-27T14:08:35Z</time>
      </trkpt>
      <trkpt lat="47.69431" lon="-2.24082">
        <ele>65.9</ele>
        <time>2021-05-27T14:08:36Z</time>
      </trkpt>
      <trkpt lat="47.69429" lon="-2.24077">
        <ele>65.8</ele>
        <time>2021-05-27T14:08:37Z</time>
      </trkpt>
      <trkpt lat="47.69427" lon="-2.24071">
        <ele>65.9</ele>
        <time>2021-05-27T14:08:38Z</time>
      </trkpt>
      <trkpt lat="47.69425" lon="-2.24067">
        <ele>65.9</ele>
        <time>2021-05-27T14:08:39Z</time>
      </trkpt>
      <trkpt lat="47.69424" lon="-2.24062">
        <ele>65.9</ele>
        <time>2021-05-27T14:08:40Z</time>
      </trkpt>
      <trkpt lat="47.69422" lon="-2.24058">
        <ele>65.9</ele>
        <time>2021-05-27T14:08:41Z</time>
      </trkpt>
      <trkpt lat="47.69423" lon="-2.24053">
        <ele>66</ele>
        <time>2021-05-27T14:08:42Z</time>
      </trkpt>
      <trkpt lat="47.69424" lon="-2.24049">
        <ele>66.2</ele>
        <time>2021-05-27T14:08:43Z</time>
      </trkpt>
      <trkpt lat="47.69425" lon="-2.24045">
        <ele>66.3</ele>
        <time>2021-05-27T14:08:44Z</time>
      </trkpt>
      <trkpt lat="47.69427" lon="-2.24043">
        <ele>66.4</ele>
        <time>2021-05-27T14:08:45Z</time>
      </trkpt>
      <trkpt lat="47.69428" lon="-2.24041">
        <ele>66.5</ele>
        <time>2021-05-27T14:08:46Z</time>
      </trkpt>
      <trkpt lat="47.69431" lon="-2.24041">
        <ele>66.6</ele>
        <time>2021-05-27T14:08:47Z</time>
      </trkpt>
      <trkpt lat="47.69433" lon="-2.24041">
        <ele>66.7</ele>
        <time>2021-05-27T14:08:48Z</time>
      </trkpt>
      <trkpt lat="47.69435" lon="-2.24041">
        <ele>66.8</ele>
        <time>2021-05-27T14:08:49Z</time>
      </trkpt>
      <trkpt lat="47.69438" lon="-2.24041">
        <ele>66.9</ele>
        <time>2021-05-27T14:08:50Z</time>
      </trkpt>
      <trkpt lat="47.69441" lon="-2.24042">
        <ele>67</ele>
        <time>2021-05-27T14:08:51Z</time>
      </trkpt>
      <trkpt lat="47.69444" lon="-2.24043">
        <ele>67.1</ele>
        <time>2021-05-27T14:08:52Z</time>
      </trkpt>
      <trkpt lat="47.69446" lon="-2.24044">
        <ele>67.2</ele>
        <time>2021-05-27T14:08:53Z</time>
      </trkpt>
      <trkpt lat="47.69448" lon="-2.24044">
        <ele>67.3</ele>
        <time>2021-05-27T14:08:54Z</time>
      </trkpt>
      <trkpt lat="47.6945" lon="-2.24045">
        <ele>67.4</ele>
        <time>2021-05-27T14:08:55Z</time>
      </trkpt>
      <trkpt lat="47.69453" lon="-2.24045">
        <ele>67.5</ele>
        <time>2021-05-27T14:08:56Z</time>
      </trkpt>
      <trkpt lat="47.69455" lon="-2.24045">
        <ele>67.6</ele>
        <time>2021-05-27T14:08:57Z</time>
      </trkpt>
      <trkpt lat="47.69458" lon="-2.24045">
        <ele>67.7</ele>
        <time>2021-05-27T14:08:58Z</time>
      </trkpt>
      <trkpt lat="47.69461" lon="-2.24046">
        <ele>67.8</ele>
        <time>2021-05-27T14:08:59Z</time>
      </trkpt>
      <trkpt lat="47.69464" lon="-2.24046">
        <ele>67.9</ele>
        <time>2021-05-27T14:09:00Z</time>
      </trkpt>
      <trkpt lat="47.69466" lon="-2.24046">
        <ele>68.1</ele>
        <time>2021-05-27T14:09:01Z</time>
      </trkpt>
      <trkpt lat="47.69469" lon="-2.24046">
        <ele>68.2</ele>
        <time>2021-05-27T14:09:02Z</time>
      </trkpt>
      <trkpt lat="47.69472" lon="-2.24046">
        <ele>68.3</ele>
        <time>2021-05-27T14:09:03Z</time>
      </trkpt>
      <trkpt lat="47.69474" lon="-2.24047">
        <ele>68.4</ele>
        <time>2021-05-27T14:09:04Z</time>
      </trkpt>
      <trkpt lat="47.69477" lon="-2.24049">
        <ele>68.6</ele>
        <time>2021-05-27T14:09:05Z</time>
      </trkpt>
      <trkpt lat="47.6948" lon="-2.2405">
        <ele>68.7</ele>
        <time>2021-05-27T14:09:06Z</time>
      </trkpt>
      <trkpt lat="47.69482" lon="-2.24051">
        <ele>68.8</ele>
        <time>2021-05-27T14:09:07Z</time>
      </trkpt>
      <trkpt lat="47.69485" lon="-2.24052">
        <ele>68.9</ele>
        <time>2021-05-27T14:09:08Z</time>
      </trkpt>
      <trkpt lat="47.69487" lon="-2.24052">
        <ele>69</ele>
        <time>2021-05-27T14:09:09Z</time>
      </trkpt>
      <trkpt lat="47.69489" lon="-2.24051">
        <ele>69.1</ele>
        <time>2021-05-27T14:09:10Z</time>
      </trkpt>
      <trkpt lat="47.69492" lon="-2.24051">
        <ele>69.2</ele>
        <time>2021-05-27T14:09:11Z</time>
      </trkpt>
      <trkpt lat="47.69495" lon="-2.2405">
        <ele>69.4</ele>
        <time>2021-05-27T14:09:12Z</time>
      </trkpt>
      <trkpt lat="47.69498" lon="-2.24048">
        <ele>69.5</ele>
        <time>2021-05-27T14:09:13Z</time>
      </trkpt>
      <trkpt lat="47.69501" lon="-2.24047">
        <ele>69.6</ele>
        <time>2021-05-27T14:09:14Z</time>
      </trkpt>
      <trkpt lat="47.69505" lon="-2.24045">
        <ele>69.7</ele>
        <time>2021-05-27T14:09:15Z</time>
      </trkpt>
      <trkpt lat="47.69509" lon="-2.24046">
        <ele>69.8</ele>
        <time>2021-05-27T14:09:16Z</time>
      </trkpt>
      <trkpt lat="47.69513" lon="-2.24045">
        <ele>69.9</ele>
        <time>2021-05-27T14:09:17Z</time>
      </trkpt>
      <trkpt lat="47.69517" lon="-2.24042">
        <ele>69.9</ele>
        <time>2021-05-27T14:09:18Z</time>
      </trkpt>
      <trkpt lat="47.69518" lon="-2.2404">
        <ele>69.9</ele>
        <time>2021-05-27T14:09:19Z</time>
      </trkpt>
      <trkpt lat="47.69518" lon="-2.24037">
        <ele>69.9</ele>
        <time>2021-05-27T14:09:20Z</time>
      </trkpt>
      <trkpt lat="47.69517" lon="-2.24034">
        <ele>69.8</ele>
        <time>2021-05-27T14:09:21Z</time>
      </trkpt>
      <trkpt lat="47.69516" lon="-2.2403">
        <ele>69.7</ele>
        <time>2021-05-27T14:09:22Z</time>
      </trkpt>
      <trkpt lat="47.69515" lon="-2.24025">
        <ele>69.6</ele>
        <time>2021-05-27T14:09:23Z</time>
      </trkpt>
      <trkpt lat="47.69513" lon="-2.2402">
        <ele>69.6</ele>
        <time>2021-05-27T14:09:24Z</time>
      </trkpt>
      <trkpt lat="47.69512" lon="-2.24016">
        <ele>69.5</ele>
        <time>2021-05-27T14:09:25Z</time>
      </trkpt>
      <trkpt lat="47.69511" lon="-2.24012">
        <ele>69.4</ele>
        <time>2021-05-27T14:09:26Z</time>
      </trkpt>
      <trkpt lat="47.69509" lon="-2.24008">
        <ele>69.3</ele>
        <time>2021-05-27T14:09:27Z</time>
      </trkpt>
      <trkpt lat="47.69507" lon="-2.24004">
        <ele>69.2</ele>
        <time>2021-05-27T14:09:28Z</time>
      </trkpt>
      <trkpt lat="47.69505" lon="-2.23999">
        <ele>69.1</ele>
        <time>2021-05-27T14:09:29Z</time>
      </trkpt>
      <trkpt lat="47.69503" lon="-2.23995">
        <ele>69.1</ele>
        <time>2021-05-27T14:09:30Z</time>
      </trkpt>
      <trkpt lat="47.695" lon="-2.2399">
        <ele>69</ele>
        <time>2021-05-27T14:09:31Z</time>
      </trkpt>
      <trkpt lat="47.69499" lon="-2.23985">
        <ele>69</ele>
        <time>2021-05-27T14:09:32Z</time>
      </trkpt>
      <trkpt lat="47.69497" lon="-2.23981">
        <ele>68.9</ele>
        <time>2021-05-27T14:09:33Z</time>
      </trkpt>
      <trkpt lat="47.69496" lon="-2.23976">
        <ele>68.9</ele>
        <time>2021-05-27T14:09:34Z</time>
      </trkpt>
      <trkpt lat="47.69495" lon="-2.23971">
        <ele>68.9</ele>
        <time>2021-05-27T14:09:35Z</time>
      </trkpt>
      <trkpt lat="47.69493" lon="-2.23966">
        <ele>68.9</ele>
        <time>2021-05-27T14:09:36Z</time>
      </trkpt>
      <trkpt lat="47.69491" lon="-2.23962">
        <ele>68.8</ele>
        <time>2021-05-27T14:09:37Z</time>
      </trkpt>
      <trkpt lat="47.6949" lon="-2.23957">
        <ele>68.8</ele>
        <time>2021-05-27T14:09:38Z</time>
      </trkpt>
      <trkpt lat="47.69487" lon="-2.2395">
        <ele>68.8</ele>
        <time>2021-05-27T14:09:39Z</time>
      </trkpt>
      <trkpt lat="47.69485" lon="-2.23944">
        <ele>68.8</ele>
        <time>2021-05-27T14:09:40Z</time>
      </trkpt>
      <trkpt lat="47.69482" lon="-2.23938">
        <ele>68.7</ele>
        <time>2021-05-27T14:09:41Z</time>
      </trkpt>
      <trkpt lat="47.6948" lon="-2.23933">
        <ele>68.7</ele>
        <time>2021-05-27T14:09:42Z</time>
      </trkpt>
      <trkpt lat="47.69478" lon="-2.23929">
        <ele>68.7</ele>
        <time>2021-05-27T14:09:43Z</time>
      </trkpt>
      <trkpt lat="47.69475" lon="-2.23923">
        <ele>68.7</ele>
        <time>2021-05-27T14:09:44Z</time>
      </trkpt>
      <trkpt lat="47.69473" lon="-2.23918">
        <ele>68.7</ele>
        <time>2021-05-27T14:09:45Z</time>
      </trkpt>
      <trkpt lat="47.69471" lon="-2.23913">
        <ele>68.7</ele>
        <time>2021-05-27T14:09:46Z</time>
      </trkpt>
      <trkpt lat="47.6947" lon="-2.23907">
        <ele>68.7</ele>
        <time>2021-05-27T14:09:47Z</time>
      </trkpt>
      <trkpt lat="47.69468" lon="-2.23902">
        <ele>68.7</ele>
        <time>2021-05-27T14:09:48Z</time>
      </trkpt>
      <trkpt lat="47.69466" lon="-2.23896">
        <ele>68.6</ele>
        <time>2021-05-27T14:09:49Z</time>
      </trkpt>
      <trkpt lat="47.69464" lon="-2.2389">
        <ele>68.6</ele>
        <time>2021-05-27T14:09:50Z</time>
      </trkpt>
      <trkpt lat="47.69463" lon="-2.23884">
        <ele>68.6</ele>
        <time>2021-05-27T14:09:51Z</time>
      </trkpt>
      <trkpt lat="47.69461" lon="-2.23879">
        <ele>68.6</ele>
        <time>2021-05-27T14:09:52Z</time>
      </trkpt>
      <trkpt lat="47.69459" lon="-2.23873">
        <ele>68.5</ele>
        <time>2021-05-27T14:09:53Z</time>
      </trkpt>
      <trkpt lat="47.69457" lon="-2.23867">
        <ele>68.5</ele>
        <time>2021-05-27T14:09:54Z</time>
      </trkpt>
      <trkpt lat="47.69455" lon="-2.23861">
        <ele>68.4</ele>
        <time>2021-05-27T14:09:55Z</time>
      </trkpt>
      <trkpt lat="47.69453" lon="-2.23854">
        <ele>68.3</ele>
        <time>2021-05-27T14:09:56Z</time>
      </trkpt>
      <trkpt lat="47.69451" lon="-2.23848">
        <ele>68.3</ele>
        <time>2021-05-27T14:09:57Z</time>
      </trkpt>
      <trkpt lat="47.69449" lon="-2.23841">
        <ele>68.2</ele>
        <time>2021-05-27T14:09:58Z</time>
      </trkpt>
      <trkpt lat="47.69447" lon="-2.23836">
        <ele>68.1</ele>
        <time>2021-05-27T14:09:59Z</time>
      </trkpt>
      <trkpt lat="47.69445" lon="-2.2383">
        <ele>68.1</ele>
        <time>2021-05-27T14:10:00Z</time>
      </trkpt>
      <trkpt lat="47.69442" lon="-2.23824">
        <ele>68</ele>
        <time>2021-05-27T14:10:01Z</time>
      </trkpt>
      <trkpt lat="47.6944" lon="-2.23817">
        <ele>68</ele>
        <time>2021-05-27T14:10:02Z</time>
      </trkpt>
      <trkpt lat="47.69438" lon="-2.23811">
        <ele>68</ele>
        <time>2021-05-27T14:10:03Z</time>
      </trkpt>
      <trkpt lat="47.69437" lon="-2.23805">
        <ele>68.1</ele>
        <time>2021-05-27T14:10:04Z</time>
      </trkpt>
      <trkpt lat="47.69435" lon="-2.23797">
        <ele>68.1</ele>
        <time>2021-05-27T14:10:05Z</time>
      </trkpt>
      <trkpt lat="47.69433" lon="-2.23791">
        <ele>68.1</ele>
        <time>2021-05-27T14:10:06Z</time>
      </trkpt>
      <trkpt lat="47.69431" lon="-2.23784">
        <ele>68.1</ele>
        <time>2021-05-27T14:10:07Z</time>
      </trkpt>
      <trkpt lat="47.69429" lon="-2.23776">
        <ele>68.1</ele>
        <time>2021-05-27T14:10:08Z</time>
      </trkpt>
      <trkpt lat="47.69426" lon="-2.2377">
        <ele>68.1</ele>
        <time>2021-05-27T14:10:09Z</time>
      </trkpt>
      <trkpt lat="47.69424" lon="-2.23762">
        <ele>68.1</ele>
        <time>2021-05-27T14:10:10Z</time>
      </trkpt>
      <trkpt lat="47.69421" lon="-2.23756">
        <ele>68.1</ele>
        <time>2021-05-27T14:10:11Z</time>
      </trkpt>
      <trkpt lat="47.69419" lon="-2.2375">
        <ele>68.1</ele>
        <time>2021-05-27T14:10:12Z</time>
      </trkpt>
      <trkpt lat="47.69416" lon="-2.23744">
        <ele>68.1</ele>
        <time>2021-05-27T14:10:13Z</time>
      </trkpt>
      <trkpt lat="47.69414" lon="-2.23736">
        <ele>68.3</ele>
        <time>2021-05-27T14:10:14Z</time>
      </trkpt>
      <trkpt lat="47.69412" lon="-2.23729">
        <ele>68.4</ele>
        <time>2021-05-27T14:10:15Z</time>
      </trkpt>
      <trkpt lat="47.6941" lon="-2.23723">
        <ele>68.5</ele>
        <time>2021-05-27T14:10:16Z</time>
      </trkpt>
      <trkpt lat="47.69408" lon="-2.23716">
        <ele>68.6</ele>
        <time>2021-05-27T14:10:17Z</time>
      </trkpt>
      <trkpt lat="47.69406" lon="-2.2371">
        <ele>68.7</ele>
        <time>2021-05-27T14:10:18Z</time>
      </trkpt>
      <trkpt lat="47.69405" lon="-2.23703">
        <ele>68.8</ele>
        <time>2021-05-27T14:10:19Z</time>
      </trkpt>
      <trkpt lat="47.69404" lon="-2.23696">
        <ele>68.9</ele>
        <time>2021-05-27T14:10:20Z</time>
      </trkpt>
      <trkpt lat="47.69403" lon="-2.23689">
        <ele>69</ele>
        <time>2021-05-27T14:10:21Z</time>
      </trkpt>
      <trkpt lat="47.69402" lon="-2.23681">
        <ele>69.2</ele>
        <time>2021-05-27T14:10:22Z</time>
      </trkpt>
      <trkpt lat="47.69401" lon="-2.23673">
        <ele>69.3</ele>
        <time>2021-05-27T14:10:23Z</time>
      </trkpt>
      <trkpt lat="47.694" lon="-2.23665">
        <ele>69.4</ele>
        <time>2021-05-27T14:10:24Z</time>
      </trkpt>
      <trkpt lat="47.69399" lon="-2.23656">
        <ele>69.4</ele>
        <time>2021-05-27T14:10:25Z</time>
      </trkpt>
      <trkpt lat="47.69398" lon="-2.23647">
        <ele>69.4</ele>
        <time>2021-05-27T14:10:26Z</time>
      </trkpt>
      <trkpt lat="47.69398" lon="-2.2364">
        <ele>69.5</ele>
        <time>2021-05-27T14:10:27Z</time>
      </trkpt>
      <trkpt lat="47.69398" lon="-2.23632">
        <ele>69.5</ele>
        <time>2021-05-27T14:10:28Z</time>
      </trkpt>
      <trkpt lat="47.69398" lon="-2.23626">
        <ele>69.6</ele>
        <time>2021-05-27T14:10:29Z</time>
      </trkpt>
      <trkpt lat="47.69399" lon="-2.2362">
        <ele>69.6</ele>
        <time>2021-05-27T14:10:30Z</time>
      </trkpt>
      <trkpt lat="47.694" lon="-2.23613">
        <ele>69.7</ele>
        <time>2021-05-27T14:10:31Z</time>
      </trkpt>
      <trkpt lat="47.69401" lon="-2.23606">
        <ele>69.7</ele>
        <time>2021-05-27T14:10:32Z</time>
      </trkpt>
      <trkpt lat="47.69401" lon="-2.23598">
        <ele>69.8</ele>
        <time>2021-05-27T14:10:33Z</time>
      </trkpt>
      <trkpt lat="47.69401" lon="-2.23591">
        <ele>69.8</ele>
        <time>2021-05-27T14:10:34Z</time>
      </trkpt>
      <trkpt lat="47.69401" lon="-2.23583">
        <ele>69.8</ele>
        <time>2021-05-27T14:10:35Z</time>
      </trkpt>
      <trkpt lat="47.694" lon="-2.23576">
        <ele>69.8</ele>
        <time>2021-05-27T14:10:36Z</time>
      </trkpt>
      <trkpt lat="47.694" lon="-2.23568">
        <ele>69.7</ele>
        <time>2021-05-27T14:10:37Z</time>
      </trkpt>
      <trkpt lat="47.69399" lon="-2.23559">
        <ele>69.7</ele>
        <time>2021-05-27T14:10:38Z</time>
      </trkpt>
      <trkpt lat="47.69399" lon="-2.23551">
        <ele>69.6</ele>
        <time>2021-05-27T14:10:39Z</time>
      </trkpt>
      <trkpt lat="47.69399" lon="-2.23544">
        <ele>69.6</ele>
        <time>2021-05-27T14:10:40Z</time>
      </trkpt>
      <trkpt lat="47.69399" lon="-2.23537">
        <ele>69.6</ele>
        <time>2021-05-27T14:10:41Z</time>
      </trkpt>
      <trkpt lat="47.69399" lon="-2.23529">
        <ele>69.5</ele>
        <time>2021-05-27T14:10:42Z</time>
      </trkpt>
      <trkpt lat="47.69399" lon="-2.23522">
        <ele>69.5</ele>
        <time>2021-05-27T14:10:43Z</time>
      </trkpt>
      <trkpt lat="47.69399" lon="-2.23515">
        <ele>69.4</ele>
        <time>2021-05-27T14:10:44Z</time>
      </trkpt>
      <trkpt lat="47.69399" lon="-2.23508">
        <ele>69.4</ele>
        <time>2021-05-27T14:10:45Z</time>
      </trkpt>
      <trkpt lat="47.69399" lon="-2.23501">
        <ele>69.4</ele>
        <time>2021-05-27T14:10:46Z</time>
      </trkpt>
      <trkpt lat="47.69398" lon="-2.23494">
        <ele>69.2</ele>
        <time>2021-05-27T14:10:47Z</time>
      </trkpt>
      <trkpt lat="47.69399" lon="-2.23487">
        <ele>69.2</ele>
        <time>2021-05-27T14:10:48Z</time>
      </trkpt>
      <trkpt lat="47.69398" lon="-2.2348">
        <ele>69</ele>
        <time>2021-05-27T14:10:49Z</time>
      </trkpt>
      <trkpt lat="47.69398" lon="-2.23473">
        <ele>68.9</ele>
        <time>2021-05-27T14:10:50Z</time>
      </trkpt>
      <trkpt lat="47.69398" lon="-2.23465">
        <ele>68.8</ele>
        <time>2021-05-27T14:10:51Z</time>
      </trkpt>
      <trkpt lat="47.69398" lon="-2.23459">
        <ele>68.7</ele>
        <time>2021-05-27T14:10:52Z</time>
      </trkpt>
      <trkpt lat="47.69398" lon="-2.23452">
        <ele>68.6</ele>
        <time>2021-05-27T14:10:53Z</time>
      </trkpt>
      <trkpt lat="47.69399" lon="-2.23445">
        <ele>68.6</ele>
        <time>2021-05-27T14:10:54Z</time>
      </trkpt>
      <trkpt lat="47.694" lon="-2.23438">
        <ele>68.5</ele>
        <time>2021-05-27T14:10:55Z</time>
      </trkpt>
      <trkpt lat="47.69401" lon="-2.2343">
        <ele>68.4</ele>
        <time>2021-05-27T14:10:56Z</time>
      </trkpt>
      <trkpt lat="47.69402" lon="-2.23421">
        <ele>68.3</ele>
        <time>2021-05-27T14:10:57Z</time>
      </trkpt>
      <trkpt lat="47.69402" lon="-2.23412">
        <ele>68.5</ele>
        <time>2021-05-27T14:10:58Z</time>
      </trkpt>
      <trkpt lat="47.69402" lon="-2.23404">
        <ele>68.8</ele>
        <time>2021-05-27T14:10:59Z</time>
      </trkpt>
      <trkpt lat="47.69402" lon="-2.23397">
        <ele>69.1</ele>
        <time>2021-05-27T14:11:00Z</time>
      </trkpt>
      <trkpt lat="47.69402" lon="-2.23388">
        <ele>69.4</ele>
        <time>2021-05-27T14:11:01Z</time>
      </trkpt>
      <trkpt lat="47.69402" lon="-2.23381">
        <ele>69.8</ele>
        <time>2021-05-27T14:11:02Z</time>
      </trkpt>
      <trkpt lat="47.69401" lon="-2.23373">
        <ele>70</ele>
        <time>2021-05-27T14:11:03Z</time>
      </trkpt>
      <trkpt lat="47.69399" lon="-2.23364">
        <ele>70.3</ele>
        <time>2021-05-27T14:11:04Z</time>
      </trkpt>
      <trkpt lat="47.69398" lon="-2.23356">
        <ele>70.5</ele>
        <time>2021-05-27T14:11:05Z</time>
      </trkpt>
      <trkpt lat="47.69397" lon="-2.23348">
        <ele>70.7</ele>
        <time>2021-05-27T14:11:06Z</time>
      </trkpt>
      <trkpt lat="47.69395" lon="-2.2334">
        <ele>70.9</ele>
        <time>2021-05-27T14:11:07Z</time>
      </trkpt>
      <trkpt lat="47.69394" lon="-2.23333">
        <ele>71.1</ele>
        <time>2021-05-27T14:11:08Z</time>
      </trkpt>
      <trkpt lat="47.69393" lon="-2.23326">
        <ele>70.9</ele>
        <time>2021-05-27T14:11:09Z</time>
      </trkpt>
      <trkpt lat="47.69393" lon="-2.2332">
        <ele>70.9</ele>
        <time>2021-05-27T14:11:10Z</time>
      </trkpt>
      <trkpt lat="47.69395" lon="-2.23314">
        <ele>70.9</ele>
        <time>2021-05-27T14:11:11Z</time>
      </trkpt>
      <trkpt lat="47.69398" lon="-2.23309">
        <ele>71</ele>
        <time>2021-05-27T14:11:12Z</time>
      </trkpt>
      <trkpt lat="47.69399" lon="-2.23305">
        <ele>71.1</ele>
        <time>2021-05-27T14:11:13Z</time>
      </trkpt>
      <trkpt lat="47.69401" lon="-2.23299">
        <ele>71.1</ele>
        <time>2021-05-27T14:11:14Z</time>
      </trkpt>
      <trkpt lat="47.69403" lon="-2.23293">
        <ele>71.1</ele>
        <time>2021-05-27T14:11:15Z</time>
      </trkpt>
      <trkpt lat="47.69405" lon="-2.23287">
        <ele>71.2</ele>
        <time>2021-05-27T14:11:16Z</time>
      </trkpt>
      <trkpt lat="47.69408" lon="-2.23281">
        <ele>71.2</ele>
        <time>2021-05-27T14:11:17Z</time>
      </trkpt>
      <trkpt lat="47.6941" lon="-2.23276">
        <ele>71.2</ele>
        <time>2021-05-27T14:11:18Z</time>
      </trkpt>
      <trkpt lat="47.69413" lon="-2.2327">
        <ele>71.3</ele>
        <time>2021-05-27T14:11:19Z</time>
      </trkpt>
      <trkpt lat="47.69415" lon="-2.23264">
        <ele>71.3</ele>
        <time>2021-05-27T14:11:20Z</time>
      </trkpt>
      <trkpt lat="47.69418" lon="-2.23258">
        <ele>71.2</ele>
        <time>2021-05-27T14:11:21Z</time>
      </trkpt>
      <trkpt lat="47.6942" lon="-2.23251">
        <ele>71.1</ele>
        <time>2021-05-27T14:11:22Z</time>
      </trkpt>
      <trkpt lat="47.69422" lon="-2.23244">
        <ele>71.2</ele>
        <time>2021-05-27T14:11:23Z</time>
      </trkpt>
      <trkpt lat="47.69422" lon="-2.23237">
        <ele>71.3</ele>
        <time>2021-05-27T14:11:24Z</time>
      </trkpt>
      <trkpt lat="47.69424" lon="-2.2323">
        <ele>71.5</ele>
        <time>2021-05-27T14:11:25Z</time>
      </trkpt>
      <trkpt lat="47.69424" lon="-2.23222">
        <ele>71.6</ele>
        <time>2021-05-27T14:11:26Z</time>
      </trkpt>
      <trkpt lat="47.69424" lon="-2.23215">
        <ele>71.8</ele>
        <time>2021-05-27T14:11:27Z</time>
      </trkpt>
      <trkpt lat="47.69425" lon="-2.23208">
        <ele>71.9</ele>
        <time>2021-05-27T14:11:28Z</time>
      </trkpt>
      <trkpt lat="47.69425" lon="-2.232">
        <ele>72.1</ele>
        <time>2021-05-27T14:11:29Z</time>
      </trkpt>
      <trkpt lat="47.69426" lon="-2.23191">
        <ele>72.2</ele>
        <time>2021-05-27T14:11:30Z</time>
      </trkpt>
      <trkpt lat="47.69426" lon="-2.23184">
        <ele>72.3</ele>
        <time>2021-05-27T14:11:31Z</time>
      </trkpt>
      <trkpt lat="47.69426" lon="-2.23176">
        <ele>72.5</ele>
        <time>2021-05-27T14:11:32Z</time>
      </trkpt>
      <trkpt lat="47.69427" lon="-2.23168">
        <ele>72.6</ele>
        <time>2021-05-27T14:11:33Z</time>
      </trkpt>
      <trkpt lat="47.69428" lon="-2.2316">
        <ele>72.4</ele>
        <time>2021-05-27T14:11:34Z</time>
      </trkpt>
      <trkpt lat="47.69428" lon="-2.23151">
        <ele>72.2</ele>
        <time>2021-05-27T14:11:35Z</time>
      </trkpt>
      <trkpt lat="47.69428" lon="-2.23142">
        <ele>72</ele>
        <time>2021-05-27T14:11:36Z</time>
      </trkpt>
      <trkpt lat="47.69428" lon="-2.23133">
        <ele>71.8</ele>
        <time>2021-05-27T14:11:37Z</time>
      </trkpt>
      <trkpt lat="47.69428" lon="-2.23125">
        <ele>71.6</ele>
        <time>2021-05-27T14:11:38Z</time>
      </trkpt>
      <trkpt lat="47.69427" lon="-2.23117">
        <ele>71.4</ele>
        <time>2021-05-27T14:11:39Z</time>
      </trkpt>
      <trkpt lat="47.69427" lon="-2.23109">
        <ele>71.2</ele>
        <time>2021-05-27T14:11:40Z</time>
      </trkpt>
      <trkpt lat="47.69428" lon="-2.23101">
        <ele>71</ele>
        <time>2021-05-27T14:11:41Z</time>
      </trkpt>
      <trkpt lat="47.69429" lon="-2.23093">
        <ele>70.8</ele>
        <time>2021-05-27T14:11:42Z</time>
      </trkpt>
      <trkpt lat="47.69431" lon="-2.23084">
        <ele>70.5</ele>
        <time>2021-05-27T14:11:43Z</time>
      </trkpt>
      <trkpt lat="47.69432" lon="-2.23075">
        <ele>70.4</ele>
        <time>2021-05-27T14:11:44Z</time>
      </trkpt>
      <trkpt lat="47.69433" lon="-2.23067">
        <ele>70.3</ele>
        <time>2021-05-27T14:11:45Z</time>
      </trkpt>
      <trkpt lat="47.69433" lon="-2.23059">
        <ele>70.2</ele>
        <time>2021-05-27T14:11:46Z</time>
      </trkpt>
      <trkpt lat="47.69435" lon="-2.23053">
        <ele>70</ele>
        <time>2021-05-27T14:11:47Z</time>
      </trkpt>
      <trkpt lat="47.69436" lon="-2.23046">
        <ele>69.9</ele>
        <time>2021-05-27T14:11:48Z</time>
      </trkpt>
      <trkpt lat="47.69438" lon="-2.23039">
        <ele>69.7</ele>
        <time>2021-05-27T14:11:49Z</time>
      </trkpt>
      <trkpt lat="47.69438" lon="-2.23033">
        <ele>69.6</ele>
        <time>2021-05-27T14:11:50Z</time>
      </trkpt>
      <trkpt lat="47.69439" lon="-2.2303">
        <ele>69.5</ele>
        <time>2021-05-27T14:11:51Z</time>
      </trkpt>
      <trkpt lat="47.6944" lon="-2.23025">
        <ele>69.4</ele>
        <time>2021-05-27T14:11:52Z</time>
      </trkpt>
      <trkpt lat="47.69438" lon="-2.23022">
        <ele>69.5</ele>
        <time>2021-05-27T14:11:53Z</time>
      </trkpt>
      <trkpt lat="47.69435" lon="-2.23019">
        <ele>69.6</ele>
        <time>2021-05-27T14:11:54Z</time>
      </trkpt>
      <trkpt lat="47.69436" lon="-2.2301">
        <ele>69.5</ele>
        <time>2021-05-27T14:12:26Z</time>
      </trkpt>
      <trkpt lat="47.69437" lon="-2.23007">
        <ele>69.4</ele>
        <time>2021-05-27T14:12:27Z</time>
      </trkpt>
      <trkpt lat="47.69438" lon="-2.23004">
        <ele>69.2</ele>
        <time>2021-05-27T14:12:28Z</time>
      </trkpt>
      <trkpt lat="47.69439" lon="-2.23">
        <ele>69.1</ele>
        <time>2021-05-27T14:12:29Z</time>
      </trkpt>
      <trkpt lat="47.6944" lon="-2.22997">
        <ele>69.1</ele>
        <time>2021-05-27T14:12:30Z</time>
      </trkpt>
      <trkpt lat="47.69442" lon="-2.22994">
        <ele>69</ele>
        <time>2021-05-27T14:12:31Z</time>
      </trkpt>
      <trkpt lat="47.69443" lon="-2.2299">
        <ele>69</ele>
        <time>2021-05-27T14:12:32Z</time>
      </trkpt>
      <trkpt lat="47.69445" lon="-2.22985">
        <ele>68.9</ele>
        <time>2021-05-27T14:12:33Z</time>
      </trkpt>
      <trkpt lat="47.69445" lon="-2.2298">
        <ele>68.9</ele>
        <time>2021-05-27T14:12:34Z</time>
      </trkpt>
      <trkpt lat="47.69446" lon="-2.22973">
        <ele>69</ele>
        <time>2021-05-27T14:12:35Z</time>
      </trkpt>
      <trkpt lat="47.69446" lon="-2.22967">
        <ele>69.1</ele>
        <time>2021-05-27T14:12:36Z</time>
      </trkpt>
      <trkpt lat="47.69446" lon="-2.22961">
        <ele>69.2</ele>
        <time>2021-05-27T14:12:37Z</time>
      </trkpt>
      <trkpt lat="47.69446" lon="-2.22956">
        <ele>69.2</ele>
        <time>2021-05-27T14:12:38Z</time>
      </trkpt>
      <trkpt lat="47.69446" lon="-2.22951">
        <ele>69.4</ele>
        <time>2021-05-27T14:12:39Z</time>
      </trkpt>
      <trkpt lat="47.69445" lon="-2.22946">
        <ele>69.5</ele>
        <time>2021-05-27T14:12:40Z</time>
      </trkpt>
      <trkpt lat="47.69445" lon="-2.22942">
        <ele>69.6</ele>
        <time>2021-05-27T14:12:41Z</time>
      </trkpt>
      <trkpt lat="47.69444" lon="-2.22938">
        <ele>69.7</ele>
        <time>2021-05-27T14:12:42Z</time>
      </trkpt>
      <trkpt lat="47.69442" lon="-2.22936">
        <ele>69.9</ele>
        <time>2021-05-27T14:12:43Z</time>
      </trkpt>
      <trkpt lat="47.69441" lon="-2.22921">
        <ele>70.2</ele>
        <time>2021-05-27T14:12:59Z</time>
      </trkpt>
      <trkpt lat="47.69442" lon="-2.22916">
        <ele>70.2</ele>
        <time>2021-05-27T14:13:00Z</time>
      </trkpt>
      <trkpt lat="47.69442" lon="-2.22911">
        <ele>70.1</ele>
        <time>2021-05-27T14:13:01Z</time>
      </trkpt>
      <trkpt lat="47.69442" lon="-2.22905">
        <ele>70</ele>
        <time>2021-05-27T14:13:02Z</time>
      </trkpt>
      <trkpt lat="47.69441" lon="-2.22901">
        <ele>70</ele>
        <time>2021-05-27T14:13:03Z</time>
      </trkpt>
      <trkpt lat="47.69439" lon="-2.22896">
        <ele>70.1</ele>
        <time>2021-05-27T14:13:04Z</time>
      </trkpt>
      <trkpt lat="47.69438" lon="-2.22891">
        <ele>70.1</ele>
        <time>2021-05-27T14:13:05Z</time>
      </trkpt>
      <trkpt lat="47.69437" lon="-2.22886">
        <ele>70.1</ele>
        <time>2021-05-27T14:13:06Z</time>
      </trkpt>
      <trkpt lat="47.69435" lon="-2.22881">
        <ele>70.1</ele>
        <time>2021-05-27T14:13:07Z</time>
      </trkpt>
      <trkpt lat="47.69434" lon="-2.22876">
        <ele>70.1</ele>
        <time>2021-05-27T14:13:08Z</time>
      </trkpt>
      <trkpt lat="47.69433" lon="-2.22872">
        <ele>70.1</ele>
        <time>2021-05-27T14:13:09Z</time>
      </trkpt>
      <trkpt lat="47.69431" lon="-2.22867">
        <ele>70.1</ele>
        <time>2021-05-27T14:13:10Z</time>
      </trkpt>
      <trkpt lat="47.6943" lon="-2.22864">
        <ele>70.1</ele>
        <time>2021-05-27T14:13:11Z</time>
      </trkpt>
      <trkpt lat="47.69429" lon="-2.22861">
        <ele>70.1</ele>
        <time>2021-05-27T14:13:12Z</time>
      </trkpt>
      <trkpt lat="47.69429" lon="-2.22859">
        <ele>70.1</ele>
        <time>2021-05-27T14:13:13Z</time>
      </trkpt>
      <trkpt lat="47.69429" lon="-2.22856">
        <ele>70</ele>
        <time>2021-05-27T14:13:14Z</time>
      </trkpt>
      <trkpt lat="47.69428" lon="-2.22853">
        <ele>69.9</ele>
        <time>2021-05-27T14:13:15Z</time>
      </trkpt>
      <trkpt lat="47.69428" lon="-2.22849">
        <ele>69.9</ele>
        <time>2021-05-27T14:13:16Z</time>
      </trkpt>
      <trkpt lat="47.69426" lon="-2.22844">
        <ele>69.9</ele>
        <time>2021-05-27T14:13:17Z</time>
      </trkpt>
      <trkpt lat="47.69425" lon="-2.22839">
        <ele>69.8</ele>
        <time>2021-05-27T14:13:18Z</time>
      </trkpt>
      <trkpt lat="47.69425" lon="-2.22834">
        <ele>69.7</ele>
        <time>2021-05-27T14:13:19Z</time>
      </trkpt>
      <trkpt lat="47.69424" lon="-2.22828">
        <ele>69.6</ele>
        <time>2021-05-27T14:13:20Z</time>
      </trkpt>
      <trkpt lat="47.69423" lon="-2.22822">
        <ele>69.6</ele>
        <time>2021-05-27T14:13:21Z</time>
      </trkpt>
      <trkpt lat="47.69422" lon="-2.22817">
        <ele>69.6</ele>
        <time>2021-05-27T14:13:22Z</time>
      </trkpt>
      <trkpt lat="47.69422" lon="-2.22811">
        <ele>69.5</ele>
        <time>2021-05-27T14:13:23Z</time>
      </trkpt>
      <trkpt lat="47.69421" lon="-2.22806">
        <ele>69.5</ele>
        <time>2021-05-27T14:13:24Z</time>
      </trkpt>
      <trkpt lat="47.69418" lon="-2.22803">
        <ele>69.5</ele>
        <time>2021-05-27T14:13:25Z</time>
      </trkpt>
      <trkpt lat="47.69416" lon="-2.22802">
        <ele>69.6</ele>
        <time>2021-05-27T14:13:26Z</time>
      </trkpt>
      <trkpt lat="47.69414" lon="-2.22801">
        <ele>69.5</ele>
        <time>2021-05-27T14:13:27Z</time>
      </trkpt>
      <trkpt lat="47.69412" lon="-2.22799">
        <ele>69.5</ele>
        <time>2021-05-27T14:13:28Z</time>
      </trkpt>
      <trkpt lat="47.6941" lon="-2.22797">
        <ele>69.4</ele>
        <time>2021-05-27T14:13:29Z</time>
      </trkpt>
      <trkpt lat="47.69409" lon="-2.22794">
        <ele>69.3</ele>
        <time>2021-05-27T14:13:30Z</time>
      </trkpt>
      <trkpt lat="47.69408" lon="-2.2279">
        <ele>69.3</ele>
        <time>2021-05-27T14:13:31Z</time>
      </trkpt>
      <trkpt lat="47.69407" lon="-2.22785">
        <ele>69.2</ele>
        <time>2021-05-27T14:13:32Z</time>
      </trkpt>
      <trkpt lat="47.69406" lon="-2.2278">
        <ele>69.1</ele>
        <time>2021-05-27T14:13:33Z</time>
      </trkpt>
      <trkpt lat="47.69405" lon="-2.22775">
        <ele>69</ele>
        <time>2021-05-27T14:13:34Z</time>
      </trkpt>
      <trkpt lat="47.69404" lon="-2.22771">
        <ele>68.9</ele>
        <time>2021-05-27T14:13:35Z</time>
      </trkpt>
      <trkpt lat="47.69403" lon="-2.22765">
        <ele>68.9</ele>
        <time>2021-05-27T14:13:36Z</time>
      </trkpt>
      <trkpt lat="47.69402" lon="-2.2276">
        <ele>68.8</ele>
        <time>2021-05-27T14:13:37Z</time>
      </trkpt>
      <trkpt lat="47.694" lon="-2.22755">
        <ele>68.7</ele>
        <time>2021-05-27T14:13:38Z</time>
      </trkpt>
      <trkpt lat="47.69398" lon="-2.22751">
        <ele>68.6</ele>
        <time>2021-05-27T14:13:39Z</time>
      </trkpt>
      <trkpt lat="47.69396" lon="-2.22746">
        <ele>68.4</ele>
        <time>2021-05-27T14:13:40Z</time>
      </trkpt>
      <trkpt lat="47.69394" lon="-2.22742">
        <ele>68.3</ele>
        <time>2021-05-27T14:13:41Z</time>
      </trkpt>
      <trkpt lat="47.69391" lon="-2.22738">
        <ele>68.2</ele>
        <time>2021-05-27T14:13:42Z</time>
      </trkpt>
      <trkpt lat="47.69389" lon="-2.22733">
        <ele>68.1</ele>
        <time>2021-05-27T14:13:43Z</time>
      </trkpt>
      <trkpt lat="47.69386" lon="-2.22729">
        <ele>68</ele>
        <time>2021-05-27T14:13:44Z</time>
      </trkpt>
      <trkpt lat="47.69384" lon="-2.22725">
        <ele>67.9</ele>
        <time>2021-05-27T14:13:45Z</time>
      </trkpt>
      <trkpt lat="47.69382" lon="-2.22722">
        <ele>67.8</ele>
        <time>2021-05-27T14:13:46Z</time>
      </trkpt>
      <trkpt lat="47.6938" lon="-2.22718">
        <ele>67.7</ele>
        <time>2021-05-27T14:13:47Z</time>
      </trkpt>
      <trkpt lat="47.69378" lon="-2.22715">
        <ele>67.6</ele>
        <time>2021-05-27T14:13:48Z</time>
      </trkpt>
      <trkpt lat="47.69376" lon="-2.22712">
        <ele>67.6</ele>
        <time>2021-05-27T14:13:49Z</time>
      </trkpt>
      <trkpt lat="47.69374" lon="-2.2271">
        <ele>67.5</ele>
        <time>2021-05-27T14:13:50Z</time>
      </trkpt>
      <trkpt lat="47.69372" lon="-2.22709">
        <ele>67.5</ele>
        <time>2021-05-27T14:13:51Z</time>
      </trkpt>
      <trkpt lat="47.6937" lon="-2.22708">
        <ele>67.4</ele>
        <time>2021-05-27T14:13:52Z</time>
      </trkpt>
      <trkpt lat="47.69369" lon="-2.22707">
        <ele>67.4</ele>
        <time>2021-05-27T14:13:53Z</time>
      </trkpt>
      <trkpt lat="47.69368" lon="-2.22705">
        <ele>67.4</ele>
        <time>2021-05-27T14:13:54Z</time>
      </trkpt>
      <trkpt lat="47.69366" lon="-2.22703">
        <ele>67.3</ele>
        <time>2021-05-27T14:13:55Z</time>
      </trkpt>
      <trkpt lat="47.69366" lon="-2.22701">
        <ele>67.3</ele>
        <time>2021-05-27T14:13:56Z</time>
      </trkpt>
      <trkpt lat="47.69366" lon="-2.22698">
        <ele>67.3</ele>
        <time>2021-05-27T14:13:57Z</time>
      </trkpt>
      <trkpt lat="47.69366" lon="-2.22697">
        <ele>67.3</ele>
        <time>2021-05-27T14:13:58Z</time>
      </trkpt>
      <trkpt lat="47.69367" lon="-2.22696">
        <ele>67.3</ele>
        <time>2021-05-27T14:13:59Z</time>
      </trkpt>
      <trkpt lat="47.69367" lon="-2.22696">
        <ele>67.3</ele>
        <time>2021-05-27T14:14:00Z</time>
      </trkpt>
      <trkpt lat="47.69368" lon="-2.22696">
        <ele>67.3</ele>
        <time>2021-05-27T14:14:01Z</time>
      </trkpt>
      <trkpt lat="47.69368" lon="-2.22696">
        <ele>67.3</ele>
        <time>2021-05-27T14:14:02Z</time>
      </trkpt>
      <trkpt lat="47.69368" lon="-2.22696">
        <ele>67.3</ele>
        <time>2021-05-27T14:14:03Z</time>
      </trkpt>
      <trkpt lat="47.69368" lon="-2.22696">
        <ele>67.3</ele>
        <time>2021-05-27T14:14:04Z</time>
      </trkpt>
      <trkpt lat="47.69368" lon="-2.22696">
        <ele>67.3</ele>
        <time>2021-05-27T14:14:05Z</time>
      </trkpt>
      <trkpt lat="47.69368" lon="-2.22696">
        <ele>67.3</ele>
        <time>2021-05-27T14:14:06Z</time>
      </trkpt>
      <trkpt lat="47.69368" lon="-2.22696">
        <ele>67.3</ele>
        <time>2021-05-27T14:14:07Z</time>
      </trkpt>
      <trkpt lat="47.69368" lon="-2.22696">
        <ele>67.3</ele>
        <time>2021-05-27T14:14:08Z</time>
      </trkpt>
      <trkpt lat="47.69368" lon="-2.22696">
        <ele>67.3</ele>
        <time>2021-05-27T14:14:09Z</time>
      </trkpt>
      <trkpt lat="47.69368" lon="-2.22696">
        <ele>67.3</ele>
        <time>2021-05-27T14:14:10Z</time>
      </trkpt>
      <trkpt lat="47.69368" lon="-2.22696">
        <ele>67.3</ele>
        <time>2021-05-27T14:14:11Z</time>
      </trkpt>
      <trkpt lat="47.69368" lon="-2.22696">
        <ele>67.3</ele>
        <time>2021-05-27T14:14:12Z</time>
      </trkpt>
      <trkpt lat="47.69368" lon="-2.22696">
        <ele>67.3</ele>
        <time>2021-05-27T14:14:13Z</time>
      </trkpt>
      <trkpt lat="47.69368" lon="-2.22696">
        <ele>67.3</ele>
        <time>2021-05-27T14:14:14Z</time>
      </trkpt>
      <trkpt lat="47.69368" lon="-2.22696">
        <ele>67.3</ele>
        <time>2021-05-27T14:14:15Z</time>
      </trkpt>
      <trkpt lat="47.69368" lon="-2.22696">
        <ele>67.3</ele>
        <time>2021-05-27T14:14:16Z</time>
      </trkpt>
      <trkpt lat="47.69368" lon="-2.22696">
        <ele>67.3</ele>
        <time>2021-05-27T14:14:17Z</time>
      </trkpt>
      <trkpt lat="47.69368" lon="-2.22696">
        <ele>67.3</ele>
        <time>2021-05-27T14:14:18Z</time>
      </trkpt>
      <trkpt lat="47.69368" lon="-2.22696">
        <ele>67.3</ele>
        <time>2021-05-27T14:14:19Z</time>
      </trkpt>
      <trkpt lat="47.69368" lon="-2.22696">
        <ele>67.3</ele>
        <time>2021-05-27T14:14:20Z</time>
      </trkpt>
      <trkpt lat="47.69368" lon="-2.22696">
        <ele>67.3</ele>
        <time>2021-05-27T14:14:21Z</time>
      </trkpt>
      <trkpt lat="47.69368" lon="-2.22696">
        <ele>67.3</ele>
        <time>2021-05-27T14:14:22Z</time>
      </trkpt>
      <trkpt lat="47.69368" lon="-2.22696">
        <ele>67.3</ele>
        <time>2021-05-27T14:14:23Z</time>
      </trkpt>
      <trkpt lat="47.69368" lon="-2.22696">
        <ele>67.3</ele>
        <time>2021-05-27T14:14:24Z</time>
      </trkpt>
      <trkpt lat="47.69368" lon="-2.22696">
        <ele>67.3</ele>
        <time>2021-05-27T14:14:25Z</time>
      </trkpt>
      <trkpt lat="47.69368" lon="-2.22696">
        <ele>67.3</ele>
        <time>2021-05-27T14:14:26Z</time>
      </trkpt>
      <trkpt lat="47.69368" lon="-2.22696">
        <ele>67.3</ele>
        <time>2021-05-27T14:14:27Z</time>
      </trkpt>
      <trkpt lat="47.69368" lon="-2.22696">
        <ele>67.3</ele>
        <time>2021-05-27T14:14:28Z</time>
      </trkpt>
      <trkpt lat="47.69368" lon="-2.22696">
        <ele>67.3</ele>
        <time>2021-05-27T14:14:29Z</time>
      </trkpt>
      <trkpt lat="47.69368" lon="-2.22696">
        <ele>67.3</ele>
        <time>2021-05-27T14:14:30Z</time>
      </trkpt>
      <trkpt lat="47.69368" lon="-2.22696">
        <ele>67.3</ele>
        <time>2021-05-27T14:14:31Z</time>
      </trkpt>
      <trkpt lat="47.69368" lon="-2.22696">
        <ele>67.3</ele>
        <time>2021-05-27T14:14:32Z</time>
      </trkpt>
      <trkpt lat="47.69368" lon="-2.22696">
        <ele>67.3</ele>
        <time>2021-05-27T14:14:33Z</time>
      </trkpt>
      <trkpt lat="47.69368" lon="-2.22696">
        <ele>67.3</ele>
        <time>2021-05-27T14:14:34Z</time>
      </trkpt>
      <trkpt lat="47.69368" lon="-2.22696">
        <ele>67.3</ele>
        <time>2021-05-27T14:14:35Z</time>
      </trkpt>
      <trkpt lat="47.69368" lon="-2.22696">
        <ele>67.3</ele>
        <time>2021-05-27T14:14:36Z</time>
      </trkpt>
      <trkpt lat="47.69368" lon="-2.22696">
        <ele>67.3</ele>
        <time>2021-05-27T14:14:37Z</time>
      </trkpt>
      <trkpt lat="47.69368" lon="-2.22696">
        <ele>67.3</ele>
        <time>2021-05-27T14:14:38Z</time>
      </trkpt>
      <trkpt lat="47.69368" lon="-2.22696">
        <ele>67.3</ele>
        <time>2021-05-27T14:14:39Z</time>
      </trkpt>
      <trkpt lat="47.69368" lon="-2.22696">
        <ele>67.3</ele>
        <time>2021-05-27T14:14:40Z</time>
      </trkpt>
      <trkpt lat="47.69368" lon="-2.22696">
        <ele>67.3</ele>
        <time>2021-05-27T14:14:41Z</time>
      </trkpt>
      <trkpt lat="47.69368" lon="-2.22696">
        <ele>67.3</ele>
        <time>2021-05-27T14:14:42Z</time>
      </trkpt>
      <trkpt lat="47.69368" lon="-2.22696">
        <ele>67.3</ele>
        <time>2021-05-27T14:14:43Z</time>
      </trkpt>
      <trkpt lat="47.69368" lon="-2.22696">
        <ele>67.3</ele>
        <time>2021-05-27T14:14:44Z</time>
      </trkpt>
      <trkpt lat="47.69368" lon="-2.22696">
        <ele>67.3</ele>
        <time>2021-05-27T14:14:45Z</time>
      </trkpt>
      <trkpt lat="47.69368" lon="-2.22696">
        <ele>67.3</ele>
        <time>2021-05-27T14:14:46Z</time>
      </trkpt>
      <trkpt lat="47.69368" lon="-2.22696">
        <ele>67.3</ele>
        <time>2021-05-27T14:14:47Z</time>
      </trkpt>
      <trkpt lat="47.69368" lon="-2.22696">
        <ele>67.3</ele>
        <time>2021-05-27T14:14:48Z</time>
      </trkpt>
      <trkpt lat="47.69368" lon="-2.22696">
        <ele>67.3</ele>
        <time>2021-05-27T14:14:49Z</time>
      </trkpt>
      <trkpt lat="47.69368" lon="-2.22696">
        <ele>67.3</ele>
        <time>2021-05-27T14:14:50Z</time>
      </trkpt>
      <trkpt lat="47.69368" lon="-2.22696">
        <ele>67.3</ele>
        <time>2021-05-27T14:14:51Z</time>
      </trkpt>
      <trkpt lat="47.69368" lon="-2.22696">
        <ele>67.3</ele>
        <time>2021-05-27T14:14:52Z</time>
      </trkpt>
      <trkpt lat="47.69368" lon="-2.22696">
        <ele>67.3</ele>
        <time>2021-05-27T14:14:53Z</time>
      </trkpt>
      <trkpt lat="47.69368" lon="-2.22696">
        <ele>67.3</ele>
        <time>2021-05-27T14:14:54Z</time>
      </trkpt>
      <trkpt lat="47.69368" lon="-2.22696">
        <ele>67.3</ele>
        <time>2021-05-27T14:14:55Z</time>
      </trkpt>
      <trkpt lat="47.69368" lon="-2.22696">
        <ele>67.3</ele>
        <time>2021-05-27T14:14:56Z</time>
      </trkpt>
      <trkpt lat="47.69368" lon="-2.22696">
        <ele>67.3</ele>
        <time>2021-05-27T14:14:57Z</time>
      </trkpt>
      <trkpt lat="47.69368" lon="-2.22696">
        <ele>67.3</ele>
        <time>2021-05-27T14:14:58Z</time>
      </trkpt>
      <trkpt lat="47.69368" lon="-2.22696">
        <ele>67.3</ele>
        <time>2021-05-27T14:14:59Z</time>
      </trkpt>
      <trkpt lat="47.69368" lon="-2.22696">
        <ele>67.3</ele>
        <time>2021-05-27T14:15:00Z</time>
      </trkpt>
      <trkpt lat="47.69368" lon="-2.22696">
        <ele>67.3</ele>
        <time>2021-05-27T14:15:01Z</time>
      </trkpt>
      <trkpt lat="47.69368" lon="-2.22696">
        <ele>67.3</ele>
        <time>2021-05-27T14:15:02Z</time>
      </trkpt>
      <trkpt lat="47.69368" lon="-2.22696">
        <ele>67.3</ele>
        <time>2021-05-27T14:15:03Z</time>
      </trkpt>
      <trkpt lat="47.69368" lon="-2.22696">
        <ele>67.3</ele>
        <time>2021-05-27T14:15:04Z</time>
      </trkpt>
      <trkpt lat="47.69368" lon="-2.22696">
        <ele>67.3</ele>
        <time>2021-05-27T14:15:05Z</time>
      </trkpt>
      <trkpt lat="47.69368" lon="-2.22696">
        <ele>67.3</ele>
        <time>2021-05-27T14:15:06Z</time>
      </trkpt>
      <trkpt lat="47.69368" lon="-2.22696">
        <ele>67.3</ele>
        <time>2021-05-27T14:15:07Z</time>
      </trkpt>
      <trkpt lat="47.69368" lon="-2.22696">
        <ele>67.3</ele>
        <time>2021-05-27T14:15:08Z</time>
      </trkpt>
      <trkpt lat="47.69368" lon="-2.22696">
        <ele>67.3</ele>
        <time>2021-05-27T14:15:09Z</time>
      </trkpt>
      <trkpt lat="47.69368" lon="-2.22696">
        <ele>67.3</ele>
        <time>2021-05-27T14:15:10Z</time>
      </trkpt>
      <trkpt lat="47.69368" lon="-2.22696">
        <ele>67.3</ele>
        <time>2021-05-27T14:15:11Z</time>
      </trkpt>
      <trkpt lat="47.69368" lon="-2.22696">
        <ele>67.3</ele>
        <time>2021-05-27T14:15:12Z</time>
      </trkpt>
      <trkpt lat="47.69368" lon="-2.22696">
        <ele>67.3</ele>
        <time>2021-05-27T14:15:13Z</time>
      </trkpt>
      <trkpt lat="47.69368" lon="-2.22696">
        <ele>67.3</ele>
        <time>2021-05-27T14:15:14Z</time>
      </trkpt>
      <trkpt lat="47.69368" lon="-2.22696">
        <ele>67.3</ele>
        <time>2021-05-27T14:15:15Z</time>
      </trkpt>
      <trkpt lat="47.69368" lon="-2.22696">
        <ele>67.3</ele>
        <time>2021-05-27T14:15:16Z</time>
      </trkpt>
      <trkpt lat="47.69368" lon="-2.22696">
        <ele>67.3</ele>
        <time>2021-05-27T14:15:17Z</time>
      </trkpt>
      <trkpt lat="47.69368" lon="-2.22696">
        <ele>67.3</ele>
        <time>2021-05-27T14:15:18Z</time>
      </trkpt>
      <trkpt lat="47.69368" lon="-2.22696">
        <ele>67.3</ele>
        <time>2021-05-27T14:15:19Z</time>
      </trkpt>
      <trkpt lat="47.69368" lon="-2.22696">
        <ele>67.3</ele>
        <time>2021-05-27T14:15:20Z</time>
      </trkpt>
      <trkpt lat="47.69368" lon="-2.22696">
        <ele>67.3</ele>
        <time>2021-05-27T14:15:21Z</time>
      </trkpt>
      <trkpt lat="47.69368" lon="-2.22696">
        <ele>67.3</ele>
        <time>2021-05-27T14:15:22Z</time>
      </trkpt>
      <trkpt lat="47.69368" lon="-2.22696">
        <ele>67.3</ele>
        <time>2021-05-27T14:15:23Z</time>
      </trkpt>
      <trkpt lat="47.69368" lon="-2.22696">
        <ele>67.3</ele>
        <time>2021-05-27T14:15:24Z</time>
      </trkpt>
      <trkpt lat="47.69368" lon="-2.22696">
        <ele>67.3</ele>
        <time>2021-05-27T14:15:25Z</time>
      </trkpt>
      <trkpt lat="47.69368" lon="-2.22696">
        <ele>67.3</ele>
        <time>2021-05-27T14:15:26Z</time>
      </trkpt>
      <trkpt lat="47.69368" lon="-2.22696">
        <ele>67.3</ele>
        <time>2021-05-27T14:15:27Z</time>
      </trkpt>
      <trkpt lat="47.69368" lon="-2.22696">
        <ele>67.3</ele>
        <time>2021-05-27T14:15:28Z</time>
      </trkpt>
      <trkpt lat="47.69368" lon="-2.22696">
        <ele>67.3</ele>
        <time>2021-05-27T14:15:29Z</time>
      </trkpt>
      <trkpt lat="47.69368" lon="-2.22696">
        <ele>67.3</ele>
        <time>2021-05-27T14:15:30Z</time>
      </trkpt>
      <trkpt lat="47.69368" lon="-2.22696">
        <ele>67.3</ele>
        <time>2021-05-27T14:15:31Z</time>
      </trkpt>
      <trkpt lat="47.69368" lon="-2.22696">
        <ele>67.3</ele>
        <time>2021-05-27T14:15:32Z</time>
      </trkpt>
      <trkpt lat="47.69368" lon="-2.22696">
        <ele>67.3</ele>
        <time>2021-05-27T14:15:33Z</time>
      </trkpt>
      <trkpt lat="47.69368" lon="-2.22696">
        <ele>67.3</ele>
        <time>2021-05-27T14:15:34Z</time>
      </trkpt>
      <trkpt lat="47.69368" lon="-2.22696">
        <ele>67.3</ele>
        <time>2021-05-27T14:15:35Z</time>
      </trkpt>
      <trkpt lat="47.69368" lon="-2.22696">
        <ele>67.3</ele>
        <time>2021-05-27T14:15:36Z</time>
      </trkpt>
      <trkpt lat="47.69368" lon="-2.22696">
        <ele>67.3</ele>
        <time>2021-05-27T14:15:37Z</time>
      </trkpt>
      <trkpt lat="47.69368" lon="-2.22696">
        <ele>67.3</ele>
        <time>2021-05-27T14:15:38Z</time>
      </trkpt>
      <trkpt lat="47.69368" lon="-2.22696">
        <ele>67.3</ele>
        <time>2021-05-27T14:15:39Z</time>
      </trkpt>
      <trkpt lat="47.69368" lon="-2.22696">
        <ele>67.3</ele>
        <time>2021-05-27T14:15:40Z</time>
      </trkpt>
      <trkpt lat="47.69368" lon="-2.22696">
        <ele>67.3</ele>
        <time>2021-05-27T14:15:41Z</time>
      </trkpt>
      <trkpt lat="47.69368" lon="-2.22696">
        <ele>67.3</ele>
        <time>2021-05-27T14:15:42Z</time>
      </trkpt>
      <trkpt lat="47.69368" lon="-2.22696">
        <ele>67.3</ele>
        <time>2021-05-27T14:15:43Z</time>
      </trkpt>
      <trkpt lat="47.69368" lon="-2.22696">
        <ele>67.3</ele>
        <time>2021-05-27T14:15:44Z</time>
      </trkpt>
      <trkpt lat="47.69368" lon="-2.22696">
        <ele>67.3</ele>
        <time>2021-05-27T14:15:45Z</time>
      </trkpt>
      <trkpt lat="47.69368" lon="-2.22696">
        <ele>67.3</ele>
        <time>2021-05-27T14:15:46Z</time>
      </trkpt>
      <trkpt lat="47.69368" lon="-2.22696">
        <ele>67.3</ele>
        <time>2021-05-27T14:15:47Z</time>
      </trkpt>
      <trkpt lat="47.69368" lon="-2.22696">
        <ele>67.3</ele>
        <time>2021-05-27T14:15:48Z</time>
      </trkpt>
      <trkpt lat="47.69368" lon="-2.22696">
        <ele>67.3</ele>
        <time>2021-05-27T14:15:49Z</time>
      </trkpt>
      <trkpt lat="47.69368" lon="-2.22696">
        <ele>67.3</ele>
        <time>2021-05-27T14:15:50Z</time>
      </trkpt>
      <trkpt lat="47.69368" lon="-2.22696">
        <ele>67.3</ele>
        <time>2021-05-27T14:15:51Z</time>
      </trkpt>
      <trkpt lat="47.69368" lon="-2.22696">
        <ele>67.3</ele>
        <time>2021-05-27T14:15:52Z</time>
      </trkpt>
      <trkpt lat="47.69368" lon="-2.22696">
        <ele>67.3</ele>
        <time>2021-05-27T14:15:53Z</time>
      </trkpt>
      <trkpt lat="47.69368" lon="-2.22696">
        <ele>67.3</ele>
        <time>2021-05-27T14:15:54Z</time>
      </trkpt>
      <trkpt lat="47.69368" lon="-2.22696">
        <ele>67.3</ele>
        <time>2021-05-27T14:15:55Z</time>
      </trkpt>
      <trkpt lat="47.69368" lon="-2.22696">
        <ele>67.3</ele>
        <time>2021-05-27T14:15:56Z</time>
      </trkpt>
      <trkpt lat="47.69368" lon="-2.22696">
        <ele>67.3</ele>
        <time>2021-05-27T14:15:57Z</time>
      </trkpt>
      <trkpt lat="47.69368" lon="-2.22696">
        <ele>67.3</ele>
        <time>2021-05-27T14:15:58Z</time>
      </trkpt>
      <trkpt lat="47.69368" lon="-2.22696">
        <ele>67.3</ele>
        <time>2021-05-27T14:15:59Z</time>
      </trkpt>
      <trkpt lat="47.69368" lon="-2.22696">
        <ele>67.3</ele>
        <time>2021-05-27T14:16:00Z</time>
      </trkpt>
      <trkpt lat="47.69368" lon="-2.22696">
        <ele>67.3</ele>
        <time>2021-05-27T14:16:01Z</time>
      </trkpt>
      <trkpt lat="47.69368" lon="-2.22696">
        <ele>67.3</ele>
        <time>2021-05-27T14:16:02Z</time>
      </trkpt>
      <trkpt lat="47.69368" lon="-2.22696">
        <ele>67.3</ele>
        <time>2021-05-27T14:16:03Z</time>
      </trkpt>
      <trkpt lat="47.69368" lon="-2.22696">
        <ele>67.3</ele>
        <time>2021-05-27T14:16:04Z</time>
      </trkpt>
      <trkpt lat="47.69368" lon="-2.22696">
        <ele>67.3</ele>
        <time>2021-05-27T14:16:05Z</time>
      </trkpt>
      <trkpt lat="47.69368" lon="-2.22696">
        <ele>67.3</ele>
        <time>2021-05-27T14:16:06Z</time>
      </trkpt>
      <trkpt lat="47.69368" lon="-2.22696">
        <ele>67.3</ele>
        <time>2021-05-27T14:16:07Z</time>
      </trkpt>
      <trkpt lat="47.69368" lon="-2.22696">
        <ele>67.3</ele>
        <time>2021-05-27T14:16:08Z</time>
      </trkpt>
      <trkpt lat="47.69368" lon="-2.22696">
        <ele>67.3</ele>
        <time>2021-05-27T14:16:09Z</time>
      </trkpt>
      <trkpt lat="47.69368" lon="-2.22696">
        <ele>67.3</ele>
        <time>2021-05-27T14:16:10Z</time>
      </trkpt>
      <trkpt lat="47.69368" lon="-2.22696">
        <ele>67.3</ele>
        <time>2021-05-27T14:16:11Z</time>
      </trkpt>
      <trkpt lat="47.69368" lon="-2.22696">
        <ele>67.3</ele>
        <time>2021-05-27T14:16:12Z</time>
      </trkpt>
      <trkpt lat="47.69368" lon="-2.22696">
        <ele>67.3</ele>
        <time>2021-05-27T14:16:13Z</time>
      </trkpt>
      <trkpt lat="47.69368" lon="-2.22696">
        <ele>67.3</ele>
        <time>2021-05-27T14:16:14Z</time>
      </trkpt>
      <trkpt lat="47.69368" lon="-2.22696">
        <ele>67.3</ele>
        <time>2021-05-27T14:16:15Z</time>
      </trkpt>
      <trkpt lat="47.69368" lon="-2.22696">
        <ele>67.3</ele>
        <time>2021-05-27T14:16:16Z</time>
      </trkpt>
      <trkpt lat="47.69368" lon="-2.22696">
        <ele>67.3</ele>
        <time>2021-05-27T14:16:17Z</time>
      </trkpt>
      <trkpt lat="47.69368" lon="-2.22696">
        <ele>67.3</ele>
        <time>2021-05-27T14:16:18Z</time>
      </trkpt>
      <trkpt lat="47.69368" lon="-2.22696">
        <ele>67.3</ele>
        <time>2021-05-27T14:16:19Z</time>
      </trkpt>
      <trkpt lat="47.69368" lon="-2.22696">
        <ele>67.3</ele>
        <time>2021-05-27T14:16:20Z</time>
      </trkpt>
      <trkpt lat="47.69368" lon="-2.22696">
        <ele>67.3</ele>
        <time>2021-05-27T14:16:21Z</time>
      </trkpt>
      <trkpt lat="47.69368" lon="-2.22696">
        <ele>67.3</ele>
        <time>2021-05-27T14:16:22Z</time>
      </trkpt>
      <trkpt lat="47.69368" lon="-2.22696">
        <ele>67.3</ele>
        <time>2021-05-27T14:16:23Z</time>
      </trkpt>
      <trkpt lat="47.69368" lon="-2.22696">
        <ele>67.3</ele>
        <time>2021-05-27T14:16:24Z</time>
      </trkpt>
      <trkpt lat="47.69368" lon="-2.22696">
        <ele>67.3</ele>
        <time>2021-05-27T14:16:25Z</time>
      </trkpt>
      <trkpt lat="47.69368" lon="-2.22696">
        <ele>67.3</ele>
        <time>2021-05-27T14:16:26Z</time>
      </trkpt>
      <trkpt lat="47.69368" lon="-2.22696">
        <ele>67.3</ele>
        <time>2021-05-27T14:16:27Z</time>
      </trkpt>
      <trkpt lat="47.69368" lon="-2.22696">
        <ele>67.3</ele>
        <time>2021-05-27T14:16:28Z</time>
      </trkpt>
      <trkpt lat="47.69368" lon="-2.22696">
        <ele>67.3</ele>
        <time>2021-05-27T14:16:29Z</time>
      </trkpt>
      <trkpt lat="47.69368" lon="-2.22696">
        <ele>67.3</ele>
        <time>2021-05-27T14:16:30Z</time>
      </trkpt>
      <trkpt lat="47.69368" lon="-2.22696">
        <ele>67.3</ele>
        <time>2021-05-27T14:16:31Z</time>
      </trkpt>
      <trkpt lat="47.69368" lon="-2.22696">
        <ele>67.3</ele>
        <time>2021-05-27T14:16:32Z</time>
      </trkpt>
      <trkpt lat="47.69368" lon="-2.22696">
        <ele>67.3</ele>
        <time>2021-05-27T14:16:33Z</time>
      </trkpt>
      <trkpt lat="47.69368" lon="-2.22696">
        <ele>67.3</ele>
        <time>2021-05-27T14:16:34Z</time>
      </trkpt>
      <trkpt lat="47.69368" lon="-2.22696">
        <ele>67.3</ele>
        <time>2021-05-27T14:16:35Z</time>
      </trkpt>
      <trkpt lat="47.69368" lon="-2.22696">
        <ele>67.3</ele>
        <time>2021-05-27T14:16:36Z</time>
      </trkpt>
      <trkpt lat="47.69368" lon="-2.22696">
        <ele>67.3</ele>
        <time>2021-05-27T14:16:37Z</time>
      </trkpt>
      <trkpt lat="47.69368" lon="-2.22696">
        <ele>67.3</ele>
        <time>2021-05-27T14:16:38Z</time>
      </trkpt>
      <trkpt lat="47.69368" lon="-2.22696">
        <ele>67.3</ele>
        <time>2021-05-27T14:16:39Z</time>
      </trkpt>
      <trkpt lat="47.69368" lon="-2.22696">
        <ele>67.3</ele>
        <time>2021-05-27T14:16:40Z</time>
      </trkpt>
      <trkpt lat="47.69368" lon="-2.22696">
        <ele>67.3</ele>
        <time>2021-05-27T14:16:41Z</time>
      </trkpt>
      <trkpt lat="47.69368" lon="-2.22696">
        <ele>67.3</ele>
        <time>2021-05-27T14:16:42Z</time>
      </trkpt>
      <trkpt lat="47.69368" lon="-2.22696">
        <ele>67.3</ele>
        <time>2021-05-27T14:16:43Z</time>
      </trkpt>
      <trkpt lat="47.69368" lon="-2.22696">
        <ele>67.3</ele>
        <time>2021-05-27T14:16:44Z</time>
      </trkpt>
      <trkpt lat="47.69368" lon="-2.22696">
        <ele>67.3</ele>
        <time>2021-05-27T14:16:45Z</time>
      </trkpt>
      <trkpt lat="47.69368" lon="-2.22696">
        <ele>67.3</ele>
        <time>2021-05-27T14:16:46Z</time>
      </trkpt>
      <trkpt lat="47.69368" lon="-2.22696">
        <ele>67.3</ele>
        <time>2021-05-27T14:16:47Z</time>
      </trkpt>
      <trkpt lat="47.69368" lon="-2.22696">
        <ele>67.3</ele>
        <time>2021-05-27T14:16:48Z</time>
      </trkpt>
      <trkpt lat="47.69368" lon="-2.22696">
        <ele>67.3</ele>
        <time>2021-05-27T14:16:49Z</time>
      </trkpt>
      <trkpt lat="47.69368" lon="-2.22696">
        <ele>67.3</ele>
        <time>2021-05-27T14:16:50Z</time>
      </trkpt>
      <trkpt lat="47.69368" lon="-2.22696">
        <ele>67.3</ele>
        <time>2021-05-27T14:16:51Z</time>
      </trkpt>
      <trkpt lat="47.69368" lon="-2.22696">
        <ele>67.3</ele>
        <time>2021-05-27T14:16:52Z</time>
      </trkpt>
      <trkpt lat="47.69368" lon="-2.22696">
        <ele>67.3</ele>
        <time>2021-05-27T14:16:53Z</time>
      </trkpt>
      <trkpt lat="47.69368" lon="-2.22696">
        <ele>67.3</ele>
        <time>2021-05-27T14:16:54Z</time>
      </trkpt>
      <trkpt lat="47.69368" lon="-2.22696">
        <ele>67.3</ele>
        <time>2021-05-27T14:16:55Z</time>
      </trkpt>
      <trkpt lat="47.69368" lon="-2.22696">
        <ele>67.3</ele>
        <time>2021-05-27T14:16:56Z</time>
      </trkpt>
      <trkpt lat="47.69368" lon="-2.22696">
        <ele>67.3</ele>
        <time>2021-05-27T14:16:57Z</time>
      </trkpt>
      <trkpt lat="47.69368" lon="-2.22696">
        <ele>67.3</ele>
        <time>2021-05-27T14:16:58Z</time>
      </trkpt>
      <trkpt lat="47.69368" lon="-2.22696">
        <ele>67.3</ele>
        <time>2021-05-27T14:16:59Z</time>
      </trkpt>
      <trkpt lat="47.69368" lon="-2.22696">
        <ele>67.3</ele>
        <time>2021-05-27T14:17:00Z</time>
      </trkpt>
      <trkpt lat="47.69368" lon="-2.22696">
        <ele>67.3</ele>
        <time>2021-05-27T14:17:01Z</time>
      </trkpt>
      <trkpt lat="47.69368" lon="-2.22696">
        <ele>67.3</ele>
        <time>2021-05-27T14:17:02Z</time>
      </trkpt>
      <trkpt lat="47.69368" lon="-2.22696">
        <ele>67.3</ele>
        <time>2021-05-27T14:17:03Z</time>
      </trkpt>
      <trkpt lat="47.69368" lon="-2.22696">
        <ele>67.3</ele>
        <time>2021-05-27T14:17:04Z</time>
      </trkpt>
      <trkpt lat="47.69368" lon="-2.22696">
        <ele>67.3</ele>
        <time>2021-05-27T14:17:05Z</time>
      </trkpt>
      <trkpt lat="47.69368" lon="-2.22696">
        <ele>67.3</ele>
        <time>2021-05-27T14:17:06Z</time>
      </trkpt>
      <trkpt lat="47.69368" lon="-2.22696">
        <ele>67.3</ele>
        <time>2021-05-27T14:17:07Z</time>
      </trkpt>
      <trkpt lat="47.69368" lon="-2.22696">
        <ele>67.3</ele>
        <time>2021-05-27T14:17:08Z</time>
      </trkpt>
      <trkpt lat="47.69368" lon="-2.22696">
        <ele>67.3</ele>
        <time>2021-05-27T14:17:09Z</time>
      </trkpt>
      <trkpt lat="47.69368" lon="-2.22696">
        <ele>67.3</ele>
        <time>2021-05-27T14:17:10Z</time>
      </trkpt>
      <trkpt lat="47.69368" lon="-2.22696">
        <ele>67.3</ele>
        <time>2021-05-27T14:17:11Z</time>
      </trkpt>
      <trkpt lat="47.69368" lon="-2.22696">
        <ele>67.3</ele>
        <time>2021-05-27T14:17:12Z</time>
      </trkpt>
      <trkpt lat="47.69368" lon="-2.22696">
        <ele>67.3</ele>
        <time>2021-05-27T14:17:13Z</time>
      </trkpt>
      <trkpt lat="47.69368" lon="-2.22696">
        <ele>67.3</ele>
        <time>2021-05-27T14:17:14Z</time>
      </trkpt>
      <trkpt lat="47.69368" lon="-2.22696">
        <ele>67.3</ele>
        <time>2021-05-27T14:17:15Z</time>
      </trkpt>
      <trkpt lat="47.69368" lon="-2.22696">
        <ele>67.3</ele>
        <time>2021-05-27T14:17:16Z</time>
      </trkpt>
      <trkpt lat="47.69368" lon="-2.22696">
        <ele>67.3</ele>
        <time>2021-05-27T14:17:17Z</time>
      </trkpt>
      <trkpt lat="47.69368" lon="-2.22696">
        <ele>67.3</ele>
        <time>2021-05-27T14:17:18Z</time>
      </trkpt>
      <trkpt lat="47.69368" lon="-2.22696">
        <ele>67.3</ele>
        <time>2021-05-27T14:17:19Z</time>
      </trkpt>
      <trkpt lat="47.69368" lon="-2.22696">
        <ele>67.3</ele>
        <time>2021-05-27T14:17:20Z</time>
      </trkpt>
      <trkpt lat="47.69368" lon="-2.22696">
        <ele>67.3</ele>
        <time>2021-05-27T14:17:21Z</time>
      </trkpt>
      <trkpt lat="47.69368" lon="-2.22696">
        <ele>67.3</ele>
        <time>2021-05-27T14:17:22Z</time>
      </trkpt>
      <trkpt lat="47.69368" lon="-2.22696">
        <ele>67.3</ele>
        <time>2021-05-27T14:17:23Z</time>
      </trkpt>
      <trkpt lat="47.69368" lon="-2.22696">
        <ele>67.3</ele>
        <time>2021-05-27T14:17:24Z</time>
      </trkpt>
      <trkpt lat="47.69368" lon="-2.22696">
        <ele>67.3</ele>
        <time>2021-05-27T14:17:25Z</time>
      </trkpt>
      <trkpt lat="47.69368" lon="-2.22696">
        <ele>67.3</ele>
        <time>2021-05-27T14:17:26Z</time>
      </trkpt>
      <trkpt lat="47.69368" lon="-2.22696">
        <ele>67.3</ele>
        <time>2021-05-27T14:17:27Z</time>
      </trkpt>
      <trkpt lat="47.69368" lon="-2.22696">
        <ele>67.3</ele>
        <time>2021-05-27T14:17:28Z</time>
      </trkpt>
      <trkpt lat="47.69368" lon="-2.22696">
        <ele>67.3</ele>
        <time>2021-05-27T14:17:29Z</time>
      </trkpt>
      <trkpt lat="47.69368" lon="-2.22696">
        <ele>67.3</ele>
        <time>2021-05-27T14:17:30Z</time>
      </trkpt>
      <trkpt lat="47.69368" lon="-2.22696">
        <ele>67.3</ele>
        <time>2021-05-27T14:17:31Z</time>
      </trkpt>
      <trkpt lat="47.69368" lon="-2.22696">
        <ele>67.3</ele>
        <time>2021-05-27T14:17:32Z</time>
      </trkpt>
      <trkpt lat="47.69368" lon="-2.22696">
        <ele>67.3</ele>
        <time>2021-05-27T14:17:33Z</time>
      </trkpt>
      <trkpt lat="47.69368" lon="-2.22696">
        <ele>67.3</ele>
        <time>2021-05-27T14:17:34Z</time>
      </trkpt>
      <trkpt lat="47.69368" lon="-2.22696">
        <ele>67.3</ele>
        <time>2021-05-27T14:17:35Z</time>
      </trkpt>
      <trkpt lat="47.69368" lon="-2.22696">
        <ele>67.3</ele>
        <time>2021-05-27T14:17:36Z</time>
      </trkpt>
      <trkpt lat="47.69368" lon="-2.22696">
        <ele>67.3</ele>
        <time>2021-05-27T14:17:37Z</time>
      </trkpt>
      <trkpt lat="47.69368" lon="-2.22696">
        <ele>67.3</ele>
        <time>2021-05-27T14:17:38Z</time>
      </trkpt>
      <trkpt lat="47.69368" lon="-2.22696">
        <ele>67.3</ele>
        <time>2021-05-27T14:17:39Z</time>
      </trkpt>
      <trkpt lat="47.69368" lon="-2.22696">
        <ele>67.3</ele>
        <time>2021-05-27T14:17:40Z</time>
      </trkpt>
      <trkpt lat="47.69368" lon="-2.22696">
        <ele>67.3</ele>
        <time>2021-05-27T14:17:41Z</time>
      </trkpt>
      <trkpt lat="47.69368" lon="-2.22696">
        <ele>67.3</ele>
        <time>2021-05-27T14:17:42Z</time>
      </trkpt>
      <trkpt lat="47.69368" lon="-2.22696">
        <ele>67.3</ele>
        <time>2021-05-27T14:17:43Z</time>
      </trkpt>
      <trkpt lat="47.69368" lon="-2.22696">
        <ele>67.3</ele>
        <time>2021-05-27T14:17:44Z</time>
      </trkpt>
      <trkpt lat="47.69368" lon="-2.22696">
        <ele>67.3</ele>
        <time>2021-05-27T14:17:45Z</time>
      </trkpt>
      <trkpt lat="47.69368" lon="-2.22696">
        <ele>67.3</ele>
        <time>2021-05-27T14:17:46Z</time>
      </trkpt>
      <trkpt lat="47.69368" lon="-2.22696">
        <ele>67.3</ele>
        <time>2021-05-27T14:17:47Z</time>
      </trkpt>
      <trkpt lat="47.69368" lon="-2.22696">
        <ele>67.3</ele>
        <time>2021-05-27T14:17:48Z</time>
      </trkpt>
      <trkpt lat="47.69368" lon="-2.22696">
        <ele>67.3</ele>
        <time>2021-05-27T14:17:49Z</time>
      </trkpt>
      <trkpt lat="47.69368" lon="-2.22696">
        <ele>67.3</ele>
        <time>2021-05-27T14:17:50Z</time>
      </trkpt>
      <trkpt lat="47.69368" lon="-2.22696">
        <ele>67.3</ele>
        <time>2021-05-27T14:17:51Z</time>
      </trkpt>
      <trkpt lat="47.69368" lon="-2.22696">
        <ele>67.3</ele>
        <time>2021-05-27T14:17:52Z</time>
      </trkpt>
      <trkpt lat="47.69368" lon="-2.22696">
        <ele>67.3</ele>
        <time>2021-05-27T14:17:53Z</time>
      </trkpt>
      <trkpt lat="47.69368" lon="-2.22696">
        <ele>67.3</ele>
        <time>2021-05-27T14:17:54Z</time>
      </trkpt>
      <trkpt lat="47.69368" lon="-2.22696">
        <ele>67.3</ele>
        <time>2021-05-27T14:17:55Z</time>
      </trkpt>
      <trkpt lat="47.69368" lon="-2.22696">
        <ele>67.3</ele>
        <time>2021-05-27T14:17:56Z</time>
      </trkpt>
      <trkpt lat="47.69368" lon="-2.22696">
        <ele>67.3</ele>
        <time>2021-05-27T14:17:57Z</time>
      </trkpt>
      <trkpt lat="47.69368" lon="-2.22696">
        <ele>67.3</ele>
        <time>2021-05-27T14:17:58Z</time>
      </trkpt>
      <trkpt lat="47.69368" lon="-2.22696">
        <ele>67.3</ele>
        <time>2021-05-27T14:17:59Z</time>
      </trkpt>
      <trkpt lat="47.69368" lon="-2.22696">
        <ele>67.3</ele>
        <time>2021-05-27T14:18:00Z</time>
      </trkpt>
      <trkpt lat="47.69368" lon="-2.22696">
        <ele>67.3</ele>
        <time>2021-05-27T14:18:01Z</time>
      </trkpt>
      <trkpt lat="47.69368" lon="-2.22696">
        <ele>67.3</ele>
        <time>2021-05-27T14:18:02Z</time>
      </trkpt>
      <trkpt lat="47.69368" lon="-2.22696">
        <ele>67.3</ele>
        <time>2021-05-27T14:18:03Z</time>
      </trkpt>
      <trkpt lat="47.69368" lon="-2.22696">
        <ele>67.3</ele>
        <time>2021-05-27T14:18:04Z</time>
      </trkpt>
      <trkpt lat="47.69368" lon="-2.22696">
        <ele>67.3</ele>
        <time>2021-05-27T14:18:05Z</time>
      </trkpt>
      <trkpt lat="47.69368" lon="-2.22696">
        <ele>67.3</ele>
        <time>2021-05-27T14:18:06Z</time>
      </trkpt>
      <trkpt lat="47.69368" lon="-2.22696">
        <ele>67.3</ele>
        <time>2021-05-27T14:18:07Z</time>
      </trkpt>
      <trkpt lat="47.69368" lon="-2.22696">
        <ele>67.3</ele>
        <time>2021-05-27T14:18:08Z</time>
      </trkpt>
      <trkpt lat="47.69368" lon="-2.22696">
        <ele>67.3</ele>
        <time>2021-05-27T14:18:09Z</time>
      </trkpt>
      <trkpt lat="47.69368" lon="-2.22696">
        <ele>67.3</ele>
        <time>2021-05-27T14:18:10Z</time>
      </trkpt>
      <trkpt lat="47.69368" lon="-2.22696">
        <ele>67.3</ele>
        <time>2021-05-27T14:18:11Z</time>
      </trkpt>
      <trkpt lat="47.69368" lon="-2.22696">
        <ele>67.3</ele>
        <time>2021-05-27T14:18:12Z</time>
      </trkpt>
      <trkpt lat="47.69368" lon="-2.22696">
        <ele>67.3</ele>
        <time>2021-05-27T14:18:13Z</time>
      </trkpt>
      <trkpt lat="47.69368" lon="-2.22696">
        <ele>67.3</ele>
        <time>2021-05-27T14:18:14Z</time>
      </trkpt>
      <trkpt lat="47.69368" lon="-2.22696">
        <ele>67.3</ele>
        <time>2021-05-27T14:18:15Z</time>
      </trkpt>
      <trkpt lat="47.69368" lon="-2.22696">
        <ele>67.3</ele>
        <time>2021-05-27T14:18:16Z</time>
      </trkpt>
      <trkpt lat="47.69368" lon="-2.22696">
        <ele>67.3</ele>
        <time>2021-05-27T14:18:17Z</time>
      </trkpt>
      <trkpt lat="47.69368" lon="-2.22696">
        <ele>67.3</ele>
        <time>2021-05-27T14:18:18Z</time>
      </trkpt>
      <trkpt lat="47.69368" lon="-2.22696">
        <ele>67.3</ele>
        <time>2021-05-27T14:18:19Z</time>
      </trkpt>
      <trkpt lat="47.69368" lon="-2.22696">
        <ele>67.3</ele>
        <time>2021-05-27T14:18:20Z</time>
      </trkpt>
      <trkpt lat="47.69368" lon="-2.22696">
        <ele>67.3</ele>
        <time>2021-05-27T14:18:21Z</time>
      </trkpt>
      <trkpt lat="47.69368" lon="-2.22696">
        <ele>67.3</ele>
        <time>2021-05-27T14:18:22Z</time>
      </trkpt>
      <trkpt lat="47.69368" lon="-2.22696">
        <ele>67.3</ele>
        <time>2021-05-27T14:18:23Z</time>
      </trkpt>
      <trkpt lat="47.69368" lon="-2.22696">
        <ele>67.3</ele>
        <time>2021-05-27T14:18:24Z</time>
      </trkpt>
      <trkpt lat="47.69368" lon="-2.22696">
        <ele>67.3</ele>
        <time>2021-05-27T14:18:25Z</time>
      </trkpt>
      <trkpt lat="47.69368" lon="-2.22696">
        <ele>67.3</ele>
        <time>2021-05-27T14:18:26Z</time>
      </trkpt>
      <trkpt lat="47.69368" lon="-2.22696">
        <ele>67.3</ele>
        <time>2021-05-27T14:18:27Z</time>
      </trkpt>
      <trkpt lat="47.69368" lon="-2.22696">
        <ele>67.3</ele>
        <time>2021-05-27T14:18:28Z</time>
      </trkpt>
      <trkpt lat="47.69368" lon="-2.22696">
        <ele>67.3</ele>
        <time>2021-05-27T14:18:29Z</time>
      </trkpt>
      <trkpt lat="47.69368" lon="-2.22696">
        <ele>67.3</ele>
        <time>2021-05-27T14:18:30Z</time>
      </trkpt>
      <trkpt lat="47.69368" lon="-2.22696">
        <ele>67.3</ele>
        <time>2021-05-27T14:18:31Z</time>
      </trkpt>
      <trkpt lat="47.69368" lon="-2.22696">
        <ele>67.3</ele>
        <time>2021-05-27T14:18:32Z</time>
      </trkpt>
      <trkpt lat="47.69368" lon="-2.22696">
        <ele>67.3</ele>
        <time>2021-05-27T14:18:33Z</time>
      </trkpt>
      <trkpt lat="47.69368" lon="-2.22696">
        <ele>67.3</ele>
        <time>2021-05-27T14:18:34Z</time>
      </trkpt>
      <trkpt lat="47.69368" lon="-2.22696">
        <ele>67.3</ele>
        <time>2021-05-27T14:18:35Z</time>
      </trkpt>
      <trkpt lat="47.69368" lon="-2.22696">
        <ele>67.3</ele>
        <time>2021-05-27T14:18:36Z</time>
      </trkpt>
      <trkpt lat="47.69368" lon="-2.22696">
        <ele>67.3</ele>
        <time>2021-05-27T14:18:37Z</time>
      </trkpt>
      <trkpt lat="47.69368" lon="-2.22696">
        <ele>67.3</ele>
        <time>2021-05-27T14:18:38Z</time>
      </trkpt>
      <trkpt lat="47.69368" lon="-2.22696">
        <ele>67.3</ele>
        <time>2021-05-27T14:18:39Z</time>
      </trkpt>
      <trkpt lat="47.69368" lon="-2.22696">
        <ele>67.3</ele>
        <time>2021-05-27T14:18:40Z</time>
      </trkpt>
      <trkpt lat="47.69368" lon="-2.22696">
        <ele>67.3</ele>
        <time>2021-05-27T14:18:41Z</time>
      </trkpt>
      <trkpt lat="47.69368" lon="-2.22696">
        <ele>67.3</ele>
        <time>2021-05-27T14:18:42Z</time>
      </trkpt>
      <trkpt lat="47.69368" lon="-2.22696">
        <ele>67.3</ele>
        <time>2021-05-27T14:18:43Z</time>
      </trkpt>
      <trkpt lat="47.69368" lon="-2.22696">
        <ele>67.3</ele>
        <time>2021-05-27T14:18:44Z</time>
      </trkpt>
      <trkpt lat="47.69368" lon="-2.22696">
        <ele>67.3</ele>
        <time>2021-05-27T14:18:45Z</time>
      </trkpt>
      <trkpt lat="47.69368" lon="-2.22696">
        <ele>67.3</ele>
        <time>2021-05-27T14:18:46Z</time>
      </trkpt>
      <trkpt lat="47.69368" lon="-2.22696">
        <ele>67.3</ele>
        <time>2021-05-27T14:18:47Z</time>
      </trkpt>
      <trkpt lat="47.69368" lon="-2.22696">
        <ele>67.3</ele>
        <time>2021-05-27T14:18:48Z</time>
      </trkpt>
      <trkpt lat="47.69368" lon="-2.22696">
        <ele>67.3</ele>
        <time>2021-05-27T14:18:49Z</time>
      </trkpt>
      <trkpt lat="47.69368" lon="-2.22696">
        <ele>67.3</ele>
        <time>2021-05-27T14:18:50Z</time>
      </trkpt>
      <trkpt lat="47.69368" lon="-2.22696">
        <ele>67.3</ele>
        <time>2021-05-27T14:18:51Z</time>
      </trkpt>
      <trkpt lat="47.69368" lon="-2.22696">
        <ele>67.3</ele>
        <time>2021-05-27T14:18:52Z</time>
      </trkpt>
      <trkpt lat="47.69368" lon="-2.22696">
        <ele>67.3</ele>
        <time>2021-05-27T14:18:53Z</time>
      </trkpt>
      <trkpt lat="47.69368" lon="-2.22696">
        <ele>67.3</ele>
        <time>2021-05-27T14:18:54Z</time>
      </trkpt>
      <trkpt lat="47.69368" lon="-2.22696">
        <ele>67.3</ele>
        <time>2021-05-27T14:18:55Z</time>
      </trkpt>
      <trkpt lat="47.69368" lon="-2.22696">
        <ele>67.3</ele>
        <time>2021-05-27T14:18:56Z</time>
      </trkpt>
      <trkpt lat="47.69368" lon="-2.22696">
        <ele>67.3</ele>
        <time>2021-05-27T14:18:57Z</time>
      </trkpt>
      <trkpt lat="47.69368" lon="-2.22696">
        <ele>67.3</ele>
        <time>2021-05-27T14:18:58Z</time>
      </trkpt>
      <trkpt lat="47.69368" lon="-2.22696">
        <ele>67.3</ele>
        <time>2021-05-27T14:18:59Z</time>
      </trkpt>
      <trkpt lat="47.69368" lon="-2.22696">
        <ele>67.3</ele>
        <time>2021-05-27T14:19:00Z</time>
      </trkpt>
      <trkpt lat="47.69368" lon="-2.22696">
        <ele>67.3</ele>
        <time>2021-05-27T14:19:01Z</time>
      </trkpt>
      <trkpt lat="47.69368" lon="-2.22696">
        <ele>67.3</ele>
        <time>2021-05-27T14:19:02Z</time>
      </trkpt>
      <trkpt lat="47.69368" lon="-2.22696">
        <ele>67.3</ele>
        <time>2021-05-27T14:19:03Z</time>
      </trkpt>
      <trkpt lat="47.69368" lon="-2.22696">
        <ele>67.3</ele>
        <time>2021-05-27T14:19:04Z</time>
      </trkpt>
      <trkpt lat="47.69368" lon="-2.22696">
        <ele>67.3</ele>
        <time>2021-05-27T14:19:05Z</time>
      </trkpt>
      <trkpt lat="47.69368" lon="-2.22696">
        <ele>67.3</ele>
        <time>2021-05-27T14:19:06Z</time>
      </trkpt>
      <trkpt lat="47.69368" lon="-2.22696">
        <ele>67.3</ele>
        <time>2021-05-27T14:19:07Z</time>
      </trkpt>
      <trkpt lat="47.69368" lon="-2.22696">
        <ele>67.3</ele>
        <time>2021-05-27T14:19:08Z</time>
      </trkpt>
      <trkpt lat="47.69368" lon="-2.22696">
        <ele>67.3</ele>
        <time>2021-05-27T14:19:09Z</time>
      </trkpt>
      <trkpt lat="47.69368" lon="-2.22696">
        <ele>67.3</ele>
        <time>2021-05-27T14:19:10Z</time>
      </trkpt>
      <trkpt lat="47.69368" lon="-2.22696">
        <ele>67.3</ele>
        <time>2021-05-27T14:19:11Z</time>
      </trkpt>
      <trkpt lat="47.69368" lon="-2.22696">
        <ele>67.3</ele>
        <time>2021-05-27T14:19:12Z</time>
      </trkpt>
      <trkpt lat="47.69368" lon="-2.22696">
        <ele>67.3</ele>
        <time>2021-05-27T14:19:13Z</time>
      </trkpt>
      <trkpt lat="47.69368" lon="-2.22696">
        <ele>67.3</ele>
        <time>2021-05-27T14:19:14Z</time>
      </trkpt>
      <trkpt lat="47.69368" lon="-2.22696">
        <ele>67.3</ele>
        <time>2021-05-27T14:19:15Z</time>
      </trkpt>
      <trkpt lat="47.69368" lon="-2.22696">
        <ele>67.3</ele>
        <time>2021-05-27T14:19:16Z</time>
      </trkpt>
      <trkpt lat="47.69368" lon="-2.22696">
        <ele>67.3</ele>
        <time>2021-05-27T14:19:17Z</time>
      </trkpt>
      <trkpt lat="47.69368" lon="-2.22696">
        <ele>67.3</ele>
        <time>2021-05-27T14:19:18Z</time>
      </trkpt>
      <trkpt lat="47.69368" lon="-2.22696">
        <ele>67.3</ele>
        <time>2021-05-27T14:19:19Z</time>
      </trkpt>
      <trkpt lat="47.69368" lon="-2.22696">
        <ele>67.3</ele>
        <time>2021-05-27T14:19:20Z</time>
      </trkpt>
      <trkpt lat="47.69368" lon="-2.22696">
        <ele>67.3</ele>
        <time>2021-05-27T14:19:21Z</time>
      </trkpt>
      <trkpt lat="47.69368" lon="-2.22696">
        <ele>67.3</ele>
        <time>2021-05-27T14:19:22Z</time>
      </trkpt>
      <trkpt lat="47.69368" lon="-2.22696">
        <ele>67.3</ele>
        <time>2021-05-27T14:19:23Z</time>
      </trkpt>
      <trkpt lat="47.69368" lon="-2.22696">
        <ele>67.3</ele>
        <time>2021-05-27T14:19:24Z</time>
      </trkpt>
      <trkpt lat="47.69368" lon="-2.22696">
        <ele>67.3</ele>
        <time>2021-05-27T14:19:25Z</time>
      </trkpt>
      <trkpt lat="47.69368" lon="-2.22696">
        <ele>67.3</ele>
        <time>2021-05-27T14:19:26Z</time>
      </trkpt>
      <trkpt lat="47.69368" lon="-2.22696">
        <ele>67.3</ele>
        <time>2021-05-27T14:19:27Z</time>
      </trkpt>
      <trkpt lat="47.69368" lon="-2.22696">
        <ele>67.3</ele>
        <time>2021-05-27T14:19:28Z</time>
      </trkpt>
      <trkpt lat="47.69368" lon="-2.22696">
        <ele>67.3</ele>
        <time>2021-05-27T14:19:29Z</time>
      </trkpt>
      <trkpt lat="47.69368" lon="-2.22696">
        <ele>67.3</ele>
        <time>2021-05-27T14:19:30Z</time>
      </trkpt>
      <trkpt lat="47.69368" lon="-2.22696">
        <ele>67.3</ele>
        <time>2021-05-27T14:19:31Z</time>
      </trkpt>
      <trkpt lat="47.69368" lon="-2.22696">
        <ele>67.3</ele>
        <time>2021-05-27T14:19:32Z</time>
      </trkpt>
      <trkpt lat="47.69368" lon="-2.22696">
        <ele>67.3</ele>
        <time>2021-05-27T14:19:33Z</time>
      </trkpt>
      <trkpt lat="47.69368" lon="-2.22696">
        <ele>67.3</ele>
        <time>2021-05-27T14:19:34Z</time>
      </trkpt>
      <trkpt lat="47.69368" lon="-2.22696">
        <ele>67.3</ele>
        <time>2021-05-27T14:19:35Z</time>
      </trkpt>
      <trkpt lat="47.69368" lon="-2.22696">
        <ele>67.3</ele>
        <time>2021-05-27T14:19:36Z</time>
      </trkpt>
      <trkpt lat="47.69368" lon="-2.22696">
        <ele>67.3</ele>
        <time>2021-05-27T14:19:37Z</time>
      </trkpt>
      <trkpt lat="47.69368" lon="-2.22696">
        <ele>67.3</ele>
        <time>2021-05-27T14:19:38Z</time>
      </trkpt>
      <trkpt lat="47.69368" lon="-2.22696">
        <ele>67.3</ele>
        <time>2021-05-27T14:19:39Z</time>
      </trkpt>
      <trkpt lat="47.69368" lon="-2.22696">
        <ele>67.3</ele>
        <time>2021-05-27T14:19:40Z</time>
      </trkpt>
      <trkpt lat="47.69368" lon="-2.22696">
        <ele>67.3</ele>
        <time>2021-05-27T14:19:41Z</time>
      </trkpt>
      <trkpt lat="47.69368" lon="-2.22696">
        <ele>67.3</ele>
        <time>2021-05-27T14:19:42Z</time>
      </trkpt>
      <trkpt lat="47.69368" lon="-2.22696">
        <ele>67.3</ele>
        <time>2021-05-27T14:19:43Z</time>
      </trkpt>
      <trkpt lat="47.69368" lon="-2.22696">
        <ele>67.3</ele>
        <time>2021-05-27T14:19:44Z</time>
      </trkpt>
      <trkpt lat="47.69368" lon="-2.22696">
        <ele>67.3</ele>
        <time>2021-05-27T14:19:45Z</time>
      </trkpt>
      <trkpt lat="47.69368" lon="-2.22696">
        <ele>67.3</ele>
        <time>2021-05-27T14:19:46Z</time>
      </trkpt>
      <trkpt lat="47.69368" lon="-2.22696">
        <ele>67.3</ele>
        <time>2021-05-27T14:19:47Z</time>
      </trkpt>
      <trkpt lat="47.69368" lon="-2.22696">
        <ele>67.3</ele>
        <time>2021-05-27T14:19:48Z</time>
      </trkpt>
      <trkpt lat="47.69368" lon="-2.22696">
        <ele>67.3</ele>
        <time>2021-05-27T14:19:49Z</time>
      </trkpt>
      <trkpt lat="47.69368" lon="-2.22696">
        <ele>67.3</ele>
        <time>2021-05-27T14:19:50Z</time>
      </trkpt>
      <trkpt lat="47.69368" lon="-2.22696">
        <ele>67.3</ele>
        <time>2021-05-27T14:19:51Z</time>
      </trkpt>
      <trkpt lat="47.69368" lon="-2.22696">
        <ele>67.3</ele>
        <time>2021-05-27T14:19:52Z</time>
      </trkpt>
      <trkpt lat="47.69368" lon="-2.22696">
        <ele>67.3</ele>
        <time>2021-05-27T14:19:53Z</time>
      </trkpt>
      <trkpt lat="47.69368" lon="-2.22696">
        <ele>67.3</ele>
        <time>2021-05-27T14:19:54Z</time>
      </trkpt>
      <trkpt lat="47.69368" lon="-2.22696">
        <ele>67.3</ele>
        <time>2021-05-27T14:19:55Z</time>
      </trkpt>
      <trkpt lat="47.69368" lon="-2.22696">
        <ele>67.3</ele>
        <time>2021-05-27T14:19:56Z</time>
      </trkpt>
      <trkpt lat="47.69368" lon="-2.22696">
        <ele>67.3</ele>
        <time>2021-05-27T14:19:57Z</time>
      </trkpt>
      <trkpt lat="47.69368" lon="-2.22696">
        <ele>67.3</ele>
        <time>2021-05-27T14:19:58Z</time>
      </trkpt>
      <trkpt lat="47.69368" lon="-2.22696">
        <ele>67.3</ele>
        <time>2021-05-27T14:19:59Z</time>
      </trkpt>
      <trkpt lat="47.69368" lon="-2.22696">
        <ele>67.3</ele>
        <time>2021-05-27T14:20:00Z</time>
      </trkpt>
      <trkpt lat="47.69368" lon="-2.22696">
        <ele>67.3</ele>
        <time>2021-05-27T14:20:01Z</time>
      </trkpt>
      <trkpt lat="47.69368" lon="-2.22696">
        <ele>67.3</ele>
        <time>2021-05-27T14:20:02Z</time>
      </trkpt>
      <trkpt lat="47.69368" lon="-2.22696">
        <ele>67.3</ele>
        <time>2021-05-27T14:20:03Z</time>
      </trkpt>
      <trkpt lat="47.69368" lon="-2.22696">
        <ele>67.3</ele>
        <time>2021-05-27T14:20:04Z</time>
      </trkpt>
      <trkpt lat="47.69368" lon="-2.22696">
        <ele>67.3</ele>
        <time>2021-05-27T14:20:05Z</time>
      </trkpt>
      <trkpt lat="47.69368" lon="-2.22696">
        <ele>67.3</ele>
        <time>2021-05-27T14:20:06Z</time>
      </trkpt>
      <trkpt lat="47.69368" lon="-2.22696">
        <ele>67.3</ele>
        <time>2021-05-27T14:20:07Z</time>
      </trkpt>
      <trkpt lat="47.69368" lon="-2.22696">
        <ele>67.3</ele>
        <time>2021-05-27T14:20:08Z</time>
      </trkpt>
      <trkpt lat="47.69368" lon="-2.22696">
        <ele>67.3</ele>
        <time>2021-05-27T14:20:09Z</time>
      </trkpt>
      <trkpt lat="47.69368" lon="-2.22696">
        <ele>67.3</ele>
        <time>2021-05-27T14:20:10Z</time>
      </trkpt>
      <trkpt lat="47.69368" lon="-2.22696">
        <ele>67.3</ele>
        <time>2021-05-27T14:20:11Z</time>
      </trkpt>
      <trkpt lat="47.69368" lon="-2.22696">
        <ele>67.3</ele>
        <time>2021-05-27T14:20:12Z</time>
      </trkpt>
      <trkpt lat="47.69368" lon="-2.22696">
        <ele>67.3</ele>
        <time>2021-05-27T14:20:13Z</time>
      </trkpt>
      <trkpt lat="47.69368" lon="-2.22696">
        <ele>67.3</ele>
        <time>2021-05-27T14:20:14Z</time>
      </trkpt>
      <trkpt lat="47.69368" lon="-2.22696">
        <ele>67.3</ele>
        <time>2021-05-27T14:20:15Z</time>
      </trkpt>
      <trkpt lat="47.69368" lon="-2.22696">
        <ele>67.3</ele>
        <time>2021-05-27T14:20:16Z</time>
      </trkpt>
      <trkpt lat="47.69368" lon="-2.22696">
        <ele>67.3</ele>
        <time>2021-05-27T14:20:17Z</time>
      </trkpt>
      <trkpt lat="47.69368" lon="-2.22696">
        <ele>67.3</ele>
        <time>2021-05-27T14:20:18Z</time>
      </trkpt>
      <trkpt lat="47.69368" lon="-2.22696">
        <ele>67.3</ele>
        <time>2021-05-27T14:20:19Z</time>
      </trkpt>
      <trkpt lat="47.69368" lon="-2.22696">
        <ele>67.3</ele>
        <time>2021-05-27T14:20:20Z</time>
      </trkpt>
      <trkpt lat="47.69368" lon="-2.22696">
        <ele>67.3</ele>
        <time>2021-05-27T14:20:21Z</time>
      </trkpt>
      <trkpt lat="47.69368" lon="-2.22696">
        <ele>67.3</ele>
        <time>2021-05-27T14:20:22Z</time>
      </trkpt>
      <trkpt lat="47.69368" lon="-2.22696">
        <ele>67.3</ele>
        <time>2021-05-27T14:20:23Z</time>
      </trkpt>
      <trkpt lat="47.69368" lon="-2.22696">
        <ele>67.3</ele>
        <time>2021-05-27T14:20:24Z</time>
      </trkpt>
      <trkpt lat="47.69368" lon="-2.22696">
        <ele>67.3</ele>
        <time>2021-05-27T14:20:25Z</time>
      </trkpt>
      <trkpt lat="47.69368" lon="-2.22696">
        <ele>67.3</ele>
        <time>2021-05-27T14:20:26Z</time>
      </trkpt>
      <trkpt lat="47.69368" lon="-2.22696">
        <ele>67.3</ele>
        <time>2021-05-27T14:20:27Z</time>
      </trkpt>
      <trkpt lat="47.69368" lon="-2.22696">
        <ele>67.3</ele>
        <time>2021-05-27T14:20:28Z</time>
      </trkpt>
      <trkpt lat="47.69368" lon="-2.22696">
        <ele>67.3</ele>
        <time>2021-05-27T14:20:29Z</time>
      </trkpt>
      <trkpt lat="47.69368" lon="-2.22696">
        <ele>67.3</ele>
        <time>2021-05-27T14:20:30Z</time>
      </trkpt>
      <trkpt lat="47.69368" lon="-2.22696">
        <ele>67.3</ele>
        <time>2021-05-27T14:20:31Z</time>
      </trkpt>
      <trkpt lat="47.69368" lon="-2.22696">
        <ele>67.3</ele>
        <time>2021-05-27T14:20:32Z</time>
      </trkpt>
      <trkpt lat="47.69368" lon="-2.22696">
        <ele>67.3</ele>
        <time>2021-05-27T14:20:33Z</time>
      </trkpt>
      <trkpt lat="47.69368" lon="-2.22696">
        <ele>67.3</ele>
        <time>2021-05-27T14:20:34Z</time>
      </trkpt>
      <trkpt lat="47.69368" lon="-2.22696">
        <ele>67.3</ele>
        <time>2021-05-27T14:20:35Z</time>
      </trkpt>
      <trkpt lat="47.69368" lon="-2.22696">
        <ele>67.3</ele>
        <time>2021-05-27T14:20:36Z</time>
      </trkpt>
      <trkpt lat="47.69368" lon="-2.22696">
        <ele>67.3</ele>
        <time>2021-05-27T14:20:37Z</time>
      </trkpt>
      <trkpt lat="47.69368" lon="-2.22696">
        <ele>67.3</ele>
        <time>2021-05-27T14:20:38Z</time>
      </trkpt>
      <trkpt lat="47.69368" lon="-2.22696">
        <ele>67.3</ele>
        <time>2021-05-27T14:20:39Z</time>
      </trkpt>
      <trkpt lat="47.69368" lon="-2.22696">
        <ele>67.3</ele>
        <time>2021-05-27T14:20:40Z</time>
      </trkpt>
      <trkpt lat="47.69368" lon="-2.22696">
        <ele>67.3</ele>
        <time>2021-05-27T14:20:41Z</time>
      </trkpt>
      <trkpt lat="47.69368" lon="-2.22696">
        <ele>67.3</ele>
        <time>2021-05-27T14:20:42Z</time>
      </trkpt>
      <trkpt lat="47.69368" lon="-2.22696">
        <ele>67.3</ele>
        <time>2021-05-27T14:20:43Z</time>
      </trkpt>
      <trkpt lat="47.69368" lon="-2.22696">
        <ele>67.3</ele>
        <time>2021-05-27T14:20:44Z</time>
      </trkpt>
      <trkpt lat="47.69368" lon="-2.22696">
        <ele>67.3</ele>
        <time>2021-05-27T14:20:45Z</time>
      </trkpt>
      <trkpt lat="47.69368" lon="-2.22696">
        <ele>67.3</ele>
        <time>2021-05-27T14:20:46Z</time>
      </trkpt>
      <trkpt lat="47.69368" lon="-2.22696">
        <ele>67.3</ele>
        <time>2021-05-27T14:20:47Z</time>
      </trkpt>
      <trkpt lat="47.69368" lon="-2.22696">
        <ele>67.3</ele>
        <time>2021-05-27T14:20:48Z</time>
      </trkpt>
      <trkpt lat="47.69368" lon="-2.22696">
        <ele>67.3</ele>
        <time>2021-05-27T14:20:49Z</time>
      </trkpt>
      <trkpt lat="47.69368" lon="-2.22696">
        <ele>67.3</ele>
        <time>2021-05-27T14:20:50Z</time>
      </trkpt>
      <trkpt lat="47.69368" lon="-2.22696">
        <ele>67.3</ele>
        <time>2021-05-27T14:20:51Z</time>
      </trkpt>
      <trkpt lat="47.69368" lon="-2.22696">
        <ele>67.3</ele>
        <time>2021-05-27T14:20:52Z</time>
      </trkpt>
      <trkpt lat="47.69368" lon="-2.22696">
        <ele>67.3</ele>
        <time>2021-05-27T14:20:53Z</time>
      </trkpt>
      <trkpt lat="47.69368" lon="-2.22696">
        <ele>67.3</ele>
        <time>2021-05-27T14:20:54Z</time>
      </trkpt>
      <trkpt lat="47.69368" lon="-2.22696">
        <ele>67.3</ele>
        <time>2021-05-27T14:20:55Z</time>
      </trkpt>
      <trkpt lat="47.69368" lon="-2.22696">
        <ele>67.3</ele>
        <time>2021-05-27T14:20:56Z</time>
      </trkpt>
      <trkpt lat="47.69368" lon="-2.22696">
        <ele>67.3</ele>
        <time>2021-05-27T14:20:57Z</time>
      </trkpt>
      <trkpt lat="47.69368" lon="-2.22696">
        <ele>67.3</ele>
        <time>2021-05-27T14:20:58Z</time>
      </trkpt>
      <trkpt lat="47.69368" lon="-2.22696">
        <ele>67.3</ele>
        <time>2021-05-27T14:20:59Z</time>
      </trkpt>
      <trkpt lat="47.69368" lon="-2.22696">
        <ele>67.3</ele>
        <time>2021-05-27T14:21:00Z</time>
      </trkpt>
      <trkpt lat="47.69368" lon="-2.22696">
        <ele>67.3</ele>
        <time>2021-05-27T14:21:01Z</time>
      </trkpt>
      <trkpt lat="47.69368" lon="-2.22696">
        <ele>67.3</ele>
        <time>2021-05-27T14:21:02Z</time>
      </trkpt>
      <trkpt lat="47.69368" lon="-2.22696">
        <ele>67.3</ele>
        <time>2021-05-27T14:21:03Z</time>
      </trkpt>
      <trkpt lat="47.69368" lon="-2.22696">
        <ele>67.3</ele>
        <time>2021-05-27T14:21:04Z</time>
      </trkpt>
      <trkpt lat="47.69368" lon="-2.22696">
        <ele>67.3</ele>
        <time>2021-05-27T14:21:05Z</time>
      </trkpt>
      <trkpt lat="47.69368" lon="-2.22696">
        <ele>67.3</ele>
        <time>2021-05-27T14:21:06Z</time>
      </trkpt>
      <trkpt lat="47.69368" lon="-2.22696">
        <ele>67.3</ele>
        <time>2021-05-27T14:21:07Z</time>
      </trkpt>
      <trkpt lat="47.69368" lon="-2.22696">
        <ele>67.3</ele>
        <time>2021-05-27T14:21:08Z</time>
      </trkpt>
      <trkpt lat="47.69368" lon="-2.22696">
        <ele>67.3</ele>
        <time>2021-05-27T14:21:09Z</time>
      </trkpt>
      <trkpt lat="47.69368" lon="-2.22696">
        <ele>67.3</ele>
        <time>2021-05-27T14:21:10Z</time>
      </trkpt>
      <trkpt lat="47.69368" lon="-2.22696">
        <ele>67.3</ele>
        <time>2021-05-27T14:21:11Z</time>
      </trkpt>
      <trkpt lat="47.69368" lon="-2.22696">
        <ele>67.3</ele>
        <time>2021-05-27T14:21:12Z</time>
      </trkpt>
      <trkpt lat="47.69368" lon="-2.22696">
        <ele>67.3</ele>
        <time>2021-05-27T14:21:13Z</time>
      </trkpt>
      <trkpt lat="47.69368" lon="-2.22696">
        <ele>67.3</ele>
        <time>2021-05-27T14:21:14Z</time>
      </trkpt>
      <trkpt lat="47.69368" lon="-2.22696">
        <ele>67.3</ele>
        <time>2021-05-27T14:21:15Z</time>
      </trkpt>
      <trkpt lat="47.69368" lon="-2.22696">
        <ele>67.3</ele>
        <time>2021-05-27T14:21:16Z</time>
      </trkpt>
      <trkpt lat="47.69368" lon="-2.22696">
        <ele>67.3</ele>
        <time>2021-05-27T14:21:17Z</time>
      </trkpt>
      <trkpt lat="47.69368" lon="-2.22696">
        <ele>67.3</ele>
        <time>2021-05-27T14:21:18Z</time>
      </trkpt>
      <trkpt lat="47.69368" lon="-2.22696">
        <ele>67.3</ele>
        <time>2021-05-27T14:21:19Z</time>
      </trkpt>
      <trkpt lat="47.69368" lon="-2.22696">
        <ele>67.3</ele>
        <time>2021-05-27T14:21:20Z</time>
      </trkpt>
      <trkpt lat="47.69368" lon="-2.22696">
        <ele>67.3</ele>
        <time>2021-05-27T14:21:21Z</time>
      </trkpt>
      <trkpt lat="47.69368" lon="-2.22696">
        <ele>67.3</ele>
        <time>2021-05-27T14:21:22Z</time>
      </trkpt>
      <trkpt lat="47.69368" lon="-2.22696">
        <ele>67.3</ele>
        <time>2021-05-27T14:21:23Z</time>
      </trkpt>
      <trkpt lat="47.69368" lon="-2.22696">
        <ele>67.3</ele>
        <time>2021-05-27T14:21:24Z</time>
      </trkpt>
      <trkpt lat="47.69368" lon="-2.22696">
        <ele>67.3</ele>
        <time>2021-05-27T14:21:25Z</time>
      </trkpt>
      <trkpt lat="47.69368" lon="-2.22696">
        <ele>67.3</ele>
        <time>2021-05-27T14:21:26Z</time>
      </trkpt>
      <trkpt lat="47.69368" lon="-2.22696">
        <ele>67.3</ele>
        <time>2021-05-27T14:21:27Z</time>
      </trkpt>
      <trkpt lat="47.69368" lon="-2.22696">
        <ele>67.3</ele>
        <time>2021-05-27T14:21:28Z</time>
      </trkpt>
      <trkpt lat="47.69368" lon="-2.22696">
        <ele>67.3</ele>
        <time>2021-05-27T14:21:29Z</time>
      </trkpt>
      <trkpt lat="47.69368" lon="-2.22696">
        <ele>67.3</ele>
        <time>2021-05-27T14:21:30Z</time>
      </trkpt>
      <trkpt lat="47.69368" lon="-2.22696">
        <ele>67.3</ele>
        <time>2021-05-27T14:21:31Z</time>
      </trkpt>
      <trkpt lat="47.69368" lon="-2.22696">
        <ele>67.3</ele>
        <time>2021-05-27T14:21:32Z</time>
      </trkpt>
      <trkpt lat="47.69368" lon="-2.22696">
        <ele>67.3</ele>
        <time>2021-05-27T14:21:33Z</time>
      </trkpt>
      <trkpt lat="47.69368" lon="-2.22696">
        <ele>67.3</ele>
        <time>2021-05-27T14:21:34Z</time>
      </trkpt>
      <trkpt lat="47.69368" lon="-2.22696">
        <ele>67.3</ele>
        <time>2021-05-27T14:21:35Z</time>
      </trkpt>
      <trkpt lat="47.69368" lon="-2.22696">
        <ele>67.3</ele>
        <time>2021-05-27T14:21:36Z</time>
      </trkpt>
      <trkpt lat="47.69368" lon="-2.22696">
        <ele>67.3</ele>
        <time>2021-05-27T14:21:37Z</time>
      </trkpt>
      <trkpt lat="47.69368" lon="-2.22696">
        <ele>67.3</ele>
        <time>2021-05-27T14:21:38Z</time>
      </trkpt>
      <trkpt lat="47.69368" lon="-2.22696">
        <ele>67.3</ele>
        <time>2021-05-27T14:21:39Z</time>
      </trkpt>
      <trkpt lat="47.69368" lon="-2.22696">
        <ele>67.3</ele>
        <time>2021-05-27T14:21:40Z</time>
      </trkpt>
      <trkpt lat="47.69368" lon="-2.22696">
        <ele>67.3</ele>
        <time>2021-05-27T14:21:41Z</time>
      </trkpt>
      <trkpt lat="47.69368" lon="-2.22696">
        <ele>67.3</ele>
        <time>2021-05-27T14:21:42Z</time>
      </trkpt>
      <trkpt lat="47.69368" lon="-2.22696">
        <ele>67.3</ele>
        <time>2021-05-27T14:21:43Z</time>
      </trkpt>
      <trkpt lat="47.69368" lon="-2.22696">
        <ele>67.3</ele>
        <time>2021-05-27T14:21:44Z</time>
      </trkpt>
      <trkpt lat="47.69368" lon="-2.22696">
        <ele>67.3</ele>
        <time>2021-05-27T14:21:45Z</time>
      </trkpt>
      <trkpt lat="47.69368" lon="-2.22696">
        <ele>67.3</ele>
        <time>2021-05-27T14:21:46Z</time>
      </trkpt>
      <trkpt lat="47.69368" lon="-2.22696">
        <ele>67.3</ele>
        <time>2021-05-27T14:21:47Z</time>
      </trkpt>
      <trkpt lat="47.69368" lon="-2.22696">
        <ele>67.3</ele>
        <time>2021-05-27T14:21:48Z</time>
      </trkpt>
      <trkpt lat="47.69368" lon="-2.22696">
        <ele>67.3</ele>
        <time>2021-05-27T14:21:49Z</time>
      </trkpt>
      <trkpt lat="47.69368" lon="-2.22696">
        <ele>67.3</ele>
        <time>2021-05-27T14:21:50Z</time>
      </trkpt>
      <trkpt lat="47.69368" lon="-2.22696">
        <ele>67.3</ele>
        <time>2021-05-27T14:21:51Z</time>
      </trkpt>
      <trkpt lat="47.69368" lon="-2.22696">
        <ele>67.3</ele>
        <time>2021-05-27T14:21:52Z</time>
      </trkpt>
      <trkpt lat="47.69368" lon="-2.22696">
        <ele>67.3</ele>
        <time>2021-05-27T14:21:53Z</time>
      </trkpt>
      <trkpt lat="47.69368" lon="-2.22696">
        <ele>67.3</ele>
        <time>2021-05-27T14:21:54Z</time>
      </trkpt>
      <trkpt lat="47.69368" lon="-2.22696">
        <ele>67.3</ele>
        <time>2021-05-27T14:21:55Z</time>
      </trkpt>
      <trkpt lat="47.69368" lon="-2.22696">
        <ele>67.3</ele>
        <time>2021-05-27T14:21:56Z</time>
      </trkpt>
      <trkpt lat="47.69368" lon="-2.22696">
        <ele>67.3</ele>
        <time>2021-05-27T14:21:57Z</time>
      </trkpt>
      <trkpt lat="47.69368" lon="-2.22696">
        <ele>67.3</ele>
        <time>2021-05-27T14:21:58Z</time>
      </trkpt>
      <trkpt lat="47.69368" lon="-2.22696">
        <ele>67.3</ele>
        <time>2021-05-27T14:21:59Z</time>
      </trkpt>
      <trkpt lat="47.69368" lon="-2.22696">
        <ele>67.3</ele>
        <time>2021-05-27T14:22:00Z</time>
      </trkpt>
      <trkpt lat="47.69368" lon="-2.22696">
        <ele>67.3</ele>
        <time>2021-05-27T14:22:01Z</time>
      </trkpt>
      <trkpt lat="47.69368" lon="-2.22696">
        <ele>67.3</ele>
        <time>2021-05-27T14:22:02Z</time>
      </trkpt>
      <trkpt lat="47.69368" lon="-2.22696">
        <ele>67.3</ele>
        <time>2021-05-27T14:22:03Z</time>
      </trkpt>
      <trkpt lat="47.69368" lon="-2.22696">
        <ele>67.3</ele>
        <time>2021-05-27T14:22:04Z</time>
      </trkpt>
      <trkpt lat="47.69368" lon="-2.22696">
        <ele>67.3</ele>
        <time>2021-05-27T14:22:05Z</time>
      </trkpt>
      <trkpt lat="47.69368" lon="-2.22696">
        <ele>67.3</ele>
        <time>2021-05-27T14:22:06Z</time>
      </trkpt>
      <trkpt lat="47.69368" lon="-2.22696">
        <ele>67.3</ele>
        <time>2021-05-27T14:22:07Z</time>
      </trkpt>
      <trkpt lat="47.69368" lon="-2.22696">
        <ele>67.3</ele>
        <time>2021-05-27T14:22:08Z</time>
      </trkpt>
      <trkpt lat="47.69368" lon="-2.22696">
        <ele>67.3</ele>
        <time>2021-05-27T14:22:09Z</time>
      </trkpt>
      <trkpt lat="47.69368" lon="-2.22696">
        <ele>67.3</ele>
        <time>2021-05-27T14:22:10Z</time>
      </trkpt>
      <trkpt lat="47.69368" lon="-2.22696">
        <ele>67.3</ele>
        <time>2021-05-27T14:22:11Z</time>
      </trkpt>
      <trkpt lat="47.69368" lon="-2.22696">
        <ele>67.3</ele>
        <time>2021-05-27T14:22:12Z</time>
      </trkpt>
      <trkpt lat="47.69368" lon="-2.22696">
        <ele>67.3</ele>
        <time>2021-05-27T14:22:13Z</time>
      </trkpt>
      <trkpt lat="47.69368" lon="-2.22696">
        <ele>67.3</ele>
        <time>2021-05-27T14:22:14Z</time>
      </trkpt>
      <trkpt lat="47.69368" lon="-2.22696">
        <ele>67.3</ele>
        <time>2021-05-27T14:22:15Z</time>
      </trkpt>
      <trkpt lat="47.69368" lon="-2.22696">
        <ele>67.3</ele>
        <time>2021-05-27T14:22:16Z</time>
      </trkpt>
      <trkpt lat="47.69368" lon="-2.22696">
        <ele>67.3</ele>
        <time>2021-05-27T14:22:17Z</time>
      </trkpt>
      <trkpt lat="47.69368" lon="-2.22696">
        <ele>67.3</ele>
        <time>2021-05-27T14:22:18Z</time>
      </trkpt>
      <trkpt lat="47.69368" lon="-2.22696">
        <ele>67.3</ele>
        <time>2021-05-27T14:22:19Z</time>
      </trkpt>
      <trkpt lat="47.69368" lon="-2.22696">
        <ele>67.3</ele>
        <time>2021-05-27T14:22:20Z</time>
      </trkpt>
      <trkpt lat="47.69368" lon="-2.22696">
        <ele>67.3</ele>
        <time>2021-05-27T14:22:21Z</time>
      </trkpt>
      <trkpt lat="47.69368" lon="-2.22696">
        <ele>67.3</ele>
        <time>2021-05-27T14:22:22Z</time>
      </trkpt>
      <trkpt lat="47.69368" lon="-2.22696">
        <ele>67.3</ele>
        <time>2021-05-27T14:22:23Z</time>
      </trkpt>
      <trkpt lat="47.69368" lon="-2.22696">
        <ele>67.3</ele>
        <time>2021-05-27T14:22:24Z</time>
      </trkpt>
      <trkpt lat="47.69368" lon="-2.22696">
        <ele>67.3</ele>
        <time>2021-05-27T14:22:25Z</time>
      </trkpt>
      <trkpt lat="47.69368" lon="-2.22696">
        <ele>67.3</ele>
        <time>2021-05-27T14:22:26Z</time>
      </trkpt>
      <trkpt lat="47.69368" lon="-2.22696">
        <ele>67.3</ele>
        <time>2021-05-27T14:22:27Z</time>
      </trkpt>
      <trkpt lat="47.69368" lon="-2.22696">
        <ele>67.3</ele>
        <time>2021-05-27T14:22:28Z</time>
      </trkpt>
      <trkpt lat="47.69368" lon="-2.22696">
        <ele>67.3</ele>
        <time>2021-05-27T14:22:29Z</time>
      </trkpt>
      <trkpt lat="47.69368" lon="-2.22696">
        <ele>67.3</ele>
        <time>2021-05-27T14:22:30Z</time>
      </trkpt>
      <trkpt lat="47.69368" lon="-2.22696">
        <ele>67.3</ele>
        <time>2021-05-27T14:22:31Z</time>
      </trkpt>
      <trkpt lat="47.69368" lon="-2.22696">
        <ele>67.3</ele>
        <time>2021-05-27T14:22:32Z</time>
      </trkpt>
      <trkpt lat="47.69368" lon="-2.22696">
        <ele>67.3</ele>
        <time>2021-05-27T14:22:33Z</time>
      </trkpt>
      <trkpt lat="47.69368" lon="-2.22696">
        <ele>67.3</ele>
        <time>2021-05-27T14:22:34Z</time>
      </trkpt>
      <trkpt lat="47.69368" lon="-2.22696">
        <ele>67.3</ele>
        <time>2021-05-27T14:22:35Z</time>
      </trkpt>
      <trkpt lat="47.69368" lon="-2.22696">
        <ele>67.3</ele>
        <time>2021-05-27T14:22:36Z</time>
      </trkpt>
      <trkpt lat="47.69368" lon="-2.22696">
        <ele>67.3</ele>
        <time>2021-05-27T14:22:37Z</time>
      </trkpt>
      <trkpt lat="47.69368" lon="-2.22696">
        <ele>67.3</ele>
        <time>2021-05-27T14:22:38Z</time>
      </trkpt>
      <trkpt lat="47.69368" lon="-2.22696">
        <ele>67.3</ele>
        <time>2021-05-27T14:22:39Z</time>
      </trkpt>
      <trkpt lat="47.69368" lon="-2.22696">
        <ele>67.3</ele>
        <time>2021-05-27T14:22:40Z</time>
      </trkpt>
      <trkpt lat="47.69368" lon="-2.22696">
        <ele>67.3</ele>
        <time>2021-05-27T14:22:41Z</time>
      </trkpt>
      <trkpt lat="47.69368" lon="-2.22696">
        <ele>67.3</ele>
        <time>2021-05-27T14:22:42Z</time>
      </trkpt>
      <trkpt lat="47.69368" lon="-2.22696">
        <ele>67.3</ele>
        <time>2021-05-27T14:22:43Z</time>
      </trkpt>
      <trkpt lat="47.69368" lon="-2.22696">
        <ele>67.3</ele>
        <time>2021-05-27T14:22:44Z</time>
      </trkpt>
      <trkpt lat="47.69368" lon="-2.22696">
        <ele>67.3</ele>
        <time>2021-05-27T14:22:45Z</time>
      </trkpt>
      <trkpt lat="47.69368" lon="-2.22696">
        <ele>67.3</ele>
        <time>2021-05-27T14:22:46Z</time>
      </trkpt>
      <trkpt lat="47.69368" lon="-2.22696">
        <ele>67.3</ele>
        <time>2021-05-27T14:22:47Z</time>
      </trkpt>
      <trkpt lat="47.69368" lon="-2.22696">
        <ele>67.3</ele>
        <time>2021-05-27T14:22:48Z</time>
      </trkpt>
      <trkpt lat="47.69368" lon="-2.22696">
        <ele>67.3</ele>
        <time>2021-05-27T14:22:49Z</time>
      </trkpt>
      <trkpt lat="47.69368" lon="-2.22696">
        <ele>67.3</ele>
        <time>2021-05-27T14:22:50Z</time>
      </trkpt>
      <trkpt lat="47.69368" lon="-2.22696">
        <ele>67.3</ele>
        <time>2021-05-27T14:22:51Z</time>
      </trkpt>
      <trkpt lat="47.69368" lon="-2.22696">
        <ele>67.3</ele>
        <time>2021-05-27T14:22:52Z</time>
      </trkpt>
      <trkpt lat="47.69368" lon="-2.22696">
        <ele>67.3</ele>
        <time>2021-05-27T14:22:53Z</time>
      </trkpt>
      <trkpt lat="47.69368" lon="-2.22696">
        <ele>67.3</ele>
        <time>2021-05-27T14:22:54Z</time>
      </trkpt>
      <trkpt lat="47.69368" lon="-2.22696">
        <ele>67.3</ele>
        <time>2021-05-27T14:22:55Z</time>
      </trkpt>
      <trkpt lat="47.69368" lon="-2.22696">
        <ele>67.3</ele>
        <time>2021-05-27T14:22:56Z</time>
      </trkpt>
      <trkpt lat="47.69368" lon="-2.22696">
        <ele>67.3</ele>
        <time>2021-05-27T14:22:57Z</time>
      </trkpt>
      <trkpt lat="47.69368" lon="-2.22696">
        <ele>67.3</ele>
        <time>2021-05-27T14:22:58Z</time>
      </trkpt>
      <trkpt lat="47.69368" lon="-2.22696">
        <ele>67.3</ele>
        <time>2021-05-27T14:22:59Z</time>
      </trkpt>
      <trkpt lat="47.69368" lon="-2.22696">
        <ele>67.3</ele>
        <time>2021-05-27T14:23:00Z</time>
      </trkpt>
      <trkpt lat="47.69368" lon="-2.22696">
        <ele>67.3</ele>
        <time>2021-05-27T14:23:01Z</time>
      </trkpt>
      <trkpt lat="47.69368" lon="-2.22696">
        <ele>67.3</ele>
        <time>2021-05-27T14:23:02Z</time>
      </trkpt>
      <trkpt lat="47.69368" lon="-2.22696">
        <ele>67.3</ele>
        <time>2021-05-27T14:23:03Z</time>
      </trkpt>
      <trkpt lat="47.69368" lon="-2.22696">
        <ele>67.3</ele>
        <time>2021-05-27T14:23:04Z</time>
      </trkpt>
      <trkpt lat="47.69368" lon="-2.22696">
        <ele>67.3</ele>
        <time>2021-05-27T14:23:05Z</time>
      </trkpt>
      <trkpt lat="47.69368" lon="-2.22696">
        <ele>67.3</ele>
        <time>2021-05-27T14:23:06Z</time>
      </trkpt>
      <trkpt lat="47.69368" lon="-2.22696">
        <ele>67.3</ele>
        <time>2021-05-27T14:23:07Z</time>
      </trkpt>
      <trkpt lat="47.69368" lon="-2.22696">
        <ele>67.3</ele>
        <time>2021-05-27T14:23:08Z</time>
      </trkpt>
      <trkpt lat="47.69368" lon="-2.22696">
        <ele>67.3</ele>
        <time>2021-05-27T14:23:09Z</time>
      </trkpt>
      <trkpt lat="47.69368" lon="-2.22696">
        <ele>67.3</ele>
        <time>2021-05-27T14:23:10Z</time>
      </trkpt>
      <trkpt lat="47.69368" lon="-2.22696">
        <ele>67.3</ele>
        <time>2021-05-27T14:23:11Z</time>
      </trkpt>
      <trkpt lat="47.69368" lon="-2.22696">
        <ele>67.3</ele>
        <time>2021-05-27T14:23:12Z</time>
      </trkpt>
      <trkpt lat="47.69368" lon="-2.22696">
        <ele>67.3</ele>
        <time>2021-05-27T14:23:13Z</time>
      </trkpt>
      <trkpt lat="47.69368" lon="-2.22696">
        <ele>67.3</ele>
        <time>2021-05-27T14:23:14Z</time>
      </trkpt>
      <trkpt lat="47.69368" lon="-2.22696">
        <ele>67.3</ele>
        <time>2021-05-27T14:23:15Z</time>
      </trkpt>
      <trkpt lat="47.69368" lon="-2.22696">
        <ele>67.3</ele>
        <time>2021-05-27T14:23:16Z</time>
      </trkpt>
      <trkpt lat="47.69368" lon="-2.22696">
        <ele>67.3</ele>
        <time>2021-05-27T14:23:17Z</time>
      </trkpt>
      <trkpt lat="47.69368" lon="-2.22696">
        <ele>67.3</ele>
        <time>2021-05-27T14:23:18Z</time>
      </trkpt>
      <trkpt lat="47.69368" lon="-2.22696">
        <ele>67.3</ele>
        <time>2021-05-27T14:23:19Z</time>
      </trkpt>
      <trkpt lat="47.69368" lon="-2.22696">
        <ele>67.3</ele>
        <time>2021-05-27T14:23:20Z</time>
      </trkpt>
      <trkpt lat="47.69368" lon="-2.22696">
        <ele>67.3</ele>
        <time>2021-05-27T14:23:21Z</time>
      </trkpt>
      <trkpt lat="47.69368" lon="-2.22696">
        <ele>67.3</ele>
        <time>2021-05-27T14:23:22Z</time>
      </trkpt>
      <trkpt lat="47.69368" lon="-2.22696">
        <ele>67.3</ele>
        <time>2021-05-27T14:23:23Z</time>
      </trkpt>
      <trkpt lat="47.69368" lon="-2.22696">
        <ele>67.3</ele>
        <time>2021-05-27T14:23:24Z</time>
      </trkpt>
      <trkpt lat="47.69368" lon="-2.22696">
        <ele>67.3</ele>
        <time>2021-05-27T14:23:25Z</time>
      </trkpt>
      <trkpt lat="47.69368" lon="-2.22696">
        <ele>67.3</ele>
        <time>2021-05-27T14:23:26Z</time>
      </trkpt>
      <trkpt lat="47.69368" lon="-2.22696">
        <ele>67.3</ele>
        <time>2021-05-27T14:23:27Z</time>
      </trkpt>
      <trkpt lat="47.69368" lon="-2.22696">
        <ele>67.3</ele>
        <time>2021-05-27T14:23:28Z</time>
      </trkpt>
      <trkpt lat="47.69368" lon="-2.22696">
        <ele>67.3</ele>
        <time>2021-05-27T14:23:29Z</time>
      </trkpt>
      <trkpt lat="47.69368" lon="-2.22696">
        <ele>67.3</ele>
        <time>2021-05-27T14:23:30Z</time>
      </trkpt>
      <trkpt lat="47.69368" lon="-2.22696">
        <ele>67.3</ele>
        <time>2021-05-27T14:23:31Z</time>
      </trkpt>
      <trkpt lat="47.69368" lon="-2.22696">
        <ele>67.3</ele>
        <time>2021-05-27T14:23:32Z</time>
      </trkpt>
      <trkpt lat="47.69368" lon="-2.22696">
        <ele>67.3</ele>
        <time>2021-05-27T14:23:33Z</time>
      </trkpt>
      <trkpt lat="47.69368" lon="-2.22696">
        <ele>67.3</ele>
        <time>2021-05-27T14:23:34Z</time>
      </trkpt>
      <trkpt lat="47.69368" lon="-2.22696">
        <ele>67.3</ele>
        <time>2021-05-27T14:23:35Z</time>
      </trkpt>
      <trkpt lat="47.69368" lon="-2.22696">
        <ele>67.3</ele>
        <time>2021-05-27T14:23:36Z</time>
      </trkpt>
      <trkpt lat="47.69368" lon="-2.22696">
        <ele>67.3</ele>
        <time>2021-05-27T14:23:37Z</time>
      </trkpt>
      <trkpt lat="47.69368" lon="-2.22696">
        <ele>67.3</ele>
        <time>2021-05-27T14:23:38Z</time>
      </trkpt>
      <trkpt lat="47.69368" lon="-2.22696">
        <ele>67.3</ele>
        <time>2021-05-27T14:23:39Z</time>
      </trkpt>
      <trkpt lat="47.69368" lon="-2.22696">
        <ele>67.3</ele>
        <time>2021-05-27T14:23:40Z</time>
      </trkpt>
      <trkpt lat="47.69368" lon="-2.22696">
        <ele>67.3</ele>
        <time>2021-05-27T14:23:41Z</time>
      </trkpt>
      <trkpt lat="47.69368" lon="-2.22696">
        <ele>67.3</ele>
        <time>2021-05-27T14:23:42Z</time>
      </trkpt>
      <trkpt lat="47.69368" lon="-2.22696">
        <ele>67.3</ele>
        <time>2021-05-27T14:23:43Z</time>
      </trkpt>
      <trkpt lat="47.69368" lon="-2.22696">
        <ele>67.3</ele>
        <time>2021-05-27T14:23:44Z</time>
      </trkpt>
      <trkpt lat="47.69368" lon="-2.22696">
        <ele>67.3</ele>
        <time>2021-05-27T14:23:45Z</time>
      </trkpt>
      <trkpt lat="47.69368" lon="-2.22696">
        <ele>67.3</ele>
        <time>2021-05-27T14:23:46Z</time>
      </trkpt>
      <trkpt lat="47.69368" lon="-2.22696">
        <ele>67.3</ele>
        <time>2021-05-27T14:23:47Z</time>
      </trkpt>
      <trkpt lat="47.69368" lon="-2.22696">
        <ele>67.3</ele>
        <time>2021-05-27T14:23:48Z</time>
      </trkpt>
      <trkpt lat="47.69368" lon="-2.22696">
        <ele>67.3</ele>
        <time>2021-05-27T14:23:49Z</time>
      </trkpt>
      <trkpt lat="47.69368" lon="-2.22696">
        <ele>67.3</ele>
        <time>2021-05-27T14:23:50Z</time>
      </trkpt>
      <trkpt lat="47.69368" lon="-2.22696">
        <ele>67.3</ele>
        <time>2021-05-27T14:23:51Z</time>
      </trkpt>
      <trkpt lat="47.69368" lon="-2.22696">
        <ele>67.3</ele>
        <time>2021-05-27T14:23:52Z</time>
      </trkpt>
      <trkpt lat="47.69368" lon="-2.22696">
        <ele>67.3</ele>
        <time>2021-05-27T14:23:53Z</time>
      </trkpt>
      <trkpt lat="47.69368" lon="-2.22696">
        <ele>67.3</ele>
        <time>2021-05-27T14:23:54Z</time>
      </trkpt>
      <trkpt lat="47.69368" lon="-2.22696">
        <ele>67.3</ele>
        <time>2021-05-27T14:23:55Z</time>
      </trkpt>
      <trkpt lat="47.69368" lon="-2.22696">
        <ele>67.3</ele>
        <time>2021-05-27T14:23:56Z</time>
      </trkpt>
      <trkpt lat="47.69368" lon="-2.22696">
        <ele>67.3</ele>
        <time>2021-05-27T14:23:57Z</time>
      </trkpt>
      <trkpt lat="47.69368" lon="-2.22696">
        <ele>67.3</ele>
        <time>2021-05-27T14:23:58Z</time>
      </trkpt>
      <trkpt lat="47.69368" lon="-2.22696">
        <ele>67.3</ele>
        <time>2021-05-27T14:23:59Z</time>
      </trkpt>
      <trkpt lat="47.69368" lon="-2.22696">
        <ele>67.3</ele>
        <time>2021-05-27T14:24:00Z</time>
      </trkpt>
      <trkpt lat="47.69368" lon="-2.22696">
        <ele>67.3</ele>
        <time>2021-05-27T14:24:01Z</time>
      </trkpt>
      <trkpt lat="47.69368" lon="-2.22696">
        <ele>67.3</ele>
        <time>2021-05-27T14:24:02Z</time>
      </trkpt>
      <trkpt lat="47.69368" lon="-2.22696">
        <ele>67.3</ele>
        <time>2021-05-27T14:24:03Z</time>
      </trkpt>
      <trkpt lat="47.69368" lon="-2.22696">
        <ele>67.3</ele>
        <time>2021-05-27T14:24:04Z</time>
      </trkpt>
      <trkpt lat="47.69368" lon="-2.22696">
        <ele>67.3</ele>
        <time>2021-05-27T14:24:05Z</time>
      </trkpt>
      <trkpt lat="47.69368" lon="-2.22696">
        <ele>67.3</ele>
        <time>2021-05-27T14:24:06Z</time>
      </trkpt>
      <trkpt lat="47.69368" lon="-2.22696">
        <ele>67.3</ele>
        <time>2021-05-27T14:24:07Z</time>
      </trkpt>
      <trkpt lat="47.69368" lon="-2.22696">
        <ele>67.3</ele>
        <time>2021-05-27T14:24:08Z</time>
      </trkpt>
      <trkpt lat="47.69368" lon="-2.22696">
        <ele>67.3</ele>
        <time>2021-05-27T14:24:09Z</time>
      </trkpt>
      <trkpt lat="47.69368" lon="-2.22696">
        <ele>67.3</ele>
        <time>2021-05-27T14:24:10Z</time>
      </trkpt>
      <trkpt lat="47.69368" lon="-2.22696">
        <ele>67.3</ele>
        <time>2021-05-27T14:24:11Z</time>
      </trkpt>
      <trkpt lat="47.69368" lon="-2.22696">
        <ele>67.3</ele>
        <time>2021-05-27T14:24:12Z</time>
      </trkpt>
      <trkpt lat="47.69368" lon="-2.22696">
        <ele>67.3</ele>
        <time>2021-05-27T14:24:13Z</time>
      </trkpt>
      <trkpt lat="47.69368" lon="-2.22696">
        <ele>67.3</ele>
        <time>2021-05-27T14:24:14Z</time>
      </trkpt>
      <trkpt lat="47.69368" lon="-2.22696">
        <ele>67.3</ele>
        <time>2021-05-27T14:24:15Z</time>
      </trkpt>
      <trkpt lat="47.69368" lon="-2.22696">
        <ele>67.3</ele>
        <time>2021-05-27T14:24:16Z</time>
      </trkpt>
      <trkpt lat="47.69368" lon="-2.22696">
        <ele>67.3</ele>
        <time>2021-05-27T14:24:17Z</time>
      </trkpt>
      <trkpt lat="47.69368" lon="-2.22696">
        <ele>67.3</ele>
        <time>2021-05-27T14:24:18Z</time>
      </trkpt>
      <trkpt lat="47.69368" lon="-2.22696">
        <ele>67.3</ele>
        <time>2021-05-27T14:24:19Z</time>
      </trkpt>
      <trkpt lat="47.69368" lon="-2.22696">
        <ele>67.3</ele>
        <time>2021-05-27T14:24:20Z</time>
      </trkpt>
      <trkpt lat="47.69368" lon="-2.22696">
        <ele>67.3</ele>
        <time>2021-05-27T14:24:21Z</time>
      </trkpt>
      <trkpt lat="47.69368" lon="-2.22696">
        <ele>67.3</ele>
        <time>2021-05-27T14:24:22Z</time>
      </trkpt>
      <trkpt lat="47.69368" lon="-2.22696">
        <ele>67.3</ele>
        <time>2021-05-27T14:24:23Z</time>
      </trkpt>
      <trkpt lat="47.69368" lon="-2.22696">
        <ele>67.3</ele>
        <time>2021-05-27T14:24:24Z</time>
      </trkpt>
      <trkpt lat="47.69368" lon="-2.22696">
        <ele>67.3</ele>
        <time>2021-05-27T14:24:25Z</time>
      </trkpt>
      <trkpt lat="47.69368" lon="-2.22696">
        <ele>67.3</ele>
        <time>2021-05-27T14:24:26Z</time>
      </trkpt>
      <trkpt lat="47.69368" lon="-2.22696">
        <ele>67.3</ele>
        <time>2021-05-27T14:24:27Z</time>
      </trkpt>
      <trkpt lat="47.69368" lon="-2.22696">
        <ele>67.3</ele>
        <time>2021-05-27T14:24:28Z</time>
      </trkpt>
      <trkpt lat="47.69368" lon="-2.22696">
        <ele>67.3</ele>
        <time>2021-05-27T14:24:29Z</time>
      </trkpt>
      <trkpt lat="47.69368" lon="-2.22696">
        <ele>67.3</ele>
        <time>2021-05-27T14:24:30Z</time>
      </trkpt>
      <trkpt lat="47.69368" lon="-2.22696">
        <ele>67.3</ele>
        <time>2021-05-27T14:24:31Z</time>
      </trkpt>
      <trkpt lat="47.69368" lon="-2.22696">
        <ele>67.3</ele>
        <time>2021-05-27T14:24:32Z</time>
      </trkpt>
      <trkpt lat="47.69368" lon="-2.22696">
        <ele>67.3</ele>
        <time>2021-05-27T14:24:33Z</time>
      </trkpt>
      <trkpt lat="47.69368" lon="-2.22696">
        <ele>67.3</ele>
        <time>2021-05-27T14:24:34Z</time>
      </trkpt>
      <trkpt lat="47.69368" lon="-2.22696">
        <ele>67.3</ele>
        <time>2021-05-27T14:24:35Z</time>
      </trkpt>
      <trkpt lat="47.69368" lon="-2.22696">
        <ele>67.3</ele>
        <time>2021-05-27T14:24:36Z</time>
      </trkpt>
      <trkpt lat="47.69368" lon="-2.22696">
        <ele>67.3</ele>
        <time>2021-05-27T14:24:37Z</time>
      </trkpt>
      <trkpt lat="47.69368" lon="-2.22696">
        <ele>67.3</ele>
        <time>2021-05-27T14:24:38Z</time>
      </trkpt>
      <trkpt lat="47.69368" lon="-2.22696">
        <ele>67.3</ele>
        <time>2021-05-27T14:24:39Z</time>
      </trkpt>
      <trkpt lat="47.69368" lon="-2.22696">
        <ele>67.3</ele>
        <time>2021-05-27T14:24:40Z</time>
      </trkpt>
      <trkpt lat="47.69368" lon="-2.22696">
        <ele>67.3</ele>
        <time>2021-05-27T14:24:41Z</time>
      </trkpt>
      <trkpt lat="47.69368" lon="-2.22696">
        <ele>67.3</ele>
        <time>2021-05-27T14:24:42Z</time>
      </trkpt>
      <trkpt lat="47.69368" lon="-2.22696">
        <ele>67.3</ele>
        <time>2021-05-27T14:24:43Z</time>
      </trkpt>
      <trkpt lat="47.69368" lon="-2.22696">
        <ele>67.3</ele>
        <time>2021-05-27T14:24:44Z</time>
      </trkpt>
      <trkpt lat="47.69368" lon="-2.22696">
        <ele>67.3</ele>
        <time>2021-05-27T14:24:45Z</time>
      </trkpt>
      <trkpt lat="47.69368" lon="-2.22696">
        <ele>67.3</ele>
        <time>2021-05-27T14:24:46Z</time>
      </trkpt>
      <trkpt lat="47.69368" lon="-2.22696">
        <ele>67.3</ele>
        <time>2021-05-27T14:24:47Z</time>
      </trkpt>
      <trkpt lat="47.69368" lon="-2.22696">
        <ele>67.3</ele>
        <time>2021-05-27T14:24:48Z</time>
      </trkpt>
      <trkpt lat="47.69368" lon="-2.22696">
        <ele>67.3</ele>
        <time>2021-05-27T14:24:49Z</time>
      </trkpt>
      <trkpt lat="47.69368" lon="-2.22696">
        <ele>67.3</ele>
        <time>2021-05-27T14:24:50Z</time>
      </trkpt>
      <trkpt lat="47.69368" lon="-2.22696">
        <ele>67.3</ele>
        <time>2021-05-27T14:24:51Z</time>
      </trkpt>
      <trkpt lat="47.69368" lon="-2.22696">
        <ele>67.3</ele>
        <time>2021-05-27T14:24:52Z</time>
      </trkpt>
      <trkpt lat="47.69368" lon="-2.22696">
        <ele>67.3</ele>
        <time>2021-05-27T14:24:53Z</time>
      </trkpt>
      <trkpt lat="47.69368" lon="-2.22696">
        <ele>67.3</ele>
        <time>2021-05-27T14:24:54Z</time>
      </trkpt>
      <trkpt lat="47.69368" lon="-2.22696">
        <ele>67.3</ele>
        <time>2021-05-27T14:24:55Z</time>
      </trkpt>
      <trkpt lat="47.69368" lon="-2.22696">
        <ele>67.3</ele>
        <time>2021-05-27T14:24:56Z</time>
      </trkpt>
      <trkpt lat="47.69368" lon="-2.22696">
        <ele>67.3</ele>
        <time>2021-05-27T14:24:57Z</time>
      </trkpt>
      <trkpt lat="47.69368" lon="-2.22696">
        <ele>67.3</ele>
        <time>2021-05-27T14:24:58Z</time>
      </trkpt>
      <trkpt lat="47.69368" lon="-2.22696">
        <ele>67.3</ele>
        <time>2021-05-27T14:24:59Z</time>
      </trkpt>
      <trkpt lat="47.69368" lon="-2.22696">
        <ele>67.3</ele>
        <time>2021-05-27T14:25:00Z</time>
      </trkpt>
      <trkpt lat="47.69368" lon="-2.22696">
        <ele>67.3</ele>
        <time>2021-05-27T14:25:01Z</time>
      </trkpt>
      <trkpt lat="47.69368" lon="-2.22696">
        <ele>67.3</ele>
        <time>2021-05-27T14:25:02Z</time>
      </trkpt>
      <trkpt lat="47.69368" lon="-2.22696">
        <ele>67.3</ele>
        <time>2021-05-27T14:25:03Z</time>
      </trkpt>
      <trkpt lat="47.69368" lon="-2.22696">
        <ele>67.3</ele>
        <time>2021-05-27T14:25:04Z</time>
      </trkpt>
      <trkpt lat="47.69368" lon="-2.22696">
        <ele>67.3</ele>
        <time>2021-05-27T14:25:05Z</time>
      </trkpt>
      <trkpt lat="47.69368" lon="-2.22696">
        <ele>67.3</ele>
        <time>2021-05-27T14:25:06Z</time>
      </trkpt>
      <trkpt lat="47.69368" lon="-2.22696">
        <ele>67.3</ele>
        <time>2021-05-27T14:25:07Z</time>
      </trkpt>
      <trkpt lat="47.69368" lon="-2.22696">
        <ele>67.3</ele>
        <time>2021-05-27T14:25:08Z</time>
      </trkpt>
      <trkpt lat="47.69368" lon="-2.22696">
        <ele>67.3</ele>
        <time>2021-05-27T14:25:09Z</time>
      </trkpt>
      <trkpt lat="47.69368" lon="-2.22696">
        <ele>67.3</ele>
        <time>2021-05-27T14:25:10Z</time>
      </trkpt>
      <trkpt lat="47.69368" lon="-2.22696">
        <ele>67.3</ele>
        <time>2021-05-27T14:25:11Z</time>
      </trkpt>
      <trkpt lat="47.69368" lon="-2.22696">
        <ele>67.3</ele>
        <time>2021-05-27T14:25:12Z</time>
      </trkpt>
      <trkpt lat="47.69368" lon="-2.22696">
        <ele>67.3</ele>
        <time>2021-05-27T14:25:13Z</time>
      </trkpt>
      <trkpt lat="47.69368" lon="-2.22696">
        <ele>67.3</ele>
        <time>2021-05-27T14:25:14Z</time>
      </trkpt>
      <trkpt lat="47.69368" lon="-2.22696">
        <ele>67.3</ele>
        <time>2021-05-27T14:25:15Z</time>
      </trkpt>
      <trkpt lat="47.69368" lon="-2.22696">
        <ele>67.3</ele>
        <time>2021-05-27T14:25:16Z</time>
      </trkpt>
      <trkpt lat="47.69368" lon="-2.22696">
        <ele>67.3</ele>
        <time>2021-05-27T14:25:17Z</time>
      </trkpt>
      <trkpt lat="47.69368" lon="-2.22696">
        <ele>67.3</ele>
        <time>2021-05-27T14:25:18Z</time>
      </trkpt>
      <trkpt lat="47.69368" lon="-2.22696">
        <ele>67.3</ele>
        <time>2021-05-27T14:25:19Z</time>
      </trkpt>
      <trkpt lat="47.69368" lon="-2.22696">
        <ele>67.3</ele>
        <time>2021-05-27T14:25:20Z</time>
      </trkpt>
      <trkpt lat="47.69368" lon="-2.22696">
        <ele>67.3</ele>
        <time>2021-05-27T14:25:21Z</time>
      </trkpt>
      <trkpt lat="47.69368" lon="-2.22696">
        <ele>67.3</ele>
        <time>2021-05-27T14:25:22Z</time>
      </trkpt>
      <trkpt lat="47.69368" lon="-2.22696">
        <ele>67.3</ele>
        <time>2021-05-27T14:25:23Z</time>
      </trkpt>
      <trkpt lat="47.69368" lon="-2.22696">
        <ele>67.3</ele>
        <time>2021-05-27T14:25:24Z</time>
      </trkpt>
      <trkpt lat="47.69368" lon="-2.22696">
        <ele>67.3</ele>
        <time>2021-05-27T14:25:25Z</time>
      </trkpt>
      <trkpt lat="47.69368" lon="-2.22696">
        <ele>67.3</ele>
        <time>2021-05-27T14:25:26Z</time>
      </trkpt>
      <trkpt lat="47.69368" lon="-2.22696">
        <ele>67.3</ele>
        <time>2021-05-27T14:25:27Z</time>
      </trkpt>
      <trkpt lat="47.69368" lon="-2.22696">
        <ele>67.3</ele>
        <time>2021-05-27T14:25:28Z</time>
      </trkpt>
      <trkpt lat="47.69368" lon="-2.22696">
        <ele>67.3</ele>
        <time>2021-05-27T14:25:29Z</time>
      </trkpt>
      <trkpt lat="47.69368" lon="-2.22696">
        <ele>67.3</ele>
        <time>2021-05-27T14:25:30Z</time>
      </trkpt>
      <trkpt lat="47.69368" lon="-2.22696">
        <ele>67.3</ele>
        <time>2021-05-27T14:25:31Z</time>
      </trkpt>
      <trkpt lat="47.69368" lon="-2.22696">
        <ele>67.3</ele>
        <time>2021-05-27T14:25:32Z</time>
      </trkpt>
      <trkpt lat="47.69368" lon="-2.22696">
        <ele>67.3</ele>
        <time>2021-05-27T14:25:33Z</time>
      </trkpt>
      <trkpt lat="47.69368" lon="-2.22696">
        <ele>67.3</ele>
        <time>2021-05-27T14:25:34Z</time>
      </trkpt>
      <trkpt lat="47.69368" lon="-2.22696">
        <ele>67.3</ele>
        <time>2021-05-27T14:25:35Z</time>
      </trkpt>
      <trkpt lat="47.69368" lon="-2.22696">
        <ele>67.3</ele>
        <time>2021-05-27T14:25:36Z</time>
      </trkpt>
      <trkpt lat="47.69368" lon="-2.22696">
        <ele>67.3</ele>
        <time>2021-05-27T14:25:37Z</time>
      </trkpt>
      <trkpt lat="47.69368" lon="-2.22696">
        <ele>67.3</ele>
        <time>2021-05-27T14:25:38Z</time>
      </trkpt>
      <trkpt lat="47.69368" lon="-2.22696">
        <ele>67.3</ele>
        <time>2021-05-27T14:25:39Z</time>
      </trkpt>
      <trkpt lat="47.69368" lon="-2.22696">
        <ele>67.3</ele>
        <time>2021-05-27T14:25:40Z</time>
      </trkpt>
      <trkpt lat="47.69368" lon="-2.22696">
        <ele>67.3</ele>
        <time>2021-05-27T14:25:41Z</time>
      </trkpt>
      <trkpt lat="47.69368" lon="-2.22696">
        <ele>67.3</ele>
        <time>2021-05-27T14:25:42Z</time>
      </trkpt>
      <trkpt lat="47.69368" lon="-2.22696">
        <ele>67.3</ele>
        <time>2021-05-27T14:25:43Z</time>
      </trkpt>
      <trkpt lat="47.69368" lon="-2.22696">
        <ele>67.3</ele>
        <time>2021-05-27T14:25:44Z</time>
      </trkpt>
      <trkpt lat="47.69368" lon="-2.22696">
        <ele>67.3</ele>
        <time>2021-05-27T14:25:45Z</time>
      </trkpt>
      <trkpt lat="47.69368" lon="-2.22696">
        <ele>67.3</ele>
        <time>2021-05-27T14:25:46Z</time>
      </trkpt>
      <trkpt lat="47.69368" lon="-2.22696">
        <ele>67.3</ele>
        <time>2021-05-27T14:25:47Z</time>
      </trkpt>
      <trkpt lat="47.69368" lon="-2.22696">
        <ele>67.3</ele>
        <time>2021-05-27T14:25:48Z</time>
      </trkpt>
      <trkpt lat="47.69368" lon="-2.22696">
        <ele>67.3</ele>
        <time>2021-05-27T14:25:49Z</time>
      </trkpt>
      <trkpt lat="47.69368" lon="-2.22696">
        <ele>67.3</ele>
        <time>2021-05-27T14:25:50Z</time>
      </trkpt>
      <trkpt lat="47.69368" lon="-2.22696">
        <ele>67.3</ele>
        <time>2021-05-27T14:25:51Z</time>
      </trkpt>
      <trkpt lat="47.69368" lon="-2.22696">
        <ele>67.3</ele>
        <time>2021-05-27T14:25:52Z</time>
      </trkpt>
      <trkpt lat="47.69368" lon="-2.22696">
        <ele>67.3</ele>
        <time>2021-05-27T14:25:53Z</time>
      </trkpt>
      <trkpt lat="47.69368" lon="-2.22696">
        <ele>67.3</ele>
        <time>2021-05-27T14:25:54Z</time>
      </trkpt>
      <trkpt lat="47.69368" lon="-2.22696">
        <ele>67.3</ele>
        <time>2021-05-27T14:25:55Z</time>
      </trkpt>
      <trkpt lat="47.69368" lon="-2.22696">
        <ele>67.3</ele>
        <time>2021-05-27T14:25:56Z</time>
      </trkpt>
      <trkpt lat="47.69368" lon="-2.22696">
        <ele>67.3</ele>
        <time>2021-05-27T14:25:57Z</time>
      </trkpt>
      <trkpt lat="47.69368" lon="-2.22696">
        <ele>67.3</ele>
        <time>2021-05-27T14:25:58Z</time>
      </trkpt>
      <trkpt lat="47.69368" lon="-2.22696">
        <ele>67.3</ele>
        <time>2021-05-27T14:25:59Z</time>
      </trkpt>
      <trkpt lat="47.69368" lon="-2.22696">
        <ele>67.3</ele>
        <time>2021-05-27T14:26:00Z</time>
      </trkpt>
      <trkpt lat="47.69368" lon="-2.22696">
        <ele>67.3</ele>
        <time>2021-05-27T14:26:01Z</time>
      </trkpt>
      <trkpt lat="47.69368" lon="-2.22696">
        <ele>67.3</ele>
        <time>2021-05-27T14:26:02Z</time>
      </trkpt>
      <trkpt lat="47.69368" lon="-2.22696">
        <ele>67.3</ele>
        <time>2021-05-27T14:26:03Z</time>
      </trkpt>
      <trkpt lat="47.69368" lon="-2.22696">
        <ele>67.3</ele>
        <time>2021-05-27T14:26:04Z</time>
      </trkpt>
      <trkpt lat="47.69368" lon="-2.22696">
        <ele>67.3</ele>
        <time>2021-05-27T14:26:05Z</time>
      </trkpt>
      <trkpt lat="47.69368" lon="-2.22696">
        <ele>67.3</ele>
        <time>2021-05-27T14:26:06Z</time>
      </trkpt>
      <trkpt lat="47.69368" lon="-2.22696">
        <ele>67.3</ele>
        <time>2021-05-27T14:26:07Z</time>
      </trkpt>
      <trkpt lat="47.69368" lon="-2.22696">
        <ele>67.3</ele>
        <time>2021-05-27T14:26:08Z</time>
      </trkpt>
      <trkpt lat="47.69368" lon="-2.22696">
        <ele>67.3</ele>
        <time>2021-05-27T14:26:09Z</time>
      </trkpt>
      <trkpt lat="47.69368" lon="-2.22696">
        <ele>67.3</ele>
        <time>2021-05-27T14:26:10Z</time>
      </trkpt>
      <trkpt lat="47.69368" lon="-2.22696">
        <ele>67.3</ele>
        <time>2021-05-27T14:26:11Z</time>
      </trkpt>
      <trkpt lat="47.69368" lon="-2.22696">
        <ele>67.3</ele>
        <time>2021-05-27T14:26:12Z</time>
      </trkpt>
      <trkpt lat="47.69368" lon="-2.22696">
        <ele>67.3</ele>
        <time>2021-05-27T14:26:13Z</time>
      </trkpt>
      <trkpt lat="47.69368" lon="-2.22696">
        <ele>67.3</ele>
        <time>2021-05-27T14:26:14Z</time>
      </trkpt>
      <trkpt lat="47.69368" lon="-2.22696">
        <ele>67.3</ele>
        <time>2021-05-27T14:26:15Z</time>
      </trkpt>
      <trkpt lat="47.69368" lon="-2.22696">
        <ele>67.3</ele>
        <time>2021-05-27T14:26:16Z</time>
      </trkpt>
      <trkpt lat="47.69368" lon="-2.22696">
        <ele>67.3</ele>
        <time>2021-05-27T14:26:17Z</time>
      </trkpt>
      <trkpt lat="47.69368" lon="-2.22696">
        <ele>67.3</ele>
        <time>2021-05-27T14:26:18Z</time>
      </trkpt>
      <trkpt lat="47.69368" lon="-2.22696">
        <ele>67.3</ele>
        <time>2021-05-27T14:26:19Z</time>
      </trkpt>
      <trkpt lat="47.69368" lon="-2.22696">
        <ele>67.3</ele>
        <time>2021-05-27T14:26:20Z</time>
      </trkpt>
      <trkpt lat="47.69368" lon="-2.22696">
        <ele>67.3</ele>
        <time>2021-05-27T14:26:21Z</time>
      </trkpt>
      <trkpt lat="47.69368" lon="-2.22696">
        <ele>67.3</ele>
        <time>2021-05-27T14:26:22Z</time>
      </trkpt>
      <trkpt lat="47.69368" lon="-2.22696">
        <ele>67.3</ele>
        <time>2021-05-27T14:26:23Z</time>
      </trkpt>
      <trkpt lat="47.69368" lon="-2.22696">
        <ele>67.3</ele>
        <time>2021-05-27T14:26:24Z</time>
      </trkpt>
      <trkpt lat="47.69368" lon="-2.22696">
        <ele>67.3</ele>
        <time>2021-05-27T14:26:25Z</time>
      </trkpt>
      <trkpt lat="47.69368" lon="-2.22696">
        <ele>67.3</ele>
        <time>2021-05-27T14:26:26Z</time>
      </trkpt>
      <trkpt lat="47.69368" lon="-2.22696">
        <ele>67.3</ele>
        <time>2021-05-27T14:26:27Z</time>
      </trkpt>
      <trkpt lat="47.69368" lon="-2.22696">
        <ele>67.3</ele>
        <time>2021-05-27T14:26:28Z</time>
      </trkpt>
      <trkpt lat="47.69368" lon="-2.22696">
        <ele>67.3</ele>
        <time>2021-05-27T14:26:29Z</time>
      </trkpt>
      <trkpt lat="47.69368" lon="-2.22696">
        <ele>67.3</ele>
        <time>2021-05-27T14:26:30Z</time>
      </trkpt>
      <trkpt lat="47.69368" lon="-2.22696">
        <ele>67.3</ele>
        <time>2021-05-27T14:26:31Z</time>
      </trkpt>
      <trkpt lat="47.69368" lon="-2.22696">
        <ele>67.3</ele>
        <time>2021-05-27T14:26:32Z</time>
      </trkpt>
      <trkpt lat="47.69368" lon="-2.22696">
        <ele>67.3</ele>
        <time>2021-05-27T14:26:33Z</time>
      </trkpt>
      <trkpt lat="47.69368" lon="-2.22696">
        <ele>67.3</ele>
        <time>2021-05-27T14:26:34Z</time>
      </trkpt>
      <trkpt lat="47.69368" lon="-2.22696">
        <ele>67.3</ele>
        <time>2021-05-27T14:26:35Z</time>
      </trkpt>
      <trkpt lat="47.69368" lon="-2.22696">
        <ele>67.3</ele>
        <time>2021-05-27T14:26:36Z</time>
      </trkpt>
      <trkpt lat="47.69368" lon="-2.22696">
        <ele>67.3</ele>
        <time>2021-05-27T14:26:37Z</time>
      </trkpt>
      <trkpt lat="47.69368" lon="-2.22696">
        <ele>67.3</ele>
        <time>2021-05-27T14:26:38Z</time>
      </trkpt>
      <trkpt lat="47.69368" lon="-2.22696">
        <ele>67.3</ele>
        <time>2021-05-27T14:26:39Z</time>
      </trkpt>
      <trkpt lat="47.69368" lon="-2.22696">
        <ele>67.3</ele>
        <time>2021-05-27T14:26:40Z</time>
      </trkpt>
      <trkpt lat="47.69368" lon="-2.22696">
        <ele>67.3</ele>
        <time>2021-05-27T14:26:41Z</time>
      </trkpt>
      <trkpt lat="47.69368" lon="-2.22696">
        <ele>67.3</ele>
        <time>2021-05-27T14:26:42Z</time>
      </trkpt>
      <trkpt lat="47.69368" lon="-2.22696">
        <ele>67.3</ele>
        <time>2021-05-27T14:26:43Z</time>
      </trkpt>
      <trkpt lat="47.69368" lon="-2.22696">
        <ele>67.3</ele>
        <time>2021-05-27T14:26:44Z</time>
      </trkpt>
      <trkpt lat="47.69368" lon="-2.22696">
        <ele>67.3</ele>
        <time>2021-05-27T14:26:45Z</time>
      </trkpt>
      <trkpt lat="47.69368" lon="-2.22696">
        <ele>67.3</ele>
        <time>2021-05-27T14:26:46Z</time>
      </trkpt>
      <trkpt lat="47.69368" lon="-2.22696">
        <ele>67.3</ele>
        <time>2021-05-27T14:26:47Z</time>
      </trkpt>
      <trkpt lat="47.69368" lon="-2.22696">
        <ele>67.3</ele>
        <time>2021-05-27T14:26:48Z</time>
      </trkpt>
      <trkpt lat="47.69368" lon="-2.22696">
        <ele>67.3</ele>
        <time>2021-05-27T14:26:49Z</time>
      </trkpt>
      <trkpt lat="47.69368" lon="-2.22696">
        <ele>67.3</ele>
        <time>2021-05-27T14:26:50Z</time>
      </trkpt>
      <trkpt lat="47.69368" lon="-2.22696">
        <ele>67.3</ele>
        <time>2021-05-27T14:26:51Z</time>
      </trkpt>
      <trkpt lat="47.69368" lon="-2.22696">
        <ele>67.3</ele>
        <time>2021-05-27T14:26:52Z</time>
      </trkpt>
      <trkpt lat="47.69368" lon="-2.22696">
        <ele>67.3</ele>
        <time>2021-05-27T14:26:53Z</time>
      </trkpt>
      <trkpt lat="47.69368" lon="-2.22696">
        <ele>67.3</ele>
        <time>2021-05-27T14:26:54Z</time>
      </trkpt>
      <trkpt lat="47.69368" lon="-2.22696">
        <ele>67.3</ele>
        <time>2021-05-27T14:26:55Z</time>
      </trkpt>
      <trkpt lat="47.69368" lon="-2.22696">
        <ele>67.3</ele>
        <time>2021-05-27T14:26:56Z</time>
      </trkpt>
      <trkpt lat="47.69368" lon="-2.22696">
        <ele>67.3</ele>
        <time>2021-05-27T14:26:57Z</time>
      </trkpt>
      <trkpt lat="47.69368" lon="-2.22696">
        <ele>67.3</ele>
        <time>2021-05-27T14:26:58Z</time>
      </trkpt>
      <trkpt lat="47.69368" lon="-2.22696">
        <ele>67.3</ele>
        <time>2021-05-27T14:26:59Z</time>
      </trkpt>
      <trkpt lat="47.69368" lon="-2.22696">
        <ele>67.3</ele>
        <time>2021-05-27T14:27:00Z</time>
      </trkpt>
      <trkpt lat="47.69368" lon="-2.22696">
        <ele>67.3</ele>
        <time>2021-05-27T14:27:01Z</time>
      </trkpt>
      <trkpt lat="47.69368" lon="-2.22696">
        <ele>67.3</ele>
        <time>2021-05-27T14:27:02Z</time>
      </trkpt>
      <trkpt lat="47.69368" lon="-2.22696">
        <ele>67.3</ele>
        <time>2021-05-27T14:27:03Z</time>
      </trkpt>
      <trkpt lat="47.69368" lon="-2.22696">
        <ele>67.3</ele>
        <time>2021-05-27T14:27:04Z</time>
      </trkpt>
      <trkpt lat="47.69368" lon="-2.22696">
        <ele>67.3</ele>
        <time>2021-05-27T14:27:05Z</time>
      </trkpt>
      <trkpt lat="47.69368" lon="-2.22696">
        <ele>67.3</ele>
        <time>2021-05-27T14:27:06Z</time>
      </trkpt>
      <trkpt lat="47.69368" lon="-2.22696">
        <ele>67.3</ele>
        <time>2021-05-27T14:27:07Z</time>
      </trkpt>
      <trkpt lat="47.69368" lon="-2.22696">
        <ele>67.3</ele>
        <time>2021-05-27T14:27:08Z</time>
      </trkpt>
      <trkpt lat="47.69368" lon="-2.22696">
        <ele>67.3</ele>
        <time>2021-05-27T14:27:09Z</time>
      </trkpt>
      <trkpt lat="47.69368" lon="-2.22696">
        <ele>67.3</ele>
        <time>2021-05-27T14:27:10Z</time>
      </trkpt>
      <trkpt lat="47.69368" lon="-2.22696">
        <ele>67.3</ele>
        <time>2021-05-27T14:27:11Z</time>
      </trkpt>
      <trkpt lat="47.69368" lon="-2.22696">
        <ele>67.3</ele>
        <time>2021-05-27T14:27:12Z</time>
      </trkpt>
      <trkpt lat="47.69368" lon="-2.22696">
        <ele>67.3</ele>
        <time>2021-05-27T14:27:13Z</time>
      </trkpt>
      <trkpt lat="47.69368" lon="-2.22696">
        <ele>67.3</ele>
        <time>2021-05-27T14:27:14Z</time>
      </trkpt>
      <trkpt lat="47.69368" lon="-2.22696">
        <ele>67.3</ele>
        <time>2021-05-27T14:27:15Z</time>
      </trkpt>
      <trkpt lat="47.69368" lon="-2.22696">
        <ele>67.3</ele>
        <time>2021-05-27T14:27:16Z</time>
      </trkpt>
      <trkpt lat="47.69368" lon="-2.22696">
        <ele>67.3</ele>
        <time>2021-05-27T14:27:17Z</time>
      </trkpt>
      <trkpt lat="47.69368" lon="-2.22696">
        <ele>67.3</ele>
        <time>2021-05-27T14:27:18Z</time>
      </trkpt>
      <trkpt lat="47.69368" lon="-2.22696">
        <ele>67.3</ele>
        <time>2021-05-27T14:27:19Z</time>
      </trkpt>
      <trkpt lat="47.69368" lon="-2.22696">
        <ele>67.3</ele>
        <time>2021-05-27T14:27:20Z</time>
      </trkpt>
      <trkpt lat="47.69368" lon="-2.22696">
        <ele>67.3</ele>
        <time>2021-05-27T14:27:21Z</time>
      </trkpt>
      <trkpt lat="47.69368" lon="-2.22696">
        <ele>67.3</ele>
        <time>2021-05-27T14:27:22Z</time>
      </trkpt>
      <trkpt lat="47.69368" lon="-2.22696">
        <ele>67.3</ele>
        <time>2021-05-27T14:27:23Z</time>
      </trkpt>
      <trkpt lat="47.69368" lon="-2.22696">
        <ele>67.3</ele>
        <time>2021-05-27T14:27:24Z</time>
      </trkpt>
      <trkpt lat="47.69368" lon="-2.22696">
        <ele>67.3</ele>
        <time>2021-05-27T14:27:25Z</time>
      </trkpt>
      <trkpt lat="47.69368" lon="-2.22696">
        <ele>67.3</ele>
        <time>2021-05-27T14:27:26Z</time>
      </trkpt>
      <trkpt lat="47.69368" lon="-2.22696">
        <ele>67.3</ele>
        <time>2021-05-27T14:27:27Z</time>
      </trkpt>
      <trkpt lat="47.69368" lon="-2.22696">
        <ele>67.3</ele>
        <time>2021-05-27T14:27:28Z</time>
      </trkpt>
      <trkpt lat="47.69368" lon="-2.22696">
        <ele>67.3</ele>
        <time>2021-05-27T14:27:29Z</time>
      </trkpt>
      <trkpt lat="47.69368" lon="-2.22696">
        <ele>67.3</ele>
        <time>2021-05-27T14:27:30Z</time>
      </trkpt>
      <trkpt lat="47.69368" lon="-2.22696">
        <ele>67.3</ele>
        <time>2021-05-27T14:27:31Z</time>
      </trkpt>
      <trkpt lat="47.69368" lon="-2.22696">
        <ele>67.3</ele>
        <time>2021-05-27T14:27:32Z</time>
      </trkpt>
      <trkpt lat="47.69368" lon="-2.22696">
        <ele>67.3</ele>
        <time>2021-05-27T14:27:33Z</time>
      </trkpt>
      <trkpt lat="47.69368" lon="-2.22696">
        <ele>67.3</ele>
        <time>2021-05-27T14:27:34Z</time>
      </trkpt>
      <trkpt lat="47.69368" lon="-2.22696">
        <ele>67.3</ele>
        <time>2021-05-27T14:27:35Z</time>
      </trkpt>
      <trkpt lat="47.69368" lon="-2.22696">
        <ele>67.3</ele>
        <time>2021-05-27T14:27:36Z</time>
      </trkpt>
      <trkpt lat="47.69368" lon="-2.22696">
        <ele>67.3</ele>
        <time>2021-05-27T14:27:37Z</time>
      </trkpt>
      <trkpt lat="47.69368" lon="-2.22696">
        <ele>67.3</ele>
        <time>2021-05-27T14:27:38Z</time>
      </trkpt>
      <trkpt lat="47.69368" lon="-2.22696">
        <ele>67.3</ele>
        <time>2021-05-27T14:27:39Z</time>
      </trkpt>
      <trkpt lat="47.69368" lon="-2.22696">
        <ele>67.3</ele>
        <time>2021-05-27T14:27:40Z</time>
      </trkpt>
      <trkpt lat="47.69368" lon="-2.22696">
        <ele>67.3</ele>
        <time>2021-05-27T14:27:41Z</time>
      </trkpt>
      <trkpt lat="47.69368" lon="-2.22696">
        <ele>67.3</ele>
        <time>2021-05-27T14:27:42Z</time>
      </trkpt>
      <trkpt lat="47.69368" lon="-2.22696">
        <ele>67.3</ele>
        <time>2021-05-27T14:27:43Z</time>
      </trkpt>
      <trkpt lat="47.69368" lon="-2.22696">
        <ele>67.3</ele>
        <time>2021-05-27T14:27:44Z</time>
      </trkpt>
      <trkpt lat="47.69368" lon="-2.22696">
        <ele>67.3</ele>
        <time>2021-05-27T14:27:45Z</time>
      </trkpt>
      <trkpt lat="47.69368" lon="-2.22696">
        <ele>67.3</ele>
        <time>2021-05-27T14:27:46Z</time>
      </trkpt>
      <trkpt lat="47.69368" lon="-2.22696">
        <ele>67.3</ele>
        <time>2021-05-27T14:27:47Z</time>
      </trkpt>
      <trkpt lat="47.69368" lon="-2.22696">
        <ele>67.3</ele>
        <time>2021-05-27T14:27:48Z</time>
      </trkpt>
      <trkpt lat="47.69368" lon="-2.22696">
        <ele>67.3</ele>
        <time>2021-05-27T14:27:49Z</time>
      </trkpt>
      <trkpt lat="47.69368" lon="-2.22696">
        <ele>67.3</ele>
        <time>2021-05-27T14:27:50Z</time>
      </trkpt>
      <trkpt lat="47.69368" lon="-2.22696">
        <ele>67.3</ele>
        <time>2021-05-27T14:27:51Z</time>
      </trkpt>
      <trkpt lat="47.69368" lon="-2.22696">
        <ele>67.3</ele>
        <time>2021-05-27T14:27:52Z</time>
      </trkpt>
      <trkpt lat="47.69368" lon="-2.22696">
        <ele>67.3</ele>
        <time>2021-05-27T14:27:53Z</time>
      </trkpt>
      <trkpt lat="47.69368" lon="-2.22696">
        <ele>67.3</ele>
        <time>2021-05-27T14:27:54Z</time>
      </trkpt>
      <trkpt lat="47.69368" lon="-2.22696">
        <ele>67.3</ele>
        <time>2021-05-27T14:27:55Z</time>
      </trkpt>
      <trkpt lat="47.69368" lon="-2.22696">
        <ele>67.3</ele>
        <time>2021-05-27T14:27:56Z</time>
      </trkpt>
      <trkpt lat="47.69368" lon="-2.22696">
        <ele>67.3</ele>
        <time>2021-05-27T14:27:57Z</time>
      </trkpt>
      <trkpt lat="47.69368" lon="-2.22696">
        <ele>67.3</ele>
        <time>2021-05-27T14:27:58Z</time>
      </trkpt>
      <trkpt lat="47.69368" lon="-2.22696">
        <ele>67.3</ele>
        <time>2021-05-27T14:27:59Z</time>
      </trkpt>
      <trkpt lat="47.69368" lon="-2.22696">
        <ele>67.3</ele>
        <time>2021-05-27T14:28:00Z</time>
      </trkpt>
      <trkpt lat="47.69368" lon="-2.22696">
        <ele>67.3</ele>
        <time>2021-05-27T14:28:01Z</time>
      </trkpt>
      <trkpt lat="47.69368" lon="-2.22696">
        <ele>67.3</ele>
        <time>2021-05-27T14:28:02Z</time>
      </trkpt>
      <trkpt lat="47.69368" lon="-2.22696">
        <ele>67.3</ele>
        <time>2021-05-27T14:28:03Z</time>
      </trkpt>
      <trkpt lat="47.69368" lon="-2.22696">
        <ele>67.3</ele>
        <time>2021-05-27T14:28:04Z</time>
      </trkpt>
      <trkpt lat="47.69368" lon="-2.22696">
        <ele>67.3</ele>
        <time>2021-05-27T14:28:05Z</time>
      </trkpt>
      <trkpt lat="47.69368" lon="-2.22696">
        <ele>67.3</ele>
        <time>2021-05-27T14:28:06Z</time>
      </trkpt>
      <trkpt lat="47.69368" lon="-2.22696">
        <ele>67.3</ele>
        <time>2021-05-27T14:28:07Z</time>
      </trkpt>
      <trkpt lat="47.69368" lon="-2.22696">
        <ele>67.3</ele>
        <time>2021-05-27T14:28:08Z</time>
      </trkpt>
      <trkpt lat="47.69368" lon="-2.22696">
        <ele>67.3</ele>
        <time>2021-05-27T14:28:09Z</time>
      </trkpt>
      <trkpt lat="47.69368" lon="-2.22696">
        <ele>67.3</ele>
        <time>2021-05-27T14:28:10Z</time>
      </trkpt>
      <trkpt lat="47.69368" lon="-2.22696">
        <ele>67.3</ele>
        <time>2021-05-27T14:28:11Z</time>
      </trkpt>
      <trkpt lat="47.69368" lon="-2.22696">
        <ele>67.3</ele>
        <time>2021-05-27T14:28:12Z</time>
      </trkpt>
      <trkpt lat="47.69368" lon="-2.22696">
        <ele>67.3</ele>
        <time>2021-05-27T14:28:13Z</time>
      </trkpt>
      <trkpt lat="47.69368" lon="-2.22696">
        <ele>67.3</ele>
        <time>2021-05-27T14:28:14Z</time>
      </trkpt>
      <trkpt lat="47.69368" lon="-2.22696">
        <ele>67.3</ele>
        <time>2021-05-27T14:28:15Z</time>
      </trkpt>
      <trkpt lat="47.69368" lon="-2.22696">
        <ele>67.3</ele>
        <time>2021-05-27T14:28:16Z</time>
      </trkpt>
      <trkpt lat="47.69368" lon="-2.22696">
        <ele>67.3</ele>
        <time>2021-05-27T14:28:17Z</time>
      </trkpt>
      <trkpt lat="47.69368" lon="-2.22696">
        <ele>67.3</ele>
        <time>2021-05-27T14:28:18Z</time>
      </trkpt>
      <trkpt lat="47.69368" lon="-2.22696">
        <ele>67.3</ele>
        <time>2021-05-27T14:28:19Z</time>
      </trkpt>
      <trkpt lat="47.69368" lon="-2.22696">
        <ele>67.3</ele>
        <time>2021-05-27T14:28:20Z</time>
      </trkpt>
      <trkpt lat="47.69368" lon="-2.22696">
        <ele>67.3</ele>
        <time>2021-05-27T14:28:21Z</time>
      </trkpt>
      <trkpt lat="47.69368" lon="-2.22696">
        <ele>67.3</ele>
        <time>2021-05-27T14:28:22Z</time>
      </trkpt>
      <trkpt lat="47.69368" lon="-2.22696">
        <ele>67.3</ele>
        <time>2021-05-27T14:28:23Z</time>
      </trkpt>
      <trkpt lat="47.69368" lon="-2.22696">
        <ele>67.3</ele>
        <time>2021-05-27T14:28:24Z</time>
      </trkpt>
      <trkpt lat="47.69368" lon="-2.22696">
        <ele>67.3</ele>
        <time>2021-05-27T14:28:25Z</time>
      </trkpt>
      <trkpt lat="47.69368" lon="-2.22696">
        <ele>67.3</ele>
        <time>2021-05-27T14:28:26Z</time>
      </trkpt>
      <trkpt lat="47.69368" lon="-2.22696">
        <ele>67.3</ele>
        <time>2021-05-27T14:28:27Z</time>
      </trkpt>
      <trkpt lat="47.69368" lon="-2.22696">
        <ele>67.3</ele>
        <time>2021-05-27T14:28:28Z</time>
      </trkpt>
      <trkpt lat="47.69368" lon="-2.22696">
        <ele>67.3</ele>
        <time>2021-05-27T14:28:29Z</time>
      </trkpt>
      <trkpt lat="47.69368" lon="-2.22696">
        <ele>67.3</ele>
        <time>2021-05-27T14:28:30Z</time>
      </trkpt>
      <trkpt lat="47.69368" lon="-2.22696">
        <ele>67.3</ele>
        <time>2021-05-27T14:28:31Z</time>
      </trkpt>
      <trkpt lat="47.69368" lon="-2.22696">
        <ele>67.3</ele>
        <time>2021-05-27T14:28:32Z</time>
      </trkpt>
      <trkpt lat="47.69368" lon="-2.22696">
        <ele>67.3</ele>
        <time>2021-05-27T14:28:33Z</time>
      </trkpt>
      <trkpt lat="47.69368" lon="-2.22696">
        <ele>67.3</ele>
        <time>2021-05-27T14:28:34Z</time>
      </trkpt>
      <trkpt lat="47.69368" lon="-2.22696">
        <ele>67.3</ele>
        <time>2021-05-27T14:28:35Z</time>
      </trkpt>
      <trkpt lat="47.69368" lon="-2.22696">
        <ele>67.3</ele>
        <time>2021-05-27T14:28:36Z</time>
      </trkpt>
      <trkpt lat="47.69368" lon="-2.22696">
        <ele>67.3</ele>
        <time>2021-05-27T14:28:37Z</time>
      </trkpt>
      <trkpt lat="47.69368" lon="-2.22696">
        <ele>67.3</ele>
        <time>2021-05-27T14:28:38Z</time>
      </trkpt>
      <trkpt lat="47.69368" lon="-2.22696">
        <ele>67.3</ele>
        <time>2021-05-27T14:28:39Z</time>
      </trkpt>
      <trkpt lat="47.69368" lon="-2.22696">
        <ele>67.3</ele>
        <time>2021-05-27T14:28:40Z</time>
      </trkpt>
      <trkpt lat="47.69368" lon="-2.22696">
        <ele>67.3</ele>
        <time>2021-05-27T14:28:41Z</time>
      </trkpt>
      <trkpt lat="47.69368" lon="-2.22696">
        <ele>67.3</ele>
        <time>2021-05-27T14:28:42Z</time>
      </trkpt>
      <trkpt lat="47.69368" lon="-2.22696">
        <ele>67.3</ele>
        <time>2021-05-27T14:28:43Z</time>
      </trkpt>
      <trkpt lat="47.69368" lon="-2.22696">
        <ele>67.3</ele>
        <time>2021-05-27T14:28:44Z</time>
      </trkpt>
      <trkpt lat="47.69368" lon="-2.22696">
        <ele>67.3</ele>
        <time>2021-05-27T14:28:45Z</time>
      </trkpt>
      <trkpt lat="47.69368" lon="-2.22696">
        <ele>67.3</ele>
        <time>2021-05-27T14:28:46Z</time>
      </trkpt>
      <trkpt lat="47.69368" lon="-2.22696">
        <ele>67.3</ele>
        <time>2021-05-27T14:28:47Z</time>
      </trkpt>
      <trkpt lat="47.69368" lon="-2.22696">
        <ele>67.3</ele>
        <time>2021-05-27T14:28:48Z</time>
      </trkpt>
      <trkpt lat="47.69368" lon="-2.22696">
        <ele>67.3</ele>
        <time>2021-05-27T14:28:49Z</time>
      </trkpt>
      <trkpt lat="47.69368" lon="-2.22696">
        <ele>67.3</ele>
        <time>2021-05-27T14:28:50Z</time>
      </trkpt>
      <trkpt lat="47.69368" lon="-2.22696">
        <ele>67.3</ele>
        <time>2021-05-27T14:28:51Z</time>
      </trkpt>
      <trkpt lat="47.69368" lon="-2.22696">
        <ele>67.3</ele>
        <time>2021-05-27T14:28:52Z</time>
      </trkpt>
      <trkpt lat="47.69368" lon="-2.22696">
        <ele>67.3</ele>
        <time>2021-05-27T14:28:53Z</time>
      </trkpt>
      <trkpt lat="47.69368" lon="-2.22696">
        <ele>67.3</ele>
        <time>2021-05-27T14:28:54Z</time>
      </trkpt>
      <trkpt lat="47.69368" lon="-2.22696">
        <ele>67.3</ele>
        <time>2021-05-27T14:28:55Z</time>
      </trkpt>
      <trkpt lat="47.69368" lon="-2.22696">
        <ele>67.3</ele>
        <time>2021-05-27T14:28:56Z</time>
      </trkpt>
      <trkpt lat="47.69368" lon="-2.22696">
        <ele>67.3</ele>
        <time>2021-05-27T14:28:57Z</time>
      </trkpt>
      <trkpt lat="47.69368" lon="-2.22696">
        <ele>67.3</ele>
        <time>2021-05-27T14:28:58Z</time>
      </trkpt>
      <trkpt lat="47.69368" lon="-2.22696">
        <ele>67.3</ele>
        <time>2021-05-27T14:28:59Z</time>
      </trkpt>
      <trkpt lat="47.69368" lon="-2.22696">
        <ele>67.3</ele>
        <time>2021-05-27T14:29:00Z</time>
      </trkpt>
      <trkpt lat="47.69368" lon="-2.22696">
        <ele>67.3</ele>
        <time>2021-05-27T14:29:01Z</time>
      </trkpt>
      <trkpt lat="47.69368" lon="-2.22696">
        <ele>67.3</ele>
        <time>2021-05-27T14:29:02Z</time>
      </trkpt>
      <trkpt lat="47.69368" lon="-2.22696">
        <ele>67.3</ele>
        <time>2021-05-27T14:29:03Z</time>
      </trkpt>
      <trkpt lat="47.69368" lon="-2.22696">
        <ele>67.3</ele>
        <time>2021-05-27T14:29:04Z</time>
      </trkpt>
      <trkpt lat="47.69368" lon="-2.22696">
        <ele>67.3</ele>
        <time>2021-05-27T14:29:05Z</time>
      </trkpt>
      <trkpt lat="47.69368" lon="-2.22696">
        <ele>67.3</ele>
        <time>2021-05-27T14:29:06Z</time>
      </trkpt>
      <trkpt lat="47.69368" lon="-2.22696">
        <ele>67.3</ele>
        <time>2021-05-27T14:29:07Z</time>
      </trkpt>
      <trkpt lat="47.69368" lon="-2.22696">
        <ele>67.3</ele>
        <time>2021-05-27T14:29:08Z</time>
      </trkpt>
      <trkpt lat="47.69368" lon="-2.22696">
        <ele>67.3</ele>
        <time>2021-05-27T14:29:09Z</time>
      </trkpt>
      <trkpt lat="47.69368" lon="-2.22696">
        <ele>67.3</ele>
        <time>2021-05-27T14:29:10Z</time>
      </trkpt>
      <trkpt lat="47.69368" lon="-2.22696">
        <ele>67.3</ele>
        <time>2021-05-27T14:29:11Z</time>
      </trkpt>
      <trkpt lat="47.69368" lon="-2.22696">
        <ele>67.3</ele>
        <time>2021-05-27T14:29:12Z</time>
      </trkpt>
      <trkpt lat="47.69368" lon="-2.22696">
        <ele>67.3</ele>
        <time>2021-05-27T14:29:13Z</time>
      </trkpt>
      <trkpt lat="47.69368" lon="-2.22696">
        <ele>67.3</ele>
        <time>2021-05-27T14:29:14Z</time>
      </trkpt>
      <trkpt lat="47.69368" lon="-2.22696">
        <ele>67.3</ele>
        <time>2021-05-27T14:29:15Z</time>
      </trkpt>
      <trkpt lat="47.69368" lon="-2.22696">
        <ele>67.3</ele>
        <time>2021-05-27T14:29:16Z</time>
      </trkpt>
      <trkpt lat="47.69368" lon="-2.22696">
        <ele>67.3</ele>
        <time>2021-05-27T14:29:17Z</time>
      </trkpt>
      <trkpt lat="47.69368" lon="-2.22696">
        <ele>67.3</ele>
        <time>2021-05-27T14:29:18Z</time>
      </trkpt>
      <trkpt lat="47.69368" lon="-2.22696">
        <ele>67.3</ele>
        <time>2021-05-27T14:29:19Z</time>
      </trkpt>
      <trkpt lat="47.69368" lon="-2.22696">
        <ele>67.3</ele>
        <time>2021-05-27T14:29:20Z</time>
      </trkpt>
      <trkpt lat="47.69368" lon="-2.22696">
        <ele>67.3</ele>
        <time>2021-05-27T14:29:21Z</time>
      </trkpt>
      <trkpt lat="47.69368" lon="-2.22696">
        <ele>67.3</ele>
        <time>2021-05-27T14:29:22Z</time>
      </trkpt>
      <trkpt lat="47.69368" lon="-2.22696">
        <ele>67.3</ele>
        <time>2021-05-27T14:29:23Z</time>
      </trkpt>
      <trkpt lat="47.69368" lon="-2.22696">
        <ele>67.3</ele>
        <time>2021-05-27T14:29:24Z</time>
      </trkpt>
      <trkpt lat="47.69368" lon="-2.22696">
        <ele>67.3</ele>
        <time>2021-05-27T14:29:25Z</time>
      </trkpt>
      <trkpt lat="47.69368" lon="-2.22696">
        <ele>67.3</ele>
        <time>2021-05-27T14:29:26Z</time>
      </trkpt>
      <trkpt lat="47.69368" lon="-2.22696">
        <ele>67.3</ele>
        <time>2021-05-27T14:29:27Z</time>
      </trkpt>
      <trkpt lat="47.69368" lon="-2.22696">
        <ele>67.3</ele>
        <time>2021-05-27T14:29:28Z</time>
      </trkpt>
      <trkpt lat="47.69368" lon="-2.22696">
        <ele>67.3</ele>
        <time>2021-05-27T14:29:29Z</time>
      </trkpt>
      <trkpt lat="47.69368" lon="-2.22696">
        <ele>67.3</ele>
        <time>2021-05-27T14:29:30Z</time>
      </trkpt>
      <trkpt lat="47.69368" lon="-2.22696">
        <ele>67.3</ele>
        <time>2021-05-27T14:29:31Z</time>
      </trkpt>
      <trkpt lat="47.69368" lon="-2.22696">
        <ele>67.3</ele>
        <time>2021-05-27T14:29:32Z</time>
      </trkpt>
      <trkpt lat="47.69368" lon="-2.22696">
        <ele>67.3</ele>
        <time>2021-05-27T14:29:33Z</time>
      </trkpt>
      <trkpt lat="47.69368" lon="-2.22696">
        <ele>67.3</ele>
        <time>2021-05-27T14:29:34Z</time>
      </trkpt>
      <trkpt lat="47.69368" lon="-2.22696">
        <ele>67.3</ele>
        <time>2021-05-27T14:29:35Z</time>
      </trkpt>
      <trkpt lat="47.69368" lon="-2.22696">
        <ele>67.3</ele>
        <time>2021-05-27T14:29:36Z</time>
      </trkpt>
      <trkpt lat="47.69368" lon="-2.22696">
        <ele>67.3</ele>
        <time>2021-05-27T14:29:37Z</time>
      </trkpt>
      <trkpt lat="47.69368" lon="-2.22696">
        <ele>67.3</ele>
        <time>2021-05-27T14:29:38Z</time>
      </trkpt>
      <trkpt lat="47.69368" lon="-2.22696">
        <ele>67.3</ele>
        <time>2021-05-27T14:29:39Z</time>
      </trkpt>
      <trkpt lat="47.69368" lon="-2.22696">
        <ele>67.3</ele>
        <time>2021-05-27T14:29:40Z</time>
      </trkpt>
      <trkpt lat="47.69368" lon="-2.22696">
        <ele>67.3</ele>
        <time>2021-05-27T14:29:41Z</time>
      </trkpt>
      <trkpt lat="47.69368" lon="-2.22696">
        <ele>67.3</ele>
        <time>2021-05-27T14:29:42Z</time>
      </trkpt>
      <trkpt lat="47.69368" lon="-2.22696">
        <ele>67.3</ele>
        <time>2021-05-27T14:29:43Z</time>
      </trkpt>
      <trkpt lat="47.69368" lon="-2.22696">
        <ele>67.3</ele>
        <time>2021-05-27T14:29:44Z</time>
      </trkpt>
      <trkpt lat="47.69368" lon="-2.22696">
        <ele>67.3</ele>
        <time>2021-05-27T14:29:45Z</time>
      </trkpt>
      <trkpt lat="47.69368" lon="-2.22696">
        <ele>67.3</ele>
        <time>2021-05-27T14:29:46Z</time>
      </trkpt>
      <trkpt lat="47.69368" lon="-2.22696">
        <ele>67.3</ele>
        <time>2021-05-27T14:29:47Z</time>
      </trkpt>
      <trkpt lat="47.69368" lon="-2.22696">
        <ele>67.3</ele>
        <time>2021-05-27T14:29:48Z</time>
      </trkpt>
      <trkpt lat="47.69368" lon="-2.22696">
        <ele>67.3</ele>
        <time>2021-05-27T14:29:49Z</time>
      </trkpt>
      <trkpt lat="47.69368" lon="-2.22696">
        <ele>67.3</ele>
        <time>2021-05-27T14:29:50Z</time>
      </trkpt>
      <trkpt lat="47.69368" lon="-2.22696">
        <ele>67.3</ele>
        <time>2021-05-27T14:29:51Z</time>
      </trkpt>
      <trkpt lat="47.69368" lon="-2.22696">
        <ele>67.3</ele>
        <time>2021-05-27T14:29:52Z</time>
      </trkpt>
      <trkpt lat="47.69368" lon="-2.22696">
        <ele>67.3</ele>
        <time>2021-05-27T14:29:53Z</time>
      </trkpt>
      <trkpt lat="47.69368" lon="-2.22696">
        <ele>67.3</ele>
        <time>2021-05-27T14:29:54Z</time>
      </trkpt>
      <trkpt lat="47.69368" lon="-2.22696">
        <ele>67.3</ele>
        <time>2021-05-27T14:29:55Z</time>
      </trkpt>
      <trkpt lat="47.69368" lon="-2.22696">
        <ele>67.3</ele>
        <time>2021-05-27T14:29:56Z</time>
      </trkpt>
      <trkpt lat="47.69368" lon="-2.22696">
        <ele>67.3</ele>
        <time>2021-05-27T14:29:57Z</time>
      </trkpt>
      <trkpt lat="47.69368" lon="-2.22696">
        <ele>67.3</ele>
        <time>2021-05-27T14:29:58Z</time>
      </trkpt>
      <trkpt lat="47.69368" lon="-2.22696">
        <ele>67.3</ele>
        <time>2021-05-27T14:29:59Z</time>
      </trkpt>
      <trkpt lat="47.69368" lon="-2.22696">
        <ele>67.3</ele>
        <time>2021-05-27T14:30:00Z</time>
      </trkpt>
      <trkpt lat="47.69368" lon="-2.22696">
        <ele>67.3</ele>
        <time>2021-05-27T14:30:01Z</time>
      </trkpt>
      <trkpt lat="47.69368" lon="-2.22696">
        <ele>67.3</ele>
        <time>2021-05-27T14:30:02Z</time>
      </trkpt>
      <trkpt lat="47.69368" lon="-2.22696">
        <ele>67.3</ele>
        <time>2021-05-27T14:30:03Z</time>
      </trkpt>
      <trkpt lat="47.69368" lon="-2.22696">
        <ele>67.3</ele>
        <time>2021-05-27T14:30:04Z</time>
      </trkpt>
      <trkpt lat="47.69368" lon="-2.22696">
        <ele>67.3</ele>
        <time>2021-05-27T14:30:05Z</time>
      </trkpt>
      <trkpt lat="47.69368" lon="-2.22696">
        <ele>67.3</ele>
        <time>2021-05-27T14:30:06Z</time>
      </trkpt>
      <trkpt lat="47.69368" lon="-2.22696">
        <ele>67.3</ele>
        <time>2021-05-27T14:30:07Z</time>
      </trkpt>
      <trkpt lat="47.69371" lon="-2.22695">
        <ele>67.3</ele>
        <time>2021-05-27T14:30:08Z</time>
      </trkpt>
      <trkpt lat="47.6937" lon="-2.22693">
        <ele>67.3</ele>
        <time>2021-05-27T14:30:09Z</time>
      </trkpt>
      <trkpt lat="47.69369" lon="-2.22691">
        <ele>67.3</ele>
        <time>2021-05-27T14:30:10Z</time>
      </trkpt>
      <trkpt lat="47.69367" lon="-2.22689">
        <ele>67.2</ele>
        <time>2021-05-27T14:30:11Z</time>
      </trkpt>
      <trkpt lat="47.69363" lon="-2.22684">
        <ele>67.1</ele>
        <time>2021-05-27T14:30:12Z</time>
      </trkpt>
      <trkpt lat="47.69359" lon="-2.22678">
        <ele>67.1</ele>
        <time>2021-05-27T14:30:13Z</time>
      </trkpt>
      <trkpt lat="47.69355" lon="-2.22672">
        <ele>67</ele>
        <time>2021-05-27T14:30:14Z</time>
      </trkpt>
      <trkpt lat="47.69352" lon="-2.22666">
        <ele>67</ele>
        <time>2021-05-27T14:30:15Z</time>
      </trkpt>
      <trkpt lat="47.69348" lon="-2.2266">
        <ele>67.1</ele>
        <time>2021-05-27T14:30:16Z</time>
      </trkpt>
      <trkpt lat="47.69346" lon="-2.22656">
        <ele>67.1</ele>
        <time>2021-05-27T14:30:17Z</time>
      </trkpt>
      <trkpt lat="47.69346" lon="-2.22652">
        <ele>67.1</ele>
        <time>2021-05-27T14:30:18Z</time>
      </trkpt>
      <trkpt lat="47.69348" lon="-2.2265">
        <ele>67.2</ele>
        <time>2021-05-27T14:30:19Z</time>
      </trkpt>
      <trkpt lat="47.6935" lon="-2.22648">
        <ele>67.2</ele>
        <time>2021-05-27T14:30:20Z</time>
      </trkpt>
      <trkpt lat="47.69354" lon="-2.22647">
        <ele>67.2</ele>
        <time>2021-05-27T14:30:21Z</time>
      </trkpt>
      <trkpt lat="47.69356" lon="-2.22647">
        <ele>67.2</ele>
        <time>2021-05-27T14:30:22Z</time>
      </trkpt>
      <trkpt lat="47.69358" lon="-2.22644">
        <ele>67.2</ele>
        <time>2021-05-27T14:30:23Z</time>
      </trkpt>
      <trkpt lat="47.6936" lon="-2.2264">
        <ele>67.2</ele>
        <time>2021-05-27T14:30:24Z</time>
      </trkpt>
      <trkpt lat="47.6936" lon="-2.22636">
        <ele>67.2</ele>
        <time>2021-05-27T14:30:25Z</time>
      </trkpt>
      <trkpt lat="47.69359" lon="-2.22633">
        <ele>67.3</ele>
        <time>2021-05-27T14:30:26Z</time>
      </trkpt>
      <trkpt lat="47.69357" lon="-2.22629">
        <ele>67.3</ele>
        <time>2021-05-27T14:30:27Z</time>
      </trkpt>
      <trkpt lat="47.69355" lon="-2.22625">
        <ele>67.4</ele>
        <time>2021-05-27T14:30:28Z</time>
      </trkpt>
      <trkpt lat="47.69353" lon="-2.22622">
        <ele>67.4</ele>
        <time>2021-05-27T14:30:29Z</time>
      </trkpt>
      <trkpt lat="47.6935" lon="-2.22618">
        <ele>67.5</ele>
        <time>2021-05-27T14:30:30Z</time>
      </trkpt>
      <trkpt lat="47.69348" lon="-2.22614">
        <ele>67.5</ele>
        <time>2021-05-27T14:30:31Z</time>
      </trkpt>
      <trkpt lat="47.69346" lon="-2.22611">
        <ele>67.6</ele>
        <time>2021-05-27T14:30:32Z</time>
      </trkpt>
      <trkpt lat="47.69343" lon="-2.22607">
        <ele>67.6</ele>
        <time>2021-05-27T14:30:33Z</time>
      </trkpt>
      <trkpt lat="47.69342" lon="-2.22604">
        <ele>67.7</ele>
        <time>2021-05-27T14:30:34Z</time>
      </trkpt>
      <trkpt lat="47.69342" lon="-2.22601">
        <ele>67.7</ele>
        <time>2021-05-27T14:30:35Z</time>
      </trkpt>
      <trkpt lat="47.69341" lon="-2.22597">
        <ele>67.8</ele>
        <time>2021-05-27T14:30:36Z</time>
      </trkpt>
      <trkpt lat="47.69339" lon="-2.22594">
        <ele>67.8</ele>
        <time>2021-05-27T14:30:37Z</time>
      </trkpt>
      <trkpt lat="47.69339" lon="-2.22589">
        <ele>67.9</ele>
        <time>2021-05-27T14:30:38Z</time>
      </trkpt>
      <trkpt lat="47.69338" lon="-2.22585">
        <ele>67.9</ele>
        <time>2021-05-27T14:30:39Z</time>
      </trkpt>
      <trkpt lat="47.69338" lon="-2.2258">
        <ele>68</ele>
        <time>2021-05-27T14:30:40Z</time>
      </trkpt>
      <trkpt lat="47.69337" lon="-2.22574">
        <ele>68.1</ele>
        <time>2021-05-27T14:30:41Z</time>
      </trkpt>
      <trkpt lat="47.69336" lon="-2.2257">
        <ele>68.1</ele>
        <time>2021-05-27T14:30:42Z</time>
      </trkpt>
      <trkpt lat="47.69335" lon="-2.22566">
        <ele>68.2</ele>
        <time>2021-05-27T14:30:43Z</time>
      </trkpt>
      <trkpt lat="47.69334" lon="-2.22562">
        <ele>68.2</ele>
        <time>2021-05-27T14:30:44Z</time>
      </trkpt>
      <trkpt lat="47.69334" lon="-2.22558">
        <ele>68.3</ele>
        <time>2021-05-27T14:30:45Z</time>
      </trkpt>
      <trkpt lat="47.69333" lon="-2.22553">
        <ele>68.4</ele>
        <time>2021-05-27T14:30:46Z</time>
      </trkpt>
      <trkpt lat="47.69333" lon="-2.22549">
        <ele>68.4</ele>
        <time>2021-05-27T14:30:47Z</time>
      </trkpt>
      <trkpt lat="47.69332" lon="-2.22545">
        <ele>68.4</ele>
        <time>2021-05-27T14:30:48Z</time>
      </trkpt>
      <trkpt lat="47.69332" lon="-2.22541">
        <ele>68.4</ele>
        <time>2021-05-27T14:30:49Z</time>
      </trkpt>
      <trkpt lat="47.69331" lon="-2.22536">
        <ele>68.4</ele>
        <time>2021-05-27T14:30:50Z</time>
      </trkpt>
      <trkpt lat="47.6933" lon="-2.22531">
        <ele>68.4</ele>
        <time>2021-05-27T14:30:51Z</time>
      </trkpt>
      <trkpt lat="47.69329" lon="-2.22526">
        <ele>68.4</ele>
        <time>2021-05-27T14:30:52Z</time>
      </trkpt>
      <trkpt lat="47.69329" lon="-2.2252">
        <ele>68.5</ele>
        <time>2021-05-27T14:30:53Z</time>
      </trkpt>
      <trkpt lat="47.6933" lon="-2.22515">
        <ele>68.6</ele>
        <time>2021-05-27T14:30:54Z</time>
      </trkpt>
      <trkpt lat="47.6933" lon="-2.2251">
        <ele>68.6</ele>
        <time>2021-05-27T14:30:55Z</time>
      </trkpt>
      <trkpt lat="47.69329" lon="-2.22506">
        <ele>68.6</ele>
        <time>2021-05-27T14:30:56Z</time>
      </trkpt>
      <trkpt lat="47.69329" lon="-2.22502">
        <ele>68.7</ele>
        <time>2021-05-27T14:30:57Z</time>
      </trkpt>
      <trkpt lat="47.69329" lon="-2.22497">
        <ele>68.7</ele>
        <time>2021-05-27T14:30:58Z</time>
      </trkpt>
      <trkpt lat="47.69329" lon="-2.22492">
        <ele>68.8</ele>
        <time>2021-05-27T14:30:59Z</time>
      </trkpt>
      <trkpt lat="47.6933" lon="-2.22489">
        <ele>68.9</ele>
        <time>2021-05-27T14:31:00Z</time>
      </trkpt>
      <trkpt lat="47.6933" lon="-2.22485">
        <ele>68.9</ele>
        <time>2021-05-27T14:31:01Z</time>
      </trkpt>
      <trkpt lat="47.69329" lon="-2.2248">
        <ele>68.9</ele>
        <time>2021-05-27T14:31:02Z</time>
      </trkpt>
      <trkpt lat="47.69328" lon="-2.22476">
        <ele>68.9</ele>
        <time>2021-05-27T14:31:03Z</time>
      </trkpt>
      <trkpt lat="47.69328" lon="-2.22472">
        <ele>68.9</ele>
        <time>2021-05-27T14:31:04Z</time>
      </trkpt>
      <trkpt lat="47.69328" lon="-2.22469">
        <ele>69</ele>
        <time>2021-05-27T14:31:05Z</time>
      </trkpt>
      <trkpt lat="47.69327" lon="-2.22466">
        <ele>69</ele>
        <time>2021-05-27T14:31:06Z</time>
      </trkpt>
      <trkpt lat="47.69327" lon="-2.22464">
        <ele>69</ele>
        <time>2021-05-27T14:31:07Z</time>
      </trkpt>
      <trkpt lat="47.69327" lon="-2.22462">
        <ele>69</ele>
        <time>2021-05-27T14:31:08Z</time>
      </trkpt>
      <trkpt lat="47.69327" lon="-2.2246">
        <ele>69.1</ele>
        <time>2021-05-27T14:31:09Z</time>
      </trkpt>
      <trkpt lat="47.69327" lon="-2.22459">
        <ele>69</ele>
        <time>2021-05-27T14:31:10Z</time>
      </trkpt>
      <trkpt lat="47.69327" lon="-2.22459">
        <ele>69</ele>
        <time>2021-05-27T14:31:11Z</time>
      </trkpt>
      <trkpt lat="47.69327" lon="-2.22458">
        <ele>69</ele>
        <time>2021-05-27T14:31:12Z</time>
      </trkpt>
      <trkpt lat="47.69327" lon="-2.22458">
        <ele>69</ele>
        <time>2021-05-27T14:31:13Z</time>
      </trkpt>
      <trkpt lat="47.69327" lon="-2.22458">
        <ele>69</ele>
        <time>2021-05-27T14:31:14Z</time>
      </trkpt>
      <trkpt lat="47.69327" lon="-2.22458">
        <ele>69</ele>
        <time>2021-05-27T14:31:15Z</time>
      </trkpt>
      <trkpt lat="47.69327" lon="-2.22458">
        <ele>69</ele>
        <time>2021-05-27T14:31:16Z</time>
      </trkpt>
      <trkpt lat="47.69327" lon="-2.22458">
        <ele>69</ele>
        <time>2021-05-27T14:31:17Z</time>
      </trkpt>
      <trkpt lat="47.69327" lon="-2.22458">
        <ele>69</ele>
        <time>2021-05-27T14:31:18Z</time>
      </trkpt>
      <trkpt lat="47.69327" lon="-2.22458">
        <ele>69</ele>
        <time>2021-05-27T14:31:19Z</time>
      </trkpt>
      <trkpt lat="47.69327" lon="-2.22458">
        <ele>69</ele>
        <time>2021-05-27T14:31:20Z</time>
      </trkpt>
      <trkpt lat="47.69326" lon="-2.22449">
        <ele>69.1</ele>
        <time>2021-05-27T14:31:21Z</time>
      </trkpt>
      <trkpt lat="47.69326" lon="-2.22446">
        <ele>69.1</ele>
        <time>2021-05-27T14:31:22Z</time>
      </trkpt>
      <trkpt lat="47.69326" lon="-2.22442">
        <ele>69.1</ele>
        <time>2021-05-27T14:31:23Z</time>
      </trkpt>
      <trkpt lat="47.69326" lon="-2.22437">
        <ele>69.2</ele>
        <time>2021-05-27T14:31:24Z</time>
      </trkpt>
      <trkpt lat="47.69326" lon="-2.22433">
        <ele>69.2</ele>
        <time>2021-05-27T14:31:25Z</time>
      </trkpt>
      <trkpt lat="47.69326" lon="-2.22429">
        <ele>69.3</ele>
        <time>2021-05-27T14:31:26Z</time>
      </trkpt>
      <trkpt lat="47.69326" lon="-2.22425">
        <ele>69.4</ele>
        <time>2021-05-27T14:31:27Z</time>
      </trkpt>
      <trkpt lat="47.69327" lon="-2.22421">
        <ele>69.5</ele>
        <time>2021-05-27T14:31:28Z</time>
      </trkpt>
      <trkpt lat="47.69326" lon="-2.22417">
        <ele>69.5</ele>
        <time>2021-05-27T14:31:29Z</time>
      </trkpt>
      <trkpt lat="47.69325" lon="-2.22413">
        <ele>69.5</ele>
        <time>2021-05-27T14:31:30Z</time>
      </trkpt>
      <trkpt lat="47.69325" lon="-2.22409">
        <ele>69.5</ele>
        <time>2021-05-27T14:31:31Z</time>
      </trkpt>
      <trkpt lat="47.69325" lon="-2.22405">
        <ele>69.5</ele>
        <time>2021-05-27T14:31:32Z</time>
      </trkpt>
      <trkpt lat="47.69325" lon="-2.22401">
        <ele>69.6</ele>
        <time>2021-05-27T14:31:33Z</time>
      </trkpt>
      <trkpt lat="47.69326" lon="-2.22398">
        <ele>69.7</ele>
        <time>2021-05-27T14:31:34Z</time>
      </trkpt>
      <trkpt lat="47.69326" lon="-2.22396">
        <ele>69.8</ele>
        <time>2021-05-27T14:31:35Z</time>
      </trkpt>
      <trkpt lat="47.69327" lon="-2.22394">
        <ele>69.8</ele>
        <time>2021-05-27T14:31:36Z</time>
      </trkpt>
      <trkpt lat="47.69326" lon="-2.22391">
        <ele>69.8</ele>
        <time>2021-05-27T14:31:37Z</time>
      </trkpt>
      <trkpt lat="47.69326" lon="-2.22389">
        <ele>69.8</ele>
        <time>2021-05-27T14:31:38Z</time>
      </trkpt>
      <trkpt lat="47.69325" lon="-2.22387">
        <ele>69.8</ele>
        <time>2021-05-27T14:31:39Z</time>
      </trkpt>
      <trkpt lat="47.69324" lon="-2.22384">
        <ele>69.7</ele>
        <time>2021-05-27T14:31:40Z</time>
      </trkpt>
      <trkpt lat="47.69322" lon="-2.22382">
        <ele>69.6</ele>
        <time>2021-05-27T14:31:41Z</time>
      </trkpt>
      <trkpt lat="47.6932" lon="-2.2238">
        <ele>69.5</ele>
        <time>2021-05-27T14:31:42Z</time>
      </trkpt>
      <trkpt lat="47.6932" lon="-2.22376">
        <ele>69.5</ele>
        <time>2021-05-27T14:31:43Z</time>
      </trkpt>
      <trkpt lat="47.6932" lon="-2.22372">
        <ele>69.6</ele>
        <time>2021-05-27T14:31:44Z</time>
      </trkpt>
      <trkpt lat="47.69319" lon="-2.22368">
        <ele>69.5</ele>
        <time>2021-05-27T14:31:45Z</time>
      </trkpt>
      <trkpt lat="47.69318" lon="-2.22364">
        <ele>69.5</ele>
        <time>2021-05-27T14:31:46Z</time>
      </trkpt>
      <trkpt lat="47.69316" lon="-2.22361">
        <ele>69.4</ele>
        <time>2021-05-27T14:31:47Z</time>
      </trkpt>
      <trkpt lat="47.69314" lon="-2.22357">
        <ele>69.3</ele>
        <time>2021-05-27T14:31:48Z</time>
      </trkpt>
      <trkpt lat="47.69312" lon="-2.22353">
        <ele>69.3</ele>
        <time>2021-05-27T14:31:49Z</time>
      </trkpt>
      <trkpt lat="47.69311" lon="-2.22348">
        <ele>69.2</ele>
        <time>2021-05-27T14:31:50Z</time>
      </trkpt>
      <trkpt lat="47.6931" lon="-2.22344">
        <ele>69.2</ele>
        <time>2021-05-27T14:31:51Z</time>
      </trkpt>
      <trkpt lat="47.6931" lon="-2.2234">
        <ele>69.2</ele>
        <time>2021-05-27T14:31:52Z</time>
      </trkpt>
      <trkpt lat="47.69309" lon="-2.22335">
        <ele>69.2</ele>
        <time>2021-05-27T14:31:53Z</time>
      </trkpt>
      <trkpt lat="47.69307" lon="-2.22331">
        <ele>69.1</ele>
        <time>2021-05-27T14:31:54Z</time>
      </trkpt>
      <trkpt lat="47.69305" lon="-2.22326">
        <ele>68.9</ele>
        <time>2021-05-27T14:31:55Z</time>
      </trkpt>
      <trkpt lat="47.69304" lon="-2.22322">
        <ele>68.8</ele>
        <time>2021-05-27T14:31:56Z</time>
      </trkpt>
      <trkpt lat="47.69303" lon="-2.22317">
        <ele>68.6</ele>
        <time>2021-05-27T14:31:57Z</time>
      </trkpt>
      <trkpt lat="47.69301" lon="-2.22312">
        <ele>68.5</ele>
        <time>2021-05-27T14:31:58Z</time>
      </trkpt>
      <trkpt lat="47.69299" lon="-2.22307">
        <ele>68.3</ele>
        <time>2021-05-27T14:31:59Z</time>
      </trkpt>
      <trkpt lat="47.69297" lon="-2.22303">
        <ele>68.1</ele>
        <time>2021-05-27T14:32:00Z</time>
      </trkpt>
      <trkpt lat="47.69296" lon="-2.22299">
        <ele>68</ele>
        <time>2021-05-27T14:32:01Z</time>
      </trkpt>
      <trkpt lat="47.69294" lon="-2.22296">
        <ele>67.9</ele>
        <time>2021-05-27T14:32:02Z</time>
      </trkpt>
      <trkpt lat="47.69292" lon="-2.22293">
        <ele>67.8</ele>
        <time>2021-05-27T14:32:03Z</time>
      </trkpt>
      <trkpt lat="47.69291" lon="-2.22288">
        <ele>67.7</ele>
        <time>2021-05-27T14:32:04Z</time>
      </trkpt>
      <trkpt lat="47.6929" lon="-2.22281">
        <ele>67.6</ele>
        <time>2021-05-27T14:32:05Z</time>
      </trkpt>
      <trkpt lat="47.6929" lon="-2.22276">
        <ele>67.6</ele>
        <time>2021-05-27T14:32:06Z</time>
      </trkpt>
      <trkpt lat="47.69289" lon="-2.22272">
        <ele>67.5</ele>
        <time>2021-05-27T14:32:07Z</time>
      </trkpt>
      <trkpt lat="47.69288" lon="-2.22268">
        <ele>67.4</ele>
        <time>2021-05-27T14:32:08Z</time>
      </trkpt>
      <trkpt lat="47.69287" lon="-2.22263">
        <ele>67.4</ele>
        <time>2021-05-27T14:32:09Z</time>
      </trkpt>
      <trkpt lat="47.69286" lon="-2.22259">
        <ele>67.3</ele>
        <time>2021-05-27T14:32:10Z</time>
      </trkpt>
      <trkpt lat="47.69284" lon="-2.22254">
        <ele>67.3</ele>
        <time>2021-05-27T14:32:11Z</time>
      </trkpt>
      <trkpt lat="47.69283" lon="-2.22249">
        <ele>67.2</ele>
        <time>2021-05-27T14:32:12Z</time>
      </trkpt>
      <trkpt lat="47.69281" lon="-2.22245">
        <ele>67</ele>
        <time>2021-05-27T14:32:13Z</time>
      </trkpt>
      <trkpt lat="47.69279" lon="-2.2224">
        <ele>66.9</ele>
        <time>2021-05-27T14:32:14Z</time>
      </trkpt>
      <trkpt lat="47.69277" lon="-2.22236">
        <ele>66.7</ele>
        <time>2021-05-27T14:32:15Z</time>
      </trkpt>
      <trkpt lat="47.69274" lon="-2.22232">
        <ele>66.5</ele>
        <time>2021-05-27T14:32:16Z</time>
      </trkpt>
      <trkpt lat="47.69273" lon="-2.22227">
        <ele>66.3</ele>
        <time>2021-05-27T14:32:17Z</time>
      </trkpt>
      <trkpt lat="47.69271" lon="-2.22221">
        <ele>66.2</ele>
        <time>2021-05-27T14:32:18Z</time>
      </trkpt>
      <trkpt lat="47.69271" lon="-2.22216">
        <ele>66</ele>
        <time>2021-05-27T14:32:19Z</time>
      </trkpt>
      <trkpt lat="47.6927" lon="-2.22211">
        <ele>65.9</ele>
        <time>2021-05-27T14:32:20Z</time>
      </trkpt>
      <trkpt lat="47.69269" lon="-2.22206">
        <ele>65.8</ele>
        <time>2021-05-27T14:32:21Z</time>
      </trkpt>
      <trkpt lat="47.69268" lon="-2.22202">
        <ele>65.6</ele>
        <time>2021-05-27T14:32:22Z</time>
      </trkpt>
      <trkpt lat="47.69268" lon="-2.22199">
        <ele>65.5</ele>
        <time>2021-05-27T14:32:23Z</time>
      </trkpt>
      <trkpt lat="47.69267" lon="-2.22196">
        <ele>65.4</ele>
        <time>2021-05-27T14:32:24Z</time>
      </trkpt>
      <trkpt lat="47.69266" lon="-2.22194">
        <ele>65.4</ele>
        <time>2021-05-27T14:32:25Z</time>
      </trkpt>
      <trkpt lat="47.69265" lon="-2.22193">
        <ele>65.3</ele>
        <time>2021-05-27T14:32:26Z</time>
      </trkpt>
      <trkpt lat="47.69265" lon="-2.22193">
        <ele>65.3</ele>
        <time>2021-05-27T14:32:27Z</time>
      </trkpt>
      <trkpt lat="47.69265" lon="-2.22193">
        <ele>65.3</ele>
        <time>2021-05-27T14:32:28Z</time>
      </trkpt>
      <trkpt lat="47.69265" lon="-2.22193">
        <ele>65.3</ele>
        <time>2021-05-27T14:32:29Z</time>
      </trkpt>
      <trkpt lat="47.69265" lon="-2.22193">
        <ele>65.3</ele>
        <time>2021-05-27T14:32:30Z</time>
      </trkpt>
      <trkpt lat="47.69265" lon="-2.22193">
        <ele>65.3</ele>
        <time>2021-05-27T14:32:31Z</time>
      </trkpt>
      <trkpt lat="47.69265" lon="-2.22193">
        <ele>65.3</ele>
        <time>2021-05-27T14:32:32Z</time>
      </trkpt>
      <trkpt lat="47.69265" lon="-2.22193">
        <ele>65.3</ele>
        <time>2021-05-27T14:32:33Z</time>
      </trkpt>
      <trkpt lat="47.69265" lon="-2.22193">
        <ele>65.3</ele>
        <time>2021-05-27T14:32:34Z</time>
      </trkpt>
      <trkpt lat="47.69265" lon="-2.22193">
        <ele>65.3</ele>
        <time>2021-05-27T14:32:35Z</time>
      </trkpt>
      <trkpt lat="47.69265" lon="-2.22193">
        <ele>65.3</ele>
        <time>2021-05-27T14:32:36Z</time>
      </trkpt>
      <trkpt lat="47.69265" lon="-2.22193">
        <ele>65.3</ele>
        <time>2021-05-27T14:32:37Z</time>
      </trkpt>
      <trkpt lat="47.69265" lon="-2.22193">
        <ele>65.3</ele>
        <time>2021-05-27T14:32:38Z</time>
      </trkpt>
      <trkpt lat="47.69265" lon="-2.22193">
        <ele>65.3</ele>
        <time>2021-05-27T14:32:39Z</time>
      </trkpt>
      <trkpt lat="47.69265" lon="-2.22193">
        <ele>65.3</ele>
        <time>2021-05-27T14:32:40Z</time>
      </trkpt>
      <trkpt lat="47.69265" lon="-2.22193">
        <ele>65.3</ele>
        <time>2021-05-27T14:32:41Z</time>
      </trkpt>
      <trkpt lat="47.69265" lon="-2.22193">
        <ele>65.3</ele>
        <time>2021-05-27T14:32:42Z</time>
      </trkpt>
      <trkpt lat="47.69265" lon="-2.22193">
        <ele>65.3</ele>
        <time>2021-05-27T14:32:43Z</time>
      </trkpt>
      <trkpt lat="47.69265" lon="-2.22193">
        <ele>65.3</ele>
        <time>2021-05-27T14:32:44Z</time>
      </trkpt>
      <trkpt lat="47.69265" lon="-2.22193">
        <ele>65.3</ele>
        <time>2021-05-27T14:32:45Z</time>
      </trkpt>
      <trkpt lat="47.69265" lon="-2.22193">
        <ele>65.3</ele>
        <time>2021-05-27T14:32:46Z</time>
      </trkpt>
      <trkpt lat="47.69264" lon="-2.22184">
        <ele>65</ele>
        <time>2021-05-27T14:32:47Z</time>
      </trkpt>
      <trkpt lat="47.69265" lon="-2.22183">
        <ele>65.1</ele>
        <time>2021-05-27T14:32:48Z</time>
      </trkpt>
      <trkpt lat="47.69267" lon="-2.22181">
        <ele>65.1</ele>
        <time>2021-05-27T14:32:49Z</time>
      </trkpt>
      <trkpt lat="47.69269" lon="-2.2218">
        <ele>65.2</ele>
        <time>2021-05-27T14:32:50Z</time>
      </trkpt>
      <trkpt lat="47.69272" lon="-2.22179">
        <ele>65.3</ele>
        <time>2021-05-27T14:32:51Z</time>
      </trkpt>
      <trkpt lat="47.69274" lon="-2.22179">
        <ele>65.4</ele>
        <time>2021-05-27T14:32:52Z</time>
      </trkpt>
      <trkpt lat="47.69276" lon="-2.22177">
        <ele>65.5</ele>
        <time>2021-05-27T14:32:53Z</time>
      </trkpt>
      <trkpt lat="47.69279" lon="-2.22173">
        <ele>65.5</ele>
        <time>2021-05-27T14:32:54Z</time>
      </trkpt>
      <trkpt lat="47.6928" lon="-2.2217">
        <ele>65.5</ele>
        <time>2021-05-27T14:32:55Z</time>
      </trkpt>
      <trkpt lat="47.69281" lon="-2.22166">
        <ele>65.5</ele>
        <time>2021-05-27T14:32:56Z</time>
      </trkpt>
      <trkpt lat="47.69281" lon="-2.22162">
        <ele>65.4</ele>
        <time>2021-05-27T14:32:57Z</time>
      </trkpt>
      <trkpt lat="47.6928" lon="-2.22159">
        <ele>65.3</ele>
        <time>2021-05-27T14:32:58Z</time>
      </trkpt>
      <trkpt lat="47.69278" lon="-2.22156">
        <ele>65.2</ele>
        <time>2021-05-27T14:32:59Z</time>
      </trkpt>
      <trkpt lat="47.69277" lon="-2.22156">
        <ele>65.1</ele>
        <time>2021-05-27T14:33:00Z</time>
      </trkpt>
      <trkpt lat="47.69276" lon="-2.22154">
        <ele>65.1</ele>
        <time>2021-05-27T14:33:01Z</time>
      </trkpt>
      <trkpt lat="47.69277" lon="-2.22152">
        <ele>65</ele>
        <time>2021-05-27T14:33:02Z</time>
      </trkpt>
      <trkpt lat="47.69277" lon="-2.22149">
        <ele>65</ele>
        <time>2021-05-27T14:33:03Z</time>
      </trkpt>
      <trkpt lat="47.69277" lon="-2.22145">
        <ele>65</ele>
        <time>2021-05-27T14:33:04Z</time>
      </trkpt>
      <trkpt lat="47.69277" lon="-2.22141">
        <ele>64.9</ele>
        <time>2021-05-27T14:33:05Z</time>
      </trkpt>
      <trkpt lat="47.69277" lon="-2.22135">
        <ele>64.8</ele>
        <time>2021-05-27T14:33:06Z</time>
      </trkpt>
      <trkpt lat="47.69277" lon="-2.2213">
        <ele>64.7</ele>
        <time>2021-05-27T14:33:07Z</time>
      </trkpt>
      <trkpt lat="47.69277" lon="-2.22125">
        <ele>64.6</ele>
        <time>2021-05-27T14:33:08Z</time>
      </trkpt>
      <trkpt lat="47.69277" lon="-2.22121">
        <ele>64.6</ele>
        <time>2021-05-27T14:33:09Z</time>
      </trkpt>
      <trkpt lat="47.69279" lon="-2.22118">
        <ele>64.6</ele>
        <time>2021-05-27T14:33:10Z</time>
      </trkpt>
      <trkpt lat="47.69281" lon="-2.22116">
        <ele>64.7</ele>
        <time>2021-05-27T14:33:11Z</time>
      </trkpt>
      <trkpt lat="47.69283" lon="-2.22116">
        <ele>64.7</ele>
        <time>2021-05-27T14:33:12Z</time>
      </trkpt>
      <trkpt lat="47.69285" lon="-2.22119">
        <ele>64.8</ele>
        <time>2021-05-27T14:33:13Z</time>
      </trkpt>
      <trkpt lat="47.69287" lon="-2.22122">
        <ele>65</ele>
        <time>2021-05-27T14:33:14Z</time>
      </trkpt>
      <trkpt lat="47.69289" lon="-2.22125">
        <ele>65.1</ele>
        <time>2021-05-27T14:33:15Z</time>
      </trkpt>
      <trkpt lat="47.69291" lon="-2.22129">
        <ele>65.3</ele>
        <time>2021-05-27T14:33:16Z</time>
      </trkpt>
      <trkpt lat="47.69292" lon="-2.22133">
        <ele>65.4</ele>
        <time>2021-05-27T14:33:17Z</time>
      </trkpt>
      <trkpt lat="47.69293" lon="-2.22136">
        <ele>65.5</ele>
        <time>2021-05-27T14:33:18Z</time>
      </trkpt>
      <trkpt lat="47.69294" lon="-2.22139">
        <ele>65.6</ele>
        <time>2021-05-27T14:33:19Z</time>
      </trkpt>
      <trkpt lat="47.69295" lon="-2.22142">
        <ele>65.7</ele>
        <time>2021-05-27T14:33:20Z</time>
      </trkpt>
      <trkpt lat="47.69297" lon="-2.22145">
        <ele>65.9</ele>
        <time>2021-05-27T14:33:21Z</time>
      </trkpt>
      <trkpt lat="47.69298" lon="-2.22148">
        <ele>66</ele>
        <time>2021-05-27T14:33:22Z</time>
      </trkpt>
      <trkpt lat="47.69299" lon="-2.22151">
        <ele>66.1</ele>
        <time>2021-05-27T14:33:23Z</time>
      </trkpt>
      <trkpt lat="47.69301" lon="-2.22154">
        <ele>66.2</ele>
        <time>2021-05-27T14:33:24Z</time>
      </trkpt>
      <trkpt lat="47.69303" lon="-2.22155">
        <ele>66.3</ele>
        <time>2021-05-27T14:33:25Z</time>
      </trkpt>
      <trkpt lat="47.69305" lon="-2.22156">
        <ele>66.4</ele>
        <time>2021-05-27T14:33:26Z</time>
      </trkpt>
      <trkpt lat="47.69307" lon="-2.22157">
        <ele>66.5</ele>
        <time>2021-05-27T14:33:27Z</time>
      </trkpt>
      <trkpt lat="47.69308" lon="-2.22159">
        <ele>66.6</ele>
        <time>2021-05-27T14:33:28Z</time>
      </trkpt>
      <trkpt lat="47.69308" lon="-2.2216">
        <ele>66.6</ele>
        <time>2021-05-27T14:33:29Z</time>
      </trkpt>
      <trkpt lat="47.69307" lon="-2.22159">
        <ele>66.6</ele>
        <time>2021-05-27T14:33:30Z</time>
      </trkpt>
      <trkpt lat="47.69307" lon="-2.22157">
        <ele>66.5</ele>
        <time>2021-05-27T14:33:31Z</time>
      </trkpt>
      <trkpt lat="47.69306" lon="-2.22153">
        <ele>66.4</ele>
        <time>2021-05-27T14:33:32Z</time>
      </trkpt>
      <trkpt lat="47.69304" lon="-2.2215">
        <ele>66.3</ele>
        <time>2021-05-27T14:33:33Z</time>
      </trkpt>
      <trkpt lat="47.69303" lon="-2.22146">
        <ele>66.2</ele>
        <time>2021-05-27T14:33:34Z</time>
      </trkpt>
      <trkpt lat="47.69302" lon="-2.22142">
        <ele>66</ele>
        <time>2021-05-27T14:33:35Z</time>
      </trkpt>
      <trkpt lat="47.693" lon="-2.22137">
        <ele>65.8</ele>
        <time>2021-05-27T14:33:36Z</time>
      </trkpt>
      <trkpt lat="47.69299" lon="-2.22132">
        <ele>65.7</ele>
        <time>2021-05-27T14:33:37Z</time>
      </trkpt>
      <trkpt lat="47.69298" lon="-2.22127">
        <ele>65.5</ele>
        <time>2021-05-27T14:33:38Z</time>
      </trkpt>
      <trkpt lat="47.69297" lon="-2.22122">
        <ele>65.4</ele>
        <time>2021-05-27T14:33:39Z</time>
      </trkpt>
      <trkpt lat="47.69296" lon="-2.22118">
        <ele>65.3</ele>
        <time>2021-05-27T14:33:40Z</time>
      </trkpt>
      <trkpt lat="47.69294" lon="-2.22114">
        <ele>65.1</ele>
        <time>2021-05-27T14:33:41Z</time>
      </trkpt>
      <trkpt lat="47.69292" lon="-2.2211">
        <ele>65</ele>
        <time>2021-05-27T14:33:42Z</time>
      </trkpt>
      <trkpt lat="47.69289" lon="-2.22106">
        <ele>64.8</ele>
        <time>2021-05-27T14:33:43Z</time>
      </trkpt>
      <trkpt lat="47.69286" lon="-2.22101">
        <ele>64.6</ele>
        <time>2021-05-27T14:33:44Z</time>
      </trkpt>
      <trkpt lat="47.69285" lon="-2.22098">
        <ele>64.5</ele>
        <time>2021-05-27T14:33:45Z</time>
      </trkpt>
      <trkpt lat="47.69284" lon="-2.22097">
        <ele>64.4</ele>
        <time>2021-05-27T14:33:46Z</time>
      </trkpt>
      <trkpt lat="47.69284" lon="-2.22095">
        <ele>64.4</ele>
        <time>2021-05-27T14:33:47Z</time>
      </trkpt>
      <trkpt lat="47.69284" lon="-2.22095">
        <ele>64.4</ele>
        <time>2021-05-27T14:33:48Z</time>
      </trkpt>
      <trkpt lat="47.69284" lon="-2.22095">
        <ele>64.4</ele>
        <time>2021-05-27T14:33:49Z</time>
      </trkpt>
      <trkpt lat="47.69284" lon="-2.22095">
        <ele>64.4</ele>
        <time>2021-05-27T14:33:50Z</time>
      </trkpt>
      <trkpt lat="47.69284" lon="-2.22095">
        <ele>64.4</ele>
        <time>2021-05-27T14:33:51Z</time>
      </trkpt>
      <trkpt lat="47.69284" lon="-2.22095">
        <ele>64.4</ele>
        <time>2021-05-27T14:33:52Z</time>
      </trkpt>
      <trkpt lat="47.69284" lon="-2.22095">
        <ele>64.4</ele>
        <time>2021-05-27T14:33:53Z</time>
      </trkpt>
      <trkpt lat="47.69284" lon="-2.22095">
        <ele>64.4</ele>
        <time>2021-05-27T14:33:54Z</time>
      </trkpt>
      <trkpt lat="47.69284" lon="-2.22095">
        <ele>64.4</ele>
        <time>2021-05-27T14:33:55Z</time>
      </trkpt>
      <trkpt lat="47.69284" lon="-2.22095">
        <ele>64.4</ele>
        <time>2021-05-27T14:33:56Z</time>
      </trkpt>
      <trkpt lat="47.69284" lon="-2.22095">
        <ele>64.4</ele>
        <time>2021-05-27T14:33:57Z</time>
      </trkpt>
      <trkpt lat="47.69284" lon="-2.22095">
        <ele>64.4</ele>
        <time>2021-05-27T14:33:58Z</time>
      </trkpt>
      <trkpt lat="47.69284" lon="-2.22095">
        <ele>64.4</ele>
        <time>2021-05-27T14:33:59Z</time>
      </trkpt>
      <trkpt lat="47.69284" lon="-2.22095">
        <ele>64.4</ele>
        <time>2021-05-27T14:34:00Z</time>
      </trkpt>
      <trkpt lat="47.69289" lon="-2.22097">
        <ele>64.6</ele>
        <time>2021-05-27T14:34:01Z</time>
      </trkpt>
      <trkpt lat="47.69291" lon="-2.22096">
        <ele>64.7</ele>
        <time>2021-05-27T14:34:02Z</time>
      </trkpt>
      <trkpt lat="47.69294" lon="-2.22096">
        <ele>64.8</ele>
        <time>2021-05-27T14:34:03Z</time>
      </trkpt>
      <trkpt lat="47.69296" lon="-2.22095">
        <ele>64.9</ele>
        <time>2021-05-27T14:34:04Z</time>
      </trkpt>
      <trkpt lat="47.69299" lon="-2.22095">
        <ele>65</ele>
        <time>2021-05-27T14:34:05Z</time>
      </trkpt>
      <trkpt lat="47.69301" lon="-2.22096">
        <ele>65.1</ele>
        <time>2021-05-27T14:34:06Z</time>
      </trkpt>
      <trkpt lat="47.69304" lon="-2.22098">
        <ele>65.2</ele>
        <time>2021-05-27T14:34:07Z</time>
      </trkpt>
      <trkpt lat="47.69307" lon="-2.22101">
        <ele>65.4</ele>
        <time>2021-05-27T14:34:08Z</time>
      </trkpt>
      <trkpt lat="47.6931" lon="-2.22105">
        <ele>65.6</ele>
        <time>2021-05-27T14:34:09Z</time>
      </trkpt>
      <trkpt lat="47.69311" lon="-2.22107">
        <ele>65.7</ele>
        <time>2021-05-27T14:34:10Z</time>
      </trkpt>
      <trkpt lat="47.69313" lon="-2.2211">
        <ele>65.8</ele>
        <time>2021-05-27T14:34:11Z</time>
      </trkpt>
      <trkpt lat="47.69316" lon="-2.22112">
        <ele>66</ele>
        <time>2021-05-27T14:34:12Z</time>
      </trkpt>
      <trkpt lat="47.69318" lon="-2.22115">
        <ele>66.1</ele>
        <time>2021-05-27T14:34:13Z</time>
      </trkpt>
      <trkpt lat="47.69321" lon="-2.22117">
        <ele>66.3</ele>
        <time>2021-05-27T14:34:14Z</time>
      </trkpt>
      <trkpt lat="47.69323" lon="-2.22118">
        <ele>66.4</ele>
        <time>2021-05-27T14:34:15Z</time>
      </trkpt>
      <trkpt lat="47.69326" lon="-2.22119">
        <ele>66.5</ele>
        <time>2021-05-27T14:34:16Z</time>
      </trkpt>
      <trkpt lat="47.69328" lon="-2.22121">
        <ele>66.7</ele>
        <time>2021-05-27T14:34:17Z</time>
      </trkpt>
      <trkpt lat="47.6933" lon="-2.22122">
        <ele>66.8</ele>
        <time>2021-05-27T14:34:18Z</time>
      </trkpt>
      <trkpt lat="47.69332" lon="-2.22123">
        <ele>66.9</ele>
        <time>2021-05-27T14:34:19Z</time>
      </trkpt>
      <trkpt lat="47.69333" lon="-2.22126">
        <ele>67</ele>
        <time>2021-05-27T14:34:20Z</time>
      </trkpt>
      <trkpt lat="47.69335" lon="-2.2213">
        <ele>66.8</ele>
        <time>2021-05-27T14:34:21Z</time>
      </trkpt>
      <trkpt lat="47.69336" lon="-2.22134">
        <ele>66.7</ele>
        <time>2021-05-27T14:34:22Z</time>
      </trkpt>
      <trkpt lat="47.69338" lon="-2.22139">
        <ele>66.5</ele>
        <time>2021-05-27T14:34:23Z</time>
      </trkpt>
      <trkpt lat="47.6934" lon="-2.22144">
        <ele>66.3</ele>
        <time>2021-05-27T14:34:24Z</time>
      </trkpt>
      <trkpt lat="47.69342" lon="-2.22147">
        <ele>66.1</ele>
        <time>2021-05-27T14:34:25Z</time>
      </trkpt>
      <trkpt lat="47.69345" lon="-2.22151">
        <ele>65.8</ele>
        <time>2021-05-27T14:34:26Z</time>
      </trkpt>
      <trkpt lat="47.69347" lon="-2.22153">
        <ele>65.5</ele>
        <time>2021-05-27T14:34:27Z</time>
      </trkpt>
      <trkpt lat="47.69349" lon="-2.22156">
        <ele>65.4</ele>
        <time>2021-05-27T14:34:28Z</time>
      </trkpt>
      <trkpt lat="47.6935" lon="-2.22158">
        <ele>65.3</ele>
        <time>2021-05-27T14:34:29Z</time>
      </trkpt>
      <trkpt lat="47.6935" lon="-2.2216">
        <ele>65.4</ele>
        <time>2021-05-27T14:34:30Z</time>
      </trkpt>
      <trkpt lat="47.6935" lon="-2.2216">
        <ele>65.3</ele>
        <time>2021-05-27T14:34:31Z</time>
      </trkpt>
      <trkpt lat="47.6935" lon="-2.22158">
        <ele>65.3</ele>
        <time>2021-05-27T14:34:32Z</time>
      </trkpt>
      <trkpt lat="47.6935" lon="-2.22156">
        <ele>65.2</ele>
        <time>2021-05-27T14:34:33Z</time>
      </trkpt>
      <trkpt lat="47.69349" lon="-2.22154">
        <ele>65.2</ele>
        <time>2021-05-27T14:34:34Z</time>
      </trkpt>
      <trkpt lat="47.69349" lon="-2.2215">
        <ele>65.1</ele>
        <time>2021-05-27T14:34:35Z</time>
      </trkpt>
      <trkpt lat="47.69348" lon="-2.22147">
        <ele>65.2</ele>
        <time>2021-05-27T14:34:36Z</time>
      </trkpt>
      <trkpt lat="47.69347" lon="-2.22144">
        <ele>65.2</ele>
        <time>2021-05-27T14:34:37Z</time>
      </trkpt>
      <trkpt lat="47.69346" lon="-2.2214">
        <ele>65.3</ele>
        <time>2021-05-27T14:34:38Z</time>
      </trkpt>
      <trkpt lat="47.69344" lon="-2.22136">
        <ele>65.4</ele>
        <time>2021-05-27T14:34:39Z</time>
      </trkpt>
      <trkpt lat="47.69343" lon="-2.22132">
        <ele>65.4</ele>
        <time>2021-05-27T14:34:40Z</time>
      </trkpt>
      <trkpt lat="47.69342" lon="-2.22129">
        <ele>65.6</ele>
        <time>2021-05-27T14:34:41Z</time>
      </trkpt>
      <trkpt lat="47.6934" lon="-2.22126">
        <ele>65.8</ele>
        <time>2021-05-27T14:34:42Z</time>
      </trkpt>
      <trkpt lat="47.69339" lon="-2.22123">
        <ele>66</ele>
        <time>2021-05-27T14:34:43Z</time>
      </trkpt>
      <trkpt lat="47.69337" lon="-2.2212">
        <ele>66.2</ele>
        <time>2021-05-27T14:34:44Z</time>
      </trkpt>
      <trkpt lat="47.69336" lon="-2.22116">
        <ele>66.2</ele>
        <time>2021-05-27T14:34:45Z</time>
      </trkpt>
      <trkpt lat="47.69336" lon="-2.22115">
        <ele>66.2</ele>
        <time>2021-05-27T14:34:46Z</time>
      </trkpt>
      <trkpt lat="47.69337" lon="-2.22115">
        <ele>66.1</ele>
        <time>2021-05-27T14:34:47Z</time>
      </trkpt>
      <trkpt lat="47.69337" lon="-2.22116">
        <ele>66</ele>
        <time>2021-05-27T14:34:48Z</time>
      </trkpt>
      <trkpt lat="47.69337" lon="-2.22116">
        <ele>66</ele>
        <time>2021-05-27T14:34:49Z</time>
      </trkpt>
      <trkpt lat="47.6934" lon="-2.2212">
        <ele>65.5</ele>
        <time>2021-05-27T14:34:50Z</time>
      </trkpt>
      <trkpt lat="47.69343" lon="-2.22124">
        <ele>65.1</ele>
        <time>2021-05-27T14:34:51Z</time>
      </trkpt>
      <trkpt lat="47.69346" lon="-2.22127">
        <ele>64.7</ele>
        <time>2021-05-27T14:34:52Z</time>
      </trkpt>
      <trkpt lat="47.69349" lon="-2.22129">
        <ele>64.3</ele>
        <time>2021-05-27T14:34:53Z</time>
      </trkpt>
      <trkpt lat="47.69351" lon="-2.22131">
        <ele>64</ele>
        <time>2021-05-27T14:34:54Z</time>
      </trkpt>
      <trkpt lat="47.69353" lon="-2.22133">
        <ele>63.6</ele>
        <time>2021-05-27T14:34:55Z</time>
      </trkpt>
      <trkpt lat="47.69357" lon="-2.22135">
        <ele>63.1</ele>
        <time>2021-05-27T14:34:56Z</time>
      </trkpt>
      <trkpt lat="47.69359" lon="-2.22135">
        <ele>62.7</ele>
        <time>2021-05-27T14:34:57Z</time>
      </trkpt>
      <trkpt lat="47.69361" lon="-2.22136">
        <ele>62.4</ele>
        <time>2021-05-27T14:34:58Z</time>
      </trkpt>
      <trkpt lat="47.69364" lon="-2.22136">
        <ele>62</ele>
        <time>2021-05-27T14:34:59Z</time>
      </trkpt>
      <trkpt lat="47.69366" lon="-2.22136">
        <ele>61.6</ele>
        <time>2021-05-27T14:35:00Z</time>
      </trkpt>
      <trkpt lat="47.69367" lon="-2.22135">
        <ele>61.3</ele>
        <time>2021-05-27T14:35:01Z</time>
      </trkpt>
      <trkpt lat="47.69368" lon="-2.22134">
        <ele>61.1</ele>
        <time>2021-05-27T14:35:02Z</time>
      </trkpt>
      <trkpt lat="47.69368" lon="-2.22135">
        <ele>61.1</ele>
        <time>2021-05-27T14:35:03Z</time>
      </trkpt>
      <trkpt lat="47.69368" lon="-2.22135">
        <ele>61.1</ele>
        <time>2021-05-27T14:35:04Z</time>
      </trkpt>
      <trkpt lat="47.69368" lon="-2.22135">
        <ele>61.1</ele>
        <time>2021-05-27T14:35:05Z</time>
      </trkpt>
      <trkpt lat="47.69368" lon="-2.22135">
        <ele>61.1</ele>
        <time>2021-05-27T14:35:06Z</time>
      </trkpt>
      <trkpt lat="47.69368" lon="-2.22135">
        <ele>61.1</ele>
        <time>2021-05-27T14:35:07Z</time>
      </trkpt>
      <trkpt lat="47.69368" lon="-2.22135">
        <ele>61.1</ele>
        <time>2021-05-27T14:35:08Z</time>
      </trkpt>
      <trkpt lat="47.69368" lon="-2.22135">
        <ele>61.1</ele>
        <time>2021-05-27T14:35:09Z</time>
      </trkpt>
      <trkpt lat="47.69368" lon="-2.22135">
        <ele>61.1</ele>
        <time>2021-05-27T14:35:10Z</time>
      </trkpt>
      <trkpt lat="47.69368" lon="-2.22135">
        <ele>61.1</ele>
        <time>2021-05-27T14:35:11Z</time>
      </trkpt>
      <trkpt lat="47.69377" lon="-2.22124">
        <ele>58.8</ele>
        <time>2021-05-27T14:35:12Z</time>
      </trkpt>
      <trkpt lat="47.69378" lon="-2.22121">
        <ele>58.4</ele>
        <time>2021-05-27T14:35:13Z</time>
      </trkpt>
      <trkpt lat="47.69379" lon="-2.22118">
        <ele>57.9</ele>
        <time>2021-05-27T14:35:14Z</time>
      </trkpt>
      <trkpt lat="47.6938" lon="-2.22114">
        <ele>57.5</ele>
        <time>2021-05-27T14:35:15Z</time>
      </trkpt>
      <trkpt lat="47.69382" lon="-2.22111">
        <ele>57</ele>
        <time>2021-05-27T14:35:16Z</time>
      </trkpt>
      <trkpt lat="47.69384" lon="-2.22108">
        <ele>56.3</ele>
        <time>2021-05-27T14:35:17Z</time>
      </trkpt>
      <trkpt lat="47.69385" lon="-2.22107">
        <ele>55.9</ele>
        <time>2021-05-27T14:35:18Z</time>
      </trkpt>
      <trkpt lat="47.69387" lon="-2.22107">
        <ele>55.6</ele>
        <time>2021-05-27T14:35:19Z</time>
      </trkpt>
      <trkpt lat="47.69388" lon="-2.22107">
        <ele>55.4</ele>
        <time>2021-05-27T14:35:20Z</time>
      </trkpt>
      <trkpt lat="47.69388" lon="-2.22107">
        <ele>55.4</ele>
        <time>2021-05-27T14:35:21Z</time>
      </trkpt>
      <trkpt lat="47.69388" lon="-2.22107">
        <ele>55.4</ele>
        <time>2021-05-27T14:35:22Z</time>
      </trkpt>
      <trkpt lat="47.69388" lon="-2.22107">
        <ele>55.4</ele>
        <time>2021-05-27T14:35:23Z</time>
      </trkpt>
      <trkpt lat="47.69388" lon="-2.22107">
        <ele>55.4</ele>
        <time>2021-05-27T14:35:24Z</time>
      </trkpt>
      <trkpt lat="47.69388" lon="-2.22107">
        <ele>55.4</ele>
        <time>2021-05-27T14:35:25Z</time>
      </trkpt>
      <trkpt lat="47.69388" lon="-2.22107">
        <ele>55.4</ele>
        <time>2021-05-27T14:35:26Z</time>
      </trkpt>
      <trkpt lat="47.69388" lon="-2.22107">
        <ele>55.4</ele>
        <time>2021-05-27T14:35:27Z</time>
      </trkpt>
      <trkpt lat="47.69388" lon="-2.22107">
        <ele>55.4</ele>
        <time>2021-05-27T14:35:28Z</time>
      </trkpt>
      <trkpt lat="47.69388" lon="-2.22107">
        <ele>55.4</ele>
        <time>2021-05-27T14:35:29Z</time>
      </trkpt>
      <trkpt lat="47.69388" lon="-2.22107">
        <ele>55.4</ele>
        <time>2021-05-27T14:35:30Z</time>
      </trkpt>
      <trkpt lat="47.69388" lon="-2.22107">
        <ele>55.4</ele>
        <time>2021-05-27T14:35:31Z</time>
      </trkpt>
      <trkpt lat="47.69388" lon="-2.22107">
        <ele>55.4</ele>
        <time>2021-05-27T14:35:32Z</time>
      </trkpt>
      <trkpt lat="47.69388" lon="-2.22107">
        <ele>55.4</ele>
        <time>2021-05-27T14:35:33Z</time>
      </trkpt>
      <trkpt lat="47.69388" lon="-2.22107">
        <ele>55.4</ele>
        <time>2021-05-27T14:35:34Z</time>
      </trkpt>
      <trkpt lat="47.69388" lon="-2.22107">
        <ele>55.4</ele>
        <time>2021-05-27T14:35:35Z</time>
      </trkpt>
      <trkpt lat="47.69388" lon="-2.22107">
        <ele>55.4</ele>
        <time>2021-05-27T14:35:36Z</time>
      </trkpt>
      <trkpt lat="47.69388" lon="-2.22107">
        <ele>55.4</ele>
        <time>2021-05-27T14:35:37Z</time>
      </trkpt>
      <trkpt lat="47.69388" lon="-2.22107">
        <ele>55.4</ele>
        <time>2021-05-27T14:35:38Z</time>
      </trkpt>
      <trkpt lat="47.6939" lon="-2.22116">
        <ele>55.7</ele>
        <time>2021-05-27T14:35:39Z</time>
      </trkpt>
      <trkpt lat="47.6939" lon="-2.22119">
        <ele>56</ele>
        <time>2021-05-27T14:35:40Z</time>
      </trkpt>
      <trkpt lat="47.6939" lon="-2.22124">
        <ele>56.3</ele>
        <time>2021-05-27T14:35:41Z</time>
      </trkpt>
      <trkpt lat="47.6939" lon="-2.22127">
        <ele>56.7</ele>
        <time>2021-05-27T14:35:42Z</time>
      </trkpt>
      <trkpt lat="47.6939" lon="-2.2213">
        <ele>56.8</ele>
        <time>2021-05-27T14:35:43Z</time>
      </trkpt>
      <trkpt lat="47.69391" lon="-2.22131">
        <ele>56.8</ele>
        <time>2021-05-27T14:35:44Z</time>
      </trkpt>
      <trkpt lat="47.69391" lon="-2.22131">
        <ele>56.9</ele>
        <time>2021-05-27T14:35:45Z</time>
      </trkpt>
      <trkpt lat="47.69391" lon="-2.22131">
        <ele>56.8</ele>
        <time>2021-05-27T14:35:46Z</time>
      </trkpt>
      <trkpt lat="47.69391" lon="-2.22131">
        <ele>56.8</ele>
        <time>2021-05-27T14:35:47Z</time>
      </trkpt>
      <trkpt lat="47.69391" lon="-2.22131">
        <ele>56.8</ele>
        <time>2021-05-27T14:35:48Z</time>
      </trkpt>
      <trkpt lat="47.69391" lon="-2.22131">
        <ele>56.8</ele>
        <time>2021-05-27T14:35:49Z</time>
      </trkpt>
      <trkpt lat="47.69391" lon="-2.22131">
        <ele>56.8</ele>
        <time>2021-05-27T14:35:50Z</time>
      </trkpt>
      <trkpt lat="47.69391" lon="-2.22131">
        <ele>56.8</ele>
        <time>2021-05-27T14:35:51Z</time>
      </trkpt>
      <trkpt lat="47.69391" lon="-2.22131">
        <ele>56.8</ele>
        <time>2021-05-27T14:35:52Z</time>
      </trkpt>
      <trkpt lat="47.69391" lon="-2.22131">
        <ele>56.8</ele>
        <time>2021-05-27T14:35:53Z</time>
      </trkpt>
      <trkpt lat="47.69391" lon="-2.22131">
        <ele>56.8</ele>
        <time>2021-05-27T14:35:54Z</time>
      </trkpt>
      <trkpt lat="47.69391" lon="-2.22131">
        <ele>56.8</ele>
        <time>2021-05-27T14:35:55Z</time>
      </trkpt>
      <trkpt lat="47.69391" lon="-2.22131">
        <ele>56.8</ele>
        <time>2021-05-27T14:35:56Z</time>
      </trkpt>
      <trkpt lat="47.69391" lon="-2.22131">
        <ele>56.8</ele>
        <time>2021-05-27T14:35:57Z</time>
      </trkpt>
      <trkpt lat="47.69391" lon="-2.22131">
        <ele>56.8</ele>
        <time>2021-05-27T14:35:58Z</time>
      </trkpt>
      <trkpt lat="47.69391" lon="-2.22131">
        <ele>56.8</ele>
        <time>2021-05-27T14:35:59Z</time>
      </trkpt>
      <trkpt lat="47.69391" lon="-2.22131">
        <ele>56.8</ele>
        <time>2021-05-27T14:36:00Z</time>
      </trkpt>
      <trkpt lat="47.69391" lon="-2.22131">
        <ele>56.8</ele>
        <time>2021-05-27T14:36:01Z</time>
      </trkpt>
      <trkpt lat="47.69391" lon="-2.22131">
        <ele>56.8</ele>
        <time>2021-05-27T14:36:02Z</time>
      </trkpt>
      <trkpt lat="47.69391" lon="-2.22131">
        <ele>56.8</ele>
        <time>2021-05-27T14:36:03Z</time>
      </trkpt>
      <trkpt lat="47.69391" lon="-2.22131">
        <ele>56.8</ele>
        <time>2021-05-27T14:36:04Z</time>
      </trkpt>
      <trkpt lat="47.69391" lon="-2.22131">
        <ele>56.8</ele>
        <time>2021-05-27T14:36:05Z</time>
      </trkpt>
      <trkpt lat="47.69391" lon="-2.22131">
        <ele>56.8</ele>
        <time>2021-05-27T14:36:06Z</time>
      </trkpt>
      <trkpt lat="47.69391" lon="-2.22134">
        <ele>57</ele>
        <time>2021-05-27T14:36:07Z</time>
      </trkpt>
      <trkpt lat="47.69392" lon="-2.22135">
        <ele>56.9</ele>
        <time>2021-05-27T14:36:08Z</time>
      </trkpt>
      <trkpt lat="47.69394" lon="-2.22134">
        <ele>56.4</ele>
        <time>2021-05-27T14:36:09Z</time>
      </trkpt>
      <trkpt lat="47.69396" lon="-2.22132">
        <ele>55.9</ele>
        <time>2021-05-27T14:36:10Z</time>
      </trkpt>
      <trkpt lat="47.69399" lon="-2.2213">
        <ele>55.3</ele>
        <time>2021-05-27T14:36:11Z</time>
      </trkpt>
      <trkpt lat="47.694" lon="-2.22126">
        <ele>54.7</ele>
        <time>2021-05-27T14:36:12Z</time>
      </trkpt>
      <trkpt lat="47.69401" lon="-2.22122">
        <ele>54.2</ele>
        <time>2021-05-27T14:36:13Z</time>
      </trkpt>
      <trkpt lat="47.69402" lon="-2.22118">
        <ele>53.6</ele>
        <time>2021-05-27T14:36:14Z</time>
      </trkpt>
      <trkpt lat="47.69404" lon="-2.2211">
        <ele>52.4</ele>
        <time>2021-05-27T14:36:15Z</time>
      </trkpt>
      <trkpt lat="47.69405" lon="-2.22102">
        <ele>51.4</ele>
        <time>2021-05-27T14:36:16Z</time>
      </trkpt>
      <trkpt lat="47.69407" lon="-2.22094">
        <ele>50.2</ele>
        <time>2021-05-27T14:36:17Z</time>
      </trkpt>
      <trkpt lat="47.69409" lon="-2.22087">
        <ele>49.1</ele>
        <time>2021-05-27T14:36:18Z</time>
      </trkpt>
      <trkpt lat="47.6941" lon="-2.22082">
        <ele>48.5</ele>
        <time>2021-05-27T14:36:19Z</time>
      </trkpt>
      <trkpt lat="47.6941" lon="-2.22079">
        <ele>48.3</ele>
        <time>2021-05-27T14:36:20Z</time>
      </trkpt>
      <trkpt lat="47.6941" lon="-2.22076">
        <ele>48</ele>
        <time>2021-05-27T14:36:21Z</time>
      </trkpt>
      <trkpt lat="47.6941" lon="-2.22073">
        <ele>47.9</ele>
        <time>2021-05-27T14:36:22Z</time>
      </trkpt>
      <trkpt lat="47.69409" lon="-2.22069">
        <ele>47.8</ele>
        <time>2021-05-27T14:36:23Z</time>
      </trkpt>
      <trkpt lat="47.69409" lon="-2.22065">
        <ele>47.8</ele>
        <time>2021-05-27T14:36:24Z</time>
      </trkpt>
      <trkpt lat="47.69407" lon="-2.22061">
        <ele>47.8</ele>
        <time>2021-05-27T14:36:25Z</time>
      </trkpt>
      <trkpt lat="47.69406" lon="-2.22056">
        <ele>47.9</ele>
        <time>2021-05-27T14:36:26Z</time>
      </trkpt>
      <trkpt lat="47.69403" lon="-2.22052">
        <ele>48.3</ele>
        <time>2021-05-27T14:36:27Z</time>
      </trkpt>
      <trkpt lat="47.69402" lon="-2.22049">
        <ele>48.4</ele>
        <time>2021-05-27T14:36:28Z</time>
      </trkpt>
      <trkpt lat="47.69401" lon="-2.22046">
        <ele>48.5</ele>
        <time>2021-05-27T14:36:29Z</time>
      </trkpt>
      <trkpt lat="47.694" lon="-2.22045">
        <ele>48.7</ele>
        <time>2021-05-27T14:36:30Z</time>
      </trkpt>
      <trkpt lat="47.69399" lon="-2.22043">
        <ele>48.9</ele>
        <time>2021-05-27T14:36:31Z</time>
      </trkpt>
      <trkpt lat="47.69398" lon="-2.2204">
        <ele>48.9</ele>
        <time>2021-05-27T14:36:32Z</time>
      </trkpt>
      <trkpt lat="47.69397" lon="-2.22038">
        <ele>49.1</ele>
        <time>2021-05-27T14:36:33Z</time>
      </trkpt>
      <trkpt lat="47.69395" lon="-2.22034">
        <ele>49.2</ele>
        <time>2021-05-27T14:36:34Z</time>
      </trkpt>
      <trkpt lat="47.69394" lon="-2.22032">
        <ele>49.4</ele>
        <time>2021-05-27T14:36:35Z</time>
      </trkpt>
      <trkpt lat="47.69394" lon="-2.2203">
        <ele>49.3</ele>
        <time>2021-05-27T14:36:36Z</time>
      </trkpt>
      <trkpt lat="47.69393" lon="-2.22026">
        <ele>49.2</ele>
        <time>2021-05-27T14:36:37Z</time>
      </trkpt>
      <trkpt lat="47.69393" lon="-2.22024">
        <ele>49.2</ele>
        <time>2021-05-27T14:36:38Z</time>
      </trkpt>
      <trkpt lat="47.69393" lon="-2.22024">
        <ele>49.3</ele>
        <time>2021-05-27T14:36:39Z</time>
      </trkpt>
      <trkpt lat="47.69392" lon="-2.22023">
        <ele>49.4</ele>
        <time>2021-05-27T14:36:40Z</time>
      </trkpt>
      <trkpt lat="47.69392" lon="-2.22023">
        <ele>49.4</ele>
        <time>2021-05-27T14:36:41Z</time>
      </trkpt>
      <trkpt lat="47.69392" lon="-2.22023">
        <ele>49.4</ele>
        <time>2021-05-27T14:36:42Z</time>
      </trkpt>
      <trkpt lat="47.69392" lon="-2.22019">
        <ele>49.3</ele>
        <time>2021-05-27T14:36:43Z</time>
      </trkpt>
      <trkpt lat="47.69392" lon="-2.22016">
        <ele>49.2</ele>
        <time>2021-05-27T14:36:44Z</time>
      </trkpt>
      <trkpt lat="47.69391" lon="-2.22013">
        <ele>49.2</ele>
        <time>2021-05-27T14:36:45Z</time>
      </trkpt>
      <trkpt lat="47.6939" lon="-2.2201">
        <ele>49.1</ele>
        <time>2021-05-27T14:36:46Z</time>
      </trkpt>
      <trkpt lat="47.69391" lon="-2.22008">
        <ele>48.9</ele>
        <time>2021-05-27T14:36:47Z</time>
      </trkpt>
      <trkpt lat="47.69392" lon="-2.22005">
        <ele>48.6</ele>
        <time>2021-05-27T14:36:48Z</time>
      </trkpt>
      <trkpt lat="47.69392" lon="-2.22001">
        <ele>48.2</ele>
        <time>2021-05-27T14:36:49Z</time>
      </trkpt>
      <trkpt lat="47.69394" lon="-2.21998">
        <ele>47.6</ele>
        <time>2021-05-27T14:36:50Z</time>
      </trkpt>
      <trkpt lat="47.69395" lon="-2.21993">
        <ele>47</ele>
        <time>2021-05-27T14:36:51Z</time>
      </trkpt>
      <trkpt lat="47.69395" lon="-2.21987">
        <ele>46.6</ele>
        <time>2021-05-27T14:36:52Z</time>
      </trkpt>
      <trkpt lat="47.69395" lon="-2.21982">
        <ele>46.1</ele>
        <time>2021-05-27T14:36:53Z</time>
      </trkpt>
      <trkpt lat="47.69394" lon="-2.21977">
        <ele>46</ele>
        <time>2021-05-27T14:36:54Z</time>
      </trkpt>
      <trkpt lat="47.69393" lon="-2.21973">
        <ele>45.8</ele>
        <time>2021-05-27T14:36:55Z</time>
      </trkpt>
      <trkpt lat="47.69392" lon="-2.21969">
        <ele>45.8</ele>
        <time>2021-05-27T14:36:56Z</time>
      </trkpt>
      <trkpt lat="47.69392" lon="-2.21964">
        <ele>45.5</ele>
        <time>2021-05-27T14:36:57Z</time>
      </trkpt>
      <trkpt lat="47.69392" lon="-2.21959">
        <ele>45</ele>
        <time>2021-05-27T14:36:58Z</time>
      </trkpt>
      <trkpt lat="47.69392" lon="-2.21954">
        <ele>44.6</ele>
        <time>2021-05-27T14:36:59Z</time>
      </trkpt>
      <trkpt lat="47.69392" lon="-2.21949">
        <ele>44.4</ele>
        <time>2021-05-27T14:37:00Z</time>
      </trkpt>
      <trkpt lat="47.69392" lon="-2.21945">
        <ele>44.2</ele>
        <time>2021-05-27T14:37:01Z</time>
      </trkpt>
      <trkpt lat="47.69392" lon="-2.21941">
        <ele>43.9</ele>
        <time>2021-05-27T14:37:02Z</time>
      </trkpt>
      <trkpt lat="47.69391" lon="-2.21935">
        <ele>43.5</ele>
        <time>2021-05-27T14:37:03Z</time>
      </trkpt>
      <trkpt lat="47.69391" lon="-2.21931">
        <ele>43.3</ele>
        <time>2021-05-27T14:37:04Z</time>
      </trkpt>
      <trkpt lat="47.6939" lon="-2.21926">
        <ele>43.2</ele>
        <time>2021-05-27T14:37:05Z</time>
      </trkpt>
      <trkpt lat="47.69389" lon="-2.21921">
        <ele>43.1</ele>
        <time>2021-05-27T14:37:06Z</time>
      </trkpt>
      <trkpt lat="47.69386" lon="-2.21916">
        <ele>44.1</ele>
        <time>2021-05-27T14:37:07Z</time>
      </trkpt>
      <trkpt lat="47.69383" lon="-2.21911">
        <ele>44.5</ele>
        <time>2021-05-27T14:37:08Z</time>
      </trkpt>
      <trkpt lat="47.69382" lon="-2.21907">
        <ele>44.5</ele>
        <time>2021-05-27T14:37:09Z</time>
      </trkpt>
      <trkpt lat="47.6938" lon="-2.21903">
        <ele>44.8</ele>
        <time>2021-05-27T14:37:10Z</time>
      </trkpt>
      <trkpt lat="47.69379" lon="-2.219">
        <ele>45.1</ele>
        <time>2021-05-27T14:37:11Z</time>
      </trkpt>
      <trkpt lat="47.69377" lon="-2.21895">
        <ele>45.5</ele>
        <time>2021-05-27T14:37:12Z</time>
      </trkpt>
      <trkpt lat="47.69375" lon="-2.21891">
        <ele>45.8</ele>
        <time>2021-05-27T14:37:13Z</time>
      </trkpt>
      <trkpt lat="47.69374" lon="-2.21886">
        <ele>45.8</ele>
        <time>2021-05-27T14:37:14Z</time>
      </trkpt>
      <trkpt lat="47.69373" lon="-2.21882">
        <ele>45.8</ele>
        <time>2021-05-27T14:37:15Z</time>
      </trkpt>
      <trkpt lat="47.69373" lon="-2.21877">
        <ele>45.4</ele>
        <time>2021-05-27T14:37:16Z</time>
      </trkpt>
      <trkpt lat="47.69372" lon="-2.21871">
        <ele>45.2</ele>
        <time>2021-05-27T14:37:17Z</time>
      </trkpt>
      <trkpt lat="47.69372" lon="-2.21865">
        <ele>44.9</ele>
        <time>2021-05-27T14:37:18Z</time>
      </trkpt>
      <trkpt lat="47.69372" lon="-2.21858">
        <ele>44.4</ele>
        <time>2021-05-27T14:37:19Z</time>
      </trkpt>
      <trkpt lat="47.6937" lon="-2.21852">
        <ele>44.4</ele>
        <time>2021-05-27T14:37:20Z</time>
      </trkpt>
      <trkpt lat="47.6937" lon="-2.21846">
        <ele>44.2</ele>
        <time>2021-05-27T14:37:21Z</time>
      </trkpt>
      <trkpt lat="47.69369" lon="-2.21842">
        <ele>44.2</ele>
        <time>2021-05-27T14:37:22Z</time>
      </trkpt>
      <trkpt lat="47.69368" lon="-2.21839">
        <ele>44.5</ele>
        <time>2021-05-27T14:37:23Z</time>
      </trkpt>
      <trkpt lat="47.69366" lon="-2.21837">
        <ele>45</ele>
        <time>2021-05-27T14:37:24Z</time>
      </trkpt>
      <trkpt lat="47.69365" lon="-2.21834">
        <ele>45.4</ele>
        <time>2021-05-27T14:37:25Z</time>
      </trkpt>
      <trkpt lat="47.69365" lon="-2.21832">
        <ele>45.3</ele>
        <time>2021-05-27T14:37:26Z</time>
      </trkpt>
      <trkpt lat="47.69365" lon="-2.2183">
        <ele>45.2</ele>
        <time>2021-05-27T14:37:27Z</time>
      </trkpt>
      <trkpt lat="47.69364" lon="-2.21827">
        <ele>45.2</ele>
        <time>2021-05-27T14:37:28Z</time>
      </trkpt>
      <trkpt lat="47.69363" lon="-2.21825">
        <ele>45.3</ele>
        <time>2021-05-27T14:37:29Z</time>
      </trkpt>
      <trkpt lat="47.69363" lon="-2.21822">
        <ele>45.2</ele>
        <time>2021-05-27T14:37:30Z</time>
      </trkpt>
      <trkpt lat="47.69363" lon="-2.2182">
        <ele>45</ele>
        <time>2021-05-27T14:37:31Z</time>
      </trkpt>
      <trkpt lat="47.69362" lon="-2.21816">
        <ele>44.7</ele>
        <time>2021-05-27T14:37:32Z</time>
      </trkpt>
      <trkpt lat="47.69362" lon="-2.21811">
        <ele>44.2</ele>
        <time>2021-05-27T14:37:33Z</time>
      </trkpt>
      <trkpt lat="47.69362" lon="-2.21808">
        <ele>44</ele>
        <time>2021-05-27T14:37:34Z</time>
      </trkpt>
      <trkpt lat="47.69362" lon="-2.21804">
        <ele>43.9</ele>
        <time>2021-05-27T14:37:35Z</time>
      </trkpt>
      <trkpt lat="47.69362" lon="-2.21802">
        <ele>43.5</ele>
        <time>2021-05-27T14:37:36Z</time>
      </trkpt>
      <trkpt lat="47.69362" lon="-2.21798">
        <ele>43.3</ele>
        <time>2021-05-27T14:37:37Z</time>
      </trkpt>
      <trkpt lat="47.69362" lon="-2.21794">
        <ele>42.9</ele>
        <time>2021-05-27T14:37:38Z</time>
      </trkpt>
      <trkpt lat="47.6936" lon="-2.21789">
        <ele>43</ele>
        <time>2021-05-27T14:37:39Z</time>
      </trkpt>
      <trkpt lat="47.69359" lon="-2.21784">
        <ele>43</ele>
        <time>2021-05-27T14:37:40Z</time>
      </trkpt>
      <trkpt lat="47.69359" lon="-2.2178">
        <ele>42.6</ele>
        <time>2021-05-27T14:37:41Z</time>
      </trkpt>
      <trkpt lat="47.69359" lon="-2.21776">
        <ele>42.3</ele>
        <time>2021-05-27T14:37:42Z</time>
      </trkpt>
      <trkpt lat="47.69359" lon="-2.21773">
        <ele>41.8</ele>
        <time>2021-05-27T14:37:43Z</time>
      </trkpt>
      <trkpt lat="47.6936" lon="-2.21768">
        <ele>41</ele>
        <time>2021-05-27T14:37:44Z</time>
      </trkpt>
      <trkpt lat="47.6936" lon="-2.21765">
        <ele>40.5</ele>
        <time>2021-05-27T14:37:45Z</time>
      </trkpt>
      <trkpt lat="47.69362" lon="-2.21762">
        <ele>39.5</ele>
        <time>2021-05-27T14:37:46Z</time>
      </trkpt>
      <trkpt lat="47.69362" lon="-2.21758">
        <ele>39.1</ele>
        <time>2021-05-27T14:37:47Z</time>
      </trkpt>
      <trkpt lat="47.69362" lon="-2.21753">
        <ele>38.5</ele>
        <time>2021-05-27T14:37:48Z</time>
      </trkpt>
      <trkpt lat="47.69363" lon="-2.21746">
        <ele>37.5</ele>
        <time>2021-05-27T14:37:49Z</time>
      </trkpt>
      <trkpt lat="47.69364" lon="-2.21738">
        <ele>36.6</ele>
        <time>2021-05-27T14:37:50Z</time>
      </trkpt>
      <trkpt lat="47.69365" lon="-2.2173">
        <ele>35.9</ele>
        <time>2021-05-27T14:37:51Z</time>
      </trkpt>
      <trkpt lat="47.69366" lon="-2.21723">
        <ele>35.1</ele>
        <time>2021-05-27T14:37:52Z</time>
      </trkpt>
      <trkpt lat="47.69366" lon="-2.21718">
        <ele>34.8</ele>
        <time>2021-05-27T14:37:53Z</time>
      </trkpt>
      <trkpt lat="47.69365" lon="-2.21714">
        <ele>35</ele>
        <time>2021-05-27T14:37:54Z</time>
      </trkpt>
      <trkpt lat="47.69363" lon="-2.2171">
        <ele>35.4</ele>
        <time>2021-05-27T14:37:55Z</time>
      </trkpt>
      <trkpt lat="47.6936" lon="-2.21706">
        <ele>36.4</ele>
        <time>2021-05-27T14:37:56Z</time>
      </trkpt>
      <trkpt lat="47.6936" lon="-2.21703">
        <ele>36.4</ele>
        <time>2021-05-27T14:37:57Z</time>
      </trkpt>
      <trkpt lat="47.6936" lon="-2.217">
        <ele>36.2</ele>
        <time>2021-05-27T14:37:58Z</time>
      </trkpt>
      <trkpt lat="47.69361" lon="-2.21695">
        <ele>35.5</ele>
        <time>2021-05-27T14:37:59Z</time>
      </trkpt>
      <trkpt lat="47.69362" lon="-2.21691">
        <ele>34.9</ele>
        <time>2021-05-27T14:38:00Z</time>
      </trkpt>
      <trkpt lat="47.69362" lon="-2.21686">
        <ele>34.3</ele>
        <time>2021-05-27T14:38:01Z</time>
      </trkpt>
      <trkpt lat="47.69363" lon="-2.21681">
        <ele>33.9</ele>
        <time>2021-05-27T14:38:02Z</time>
      </trkpt>
      <trkpt lat="47.69363" lon="-2.21675">
        <ele>33.4</ele>
        <time>2021-05-27T14:38:03Z</time>
      </trkpt>
      <trkpt lat="47.69364" lon="-2.21669">
        <ele>32.7</ele>
        <time>2021-05-27T14:38:04Z</time>
      </trkpt>
      <trkpt lat="47.69365" lon="-2.21662">
        <ele>32</ele>
        <time>2021-05-27T14:38:05Z</time>
      </trkpt>
      <trkpt lat="47.69367" lon="-2.21655">
        <ele>31.1</ele>
        <time>2021-05-27T14:38:06Z</time>
      </trkpt>
      <trkpt lat="47.69368" lon="-2.21648">
        <ele>30.6</ele>
        <time>2021-05-27T14:38:07Z</time>
      </trkpt>
      <trkpt lat="47.69369" lon="-2.21638">
        <ele>30</ele>
        <time>2021-05-27T14:38:08Z</time>
      </trkpt>
      <trkpt lat="47.6937" lon="-2.21631">
        <ele>29.5</ele>
        <time>2021-05-27T14:38:09Z</time>
      </trkpt>
      <trkpt lat="47.69371" lon="-2.21622">
        <ele>29</ele>
        <time>2021-05-27T14:38:10Z</time>
      </trkpt>
      <trkpt lat="47.69372" lon="-2.21615">
        <ele>28.5</ele>
        <time>2021-05-27T14:38:11Z</time>
      </trkpt>
      <trkpt lat="47.69372" lon="-2.21607">
        <ele>28.3</ele>
        <time>2021-05-27T14:38:12Z</time>
      </trkpt>
      <trkpt lat="47.69373" lon="-2.216">
        <ele>28.1</ele>
        <time>2021-05-27T14:38:13Z</time>
      </trkpt>
      <trkpt lat="47.69373" lon="-2.21595">
        <ele>28</ele>
        <time>2021-05-27T14:38:14Z</time>
      </trkpt>
      <trkpt lat="47.69375" lon="-2.2159">
        <ele>27</ele>
        <time>2021-05-27T14:38:15Z</time>
      </trkpt>
      <trkpt lat="47.69377" lon="-2.21584">
        <ele>26.1</ele>
        <time>2021-05-27T14:38:16Z</time>
      </trkpt>
      <trkpt lat="47.69379" lon="-2.21579">
        <ele>25.2</ele>
        <time>2021-05-27T14:38:17Z</time>
      </trkpt>
      <trkpt lat="47.69381" lon="-2.21575">
        <ele>24.5</ele>
        <time>2021-05-27T14:38:18Z</time>
      </trkpt>
      <trkpt lat="47.69382" lon="-2.21571">
        <ele>24.1</ele>
        <time>2021-05-27T14:38:19Z</time>
      </trkpt>
      <trkpt lat="47.69383" lon="-2.21567">
        <ele>24</ele>
        <time>2021-05-27T14:38:20Z</time>
      </trkpt>
      <trkpt lat="47.69382" lon="-2.21562">
        <ele>24.1</ele>
        <time>2021-05-27T14:38:21Z</time>
      </trkpt>
      <trkpt lat="47.69382" lon="-2.21558">
        <ele>24.4</ele>
        <time>2021-05-27T14:38:22Z</time>
      </trkpt>
      <trkpt lat="47.69382" lon="-2.21554">
        <ele>24.6</ele>
        <time>2021-05-27T14:38:23Z</time>
      </trkpt>
      <trkpt lat="47.69381" lon="-2.2155">
        <ele>24.8</ele>
        <time>2021-05-27T14:38:24Z</time>
      </trkpt>
      <trkpt lat="47.69382" lon="-2.21546">
        <ele>24.6</ele>
        <time>2021-05-27T14:38:25Z</time>
      </trkpt>
      <trkpt lat="47.69382" lon="-2.21542">
        <ele>24.3</ele>
        <time>2021-05-27T14:38:26Z</time>
      </trkpt>
      <trkpt lat="47.69384" lon="-2.21538">
        <ele>23.8</ele>
        <time>2021-05-27T14:38:27Z</time>
      </trkpt>
      <trkpt lat="47.69385" lon="-2.21533">
        <ele>23.6</ele>
        <time>2021-05-27T14:38:28Z</time>
      </trkpt>
      <trkpt lat="47.69385" lon="-2.21528">
        <ele>23.6</ele>
        <time>2021-05-27T14:38:29Z</time>
      </trkpt>
      <trkpt lat="47.69384" lon="-2.21523">
        <ele>23.9</ele>
        <time>2021-05-27T14:38:30Z</time>
      </trkpt>
      <trkpt lat="47.69383" lon="-2.21518">
        <ele>24.2</ele>
        <time>2021-05-27T14:38:31Z</time>
      </trkpt>
      <trkpt lat="47.69383" lon="-2.21513">
        <ele>24.5</ele>
        <time>2021-05-27T14:38:32Z</time>
      </trkpt>
      <trkpt lat="47.69381" lon="-2.21509">
        <ele>25.2</ele>
        <time>2021-05-27T14:38:33Z</time>
      </trkpt>
      <trkpt lat="47.6938" lon="-2.21503">
        <ele>25.5</ele>
        <time>2021-05-27T14:38:34Z</time>
      </trkpt>
      <trkpt lat="47.6938" lon="-2.21498">
        <ele>25.7</ele>
        <time>2021-05-27T14:38:35Z</time>
      </trkpt>
      <trkpt lat="47.69379" lon="-2.21493">
        <ele>25.6</ele>
        <time>2021-05-27T14:38:36Z</time>
      </trkpt>
      <trkpt lat="47.69378" lon="-2.21489">
        <ele>25.7</ele>
        <time>2021-05-27T14:38:37Z</time>
      </trkpt>
      <trkpt lat="47.69377" lon="-2.21483">
        <ele>25.8</ele>
        <time>2021-05-27T14:38:38Z</time>
      </trkpt>
      <trkpt lat="47.69377" lon="-2.21477">
        <ele>25.7</ele>
        <time>2021-05-27T14:38:39Z</time>
      </trkpt>
      <trkpt lat="47.69376" lon="-2.2147">
        <ele>25.6</ele>
        <time>2021-05-27T14:38:40Z</time>
      </trkpt>
      <trkpt lat="47.69376" lon="-2.21464">
        <ele>25.5</ele>
        <time>2021-05-27T14:38:41Z</time>
      </trkpt>
      <trkpt lat="47.69376" lon="-2.21458">
        <ele>25.3</ele>
        <time>2021-05-27T14:38:42Z</time>
      </trkpt>
      <trkpt lat="47.69375" lon="-2.21454">
        <ele>25.3</ele>
        <time>2021-05-27T14:38:43Z</time>
      </trkpt>
      <trkpt lat="47.69375" lon="-2.21448">
        <ele>25.1</ele>
        <time>2021-05-27T14:38:44Z</time>
      </trkpt>
      <trkpt lat="47.69374" lon="-2.21443">
        <ele>25</ele>
        <time>2021-05-27T14:38:45Z</time>
      </trkpt>
      <trkpt lat="47.69374" lon="-2.21436">
        <ele>24.9</ele>
        <time>2021-05-27T14:38:46Z</time>
      </trkpt>
      <trkpt lat="47.69373" lon="-2.2143">
        <ele>24.9</ele>
        <time>2021-05-27T14:38:47Z</time>
      </trkpt>
      <trkpt lat="47.69373" lon="-2.21424">
        <ele>24.7</ele>
        <time>2021-05-27T14:38:48Z</time>
      </trkpt>
      <trkpt lat="47.69371" lon="-2.21417">
        <ele>25.1</ele>
        <time>2021-05-27T14:38:49Z</time>
      </trkpt>
      <trkpt lat="47.69369" lon="-2.2141">
        <ele>25.1</ele>
        <time>2021-05-27T14:38:50Z</time>
      </trkpt>
      <trkpt lat="47.69368" lon="-2.21404">
        <ele>25</ele>
        <time>2021-05-27T14:38:51Z</time>
      </trkpt>
      <trkpt lat="47.69367" lon="-2.21398">
        <ele>24.9</ele>
        <time>2021-05-27T14:38:52Z</time>
      </trkpt>
      <trkpt lat="47.69367" lon="-2.21392">
        <ele>24.7</ele>
        <time>2021-05-27T14:38:53Z</time>
      </trkpt>
      <trkpt lat="47.69366" lon="-2.21386">
        <ele>24.4</ele>
        <time>2021-05-27T14:38:54Z</time>
      </trkpt>
      <trkpt lat="47.69366" lon="-2.21381">
        <ele>24.1</ele>
        <time>2021-05-27T14:38:55Z</time>
      </trkpt>
      <trkpt lat="47.69366" lon="-2.21375">
        <ele>23.6</ele>
        <time>2021-05-27T14:38:56Z</time>
      </trkpt>
      <trkpt lat="47.69366" lon="-2.21369">
        <ele>23.2</ele>
        <time>2021-05-27T14:38:57Z</time>
      </trkpt>
      <trkpt lat="47.69366" lon="-2.21364">
        <ele>22.8</ele>
        <time>2021-05-27T14:38:58Z</time>
      </trkpt>
      <trkpt lat="47.69365" lon="-2.21358">
        <ele>22.5</ele>
        <time>2021-05-27T14:38:59Z</time>
      </trkpt>
      <trkpt lat="47.69365" lon="-2.21352">
        <ele>22.3</ele>
        <time>2021-05-27T14:39:00Z</time>
      </trkpt>
      <trkpt lat="47.69364" lon="-2.21346">
        <ele>22.1</ele>
        <time>2021-05-27T14:39:01Z</time>
      </trkpt>
      <trkpt lat="47.69363" lon="-2.2134">
        <ele>21.8</ele>
        <time>2021-05-27T14:39:02Z</time>
      </trkpt>
      <trkpt lat="47.69363" lon="-2.21334">
        <ele>21.3</ele>
        <time>2021-05-27T14:39:03Z</time>
      </trkpt>
      <trkpt lat="47.69363" lon="-2.21328">
        <ele>21.4</ele>
        <time>2021-05-27T14:39:04Z</time>
      </trkpt>
      <trkpt lat="47.69362" lon="-2.21322">
        <ele>21.7</ele>
        <time>2021-05-27T14:39:05Z</time>
      </trkpt>
      <trkpt lat="47.6936" lon="-2.21316">
        <ele>22</ele>
        <time>2021-05-27T14:39:06Z</time>
      </trkpt>
      <trkpt lat="47.69359" lon="-2.21311">
        <ele>22.3</ele>
        <time>2021-05-27T14:39:07Z</time>
      </trkpt>
      <trkpt lat="47.69359" lon="-2.21305">
        <ele>22.4</ele>
        <time>2021-05-27T14:39:08Z</time>
      </trkpt>
      <trkpt lat="47.69357" lon="-2.213">
        <ele>22.7</ele>
        <time>2021-05-27T14:39:09Z</time>
      </trkpt>
      <trkpt lat="47.69357" lon="-2.21294">
        <ele>22.9</ele>
        <time>2021-05-27T14:39:10Z</time>
      </trkpt>
      <trkpt lat="47.69356" lon="-2.2129">
        <ele>22.9</ele>
        <time>2021-05-27T14:39:11Z</time>
      </trkpt>
      <trkpt lat="47.69356" lon="-2.21285">
        <ele>23.1</ele>
        <time>2021-05-27T14:39:12Z</time>
      </trkpt>
      <trkpt lat="47.69355" lon="-2.2128">
        <ele>23.3</ele>
        <time>2021-05-27T14:39:13Z</time>
      </trkpt>
      <trkpt lat="47.69354" lon="-2.21274">
        <ele>23.4</ele>
        <time>2021-05-27T14:39:14Z</time>
      </trkpt>
      <trkpt lat="47.69353" lon="-2.21268">
        <ele>23.5</ele>
        <time>2021-05-27T14:39:15Z</time>
      </trkpt>
      <trkpt lat="47.69353" lon="-2.21263">
        <ele>23.6</ele>
        <time>2021-05-27T14:39:16Z</time>
      </trkpt>
      <trkpt lat="47.69352" lon="-2.21257">
        <ele>23.7</ele>
        <time>2021-05-27T14:39:17Z</time>
      </trkpt>
      <trkpt lat="47.6935" lon="-2.21252">
        <ele>24.2</ele>
        <time>2021-05-27T14:39:18Z</time>
      </trkpt>
      <trkpt lat="47.69348" lon="-2.21248">
        <ele>24.6</ele>
        <time>2021-05-27T14:39:19Z</time>
      </trkpt>
      <trkpt lat="47.69348" lon="-2.21243">
        <ele>24.4</ele>
        <time>2021-05-27T14:39:20Z</time>
      </trkpt>
      <trkpt lat="47.69347" lon="-2.21237">
        <ele>24.2</ele>
        <time>2021-05-27T14:39:21Z</time>
      </trkpt>
      <trkpt lat="47.69346" lon="-2.21231">
        <ele>24.3</ele>
        <time>2021-05-27T14:39:22Z</time>
      </trkpt>
      <trkpt lat="47.69344" lon="-2.21225">
        <ele>24.3</ele>
        <time>2021-05-27T14:39:23Z</time>
      </trkpt>
      <trkpt lat="47.69343" lon="-2.21219">
        <ele>24.2</ele>
        <time>2021-05-27T14:39:24Z</time>
      </trkpt>
      <trkpt lat="47.69342" lon="-2.21213">
        <ele>24.1</ele>
        <time>2021-05-27T14:39:25Z</time>
      </trkpt>
      <trkpt lat="47.6934" lon="-2.21207">
        <ele>24.1</ele>
        <time>2021-05-27T14:39:26Z</time>
      </trkpt>
      <trkpt lat="47.6934" lon="-2.21201">
        <ele>23.8</ele>
        <time>2021-05-27T14:39:27Z</time>
      </trkpt>
      <trkpt lat="47.6934" lon="-2.21195">
        <ele>23.5</ele>
        <time>2021-05-27T14:39:28Z</time>
      </trkpt>
      <trkpt lat="47.69339" lon="-2.21189">
        <ele>23.2</ele>
        <time>2021-05-27T14:39:29Z</time>
      </trkpt>
      <trkpt lat="47.69339" lon="-2.21183">
        <ele>23</ele>
        <time>2021-05-27T14:39:30Z</time>
      </trkpt>
      <trkpt lat="47.69338" lon="-2.21178">
        <ele>22.7</ele>
        <time>2021-05-27T14:39:31Z</time>
      </trkpt>
      <trkpt lat="47.69337" lon="-2.21172">
        <ele>22.4</ele>
        <time>2021-05-27T14:39:32Z</time>
      </trkpt>
      <trkpt lat="47.69337" lon="-2.21167">
        <ele>22.1</ele>
        <time>2021-05-27T14:39:33Z</time>
      </trkpt>
      <trkpt lat="47.69337" lon="-2.21162">
        <ele>22</ele>
        <time>2021-05-27T14:39:34Z</time>
      </trkpt>
      <trkpt lat="47.69337" lon="-2.21156">
        <ele>22</ele>
        <time>2021-05-27T14:39:35Z</time>
      </trkpt>
      <trkpt lat="47.69337" lon="-2.2115">
        <ele>21.9</ele>
        <time>2021-05-27T14:39:36Z</time>
      </trkpt>
      <trkpt lat="47.69336" lon="-2.21144">
        <ele>21.8</ele>
        <time>2021-05-27T14:39:37Z</time>
      </trkpt>
      <trkpt lat="47.69337" lon="-2.21139">
        <ele>21.6</ele>
        <time>2021-05-27T14:39:38Z</time>
      </trkpt>
      <trkpt lat="47.69336" lon="-2.21133">
        <ele>21.5</ele>
        <time>2021-05-27T14:39:39Z</time>
      </trkpt>
      <trkpt lat="47.69336" lon="-2.21128">
        <ele>21.6</ele>
        <time>2021-05-27T14:39:40Z</time>
      </trkpt>
      <trkpt lat="47.69335" lon="-2.21123">
        <ele>21.6</ele>
        <time>2021-05-27T14:39:41Z</time>
      </trkpt>
      <trkpt lat="47.69335" lon="-2.21118">
        <ele>21.5</ele>
        <time>2021-05-27T14:39:42Z</time>
      </trkpt>
      <trkpt lat="47.69335" lon="-2.21113">
        <ele>21.4</ele>
        <time>2021-05-27T14:39:43Z</time>
      </trkpt>
      <trkpt lat="47.69334" lon="-2.21107">
        <ele>21.4</ele>
        <time>2021-05-27T14:39:44Z</time>
      </trkpt>
      <trkpt lat="47.69334" lon="-2.21102">
        <ele>21.3</ele>
        <time>2021-05-27T14:39:45Z</time>
      </trkpt>
      <trkpt lat="47.69334" lon="-2.21097">
        <ele>21.3</ele>
        <time>2021-05-27T14:39:46Z</time>
      </trkpt>
      <trkpt lat="47.69333" lon="-2.21093">
        <ele>21.2</ele>
        <time>2021-05-27T14:39:47Z</time>
      </trkpt>
      <trkpt lat="47.69333" lon="-2.21089">
        <ele>21.3</ele>
        <time>2021-05-27T14:39:48Z</time>
      </trkpt>
      <trkpt lat="47.69332" lon="-2.21084">
        <ele>21.5</ele>
        <time>2021-05-27T14:39:49Z</time>
      </trkpt>
      <trkpt lat="47.69332" lon="-2.21078">
        <ele>21.4</ele>
        <time>2021-05-27T14:39:50Z</time>
      </trkpt>
      <trkpt lat="47.69332" lon="-2.21073">
        <ele>21.4</ele>
        <time>2021-05-27T14:39:51Z</time>
      </trkpt>
      <trkpt lat="47.69331" lon="-2.21068">
        <ele>21.5</ele>
        <time>2021-05-27T14:39:52Z</time>
      </trkpt>
      <trkpt lat="47.6933" lon="-2.21062">
        <ele>21.8</ele>
        <time>2021-05-27T14:39:53Z</time>
      </trkpt>
      <trkpt lat="47.69328" lon="-2.21056">
        <ele>22.3</ele>
        <time>2021-05-27T14:39:54Z</time>
      </trkpt>
      <trkpt lat="47.69327" lon="-2.21051">
        <ele>22.6</ele>
        <time>2021-05-27T14:39:55Z</time>
      </trkpt>
      <trkpt lat="47.69326" lon="-2.21047">
        <ele>22.9</ele>
        <time>2021-05-27T14:39:56Z</time>
      </trkpt>
      <trkpt lat="47.69324" lon="-2.21044">
        <ele>23.5</ele>
        <time>2021-05-27T14:39:57Z</time>
      </trkpt>
      <trkpt lat="47.69323" lon="-2.2104">
        <ele>23.7</ele>
        <time>2021-05-27T14:39:58Z</time>
      </trkpt>
      <trkpt lat="47.69323" lon="-2.21039">
        <ele>23.8</ele>
        <time>2021-05-27T14:39:59Z</time>
      </trkpt>
      <trkpt lat="47.69323" lon="-2.21038">
        <ele>23.8</ele>
        <time>2021-05-27T14:40:00Z</time>
      </trkpt>
      <trkpt lat="47.69323" lon="-2.21038">
        <ele>23.8</ele>
        <time>2021-05-27T14:40:01Z</time>
      </trkpt>
      <trkpt lat="47.69323" lon="-2.21038">
        <ele>23.8</ele>
        <time>2021-05-27T14:40:02Z</time>
      </trkpt>
      <trkpt lat="47.69323" lon="-2.21038">
        <ele>23.8</ele>
        <time>2021-05-27T14:40:03Z</time>
      </trkpt>
      <trkpt lat="47.69323" lon="-2.21038">
        <ele>23.8</ele>
        <time>2021-05-27T14:40:04Z</time>
      </trkpt>
      <trkpt lat="47.69323" lon="-2.21038">
        <ele>23.8</ele>
        <time>2021-05-27T14:40:05Z</time>
      </trkpt>
      <trkpt lat="47.69323" lon="-2.21038">
        <ele>23.8</ele>
        <time>2021-05-27T14:40:06Z</time>
      </trkpt>
      <trkpt lat="47.69323" lon="-2.21038">
        <ele>23.8</ele>
        <time>2021-05-27T14:40:07Z</time>
      </trkpt>
      <trkpt lat="47.69323" lon="-2.21038">
        <ele>23.8</ele>
        <time>2021-05-27T14:40:08Z</time>
      </trkpt>
      <trkpt lat="47.69323" lon="-2.21038">
        <ele>23.8</ele>
        <time>2021-05-27T14:40:09Z</time>
      </trkpt>
      <trkpt lat="47.6932" lon="-2.21043">
        <ele>25.2</ele>
        <time>2021-05-27T14:40:10Z</time>
      </trkpt>
      <trkpt lat="47.69318" lon="-2.21046">
        <ele>25.9</ele>
        <time>2021-05-27T14:40:11Z</time>
      </trkpt>
      <trkpt lat="47.69317" lon="-2.21047">
        <ele>26.3</ele>
        <time>2021-05-27T14:40:12Z</time>
      </trkpt>
      <trkpt lat="47.69316" lon="-2.21049">
        <ele>26.5</ele>
        <time>2021-05-27T14:40:13Z</time>
      </trkpt>
      <trkpt lat="47.69316" lon="-2.2105">
        <ele>26.8</ele>
        <time>2021-05-27T14:40:14Z</time>
      </trkpt>
      <trkpt lat="47.69314" lon="-2.21052">
        <ele>27.3</ele>
        <time>2021-05-27T14:40:15Z</time>
      </trkpt>
      <trkpt lat="47.69314" lon="-2.21054">
        <ele>27.6</ele>
        <time>2021-05-27T14:40:16Z</time>
      </trkpt>
      <trkpt lat="47.69313" lon="-2.21055">
        <ele>27.8</ele>
        <time>2021-05-27T14:40:17Z</time>
      </trkpt>
      <trkpt lat="47.69311" lon="-2.21057">
        <ele>28.6</ele>
        <time>2021-05-27T14:40:18Z</time>
      </trkpt>
      <trkpt lat="47.69311" lon="-2.21059">
        <ele>28.8</ele>
        <time>2021-05-27T14:40:19Z</time>
      </trkpt>
      <trkpt lat="47.6931" lon="-2.21061">
        <ele>29</ele>
        <time>2021-05-27T14:40:20Z</time>
      </trkpt>
      <trkpt lat="47.69311" lon="-2.21063">
        <ele>29</ele>
        <time>2021-05-27T14:40:21Z</time>
      </trkpt>
      <trkpt lat="47.6931" lon="-2.21065">
        <ele>29.1</ele>
        <time>2021-05-27T14:40:22Z</time>
      </trkpt>
      <trkpt lat="47.69309" lon="-2.2107">
        <ele>29.6</ele>
        <time>2021-05-27T14:40:24Z</time>
      </trkpt>
      <trkpt lat="47.69309" lon="-2.21073">
        <ele>29.9</ele>
        <time>2021-05-27T14:40:25Z</time>
      </trkpt>
      <trkpt lat="47.69308" lon="-2.21075">
        <ele>30.2</ele>
        <time>2021-05-27T14:40:26Z</time>
      </trkpt>
      <trkpt lat="47.69307" lon="-2.21078">
        <ele>30.6</ele>
        <time>2021-05-27T14:40:27Z</time>
      </trkpt>
      <trkpt lat="47.69307" lon="-2.2108">
        <ele>30.9</ele>
        <time>2021-05-27T14:40:28Z</time>
      </trkpt>
      <trkpt lat="47.69305" lon="-2.21082">
        <ele>31.4</ele>
        <time>2021-05-27T14:40:29Z</time>
      </trkpt>
      <trkpt lat="47.69305" lon="-2.21084">
        <ele>31.6</ele>
        <time>2021-05-27T14:40:30Z</time>
      </trkpt>
      <trkpt lat="47.69304" lon="-2.21087">
        <ele>32</ele>
        <time>2021-05-27T14:40:31Z</time>
      </trkpt>
      <trkpt lat="47.69304" lon="-2.21089">
        <ele>32.1</ele>
        <time>2021-05-27T14:40:32Z</time>
      </trkpt>
      <trkpt lat="47.69303" lon="-2.21091">
        <ele>32.3</ele>
        <time>2021-05-27T14:40:33Z</time>
      </trkpt>
      <trkpt lat="47.69303" lon="-2.21093">
        <ele>32.5</ele>
        <time>2021-05-27T14:40:34Z</time>
      </trkpt>
      <trkpt lat="47.69303" lon="-2.21095">
        <ele>32.6</ele>
        <time>2021-05-27T14:40:35Z</time>
      </trkpt>
      <trkpt lat="47.69302" lon="-2.21097">
        <ele>33</ele>
        <time>2021-05-27T14:40:36Z</time>
      </trkpt>
      <trkpt lat="47.69301" lon="-2.21099">
        <ele>33.4</ele>
        <time>2021-05-27T14:40:37Z</time>
      </trkpt>
      <trkpt lat="47.693" lon="-2.21101">
        <ele>33.8</ele>
        <time>2021-05-27T14:40:38Z</time>
      </trkpt>
      <trkpt lat="47.693" lon="-2.21103">
        <ele>33.9</ele>
        <time>2021-05-27T14:40:39Z</time>
      </trkpt>
      <trkpt lat="47.693" lon="-2.21105">
        <ele>34</ele>
        <time>2021-05-27T14:40:40Z</time>
      </trkpt>
      <trkpt lat="47.693" lon="-2.21107">
        <ele>34.1</ele>
        <time>2021-05-27T14:40:41Z</time>
      </trkpt>
      <trkpt lat="47.693" lon="-2.2111">
        <ele>34.2</ele>
        <time>2021-05-27T14:40:42Z</time>
      </trkpt>
      <trkpt lat="47.69299" lon="-2.21113">
        <ele>34.4</ele>
        <time>2021-05-27T14:40:43Z</time>
      </trkpt>
      <trkpt lat="47.69299" lon="-2.21116">
        <ele>34.5</ele>
        <time>2021-05-27T14:40:44Z</time>
      </trkpt>
      <trkpt lat="47.69299" lon="-2.21118">
        <ele>34.5</ele>
        <time>2021-05-27T14:40:45Z</time>
      </trkpt>
      <trkpt lat="47.69299" lon="-2.2112">
        <ele>34.7</ele>
        <time>2021-05-27T14:40:46Z</time>
      </trkpt>
      <trkpt lat="47.69299" lon="-2.21123">
        <ele>34.8</ele>
        <time>2021-05-27T14:40:47Z</time>
      </trkpt>
      <trkpt lat="47.69299" lon="-2.21126">
        <ele>34.7</ele>
        <time>2021-05-27T14:40:48Z</time>
      </trkpt>
      <trkpt lat="47.693" lon="-2.2113">
        <ele>34.6</ele>
        <time>2021-05-27T14:40:49Z</time>
      </trkpt>
      <trkpt lat="47.693" lon="-2.21132">
        <ele>34.6</ele>
        <time>2021-05-27T14:40:50Z</time>
      </trkpt>
      <trkpt lat="47.693" lon="-2.21135">
        <ele>34.6</ele>
        <time>2021-05-27T14:40:51Z</time>
      </trkpt>
      <trkpt lat="47.693" lon="-2.21137">
        <ele>34.7</ele>
        <time>2021-05-27T14:40:52Z</time>
      </trkpt>
      <trkpt lat="47.693" lon="-2.21141">
        <ele>34.8</ele>
        <time>2021-05-27T14:40:53Z</time>
      </trkpt>
      <trkpt lat="47.69299" lon="-2.21144">
        <ele>35.2</ele>
        <time>2021-05-27T14:40:54Z</time>
      </trkpt>
      <trkpt lat="47.69299" lon="-2.21147">
        <ele>35.3</ele>
        <time>2021-05-27T14:40:55Z</time>
      </trkpt>
      <trkpt lat="47.69299" lon="-2.2115">
        <ele>35.4</ele>
        <time>2021-05-27T14:40:56Z</time>
      </trkpt>
      <trkpt lat="47.69299" lon="-2.21154">
        <ele>35.5</ele>
        <time>2021-05-27T14:40:57Z</time>
      </trkpt>
      <trkpt lat="47.69298" lon="-2.21157">
        <ele>35.8</ele>
        <time>2021-05-27T14:40:58Z</time>
      </trkpt>
      <trkpt lat="47.69299" lon="-2.2116">
        <ele>35.6</ele>
        <time>2021-05-27T14:40:59Z</time>
      </trkpt>
      <trkpt lat="47.69299" lon="-2.21164">
        <ele>35.8</ele>
        <time>2021-05-27T14:41:00Z</time>
      </trkpt>
      <trkpt lat="47.69299" lon="-2.21167">
        <ele>35.7</ele>
        <time>2021-05-27T14:41:01Z</time>
      </trkpt>
      <trkpt lat="47.69299" lon="-2.2117">
        <ele>36.1</ele>
        <time>2021-05-27T14:41:02Z</time>
      </trkpt>
      <trkpt lat="47.69299" lon="-2.21174">
        <ele>36.2</ele>
        <time>2021-05-27T14:41:03Z</time>
      </trkpt>
      <trkpt lat="47.69299" lon="-2.21177">
        <ele>36.4</ele>
        <time>2021-05-27T14:41:04Z</time>
      </trkpt>
      <trkpt lat="47.693" lon="-2.21181">
        <ele>36.3</ele>
        <time>2021-05-27T14:41:05Z</time>
      </trkpt>
      <trkpt lat="47.69301" lon="-2.21185">
        <ele>36</ele>
        <time>2021-05-27T14:41:06Z</time>
      </trkpt>
      <trkpt lat="47.69303" lon="-2.21189">
        <ele>35.9</ele>
        <time>2021-05-27T14:41:07Z</time>
      </trkpt>
      <trkpt lat="47.69304" lon="-2.21192">
        <ele>35.7</ele>
        <time>2021-05-27T14:41:08Z</time>
      </trkpt>
      <trkpt lat="47.69304" lon="-2.21196">
        <ele>35.9</ele>
        <time>2021-05-27T14:41:09Z</time>
      </trkpt>
      <trkpt lat="47.69304" lon="-2.21198">
        <ele>35.9</ele>
        <time>2021-05-27T14:41:10Z</time>
      </trkpt>
      <trkpt lat="47.69304" lon="-2.21203">
        <ele>36.2</ele>
        <time>2021-05-27T14:41:11Z</time>
      </trkpt>
      <trkpt lat="47.69304" lon="-2.21207">
        <ele>36.3</ele>
        <time>2021-05-27T14:41:12Z</time>
      </trkpt>
      <trkpt lat="47.69304" lon="-2.2121">
        <ele>36.7</ele>
        <time>2021-05-27T14:41:13Z</time>
      </trkpt>
      <trkpt lat="47.69304" lon="-2.21213">
        <ele>37</ele>
        <time>2021-05-27T14:41:14Z</time>
      </trkpt>
      <trkpt lat="47.69304" lon="-2.21216">
        <ele>37.1</ele>
        <time>2021-05-27T14:41:15Z</time>
      </trkpt>
      <trkpt lat="47.69304" lon="-2.21219">
        <ele>37.3</ele>
        <time>2021-05-27T14:41:16Z</time>
      </trkpt>
      <trkpt lat="47.69303" lon="-2.21222">
        <ele>37.7</ele>
        <time>2021-05-27T14:41:17Z</time>
      </trkpt>
      <trkpt lat="47.69303" lon="-2.21225">
        <ele>37.9</ele>
        <time>2021-05-27T14:41:18Z</time>
      </trkpt>
      <trkpt lat="47.69303" lon="-2.21228">
        <ele>38.2</ele>
        <time>2021-05-27T14:41:19Z</time>
      </trkpt>
      <trkpt lat="47.69303" lon="-2.2123">
        <ele>38.5</ele>
        <time>2021-05-27T14:41:20Z</time>
      </trkpt>
      <trkpt lat="47.69303" lon="-2.21232">
        <ele>38.6</ele>
        <time>2021-05-27T14:41:21Z</time>
      </trkpt>
      <trkpt lat="47.69303" lon="-2.21235">
        <ele>38.5</ele>
        <time>2021-05-27T14:41:22Z</time>
      </trkpt>
      <trkpt lat="47.69303" lon="-2.21237">
        <ele>38.6</ele>
        <time>2021-05-27T14:41:23Z</time>
      </trkpt>
      <trkpt lat="47.69303" lon="-2.2124">
        <ele>38.8</ele>
        <time>2021-05-27T14:41:24Z</time>
      </trkpt>
      <trkpt lat="47.69303" lon="-2.21243">
        <ele>39</ele>
        <time>2021-05-27T14:41:25Z</time>
      </trkpt>
      <trkpt lat="47.69303" lon="-2.21246">
        <ele>39.1</ele>
        <time>2021-05-27T14:41:26Z</time>
      </trkpt>
      <trkpt lat="47.69304" lon="-2.21248">
        <ele>39.1</ele>
        <time>2021-05-27T14:41:27Z</time>
      </trkpt>
      <trkpt lat="47.69305" lon="-2.21252">
        <ele>38.9</ele>
        <time>2021-05-27T14:41:28Z</time>
      </trkpt>
      <trkpt lat="47.69306" lon="-2.21257">
        <ele>38.8</ele>
        <time>2021-05-27T14:41:29Z</time>
      </trkpt>
      <trkpt lat="47.69307" lon="-2.21261">
        <ele>38.7</ele>
        <time>2021-05-27T14:41:30Z</time>
      </trkpt>
      <trkpt lat="47.69306" lon="-2.21264">
        <ele>39</ele>
        <time>2021-05-27T14:41:31Z</time>
      </trkpt>
      <trkpt lat="47.69306" lon="-2.21267">
        <ele>39.2</ele>
        <time>2021-05-27T14:41:32Z</time>
      </trkpt>
      <trkpt lat="47.69306" lon="-2.21271">
        <ele>39.2</ele>
        <time>2021-05-27T14:41:33Z</time>
      </trkpt>
      <trkpt lat="47.69306" lon="-2.21274">
        <ele>39.4</ele>
        <time>2021-05-27T14:41:34Z</time>
      </trkpt>
      <trkpt lat="47.69305" lon="-2.21276">
        <ele>39.8</ele>
        <time>2021-05-27T14:41:35Z</time>
      </trkpt>
      <trkpt lat="47.69304" lon="-2.21278">
        <ele>40</ele>
        <time>2021-05-27T14:41:36Z</time>
      </trkpt>
      <trkpt lat="47.69304" lon="-2.21281">
        <ele>40.3</ele>
        <time>2021-05-27T14:41:37Z</time>
      </trkpt>
      <trkpt lat="47.69303" lon="-2.21284">
        <ele>40.7</ele>
        <time>2021-05-27T14:41:38Z</time>
      </trkpt>
      <trkpt lat="47.69302" lon="-2.21287">
        <ele>41.1</ele>
        <time>2021-05-27T14:41:39Z</time>
      </trkpt>
      <trkpt lat="47.69302" lon="-2.2129">
        <ele>41.2</ele>
        <time>2021-05-27T14:41:40Z</time>
      </trkpt>
      <trkpt lat="47.69302" lon="-2.21293">
        <ele>41.3</ele>
        <time>2021-05-27T14:41:41Z</time>
      </trkpt>
      <trkpt lat="47.69301" lon="-2.21297">
        <ele>41.6</ele>
        <time>2021-05-27T14:41:42Z</time>
      </trkpt>
      <trkpt lat="47.69301" lon="-2.213">
        <ele>41.9</ele>
        <time>2021-05-27T14:41:43Z</time>
      </trkpt>
      <trkpt lat="47.69301" lon="-2.21304">
        <ele>42.1</ele>
        <time>2021-05-27T14:41:44Z</time>
      </trkpt>
      <trkpt lat="47.69301" lon="-2.21307">
        <ele>42.1</ele>
        <time>2021-05-27T14:41:45Z</time>
      </trkpt>
      <trkpt lat="47.69302" lon="-2.21311">
        <ele>41.9</ele>
        <time>2021-05-27T14:41:46Z</time>
      </trkpt>
      <trkpt lat="47.69303" lon="-2.21316">
        <ele>41.5</ele>
        <time>2021-05-27T14:41:47Z</time>
      </trkpt>
      <trkpt lat="47.69304" lon="-2.2132">
        <ele>41.5</ele>
        <time>2021-05-27T14:41:48Z</time>
      </trkpt>
      <trkpt lat="47.69304" lon="-2.21323">
        <ele>41.4</ele>
        <time>2021-05-27T14:41:49Z</time>
      </trkpt>
      <trkpt lat="47.69304" lon="-2.21326">
        <ele>41.5</ele>
        <time>2021-05-27T14:41:50Z</time>
      </trkpt>
      <trkpt lat="47.69305" lon="-2.2133">
        <ele>41.6</ele>
        <time>2021-05-27T14:41:51Z</time>
      </trkpt>
      <trkpt lat="47.69304" lon="-2.21333">
        <ele>41.8</ele>
        <time>2021-05-27T14:41:52Z</time>
      </trkpt>
      <trkpt lat="47.69305" lon="-2.21337">
        <ele>41.9</ele>
        <time>2021-05-27T14:41:53Z</time>
      </trkpt>
      <trkpt lat="47.69305" lon="-2.21341">
        <ele>42.2</ele>
        <time>2021-05-27T14:41:54Z</time>
      </trkpt>
      <trkpt lat="47.69306" lon="-2.21344">
        <ele>42.1</ele>
        <time>2021-05-27T14:41:55Z</time>
      </trkpt>
      <trkpt lat="47.69306" lon="-2.21347">
        <ele>42.1</ele>
        <time>2021-05-27T14:41:56Z</time>
      </trkpt>
      <trkpt lat="47.69307" lon="-2.2135">
        <ele>42</ele>
        <time>2021-05-27T14:41:57Z</time>
      </trkpt>
      <trkpt lat="47.69307" lon="-2.21353">
        <ele>42.5</ele>
        <time>2021-05-27T14:41:58Z</time>
      </trkpt>
      <trkpt lat="47.69307" lon="-2.21356">
        <ele>42.6</ele>
        <time>2021-05-27T14:41:59Z</time>
      </trkpt>
      <trkpt lat="47.69306" lon="-2.21361">
        <ele>43.1</ele>
        <time>2021-05-27T14:42:00Z</time>
      </trkpt>
      <trkpt lat="47.69307" lon="-2.21365">
        <ele>43.1</ele>
        <time>2021-05-27T14:42:01Z</time>
      </trkpt>
      <trkpt lat="47.69309" lon="-2.21369">
        <ele>43</ele>
        <time>2021-05-27T14:42:02Z</time>
      </trkpt>
      <trkpt lat="47.69309" lon="-2.21373">
        <ele>43.3</ele>
        <time>2021-05-27T14:42:03Z</time>
      </trkpt>
      <trkpt lat="47.6931" lon="-2.21377">
        <ele>43.3</ele>
        <time>2021-05-27T14:42:04Z</time>
      </trkpt>
      <trkpt lat="47.6931" lon="-2.21382">
        <ele>43.4</ele>
        <time>2021-05-27T14:42:05Z</time>
      </trkpt>
      <trkpt lat="47.69311" lon="-2.21387">
        <ele>43.6</ele>
        <time>2021-05-27T14:42:06Z</time>
      </trkpt>
      <trkpt lat="47.69311" lon="-2.21391">
        <ele>43.8</ele>
        <time>2021-05-27T14:42:07Z</time>
      </trkpt>
      <trkpt lat="47.69312" lon="-2.21395">
        <ele>44</ele>
        <time>2021-05-27T14:42:08Z</time>
      </trkpt>
      <trkpt lat="47.69311" lon="-2.21398">
        <ele>44.4</ele>
        <time>2021-05-27T14:42:09Z</time>
      </trkpt>
      <trkpt lat="47.69312" lon="-2.21401">
        <ele>44.4</ele>
        <time>2021-05-27T14:42:10Z</time>
      </trkpt>
      <trkpt lat="47.69313" lon="-2.21404">
        <ele>44.4</ele>
        <time>2021-05-27T14:42:11Z</time>
      </trkpt>
      <trkpt lat="47.69313" lon="-2.21408">
        <ele>44.5</ele>
        <time>2021-05-27T14:42:12Z</time>
      </trkpt>
      <trkpt lat="47.69313" lon="-2.21411">
        <ele>44.7</ele>
        <time>2021-05-27T14:42:13Z</time>
      </trkpt>
      <trkpt lat="47.69314" lon="-2.21413">
        <ele>44.8</ele>
        <time>2021-05-27T14:42:14Z</time>
      </trkpt>
      <trkpt lat="47.69313" lon="-2.21416">
        <ele>45.2</ele>
        <time>2021-05-27T14:42:15Z</time>
      </trkpt>
      <trkpt lat="47.69313" lon="-2.21419">
        <ele>45.3</ele>
        <time>2021-05-27T14:42:16Z</time>
      </trkpt>
      <trkpt lat="47.69313" lon="-2.21423">
        <ele>45.6</ele>
        <time>2021-05-27T14:42:17Z</time>
      </trkpt>
      <trkpt lat="47.69313" lon="-2.21427">
        <ele>45.7</ele>
        <time>2021-05-27T14:42:18Z</time>
      </trkpt>
      <trkpt lat="47.69313" lon="-2.21431">
        <ele>45.9</ele>
        <time>2021-05-27T14:42:19Z</time>
      </trkpt>
      <trkpt lat="47.69312" lon="-2.21435">
        <ele>46.2</ele>
        <time>2021-05-27T14:42:20Z</time>
      </trkpt>
      <trkpt lat="47.69312" lon="-2.21438">
        <ele>46.4</ele>
        <time>2021-05-27T14:42:21Z</time>
      </trkpt>
      <trkpt lat="47.69312" lon="-2.21443">
        <ele>46.4</ele>
        <time>2021-05-27T14:42:22Z</time>
      </trkpt>
      <trkpt lat="47.69312" lon="-2.21447">
        <ele>46.6</ele>
        <time>2021-05-27T14:42:23Z</time>
      </trkpt>
      <trkpt lat="47.69311" lon="-2.21451">
        <ele>46.9</ele>
        <time>2021-05-27T14:42:24Z</time>
      </trkpt>
      <trkpt lat="47.69311" lon="-2.21455">
        <ele>47.1</ele>
        <time>2021-05-27T14:42:25Z</time>
      </trkpt>
      <trkpt lat="47.69311" lon="-2.21458">
        <ele>47.3</ele>
        <time>2021-05-27T14:42:26Z</time>
      </trkpt>
      <trkpt lat="47.6931" lon="-2.21463">
        <ele>47.5</ele>
        <time>2021-05-27T14:42:27Z</time>
      </trkpt>
      <trkpt lat="47.6931" lon="-2.21468">
        <ele>47.7</ele>
        <time>2021-05-27T14:42:28Z</time>
      </trkpt>
      <trkpt lat="47.6931" lon="-2.21474">
        <ele>47.9</ele>
        <time>2021-05-27T14:42:29Z</time>
      </trkpt>
      <trkpt lat="47.6931" lon="-2.21479">
        <ele>48.1</ele>
        <time>2021-05-27T14:42:30Z</time>
      </trkpt>
      <trkpt lat="47.69309" lon="-2.21483">
        <ele>48.4</ele>
        <time>2021-05-27T14:42:31Z</time>
      </trkpt>
      <trkpt lat="47.69309" lon="-2.21486">
        <ele>48.5</ele>
        <time>2021-05-27T14:42:32Z</time>
      </trkpt>
      <trkpt lat="47.69309" lon="-2.2149">
        <ele>48.6</ele>
        <time>2021-05-27T14:42:33Z</time>
      </trkpt>
      <trkpt lat="47.69309" lon="-2.21495">
        <ele>48.7</ele>
        <time>2021-05-27T14:42:34Z</time>
      </trkpt>
      <trkpt lat="47.69309" lon="-2.21498">
        <ele>48.8</ele>
        <time>2021-05-27T14:42:35Z</time>
      </trkpt>
      <trkpt lat="47.69309" lon="-2.21501">
        <ele>48.9</ele>
        <time>2021-05-27T14:42:36Z</time>
      </trkpt>
      <trkpt lat="47.69309" lon="-2.21506">
        <ele>48.8</ele>
        <time>2021-05-27T14:42:37Z</time>
      </trkpt>
      <trkpt lat="47.69309" lon="-2.21509">
        <ele>48.9</ele>
        <time>2021-05-27T14:42:38Z</time>
      </trkpt>
      <trkpt lat="47.69309" lon="-2.21512">
        <ele>48.8</ele>
        <time>2021-05-27T14:42:39Z</time>
      </trkpt>
      <trkpt lat="47.69309" lon="-2.21516">
        <ele>48.8</ele>
        <time>2021-05-27T14:42:40Z</time>
      </trkpt>
      <trkpt lat="47.69309" lon="-2.21518">
        <ele>48.9</ele>
        <time>2021-05-27T14:42:41Z</time>
      </trkpt>
      <trkpt lat="47.69308" lon="-2.2152">
        <ele>48.9</ele>
        <time>2021-05-27T14:42:42Z</time>
      </trkpt>
      <trkpt lat="47.69307" lon="-2.21521">
        <ele>49.3</ele>
        <time>2021-05-27T14:42:43Z</time>
      </trkpt>
      <trkpt lat="47.69305" lon="-2.21524">
        <ele>49.5</ele>
        <time>2021-05-27T14:42:44Z</time>
      </trkpt>
      <trkpt lat="47.69305" lon="-2.21527">
        <ele>49.6</ele>
        <time>2021-05-27T14:42:45Z</time>
      </trkpt>
      <trkpt lat="47.69304" lon="-2.21529">
        <ele>49.7</ele>
        <time>2021-05-27T14:42:46Z</time>
      </trkpt>
      <trkpt lat="47.69304" lon="-2.21531">
        <ele>49.7</ele>
        <time>2021-05-27T14:42:47Z</time>
      </trkpt>
      <trkpt lat="47.69304" lon="-2.21533">
        <ele>49.7</ele>
        <time>2021-05-27T14:42:48Z</time>
      </trkpt>
      <trkpt lat="47.69303" lon="-2.21535">
        <ele>49.9</ele>
        <time>2021-05-27T14:42:49Z</time>
      </trkpt>
      <trkpt lat="47.69303" lon="-2.21536">
        <ele>50</ele>
        <time>2021-05-27T14:42:50Z</time>
      </trkpt>
      <trkpt lat="47.69302" lon="-2.21538">
        <ele>50.2</ele>
        <time>2021-05-27T14:42:51Z</time>
      </trkpt>
      <trkpt lat="47.69301" lon="-2.2154">
        <ele>50.3</ele>
        <time>2021-05-27T14:42:52Z</time>
      </trkpt>
      <trkpt lat="47.693" lon="-2.21541">
        <ele>50.5</ele>
        <time>2021-05-27T14:42:53Z</time>
      </trkpt>
      <trkpt lat="47.693" lon="-2.21543">
        <ele>50.5</ele>
        <time>2021-05-27T14:42:54Z</time>
      </trkpt>
      <trkpt lat="47.693" lon="-2.21543">
        <ele>50.5</ele>
        <time>2021-05-27T14:42:55Z</time>
      </trkpt>
      <trkpt lat="47.693" lon="-2.21543">
        <ele>50.5</ele>
        <time>2021-05-27T14:42:56Z</time>
      </trkpt>
      <trkpt lat="47.693" lon="-2.21543">
        <ele>50.5</ele>
        <time>2021-05-27T14:42:57Z</time>
      </trkpt>
      <trkpt lat="47.693" lon="-2.21543">
        <ele>50.5</ele>
        <time>2021-05-27T14:42:58Z</time>
      </trkpt>
      <trkpt lat="47.693" lon="-2.21543">
        <ele>50.5</ele>
        <time>2021-05-27T14:42:59Z</time>
      </trkpt>
      <trkpt lat="47.693" lon="-2.21543">
        <ele>50.5</ele>
        <time>2021-05-27T14:43:00Z</time>
      </trkpt>
      <trkpt lat="47.693" lon="-2.21543">
        <ele>50.5</ele>
        <time>2021-05-27T14:43:01Z</time>
      </trkpt>
      <trkpt lat="47.693" lon="-2.21543">
        <ele>50.5</ele>
        <time>2021-05-27T14:43:02Z</time>
      </trkpt>
      <trkpt lat="47.693" lon="-2.21543">
        <ele>50.5</ele>
        <time>2021-05-27T14:43:03Z</time>
      </trkpt>
      <trkpt lat="47.693" lon="-2.21543">
        <ele>50.5</ele>
        <time>2021-05-27T14:43:04Z</time>
      </trkpt>
      <trkpt lat="47.693" lon="-2.21543">
        <ele>50.5</ele>
        <time>2021-05-27T14:43:05Z</time>
      </trkpt>
      <trkpt lat="47.693" lon="-2.21543">
        <ele>50.5</ele>
        <time>2021-05-27T14:43:06Z</time>
      </trkpt>
      <trkpt lat="47.693" lon="-2.21543">
        <ele>50.5</ele>
        <time>2021-05-27T14:43:07Z</time>
      </trkpt>
      <trkpt lat="47.693" lon="-2.21543">
        <ele>50.5</ele>
        <time>2021-05-27T14:43:08Z</time>
      </trkpt>
      <trkpt lat="47.69299" lon="-2.21542">
        <ele>50.8</ele>
        <time>2021-05-27T14:43:09Z</time>
      </trkpt>
      <trkpt lat="47.69298" lon="-2.2154">
        <ele>50.9</ele>
        <time>2021-05-27T14:43:10Z</time>
      </trkpt>
      <trkpt lat="47.69298" lon="-2.21539">
        <ele>51</ele>
        <time>2021-05-27T14:43:11Z</time>
      </trkpt>
      <trkpt lat="47.69297" lon="-2.21539">
        <ele>51.2</ele>
        <time>2021-05-27T14:43:12Z</time>
      </trkpt>
      <trkpt lat="47.69296" lon="-2.21539">
        <ele>51.3</ele>
        <time>2021-05-27T14:43:13Z</time>
      </trkpt>
      <trkpt lat="47.69296" lon="-2.21539">
        <ele>51.3</ele>
        <time>2021-05-27T14:43:14Z</time>
      </trkpt>
      <trkpt lat="47.69296" lon="-2.21539">
        <ele>51.3</ele>
        <time>2021-05-27T14:43:15Z</time>
      </trkpt>
      <trkpt lat="47.69296" lon="-2.21539">
        <ele>51.3</ele>
        <time>2021-05-27T14:43:16Z</time>
      </trkpt>
      <trkpt lat="47.69296" lon="-2.21539">
        <ele>51.3</ele>
        <time>2021-05-27T14:43:17Z</time>
      </trkpt>
      <trkpt lat="47.69296" lon="-2.21539">
        <ele>51.3</ele>
        <time>2021-05-27T14:43:18Z</time>
      </trkpt>
      <trkpt lat="47.69296" lon="-2.21539">
        <ele>51.3</ele>
        <time>2021-05-27T14:43:19Z</time>
      </trkpt>
      <trkpt lat="47.69296" lon="-2.21539">
        <ele>51.3</ele>
        <time>2021-05-27T14:43:20Z</time>
      </trkpt>
      <trkpt lat="47.69296" lon="-2.21539">
        <ele>51.3</ele>
        <time>2021-05-27T14:43:21Z</time>
      </trkpt>
      <trkpt lat="47.69296" lon="-2.21539">
        <ele>51.3</ele>
        <time>2021-05-27T14:43:22Z</time>
      </trkpt>
      <trkpt lat="47.69296" lon="-2.21539">
        <ele>51.3</ele>
        <time>2021-05-27T14:43:23Z</time>
      </trkpt>
      <trkpt lat="47.69296" lon="-2.21539">
        <ele>51.3</ele>
        <time>2021-05-27T14:43:24Z</time>
      </trkpt>
      <trkpt lat="47.69296" lon="-2.21539">
        <ele>51.3</ele>
        <time>2021-05-27T14:43:25Z</time>
      </trkpt>
      <trkpt lat="47.69296" lon="-2.21539">
        <ele>51.3</ele>
        <time>2021-05-27T14:43:26Z</time>
      </trkpt>
      <trkpt lat="47.69296" lon="-2.21539">
        <ele>51.3</ele>
        <time>2021-05-27T14:43:27Z</time>
      </trkpt>
      <trkpt lat="47.69296" lon="-2.21539">
        <ele>51.3</ele>
        <time>2021-05-27T14:43:28Z</time>
      </trkpt>
      <trkpt lat="47.69296" lon="-2.21539">
        <ele>51.3</ele>
        <time>2021-05-27T14:43:29Z</time>
      </trkpt>
      <trkpt lat="47.69296" lon="-2.21539">
        <ele>51.3</ele>
        <time>2021-05-27T14:43:30Z</time>
      </trkpt>
      <trkpt lat="47.69296" lon="-2.21539">
        <ele>51.3</ele>
        <time>2021-05-27T14:43:31Z</time>
      </trkpt>
      <trkpt lat="47.69296" lon="-2.21539">
        <ele>51.3</ele>
        <time>2021-05-27T14:43:32Z</time>
      </trkpt>
      <trkpt lat="47.69296" lon="-2.21539">
        <ele>51.3</ele>
        <time>2021-05-27T14:43:33Z</time>
      </trkpt>
      <trkpt lat="47.69296" lon="-2.21539">
        <ele>51.3</ele>
        <time>2021-05-27T14:43:34Z</time>
      </trkpt>
      <trkpt lat="47.69296" lon="-2.21539">
        <ele>51.3</ele>
        <time>2021-05-27T14:43:35Z</time>
      </trkpt>
      <trkpt lat="47.69296" lon="-2.21539">
        <ele>51.3</ele>
        <time>2021-05-27T14:43:36Z</time>
      </trkpt>
      <trkpt lat="47.69296" lon="-2.21539">
        <ele>51.3</ele>
        <time>2021-05-27T14:43:37Z</time>
      </trkpt>
      <trkpt lat="47.69296" lon="-2.21539">
        <ele>51.3</ele>
        <time>2021-05-27T14:43:38Z</time>
      </trkpt>
      <trkpt lat="47.69293" lon="-2.21529">
        <ele>52.3</ele>
        <time>2021-05-27T14:43:39Z</time>
      </trkpt>
      <trkpt lat="47.69294" lon="-2.21527">
        <ele>52</ele>
        <time>2021-05-27T14:43:40Z</time>
      </trkpt>
      <trkpt lat="47.69294" lon="-2.21526">
        <ele>51.9</ele>
        <time>2021-05-27T14:43:41Z</time>
      </trkpt>
      <trkpt lat="47.69294" lon="-2.21525">
        <ele>52</ele>
        <time>2021-05-27T14:43:42Z</time>
      </trkpt>
      <trkpt lat="47.69293" lon="-2.21524">
        <ele>52.2</ele>
        <time>2021-05-27T14:43:43Z</time>
      </trkpt>
      <trkpt lat="47.69292" lon="-2.21524">
        <ele>52.5</ele>
        <time>2021-05-27T14:43:44Z</time>
      </trkpt>
      <trkpt lat="47.69291" lon="-2.21523">
        <ele>52.7</ele>
        <time>2021-05-27T14:43:45Z</time>
      </trkpt>
      <trkpt lat="47.6929" lon="-2.21522">
        <ele>52.9</ele>
        <time>2021-05-27T14:43:46Z</time>
      </trkpt>
      <trkpt lat="47.6929" lon="-2.21522">
        <ele>53.1</ele>
        <time>2021-05-27T14:43:47Z</time>
      </trkpt>
      <trkpt lat="47.69289" lon="-2.21523">
        <ele>53.3</ele>
        <time>2021-05-27T14:43:48Z</time>
      </trkpt>
      <trkpt lat="47.69287" lon="-2.21524">
        <ele>53.6</ele>
        <time>2021-05-27T14:43:49Z</time>
      </trkpt>
      <trkpt lat="47.69285" lon="-2.21526">
        <ele>54</ele>
        <time>2021-05-27T14:43:50Z</time>
      </trkpt>
      <trkpt lat="47.69283" lon="-2.21527">
        <ele>54.4</ele>
        <time>2021-05-27T14:43:51Z</time>
      </trkpt>
      <trkpt lat="47.69281" lon="-2.21527">
        <ele>54.8</ele>
        <time>2021-05-27T14:43:52Z</time>
      </trkpt>
      <trkpt lat="47.6928" lon="-2.21526">
        <ele>55.1</ele>
        <time>2021-05-27T14:43:53Z</time>
      </trkpt>
      <trkpt lat="47.6928" lon="-2.21524">
        <ele>55.3</ele>
        <time>2021-05-27T14:43:54Z</time>
      </trkpt>
      <trkpt lat="47.69279" lon="-2.21521">
        <ele>55.4</ele>
        <time>2021-05-27T14:43:55Z</time>
      </trkpt>
      <trkpt lat="47.6928" lon="-2.21518">
        <ele>55.4</ele>
        <time>2021-05-27T14:43:56Z</time>
      </trkpt>
      <trkpt lat="47.6928" lon="-2.21516">
        <ele>55.3</ele>
        <time>2021-05-27T14:43:57Z</time>
      </trkpt>
      <trkpt lat="47.69281" lon="-2.21512">
        <ele>55.2</ele>
        <time>2021-05-27T14:43:58Z</time>
      </trkpt>
      <trkpt lat="47.69282" lon="-2.21508">
        <ele>55.1</ele>
        <time>2021-05-27T14:43:59Z</time>
      </trkpt>
      <trkpt lat="47.69282" lon="-2.21504">
        <ele>55.2</ele>
        <time>2021-05-27T14:44:00Z</time>
      </trkpt>
      <trkpt lat="47.69281" lon="-2.21501">
        <ele>55.5</ele>
        <time>2021-05-27T14:44:01Z</time>
      </trkpt>
      <trkpt lat="47.6928" lon="-2.21499">
        <ele>55.9</ele>
        <time>2021-05-27T14:44:02Z</time>
      </trkpt>
      <trkpt lat="47.69279" lon="-2.21497">
        <ele>56</ele>
        <time>2021-05-27T14:44:03Z</time>
      </trkpt>
      <trkpt lat="47.69279" lon="-2.21495">
        <ele>56</ele>
        <time>2021-05-27T14:44:04Z</time>
      </trkpt>
      <trkpt lat="47.6928" lon="-2.21492">
        <ele>55.8</ele>
        <time>2021-05-27T14:44:05Z</time>
      </trkpt>
      <trkpt lat="47.69281" lon="-2.2149">
        <ele>55.6</ele>
        <time>2021-05-27T14:44:06Z</time>
      </trkpt>
      <trkpt lat="47.69281" lon="-2.21487">
        <ele>55.4</ele>
        <time>2021-05-27T14:44:07Z</time>
      </trkpt>
      <trkpt lat="47.69282" lon="-2.21484">
        <ele>55.2</ele>
        <time>2021-05-27T14:44:08Z</time>
      </trkpt>
      <trkpt lat="47.69282" lon="-2.2148">
        <ele>55.2</ele>
        <time>2021-05-27T14:44:09Z</time>
      </trkpt>
      <trkpt lat="47.69281" lon="-2.21479">
        <ele>55.4</ele>
        <time>2021-05-27T14:44:10Z</time>
      </trkpt>
      <trkpt lat="47.69281" lon="-2.21477">
        <ele>55.4</ele>
        <time>2021-05-27T14:44:11Z</time>
      </trkpt>
      <trkpt lat="47.6928" lon="-2.21476">
        <ele>55.6</ele>
        <time>2021-05-27T14:44:12Z</time>
      </trkpt>
      <trkpt lat="47.6928" lon="-2.21473">
        <ele>55.7</ele>
        <time>2021-05-27T14:44:13Z</time>
      </trkpt>
      <trkpt lat="47.6928" lon="-2.21471">
        <ele>55.7</ele>
        <time>2021-05-27T14:44:14Z</time>
      </trkpt>
      <trkpt lat="47.6928" lon="-2.21468">
        <ele>55.6</ele>
        <time>2021-05-27T14:44:15Z</time>
      </trkpt>
      <trkpt lat="47.6928" lon="-2.21466">
        <ele>55.8</ele>
        <time>2021-05-27T14:44:16Z</time>
      </trkpt>
      <trkpt lat="47.69279" lon="-2.21463">
        <ele>56</ele>
        <time>2021-05-27T14:44:17Z</time>
      </trkpt>
      <trkpt lat="47.69278" lon="-2.2146">
        <ele>56.1</ele>
        <time>2021-05-27T14:44:18Z</time>
      </trkpt>
      <trkpt lat="47.69279" lon="-2.21456">
        <ele>56</ele>
        <time>2021-05-27T14:44:19Z</time>
      </trkpt>
      <trkpt lat="47.69279" lon="-2.21452">
        <ele>55.9</ele>
        <time>2021-05-27T14:44:20Z</time>
      </trkpt>
      <trkpt lat="47.6928" lon="-2.21449">
        <ele>55.6</ele>
        <time>2021-05-27T14:44:21Z</time>
      </trkpt>
      <trkpt lat="47.69282" lon="-2.21447">
        <ele>55.1</ele>
        <time>2021-05-27T14:44:22Z</time>
      </trkpt>
      <trkpt lat="47.69284" lon="-2.21445">
        <ele>54.7</ele>
        <time>2021-05-27T14:44:23Z</time>
      </trkpt>
      <trkpt lat="47.69284" lon="-2.21441">
        <ele>54.4</ele>
        <time>2021-05-27T14:44:24Z</time>
      </trkpt>
      <trkpt lat="47.69285" lon="-2.21437">
        <ele>54.2</ele>
        <time>2021-05-27T14:44:25Z</time>
      </trkpt>
      <trkpt lat="47.69286" lon="-2.21432">
        <ele>53.9</ele>
        <time>2021-05-27T14:44:26Z</time>
      </trkpt>
      <trkpt lat="47.69286" lon="-2.21428">
        <ele>53.8</ele>
        <time>2021-05-27T14:44:27Z</time>
      </trkpt>
      <trkpt lat="47.69286" lon="-2.21425">
        <ele>54</ele>
        <time>2021-05-27T14:44:28Z</time>
      </trkpt>
      <trkpt lat="47.69285" lon="-2.21423">
        <ele>54.2</ele>
        <time>2021-05-27T14:44:29Z</time>
      </trkpt>
      <trkpt lat="47.69284" lon="-2.21422">
        <ele>54.4</ele>
        <time>2021-05-27T14:44:30Z</time>
      </trkpt>
      <trkpt lat="47.69284" lon="-2.21422">
        <ele>54.5</ele>
        <time>2021-05-27T14:44:31Z</time>
      </trkpt>
      <trkpt lat="47.69283" lon="-2.21421">
        <ele>54.7</ele>
        <time>2021-05-27T14:44:32Z</time>
      </trkpt>
      <trkpt lat="47.69283" lon="-2.21421">
        <ele>54.7</ele>
        <time>2021-05-27T14:44:33Z</time>
      </trkpt>
      <trkpt lat="47.69283" lon="-2.21421">
        <ele>54.7</ele>
        <time>2021-05-27T14:44:34Z</time>
      </trkpt>
      <trkpt lat="47.69283" lon="-2.21421">
        <ele>54.7</ele>
        <time>2021-05-27T14:44:35Z</time>
      </trkpt>
      <trkpt lat="47.69283" lon="-2.21421">
        <ele>54.7</ele>
        <time>2021-05-27T14:44:36Z</time>
      </trkpt>
      <trkpt lat="47.69283" lon="-2.21421">
        <ele>54.7</ele>
        <time>2021-05-27T14:44:37Z</time>
      </trkpt>
      <trkpt lat="47.69283" lon="-2.21421">
        <ele>54.7</ele>
        <time>2021-05-27T14:44:38Z</time>
      </trkpt>
      <trkpt lat="47.69283" lon="-2.21421">
        <ele>54.7</ele>
        <time>2021-05-27T14:44:39Z</time>
      </trkpt>
      <trkpt lat="47.69283" lon="-2.21421">
        <ele>54.7</ele>
        <time>2021-05-27T14:44:40Z</time>
      </trkpt>
      <trkpt lat="47.69275" lon="-2.21421">
        <ele>57.3</ele>
        <time>2021-05-27T14:44:41Z</time>
      </trkpt>
      <trkpt lat="47.69274" lon="-2.21421">
        <ele>57.6</ele>
        <time>2021-05-27T14:44:42Z</time>
      </trkpt>
      <trkpt lat="47.69273" lon="-2.2142">
        <ele>57.8</ele>
        <time>2021-05-27T14:44:43Z</time>
      </trkpt>
      <trkpt lat="47.69273" lon="-2.2142">
        <ele>58</ele>
        <time>2021-05-27T14:44:44Z</time>
      </trkpt>
      <trkpt lat="47.69273" lon="-2.2142">
        <ele>58</ele>
        <time>2021-05-27T14:44:45Z</time>
      </trkpt>
      <trkpt lat="47.69273" lon="-2.2142">
        <ele>58</ele>
        <time>2021-05-27T14:44:46Z</time>
      </trkpt>
      <trkpt lat="47.69273" lon="-2.2142">
        <ele>58</ele>
        <time>2021-05-27T14:44:47Z</time>
      </trkpt>
      <trkpt lat="47.69273" lon="-2.2142">
        <ele>58</ele>
        <time>2021-05-27T14:44:48Z</time>
      </trkpt>
      <trkpt lat="47.69273" lon="-2.2142">
        <ele>58</ele>
        <time>2021-05-27T14:44:49Z</time>
      </trkpt>
      <trkpt lat="47.69273" lon="-2.2142">
        <ele>58</ele>
        <time>2021-05-27T14:44:50Z</time>
      </trkpt>
      <trkpt lat="47.69273" lon="-2.2142">
        <ele>58</ele>
        <time>2021-05-27T14:44:51Z</time>
      </trkpt>
      <trkpt lat="47.69273" lon="-2.2142">
        <ele>58</ele>
        <time>2021-05-27T14:44:52Z</time>
      </trkpt>
      <trkpt lat="47.69273" lon="-2.2142">
        <ele>58</ele>
        <time>2021-05-27T14:44:53Z</time>
      </trkpt>
      <trkpt lat="47.69273" lon="-2.2142">
        <ele>58</ele>
        <time>2021-05-27T14:44:54Z</time>
      </trkpt>
      <trkpt lat="47.69273" lon="-2.2142">
        <ele>58</ele>
        <time>2021-05-27T14:44:55Z</time>
      </trkpt>
      <trkpt lat="47.69273" lon="-2.2142">
        <ele>58</ele>
        <time>2021-05-27T14:44:56Z</time>
      </trkpt>
      <trkpt lat="47.69273" lon="-2.2142">
        <ele>58</ele>
        <time>2021-05-27T14:44:57Z</time>
      </trkpt>
      <trkpt lat="47.69269" lon="-2.21407">
        <ele>58.6</ele>
        <time>2021-05-27T14:44:58Z</time>
      </trkpt>
      <trkpt lat="47.69269" lon="-2.21405">
        <ele>58.6</ele>
        <time>2021-05-27T14:44:59Z</time>
      </trkpt>
      <trkpt lat="47.69269" lon="-2.21403">
        <ele>58.4</ele>
        <time>2021-05-27T14:45:00Z</time>
      </trkpt>
      <trkpt lat="47.69271" lon="-2.21401">
        <ele>57.8</ele>
        <time>2021-05-27T14:45:01Z</time>
      </trkpt>
      <trkpt lat="47.69271" lon="-2.214">
        <ele>57.5</ele>
        <time>2021-05-27T14:45:02Z</time>
      </trkpt>
      <trkpt lat="47.69271" lon="-2.21399">
        <ele>57.5</ele>
        <time>2021-05-27T14:45:03Z</time>
      </trkpt>
      <trkpt lat="47.69272" lon="-2.21398">
        <ele>57.3</ele>
        <time>2021-05-27T14:45:04Z</time>
      </trkpt>
      <trkpt lat="47.69272" lon="-2.21398">
        <ele>57.3</ele>
        <time>2021-05-27T14:45:05Z</time>
      </trkpt>
      <trkpt lat="47.69272" lon="-2.21398">
        <ele>57.3</ele>
        <time>2021-05-27T14:45:06Z</time>
      </trkpt>
      <trkpt lat="47.69272" lon="-2.21398">
        <ele>57.3</ele>
        <time>2021-05-27T14:45:07Z</time>
      </trkpt>
      <trkpt lat="47.69272" lon="-2.21398">
        <ele>57.3</ele>
        <time>2021-05-27T14:45:08Z</time>
      </trkpt>
      <trkpt lat="47.69272" lon="-2.21398">
        <ele>57.3</ele>
        <time>2021-05-27T14:45:09Z</time>
      </trkpt>
      <trkpt lat="47.69272" lon="-2.21398">
        <ele>57.3</ele>
        <time>2021-05-27T14:45:10Z</time>
      </trkpt>
      <trkpt lat="47.69272" lon="-2.21398">
        <ele>57.3</ele>
        <time>2021-05-27T14:45:11Z</time>
      </trkpt>
      <trkpt lat="47.69272" lon="-2.21398">
        <ele>57.3</ele>
        <time>2021-05-27T14:45:12Z</time>
      </trkpt>
      <trkpt lat="47.69272" lon="-2.21398">
        <ele>57.3</ele>
        <time>2021-05-27T14:45:13Z</time>
      </trkpt>
      <trkpt lat="47.69272" lon="-2.21398">
        <ele>57.3</ele>
        <time>2021-05-27T14:45:14Z</time>
      </trkpt>
      <trkpt lat="47.69272" lon="-2.21398">
        <ele>57.3</ele>
        <time>2021-05-27T14:45:15Z</time>
      </trkpt>
      <trkpt lat="47.69272" lon="-2.21398">
        <ele>57.3</ele>
        <time>2021-05-27T14:45:16Z</time>
      </trkpt>
      <trkpt lat="47.69272" lon="-2.21398">
        <ele>57.3</ele>
        <time>2021-05-27T14:45:17Z</time>
      </trkpt>
      <trkpt lat="47.69271" lon="-2.21388">
        <ele>57</ele>
        <time>2021-05-27T14:45:18Z</time>
      </trkpt>
      <trkpt lat="47.6927" lon="-2.21387">
        <ele>57.3</ele>
        <time>2021-05-27T14:45:19Z</time>
      </trkpt>
      <trkpt lat="47.69268" lon="-2.21386">
        <ele>57.7</ele>
        <time>2021-05-27T14:45:20Z</time>
      </trkpt>
      <trkpt lat="47.69267" lon="-2.21386">
        <ele>58.3</ele>
        <time>2021-05-27T14:45:21Z</time>
      </trkpt>
      <trkpt lat="47.69266" lon="-2.21385">
        <ele>58.4</ele>
        <time>2021-05-27T14:45:22Z</time>
      </trkpt>
      <trkpt lat="47.69266" lon="-2.21385">
        <ele>58.4</ele>
        <time>2021-05-27T14:45:23Z</time>
      </trkpt>
      <trkpt lat="47.69266" lon="-2.21383">
        <ele>58.5</ele>
        <time>2021-05-27T14:45:24Z</time>
      </trkpt>
      <trkpt lat="47.69265" lon="-2.21383">
        <ele>58.7</ele>
        <time>2021-05-27T14:45:25Z</time>
      </trkpt>
      <trkpt lat="47.69265" lon="-2.21383">
        <ele>58.7</ele>
        <time>2021-05-27T14:45:26Z</time>
      </trkpt>
      <trkpt lat="47.69265" lon="-2.21383">
        <ele>58.7</ele>
        <time>2021-05-27T14:45:27Z</time>
      </trkpt>
      <trkpt lat="47.69265" lon="-2.21383">
        <ele>58.7</ele>
        <time>2021-05-27T14:45:28Z</time>
      </trkpt>
      <trkpt lat="47.69265" lon="-2.21383">
        <ele>58.7</ele>
        <time>2021-05-27T14:45:29Z</time>
      </trkpt>
      <trkpt lat="47.69265" lon="-2.21383">
        <ele>58.7</ele>
        <time>2021-05-27T14:45:30Z</time>
      </trkpt>
      <trkpt lat="47.69265" lon="-2.21383">
        <ele>58.7</ele>
        <time>2021-05-27T14:45:31Z</time>
      </trkpt>
      <trkpt lat="47.69265" lon="-2.21383">
        <ele>58.7</ele>
        <time>2021-05-27T14:45:32Z</time>
      </trkpt>
      <trkpt lat="47.69265" lon="-2.21383">
        <ele>58.7</ele>
        <time>2021-05-27T14:45:33Z</time>
      </trkpt>
      <trkpt lat="47.69265" lon="-2.21383">
        <ele>58.7</ele>
        <time>2021-05-27T14:45:34Z</time>
      </trkpt>
      <trkpt lat="47.69265" lon="-2.21383">
        <ele>58.7</ele>
        <time>2021-05-27T14:45:35Z</time>
      </trkpt>
      <trkpt lat="47.69265" lon="-2.21383">
        <ele>58.7</ele>
        <time>2021-05-27T14:45:36Z</time>
      </trkpt>
      <trkpt lat="47.69265" lon="-2.21383">
        <ele>58.7</ele>
        <time>2021-05-27T14:45:37Z</time>
      </trkpt>
      <trkpt lat="47.69265" lon="-2.21383">
        <ele>58.7</ele>
        <time>2021-05-27T14:45:38Z</time>
      </trkpt>
      <trkpt lat="47.69265" lon="-2.21383">
        <ele>58.7</ele>
        <time>2021-05-27T14:45:39Z</time>
      </trkpt>
      <trkpt lat="47.69263" lon="-2.21368">
        <ele>58.7</ele>
        <time>2021-05-27T14:45:40Z</time>
      </trkpt>
      <trkpt lat="47.69263" lon="-2.21366">
        <ele>58.7</ele>
        <time>2021-05-27T14:45:41Z</time>
      </trkpt>
      <trkpt lat="47.69263" lon="-2.21363">
        <ele>58.7</ele>
        <time>2021-05-27T14:45:42Z</time>
      </trkpt>
      <trkpt lat="47.69263" lon="-2.21359">
        <ele>58.3</ele>
        <time>2021-05-27T14:45:43Z</time>
      </trkpt>
      <trkpt lat="47.69263" lon="-2.21356">
        <ele>58.3</ele>
        <time>2021-05-27T14:45:44Z</time>
      </trkpt>
      <trkpt lat="47.69263" lon="-2.21352">
        <ele>58.2</ele>
        <time>2021-05-27T14:45:45Z</time>
      </trkpt>
      <trkpt lat="47.69263" lon="-2.21349">
        <ele>58</ele>
        <time>2021-05-27T14:45:46Z</time>
      </trkpt>
      <trkpt lat="47.69263" lon="-2.21346">
        <ele>57.6</ele>
        <time>2021-05-27T14:45:47Z</time>
      </trkpt>
      <trkpt lat="47.69265" lon="-2.21344">
        <ele>56.8</ele>
        <time>2021-05-27T14:45:48Z</time>
      </trkpt>
      <trkpt lat="47.69267" lon="-2.21342">
        <ele>56.3</ele>
        <time>2021-05-27T14:45:49Z</time>
      </trkpt>
      <trkpt lat="47.69267" lon="-2.21339">
        <ele>55.8</ele>
        <time>2021-05-27T14:45:50Z</time>
      </trkpt>
      <trkpt lat="47.69268" lon="-2.21335">
        <ele>55.4</ele>
        <time>2021-05-27T14:45:51Z</time>
      </trkpt>
      <trkpt lat="47.69267" lon="-2.21332">
        <ele>55.4</ele>
        <time>2021-05-27T14:45:52Z</time>
      </trkpt>
      <trkpt lat="47.69267" lon="-2.21328">
        <ele>55.6</ele>
        <time>2021-05-27T14:45:53Z</time>
      </trkpt>
      <trkpt lat="47.69267" lon="-2.21324">
        <ele>55.2</ele>
        <time>2021-05-27T14:45:54Z</time>
      </trkpt>
      <trkpt lat="47.69268" lon="-2.2132">
        <ele>54.8</ele>
        <time>2021-05-27T14:45:55Z</time>
      </trkpt>
      <trkpt lat="47.69268" lon="-2.21315">
        <ele>54.4</ele>
        <time>2021-05-27T14:45:56Z</time>
      </trkpt>
      <trkpt lat="47.69268" lon="-2.21311">
        <ele>54.3</ele>
        <time>2021-05-27T14:45:57Z</time>
      </trkpt>
      <trkpt lat="47.69267" lon="-2.21308">
        <ele>54.8</ele>
        <time>2021-05-27T14:45:58Z</time>
      </trkpt>
      <trkpt lat="47.69266" lon="-2.21306">
        <ele>54.8</ele>
        <time>2021-05-27T14:45:59Z</time>
      </trkpt>
      <trkpt lat="47.69265" lon="-2.21304">
        <ele>55</ele>
        <time>2021-05-27T14:46:00Z</time>
      </trkpt>
      <trkpt lat="47.69264" lon="-2.21303">
        <ele>55.3</ele>
        <time>2021-05-27T14:46:01Z</time>
      </trkpt>
      <trkpt lat="47.69264" lon="-2.21302">
        <ele>55.5</ele>
        <time>2021-05-27T14:46:02Z</time>
      </trkpt>
      <trkpt lat="47.69262" lon="-2.21303">
        <ele>56.1</ele>
        <time>2021-05-27T14:46:03Z</time>
      </trkpt>
      <trkpt lat="47.6926" lon="-2.21303">
        <ele>57</ele>
        <time>2021-05-27T14:46:04Z</time>
      </trkpt>
      <trkpt lat="47.69258" lon="-2.21303">
        <ele>57.5</ele>
        <time>2021-05-27T14:46:05Z</time>
      </trkpt>
      <trkpt lat="47.69258" lon="-2.21304">
        <ele>57.7</ele>
        <time>2021-05-27T14:46:06Z</time>
      </trkpt>
      <trkpt lat="47.69257" lon="-2.21304">
        <ele>57.8</ele>
        <time>2021-05-27T14:46:07Z</time>
      </trkpt>
      <trkpt lat="47.69257" lon="-2.21303">
        <ele>57.9</ele>
        <time>2021-05-27T14:46:08Z</time>
      </trkpt>
      <trkpt lat="47.69257" lon="-2.21303">
        <ele>57.9</ele>
        <time>2021-05-27T14:46:09Z</time>
      </trkpt>
      <trkpt lat="47.69257" lon="-2.21303">
        <ele>57.9</ele>
        <time>2021-05-27T14:46:10Z</time>
      </trkpt>
      <trkpt lat="47.69257" lon="-2.21303">
        <ele>57.9</ele>
        <time>2021-05-27T14:46:11Z</time>
      </trkpt>
      <trkpt lat="47.69257" lon="-2.21303">
        <ele>57.9</ele>
        <time>2021-05-27T14:46:12Z</time>
      </trkpt>
      <trkpt lat="47.69257" lon="-2.21303">
        <ele>57.9</ele>
        <time>2021-05-27T14:46:13Z</time>
      </trkpt>
      <trkpt lat="47.69257" lon="-2.21303">
        <ele>57.9</ele>
        <time>2021-05-27T14:46:14Z</time>
      </trkpt>
      <trkpt lat="47.69257" lon="-2.21303">
        <ele>57.9</ele>
        <time>2021-05-27T14:46:15Z</time>
      </trkpt>
      <trkpt lat="47.69257" lon="-2.21303">
        <ele>57.9</ele>
        <time>2021-05-27T14:46:16Z</time>
      </trkpt>
      <trkpt lat="47.69257" lon="-2.21303">
        <ele>57.9</ele>
        <time>2021-05-27T14:46:17Z</time>
      </trkpt>
      <trkpt lat="47.69257" lon="-2.21303">
        <ele>57.9</ele>
        <time>2021-05-27T14:46:18Z</time>
      </trkpt>
      <trkpt lat="47.69257" lon="-2.21303">
        <ele>57.9</ele>
        <time>2021-05-27T14:46:19Z</time>
      </trkpt>
      <trkpt lat="47.69257" lon="-2.21291">
        <ele>57.4</ele>
        <time>2021-05-27T14:46:20Z</time>
      </trkpt>
      <trkpt lat="47.69256" lon="-2.2129">
        <ele>57.8</ele>
        <time>2021-05-27T14:46:21Z</time>
      </trkpt>
      <trkpt lat="47.69254" lon="-2.21289">
        <ele>58.3</ele>
        <time>2021-05-27T14:46:22Z</time>
      </trkpt>
      <trkpt lat="47.69252" lon="-2.21288">
        <ele>59</ele>
        <time>2021-05-27T14:46:23Z</time>
      </trkpt>
      <trkpt lat="47.69252" lon="-2.21286">
        <ele>59.1</ele>
        <time>2021-05-27T14:46:24Z</time>
      </trkpt>
      <trkpt lat="47.69251" lon="-2.21283">
        <ele>59.2</ele>
        <time>2021-05-27T14:46:25Z</time>
      </trkpt>
      <trkpt lat="47.69251" lon="-2.2128">
        <ele>59.1</ele>
        <time>2021-05-27T14:46:26Z</time>
      </trkpt>
      <trkpt lat="47.69251" lon="-2.21276">
        <ele>58.7</ele>
        <time>2021-05-27T14:46:27Z</time>
      </trkpt>
      <trkpt lat="47.69253" lon="-2.21274">
        <ele>58</ele>
        <time>2021-05-27T14:46:28Z</time>
      </trkpt>
      <trkpt lat="47.69255" lon="-2.2127">
        <ele>57.3</ele>
        <time>2021-05-27T14:46:29Z</time>
      </trkpt>
      <trkpt lat="47.69256" lon="-2.21266">
        <ele>56.6</ele>
        <time>2021-05-27T14:46:30Z</time>
      </trkpt>
      <trkpt lat="47.69258" lon="-2.21261">
        <ele>55.7</ele>
        <time>2021-05-27T14:46:31Z</time>
      </trkpt>
      <trkpt lat="47.6926" lon="-2.21257">
        <ele>55</ele>
        <time>2021-05-27T14:46:32Z</time>
      </trkpt>
      <trkpt lat="47.6926" lon="-2.21254">
        <ele>54.8</ele>
        <time>2021-05-27T14:46:33Z</time>
      </trkpt>
      <trkpt lat="47.6926" lon="-2.21252">
        <ele>54.5</ele>
        <time>2021-05-27T14:46:34Z</time>
      </trkpt>
      <trkpt lat="47.69261" lon="-2.21247">
        <ele>54.2</ele>
        <time>2021-05-27T14:46:35Z</time>
      </trkpt>
      <trkpt lat="47.69261" lon="-2.21242">
        <ele>53.7</ele>
        <time>2021-05-27T14:46:36Z</time>
      </trkpt>
      <trkpt lat="47.69261" lon="-2.21236">
        <ele>53.6</ele>
        <time>2021-05-27T14:46:37Z</time>
      </trkpt>
      <trkpt lat="47.6926" lon="-2.21232">
        <ele>53.5</ele>
        <time>2021-05-27T14:46:38Z</time>
      </trkpt>
      <trkpt lat="47.6926" lon="-2.21228">
        <ele>53.4</ele>
        <time>2021-05-27T14:46:39Z</time>
      </trkpt>
      <trkpt lat="47.6926" lon="-2.21224">
        <ele>53.3</ele>
        <time>2021-05-27T14:46:40Z</time>
      </trkpt>
      <trkpt lat="47.6926" lon="-2.2122">
        <ele>53.1</ele>
        <time>2021-05-27T14:46:41Z</time>
      </trkpt>
      <trkpt lat="47.69259" lon="-2.21215">
        <ele>53.2</ele>
        <time>2021-05-27T14:46:42Z</time>
      </trkpt>
      <trkpt lat="47.69258" lon="-2.21212">
        <ele>53.4</ele>
        <time>2021-05-27T14:46:43Z</time>
      </trkpt>
      <trkpt lat="47.69257" lon="-2.21209">
        <ele>53.4</ele>
        <time>2021-05-27T14:46:44Z</time>
      </trkpt>
      <trkpt lat="47.69257" lon="-2.21205">
        <ele>53.2</ele>
        <time>2021-05-27T14:46:45Z</time>
      </trkpt>
      <trkpt lat="47.69258" lon="-2.21201">
        <ele>52.6</ele>
        <time>2021-05-27T14:46:46Z</time>
      </trkpt>
      <trkpt lat="47.6926" lon="-2.21196">
        <ele>52</ele>
        <time>2021-05-27T14:46:47Z</time>
      </trkpt>
      <trkpt lat="47.69261" lon="-2.21192">
        <ele>51.3</ele>
        <time>2021-05-27T14:46:48Z</time>
      </trkpt>
      <trkpt lat="47.69262" lon="-2.21185">
        <ele>50.6</ele>
        <time>2021-05-27T14:46:49Z</time>
      </trkpt>
      <trkpt lat="47.69262" lon="-2.2118">
        <ele>50.4</ele>
        <time>2021-05-27T14:46:50Z</time>
      </trkpt>
      <trkpt lat="47.69262" lon="-2.21176">
        <ele>50.1</ele>
        <time>2021-05-27T14:46:51Z</time>
      </trkpt>
      <trkpt lat="47.69262" lon="-2.21171">
        <ele>49.8</ele>
        <time>2021-05-27T14:46:52Z</time>
      </trkpt>
      <trkpt lat="47.69262" lon="-2.21166">
        <ele>49.5</ele>
        <time>2021-05-27T14:46:53Z</time>
      </trkpt>
      <trkpt lat="47.69263" lon="-2.21161">
        <ele>49.1</ele>
        <time>2021-05-27T14:46:54Z</time>
      </trkpt>
      <trkpt lat="47.69263" lon="-2.21154">
        <ele>48.9</ele>
        <time>2021-05-27T14:46:55Z</time>
      </trkpt>
      <trkpt lat="47.69262" lon="-2.21147">
        <ele>49.1</ele>
        <time>2021-05-27T14:46:56Z</time>
      </trkpt>
      <trkpt lat="47.69261" lon="-2.21143">
        <ele>49.3</ele>
        <time>2021-05-27T14:46:57Z</time>
      </trkpt>
      <trkpt lat="47.6926" lon="-2.21139">
        <ele>49.7</ele>
        <time>2021-05-27T14:46:58Z</time>
      </trkpt>
      <trkpt lat="47.69258" lon="-2.21136">
        <ele>50.1</ele>
        <time>2021-05-27T14:46:59Z</time>
      </trkpt>
      <trkpt lat="47.69257" lon="-2.21133">
        <ele>50.5</ele>
        <time>2021-05-27T14:47:00Z</time>
      </trkpt>
      <trkpt lat="47.69256" lon="-2.21131">
        <ele>51</ele>
        <time>2021-05-27T14:47:01Z</time>
      </trkpt>
      <trkpt lat="47.69255" lon="-2.21129">
        <ele>51.1</ele>
        <time>2021-05-27T14:47:02Z</time>
      </trkpt>
      <trkpt lat="47.69256" lon="-2.21126">
        <ele>50.7</ele>
        <time>2021-05-27T14:47:03Z</time>
      </trkpt>
      <trkpt lat="47.69258" lon="-2.21122">
        <ele>50</ele>
        <time>2021-05-27T14:47:04Z</time>
      </trkpt>
      <trkpt lat="47.69258" lon="-2.21116">
        <ele>49.7</ele>
        <time>2021-05-27T14:47:05Z</time>
      </trkpt>
      <trkpt lat="47.69258" lon="-2.2111">
        <ele>49.8</ele>
        <time>2021-05-27T14:47:06Z</time>
      </trkpt>
      <trkpt lat="47.69257" lon="-2.21106">
        <ele>49.8</ele>
        <time>2021-05-27T14:47:07Z</time>
      </trkpt>
      <trkpt lat="47.69257" lon="-2.21102">
        <ele>50</ele>
        <time>2021-05-27T14:47:08Z</time>
      </trkpt>
      <trkpt lat="47.69256" lon="-2.21098">
        <ele>50.1</ele>
        <time>2021-05-27T14:47:09Z</time>
      </trkpt>
      <trkpt lat="47.69256" lon="-2.21095">
        <ele>50.2</ele>
        <time>2021-05-27T14:47:10Z</time>
      </trkpt>
      <trkpt lat="47.69255" lon="-2.21092">
        <ele>50.3</ele>
        <time>2021-05-27T14:47:11Z</time>
      </trkpt>
      <trkpt lat="47.69254" lon="-2.21089">
        <ele>50.5</ele>
        <time>2021-05-27T14:47:12Z</time>
      </trkpt>
      <trkpt lat="47.69254" lon="-2.21085">
        <ele>50.5</ele>
        <time>2021-05-27T14:47:13Z</time>
      </trkpt>
      <trkpt lat="47.69254" lon="-2.21081">
        <ele>50.5</ele>
        <time>2021-05-27T14:47:14Z</time>
      </trkpt>
      <trkpt lat="47.69254" lon="-2.21076">
        <ele>50.5</ele>
        <time>2021-05-27T14:47:15Z</time>
      </trkpt>
      <trkpt lat="47.69253" lon="-2.21071">
        <ele>50.7</ele>
        <time>2021-05-27T14:47:16Z</time>
      </trkpt>
      <trkpt lat="47.69252" lon="-2.21066">
        <ele>51</ele>
        <time>2021-05-27T14:47:17Z</time>
      </trkpt>
      <trkpt lat="47.69251" lon="-2.21062">
        <ele>51.3</ele>
        <time>2021-05-27T14:47:18Z</time>
      </trkpt>
      <trkpt lat="47.6925" lon="-2.21058">
        <ele>51.4</ele>
        <time>2021-05-27T14:47:19Z</time>
      </trkpt>
      <trkpt lat="47.6925" lon="-2.21054">
        <ele>51.3</ele>
        <time>2021-05-27T14:47:20Z</time>
      </trkpt>
      <trkpt lat="47.69248" lon="-2.21051">
        <ele>51.4</ele>
        <time>2021-05-27T14:47:21Z</time>
      </trkpt>
      <trkpt lat="47.69248" lon="-2.21047">
        <ele>51.3</ele>
        <time>2021-05-27T14:47:22Z</time>
      </trkpt>
      <trkpt lat="47.69247" lon="-2.21043">
        <ele>51.3</ele>
        <time>2021-05-27T14:47:23Z</time>
      </trkpt>
      <trkpt lat="47.69246" lon="-2.2104">
        <ele>51.4</ele>
        <time>2021-05-27T14:47:24Z</time>
      </trkpt>
      <trkpt lat="47.69245" lon="-2.21036">
        <ele>51.4</ele>
        <time>2021-05-27T14:47:25Z</time>
      </trkpt>
      <trkpt lat="47.69244" lon="-2.21034">
        <ele>51.4</ele>
        <time>2021-05-27T14:47:26Z</time>
      </trkpt>
      <trkpt lat="47.69244" lon="-2.21031">
        <ele>51.4</ele>
        <time>2021-05-27T14:47:27Z</time>
      </trkpt>
      <trkpt lat="47.69245" lon="-2.21027">
        <ele>51.2</ele>
        <time>2021-05-27T14:47:28Z</time>
      </trkpt>
      <trkpt lat="47.69244" lon="-2.21023">
        <ele>51.2</ele>
        <time>2021-05-27T14:47:29Z</time>
      </trkpt>
      <trkpt lat="47.69244" lon="-2.21018">
        <ele>51.1</ele>
        <time>2021-05-27T14:47:30Z</time>
      </trkpt>
      <trkpt lat="47.69244" lon="-2.21015">
        <ele>51</ele>
        <time>2021-05-27T14:47:31Z</time>
      </trkpt>
      <trkpt lat="47.69244" lon="-2.21011">
        <ele>51</ele>
        <time>2021-05-27T14:47:32Z</time>
      </trkpt>
      <trkpt lat="47.69244" lon="-2.21007">
        <ele>50.9</ele>
        <time>2021-05-27T14:47:33Z</time>
      </trkpt>
      <trkpt lat="47.69243" lon="-2.21005">
        <ele>50.9</ele>
        <time>2021-05-27T14:47:34Z</time>
      </trkpt>
      <trkpt lat="47.69243" lon="-2.21003">
        <ele>50.9</ele>
        <time>2021-05-27T14:47:35Z</time>
      </trkpt>
      <trkpt lat="47.69241" lon="-2.21001">
        <ele>51.1</ele>
        <time>2021-05-27T14:47:36Z</time>
      </trkpt>
      <trkpt lat="47.69241" lon="-2.20999">
        <ele>51</ele>
        <time>2021-05-27T14:47:37Z</time>
      </trkpt>
      <trkpt lat="47.69241" lon="-2.20997">
        <ele>50.9</ele>
        <time>2021-05-27T14:47:38Z</time>
      </trkpt>
      <trkpt lat="47.69241" lon="-2.20995">
        <ele>50.9</ele>
        <time>2021-05-27T14:47:39Z</time>
      </trkpt>
      <trkpt lat="47.6924" lon="-2.20994">
        <ele>50.9</ele>
        <time>2021-05-27T14:47:40Z</time>
      </trkpt>
      <trkpt lat="47.6924" lon="-2.20992">
        <ele>50.8</ele>
        <time>2021-05-27T14:47:41Z</time>
      </trkpt>
      <trkpt lat="47.6924" lon="-2.20991">
        <ele>50.8</ele>
        <time>2021-05-27T14:47:42Z</time>
      </trkpt>
      <trkpt lat="47.6924" lon="-2.20991">
        <ele>50.8</ele>
        <time>2021-05-27T14:47:43Z</time>
      </trkpt>
      <trkpt lat="47.6924" lon="-2.20991">
        <ele>50.8</ele>
        <time>2021-05-27T14:47:44Z</time>
      </trkpt>
      <trkpt lat="47.6924" lon="-2.20991">
        <ele>50.8</ele>
        <time>2021-05-27T14:47:45Z</time>
      </trkpt>
      <trkpt lat="47.6924" lon="-2.20991">
        <ele>50.8</ele>
        <time>2021-05-27T14:47:46Z</time>
      </trkpt>
      <trkpt lat="47.6924" lon="-2.20991">
        <ele>50.8</ele>
        <time>2021-05-27T14:47:47Z</time>
      </trkpt>
      <trkpt lat="47.6924" lon="-2.20991">
        <ele>50.8</ele>
        <time>2021-05-27T14:47:48Z</time>
      </trkpt>
      <trkpt lat="47.6924" lon="-2.20991">
        <ele>50.8</ele>
        <time>2021-05-27T14:47:49Z</time>
      </trkpt>
      <trkpt lat="47.6924" lon="-2.20991">
        <ele>50.8</ele>
        <time>2021-05-27T14:47:50Z</time>
      </trkpt>
      <trkpt lat="47.6924" lon="-2.20991">
        <ele>50.8</ele>
        <time>2021-05-27T14:47:51Z</time>
      </trkpt>
      <trkpt lat="47.6924" lon="-2.20991">
        <ele>50.8</ele>
        <time>2021-05-27T14:47:52Z</time>
      </trkpt>
      <trkpt lat="47.6924" lon="-2.20991">
        <ele>50.8</ele>
        <time>2021-05-27T14:47:53Z</time>
      </trkpt>
      <trkpt lat="47.6924" lon="-2.20991">
        <ele>50.8</ele>
        <time>2021-05-27T14:47:54Z</time>
      </trkpt>
      <trkpt lat="47.6924" lon="-2.20991">
        <ele>50.8</ele>
        <time>2021-05-27T14:47:55Z</time>
      </trkpt>
      <trkpt lat="47.6924" lon="-2.20991">
        <ele>50.8</ele>
        <time>2021-05-27T14:47:56Z</time>
      </trkpt>
      <trkpt lat="47.6924" lon="-2.20991">
        <ele>50.8</ele>
        <time>2021-05-27T14:47:57Z</time>
      </trkpt>
      <trkpt lat="47.6924" lon="-2.20991">
        <ele>50.8</ele>
        <time>2021-05-27T14:47:58Z</time>
      </trkpt>
      <trkpt lat="47.6924" lon="-2.20991">
        <ele>50.8</ele>
        <time>2021-05-27T14:47:59Z</time>
      </trkpt>
      <trkpt lat="47.6924" lon="-2.20991">
        <ele>50.8</ele>
        <time>2021-05-27T14:48:00Z</time>
      </trkpt>
      <trkpt lat="47.6924" lon="-2.20991">
        <ele>50.8</ele>
        <time>2021-05-27T14:48:01Z</time>
      </trkpt>
      <trkpt lat="47.6924" lon="-2.20991">
        <ele>50.8</ele>
        <time>2021-05-27T14:48:02Z</time>
      </trkpt>
      <trkpt lat="47.6924" lon="-2.20991">
        <ele>50.8</ele>
        <time>2021-05-27T14:48:03Z</time>
      </trkpt>
      <trkpt lat="47.6924" lon="-2.20991">
        <ele>50.8</ele>
        <time>2021-05-27T14:48:04Z</time>
      </trkpt>
      <trkpt lat="47.6924" lon="-2.20991">
        <ele>50.8</ele>
        <time>2021-05-27T14:48:05Z</time>
      </trkpt>
      <trkpt lat="47.6924" lon="-2.20991">
        <ele>50.8</ele>
        <time>2021-05-27T14:48:06Z</time>
      </trkpt>
      <trkpt lat="47.6924" lon="-2.20991">
        <ele>50.8</ele>
        <time>2021-05-27T14:48:07Z</time>
      </trkpt>
      <trkpt lat="47.6924" lon="-2.20991">
        <ele>50.8</ele>
        <time>2021-05-27T14:48:08Z</time>
      </trkpt>
      <trkpt lat="47.6924" lon="-2.20991">
        <ele>50.8</ele>
        <time>2021-05-27T14:48:09Z</time>
      </trkpt>
      <trkpt lat="47.6924" lon="-2.20991">
        <ele>50.8</ele>
        <time>2021-05-27T14:48:10Z</time>
      </trkpt>
      <trkpt lat="47.6924" lon="-2.20991">
        <ele>50.8</ele>
        <time>2021-05-27T14:48:11Z</time>
      </trkpt>
      <trkpt lat="47.6924" lon="-2.20991">
        <ele>50.8</ele>
        <time>2021-05-27T14:48:12Z</time>
      </trkpt>
      <trkpt lat="47.69239" lon="-2.20993">
        <ele>51</ele>
        <time>2021-05-27T14:48:13Z</time>
      </trkpt>
      <trkpt lat="47.69238" lon="-2.20994">
        <ele>51.2</ele>
        <time>2021-05-27T14:48:14Z</time>
      </trkpt>
      <trkpt lat="47.69238" lon="-2.20996">
        <ele>51.3</ele>
        <time>2021-05-27T14:48:15Z</time>
      </trkpt>
      <trkpt lat="47.69237" lon="-2.20998">
        <ele>51.5</ele>
        <time>2021-05-27T14:48:16Z</time>
      </trkpt>
      <trkpt lat="47.69236" lon="-2.21002">
        <ele>51.7</ele>
        <time>2021-05-27T14:48:17Z</time>
      </trkpt>
      <trkpt lat="47.69235" lon="-2.21004">
        <ele>51.9</ele>
        <time>2021-05-27T14:48:18Z</time>
      </trkpt>
      <trkpt lat="47.69233" lon="-2.21007">
        <ele>52.1</ele>
        <time>2021-05-27T14:48:19Z</time>
      </trkpt>
      <trkpt lat="47.69232" lon="-2.21009">
        <ele>52.3</ele>
        <time>2021-05-27T14:48:20Z</time>
      </trkpt>
      <trkpt lat="47.69231" lon="-2.21011">
        <ele>52.5</ele>
        <time>2021-05-27T14:48:21Z</time>
      </trkpt>
      <trkpt lat="47.69231" lon="-2.21013">
        <ele>52.6</ele>
        <time>2021-05-27T14:48:22Z</time>
      </trkpt>
      <trkpt lat="47.6923" lon="-2.21015">
        <ele>52.6</ele>
        <time>2021-05-27T14:48:23Z</time>
      </trkpt>
      <trkpt lat="47.69231" lon="-2.21019">
        <ele>52.7</ele>
        <time>2021-05-27T14:48:24Z</time>
      </trkpt>
      <trkpt lat="47.69231" lon="-2.21021">
        <ele>52.7</ele>
        <time>2021-05-27T14:48:25Z</time>
      </trkpt>
      <trkpt lat="47.69232" lon="-2.21023">
        <ele>52.6</ele>
        <time>2021-05-27T14:48:26Z</time>
      </trkpt>
      <trkpt lat="47.69232" lon="-2.21025">
        <ele>52.6</ele>
        <time>2021-05-27T14:48:27Z</time>
      </trkpt>
      <trkpt lat="47.69232" lon="-2.21027">
        <ele>52.6</ele>
        <time>2021-05-27T14:48:28Z</time>
      </trkpt>
      <trkpt lat="47.69232" lon="-2.21029">
        <ele>52.6</ele>
        <time>2021-05-27T14:48:29Z</time>
      </trkpt>
      <trkpt lat="47.69233" lon="-2.2103">
        <ele>52.6</ele>
        <time>2021-05-27T14:48:30Z</time>
      </trkpt>
      <trkpt lat="47.69233" lon="-2.21031">
        <ele>52.6</ele>
        <time>2021-05-27T14:48:31Z</time>
      </trkpt>
      <trkpt lat="47.69234" lon="-2.21033">
        <ele>52.6</ele>
        <time>2021-05-27T14:48:32Z</time>
      </trkpt>
      <trkpt lat="47.69233" lon="-2.21035">
        <ele>52.7</ele>
        <time>2021-05-27T14:48:33Z</time>
      </trkpt>
      <trkpt lat="47.69232" lon="-2.21037">
        <ele>52.8</ele>
        <time>2021-05-27T14:48:34Z</time>
      </trkpt>
      <trkpt lat="47.69231" lon="-2.21039">
        <ele>53.1</ele>
        <time>2021-05-27T14:48:35Z</time>
      </trkpt>
      <trkpt lat="47.69229" lon="-2.21041">
        <ele>53.2</ele>
        <time>2021-05-27T14:48:36Z</time>
      </trkpt>
      <trkpt lat="47.69228" lon="-2.21044">
        <ele>53.4</ele>
        <time>2021-05-27T14:48:37Z</time>
      </trkpt>
      <trkpt lat="47.69228" lon="-2.21047">
        <ele>53.5</ele>
        <time>2021-05-27T14:48:38Z</time>
      </trkpt>
      <trkpt lat="47.69227" lon="-2.21049">
        <ele>53.6</ele>
        <time>2021-05-27T14:48:39Z</time>
      </trkpt>
      <trkpt lat="47.69225" lon="-2.21051">
        <ele>53.8</ele>
        <time>2021-05-27T14:48:40Z</time>
      </trkpt>
      <trkpt lat="47.69224" lon="-2.21053">
        <ele>54</ele>
        <time>2021-05-27T14:48:41Z</time>
      </trkpt>
      <trkpt lat="47.69223" lon="-2.21054">
        <ele>54.1</ele>
        <time>2021-05-27T14:48:42Z</time>
      </trkpt>
      <trkpt lat="47.69222" lon="-2.21055">
        <ele>54.2</ele>
        <time>2021-05-27T14:48:43Z</time>
      </trkpt>
      <trkpt lat="47.69223" lon="-2.21057">
        <ele>54.2</ele>
        <time>2021-05-27T14:48:44Z</time>
      </trkpt>
      <trkpt lat="47.69223" lon="-2.21058">
        <ele>54.2</ele>
        <time>2021-05-27T14:48:45Z</time>
      </trkpt>
      <trkpt lat="47.69222" lon="-2.2106">
        <ele>54.3</ele>
        <time>2021-05-27T14:48:46Z</time>
      </trkpt>
      <trkpt lat="47.69222" lon="-2.2106">
        <ele>54.3</ele>
        <time>2021-05-27T14:48:47Z</time>
      </trkpt>
      <trkpt lat="47.69222" lon="-2.2106">
        <ele>54.3</ele>
        <time>2021-05-27T14:48:48Z</time>
      </trkpt>
      <trkpt lat="47.69222" lon="-2.2106">
        <ele>54.3</ele>
        <time>2021-05-27T14:48:49Z</time>
      </trkpt>
      <trkpt lat="47.69222" lon="-2.2106">
        <ele>54.3</ele>
        <time>2021-05-27T14:48:50Z</time>
      </trkpt>
      <trkpt lat="47.69222" lon="-2.2106">
        <ele>54.3</ele>
        <time>2021-05-27T14:48:51Z</time>
      </trkpt>
      <trkpt lat="47.69224" lon="-2.21065">
        <ele>54.2</ele>
        <time>2021-05-27T14:48:52Z</time>
      </trkpt>
      <trkpt lat="47.69224" lon="-2.21068">
        <ele>54.2</ele>
        <time>2021-05-27T14:48:53Z</time>
      </trkpt>
      <trkpt lat="47.69225" lon="-2.21071">
        <ele>54.2</ele>
        <time>2021-05-27T14:48:54Z</time>
      </trkpt>
      <trkpt lat="47.69225" lon="-2.21074">
        <ele>54.3</ele>
        <time>2021-05-27T14:48:55Z</time>
      </trkpt>
      <trkpt lat="47.69226" lon="-2.21078">
        <ele>54.2</ele>
        <time>2021-05-27T14:48:56Z</time>
      </trkpt>
      <trkpt lat="47.69226" lon="-2.2108">
        <ele>54.2</ele>
        <time>2021-05-27T14:48:57Z</time>
      </trkpt>
      <trkpt lat="47.69227" lon="-2.21083">
        <ele>54.2</ele>
        <time>2021-05-27T14:48:58Z</time>
      </trkpt>
      <trkpt lat="47.69227" lon="-2.21086">
        <ele>54.2</ele>
        <time>2021-05-27T14:48:59Z</time>
      </trkpt>
      <trkpt lat="47.69227" lon="-2.2109">
        <ele>54.3</ele>
        <time>2021-05-27T14:49:00Z</time>
      </trkpt>
      <trkpt lat="47.69227" lon="-2.21093">
        <ele>54.4</ele>
        <time>2021-05-27T14:49:01Z</time>
      </trkpt>
      <trkpt lat="47.69227" lon="-2.21096">
        <ele>54.4</ele>
        <time>2021-05-27T14:49:02Z</time>
      </trkpt>
      <trkpt lat="47.69227" lon="-2.21099">
        <ele>54.5</ele>
        <time>2021-05-27T14:49:03Z</time>
      </trkpt>
      <trkpt lat="47.69227" lon="-2.21102">
        <ele>54.5</ele>
        <time>2021-05-27T14:49:04Z</time>
      </trkpt>
      <trkpt lat="47.69228" lon="-2.21104">
        <ele>54.5</ele>
        <time>2021-05-27T14:49:05Z</time>
      </trkpt>
      <trkpt lat="47.69228" lon="-2.21107">
        <ele>54.5</ele>
        <time>2021-05-27T14:49:06Z</time>
      </trkpt>
      <trkpt lat="47.69228" lon="-2.2111">
        <ele>54.6</ele>
        <time>2021-05-27T14:49:07Z</time>
      </trkpt>
      <trkpt lat="47.69228" lon="-2.21113">
        <ele>54.7</ele>
        <time>2021-05-27T14:49:08Z</time>
      </trkpt>
      <trkpt lat="47.69228" lon="-2.21117">
        <ele>54.8</ele>
        <time>2021-05-27T14:49:09Z</time>
      </trkpt>
      <trkpt lat="47.69227" lon="-2.21121">
        <ele>54.8</ele>
        <time>2021-05-27T14:49:10Z</time>
      </trkpt>
      <trkpt lat="47.69228" lon="-2.21125">
        <ele>54.9</ele>
        <time>2021-05-27T14:49:11Z</time>
      </trkpt>
      <trkpt lat="47.69229" lon="-2.21129">
        <ele>54.8</ele>
        <time>2021-05-27T14:49:12Z</time>
      </trkpt>
      <trkpt lat="47.6923" lon="-2.21131">
        <ele>54.8</ele>
        <time>2021-05-27T14:49:13Z</time>
      </trkpt>
      <trkpt lat="47.69231" lon="-2.21133">
        <ele>54.7</ele>
        <time>2021-05-27T14:49:14Z</time>
      </trkpt>
      <trkpt lat="47.69232" lon="-2.21133">
        <ele>54.7</ele>
        <time>2021-05-27T14:49:15Z</time>
      </trkpt>
      <trkpt lat="47.69233" lon="-2.21134">
        <ele>54.6</ele>
        <time>2021-05-27T14:49:16Z</time>
      </trkpt>
      <trkpt lat="47.69233" lon="-2.21134">
        <ele>54.6</ele>
        <time>2021-05-27T14:49:17Z</time>
      </trkpt>
      <trkpt lat="47.69233" lon="-2.21134">
        <ele>54.6</ele>
        <time>2021-05-27T14:49:18Z</time>
      </trkpt>
      <trkpt lat="47.69233" lon="-2.21134">
        <ele>54.6</ele>
        <time>2021-05-27T14:49:19Z</time>
      </trkpt>
      <trkpt lat="47.69233" lon="-2.21134">
        <ele>54.6</ele>
        <time>2021-05-27T14:49:20Z</time>
      </trkpt>
      <trkpt lat="47.69233" lon="-2.21134">
        <ele>54.6</ele>
        <time>2021-05-27T14:49:21Z</time>
      </trkpt>
      <trkpt lat="47.69233" lon="-2.21134">
        <ele>54.6</ele>
        <time>2021-05-27T14:49:22Z</time>
      </trkpt>
      <trkpt lat="47.69233" lon="-2.21134">
        <ele>54.6</ele>
        <time>2021-05-27T14:49:23Z</time>
      </trkpt>
      <trkpt lat="47.69233" lon="-2.21134">
        <ele>54.6</ele>
        <time>2021-05-27T14:49:24Z</time>
      </trkpt>
      <trkpt lat="47.69233" lon="-2.21134">
        <ele>54.6</ele>
        <time>2021-05-27T14:49:25Z</time>
      </trkpt>
      <trkpt lat="47.69233" lon="-2.21134">
        <ele>54.6</ele>
        <time>2021-05-27T14:49:26Z</time>
      </trkpt>
      <trkpt lat="47.69233" lon="-2.21134">
        <ele>54.6</ele>
        <time>2021-05-27T14:49:27Z</time>
      </trkpt>
      <trkpt lat="47.6924" lon="-2.21141">
        <ele>54.2</ele>
        <time>2021-05-27T14:49:28Z</time>
      </trkpt>
      <trkpt lat="47.6924" lon="-2.21144">
        <ele>54.2</ele>
        <time>2021-05-27T14:49:29Z</time>
      </trkpt>
      <trkpt lat="47.69241" lon="-2.21148">
        <ele>54.3</ele>
        <time>2021-05-27T14:49:30Z</time>
      </trkpt>
      <trkpt lat="47.69241" lon="-2.2115">
        <ele>54.3</ele>
        <time>2021-05-27T14:49:31Z</time>
      </trkpt>
      <trkpt lat="47.6924" lon="-2.21154">
        <ele>54.4</ele>
        <time>2021-05-27T14:49:32Z</time>
      </trkpt>
      <trkpt lat="47.69239" lon="-2.21156">
        <ele>54.6</ele>
        <time>2021-05-27T14:49:33Z</time>
      </trkpt>
      <trkpt lat="47.69238" lon="-2.21158">
        <ele>54.7</ele>
        <time>2021-05-27T14:49:34Z</time>
      </trkpt>
      <trkpt lat="47.69236" lon="-2.2116">
        <ele>54.9</ele>
        <time>2021-05-27T14:49:35Z</time>
      </trkpt>
      <trkpt lat="47.69235" lon="-2.21163">
        <ele>55</ele>
        <time>2021-05-27T14:49:36Z</time>
      </trkpt>
      <trkpt lat="47.69234" lon="-2.21166">
        <ele>55.2</ele>
        <time>2021-05-27T14:49:37Z</time>
      </trkpt>
      <trkpt lat="47.69233" lon="-2.2117">
        <ele>55.4</ele>
        <time>2021-05-27T14:49:38Z</time>
      </trkpt>
      <trkpt lat="47.69232" lon="-2.21175">
        <ele>55.6</ele>
        <time>2021-05-27T14:49:39Z</time>
      </trkpt>
      <trkpt lat="47.69231" lon="-2.21179">
        <ele>55.8</ele>
        <time>2021-05-27T14:49:40Z</time>
      </trkpt>
      <trkpt lat="47.69231" lon="-2.21182">
        <ele>55.9</ele>
        <time>2021-05-27T14:49:41Z</time>
      </trkpt>
      <trkpt lat="47.6923" lon="-2.21186">
        <ele>56.1</ele>
        <time>2021-05-27T14:49:42Z</time>
      </trkpt>
      <trkpt lat="47.6923" lon="-2.2119">
        <ele>56.2</ele>
        <time>2021-05-27T14:49:43Z</time>
      </trkpt>
      <trkpt lat="47.6923" lon="-2.21193">
        <ele>56.3</ele>
        <time>2021-05-27T14:49:44Z</time>
      </trkpt>
      <trkpt lat="47.6923" lon="-2.21197">
        <ele>56.4</ele>
        <time>2021-05-27T14:49:45Z</time>
      </trkpt>
      <trkpt lat="47.6923" lon="-2.212">
        <ele>56.6</ele>
        <time>2021-05-27T14:49:46Z</time>
      </trkpt>
      <trkpt lat="47.69231" lon="-2.21204">
        <ele>56.7</ele>
        <time>2021-05-27T14:49:47Z</time>
      </trkpt>
      <trkpt lat="47.69231" lon="-2.21208">
        <ele>56.8</ele>
        <time>2021-05-27T14:49:48Z</time>
      </trkpt>
      <trkpt lat="47.69231" lon="-2.21211">
        <ele>56.9</ele>
        <time>2021-05-27T14:49:49Z</time>
      </trkpt>
      <trkpt lat="47.69231" lon="-2.21214">
        <ele>57</ele>
        <time>2021-05-27T14:49:50Z</time>
      </trkpt>
      <trkpt lat="47.69232" lon="-2.21216">
        <ele>57</ele>
        <time>2021-05-27T14:49:51Z</time>
      </trkpt>
      <trkpt lat="47.69233" lon="-2.21221">
        <ele>57.1</ele>
        <time>2021-05-27T14:49:52Z</time>
      </trkpt>
      <trkpt lat="47.69234" lon="-2.21225">
        <ele>57.3</ele>
        <time>2021-05-27T14:49:53Z</time>
      </trkpt>
      <trkpt lat="47.69234" lon="-2.2123">
        <ele>57.5</ele>
        <time>2021-05-27T14:49:54Z</time>
      </trkpt>
      <trkpt lat="47.69233" lon="-2.21233">
        <ele>57.6</ele>
        <time>2021-05-27T14:49:55Z</time>
      </trkpt>
      <trkpt lat="47.69233" lon="-2.21237">
        <ele>57.7</ele>
        <time>2021-05-27T14:49:56Z</time>
      </trkpt>
      <trkpt lat="47.69233" lon="-2.21241">
        <ele>57.9</ele>
        <time>2021-05-27T14:49:57Z</time>
      </trkpt>
      <trkpt lat="47.69232" lon="-2.21245">
        <ele>58</ele>
        <time>2021-05-27T14:49:58Z</time>
      </trkpt>
      <trkpt lat="47.69232" lon="-2.21248">
        <ele>58.1</ele>
        <time>2021-05-27T14:49:59Z</time>
      </trkpt>
      <trkpt lat="47.69232" lon="-2.21251">
        <ele>58.3</ele>
        <time>2021-05-27T14:50:00Z</time>
      </trkpt>
      <trkpt lat="47.69231" lon="-2.21255">
        <ele>58.4</ele>
        <time>2021-05-27T14:50:01Z</time>
      </trkpt>
      <trkpt lat="47.69231" lon="-2.21259">
        <ele>58.6</ele>
        <time>2021-05-27T14:50:02Z</time>
      </trkpt>
      <trkpt lat="47.69231" lon="-2.21264">
        <ele>58.8</ele>
        <time>2021-05-27T14:50:03Z</time>
      </trkpt>
      <trkpt lat="47.69231" lon="-2.21269">
        <ele>59</ele>
        <time>2021-05-27T14:50:04Z</time>
      </trkpt>
      <trkpt lat="47.69232" lon="-2.21274">
        <ele>59.2</ele>
        <time>2021-05-27T14:50:05Z</time>
      </trkpt>
      <trkpt lat="47.69232" lon="-2.21278">
        <ele>59.3</ele>
        <time>2021-05-27T14:50:06Z</time>
      </trkpt>
      <trkpt lat="47.69232" lon="-2.21281">
        <ele>59.5</ele>
        <time>2021-05-27T14:50:07Z</time>
      </trkpt>
      <trkpt lat="47.69232" lon="-2.21283">
        <ele>59.5</ele>
        <time>2021-05-27T14:50:08Z</time>
      </trkpt>
      <trkpt lat="47.69232" lon="-2.21287">
        <ele>59.7</ele>
        <time>2021-05-27T14:50:09Z</time>
      </trkpt>
      <trkpt lat="47.69232" lon="-2.2129">
        <ele>59.8</ele>
        <time>2021-05-27T14:50:10Z</time>
      </trkpt>
      <trkpt lat="47.69233" lon="-2.21296">
        <ele>60.1</ele>
        <time>2021-05-27T14:50:11Z</time>
      </trkpt>
      <trkpt lat="47.69233" lon="-2.21301">
        <ele>60.3</ele>
        <time>2021-05-27T14:50:12Z</time>
      </trkpt>
      <trkpt lat="47.69234" lon="-2.21306">
        <ele>60.5</ele>
        <time>2021-05-27T14:50:13Z</time>
      </trkpt>
      <trkpt lat="47.69234" lon="-2.21312">
        <ele>60.7</ele>
        <time>2021-05-27T14:50:14Z</time>
      </trkpt>
      <trkpt lat="47.69236" lon="-2.21317">
        <ele>61</ele>
        <time>2021-05-27T14:50:15Z</time>
      </trkpt>
      <trkpt lat="47.69237" lon="-2.21323">
        <ele>61.2</ele>
        <time>2021-05-27T14:50:16Z</time>
      </trkpt>
      <trkpt lat="47.69238" lon="-2.21327">
        <ele>61.4</ele>
        <time>2021-05-27T14:50:17Z</time>
      </trkpt>
      <trkpt lat="47.69239" lon="-2.21332">
        <ele>61.7</ele>
        <time>2021-05-27T14:50:18Z</time>
      </trkpt>
      <trkpt lat="47.6924" lon="-2.21338">
        <ele>61.9</ele>
        <time>2021-05-27T14:50:19Z</time>
      </trkpt>
      <trkpt lat="47.69241" lon="-2.21343">
        <ele>62.1</ele>
        <time>2021-05-27T14:50:20Z</time>
      </trkpt>
      <trkpt lat="47.69242" lon="-2.21347">
        <ele>62.3</ele>
        <time>2021-05-27T14:50:21Z</time>
      </trkpt>
      <trkpt lat="47.69243" lon="-2.21351">
        <ele>62.4</ele>
        <time>2021-05-27T14:50:22Z</time>
      </trkpt>
      <trkpt lat="47.69244" lon="-2.21355">
        <ele>62.6</ele>
        <time>2021-05-27T14:50:23Z</time>
      </trkpt>
      <trkpt lat="47.69244" lon="-2.21359">
        <ele>62.7</ele>
        <time>2021-05-27T14:50:24Z</time>
      </trkpt>
      <trkpt lat="47.69244" lon="-2.21362">
        <ele>62.8</ele>
        <time>2021-05-27T14:50:25Z</time>
      </trkpt>
      <trkpt lat="47.69245" lon="-2.21366">
        <ele>63</ele>
        <time>2021-05-27T14:50:26Z</time>
      </trkpt>
      <trkpt lat="47.69245" lon="-2.21369">
        <ele>63.1</ele>
        <time>2021-05-27T14:50:27Z</time>
      </trkpt>
      <trkpt lat="47.69245" lon="-2.21373">
        <ele>63.3</ele>
        <time>2021-05-27T14:50:28Z</time>
      </trkpt>
      <trkpt lat="47.69245" lon="-2.21378">
        <ele>63.4</ele>
        <time>2021-05-27T14:50:29Z</time>
      </trkpt>
      <trkpt lat="47.69246" lon="-2.21382">
        <ele>63.6</ele>
        <time>2021-05-27T14:50:30Z</time>
      </trkpt>
      <trkpt lat="47.69246" lon="-2.21387">
        <ele>63.8</ele>
        <time>2021-05-27T14:50:31Z</time>
      </trkpt>
      <trkpt lat="47.69246" lon="-2.21392">
        <ele>64</ele>
        <time>2021-05-27T14:50:32Z</time>
      </trkpt>
      <trkpt lat="47.69246" lon="-2.21398">
        <ele>64.2</ele>
        <time>2021-05-27T14:50:33Z</time>
      </trkpt>
      <trkpt lat="47.69246" lon="-2.21404">
        <ele>64.4</ele>
        <time>2021-05-27T14:50:34Z</time>
      </trkpt>
      <trkpt lat="47.69246" lon="-2.21411">
        <ele>64.6</ele>
        <time>2021-05-27T14:50:35Z</time>
      </trkpt>
      <trkpt lat="47.69247" lon="-2.21416">
        <ele>64.8</ele>
        <time>2021-05-27T14:50:36Z</time>
      </trkpt>
      <trkpt lat="47.69248" lon="-2.21422">
        <ele>64.8</ele>
        <time>2021-05-27T14:50:37Z</time>
      </trkpt>
      <trkpt lat="47.69249" lon="-2.21429">
        <ele>64.7</ele>
        <time>2021-05-27T14:50:38Z</time>
      </trkpt>
      <trkpt lat="47.6925" lon="-2.21435">
        <ele>64.5</ele>
        <time>2021-05-27T14:50:39Z</time>
      </trkpt>
      <trkpt lat="47.69252" lon="-2.21441">
        <ele>63.9</ele>
        <time>2021-05-27T14:50:40Z</time>
      </trkpt>
      <trkpt lat="47.69253" lon="-2.21447">
        <ele>63.4</ele>
        <time>2021-05-27T14:50:41Z</time>
      </trkpt>
      <trkpt lat="47.69254" lon="-2.21452">
        <ele>63.1</ele>
        <time>2021-05-27T14:50:42Z</time>
      </trkpt>
      <trkpt lat="47.69255" lon="-2.21459">
        <ele>62.5</ele>
        <time>2021-05-27T14:50:43Z</time>
      </trkpt>
      <trkpt lat="47.69257" lon="-2.21465">
        <ele>61.9</ele>
        <time>2021-05-27T14:50:44Z</time>
      </trkpt>
      <trkpt lat="47.69258" lon="-2.21471">
        <ele>61.4</ele>
        <time>2021-05-27T14:50:45Z</time>
      </trkpt>
      <trkpt lat="47.69259" lon="-2.21477">
        <ele>61.1</ele>
        <time>2021-05-27T14:50:46Z</time>
      </trkpt>
      <trkpt lat="47.69261" lon="-2.21483">
        <ele>60.7</ele>
        <time>2021-05-27T14:50:47Z</time>
      </trkpt>
      <trkpt lat="47.69262" lon="-2.21488">
        <ele>60.3</ele>
        <time>2021-05-27T14:50:48Z</time>
      </trkpt>
      <trkpt lat="47.69263" lon="-2.21493">
        <ele>59.9</ele>
        <time>2021-05-27T14:50:49Z</time>
      </trkpt>
      <trkpt lat="47.69265" lon="-2.215">
        <ele>59.4</ele>
        <time>2021-05-27T14:50:50Z</time>
      </trkpt>
      <trkpt lat="47.69266" lon="-2.21507">
        <ele>58.9</ele>
        <time>2021-05-27T14:50:51Z</time>
      </trkpt>
      <trkpt lat="47.69267" lon="-2.21513">
        <ele>58.4</ele>
        <time>2021-05-27T14:50:52Z</time>
      </trkpt>
      <trkpt lat="47.69268" lon="-2.21518">
        <ele>58</ele>
        <time>2021-05-27T14:50:53Z</time>
      </trkpt>
      <trkpt lat="47.6927" lon="-2.21522">
        <ele>57.6</ele>
        <time>2021-05-27T14:50:54Z</time>
      </trkpt>
      <trkpt lat="47.6927" lon="-2.21525">
        <ele>57.3</ele>
        <time>2021-05-27T14:50:55Z</time>
      </trkpt>
      <trkpt lat="47.69271" lon="-2.21527">
        <ele>57.2</ele>
        <time>2021-05-27T14:50:56Z</time>
      </trkpt>
      <trkpt lat="47.6927" lon="-2.21528">
        <ele>57.2</ele>
        <time>2021-05-27T14:50:57Z</time>
      </trkpt>
      <trkpt lat="47.6927" lon="-2.21528">
        <ele>57.3</ele>
        <time>2021-05-27T14:50:58Z</time>
      </trkpt>
      <trkpt lat="47.6927" lon="-2.21528">
        <ele>57.3</ele>
        <time>2021-05-27T14:50:59Z</time>
      </trkpt>
      <trkpt lat="47.6927" lon="-2.21528">
        <ele>57.3</ele>
        <time>2021-05-27T14:51:00Z</time>
      </trkpt>
      <trkpt lat="47.6927" lon="-2.21528">
        <ele>57.3</ele>
        <time>2021-05-27T14:51:01Z</time>
      </trkpt>
      <trkpt lat="47.6927" lon="-2.21528">
        <ele>57.3</ele>
        <time>2021-05-27T14:51:02Z</time>
      </trkpt>
      <trkpt lat="47.6927" lon="-2.21528">
        <ele>57.3</ele>
        <time>2021-05-27T14:51:03Z</time>
      </trkpt>
      <trkpt lat="47.69264" lon="-2.21523">
        <ele>58.9</ele>
        <time>2021-05-27T14:51:04Z</time>
      </trkpt>
      <trkpt lat="47.69262" lon="-2.21522">
        <ele>59.3</ele>
        <time>2021-05-27T14:51:05Z</time>
      </trkpt>
      <trkpt lat="47.6926" lon="-2.21521">
        <ele>59.7</ele>
        <time>2021-05-27T14:51:06Z</time>
      </trkpt>
      <trkpt lat="47.69258" lon="-2.21521">
        <ele>60.2</ele>
        <time>2021-05-27T14:51:07Z</time>
      </trkpt>
      <trkpt lat="47.69256" lon="-2.2152">
        <ele>60.8</ele>
        <time>2021-05-27T14:51:08Z</time>
      </trkpt>
      <trkpt lat="47.69254" lon="-2.2152">
        <ele>61</ele>
        <time>2021-05-27T14:51:09Z</time>
      </trkpt>
      <trkpt lat="47.69253" lon="-2.21517">
        <ele>61.4</ele>
        <time>2021-05-27T14:51:10Z</time>
      </trkpt>
      <trkpt lat="47.69252" lon="-2.21515">
        <ele>61.7</ele>
        <time>2021-05-27T14:51:11Z</time>
      </trkpt>
      <trkpt lat="47.69251" lon="-2.21513">
        <ele>62.1</ele>
        <time>2021-05-27T14:51:12Z</time>
      </trkpt>
      <trkpt lat="47.6925" lon="-2.2151">
        <ele>62.5</ele>
        <time>2021-05-27T14:51:13Z</time>
      </trkpt>
      <trkpt lat="47.6925" lon="-2.21506">
        <ele>62.7</ele>
        <time>2021-05-27T14:51:14Z</time>
      </trkpt>
      <trkpt lat="47.6925" lon="-2.21503">
        <ele>62.8</ele>
        <time>2021-05-27T14:51:15Z</time>
      </trkpt>
      <trkpt lat="47.6925" lon="-2.21498">
        <ele>63</ele>
        <time>2021-05-27T14:51:16Z</time>
      </trkpt>
      <trkpt lat="47.6925" lon="-2.21495">
        <ele>63.1</ele>
        <time>2021-05-27T14:51:17Z</time>
      </trkpt>
      <trkpt lat="47.6925" lon="-2.21491">
        <ele>63.2</ele>
        <time>2021-05-27T14:51:18Z</time>
      </trkpt>
      <trkpt lat="47.69248" lon="-2.21488">
        <ele>63.2</ele>
        <time>2021-05-27T14:51:19Z</time>
      </trkpt>
      <trkpt lat="47.69247" lon="-2.21485">
        <ele>63.3</ele>
        <time>2021-05-27T14:51:20Z</time>
      </trkpt>
      <trkpt lat="47.69246" lon="-2.21481">
        <ele>63.3</ele>
        <time>2021-05-27T14:51:21Z</time>
      </trkpt>
      <trkpt lat="47.69245" lon="-2.21478">
        <ele>63.3</ele>
        <time>2021-05-27T14:51:22Z</time>
      </trkpt>
      <trkpt lat="47.69244" lon="-2.21475">
        <ele>63.4</ele>
        <time>2021-05-27T14:51:23Z</time>
      </trkpt>
      <trkpt lat="47.69242" lon="-2.21471">
        <ele>63.4</ele>
        <time>2021-05-27T14:51:24Z</time>
      </trkpt>
      <trkpt lat="47.69241" lon="-2.21468">
        <ele>63.4</ele>
        <time>2021-05-27T14:51:25Z</time>
      </trkpt>
      <trkpt lat="47.6924" lon="-2.21464">
        <ele>63.5</ele>
        <time>2021-05-27T14:51:26Z</time>
      </trkpt>
      <trkpt lat="47.6924" lon="-2.21462">
        <ele>63.5</ele>
        <time>2021-05-27T14:51:27Z</time>
      </trkpt>
      <trkpt lat="47.6924" lon="-2.21458">
        <ele>63.6</ele>
        <time>2021-05-27T14:51:28Z</time>
      </trkpt>
      <trkpt lat="47.69239" lon="-2.21454">
        <ele>63.6</ele>
        <time>2021-05-27T14:51:29Z</time>
      </trkpt>
      <trkpt lat="47.69239" lon="-2.21451">
        <ele>63.7</ele>
        <time>2021-05-27T14:51:30Z</time>
      </trkpt>
      <trkpt lat="47.69238" lon="-2.21447">
        <ele>63.8</ele>
        <time>2021-05-27T14:51:31Z</time>
      </trkpt>
      <trkpt lat="47.69238" lon="-2.21442">
        <ele>63.9</ele>
        <time>2021-05-27T14:51:32Z</time>
      </trkpt>
      <trkpt lat="47.69238" lon="-2.21438">
        <ele>63.9</ele>
        <time>2021-05-27T14:51:33Z</time>
      </trkpt>
      <trkpt lat="47.69238" lon="-2.21433">
        <ele>64</ele>
        <time>2021-05-27T14:51:34Z</time>
      </trkpt>
      <trkpt lat="47.69237" lon="-2.21429">
        <ele>64.1</ele>
        <time>2021-05-27T14:51:35Z</time>
      </trkpt>
      <trkpt lat="47.69235" lon="-2.21426">
        <ele>64.1</ele>
        <time>2021-05-27T14:51:36Z</time>
      </trkpt>
      <trkpt lat="47.69235" lon="-2.21423">
        <ele>64.1</ele>
        <time>2021-05-27T14:51:37Z</time>
      </trkpt>
      <trkpt lat="47.69235" lon="-2.21419">
        <ele>64.2</ele>
        <time>2021-05-27T14:51:38Z</time>
      </trkpt>
      <trkpt lat="47.69235" lon="-2.21415">
        <ele>64.2</ele>
        <time>2021-05-27T14:51:39Z</time>
      </trkpt>
      <trkpt lat="47.69236" lon="-2.2141">
        <ele>64.1</ele>
        <time>2021-05-27T14:51:40Z</time>
      </trkpt>
      <trkpt lat="47.69236" lon="-2.21404">
        <ele>63.9</ele>
        <time>2021-05-27T14:51:41Z</time>
      </trkpt>
      <trkpt lat="47.69237" lon="-2.21399">
        <ele>63.8</ele>
        <time>2021-05-27T14:51:42Z</time>
      </trkpt>
      <trkpt lat="47.69237" lon="-2.21395">
        <ele>63.6</ele>
        <time>2021-05-27T14:51:43Z</time>
      </trkpt>
      <trkpt lat="47.69235" lon="-2.21389">
        <ele>63.4</ele>
        <time>2021-05-27T14:51:44Z</time>
      </trkpt>
      <trkpt lat="47.69234" lon="-2.21385">
        <ele>63.2</ele>
        <time>2021-05-27T14:51:45Z</time>
      </trkpt>
      <trkpt lat="47.69234" lon="-2.21381">
        <ele>63.1</ele>
        <time>2021-05-27T14:51:46Z</time>
      </trkpt>
      <trkpt lat="47.69235" lon="-2.21378">
        <ele>63.1</ele>
        <time>2021-05-27T14:51:47Z</time>
      </trkpt>
      <trkpt lat="47.69236" lon="-2.21374">
        <ele>63</ele>
        <time>2021-05-27T14:51:48Z</time>
      </trkpt>
      <trkpt lat="47.69235" lon="-2.21369">
        <ele>62.8</ele>
        <time>2021-05-27T14:51:49Z</time>
      </trkpt>
      <trkpt lat="47.69235" lon="-2.21364">
        <ele>62.6</ele>
        <time>2021-05-27T14:51:50Z</time>
      </trkpt>
      <trkpt lat="47.69234" lon="-2.21361">
        <ele>62.5</ele>
        <time>2021-05-27T14:51:51Z</time>
      </trkpt>
      <trkpt lat="47.69231" lon="-2.21357">
        <ele>62.3</ele>
        <time>2021-05-27T14:51:52Z</time>
      </trkpt>
      <trkpt lat="47.69228" lon="-2.21353">
        <ele>62.1</ele>
        <time>2021-05-27T14:51:53Z</time>
      </trkpt>
      <trkpt lat="47.69226" lon="-2.21348">
        <ele>61.9</ele>
        <time>2021-05-27T14:51:54Z</time>
      </trkpt>
      <trkpt lat="47.69225" lon="-2.21343">
        <ele>61.7</ele>
        <time>2021-05-27T14:51:55Z</time>
      </trkpt>
      <trkpt lat="47.69224" lon="-2.21338">
        <ele>61.5</ele>
        <time>2021-05-27T14:51:56Z</time>
      </trkpt>
      <trkpt lat="47.69223" lon="-2.21333">
        <ele>61.4</ele>
        <time>2021-05-27T14:51:57Z</time>
      </trkpt>
      <trkpt lat="47.69223" lon="-2.21329">
        <ele>61.2</ele>
        <time>2021-05-27T14:51:58Z</time>
      </trkpt>
      <trkpt lat="47.69222" lon="-2.21324">
        <ele>61</ele>
        <time>2021-05-27T14:51:59Z</time>
      </trkpt>
      <trkpt lat="47.69222" lon="-2.21321">
        <ele>60.9</ele>
        <time>2021-05-27T14:52:00Z</time>
      </trkpt>
      <trkpt lat="47.69222" lon="-2.21318">
        <ele>60.8</ele>
        <time>2021-05-27T14:52:01Z</time>
      </trkpt>
      <trkpt lat="47.69223" lon="-2.21313">
        <ele>60.6</ele>
        <time>2021-05-27T14:52:02Z</time>
      </trkpt>
      <trkpt lat="47.69224" lon="-2.21309">
        <ele>60.5</ele>
        <time>2021-05-27T14:52:03Z</time>
      </trkpt>
      <trkpt lat="47.69225" lon="-2.21306">
        <ele>60.4</ele>
        <time>2021-05-27T14:52:04Z</time>
      </trkpt>
      <trkpt lat="47.69224" lon="-2.213">
        <ele>60.2</ele>
        <time>2021-05-27T14:52:05Z</time>
      </trkpt>
      <trkpt lat="47.69223" lon="-2.21295">
        <ele>60</ele>
        <time>2021-05-27T14:52:06Z</time>
      </trkpt>
      <trkpt lat="47.69222" lon="-2.21291">
        <ele>59.8</ele>
        <time>2021-05-27T14:52:07Z</time>
      </trkpt>
      <trkpt lat="47.69222" lon="-2.21287">
        <ele>59.7</ele>
        <time>2021-05-27T14:52:08Z</time>
      </trkpt>
      <trkpt lat="47.6922" lon="-2.21283">
        <ele>59.5</ele>
        <time>2021-05-27T14:52:09Z</time>
      </trkpt>
      <trkpt lat="47.69219" lon="-2.21276">
        <ele>59.3</ele>
        <time>2021-05-27T14:52:10Z</time>
      </trkpt>
      <trkpt lat="47.69219" lon="-2.21272">
        <ele>59.1</ele>
        <time>2021-05-27T14:52:11Z</time>
      </trkpt>
      <trkpt lat="47.69221" lon="-2.2127">
        <ele>59.1</ele>
        <time>2021-05-27T14:52:12Z</time>
      </trkpt>
      <trkpt lat="47.69221" lon="-2.21265">
        <ele>58.9</ele>
        <time>2021-05-27T14:52:13Z</time>
      </trkpt>
      <trkpt lat="47.69221" lon="-2.21261">
        <ele>58.7</ele>
        <time>2021-05-27T14:52:14Z</time>
      </trkpt>
      <trkpt lat="47.69221" lon="-2.21258">
        <ele>58.6</ele>
        <time>2021-05-27T14:52:15Z</time>
      </trkpt>
      <trkpt lat="47.69221" lon="-2.21255">
        <ele>58.5</ele>
        <time>2021-05-27T14:52:16Z</time>
      </trkpt>
      <trkpt lat="47.69221" lon="-2.21251">
        <ele>58.4</ele>
        <time>2021-05-27T14:52:17Z</time>
      </trkpt>
      <trkpt lat="47.6922" lon="-2.21249">
        <ele>58.3</ele>
        <time>2021-05-27T14:52:18Z</time>
      </trkpt>
      <trkpt lat="47.6922" lon="-2.21245">
        <ele>58.2</ele>
        <time>2021-05-27T14:52:19Z</time>
      </trkpt>
      <trkpt lat="47.69219" lon="-2.21241">
        <ele>58.1</ele>
        <time>2021-05-27T14:52:20Z</time>
      </trkpt>
      <trkpt lat="47.69218" lon="-2.21238">
        <ele>58.1</ele>
        <time>2021-05-27T14:52:21Z</time>
      </trkpt>
      <trkpt lat="47.69217" lon="-2.21233">
        <ele>58</ele>
        <time>2021-05-27T14:52:22Z</time>
      </trkpt>
      <trkpt lat="47.69215" lon="-2.21229">
        <ele>57.9</ele>
        <time>2021-05-27T14:52:23Z</time>
      </trkpt>
      <trkpt lat="47.69214" lon="-2.21226">
        <ele>57.9</ele>
        <time>2021-05-27T14:52:24Z</time>
      </trkpt>
      <trkpt lat="47.69212" lon="-2.21224">
        <ele>57.9</ele>
        <time>2021-05-27T14:52:25Z</time>
      </trkpt>
      <trkpt lat="47.6921" lon="-2.21222">
        <ele>57.9</ele>
        <time>2021-05-27T14:52:26Z</time>
      </trkpt>
      <trkpt lat="47.69208" lon="-2.2122">
        <ele>58</ele>
        <time>2021-05-27T14:52:27Z</time>
      </trkpt>
      <trkpt lat="47.69206" lon="-2.21219">
        <ele>58</ele>
        <time>2021-05-27T14:52:28Z</time>
      </trkpt>
      <trkpt lat="47.69204" lon="-2.21217">
        <ele>58.1</ele>
        <time>2021-05-27T14:52:29Z</time>
      </trkpt>
      <trkpt lat="47.69201" lon="-2.21216">
        <ele>58.1</ele>
        <time>2021-05-27T14:52:30Z</time>
      </trkpt>
      <trkpt lat="47.692" lon="-2.21215">
        <ele>58.2</ele>
        <time>2021-05-27T14:52:31Z</time>
      </trkpt>
      <trkpt lat="47.69198" lon="-2.21214">
        <ele>58.2</ele>
        <time>2021-05-27T14:52:32Z</time>
      </trkpt>
      <trkpt lat="47.69198" lon="-2.21213">
        <ele>58.3</ele>
        <time>2021-05-27T14:52:33Z</time>
      </trkpt>
      <trkpt lat="47.69196" lon="-2.21212">
        <ele>58.3</ele>
        <time>2021-05-27T14:52:34Z</time>
      </trkpt>
      <trkpt lat="47.69195" lon="-2.21209">
        <ele>58.3</ele>
        <time>2021-05-27T14:52:35Z</time>
      </trkpt>
      <trkpt lat="47.69195" lon="-2.21205">
        <ele>58.3</ele>
        <time>2021-05-27T14:52:36Z</time>
      </trkpt>
      <trkpt lat="47.69195" lon="-2.21202">
        <ele>58.3</ele>
        <time>2021-05-27T14:52:37Z</time>
      </trkpt>
      <trkpt lat="47.69195" lon="-2.21199">
        <ele>58.2</ele>
        <time>2021-05-27T14:52:38Z</time>
      </trkpt>
      <trkpt lat="47.69195" lon="-2.21196">
        <ele>58.2</ele>
        <time>2021-05-27T14:52:39Z</time>
      </trkpt>
      <trkpt lat="47.69197" lon="-2.21193">
        <ele>58.1</ele>
        <time>2021-05-27T14:52:40Z</time>
      </trkpt>
      <trkpt lat="47.69199" lon="-2.2119">
        <ele>57.9</ele>
        <time>2021-05-27T14:52:41Z</time>
      </trkpt>
      <trkpt lat="47.692" lon="-2.21187">
        <ele>57.9</ele>
        <time>2021-05-27T14:52:42Z</time>
      </trkpt>
      <trkpt lat="47.692" lon="-2.21183">
        <ele>57.8</ele>
        <time>2021-05-27T14:52:43Z</time>
      </trkpt>
      <trkpt lat="47.69201" lon="-2.2118">
        <ele>57.7</ele>
        <time>2021-05-27T14:52:44Z</time>
      </trkpt>
      <trkpt lat="47.69202" lon="-2.21177">
        <ele>57.6</ele>
        <time>2021-05-27T14:52:45Z</time>
      </trkpt>
      <trkpt lat="47.69202" lon="-2.21173">
        <ele>57.5</ele>
        <time>2021-05-27T14:52:46Z</time>
      </trkpt>
      <trkpt lat="47.69204" lon="-2.21169">
        <ele>57.4</ele>
        <time>2021-05-27T14:52:47Z</time>
      </trkpt>
      <trkpt lat="47.69205" lon="-2.21165">
        <ele>57.2</ele>
        <time>2021-05-27T14:52:48Z</time>
      </trkpt>
      <trkpt lat="47.69206" lon="-2.21162">
        <ele>57.1</ele>
        <time>2021-05-27T14:52:49Z</time>
      </trkpt>
      <trkpt lat="47.69208" lon="-2.21158">
        <ele>56.9</ele>
        <time>2021-05-27T14:52:50Z</time>
      </trkpt>
      <trkpt lat="47.69209" lon="-2.21153">
        <ele>56.8</ele>
        <time>2021-05-27T14:52:51Z</time>
      </trkpt>
      <trkpt lat="47.6921" lon="-2.21148">
        <ele>56.6</ele>
        <time>2021-05-27T14:52:52Z</time>
      </trkpt>
      <trkpt lat="47.69211" lon="-2.21143">
        <ele>56.5</ele>
        <time>2021-05-27T14:52:53Z</time>
      </trkpt>
      <trkpt lat="47.69211" lon="-2.21139">
        <ele>56.5</ele>
        <time>2021-05-27T14:52:54Z</time>
      </trkpt>
      <trkpt lat="47.6921" lon="-2.21134">
        <ele>56.5</ele>
        <time>2021-05-27T14:52:55Z</time>
      </trkpt>
      <trkpt lat="47.6921" lon="-2.2113">
        <ele>56.4</ele>
        <time>2021-05-27T14:52:56Z</time>
      </trkpt>
      <trkpt lat="47.69209" lon="-2.21125">
        <ele>56.4</ele>
        <time>2021-05-27T14:52:57Z</time>
      </trkpt>
      <trkpt lat="47.69208" lon="-2.2112">
        <ele>56.4</ele>
        <time>2021-05-27T14:52:58Z</time>
      </trkpt>
      <trkpt lat="47.69208" lon="-2.21114">
        <ele>56.4</ele>
        <time>2021-05-27T14:52:59Z</time>
      </trkpt>
      <trkpt lat="47.69208" lon="-2.2111">
        <ele>56.4</ele>
        <time>2021-05-27T14:53:00Z</time>
      </trkpt>
      <trkpt lat="47.69207" lon="-2.21104">
        <ele>56.4</ele>
        <time>2021-05-27T14:53:01Z</time>
      </trkpt>
      <trkpt lat="47.69206" lon="-2.211">
        <ele>56.4</ele>
        <time>2021-05-27T14:53:02Z</time>
      </trkpt>
      <trkpt lat="47.69205" lon="-2.21096">
        <ele>56.5</ele>
        <time>2021-05-27T14:53:03Z</time>
      </trkpt>
      <trkpt lat="47.69203" lon="-2.21091">
        <ele>56.6</ele>
        <time>2021-05-27T14:53:04Z</time>
      </trkpt>
      <trkpt lat="47.69203" lon="-2.21087">
        <ele>56.6</ele>
        <time>2021-05-27T14:53:05Z</time>
      </trkpt>
      <trkpt lat="47.69202" lon="-2.21082">
        <ele>56.6</ele>
        <time>2021-05-27T14:53:06Z</time>
      </trkpt>
      <trkpt lat="47.69202" lon="-2.21078">
        <ele>56.6</ele>
        <time>2021-05-27T14:53:07Z</time>
      </trkpt>
      <trkpt lat="47.69203" lon="-2.21075">
        <ele>56.4</ele>
        <time>2021-05-27T14:53:08Z</time>
      </trkpt>
      <trkpt lat="47.69205" lon="-2.21072">
        <ele>56.2</ele>
        <time>2021-05-27T14:53:09Z</time>
      </trkpt>
      <trkpt lat="47.69206" lon="-2.21068">
        <ele>56</ele>
        <time>2021-05-27T14:53:10Z</time>
      </trkpt>
      <trkpt lat="47.69208" lon="-2.21064">
        <ele>55.8</ele>
        <time>2021-05-27T14:53:11Z</time>
      </trkpt>
      <trkpt lat="47.69209" lon="-2.2106">
        <ele>55.7</ele>
        <time>2021-05-27T14:53:12Z</time>
      </trkpt>
      <trkpt lat="47.6921" lon="-2.21055">
        <ele>55.5</ele>
        <time>2021-05-27T14:53:13Z</time>
      </trkpt>
      <trkpt lat="47.69211" lon="-2.21051">
        <ele>55.4</ele>
        <time>2021-05-27T14:53:14Z</time>
      </trkpt>
      <trkpt lat="47.69211" lon="-2.21048">
        <ele>55.3</ele>
        <time>2021-05-27T14:53:15Z</time>
      </trkpt>
      <trkpt lat="47.69213" lon="-2.21047">
        <ele>55.1</ele>
        <time>2021-05-27T14:53:16Z</time>
      </trkpt>
      <trkpt lat="47.69214" lon="-2.21045">
        <ele>55</ele>
        <time>2021-05-27T14:53:17Z</time>
      </trkpt>
      <trkpt lat="47.69215" lon="-2.21045">
        <ele>54.8</ele>
        <time>2021-05-27T14:53:18Z</time>
      </trkpt>
      <trkpt lat="47.69217" lon="-2.21044">
        <ele>54.6</ele>
        <time>2021-05-27T14:53:19Z</time>
      </trkpt>
      <trkpt lat="47.69218" lon="-2.21041">
        <ele>54.4</ele>
        <time>2021-05-27T14:53:20Z</time>
      </trkpt>
      <trkpt lat="47.69218" lon="-2.21038">
        <ele>54.3</ele>
        <time>2021-05-27T14:53:21Z</time>
      </trkpt>
      <trkpt lat="47.69219" lon="-2.21035">
        <ele>54.3</ele>
        <time>2021-05-27T14:53:22Z</time>
      </trkpt>
      <trkpt lat="47.69219" lon="-2.21032">
        <ele>54.2</ele>
        <time>2021-05-27T14:53:23Z</time>
      </trkpt>
      <trkpt lat="47.69219" lon="-2.21027">
        <ele>54.1</ele>
        <time>2021-05-27T14:53:24Z</time>
      </trkpt>
      <trkpt lat="47.69219" lon="-2.21022">
        <ele>54</ele>
        <time>2021-05-27T14:53:25Z</time>
      </trkpt>
      <trkpt lat="47.69219" lon="-2.21015">
        <ele>53.9</ele>
        <time>2021-05-27T14:53:26Z</time>
      </trkpt>
      <trkpt lat="47.69219" lon="-2.2101">
        <ele>53.8</ele>
        <time>2021-05-27T14:53:27Z</time>
      </trkpt>
      <trkpt lat="47.6922" lon="-2.21006">
        <ele>53.7</ele>
        <time>2021-05-27T14:53:28Z</time>
      </trkpt>
      <trkpt lat="47.6922" lon="-2.21002">
        <ele>53.7</ele>
        <time>2021-05-27T14:53:29Z</time>
      </trkpt>
      <trkpt lat="47.6922" lon="-2.20999">
        <ele>53.6</ele>
        <time>2021-05-27T14:53:30Z</time>
      </trkpt>
      <trkpt lat="47.69219" lon="-2.20995">
        <ele>53.6</ele>
        <time>2021-05-27T14:53:31Z</time>
      </trkpt>
      <trkpt lat="47.69219" lon="-2.20992">
        <ele>53.5</ele>
        <time>2021-05-27T14:53:32Z</time>
      </trkpt>
      <trkpt lat="47.69218" lon="-2.20987">
        <ele>53.3</ele>
        <time>2021-05-27T14:53:33Z</time>
      </trkpt>
      <trkpt lat="47.69218" lon="-2.20982">
        <ele>53.2</ele>
        <time>2021-05-27T14:53:34Z</time>
      </trkpt>
      <trkpt lat="47.69217" lon="-2.20977">
        <ele>53.2</ele>
        <time>2021-05-27T14:53:35Z</time>
      </trkpt>
      <trkpt lat="47.69216" lon="-2.20973">
        <ele>53.2</ele>
        <time>2021-05-27T14:53:36Z</time>
      </trkpt>
      <trkpt lat="47.69215" lon="-2.20968">
        <ele>53.2</ele>
        <time>2021-05-27T14:53:37Z</time>
      </trkpt>
      <trkpt lat="47.69215" lon="-2.20962">
        <ele>52.9</ele>
        <time>2021-05-27T14:53:38Z</time>
      </trkpt>
      <trkpt lat="47.69216" lon="-2.20956">
        <ele>52.6</ele>
        <time>2021-05-27T14:53:39Z</time>
      </trkpt>
      <trkpt lat="47.69217" lon="-2.20949">
        <ele>52.2</ele>
        <time>2021-05-27T14:53:40Z</time>
      </trkpt>
      <trkpt lat="47.69218" lon="-2.20943">
        <ele>51.9</ele>
        <time>2021-05-27T14:53:41Z</time>
      </trkpt>
      <trkpt lat="47.69219" lon="-2.20936">
        <ele>51.5</ele>
        <time>2021-05-27T14:53:42Z</time>
      </trkpt>
      <trkpt lat="47.69219" lon="-2.2093">
        <ele>51.3</ele>
        <time>2021-05-27T14:53:43Z</time>
      </trkpt>
      <trkpt lat="47.69219" lon="-2.20925">
        <ele>51.1</ele>
        <time>2021-05-27T14:53:44Z</time>
      </trkpt>
      <trkpt lat="47.69219" lon="-2.2092">
        <ele>51</ele>
        <time>2021-05-27T14:53:45Z</time>
      </trkpt>
      <trkpt lat="47.69218" lon="-2.20916">
        <ele>51</ele>
        <time>2021-05-27T14:53:46Z</time>
      </trkpt>
      <trkpt lat="47.69216" lon="-2.20912">
        <ele>51.1</ele>
        <time>2021-05-27T14:53:47Z</time>
      </trkpt>
      <trkpt lat="47.69214" lon="-2.20908">
        <ele>51.3</ele>
        <time>2021-05-27T14:53:48Z</time>
      </trkpt>
      <trkpt lat="47.69211" lon="-2.20906">
        <ele>51.7</ele>
        <time>2021-05-27T14:53:49Z</time>
      </trkpt>
      <trkpt lat="47.69208" lon="-2.20902">
        <ele>52</ele>
        <time>2021-05-27T14:53:50Z</time>
      </trkpt>
      <trkpt lat="47.69206" lon="-2.20899">
        <ele>52.3</ele>
        <time>2021-05-27T14:53:51Z</time>
      </trkpt>
      <trkpt lat="47.69204" lon="-2.20894">
        <ele>52.6</ele>
        <time>2021-05-27T14:53:52Z</time>
      </trkpt>
      <trkpt lat="47.69202" lon="-2.20889">
        <ele>52.9</ele>
        <time>2021-05-27T14:53:53Z</time>
      </trkpt>
      <trkpt lat="47.69199" lon="-2.20884">
        <ele>53.2</ele>
        <time>2021-05-27T14:53:54Z</time>
      </trkpt>
      <trkpt lat="47.69197" lon="-2.2088">
        <ele>53.5</ele>
        <time>2021-05-27T14:53:55Z</time>
      </trkpt>
      <trkpt lat="47.69195" lon="-2.20876">
        <ele>53.9</ele>
        <time>2021-05-27T14:53:56Z</time>
      </trkpt>
      <trkpt lat="47.69192" lon="-2.20872">
        <ele>54.4</ele>
        <time>2021-05-27T14:53:57Z</time>
      </trkpt>
      <trkpt lat="47.69191" lon="-2.20868">
        <ele>54.6</ele>
        <time>2021-05-27T14:53:58Z</time>
      </trkpt>
      <trkpt lat="47.6919" lon="-2.20866">
        <ele>54.7</ele>
        <time>2021-05-27T14:53:59Z</time>
      </trkpt>
      <trkpt lat="47.6919" lon="-2.20864">
        <ele>54.7</ele>
        <time>2021-05-27T14:54:00Z</time>
      </trkpt>
      <trkpt lat="47.69191" lon="-2.20861">
        <ele>54.5</ele>
        <time>2021-05-27T14:54:01Z</time>
      </trkpt>
      <trkpt lat="47.69192" lon="-2.20856">
        <ele>54.2</ele>
        <time>2021-05-27T14:54:02Z</time>
      </trkpt>
      <trkpt lat="47.69192" lon="-2.20852">
        <ele>54.1</ele>
        <time>2021-05-27T14:54:03Z</time>
      </trkpt>
      <trkpt lat="47.69192" lon="-2.2085">
        <ele>54.2</ele>
        <time>2021-05-27T14:54:04Z</time>
      </trkpt>
      <trkpt lat="47.69191" lon="-2.20845">
        <ele>54.2</ele>
        <time>2021-05-27T14:54:05Z</time>
      </trkpt>
      <trkpt lat="47.69191" lon="-2.20843">
        <ele>54.4</ele>
        <time>2021-05-27T14:54:06Z</time>
      </trkpt>
      <trkpt lat="47.69189" lon="-2.20841">
        <ele>54.6</ele>
        <time>2021-05-27T14:54:07Z</time>
      </trkpt>
      <trkpt lat="47.69188" lon="-2.2084">
        <ele>55.1</ele>
        <time>2021-05-27T14:54:08Z</time>
      </trkpt>
      <trkpt lat="47.69186" lon="-2.20839">
        <ele>55.5</ele>
        <time>2021-05-27T14:54:09Z</time>
      </trkpt>
      <trkpt lat="47.69183" lon="-2.20837">
        <ele>56</ele>
        <time>2021-05-27T14:54:10Z</time>
      </trkpt>
      <trkpt lat="47.69181" lon="-2.20834">
        <ele>56.6</ele>
        <time>2021-05-27T14:54:11Z</time>
      </trkpt>
      <trkpt lat="47.69179" lon="-2.20832">
        <ele>57</ele>
        <time>2021-05-27T14:54:12Z</time>
      </trkpt>
      <trkpt lat="47.69177" lon="-2.2083">
        <ele>57.1</ele>
        <time>2021-05-27T14:54:13Z</time>
      </trkpt>
      <trkpt lat="47.69177" lon="-2.20827">
        <ele>56.9</ele>
        <time>2021-05-27T14:54:14Z</time>
      </trkpt>
      <trkpt lat="47.69176" lon="-2.20824">
        <ele>56.8</ele>
        <time>2021-05-27T14:54:15Z</time>
      </trkpt>
      <trkpt lat="47.69176" lon="-2.20823">
        <ele>56.8</ele>
        <time>2021-05-27T14:54:16Z</time>
      </trkpt>
      <trkpt lat="47.69176" lon="-2.20823">
        <ele>56.8</ele>
        <time>2021-05-27T14:54:17Z</time>
      </trkpt>
      <trkpt lat="47.69176" lon="-2.20822">
        <ele>56.7</ele>
        <time>2021-05-27T14:54:18Z</time>
      </trkpt>
      <trkpt lat="47.69176" lon="-2.20822">
        <ele>56.7</ele>
        <time>2021-05-27T14:54:19Z</time>
      </trkpt>
      <trkpt lat="47.69176" lon="-2.20822">
        <ele>56.7</ele>
        <time>2021-05-27T14:54:20Z</time>
      </trkpt>
      <trkpt lat="47.69176" lon="-2.20822">
        <ele>56.7</ele>
        <time>2021-05-27T14:54:21Z</time>
      </trkpt>
      <trkpt lat="47.69176" lon="-2.20822">
        <ele>56.7</ele>
        <time>2021-05-27T14:54:22Z</time>
      </trkpt>
      <trkpt lat="47.69176" lon="-2.20822">
        <ele>56.7</ele>
        <time>2021-05-27T14:54:23Z</time>
      </trkpt>
      <trkpt lat="47.69176" lon="-2.20822">
        <ele>56.7</ele>
        <time>2021-05-27T14:54:24Z</time>
      </trkpt>
      <trkpt lat="47.69172" lon="-2.20816">
        <ele>57</ele>
        <time>2021-05-27T14:54:25Z</time>
      </trkpt>
      <trkpt lat="47.69172" lon="-2.20815">
        <ele>57</ele>
        <time>2021-05-27T14:54:26Z</time>
      </trkpt>
      <trkpt lat="47.69171" lon="-2.20813">
        <ele>57</ele>
        <time>2021-05-27T14:54:27Z</time>
      </trkpt>
      <trkpt lat="47.69169" lon="-2.20811">
        <ele>57.2</ele>
        <time>2021-05-27T14:54:28Z</time>
      </trkpt>
      <trkpt lat="47.69168" lon="-2.20809">
        <ele>57.5</ele>
        <time>2021-05-27T14:54:29Z</time>
      </trkpt>
      <trkpt lat="47.69165" lon="-2.20809">
        <ele>57.6</ele>
        <time>2021-05-27T14:54:30Z</time>
      </trkpt>
      <trkpt lat="47.69162" lon="-2.20809">
        <ele>57.6</ele>
        <time>2021-05-27T14:54:31Z</time>
      </trkpt>
      <trkpt lat="47.69158" lon="-2.20811">
        <ele>57.6</ele>
        <time>2021-05-27T14:54:32Z</time>
      </trkpt>
      <trkpt lat="47.69155" lon="-2.20811">
        <ele>57.6</ele>
        <time>2021-05-27T14:54:33Z</time>
      </trkpt>
      <trkpt lat="47.69153" lon="-2.20812">
        <ele>57.6</ele>
        <time>2021-05-27T14:54:34Z</time>
      </trkpt>
      <trkpt lat="47.69151" lon="-2.20813">
        <ele>57.6</ele>
        <time>2021-05-27T14:54:35Z</time>
      </trkpt>
      <trkpt lat="47.69149" lon="-2.20812">
        <ele>57.5</ele>
        <time>2021-05-27T14:54:36Z</time>
      </trkpt>
      <trkpt lat="47.69146" lon="-2.20809">
        <ele>57.2</ele>
        <time>2021-05-27T14:54:37Z</time>
      </trkpt>
      <trkpt lat="47.69144" lon="-2.20806">
        <ele>57</ele>
        <time>2021-05-27T14:54:38Z</time>
      </trkpt>
      <trkpt lat="47.69142" lon="-2.20802">
        <ele>56.7</ele>
        <time>2021-05-27T14:54:39Z</time>
      </trkpt>
      <trkpt lat="47.6914" lon="-2.20797">
        <ele>56.5</ele>
        <time>2021-05-27T14:54:40Z</time>
      </trkpt>
      <trkpt lat="47.69139" lon="-2.20792">
        <ele>56.2</ele>
        <time>2021-05-27T14:54:41Z</time>
      </trkpt>
      <trkpt lat="47.69137" lon="-2.20788">
        <ele>56</ele>
        <time>2021-05-27T14:54:42Z</time>
      </trkpt>
      <trkpt lat="47.69135" lon="-2.20785">
        <ele>55.9</ele>
        <time>2021-05-27T14:54:43Z</time>
      </trkpt>
      <trkpt lat="47.69134" lon="-2.20781">
        <ele>55.7</ele>
        <time>2021-05-27T14:54:44Z</time>
      </trkpt>
      <trkpt lat="47.69133" lon="-2.20776">
        <ele>55.5</ele>
        <time>2021-05-27T14:54:45Z</time>
      </trkpt>
      <trkpt lat="47.69131" lon="-2.20771">
        <ele>55.4</ele>
        <time>2021-05-27T14:54:46Z</time>
      </trkpt>
      <trkpt lat="47.6913" lon="-2.20765">
        <ele>55.2</ele>
        <time>2021-05-27T14:54:47Z</time>
      </trkpt>
      <trkpt lat="47.69128" lon="-2.20761">
        <ele>55.2</ele>
        <time>2021-05-27T14:54:48Z</time>
      </trkpt>
      <trkpt lat="47.69126" lon="-2.20757">
        <ele>55.1</ele>
        <time>2021-05-27T14:54:49Z</time>
      </trkpt>
      <trkpt lat="47.69124" lon="-2.20753">
        <ele>55.1</ele>
        <time>2021-05-27T14:54:50Z</time>
      </trkpt>
      <trkpt lat="47.69121" lon="-2.20749">
        <ele>55.2</ele>
        <time>2021-05-27T14:54:51Z</time>
      </trkpt>
      <trkpt lat="47.69119" lon="-2.20746">
        <ele>55.2</ele>
        <time>2021-05-27T14:54:52Z</time>
      </trkpt>
      <trkpt lat="47.69117" lon="-2.20744">
        <ele>55.3</ele>
        <time>2021-05-27T14:54:53Z</time>
      </trkpt>
      <trkpt lat="47.69114" lon="-2.20743">
        <ele>55.3</ele>
        <time>2021-05-27T14:54:54Z</time>
      </trkpt>
      <trkpt lat="47.69112" lon="-2.20741">
        <ele>55.4</ele>
        <time>2021-05-27T14:54:55Z</time>
      </trkpt>
      <trkpt lat="47.69111" lon="-2.20738">
        <ele>55.4</ele>
        <time>2021-05-27T14:54:56Z</time>
      </trkpt>
      <trkpt lat="47.6911" lon="-2.20736">
        <ele>55.3</ele>
        <time>2021-05-27T14:54:57Z</time>
      </trkpt>
      <trkpt lat="47.6911" lon="-2.20732">
        <ele>55.1</ele>
        <time>2021-05-27T14:54:58Z</time>
      </trkpt>
      <trkpt lat="47.69109" lon="-2.2073">
        <ele>55</ele>
        <time>2021-05-27T14:54:59Z</time>
      </trkpt>
      <trkpt lat="47.69107" lon="-2.20727">
        <ele>55.1</ele>
        <time>2021-05-27T14:55:00Z</time>
      </trkpt>
      <trkpt lat="47.69104" lon="-2.20725">
        <ele>55.2</ele>
        <time>2021-05-27T14:55:01Z</time>
      </trkpt>
      <trkpt lat="47.69102" lon="-2.20723">
        <ele>55.4</ele>
        <time>2021-05-27T14:55:02Z</time>
      </trkpt>
      <trkpt lat="47.691" lon="-2.20722">
        <ele>55.5</ele>
        <time>2021-05-27T14:55:03Z</time>
      </trkpt>
      <trkpt lat="47.69099" lon="-2.2072">
        <ele>55.5</ele>
        <time>2021-05-27T14:55:04Z</time>
      </trkpt>
      <trkpt lat="47.69097" lon="-2.20718">
        <ele>55.5</ele>
        <time>2021-05-27T14:55:05Z</time>
      </trkpt>
      <trkpt lat="47.69096" lon="-2.20715">
        <ele>55.5</ele>
        <time>2021-05-27T14:55:06Z</time>
      </trkpt>
      <trkpt lat="47.69094" lon="-2.20712">
        <ele>55.6</ele>
        <time>2021-05-27T14:55:07Z</time>
      </trkpt>
      <trkpt lat="47.69093" lon="-2.20709">
        <ele>55.5</ele>
        <time>2021-05-27T14:55:08Z</time>
      </trkpt>
      <trkpt lat="47.69092" lon="-2.20706">
        <ele>55.5</ele>
        <time>2021-05-27T14:55:09Z</time>
      </trkpt>
      <trkpt lat="47.69091" lon="-2.20704">
        <ele>55.5</ele>
        <time>2021-05-27T14:55:10Z</time>
      </trkpt>
      <trkpt lat="47.6909" lon="-2.207">
        <ele>55.5</ele>
        <time>2021-05-27T14:55:11Z</time>
      </trkpt>
      <trkpt lat="47.69088" lon="-2.20697">
        <ele>55.5</ele>
        <time>2021-05-27T14:55:12Z</time>
      </trkpt>
      <trkpt lat="47.69086" lon="-2.20694">
        <ele>55.7</ele>
        <time>2021-05-27T14:55:13Z</time>
      </trkpt>
      <trkpt lat="47.69084" lon="-2.20691">
        <ele>55.8</ele>
        <time>2021-05-27T14:55:14Z</time>
      </trkpt>
      <trkpt lat="47.69082" lon="-2.20689">
        <ele>55.6</ele>
        <time>2021-05-27T14:55:15Z</time>
      </trkpt>
      <trkpt lat="47.69081" lon="-2.20688">
        <ele>55.3</ele>
        <time>2021-05-27T14:55:16Z</time>
      </trkpt>
      <trkpt lat="47.6908" lon="-2.20688">
        <ele>55.3</ele>
        <time>2021-05-27T14:55:17Z</time>
      </trkpt>
      <trkpt lat="47.6908" lon="-2.20688">
        <ele>55.3</ele>
        <time>2021-05-27T14:55:18Z</time>
      </trkpt>
      <trkpt lat="47.6908" lon="-2.20688">
        <ele>55.3</ele>
        <time>2021-05-27T14:55:19Z</time>
      </trkpt>
      <trkpt lat="47.6908" lon="-2.20688">
        <ele>55.3</ele>
        <time>2021-05-27T14:55:20Z</time>
      </trkpt>
      <trkpt lat="47.6908" lon="-2.20688">
        <ele>55.3</ele>
        <time>2021-05-27T14:55:21Z</time>
      </trkpt>
      <trkpt lat="47.6908" lon="-2.20688">
        <ele>55.3</ele>
        <time>2021-05-27T14:55:22Z</time>
      </trkpt>
      <trkpt lat="47.6908" lon="-2.20688">
        <ele>55.3</ele>
        <time>2021-05-27T14:55:23Z</time>
      </trkpt>
      <trkpt lat="47.6908" lon="-2.20688">
        <ele>55.3</ele>
        <time>2021-05-27T14:55:24Z</time>
      </trkpt>
      <trkpt lat="47.6908" lon="-2.20688">
        <ele>55.3</ele>
        <time>2021-05-27T14:55:25Z</time>
      </trkpt>
      <trkpt lat="47.69074" lon="-2.20685">
        <ele>54.2</ele>
        <time>2021-05-27T14:55:26Z</time>
      </trkpt>
      <trkpt lat="47.69071" lon="-2.20685">
        <ele>53.8</ele>
        <time>2021-05-27T14:55:27Z</time>
      </trkpt>
      <trkpt lat="47.69068" lon="-2.20683">
        <ele>53.3</ele>
        <time>2021-05-27T14:55:28Z</time>
      </trkpt>
      <trkpt lat="47.69065" lon="-2.20682">
        <ele>52.8</ele>
        <time>2021-05-27T14:55:29Z</time>
      </trkpt>
      <trkpt lat="47.69061" lon="-2.20681">
        <ele>52.2</ele>
        <time>2021-05-27T14:55:30Z</time>
      </trkpt>
      <trkpt lat="47.69058" lon="-2.20681">
        <ele>51.6</ele>
        <time>2021-05-27T14:55:31Z</time>
      </trkpt>
      <trkpt lat="47.69055" lon="-2.2068">
        <ele>51.2</ele>
        <time>2021-05-27T14:55:32Z</time>
      </trkpt>
      <trkpt lat="47.69052" lon="-2.20678">
        <ele>50.7</ele>
        <time>2021-05-27T14:55:33Z</time>
      </trkpt>
      <trkpt lat="47.6905" lon="-2.20675">
        <ele>50.4</ele>
        <time>2021-05-27T14:55:34Z</time>
      </trkpt>
      <trkpt lat="47.69049" lon="-2.2067">
        <ele>50.1</ele>
        <time>2021-05-27T14:55:35Z</time>
      </trkpt>
      <trkpt lat="47.69047" lon="-2.20664">
        <ele>49.7</ele>
        <time>2021-05-27T14:55:36Z</time>
      </trkpt>
      <trkpt lat="47.69046" lon="-2.20658">
        <ele>49.4</ele>
        <time>2021-05-27T14:55:37Z</time>
      </trkpt>
      <trkpt lat="47.69045" lon="-2.20653">
        <ele>49.3</ele>
        <time>2021-05-27T14:55:38Z</time>
      </trkpt>
      <trkpt lat="47.69044" lon="-2.20647">
        <ele>49.1</ele>
        <time>2021-05-27T14:55:39Z</time>
      </trkpt>
      <trkpt lat="47.69042" lon="-2.20641">
        <ele>48.8</ele>
        <time>2021-05-27T14:55:40Z</time>
      </trkpt>
      <trkpt lat="47.69039" lon="-2.20634">
        <ele>48.3</ele>
        <time>2021-05-27T14:55:41Z</time>
      </trkpt>
      <trkpt lat="47.69036" lon="-2.2063">
        <ele>48</ele>
        <time>2021-05-27T14:55:42Z</time>
      </trkpt>
      <trkpt lat="47.69032" lon="-2.20627">
        <ele>47.5</ele>
        <time>2021-05-27T14:55:43Z</time>
      </trkpt>
      <trkpt lat="47.69028" lon="-2.20627">
        <ele>47</ele>
        <time>2021-05-27T14:55:44Z</time>
      </trkpt>
      <trkpt lat="47.69024" lon="-2.20625">
        <ele>46.6</ele>
        <time>2021-05-27T14:55:45Z</time>
      </trkpt>
      <trkpt lat="47.6902" lon="-2.20624">
        <ele>46.1</ele>
        <time>2021-05-27T14:55:46Z</time>
      </trkpt>
      <trkpt lat="47.69015" lon="-2.2062">
        <ele>45.6</ele>
        <time>2021-05-27T14:55:47Z</time>
      </trkpt>
      <trkpt lat="47.69011" lon="-2.20616">
        <ele>45.3</ele>
        <time>2021-05-27T14:55:48Z</time>
      </trkpt>
      <trkpt lat="47.69008" lon="-2.20611">
        <ele>45.1</ele>
        <time>2021-05-27T14:55:49Z</time>
      </trkpt>
      <trkpt lat="47.69006" lon="-2.20607">
        <ele>45</ele>
        <time>2021-05-27T14:55:50Z</time>
      </trkpt>
      <trkpt lat="47.69005" lon="-2.20602">
        <ele>45</ele>
        <time>2021-05-27T14:55:51Z</time>
      </trkpt>
      <trkpt lat="47.69002" lon="-2.20597">
        <ele>44.8</ele>
        <time>2021-05-27T14:55:52Z</time>
      </trkpt>
      <trkpt lat="47.69" lon="-2.20594">
        <ele>44.8</ele>
        <time>2021-05-27T14:55:53Z</time>
      </trkpt>
      <trkpt lat="47.68997" lon="-2.2059">
        <ele>44.3</ele>
        <time>2021-05-27T14:55:54Z</time>
      </trkpt>
      <trkpt lat="47.68995" lon="-2.20587">
        <ele>44</ele>
        <time>2021-05-27T14:55:55Z</time>
      </trkpt>
      <trkpt lat="47.68994" lon="-2.20584">
        <ele>43.9</ele>
        <time>2021-05-27T14:55:56Z</time>
      </trkpt>
      <trkpt lat="47.68993" lon="-2.20581">
        <ele>43.8</ele>
        <time>2021-05-27T14:55:57Z</time>
      </trkpt>
      <trkpt lat="47.68992" lon="-2.20578">
        <ele>43.8</ele>
        <time>2021-05-27T14:55:58Z</time>
      </trkpt>
      <trkpt lat="47.68992" lon="-2.20574">
        <ele>43.9</ele>
        <time>2021-05-27T14:55:59Z</time>
      </trkpt>
      <trkpt lat="47.68992" lon="-2.20569">
        <ele>44</ele>
        <time>2021-05-27T14:56:00Z</time>
      </trkpt>
      <trkpt lat="47.68992" lon="-2.20564">
        <ele>44.1</ele>
        <time>2021-05-27T14:56:01Z</time>
      </trkpt>
      <trkpt lat="47.68993" lon="-2.20561">
        <ele>44.3</ele>
        <time>2021-05-27T14:56:02Z</time>
      </trkpt>
      <trkpt lat="47.68994" lon="-2.20558">
        <ele>44.5</ele>
        <time>2021-05-27T14:56:03Z</time>
      </trkpt>
      <trkpt lat="47.68995" lon="-2.20556">
        <ele>44.7</ele>
        <time>2021-05-27T14:56:04Z</time>
      </trkpt>
      <trkpt lat="47.68996" lon="-2.20555">
        <ele>45</ele>
        <time>2021-05-27T14:56:05Z</time>
      </trkpt>
      <trkpt lat="47.68997" lon="-2.20553">
        <ele>45.3</ele>
        <time>2021-05-27T14:56:06Z</time>
      </trkpt>
      <trkpt lat="47.68998" lon="-2.20551">
        <ele>45.4</ele>
        <time>2021-05-27T14:56:07Z</time>
      </trkpt>
      <trkpt lat="47.68999" lon="-2.20548">
        <ele>45.7</ele>
        <time>2021-05-27T14:56:08Z</time>
      </trkpt>
      <trkpt lat="47.69001" lon="-2.20546">
        <ele>45.9</ele>
        <time>2021-05-27T14:56:09Z</time>
      </trkpt>
      <trkpt lat="47.69002" lon="-2.20544">
        <ele>46.1</ele>
        <time>2021-05-27T14:56:10Z</time>
      </trkpt>
      <trkpt lat="47.69004" lon="-2.20544">
        <ele>46.2</ele>
        <time>2021-05-27T14:56:11Z</time>
      </trkpt>
      <trkpt lat="47.69006" lon="-2.20543">
        <ele>46.3</ele>
        <time>2021-05-27T14:56:12Z</time>
      </trkpt>
      <trkpt lat="47.69008" lon="-2.20541">
        <ele>46.5</ele>
        <time>2021-05-27T14:56:13Z</time>
      </trkpt>
      <trkpt lat="47.69009" lon="-2.20537">
        <ele>46.6</ele>
        <time>2021-05-27T14:56:14Z</time>
      </trkpt>
      <trkpt lat="47.69009" lon="-2.20534">
        <ele>46.7</ele>
        <time>2021-05-27T14:56:15Z</time>
      </trkpt>
      <trkpt lat="47.6901" lon="-2.20529">
        <ele>46.9</ele>
        <time>2021-05-27T14:56:16Z</time>
      </trkpt>
      <trkpt lat="47.6901" lon="-2.20525">
        <ele>47</ele>
        <time>2021-05-27T14:56:17Z</time>
      </trkpt>
      <trkpt lat="47.69011" lon="-2.20523">
        <ele>47.1</ele>
        <time>2021-05-27T14:56:18Z</time>
      </trkpt>
      <trkpt lat="47.69012" lon="-2.2052">
        <ele>47.2</ele>
        <time>2021-05-27T14:56:19Z</time>
      </trkpt>
      <trkpt lat="47.69011" lon="-2.20516">
        <ele>47.2</ele>
        <time>2021-05-27T14:56:20Z</time>
      </trkpt>
      <trkpt lat="47.6901" lon="-2.20513">
        <ele>47.2</ele>
        <time>2021-05-27T14:56:21Z</time>
      </trkpt>
      <trkpt lat="47.69009" lon="-2.2051">
        <ele>47.2</ele>
        <time>2021-05-27T14:56:22Z</time>
      </trkpt>
      <trkpt lat="47.69008" lon="-2.20506">
        <ele>47.3</ele>
        <time>2021-05-27T14:56:23Z</time>
      </trkpt>
      <trkpt lat="47.69008" lon="-2.20506">
        <ele>47.3</ele>
        <time>2021-05-27T14:56:24Z</time>
      </trkpt>
      <trkpt lat="47.69008" lon="-2.20505">
        <ele>47.3</ele>
        <time>2021-05-27T14:56:25Z</time>
      </trkpt>
      <trkpt lat="47.69006" lon="-2.20505">
        <ele>47.2</ele>
        <time>2021-05-27T14:56:26Z</time>
      </trkpt>
      <trkpt lat="47.69004" lon="-2.20506">
        <ele>47.1</ele>
        <time>2021-05-27T14:56:27Z</time>
      </trkpt>
      <trkpt lat="47.69002" lon="-2.20506">
        <ele>47</ele>
        <time>2021-05-27T14:56:28Z</time>
      </trkpt>
      <trkpt lat="47.69001" lon="-2.20504">
        <ele>47</ele>
        <time>2021-05-27T14:56:29Z</time>
      </trkpt>
      <trkpt lat="47.69001" lon="-2.20504">
        <ele>46.9</ele>
        <time>2021-05-27T14:56:30Z</time>
      </trkpt>
      <trkpt lat="47.69" lon="-2.20502">
        <ele>47</ele>
        <time>2021-05-27T14:56:31Z</time>
      </trkpt>
      <trkpt lat="47.69" lon="-2.20498">
        <ele>47</ele>
        <time>2021-05-27T14:56:32Z</time>
      </trkpt>
      <trkpt lat="47.69" lon="-2.20496">
        <ele>47</ele>
        <time>2021-05-27T14:56:33Z</time>
      </trkpt>
      <trkpt lat="47.68999" lon="-2.20495">
        <ele>46.8</ele>
        <time>2021-05-27T14:56:34Z</time>
      </trkpt>
      <trkpt lat="47.68998" lon="-2.20494">
        <ele>46.6</ele>
        <time>2021-05-27T14:56:35Z</time>
      </trkpt>
      <trkpt lat="47.68996" lon="-2.20492">
        <ele>46.3</ele>
        <time>2021-05-27T14:56:36Z</time>
      </trkpt>
      <trkpt lat="47.68995" lon="-2.20492">
        <ele>46.1</ele>
        <time>2021-05-27T14:56:37Z</time>
      </trkpt>
      <trkpt lat="47.68994" lon="-2.20491">
        <ele>45.9</ele>
        <time>2021-05-27T14:56:38Z</time>
      </trkpt>
      <trkpt lat="47.68992" lon="-2.20489">
        <ele>45.5</ele>
        <time>2021-05-27T14:56:39Z</time>
      </trkpt>
      <trkpt lat="47.6899" lon="-2.20487">
        <ele>45.2</ele>
        <time>2021-05-27T14:56:40Z</time>
      </trkpt>
      <trkpt lat="47.68988" lon="-2.20484">
        <ele>44.9</ele>
        <time>2021-05-27T14:56:41Z</time>
      </trkpt>
      <trkpt lat="47.68986" lon="-2.20479">
        <ele>44.6</ele>
        <time>2021-05-27T14:56:42Z</time>
      </trkpt>
      <trkpt lat="47.68986" lon="-2.20474">
        <ele>44.5</ele>
        <time>2021-05-27T14:56:43Z</time>
      </trkpt>
      <trkpt lat="47.68984" lon="-2.20469">
        <ele>44.2</ele>
        <time>2021-05-27T14:56:44Z</time>
      </trkpt>
      <trkpt lat="47.68983" lon="-2.20465">
        <ele>44.1</ele>
        <time>2021-05-27T14:56:45Z</time>
      </trkpt>
      <trkpt lat="47.68982" lon="-2.20461">
        <ele>43.8</ele>
        <time>2021-05-27T14:56:46Z</time>
      </trkpt>
      <trkpt lat="47.68981" lon="-2.20458">
        <ele>43.7</ele>
        <time>2021-05-27T14:56:47Z</time>
      </trkpt>
      <trkpt lat="47.68981" lon="-2.20456">
        <ele>43.6</ele>
        <time>2021-05-27T14:56:48Z</time>
      </trkpt>
      <trkpt lat="47.68981" lon="-2.20453">
        <ele>43.6</ele>
        <time>2021-05-27T14:56:49Z</time>
      </trkpt>
      <trkpt lat="47.6898" lon="-2.20451">
        <ele>43.5</ele>
        <time>2021-05-27T14:56:50Z</time>
      </trkpt>
      <trkpt lat="47.68978" lon="-2.20449">
        <ele>43.3</ele>
        <time>2021-05-27T14:56:51Z</time>
      </trkpt>
      <trkpt lat="47.68977" lon="-2.20446">
        <ele>43</ele>
        <time>2021-05-27T14:56:52Z</time>
      </trkpt>
      <trkpt lat="47.68975" lon="-2.20444">
        <ele>42.8</ele>
        <time>2021-05-27T14:56:53Z</time>
      </trkpt>
      <trkpt lat="47.68973" lon="-2.20442">
        <ele>42.4</ele>
        <time>2021-05-27T14:56:54Z</time>
      </trkpt>
      <trkpt lat="47.68971" lon="-2.2044">
        <ele>42</ele>
        <time>2021-05-27T14:56:55Z</time>
      </trkpt>
      <trkpt lat="47.68969" lon="-2.20438">
        <ele>41.7</ele>
        <time>2021-05-27T14:56:56Z</time>
      </trkpt>
      <trkpt lat="47.68968" lon="-2.20436">
        <ele>41.6</ele>
        <time>2021-05-27T14:56:57Z</time>
      </trkpt>
      <trkpt lat="47.68968" lon="-2.20434">
        <ele>41.5</ele>
        <time>2021-05-27T14:56:58Z</time>
      </trkpt>
      <trkpt lat="47.68968" lon="-2.2043">
        <ele>41.5</ele>
        <time>2021-05-27T14:56:59Z</time>
      </trkpt>
      <trkpt lat="47.68968" lon="-2.20427">
        <ele>41.6</ele>
        <time>2021-05-27T14:57:00Z</time>
      </trkpt>
      <trkpt lat="47.68969" lon="-2.20423">
        <ele>41.8</ele>
        <time>2021-05-27T14:57:01Z</time>
      </trkpt>
      <trkpt lat="47.68971" lon="-2.20421">
        <ele>42</ele>
        <time>2021-05-27T14:57:02Z</time>
      </trkpt>
      <trkpt lat="47.68972" lon="-2.2042">
        <ele>42.3</ele>
        <time>2021-05-27T14:57:03Z</time>
      </trkpt>
      <trkpt lat="47.68973" lon="-2.20418">
        <ele>42.5</ele>
        <time>2021-05-27T14:57:04Z</time>
      </trkpt>
      <trkpt lat="47.68974" lon="-2.20416">
        <ele>42.6</ele>
        <time>2021-05-27T14:57:05Z</time>
      </trkpt>
      <trkpt lat="47.68975" lon="-2.20412">
        <ele>42.9</ele>
        <time>2021-05-27T14:57:06Z</time>
      </trkpt>
      <trkpt lat="47.68974" lon="-2.20408">
        <ele>42.9</ele>
        <time>2021-05-27T14:57:07Z</time>
      </trkpt>
      <trkpt lat="47.68973" lon="-2.20405">
        <ele>42.9</ele>
        <time>2021-05-27T14:57:08Z</time>
      </trkpt>
      <trkpt lat="47.68973" lon="-2.20402">
        <ele>43</ele>
        <time>2021-05-27T14:57:09Z</time>
      </trkpt>
      <trkpt lat="47.68974" lon="-2.20401">
        <ele>43.1</ele>
        <time>2021-05-27T14:57:10Z</time>
      </trkpt>
      <trkpt lat="47.68973" lon="-2.20398">
        <ele>43.1</ele>
        <time>2021-05-27T14:57:11Z</time>
      </trkpt>
      <trkpt lat="47.68974" lon="-2.20396">
        <ele>43.3</ele>
        <time>2021-05-27T14:57:12Z</time>
      </trkpt>
      <trkpt lat="47.68975" lon="-2.20395">
        <ele>43.5</ele>
        <time>2021-05-27T14:57:13Z</time>
      </trkpt>
      <trkpt lat="47.68975" lon="-2.20393">
        <ele>43.6</ele>
        <time>2021-05-27T14:57:14Z</time>
      </trkpt>
      <trkpt lat="47.68976" lon="-2.20391">
        <ele>43.7</ele>
        <time>2021-05-27T14:57:15Z</time>
      </trkpt>
      <trkpt lat="47.68977" lon="-2.20389">
        <ele>43.9</ele>
        <time>2021-05-27T14:57:16Z</time>
      </trkpt>
      <trkpt lat="47.68978" lon="-2.20387">
        <ele>44.2</ele>
        <time>2021-05-27T14:57:17Z</time>
      </trkpt>
      <trkpt lat="47.6898" lon="-2.20385">
        <ele>44.5</ele>
        <time>2021-05-27T14:57:18Z</time>
      </trkpt>
      <trkpt lat="47.68981" lon="-2.20383">
        <ele>44.8</ele>
        <time>2021-05-27T14:57:19Z</time>
      </trkpt>
      <trkpt lat="47.68982" lon="-2.20382">
        <ele>45</ele>
        <time>2021-05-27T14:57:20Z</time>
      </trkpt>
      <trkpt lat="47.68984" lon="-2.20383">
        <ele>45.3</ele>
        <time>2021-05-27T14:57:21Z</time>
      </trkpt>
      <trkpt lat="47.68985" lon="-2.20384">
        <ele>45.5</ele>
        <time>2021-05-27T14:57:22Z</time>
      </trkpt>
      <trkpt lat="47.68987" lon="-2.20384">
        <ele>45.7</ele>
        <time>2021-05-27T14:57:23Z</time>
      </trkpt>
      <trkpt lat="47.68989" lon="-2.20385">
        <ele>46</ele>
        <time>2021-05-27T14:57:24Z</time>
      </trkpt>
      <trkpt lat="47.6899" lon="-2.20384">
        <ele>46.2</ele>
        <time>2021-05-27T14:57:25Z</time>
      </trkpt>
      <trkpt lat="47.68992" lon="-2.20383">
        <ele>46.5</ele>
        <time>2021-05-27T14:57:26Z</time>
      </trkpt>
      <trkpt lat="47.68994" lon="-2.20381">
        <ele>46.8</ele>
        <time>2021-05-27T14:57:27Z</time>
      </trkpt>
      <trkpt lat="47.68995" lon="-2.20379">
        <ele>47</ele>
        <time>2021-05-27T14:57:28Z</time>
      </trkpt>
      <trkpt lat="47.68996" lon="-2.20376">
        <ele>47.4</ele>
        <time>2021-05-27T14:57:29Z</time>
      </trkpt>
      <trkpt lat="47.68998" lon="-2.20374">
        <ele>47.6</ele>
        <time>2021-05-27T14:57:30Z</time>
      </trkpt>
      <trkpt lat="47.68998" lon="-2.20371">
        <ele>47.8</ele>
        <time>2021-05-27T14:57:31Z</time>
      </trkpt>
      <trkpt lat="47.68999" lon="-2.20368">
        <ele>48.1</ele>
        <time>2021-05-27T14:57:32Z</time>
      </trkpt>
      <trkpt lat="47.69002" lon="-2.20367">
        <ele>48</ele>
      </trkpt>
      <trkpt lat="47.69007" lon="-2.20377">
        <ele>47.5</ele>
      </trkpt>
      <trkpt lat="47.69013" lon="-2.2038">
        <ele>47</ele>
      </trkpt>
      <trkpt lat="47.69016" lon="-2.20384">
        <ele>46.8</ele>
      </trkpt>
      <trkpt lat="47.69015" lon="-2.20391">
        <ele>46.8</ele>
      </trkpt>
      <trkpt lat="47.69015" lon="-2.20398">
        <ele>46.8</ele>
      </trkpt>
      <trkpt lat="47.69016" lon="-2.20404">
        <ele>46.7</ele>
      </trkpt>
      <trkpt lat="47.69013" lon="-2.2041">
        <ele>46.7</ele>
      </trkpt>
      <trkpt lat="47.69012" lon="-2.20414">
        <ele>46.7</ele>
      </trkpt>
      <trkpt lat="47.69011" lon="-2.20421">
        <ele>46.8</ele>
      </trkpt>
      <trkpt lat="47.69014" lon="-2.20432">
        <ele>46.8</ele>
      </trkpt>
      <trkpt lat="47.69015" lon="-2.20436">
        <ele>46.9</ele>
      </trkpt>
      <trkpt lat="47.69016" lon="-2.2044">
        <ele>46.9</ele>
      </trkpt>
      <trkpt lat="47.69017" lon="-2.20444">
        <ele>47</ele>
      </trkpt>
      <trkpt lat="47.69019" lon="-2.2045">
        <ele>47.1</ele>
      </trkpt>
      <trkpt lat="47.69017" lon="-2.20459">
        <ele>47.2</ele>
      </trkpt>
      <trkpt lat="47.69016" lon="-2.20464">
        <ele>47.3</ele>
      </trkpt>
      <trkpt lat="47.69016" lon="-2.20468">
        <ele>47.3</ele>
      </trkpt>
      <trkpt lat="47.69016" lon="-2.20471">
        <ele>47.4</ele>
      </trkpt>
      <trkpt lat="47.69016" lon="-2.20485">
        <ele>47.6</ele>
      </trkpt>
      <trkpt lat="47.69017" lon="-2.20489">
        <ele>47.7</ele>
      </trkpt>
      <trkpt lat="47.69018" lon="-2.20493">
        <ele>47.8</ele>
      </trkpt>
      <trkpt lat="47.69027" lon="-2.20501">
        <ele>48.3</ele>
      </trkpt>
      <trkpt lat="47.69032" lon="-2.20508">
        <ele>48.4</ele>
      </trkpt>
      <trkpt lat="47.69035" lon="-2.20515">
        <ele>48.5</ele>
      </trkpt>
      <trkpt lat="47.69037" lon="-2.20518">
        <ele>48.5</ele>
      </trkpt>
      <trkpt lat="47.69041" lon="-2.2052">
        <ele>48.7</ele>
      </trkpt>
      <trkpt lat="47.69046" lon="-2.20521">
        <ele>49</ele>
      </trkpt>
      <trkpt lat="47.69049" lon="-2.20517">
        <ele>49.2</ele>
      </trkpt>
      <trkpt lat="47.6905" lon="-2.20511">
        <ele>49.3</ele>
      </trkpt>
      <trkpt lat="47.69048" lon="-2.20508">
        <ele>49.2</ele>
      </trkpt>
      <trkpt lat="47.69045" lon="-2.20506">
        <ele>49.1</ele>
      </trkpt>
      <trkpt lat="47.69042" lon="-2.20501">
        <ele>49</ele>
      </trkpt>
      <trkpt lat="47.6904" lon="-2.20497">
        <ele>48.8</ele>
      </trkpt>
      <trkpt lat="47.69041" lon="-2.20491">
        <ele>48.7</ele>
      </trkpt>
      <trkpt lat="47.69037" lon="-2.20483">
        <ele>48.2</ele>
      </trkpt>
      <trkpt lat="47.69037" lon="-2.20475">
        <ele>48</ele>
      </trkpt>
      <trkpt lat="47.69038" lon="-2.20471">
        <ele>47.9</ele>
      </trkpt>
      <trkpt lat="47.69038" lon="-2.20468">
        <ele>47.8</ele>
      </trkpt>
      <trkpt lat="47.69039" lon="-2.20458">
        <ele>47.4</ele>
      </trkpt>
      <trkpt lat="47.69038" lon="-2.20454">
        <ele>47.3</ele>
      </trkpt>
      <trkpt lat="47.69037" lon="-2.20448">
        <ele>47.1</ele>
      </trkpt>
      <trkpt lat="47.69033" lon="-2.20436">
        <ele>46.8</ele>
      </trkpt>
      <trkpt lat="47.69035" lon="-2.20426">
        <ele>46.4</ele>
      </trkpt>
      <trkpt lat="47.69036" lon="-2.20422">
        <ele>46.3</ele>
      </trkpt>
      <trkpt lat="47.69038" lon="-2.20412">
        <ele>46</ele>
      </trkpt>
      <trkpt lat="47.6904" lon="-2.20398">
        <ele>45.6</ele>
      </trkpt>
      <trkpt lat="47.69039" lon="-2.2039">
        <ele>45.5</ele>
      </trkpt>
      <trkpt lat="47.69038" lon="-2.20386">
        <ele>45.5</ele>
      </trkpt>
      <trkpt lat="47.69036" lon="-2.2038">
        <ele>45.5</ele>
      </trkpt>
      <trkpt lat="47.69034" lon="-2.20378">
        <ele>45.6</ele>
      </trkpt>
      <trkpt lat="47.6903" lon="-2.20373">
        <ele>45.9</ele>
      </trkpt>
      <trkpt lat="47.69027" lon="-2.20371">
        <ele>46</ele>
      </trkpt>
      <trkpt lat="47.69024" lon="-2.20369">
        <ele>46.3</ele>
      </trkpt>
      <trkpt lat="47.6902" lon="-2.20365">
        <ele>46.6</ele>
      </trkpt>
      <trkpt lat="47.69016" lon="-2.20354">
        <ele>46.9</ele>
      </trkpt>
      <trkpt lat="47.69014" lon="-2.20349">
        <ele>47.2</ele>
      </trkpt>
      <trkpt lat="47.69008" lon="-2.20348">
        <ele>47.8</ele>
        <time>2021-05-27T14:57:52Z</time>
      </trkpt>
      <trkpt lat="47.69007" lon="-2.20347">
        <ele>48</ele>
        <time>2021-05-27T14:57:53Z</time>
      </trkpt>
      <trkpt lat="47.69005" lon="-2.20347">
        <ele>48.2</ele>
        <time>2021-05-27T14:57:54Z</time>
      </trkpt>
      <trkpt lat="47.69003" lon="-2.20347">
        <ele>48.3</ele>
        <time>2021-05-27T14:57:55Z</time>
      </trkpt>
      <trkpt lat="47.69001" lon="-2.20347">
        <ele>48.5</ele>
        <time>2021-05-27T14:57:56Z</time>
      </trkpt>
      <trkpt lat="47.68999" lon="-2.20348">
        <ele>48.5</ele>
        <time>2021-05-27T14:57:57Z</time>
      </trkpt>
      <trkpt lat="47.68997" lon="-2.20349">
        <ele>48.2</ele>
        <time>2021-05-27T14:57:58Z</time>
      </trkpt>
      <trkpt lat="47.68994" lon="-2.20349">
        <ele>47.8</ele>
        <time>2021-05-27T14:57:59Z</time>
      </trkpt>
      <trkpt lat="47.68992" lon="-2.20349">
        <ele>47.4</ele>
        <time>2021-05-27T14:58:00Z</time>
      </trkpt>
      <trkpt lat="47.68989" lon="-2.20349">
        <ele>47</ele>
        <time>2021-05-27T14:58:01Z</time>
      </trkpt>
      <trkpt lat="47.68986" lon="-2.20349">
        <ele>46.6</ele>
        <time>2021-05-27T14:58:02Z</time>
      </trkpt>
      <trkpt lat="47.68983" lon="-2.2035">
        <ele>46.1</ele>
        <time>2021-05-27T14:58:03Z</time>
      </trkpt>
      <trkpt lat="47.68981" lon="-2.20351">
        <ele>45.7</ele>
        <time>2021-05-27T14:58:04Z</time>
      </trkpt>
      <trkpt lat="47.68976" lon="-2.20352">
        <ele>45</ele>
        <time>2021-05-27T14:58:05Z</time>
      </trkpt>
      <trkpt lat="47.68973" lon="-2.20351">
        <ele>44.5</ele>
        <time>2021-05-27T14:58:06Z</time>
      </trkpt>
      <trkpt lat="47.68969" lon="-2.20352">
        <ele>44</ele>
        <time>2021-05-27T14:58:07Z</time>
      </trkpt>
      <trkpt lat="47.68966" lon="-2.20353">
        <ele>43.5</ele>
        <time>2021-05-27T14:58:08Z</time>
      </trkpt>
      <trkpt lat="47.68965" lon="-2.20352">
        <ele>43.3</ele>
        <time>2021-05-27T14:58:09Z</time>
      </trkpt>
      <trkpt lat="47.68965" lon="-2.2035">
        <ele>43.3</ele>
        <time>2021-05-27T14:58:10Z</time>
      </trkpt>
      <trkpt lat="47.68967" lon="-2.20347">
        <ele>43.8</ele>
        <time>2021-05-27T14:58:11Z</time>
      </trkpt>
      <trkpt lat="47.68971" lon="-2.20343">
        <ele>44.5</ele>
        <time>2021-05-27T14:58:12Z</time>
      </trkpt>
      <trkpt lat="47.68972" lon="-2.20342">
        <ele>44.7</ele>
        <time>2021-05-27T14:58:13Z</time>
      </trkpt>
      <trkpt lat="47.68972" lon="-2.2034">
        <ele>44.7</ele>
        <time>2021-05-27T14:58:14Z</time>
      </trkpt>
      <trkpt lat="47.68971" lon="-2.20338">
        <ele>44.6</ele>
        <time>2021-05-27T14:58:15Z</time>
      </trkpt>
      <trkpt lat="47.68969" lon="-2.20334">
        <ele>44.6</ele>
        <time>2021-05-27T14:58:16Z</time>
      </trkpt>
      <trkpt lat="47.68969" lon="-2.20331">
        <ele>44.6</ele>
        <time>2021-05-27T14:58:17Z</time>
      </trkpt>
      <trkpt lat="47.68969" lon="-2.20326">
        <ele>44.5</ele>
        <time>2021-05-27T14:58:18Z</time>
      </trkpt>
      <trkpt lat="47.68969" lon="-2.20323">
        <ele>44.4</ele>
        <time>2021-05-27T14:58:19Z</time>
      </trkpt>
      <trkpt lat="47.68969" lon="-2.20319">
        <ele>44.3</ele>
        <time>2021-05-27T14:58:20Z</time>
      </trkpt>
      <trkpt lat="47.6897" lon="-2.20319">
        <ele>44.5</ele>
        <time>2021-05-27T14:58:21Z</time>
      </trkpt>
      <trkpt lat="47.68972" lon="-2.2032">
        <ele>44.7</ele>
        <time>2021-05-27T14:58:22Z</time>
      </trkpt>
      <trkpt lat="47.68972" lon="-2.20322">
        <ele>44.8</ele>
        <time>2021-05-27T14:58:23Z</time>
      </trkpt>
      <trkpt lat="47.68972" lon="-2.20326">
        <ele>44.9</ele>
        <time>2021-05-27T14:58:24Z</time>
      </trkpt>
      <trkpt lat="47.68972" lon="-2.20329">
        <ele>44.9</ele>
        <time>2021-05-27T14:58:25Z</time>
      </trkpt>
      <trkpt lat="47.68972" lon="-2.20332">
        <ele>44.9</ele>
        <time>2021-05-27T14:58:26Z</time>
      </trkpt>
      <trkpt lat="47.68972" lon="-2.20335">
        <ele>45</ele>
        <time>2021-05-27T14:58:27Z</time>
      </trkpt>
      <trkpt lat="47.68974" lon="-2.20336">
        <ele>45.2</ele>
        <time>2021-05-27T14:58:28Z</time>
      </trkpt>
      <trkpt lat="47.68976" lon="-2.20335">
        <ele>45.5</ele>
        <time>2021-05-27T14:58:29Z</time>
      </trkpt>
      <trkpt lat="47.68978" lon="-2.20334">
        <ele>45.8</ele>
        <time>2021-05-27T14:58:30Z</time>
      </trkpt>
      <trkpt lat="47.6898" lon="-2.20332">
        <ele>46.1</ele>
        <time>2021-05-27T14:58:31Z</time>
      </trkpt>
      <trkpt lat="47.68981" lon="-2.2033">
        <ele>46.1</ele>
        <time>2021-05-27T14:58:32Z</time>
      </trkpt>
      <trkpt lat="47.68981" lon="-2.20326">
        <ele>46.1</ele>
        <time>2021-05-27T14:58:33Z</time>
      </trkpt>
      <trkpt lat="47.6898" lon="-2.20323">
        <ele>45.9</ele>
        <time>2021-05-27T14:58:34Z</time>
      </trkpt>
      <trkpt lat="47.68979" lon="-2.20319">
        <ele>45.7</ele>
        <time>2021-05-27T14:58:35Z</time>
      </trkpt>
      <trkpt lat="47.68979" lon="-2.20315">
        <ele>45.6</ele>
        <time>2021-05-27T14:58:36Z</time>
      </trkpt>
      <trkpt lat="47.68978" lon="-2.20311">
        <ele>45.4</ele>
        <time>2021-05-27T14:58:37Z</time>
      </trkpt>
      <trkpt lat="47.68978" lon="-2.20309">
        <ele>45.3</ele>
        <time>2021-05-27T14:58:38Z</time>
      </trkpt>
      <trkpt lat="47.68977" lon="-2.20308">
        <ele>45.2</ele>
        <time>2021-05-27T14:58:39Z</time>
      </trkpt>
      <trkpt lat="47.68975" lon="-2.20306">
        <ele>45</ele>
        <time>2021-05-27T14:58:40Z</time>
      </trkpt>
      <trkpt lat="47.68973" lon="-2.20306">
        <ele>44.6</ele>
        <time>2021-05-27T14:58:41Z</time>
      </trkpt>
      <trkpt lat="47.68969" lon="-2.20304">
        <ele>44.2</ele>
        <time>2021-05-27T14:58:42Z</time>
      </trkpt>
      <trkpt lat="47.68965" lon="-2.20304">
        <ele>43.6</ele>
        <time>2021-05-27T14:58:43Z</time>
      </trkpt>
      <trkpt lat="47.68962" lon="-2.20304">
        <ele>43.3</ele>
        <time>2021-05-27T14:58:44Z</time>
      </trkpt>
      <trkpt lat="47.6896" lon="-2.20303">
        <ele>43</ele>
        <time>2021-05-27T14:58:45Z</time>
      </trkpt>
      <trkpt lat="47.68957" lon="-2.20301">
        <ele>42.7</ele>
        <time>2021-05-27T14:58:46Z</time>
      </trkpt>
      <trkpt lat="47.68955" lon="-2.20299">
        <ele>42.3</ele>
        <time>2021-05-27T14:58:47Z</time>
      </trkpt>
      <trkpt lat="47.68952" lon="-2.20297">
        <ele>42</ele>
        <time>2021-05-27T14:58:48Z</time>
      </trkpt>
      <trkpt lat="47.6895" lon="-2.20293">
        <ele>41.9</ele>
        <time>2021-05-27T14:58:49Z</time>
      </trkpt>
      <trkpt lat="47.6895" lon="-2.2029">
        <ele>41.8</ele>
        <time>2021-05-27T14:58:50Z</time>
      </trkpt>
      <trkpt lat="47.68949" lon="-2.20287">
        <ele>41.7</ele>
        <time>2021-05-27T14:58:51Z</time>
      </trkpt>
      <trkpt lat="47.68947" lon="-2.20283">
        <ele>41.5</ele>
        <time>2021-05-27T14:58:52Z</time>
      </trkpt>
      <trkpt lat="47.68946" lon="-2.2028">
        <ele>41.4</ele>
        <time>2021-05-27T14:58:53Z</time>
      </trkpt>
      <trkpt lat="47.68945" lon="-2.20278">
        <ele>41.3</ele>
        <time>2021-05-27T14:58:54Z</time>
      </trkpt>
      <trkpt lat="47.68944" lon="-2.20276">
        <ele>41.2</ele>
        <time>2021-05-27T14:58:55Z</time>
      </trkpt>
      <trkpt lat="47.68944" lon="-2.20273">
        <ele>41.2</ele>
        <time>2021-05-27T14:58:56Z</time>
      </trkpt>
      <trkpt lat="47.68944" lon="-2.20271">
        <ele>41.2</ele>
        <time>2021-05-27T14:58:57Z</time>
      </trkpt>
      <trkpt lat="47.68945" lon="-2.20268">
        <ele>41.3</ele>
        <time>2021-05-27T14:58:58Z</time>
      </trkpt>
      <trkpt lat="47.68945" lon="-2.20266">
        <ele>41.4</ele>
        <time>2021-05-27T14:58:59Z</time>
      </trkpt>
      <trkpt lat="47.68946" lon="-2.20264">
        <ele>41.4</ele>
        <time>2021-05-27T14:59:00Z</time>
      </trkpt>
      <trkpt lat="47.68947" lon="-2.20262">
        <ele>41.5</ele>
        <time>2021-05-27T14:59:01Z</time>
      </trkpt>
      <trkpt lat="47.68947" lon="-2.20261">
        <ele>41.5</ele>
        <time>2021-05-27T14:59:02Z</time>
      </trkpt>
      <trkpt lat="47.68947" lon="-2.20261">
        <ele>41.6</ele>
        <time>2021-05-27T14:59:03Z</time>
      </trkpt>
      <trkpt lat="47.68948" lon="-2.20261">
        <ele>41.6</ele>
        <time>2021-05-27T14:59:04Z</time>
      </trkpt>
      <trkpt lat="47.68948" lon="-2.20261">
        <ele>41.6</ele>
        <time>2021-05-27T14:59:05Z</time>
      </trkpt>
      <trkpt lat="47.68948" lon="-2.20261">
        <ele>41.6</ele>
        <time>2021-05-27T14:59:06Z</time>
      </trkpt>
      <trkpt lat="47.68948" lon="-2.20261">
        <ele>41.6</ele>
        <time>2021-05-27T14:59:07Z</time>
      </trkpt>
      <trkpt lat="47.68948" lon="-2.20261">
        <ele>41.6</ele>
        <time>2021-05-27T14:59:08Z</time>
      </trkpt>
      <trkpt lat="47.68948" lon="-2.20261">
        <ele>41.6</ele>
        <time>2021-05-27T14:59:09Z</time>
      </trkpt>
      <trkpt lat="47.68948" lon="-2.20261">
        <ele>41.6</ele>
        <time>2021-05-27T14:59:10Z</time>
      </trkpt>
      <trkpt lat="47.68948" lon="-2.20261">
        <ele>41.6</ele>
        <time>2021-05-27T14:59:11Z</time>
      </trkpt>
      <trkpt lat="47.68948" lon="-2.20261">
        <ele>41.6</ele>
        <time>2021-05-27T14:59:12Z</time>
      </trkpt>
      <trkpt lat="47.68948" lon="-2.20261">
        <ele>41.6</ele>
        <time>2021-05-27T14:59:13Z</time>
      </trkpt>
      <trkpt lat="47.68948" lon="-2.20261">
        <ele>41.6</ele>
        <time>2021-05-27T14:59:14Z</time>
      </trkpt>
      <trkpt lat="47.68948" lon="-2.20261">
        <ele>41.6</ele>
        <time>2021-05-27T14:59:15Z</time>
      </trkpt>
      <trkpt lat="47.68948" lon="-2.20261">
        <ele>41.6</ele>
        <time>2021-05-27T14:59:16Z</time>
      </trkpt>
      <trkpt lat="47.68948" lon="-2.20261">
        <ele>41.6</ele>
        <time>2021-05-27T14:59:17Z</time>
      </trkpt>
      <trkpt lat="47.68948" lon="-2.20261">
        <ele>41.6</ele>
        <time>2021-05-27T14:59:18Z</time>
      </trkpt>
      <trkpt lat="47.68953" lon="-2.20249">
        <ele>42.1</ele>
        <time>2021-05-27T14:59:19Z</time>
      </trkpt>
      <trkpt lat="47.68954" lon="-2.20245">
        <ele>42.2</ele>
        <time>2021-05-27T14:59:20Z</time>
      </trkpt>
      <trkpt lat="47.68955" lon="-2.20243">
        <ele>42.4</ele>
        <time>2021-05-27T14:59:21Z</time>
      </trkpt>
      <trkpt lat="47.68955" lon="-2.2024">
        <ele>42.4</ele>
        <time>2021-05-27T14:59:22Z</time>
      </trkpt>
      <trkpt lat="47.68954" lon="-2.20238">
        <ele>42.4</ele>
        <time>2021-05-27T14:59:23Z</time>
      </trkpt>
      <trkpt lat="47.68954" lon="-2.20235">
        <ele>42.4</ele>
        <time>2021-05-27T14:59:24Z</time>
      </trkpt>
      <trkpt lat="47.68953" lon="-2.2023">
        <ele>42.5</ele>
        <time>2021-05-27T14:59:25Z</time>
      </trkpt>
      <trkpt lat="47.68953" lon="-2.20226">
        <ele>42.6</ele>
        <time>2021-05-27T14:59:26Z</time>
      </trkpt>
      <trkpt lat="47.68953" lon="-2.20223">
        <ele>42.7</ele>
        <time>2021-05-27T14:59:27Z</time>
      </trkpt>
      <trkpt lat="47.68954" lon="-2.2022">
        <ele>42.8</ele>
        <time>2021-05-27T14:59:28Z</time>
      </trkpt>
      <trkpt lat="47.68954" lon="-2.20216">
        <ele>42.8</ele>
        <time>2021-05-27T14:59:29Z</time>
      </trkpt>
      <trkpt lat="47.68954" lon="-2.20213">
        <ele>42.9</ele>
        <time>2021-05-27T14:59:30Z</time>
      </trkpt>
      <trkpt lat="47.68954" lon="-2.2021">
        <ele>43</ele>
        <time>2021-05-27T14:59:31Z</time>
      </trkpt>
      <trkpt lat="47.68955" lon="-2.20207">
        <ele>43.1</ele>
        <time>2021-05-27T14:59:32Z</time>
      </trkpt>
      <trkpt lat="47.68956" lon="-2.20204">
        <ele>43.2</ele>
        <time>2021-05-27T14:59:33Z</time>
      </trkpt>
      <trkpt lat="47.68957" lon="-2.202">
        <ele>43.3</ele>
        <time>2021-05-27T14:59:34Z</time>
      </trkpt>
      <trkpt lat="47.68957" lon="-2.20197">
        <ele>43.4</ele>
        <time>2021-05-27T14:59:35Z</time>
      </trkpt>
      <trkpt lat="47.68957" lon="-2.20194">
        <ele>43.5</ele>
        <time>2021-05-27T14:59:36Z</time>
      </trkpt>
      <trkpt lat="47.68957" lon="-2.20191">
        <ele>43.5</ele>
        <time>2021-05-27T14:59:37Z</time>
      </trkpt>
      <trkpt lat="47.68957" lon="-2.20187">
        <ele>43.6</ele>
        <time>2021-05-27T14:59:38Z</time>
      </trkpt>
      <trkpt lat="47.68956" lon="-2.20185">
        <ele>43.6</ele>
        <time>2021-05-27T14:59:39Z</time>
      </trkpt>
      <trkpt lat="47.68955" lon="-2.20184">
        <ele>43.6</ele>
        <time>2021-05-27T14:59:40Z</time>
      </trkpt>
      <trkpt lat="47.68953" lon="-2.20183">
        <ele>43.5</ele>
        <time>2021-05-27T14:59:41Z</time>
      </trkpt>
      <trkpt lat="47.68952" lon="-2.2018">
        <ele>43.5</ele>
        <time>2021-05-27T14:59:42Z</time>
      </trkpt>
      <trkpt lat="47.68949" lon="-2.20178">
        <ele>43.5</ele>
        <time>2021-05-27T14:59:43Z</time>
      </trkpt>
      <trkpt lat="47.68947" lon="-2.20174">
        <ele>43.5</ele>
        <time>2021-05-27T14:59:44Z</time>
      </trkpt>
      <trkpt lat="47.68944" lon="-2.20172">
        <ele>43.5</ele>
        <time>2021-05-27T14:59:45Z</time>
      </trkpt>
      <trkpt lat="47.68941" lon="-2.20169">
        <ele>43.5</ele>
        <time>2021-05-27T14:59:46Z</time>
      </trkpt>
      <trkpt lat="47.6894" lon="-2.20166">
        <ele>43.5</ele>
        <time>2021-05-27T14:59:47Z</time>
      </trkpt>
      <trkpt lat="47.68939" lon="-2.20161">
        <ele>43.3</ele>
        <time>2021-05-27T14:59:48Z</time>
      </trkpt>
      <trkpt lat="47.68937" lon="-2.20157">
        <ele>43</ele>
        <time>2021-05-27T14:59:49Z</time>
      </trkpt>
      <trkpt lat="47.68936" lon="-2.20152">
        <ele>42.8</ele>
        <time>2021-05-27T14:59:50Z</time>
      </trkpt>
      <trkpt lat="47.68935" lon="-2.20148">
        <ele>42.5</ele>
        <time>2021-05-27T14:59:51Z</time>
      </trkpt>
      <trkpt lat="47.68935" lon="-2.20143">
        <ele>42.3</ele>
        <time>2021-05-27T14:59:52Z</time>
      </trkpt>
      <trkpt lat="47.68934" lon="-2.20139">
        <ele>42.1</ele>
        <time>2021-05-27T14:59:53Z</time>
      </trkpt>
      <trkpt lat="47.68933" lon="-2.20134">
        <ele>41.8</ele>
        <time>2021-05-27T14:59:54Z</time>
      </trkpt>
      <trkpt lat="47.68931" lon="-2.2013">
        <ele>41.6</ele>
        <time>2021-05-27T14:59:55Z</time>
      </trkpt>
      <trkpt lat="47.68929" lon="-2.20125">
        <ele>41.4</ele>
        <time>2021-05-27T14:59:56Z</time>
      </trkpt>
      <trkpt lat="47.68929" lon="-2.20121">
        <ele>41.3</ele>
        <time>2021-05-27T14:59:57Z</time>
      </trkpt>
      <trkpt lat="47.68929" lon="-2.20118">
        <ele>41.1</ele>
        <time>2021-05-27T14:59:58Z</time>
      </trkpt>
      <trkpt lat="47.6893" lon="-2.20116">
        <ele>41</ele>
        <time>2021-05-27T14:59:59Z</time>
      </trkpt>
      <trkpt lat="47.6893" lon="-2.20114">
        <ele>40.9</ele>
        <time>2021-05-27T15:00:00Z</time>
      </trkpt>
      <trkpt lat="47.6893" lon="-2.20111">
        <ele>40.8</ele>
        <time>2021-05-27T15:00:01Z</time>
      </trkpt>
      <trkpt lat="47.68929" lon="-2.20107">
        <ele>40.6</ele>
        <time>2021-05-27T15:00:02Z</time>
      </trkpt>
      <trkpt lat="47.68929" lon="-2.20104">
        <ele>40.5</ele>
        <time>2021-05-27T15:00:03Z</time>
      </trkpt>
      <trkpt lat="47.68929" lon="-2.20102">
        <ele>40.4</ele>
        <time>2021-05-27T15:00:04Z</time>
      </trkpt>
      <trkpt lat="47.68929" lon="-2.20102">
        <ele>40.4</ele>
        <time>2021-05-27T15:00:05Z</time>
      </trkpt>
      <trkpt lat="47.68929" lon="-2.20101">
        <ele>40.4</ele>
        <time>2021-05-27T15:00:06Z</time>
      </trkpt>
      <trkpt lat="47.68929" lon="-2.20101">
        <ele>40.4</ele>
        <time>2021-05-27T15:00:07Z</time>
      </trkpt>
      <trkpt lat="47.68929" lon="-2.20101">
        <ele>40.4</ele>
        <time>2021-05-27T15:00:08Z</time>
      </trkpt>
      <trkpt lat="47.68929" lon="-2.20101">
        <ele>40.4</ele>
        <time>2021-05-27T15:00:09Z</time>
      </trkpt>
      <trkpt lat="47.68929" lon="-2.20101">
        <ele>40.4</ele>
        <time>2021-05-27T15:00:10Z</time>
      </trkpt>
      <trkpt lat="47.68929" lon="-2.20101">
        <ele>40.4</ele>
        <time>2021-05-27T15:00:11Z</time>
      </trkpt>
      <trkpt lat="47.68929" lon="-2.20101">
        <ele>40.4</ele>
        <time>2021-05-27T15:00:12Z</time>
      </trkpt>
      <trkpt lat="47.68929" lon="-2.20101">
        <ele>40.4</ele>
        <time>2021-05-27T15:00:13Z</time>
      </trkpt>
      <trkpt lat="47.68929" lon="-2.20101">
        <ele>40.4</ele>
        <time>2021-05-27T15:00:14Z</time>
      </trkpt>
      <trkpt lat="47.68929" lon="-2.20101">
        <ele>40.4</ele>
        <time>2021-05-27T15:00:15Z</time>
      </trkpt>
      <trkpt lat="47.68929" lon="-2.20101">
        <ele>40.4</ele>
        <time>2021-05-27T15:00:16Z</time>
      </trkpt>
      <trkpt lat="47.68929" lon="-2.20101">
        <ele>40.4</ele>
        <time>2021-05-27T15:00:17Z</time>
      </trkpt>
      <trkpt lat="47.68929" lon="-2.20101">
        <ele>40.4</ele>
        <time>2021-05-27T15:00:18Z</time>
      </trkpt>
      <trkpt lat="47.68929" lon="-2.20101">
        <ele>40.4</ele>
        <time>2021-05-27T15:00:19Z</time>
      </trkpt>
      <trkpt lat="47.68929" lon="-2.20101">
        <ele>40.4</ele>
        <time>2021-05-27T15:00:20Z</time>
      </trkpt>
      <trkpt lat="47.68929" lon="-2.20101">
        <ele>40.4</ele>
        <time>2021-05-27T15:00:21Z</time>
      </trkpt>
      <trkpt lat="47.68929" lon="-2.20101">
        <ele>40.4</ele>
        <time>2021-05-27T15:00:22Z</time>
      </trkpt>
      <trkpt lat="47.68929" lon="-2.20101">
        <ele>40.4</ele>
        <time>2021-05-27T15:00:23Z</time>
      </trkpt>
      <trkpt lat="47.68929" lon="-2.20101">
        <ele>40.4</ele>
        <time>2021-05-27T15:00:24Z</time>
      </trkpt>
      <trkpt lat="47.68929" lon="-2.20101">
        <ele>40.4</ele>
        <time>2021-05-27T15:00:25Z</time>
      </trkpt>
      <trkpt lat="47.68929" lon="-2.20101">
        <ele>40.4</ele>
        <time>2021-05-27T15:00:26Z</time>
      </trkpt>
      <trkpt lat="47.68929" lon="-2.20101">
        <ele>40.4</ele>
        <time>2021-05-27T15:00:27Z</time>
      </trkpt>
      <trkpt lat="47.68929" lon="-2.20101">
        <ele>40.4</ele>
        <time>2021-05-27T15:00:28Z</time>
      </trkpt>
      <trkpt lat="47.68929" lon="-2.20101">
        <ele>40.4</ele>
        <time>2021-05-27T15:00:29Z</time>
      </trkpt>
      <trkpt lat="47.68922" lon="-2.20093">
        <ele>40.2</ele>
        <time>2021-05-27T15:00:30Z</time>
      </trkpt>
      <trkpt lat="47.68919" lon="-2.20092">
        <ele>40.2</ele>
        <time>2021-05-27T15:00:31Z</time>
      </trkpt>
      <trkpt lat="47.68916" lon="-2.20092">
        <ele>40.3</ele>
        <time>2021-05-27T15:00:32Z</time>
      </trkpt>
      <trkpt lat="47.68914" lon="-2.20091">
        <ele>40</ele>
        <time>2021-05-27T15:00:33Z</time>
      </trkpt>
      <trkpt lat="47.68912" lon="-2.20089">
        <ele>39.8</ele>
        <time>2021-05-27T15:00:34Z</time>
      </trkpt>
      <trkpt lat="47.68909" lon="-2.20089">
        <ele>39.5</ele>
        <time>2021-05-27T15:00:35Z</time>
      </trkpt>
      <trkpt lat="47.68907" lon="-2.20088">
        <ele>39.3</ele>
        <time>2021-05-27T15:00:36Z</time>
      </trkpt>
      <trkpt lat="47.68904" lon="-2.20086">
        <ele>39</ele>
        <time>2021-05-27T15:00:37Z</time>
      </trkpt>
      <trkpt lat="47.68902" lon="-2.20085">
        <ele>38.8</ele>
        <time>2021-05-27T15:00:38Z</time>
      </trkpt>
      <trkpt lat="47.68899" lon="-2.20084">
        <ele>38.5</ele>
        <time>2021-05-27T15:00:39Z</time>
      </trkpt>
      <trkpt lat="47.68895" lon="-2.20085">
        <ele>38.2</ele>
        <time>2021-05-27T15:00:40Z</time>
      </trkpt>
      <trkpt lat="47.68892" lon="-2.20086">
        <ele>38</ele>
        <time>2021-05-27T15:00:41Z</time>
      </trkpt>
      <trkpt lat="47.6889" lon="-2.20088">
        <ele>37.8</ele>
        <time>2021-05-27T15:00:42Z</time>
      </trkpt>
      <trkpt lat="47.68887" lon="-2.20089">
        <ele>37.6</ele>
        <time>2021-05-27T15:00:43Z</time>
      </trkpt>
      <trkpt lat="47.68884" lon="-2.20091">
        <ele>37.4</ele>
        <time>2021-05-27T15:00:44Z</time>
      </trkpt>
      <trkpt lat="47.68883" lon="-2.20092">
        <ele>37.2</ele>
        <time>2021-05-27T15:00:45Z</time>
      </trkpt>
      <trkpt lat="47.68881" lon="-2.20092">
        <ele>37.1</ele>
        <time>2021-05-27T15:00:46Z</time>
      </trkpt>
      <trkpt lat="47.68878" lon="-2.2009">
        <ele>36.8</ele>
        <time>2021-05-27T15:00:47Z</time>
      </trkpt>
      <trkpt lat="47.68876" lon="-2.20086">
        <ele>36.6</ele>
        <time>2021-05-27T15:00:48Z</time>
      </trkpt>
      <trkpt lat="47.68874" lon="-2.20083">
        <ele>36.4</ele>
        <time>2021-05-27T15:00:49Z</time>
      </trkpt>
      <trkpt lat="47.68873" lon="-2.20078">
        <ele>35.7</ele>
        <time>2021-05-27T15:00:50Z</time>
      </trkpt>
      <trkpt lat="47.68872" lon="-2.20074">
        <ele>35.3</ele>
        <time>2021-05-27T15:00:51Z</time>
      </trkpt>
      <trkpt lat="47.68872" lon="-2.20069">
        <ele>34.8</ele>
        <time>2021-05-27T15:00:52Z</time>
      </trkpt>
      <trkpt lat="47.68873" lon="-2.20065">
        <ele>34.4</ele>
        <time>2021-05-27T15:00:53Z</time>
      </trkpt>
      <trkpt lat="47.68871" lon="-2.20061">
        <ele>34</ele>
        <time>2021-05-27T15:00:54Z</time>
      </trkpt>
      <trkpt lat="47.6887" lon="-2.20057">
        <ele>33.5</ele>
        <time>2021-05-27T15:00:55Z</time>
      </trkpt>
      <trkpt lat="47.68867" lon="-2.20055">
        <ele>33.2</ele>
        <time>2021-05-27T15:00:56Z</time>
      </trkpt>
      <trkpt lat="47.68864" lon="-2.20053">
        <ele>32.8</ele>
        <time>2021-05-27T15:00:57Z</time>
      </trkpt>
      <trkpt lat="47.68861" lon="-2.20052">
        <ele>32.5</ele>
        <time>2021-05-27T15:00:58Z</time>
      </trkpt>
      <trkpt lat="47.68856" lon="-2.2005">
        <ele>32.2</ele>
        <time>2021-05-27T15:00:59Z</time>
      </trkpt>
      <trkpt lat="47.68848" lon="-2.2005">
        <ele>31.8</ele>
        <time>2021-05-27T15:01:00Z</time>
      </trkpt>
      <trkpt lat="47.68844" lon="-2.20051">
        <ele>31.6</ele>
        <time>2021-05-27T15:01:01Z</time>
      </trkpt>
      <trkpt lat="47.6884" lon="-2.20052">
        <ele>31.5</ele>
        <time>2021-05-27T15:01:02Z</time>
      </trkpt>
      <trkpt lat="47.68837" lon="-2.20053">
        <ele>31.3</ele>
        <time>2021-05-27T15:01:03Z</time>
      </trkpt>
      <trkpt lat="47.68833" lon="-2.20053">
        <ele>31.2</ele>
        <time>2021-05-27T15:01:04Z</time>
      </trkpt>
      <trkpt lat="47.68831" lon="-2.20051">
        <ele>30.9</ele>
        <time>2021-05-27T15:01:05Z</time>
      </trkpt>
      <trkpt lat="47.68829" lon="-2.20049">
        <ele>30.7</ele>
        <time>2021-05-27T15:01:06Z</time>
      </trkpt>
      <trkpt lat="47.68828" lon="-2.20045">
        <ele>30.4</ele>
        <time>2021-05-27T15:01:07Z</time>
      </trkpt>
      <trkpt lat="47.68825" lon="-2.20042">
        <ele>30.1</ele>
        <time>2021-05-27T15:01:08Z</time>
      </trkpt>
      <trkpt lat="47.68824" lon="-2.2004">
        <ele>29.9</ele>
        <time>2021-05-27T15:01:09Z</time>
      </trkpt>
      <trkpt lat="47.68821" lon="-2.20039">
        <ele>29.7</ele>
        <time>2021-05-27T15:01:10Z</time>
      </trkpt>
      <trkpt lat="47.68819" lon="-2.20038">
        <ele>29.6</ele>
        <time>2021-05-27T15:01:11Z</time>
      </trkpt>
      <trkpt lat="47.68816" lon="-2.20037">
        <ele>29.3</ele>
        <time>2021-05-27T15:01:12Z</time>
      </trkpt>
      <trkpt lat="47.68813" lon="-2.20037">
        <ele>29.2</ele>
        <time>2021-05-27T15:01:13Z</time>
      </trkpt>
      <trkpt lat="47.68808" lon="-2.20037">
        <ele>29</ele>
        <time>2021-05-27T15:01:14Z</time>
      </trkpt>
      <trkpt lat="47.68805" lon="-2.20038">
        <ele>28.8</ele>
        <time>2021-05-27T15:01:15Z</time>
      </trkpt>
      <trkpt lat="47.68803" lon="-2.20039">
        <ele>28.7</ele>
        <time>2021-05-27T15:01:16Z</time>
      </trkpt>
      <trkpt lat="47.68801" lon="-2.2004">
        <ele>28.7</ele>
        <time>2021-05-27T15:01:17Z</time>
      </trkpt>
      <trkpt lat="47.68798" lon="-2.20041">
        <ele>28.6</ele>
        <time>2021-05-27T15:01:18Z</time>
      </trkpt>
      <trkpt lat="47.68795" lon="-2.20042">
        <ele>28.4</ele>
        <time>2021-05-27T15:01:19Z</time>
      </trkpt>
      <trkpt lat="47.68792" lon="-2.20044">
        <ele>28.4</ele>
        <time>2021-05-27T15:01:20Z</time>
      </trkpt>
      <trkpt lat="47.68789" lon="-2.20047">
        <ele>28.3</ele>
        <time>2021-05-27T15:01:21Z</time>
      </trkpt>
      <trkpt lat="47.68786" lon="-2.20049">
        <ele>28.1</ele>
        <time>2021-05-27T15:01:22Z</time>
      </trkpt>
      <trkpt lat="47.68782" lon="-2.2005">
        <ele>27.9</ele>
        <time>2021-05-27T15:01:23Z</time>
      </trkpt>
      <trkpt lat="47.68778" lon="-2.20052">
        <ele>27.8</ele>
        <time>2021-05-27T15:01:24Z</time>
      </trkpt>
      <trkpt lat="47.68775" lon="-2.20053">
        <ele>27.6</ele>
        <time>2021-05-27T15:01:25Z</time>
      </trkpt>
      <trkpt lat="47.68774" lon="-2.20053">
        <ele>27.5</ele>
        <time>2021-05-27T15:01:26Z</time>
      </trkpt>
      <trkpt lat="47.68773" lon="-2.20053">
        <ele>27.4</ele>
        <time>2021-05-27T15:01:27Z</time>
      </trkpt>
      <trkpt lat="47.68773" lon="-2.20053">
        <ele>27.4</ele>
        <time>2021-05-27T15:01:28Z</time>
      </trkpt>
      <trkpt lat="47.68774" lon="-2.20053">
        <ele>27.5</ele>
        <time>2021-05-27T15:01:29Z</time>
      </trkpt>
      <trkpt lat="47.68774" lon="-2.20053">
        <ele>27.5</ele>
        <time>2021-05-27T15:01:30Z</time>
      </trkpt>
      <trkpt lat="47.68774" lon="-2.20053">
        <ele>27.5</ele>
        <time>2021-05-27T15:01:31Z</time>
      </trkpt>
      <trkpt lat="47.68774" lon="-2.20053">
        <ele>27.5</ele>
        <time>2021-05-27T15:01:32Z</time>
      </trkpt>
      <trkpt lat="47.68774" lon="-2.20053">
        <ele>27.5</ele>
        <time>2021-05-27T15:01:33Z</time>
      </trkpt>
      <trkpt lat="47.68774" lon="-2.20053">
        <ele>27.5</ele>
        <time>2021-05-27T15:01:34Z</time>
      </trkpt>
      <trkpt lat="47.68774" lon="-2.20053">
        <ele>27.5</ele>
        <time>2021-05-27T15:01:35Z</time>
      </trkpt>
      <trkpt lat="47.68774" lon="-2.20053">
        <ele>27.5</ele>
        <time>2021-05-27T15:01:36Z</time>
      </trkpt>
      <trkpt lat="47.68774" lon="-2.20053">
        <ele>27.5</ele>
        <time>2021-05-27T15:01:37Z</time>
      </trkpt>
      <trkpt lat="47.68774" lon="-2.20053">
        <ele>27.5</ele>
        <time>2021-05-27T15:01:38Z</time>
      </trkpt>
      <trkpt lat="47.68774" lon="-2.20053">
        <ele>27.5</ele>
        <time>2021-05-27T15:01:39Z</time>
      </trkpt>
      <trkpt lat="47.68774" lon="-2.20053">
        <ele>27.5</ele>
        <time>2021-05-27T15:01:40Z</time>
      </trkpt>
      <trkpt lat="47.68774" lon="-2.20053">
        <ele>27.5</ele>
        <time>2021-05-27T15:01:41Z</time>
      </trkpt>
      <trkpt lat="47.68774" lon="-2.20053">
        <ele>27.5</ele>
        <time>2021-05-27T15:01:42Z</time>
      </trkpt>
      <trkpt lat="47.68774" lon="-2.20053">
        <ele>27.5</ele>
        <time>2021-05-27T15:01:43Z</time>
      </trkpt>
      <trkpt lat="47.68774" lon="-2.20053">
        <ele>27.5</ele>
        <time>2021-05-27T15:01:44Z</time>
      </trkpt>
      <trkpt lat="47.68774" lon="-2.20053">
        <ele>27.5</ele>
        <time>2021-05-27T15:01:45Z</time>
      </trkpt>
      <trkpt lat="47.68774" lon="-2.20053">
        <ele>27.5</ele>
        <time>2021-05-27T15:01:46Z</time>
      </trkpt>
      <trkpt lat="47.68774" lon="-2.20053">
        <ele>27.5</ele>
        <time>2021-05-27T15:01:47Z</time>
      </trkpt>
      <trkpt lat="47.68774" lon="-2.20053">
        <ele>27.5</ele>
        <time>2021-05-27T15:01:48Z</time>
      </trkpt>
      <trkpt lat="47.68774" lon="-2.20053">
        <ele>27.5</ele>
        <time>2021-05-27T15:01:49Z</time>
      </trkpt>
      <trkpt lat="47.68774" lon="-2.20053">
        <ele>27.5</ele>
        <time>2021-05-27T15:01:50Z</time>
      </trkpt>
      <trkpt lat="47.68774" lon="-2.20053">
        <ele>27.5</ele>
        <time>2021-05-27T15:01:51Z</time>
      </trkpt>
      <trkpt lat="47.68774" lon="-2.20053">
        <ele>27.5</ele>
        <time>2021-05-27T15:01:52Z</time>
      </trkpt>
      <trkpt lat="47.68774" lon="-2.20053">
        <ele>27.5</ele>
        <time>2021-05-27T15:01:53Z</time>
      </trkpt>
      <trkpt lat="47.68774" lon="-2.20053">
        <ele>27.5</ele>
        <time>2021-05-27T15:01:54Z</time>
      </trkpt>
      <trkpt lat="47.68774" lon="-2.20053">
        <ele>27.5</ele>
        <time>2021-05-27T15:01:55Z</time>
      </trkpt>
      <trkpt lat="47.68774" lon="-2.20053">
        <ele>27.5</ele>
        <time>2021-05-27T15:01:56Z</time>
      </trkpt>
      <trkpt lat="47.68774" lon="-2.20053">
        <ele>27.5</ele>
        <time>2021-05-27T15:01:57Z</time>
      </trkpt>
      <trkpt lat="47.68774" lon="-2.20053">
        <ele>27.5</ele>
        <time>2021-05-27T15:01:58Z</time>
      </trkpt>
      <trkpt lat="47.68774" lon="-2.20053">
        <ele>27.5</ele>
        <time>2021-05-27T15:01:59Z</time>
      </trkpt>
      <trkpt lat="47.68774" lon="-2.20053">
        <ele>27.5</ele>
        <time>2021-05-27T15:02:00Z</time>
      </trkpt>
      <trkpt lat="47.68774" lon="-2.20053">
        <ele>27.5</ele>
        <time>2021-05-27T15:02:01Z</time>
      </trkpt>
      <trkpt lat="47.68774" lon="-2.20053">
        <ele>27.5</ele>
        <time>2021-05-27T15:02:02Z</time>
      </trkpt>
      <trkpt lat="47.68774" lon="-2.20053">
        <ele>27.5</ele>
        <time>2021-05-27T15:02:03Z</time>
      </trkpt>
      <trkpt lat="47.68774" lon="-2.20053">
        <ele>27.5</ele>
        <time>2021-05-27T15:02:04Z</time>
      </trkpt>
      <trkpt lat="47.68774" lon="-2.20053">
        <ele>27.5</ele>
        <time>2021-05-27T15:02:05Z</time>
      </trkpt>
      <trkpt lat="47.68774" lon="-2.20053">
        <ele>27.5</ele>
        <time>2021-05-27T15:02:06Z</time>
      </trkpt>
      <trkpt lat="47.68774" lon="-2.20053">
        <ele>27.5</ele>
        <time>2021-05-27T15:02:07Z</time>
      </trkpt>
      <trkpt lat="47.68774" lon="-2.20053">
        <ele>27.5</ele>
        <time>2021-05-27T15:02:08Z</time>
      </trkpt>
      <trkpt lat="47.68774" lon="-2.20053">
        <ele>27.5</ele>
        <time>2021-05-27T15:02:09Z</time>
      </trkpt>
      <trkpt lat="47.68774" lon="-2.20053">
        <ele>27.5</ele>
        <time>2021-05-27T15:02:10Z</time>
      </trkpt>
      <trkpt lat="47.68774" lon="-2.20053">
        <ele>27.5</ele>
        <time>2021-05-27T15:02:11Z</time>
      </trkpt>
      <trkpt lat="47.68774" lon="-2.20053">
        <ele>27.5</ele>
        <time>2021-05-27T15:02:12Z</time>
      </trkpt>
      <trkpt lat="47.68774" lon="-2.20053">
        <ele>27.5</ele>
        <time>2021-05-27T15:02:13Z</time>
      </trkpt>
      <trkpt lat="47.68774" lon="-2.20053">
        <ele>27.5</ele>
        <time>2021-05-27T15:02:14Z</time>
      </trkpt>
      <trkpt lat="47.68774" lon="-2.20053">
        <ele>27.5</ele>
        <time>2021-05-27T15:02:15Z</time>
      </trkpt>
      <trkpt lat="47.68774" lon="-2.20053">
        <ele>27.5</ele>
        <time>2021-05-27T15:02:16Z</time>
      </trkpt>
      <trkpt lat="47.68774" lon="-2.20053">
        <ele>27.5</ele>
        <time>2021-05-27T15:02:17Z</time>
      </trkpt>
      <trkpt lat="47.68774" lon="-2.20053">
        <ele>27.5</ele>
        <time>2021-05-27T15:02:18Z</time>
      </trkpt>
      <trkpt lat="47.68774" lon="-2.20053">
        <ele>27.5</ele>
        <time>2021-05-27T15:02:19Z</time>
      </trkpt>
      <trkpt lat="47.68774" lon="-2.20053">
        <ele>27.5</ele>
        <time>2021-05-27T15:02:20Z</time>
      </trkpt>
      <trkpt lat="47.68774" lon="-2.20053">
        <ele>27.5</ele>
        <time>2021-05-27T15:02:21Z</time>
      </trkpt>
      <trkpt lat="47.68774" lon="-2.20053">
        <ele>27.5</ele>
        <time>2021-05-27T15:02:22Z</time>
      </trkpt>
      <trkpt lat="47.68774" lon="-2.20053">
        <ele>27.5</ele>
        <time>2021-05-27T15:02:23Z</time>
      </trkpt>
      <trkpt lat="47.68774" lon="-2.20053">
        <ele>27.5</ele>
        <time>2021-05-27T15:02:24Z</time>
      </trkpt>
      <trkpt lat="47.68774" lon="-2.20053">
        <ele>27.5</ele>
        <time>2021-05-27T15:02:25Z</time>
      </trkpt>
      <trkpt lat="47.68774" lon="-2.20053">
        <ele>27.5</ele>
        <time>2021-05-27T15:02:26Z</time>
      </trkpt>
      <trkpt lat="47.68774" lon="-2.20053">
        <ele>27.5</ele>
        <time>2021-05-27T15:02:27Z</time>
      </trkpt>
      <trkpt lat="47.68774" lon="-2.20053">
        <ele>27.5</ele>
        <time>2021-05-27T15:02:28Z</time>
      </trkpt>
      <trkpt lat="47.68774" lon="-2.20053">
        <ele>27.5</ele>
        <time>2021-05-27T15:02:29Z</time>
      </trkpt>
      <trkpt lat="47.68774" lon="-2.20053">
        <ele>27.5</ele>
        <time>2021-05-27T15:02:30Z</time>
      </trkpt>
      <trkpt lat="47.68774" lon="-2.20053">
        <ele>27.5</ele>
        <time>2021-05-27T15:02:31Z</time>
      </trkpt>
      <trkpt lat="47.68774" lon="-2.20053">
        <ele>27.5</ele>
        <time>2021-05-27T15:02:32Z</time>
      </trkpt>
      <trkpt lat="47.68774" lon="-2.20053">
        <ele>27.5</ele>
        <time>2021-05-27T15:02:33Z</time>
      </trkpt>
      <trkpt lat="47.68774" lon="-2.20053">
        <ele>27.5</ele>
        <time>2021-05-27T15:02:34Z</time>
      </trkpt>
      <trkpt lat="47.68774" lon="-2.20053">
        <ele>27.5</ele>
        <time>2021-05-27T15:02:35Z</time>
      </trkpt>
      <trkpt lat="47.68765" lon="-2.2006">
        <ele>27</ele>
        <time>2021-05-27T15:02:36Z</time>
      </trkpt>
      <trkpt lat="47.68765" lon="-2.20061">
        <ele>27</ele>
        <time>2021-05-27T15:02:37Z</time>
      </trkpt>
      <trkpt lat="47.68764" lon="-2.20062">
        <ele>26.9</ele>
        <time>2021-05-27T15:02:38Z</time>
      </trkpt>
      <trkpt lat="47.68764" lon="-2.20061">
        <ele>26.9</ele>
        <time>2021-05-27T15:02:39Z</time>
      </trkpt>
      <trkpt lat="47.68764" lon="-2.20061">
        <ele>26.9</ele>
        <time>2021-05-27T15:02:40Z</time>
      </trkpt>
      <trkpt lat="47.68764" lon="-2.20061">
        <ele>26.9</ele>
        <time>2021-05-27T15:02:41Z</time>
      </trkpt>
      <trkpt lat="47.68764" lon="-2.20061">
        <ele>26.9</ele>
        <time>2021-05-27T15:02:42Z</time>
      </trkpt>
      <trkpt lat="47.68764" lon="-2.20061">
        <ele>26.9</ele>
        <time>2021-05-27T15:02:43Z</time>
      </trkpt>
      <trkpt lat="47.68764" lon="-2.20061">
        <ele>26.9</ele>
        <time>2021-05-27T15:02:44Z</time>
      </trkpt>
      <trkpt lat="47.68764" lon="-2.20061">
        <ele>26.9</ele>
        <time>2021-05-27T15:02:45Z</time>
      </trkpt>
      <trkpt lat="47.68764" lon="-2.20061">
        <ele>26.9</ele>
        <time>2021-05-27T15:02:46Z</time>
      </trkpt>
      <trkpt lat="47.68764" lon="-2.20061">
        <ele>26.9</ele>
        <time>2021-05-27T15:02:47Z</time>
      </trkpt>
      <trkpt lat="47.68764" lon="-2.20061">
        <ele>26.9</ele>
        <time>2021-05-27T15:02:48Z</time>
      </trkpt>
      <trkpt lat="47.68764" lon="-2.20061">
        <ele>26.9</ele>
        <time>2021-05-27T15:02:49Z</time>
      </trkpt>
      <trkpt lat="47.68764" lon="-2.20061">
        <ele>26.9</ele>
        <time>2021-05-27T15:02:50Z</time>
      </trkpt>
      <trkpt lat="47.68764" lon="-2.20061">
        <ele>26.9</ele>
        <time>2021-05-27T15:02:51Z</time>
      </trkpt>
      <trkpt lat="47.68764" lon="-2.20061">
        <ele>26.9</ele>
        <time>2021-05-27T15:02:52Z</time>
      </trkpt>
      <trkpt lat="47.68764" lon="-2.20061">
        <ele>26.9</ele>
        <time>2021-05-27T15:02:53Z</time>
      </trkpt>
      <trkpt lat="47.68764" lon="-2.20061">
        <ele>26.9</ele>
        <time>2021-05-27T15:02:54Z</time>
      </trkpt>
      <trkpt lat="47.68764" lon="-2.20061">
        <ele>26.9</ele>
        <time>2021-05-27T15:02:55Z</time>
      </trkpt>
      <trkpt lat="47.68764" lon="-2.20061">
        <ele>26.9</ele>
        <time>2021-05-27T15:02:56Z</time>
      </trkpt>
      <trkpt lat="47.68764" lon="-2.20061">
        <ele>26.9</ele>
        <time>2021-05-27T15:02:57Z</time>
      </trkpt>
      <trkpt lat="47.68764" lon="-2.20061">
        <ele>26.9</ele>
        <time>2021-05-27T15:02:58Z</time>
      </trkpt>
      <trkpt lat="47.68764" lon="-2.20061">
        <ele>26.9</ele>
        <time>2021-05-27T15:02:59Z</time>
      </trkpt>
      <trkpt lat="47.68764" lon="-2.20061">
        <ele>26.9</ele>
        <time>2021-05-27T15:03:00Z</time>
      </trkpt>
      <trkpt lat="47.68764" lon="-2.20061">
        <ele>26.9</ele>
        <time>2021-05-27T15:03:01Z</time>
      </trkpt>
      <trkpt lat="47.68764" lon="-2.20061">
        <ele>26.9</ele>
        <time>2021-05-27T15:03:02Z</time>
      </trkpt>
      <trkpt lat="47.68764" lon="-2.20061">
        <ele>26.9</ele>
        <time>2021-05-27T15:03:03Z</time>
      </trkpt>
      <trkpt lat="47.68764" lon="-2.20061">
        <ele>26.9</ele>
        <time>2021-05-27T15:03:04Z</time>
      </trkpt>
      <trkpt lat="47.68764" lon="-2.20061">
        <ele>26.9</ele>
        <time>2021-05-27T15:03:05Z</time>
      </trkpt>
      <trkpt lat="47.68764" lon="-2.20061">
        <ele>26.9</ele>
        <time>2021-05-27T15:03:06Z</time>
      </trkpt>
      <trkpt lat="47.68764" lon="-2.20061">
        <ele>26.9</ele>
        <time>2021-05-27T15:03:07Z</time>
      </trkpt>
      <trkpt lat="47.68764" lon="-2.20061">
        <ele>26.9</ele>
        <time>2021-05-27T15:03:08Z</time>
      </trkpt>
      <trkpt lat="47.68764" lon="-2.20061">
        <ele>26.9</ele>
        <time>2021-05-27T15:03:09Z</time>
      </trkpt>
      <trkpt lat="47.68764" lon="-2.20061">
        <ele>26.9</ele>
        <time>2021-05-27T15:03:10Z</time>
      </trkpt>
      <trkpt lat="47.68764" lon="-2.20061">
        <ele>26.9</ele>
        <time>2021-05-27T15:03:11Z</time>
      </trkpt>
      <trkpt lat="47.68764" lon="-2.20061">
        <ele>26.9</ele>
        <time>2021-05-27T15:03:12Z</time>
      </trkpt>
      <trkpt lat="47.68764" lon="-2.20061">
        <ele>26.9</ele>
        <time>2021-05-27T15:03:13Z</time>
      </trkpt>
      <trkpt lat="47.68764" lon="-2.20061">
        <ele>26.9</ele>
        <time>2021-05-27T15:03:14Z</time>
      </trkpt>
      <trkpt lat="47.68764" lon="-2.20061">
        <ele>26.9</ele>
        <time>2021-05-27T15:03:15Z</time>
      </trkpt>
      <trkpt lat="47.68764" lon="-2.20061">
        <ele>26.9</ele>
        <time>2021-05-27T15:03:16Z</time>
      </trkpt>
      <trkpt lat="47.68764" lon="-2.20061">
        <ele>26.9</ele>
        <time>2021-05-27T15:03:17Z</time>
      </trkpt>
      <trkpt lat="47.68764" lon="-2.20061">
        <ele>26.9</ele>
        <time>2021-05-27T15:03:18Z</time>
      </trkpt>
      <trkpt lat="47.68764" lon="-2.20061">
        <ele>26.9</ele>
        <time>2021-05-27T15:03:19Z</time>
      </trkpt>
      <trkpt lat="47.68764" lon="-2.20061">
        <ele>26.9</ele>
        <time>2021-05-27T15:03:20Z</time>
      </trkpt>
      <trkpt lat="47.68764" lon="-2.20061">
        <ele>26.9</ele>
        <time>2021-05-27T15:03:21Z</time>
      </trkpt>
      <trkpt lat="47.68764" lon="-2.20061">
        <ele>26.9</ele>
        <time>2021-05-27T15:03:22Z</time>
      </trkpt>
      <trkpt lat="47.68764" lon="-2.20061">
        <ele>26.9</ele>
        <time>2021-05-27T15:03:23Z</time>
      </trkpt>
      <trkpt lat="47.68764" lon="-2.20061">
        <ele>26.9</ele>
        <time>2021-05-27T15:03:24Z</time>
      </trkpt>
      <trkpt lat="47.68764" lon="-2.20061">
        <ele>26.9</ele>
        <time>2021-05-27T15:03:25Z</time>
      </trkpt>
      <trkpt lat="47.68764" lon="-2.20061">
        <ele>26.9</ele>
        <time>2021-05-27T15:03:26Z</time>
      </trkpt>
      <trkpt lat="47.68764" lon="-2.20061">
        <ele>26.9</ele>
        <time>2021-05-27T15:03:27Z</time>
      </trkpt>
      <trkpt lat="47.68764" lon="-2.20061">
        <ele>26.9</ele>
        <time>2021-05-27T15:03:28Z</time>
      </trkpt>
      <trkpt lat="47.68764" lon="-2.20061">
        <ele>26.9</ele>
        <time>2021-05-27T15:03:29Z</time>
      </trkpt>
      <trkpt lat="47.68764" lon="-2.20061">
        <ele>26.9</ele>
        <time>2021-05-27T15:03:30Z</time>
      </trkpt>
      <trkpt lat="47.68764" lon="-2.20061">
        <ele>26.9</ele>
        <time>2021-05-27T15:03:31Z</time>
      </trkpt>
      <trkpt lat="47.68764" lon="-2.20061">
        <ele>26.9</ele>
        <time>2021-05-27T15:03:32Z</time>
      </trkpt>
      <trkpt lat="47.68764" lon="-2.20061">
        <ele>26.9</ele>
        <time>2021-05-27T15:03:33Z</time>
      </trkpt>
      <trkpt lat="47.68764" lon="-2.20061">
        <ele>26.9</ele>
        <time>2021-05-27T15:03:34Z</time>
      </trkpt>
      <trkpt lat="47.68764" lon="-2.20061">
        <ele>26.9</ele>
        <time>2021-05-27T15:03:35Z</time>
      </trkpt>
      <trkpt lat="47.68764" lon="-2.20061">
        <ele>26.9</ele>
        <time>2021-05-27T15:03:36Z</time>
      </trkpt>
      <trkpt lat="47.68764" lon="-2.20061">
        <ele>26.9</ele>
        <time>2021-05-27T15:03:37Z</time>
      </trkpt>
      <trkpt lat="47.68764" lon="-2.20061">
        <ele>26.9</ele>
        <time>2021-05-27T15:03:38Z</time>
      </trkpt>
      <trkpt lat="47.68764" lon="-2.20061">
        <ele>26.9</ele>
        <time>2021-05-27T15:03:39Z</time>
      </trkpt>
      <trkpt lat="47.68764" lon="-2.20061">
        <ele>26.9</ele>
        <time>2021-05-27T15:03:40Z</time>
      </trkpt>
      <trkpt lat="47.68764" lon="-2.20061">
        <ele>26.9</ele>
        <time>2021-05-27T15:03:41Z</time>
      </trkpt>
      <trkpt lat="47.68764" lon="-2.20061">
        <ele>26.9</ele>
        <time>2021-05-27T15:03:42Z</time>
      </trkpt>
      <trkpt lat="47.68764" lon="-2.20061">
        <ele>26.9</ele>
        <time>2021-05-27T15:03:43Z</time>
      </trkpt>
      <trkpt lat="47.68764" lon="-2.20061">
        <ele>26.9</ele>
        <time>2021-05-27T15:03:44Z</time>
      </trkpt>
      <trkpt lat="47.68764" lon="-2.20061">
        <ele>26.9</ele>
        <time>2021-05-27T15:03:45Z</time>
      </trkpt>
      <trkpt lat="47.68764" lon="-2.20061">
        <ele>26.9</ele>
        <time>2021-05-27T15:03:46Z</time>
      </trkpt>
      <trkpt lat="47.68764" lon="-2.20061">
        <ele>26.9</ele>
        <time>2021-05-27T15:03:47Z</time>
      </trkpt>
      <trkpt lat="47.68764" lon="-2.20061">
        <ele>26.9</ele>
        <time>2021-05-27T15:03:48Z</time>
      </trkpt>
      <trkpt lat="47.68764" lon="-2.20061">
        <ele>26.9</ele>
        <time>2021-05-27T15:03:49Z</time>
      </trkpt>
      <trkpt lat="47.68764" lon="-2.20061">
        <ele>26.9</ele>
        <time>2021-05-27T15:03:50Z</time>
      </trkpt>
      <trkpt lat="47.68764" lon="-2.20061">
        <ele>26.9</ele>
        <time>2021-05-27T15:03:51Z</time>
      </trkpt>
      <trkpt lat="47.68764" lon="-2.20061">
        <ele>26.9</ele>
        <time>2021-05-27T15:03:52Z</time>
      </trkpt>
      <trkpt lat="47.68764" lon="-2.20061">
        <ele>26.9</ele>
        <time>2021-05-27T15:03:53Z</time>
      </trkpt>
      <trkpt lat="47.68764" lon="-2.20061">
        <ele>26.9</ele>
        <time>2021-05-27T15:03:54Z</time>
      </trkpt>
      <trkpt lat="47.68764" lon="-2.20061">
        <ele>26.9</ele>
        <time>2021-05-27T15:03:55Z</time>
      </trkpt>
      <trkpt lat="47.68764" lon="-2.20061">
        <ele>26.9</ele>
        <time>2021-05-27T15:03:56Z</time>
      </trkpt>
      <trkpt lat="47.68764" lon="-2.20061">
        <ele>26.9</ele>
        <time>2021-05-27T15:03:57Z</time>
      </trkpt>
      <trkpt lat="47.68764" lon="-2.20061">
        <ele>26.9</ele>
        <time>2021-05-27T15:03:58Z</time>
      </trkpt>
      <trkpt lat="47.68763" lon="-2.20057">
        <ele>26.9</ele>
        <time>2021-05-27T15:03:59Z</time>
      </trkpt>
      <trkpt lat="47.68763" lon="-2.20055">
        <ele>26.8</ele>
        <time>2021-05-27T15:04:00Z</time>
      </trkpt>
      <trkpt lat="47.68762" lon="-2.20053">
        <ele>26.7</ele>
        <time>2021-05-27T15:04:01Z</time>
      </trkpt>
      <trkpt lat="47.6876" lon="-2.20051">
        <ele>26.6</ele>
        <time>2021-05-27T15:04:02Z</time>
      </trkpt>
      <trkpt lat="47.68759" lon="-2.20048">
        <ele>26.5</ele>
        <time>2021-05-27T15:04:03Z</time>
      </trkpt>
      <trkpt lat="47.68758" lon="-2.20046">
        <ele>26.5</ele>
        <time>2021-05-27T15:04:04Z</time>
      </trkpt>
      <trkpt lat="47.68758" lon="-2.20042">
        <ele>26.4</ele>
        <time>2021-05-27T15:04:05Z</time>
      </trkpt>
      <trkpt lat="47.68757" lon="-2.20037">
        <ele>26.4</ele>
        <time>2021-05-27T15:04:06Z</time>
      </trkpt>
      <trkpt lat="47.68756" lon="-2.20033">
        <ele>26.3</ele>
        <time>2021-05-27T15:04:07Z</time>
      </trkpt>
      <trkpt lat="47.68756" lon="-2.20029">
        <ele>26.3</ele>
        <time>2021-05-27T15:04:08Z</time>
      </trkpt>
      <trkpt lat="47.68755" lon="-2.20024">
        <ele>26.2</ele>
        <time>2021-05-27T15:04:09Z</time>
      </trkpt>
      <trkpt lat="47.68755" lon="-2.20019">
        <ele>26.2</ele>
        <time>2021-05-27T15:04:10Z</time>
      </trkpt>
      <trkpt lat="47.68754" lon="-2.20014">
        <ele>26.1</ele>
        <time>2021-05-27T15:04:11Z</time>
      </trkpt>
      <trkpt lat="47.68753" lon="-2.20009">
        <ele>26.1</ele>
        <time>2021-05-27T15:04:12Z</time>
      </trkpt>
      <trkpt lat="47.68752" lon="-2.20004">
        <ele>26.1</ele>
        <time>2021-05-27T15:04:13Z</time>
      </trkpt>
      <trkpt lat="47.68751" lon="-2.19999">
        <ele>26</ele>
        <time>2021-05-27T15:04:14Z</time>
      </trkpt>
      <trkpt lat="47.68749" lon="-2.19993">
        <ele>25.9</ele>
        <time>2021-05-27T15:04:15Z</time>
      </trkpt>
      <trkpt lat="47.68748" lon="-2.19987">
        <ele>25.8</ele>
        <time>2021-05-27T15:04:16Z</time>
      </trkpt>
      <trkpt lat="47.68746" lon="-2.19983">
        <ele>25.8</ele>
        <time>2021-05-27T15:04:17Z</time>
      </trkpt>
      <trkpt lat="47.68743" lon="-2.1998">
        <ele>25.8</ele>
        <time>2021-05-27T15:04:18Z</time>
      </trkpt>
      <trkpt lat="47.68741" lon="-2.19979">
        <ele>25.9</ele>
        <time>2021-05-27T15:04:19Z</time>
      </trkpt>
      <trkpt lat="47.68739" lon="-2.1998">
        <ele>26</ele>
        <time>2021-05-27T15:04:20Z</time>
      </trkpt>
      <trkpt lat="47.68737" lon="-2.19981">
        <ele>26.1</ele>
        <time>2021-05-27T15:04:21Z</time>
      </trkpt>
      <trkpt lat="47.68734" lon="-2.19984">
        <ele>26.3</ele>
        <time>2021-05-27T15:04:22Z</time>
      </trkpt>
      <trkpt lat="47.68732" lon="-2.19987">
        <ele>26.5</ele>
        <time>2021-05-27T15:04:23Z</time>
      </trkpt>
      <trkpt lat="47.68729" lon="-2.1999">
        <ele>26.6</ele>
        <time>2021-05-27T15:04:24Z</time>
      </trkpt>
      <trkpt lat="47.68726" lon="-2.19994">
        <ele>26.8</ele>
        <time>2021-05-27T15:04:25Z</time>
      </trkpt>
      <trkpt lat="47.68723" lon="-2.19996">
        <ele>26.9</ele>
        <time>2021-05-27T15:04:26Z</time>
      </trkpt>
      <trkpt lat="47.6872" lon="-2.19997">
        <ele>27</ele>
        <time>2021-05-27T15:04:27Z</time>
      </trkpt>
      <trkpt lat="47.68717" lon="-2.19997">
        <ele>27.2</ele>
        <time>2021-05-27T15:04:28Z</time>
      </trkpt>
      <trkpt lat="47.68714" lon="-2.19997">
        <ele>27.3</ele>
        <time>2021-05-27T15:04:29Z</time>
      </trkpt>
      <trkpt lat="47.68711" lon="-2.19994">
        <ele>27.4</ele>
        <time>2021-05-27T15:04:30Z</time>
      </trkpt>
      <trkpt lat="47.68709" lon="-2.19992">
        <ele>27.4</ele>
        <time>2021-05-27T15:04:31Z</time>
      </trkpt>
      <trkpt lat="47.68707" lon="-2.19989">
        <ele>27.5</ele>
        <time>2021-05-27T15:04:32Z</time>
      </trkpt>
      <trkpt lat="47.68706" lon="-2.19985">
        <ele>27.5</ele>
        <time>2021-05-27T15:04:33Z</time>
      </trkpt>
      <trkpt lat="47.68704" lon="-2.1998">
        <ele>27.6</ele>
        <time>2021-05-27T15:04:34Z</time>
      </trkpt>
      <trkpt lat="47.68703" lon="-2.19976">
        <ele>27.6</ele>
        <time>2021-05-27T15:04:35Z</time>
      </trkpt>
      <trkpt lat="47.68701" lon="-2.19971">
        <ele>27.7</ele>
        <time>2021-05-27T15:04:36Z</time>
      </trkpt>
      <trkpt lat="47.68699" lon="-2.19967">
        <ele>27.7</ele>
        <time>2021-05-27T15:04:37Z</time>
      </trkpt>
      <trkpt lat="47.68698" lon="-2.19962">
        <ele>27.8</ele>
        <time>2021-05-27T15:04:38Z</time>
      </trkpt>
      <trkpt lat="47.68697" lon="-2.19958">
        <ele>27.9</ele>
        <time>2021-05-27T15:04:39Z</time>
      </trkpt>
      <trkpt lat="47.68696" lon="-2.19954">
        <ele>27.9</ele>
        <time>2021-05-27T15:04:40Z</time>
      </trkpt>
      <trkpt lat="47.68696" lon="-2.19949">
        <ele>27.9</ele>
        <time>2021-05-27T15:04:41Z</time>
      </trkpt>
      <trkpt lat="47.68695" lon="-2.19945">
        <ele>28</ele>
        <time>2021-05-27T15:04:42Z</time>
      </trkpt>
      <trkpt lat="47.68694" lon="-2.19942">
        <ele>28</ele>
        <time>2021-05-27T15:04:43Z</time>
      </trkpt>
      <trkpt lat="47.68693" lon="-2.19938">
        <ele>28.1</ele>
        <time>2021-05-27T15:04:44Z</time>
      </trkpt>
      <trkpt lat="47.6869" lon="-2.19934">
        <ele>28.3</ele>
        <time>2021-05-27T15:04:45Z</time>
      </trkpt>
      <trkpt lat="47.68689" lon="-2.19928">
        <ele>28.4</ele>
        <time>2021-05-27T15:04:46Z</time>
      </trkpt>
      <trkpt lat="47.68686" lon="-2.19922">
        <ele>28.6</ele>
        <time>2021-05-27T15:04:47Z</time>
      </trkpt>
      <trkpt lat="47.68686" lon="-2.19917">
        <ele>28.6</ele>
        <time>2021-05-27T15:04:48Z</time>
      </trkpt>
      <trkpt lat="47.68684" lon="-2.19912">
        <ele>28.9</ele>
        <time>2021-05-27T15:04:49Z</time>
      </trkpt>
      <trkpt lat="47.68683" lon="-2.19908">
        <ele>29.2</ele>
        <time>2021-05-27T15:04:50Z</time>
      </trkpt>
      <trkpt lat="47.68683" lon="-2.19904">
        <ele>29.5</ele>
        <time>2021-05-27T15:04:51Z</time>
      </trkpt>
      <trkpt lat="47.68682" lon="-2.199">
        <ele>29.8</ele>
        <time>2021-05-27T15:04:52Z</time>
      </trkpt>
      <trkpt lat="47.68681" lon="-2.19896">
        <ele>30</ele>
        <time>2021-05-27T15:04:53Z</time>
      </trkpt>
      <trkpt lat="47.68681" lon="-2.19892">
        <ele>30.3</ele>
        <time>2021-05-27T15:04:54Z</time>
      </trkpt>
      <trkpt lat="47.6868" lon="-2.19888">
        <ele>30.6</ele>
        <time>2021-05-27T15:04:55Z</time>
      </trkpt>
      <trkpt lat="47.68678" lon="-2.19883">
        <ele>31</ele>
        <time>2021-05-27T15:04:56Z</time>
      </trkpt>
      <trkpt lat="47.68676" lon="-2.19878">
        <ele>31.4</ele>
        <time>2021-05-27T15:04:57Z</time>
      </trkpt>
      <trkpt lat="47.68675" lon="-2.19873">
        <ele>31.8</ele>
        <time>2021-05-27T15:04:58Z</time>
      </trkpt>
      <trkpt lat="47.68674" lon="-2.19867">
        <ele>32.2</ele>
        <time>2021-05-27T15:04:59Z</time>
      </trkpt>
      <trkpt lat="47.68672" lon="-2.19862">
        <ele>32.7</ele>
        <time>2021-05-27T15:05:00Z</time>
      </trkpt>
      <trkpt lat="47.68671" lon="-2.19858">
        <ele>33</ele>
        <time>2021-05-27T15:05:01Z</time>
      </trkpt>
      <trkpt lat="47.6867" lon="-2.19854">
        <ele>33.3</ele>
        <time>2021-05-27T15:05:02Z</time>
      </trkpt>
      <trkpt lat="47.68668" lon="-2.1985">
        <ele>33.8</ele>
        <time>2021-05-27T15:05:03Z</time>
      </trkpt>
      <trkpt lat="47.68666" lon="-2.19847">
        <ele>34.2</ele>
        <time>2021-05-27T15:05:04Z</time>
      </trkpt>
      <trkpt lat="47.68665" lon="-2.19843">
        <ele>34.4</ele>
        <time>2021-05-27T15:05:05Z</time>
      </trkpt>
      <trkpt lat="47.68664" lon="-2.19838">
        <ele>34.7</ele>
        <time>2021-05-27T15:05:06Z</time>
      </trkpt>
      <trkpt lat="47.68663" lon="-2.19834">
        <ele>35</ele>
        <time>2021-05-27T15:05:07Z</time>
      </trkpt>
      <trkpt lat="47.68662" lon="-2.1983">
        <ele>35.2</ele>
        <time>2021-05-27T15:05:08Z</time>
      </trkpt>
      <trkpt lat="47.68661" lon="-2.19826">
        <ele>35.4</ele>
        <time>2021-05-27T15:05:09Z</time>
      </trkpt>
      <trkpt lat="47.68659" lon="-2.19821">
        <ele>35.7</ele>
        <time>2021-05-27T15:05:10Z</time>
      </trkpt>
      <trkpt lat="47.68658" lon="-2.19816">
        <ele>36</ele>
        <time>2021-05-27T15:05:11Z</time>
      </trkpt>
      <trkpt lat="47.68657" lon="-2.19812">
        <ele>36.2</ele>
        <time>2021-05-27T15:05:12Z</time>
      </trkpt>
      <trkpt lat="47.68656" lon="-2.19807">
        <ele>36.4</ele>
        <time>2021-05-27T15:05:13Z</time>
      </trkpt>
      <trkpt lat="47.68656" lon="-2.19803">
        <ele>36.7</ele>
        <time>2021-05-27T15:05:14Z</time>
      </trkpt>
      <trkpt lat="47.68654" lon="-2.19799">
        <ele>36.9</ele>
        <time>2021-05-27T15:05:15Z</time>
      </trkpt>
      <trkpt lat="47.68653" lon="-2.19796">
        <ele>37.1</ele>
        <time>2021-05-27T15:05:16Z</time>
      </trkpt>
      <trkpt lat="47.68652" lon="-2.19793">
        <ele>37.2</ele>
        <time>2021-05-27T15:05:17Z</time>
      </trkpt>
      <trkpt lat="47.68651" lon="-2.19789">
        <ele>37.4</ele>
        <time>2021-05-27T15:05:18Z</time>
      </trkpt>
      <trkpt lat="47.6865" lon="-2.19785">
        <ele>37.6</ele>
        <time>2021-05-27T15:05:19Z</time>
      </trkpt>
      <trkpt lat="47.6865" lon="-2.19781">
        <ele>37.7</ele>
        <time>2021-05-27T15:05:20Z</time>
      </trkpt>
      <trkpt lat="47.6865" lon="-2.19778">
        <ele>37.9</ele>
        <time>2021-05-27T15:05:21Z</time>
      </trkpt>
      <trkpt lat="47.68648" lon="-2.19775">
        <ele>38</ele>
        <time>2021-05-27T15:05:22Z</time>
      </trkpt>
      <trkpt lat="47.68648" lon="-2.19772">
        <ele>38.2</ele>
        <time>2021-05-27T15:05:23Z</time>
      </trkpt>
      <trkpt lat="47.68647" lon="-2.19768">
        <ele>38.4</ele>
        <time>2021-05-27T15:05:24Z</time>
      </trkpt>
      <trkpt lat="47.68647" lon="-2.19763">
        <ele>38.6</ele>
        <time>2021-05-27T15:05:25Z</time>
      </trkpt>
      <trkpt lat="47.68645" lon="-2.19758">
        <ele>38.8</ele>
        <time>2021-05-27T15:05:26Z</time>
      </trkpt>
      <trkpt lat="47.68644" lon="-2.19753">
        <ele>39</ele>
        <time>2021-05-27T15:05:27Z</time>
      </trkpt>
      <trkpt lat="47.68643" lon="-2.19749">
        <ele>39.1</ele>
        <time>2021-05-27T15:05:28Z</time>
      </trkpt>
      <trkpt lat="47.68641" lon="-2.19746">
        <ele>39</ele>
        <time>2021-05-27T15:05:29Z</time>
      </trkpt>
      <trkpt lat="47.68638" lon="-2.19743">
        <ele>38.9</ele>
        <time>2021-05-27T15:05:30Z</time>
      </trkpt>
      <trkpt lat="47.68636" lon="-2.19741">
        <ele>38.8</ele>
        <time>2021-05-27T15:05:31Z</time>
      </trkpt>
      <trkpt lat="47.68634" lon="-2.19741">
        <ele>38.7</ele>
        <time>2021-05-27T15:05:32Z</time>
      </trkpt>
      <trkpt lat="47.68633" lon="-2.1974">
        <ele>38.7</ele>
        <time>2021-05-27T15:05:33Z</time>
      </trkpt>
      <trkpt lat="47.68631" lon="-2.19739">
        <ele>38.6</ele>
        <time>2021-05-27T15:05:34Z</time>
      </trkpt>
      <trkpt lat="47.68628" lon="-2.19737">
        <ele>38.5</ele>
        <time>2021-05-27T15:05:35Z</time>
      </trkpt>
      <trkpt lat="47.68625" lon="-2.19736">
        <ele>38.3</ele>
        <time>2021-05-27T15:05:36Z</time>
      </trkpt>
      <trkpt lat="47.68621" lon="-2.19736">
        <ele>38.2</ele>
        <time>2021-05-27T15:05:37Z</time>
      </trkpt>
      <trkpt lat="47.68618" lon="-2.19735">
        <ele>38.1</ele>
        <time>2021-05-27T15:05:38Z</time>
      </trkpt>
      <trkpt lat="47.68615" lon="-2.19734">
        <ele>38</ele>
        <time>2021-05-27T15:05:39Z</time>
      </trkpt>
      <trkpt lat="47.68612" lon="-2.19734">
        <ele>37.8</ele>
        <time>2021-05-27T15:05:40Z</time>
      </trkpt>
      <trkpt lat="47.68609" lon="-2.19734">
        <ele>37.7</ele>
        <time>2021-05-27T15:05:41Z</time>
      </trkpt>
      <trkpt lat="47.68606" lon="-2.19732">
        <ele>37.6</ele>
        <time>2021-05-27T15:05:42Z</time>
      </trkpt>
      <trkpt lat="47.68604" lon="-2.19729">
        <ele>37.5</ele>
        <time>2021-05-27T15:05:43Z</time>
      </trkpt>
      <trkpt lat="47.68601" lon="-2.19727">
        <ele>37.4</ele>
        <time>2021-05-27T15:05:44Z</time>
      </trkpt>
      <trkpt lat="47.68599" lon="-2.19724">
        <ele>37.2</ele>
        <time>2021-05-27T15:05:45Z</time>
      </trkpt>
      <trkpt lat="47.68596" lon="-2.19721">
        <ele>37.1</ele>
        <time>2021-05-27T15:05:46Z</time>
      </trkpt>
      <trkpt lat="47.68594" lon="-2.1972">
        <ele>37</ele>
        <time>2021-05-27T15:05:47Z</time>
      </trkpt>
      <trkpt lat="47.6859" lon="-2.19721">
        <ele>36.9</ele>
        <time>2021-05-27T15:05:48Z</time>
      </trkpt>
      <trkpt lat="47.68586" lon="-2.19722">
        <ele>36.8</ele>
        <time>2021-05-27T15:05:49Z</time>
      </trkpt>
      <trkpt lat="47.68582" lon="-2.19726">
        <ele>36.5</ele>
        <time>2021-05-27T15:05:50Z</time>
      </trkpt>
      <trkpt lat="47.68577" lon="-2.19728">
        <ele>35.9</ele>
        <time>2021-05-27T15:05:51Z</time>
      </trkpt>
      <trkpt lat="47.68574" lon="-2.19728">
        <ele>35.5</ele>
        <time>2021-05-27T15:05:52Z</time>
      </trkpt>
      <trkpt lat="47.68571" lon="-2.19727">
        <ele>35</ele>
        <time>2021-05-27T15:05:53Z</time>
      </trkpt>
      <trkpt lat="47.68569" lon="-2.19724">
        <ele>34.8</ele>
        <time>2021-05-27T15:05:54Z</time>
      </trkpt>
      <trkpt lat="47.68568" lon="-2.1972">
        <ele>34.6</ele>
        <time>2021-05-27T15:05:55Z</time>
      </trkpt>
      <trkpt lat="47.68567" lon="-2.19715">
        <ele>34.4</ele>
        <time>2021-05-27T15:05:56Z</time>
      </trkpt>
      <trkpt lat="47.68566" lon="-2.19709">
        <ele>34.1</ele>
        <time>2021-05-27T15:05:57Z</time>
      </trkpt>
      <trkpt lat="47.68564" lon="-2.19703">
        <ele>33.7</ele>
        <time>2021-05-27T15:05:58Z</time>
      </trkpt>
      <trkpt lat="47.68561" lon="-2.19701">
        <ele>33.3</ele>
        <time>2021-05-27T15:05:59Z</time>
      </trkpt>
      <trkpt lat="47.68558" lon="-2.19697">
        <ele>32.8</ele>
        <time>2021-05-27T15:06:00Z</time>
      </trkpt>
      <trkpt lat="47.68556" lon="-2.19692">
        <ele>32.5</ele>
        <time>2021-05-27T15:06:01Z</time>
      </trkpt>
      <trkpt lat="47.68556" lon="-2.19687">
        <ele>32.4</ele>
        <time>2021-05-27T15:06:02Z</time>
      </trkpt>
      <trkpt lat="47.68557" lon="-2.19682">
        <ele>32.5</ele>
        <time>2021-05-27T15:06:03Z</time>
      </trkpt>
      <trkpt lat="47.68558" lon="-2.19676">
        <ele>32.5</ele>
        <time>2021-05-27T15:06:04Z</time>
      </trkpt>
      <trkpt lat="47.68559" lon="-2.19671">
        <ele>32.6</ele>
        <time>2021-05-27T15:06:05Z</time>
      </trkpt>
      <trkpt lat="47.68558" lon="-2.19666">
        <ele>32.4</ele>
        <time>2021-05-27T15:06:06Z</time>
      </trkpt>
      <trkpt lat="47.68556" lon="-2.19662">
        <ele>31.9</ele>
        <time>2021-05-27T15:06:07Z</time>
      </trkpt>
      <trkpt lat="47.68552" lon="-2.19657">
        <ele>31.3</ele>
        <time>2021-05-27T15:06:08Z</time>
      </trkpt>
      <trkpt lat="47.68548" lon="-2.19654">
        <ele>30.7</ele>
        <time>2021-05-27T15:06:09Z</time>
      </trkpt>
      <trkpt lat="47.68545" lon="-2.1965">
        <ele>30.2</ele>
        <time>2021-05-27T15:06:10Z</time>
      </trkpt>
      <trkpt lat="47.68541" lon="-2.19647">
        <ele>29.6</ele>
        <time>2021-05-27T15:06:11Z</time>
      </trkpt>
      <trkpt lat="47.68536" lon="-2.19644">
        <ele>28.9</ele>
        <time>2021-05-27T15:06:12Z</time>
      </trkpt>
      <trkpt lat="47.6853" lon="-2.19642">
        <ele>28.1</ele>
        <time>2021-05-27T15:06:13Z</time>
      </trkpt>
      <trkpt lat="47.68525" lon="-2.19642">
        <ele>27.4</ele>
        <time>2021-05-27T15:06:14Z</time>
      </trkpt>
      <trkpt lat="47.68519" lon="-2.19643">
        <ele>26.5</ele>
        <time>2021-05-27T15:06:15Z</time>
      </trkpt>
      <trkpt lat="47.68512" lon="-2.19645">
        <ele>25.7</ele>
        <time>2021-05-27T15:06:16Z</time>
      </trkpt>
      <trkpt lat="47.68506" lon="-2.19647">
        <ele>24.8</ele>
        <time>2021-05-27T15:06:17Z</time>
      </trkpt>
      <trkpt lat="47.68499" lon="-2.1965">
        <ele>23.9</ele>
        <time>2021-05-27T15:06:18Z</time>
      </trkpt>
      <trkpt lat="47.68493" lon="-2.19653">
        <ele>23.4</ele>
        <time>2021-05-27T15:06:19Z</time>
      </trkpt>
      <trkpt lat="47.68486" lon="-2.19656">
        <ele>22.9</ele>
        <time>2021-05-27T15:06:20Z</time>
      </trkpt>
      <trkpt lat="47.68479" lon="-2.19658">
        <ele>22.5</ele>
        <time>2021-05-27T15:06:21Z</time>
      </trkpt>
      <trkpt lat="47.68474" lon="-2.1966">
        <ele>22.1</ele>
        <time>2021-05-27T15:06:22Z</time>
      </trkpt>
      <trkpt lat="47.6847" lon="-2.19663">
        <ele>21.8</ele>
        <time>2021-05-27T15:06:23Z</time>
      </trkpt>
      <trkpt lat="47.68467" lon="-2.19667">
        <ele>21.6</ele>
        <time>2021-05-27T15:06:24Z</time>
      </trkpt>
      <trkpt lat="47.68466" lon="-2.19672">
        <ele>21.7</ele>
        <time>2021-05-27T15:06:25Z</time>
      </trkpt>
      <trkpt lat="47.68466" lon="-2.19677">
        <ele>21.9</ele>
        <time>2021-05-27T15:06:26Z</time>
      </trkpt>
      <trkpt lat="47.68465" lon="-2.19682">
        <ele>22</ele>
        <time>2021-05-27T15:06:27Z</time>
      </trkpt>
      <trkpt lat="47.68464" lon="-2.19688">
        <ele>22.2</ele>
        <time>2021-05-27T15:06:28Z</time>
      </trkpt>
      <trkpt lat="47.68463" lon="-2.19693">
        <ele>22.3</ele>
        <time>2021-05-27T15:06:29Z</time>
      </trkpt>
      <trkpt lat="47.68462" lon="-2.19697">
        <ele>22.3</ele>
        <time>2021-05-27T15:06:30Z</time>
      </trkpt>
      <trkpt lat="47.68461" lon="-2.19702">
        <ele>22.4</ele>
        <time>2021-05-27T15:06:31Z</time>
      </trkpt>
      <trkpt lat="47.6846" lon="-2.19706">
        <ele>22.6</ele>
        <time>2021-05-27T15:06:32Z</time>
      </trkpt>
      <trkpt lat="47.68459" lon="-2.19711">
        <ele>22.6</ele>
        <time>2021-05-27T15:06:33Z</time>
      </trkpt>
      <trkpt lat="47.68458" lon="-2.19715">
        <ele>22.7</ele>
        <time>2021-05-27T15:06:34Z</time>
      </trkpt>
      <trkpt lat="47.68456" lon="-2.19719">
        <ele>22.7</ele>
        <time>2021-05-27T15:06:35Z</time>
      </trkpt>
      <trkpt lat="47.68453" lon="-2.19723">
        <ele>22.7</ele>
        <time>2021-05-27T15:06:36Z</time>
      </trkpt>
      <trkpt lat="47.68451" lon="-2.19728">
        <ele>22.8</ele>
        <time>2021-05-27T15:06:37Z</time>
      </trkpt>
      <trkpt lat="47.68448" lon="-2.19733">
        <ele>22.8</ele>
        <time>2021-05-27T15:06:38Z</time>
      </trkpt>
      <trkpt lat="47.68444" lon="-2.19737">
        <ele>22.8</ele>
        <time>2021-05-27T15:06:39Z</time>
      </trkpt>
      <trkpt lat="47.68441" lon="-2.19742">
        <ele>22.9</ele>
        <time>2021-05-27T15:06:40Z</time>
      </trkpt>
      <trkpt lat="47.68438" lon="-2.19748">
        <ele>22.9</ele>
        <time>2021-05-27T15:06:41Z</time>
      </trkpt>
      <trkpt lat="47.68435" lon="-2.19753">
        <ele>23.2</ele>
        <time>2021-05-27T15:06:42Z</time>
      </trkpt>
      <trkpt lat="47.68432" lon="-2.19758">
        <ele>23.5</ele>
        <time>2021-05-27T15:06:43Z</time>
      </trkpt>
      <trkpt lat="47.68429" lon="-2.19763">
        <ele>23.8</ele>
        <time>2021-05-27T15:06:44Z</time>
      </trkpt>
      <trkpt lat="47.68426" lon="-2.19768">
        <ele>24.1</ele>
        <time>2021-05-27T15:06:45Z</time>
      </trkpt>
      <trkpt lat="47.68423" lon="-2.19773">
        <ele>24.4</ele>
        <time>2021-05-27T15:06:46Z</time>
      </trkpt>
      <trkpt lat="47.6842" lon="-2.19777">
        <ele>24.8</ele>
        <time>2021-05-27T15:06:47Z</time>
      </trkpt>
      <trkpt lat="47.68417" lon="-2.19782">
        <ele>25.1</ele>
        <time>2021-05-27T15:06:48Z</time>
      </trkpt>
      <trkpt lat="47.68414" lon="-2.19786">
        <ele>25.4</ele>
        <time>2021-05-27T15:06:49Z</time>
      </trkpt>
      <trkpt lat="47.68411" lon="-2.1979">
        <ele>25.7</ele>
        <time>2021-05-27T15:06:50Z</time>
      </trkpt>
      <trkpt lat="47.68409" lon="-2.19795">
        <ele>26.1</ele>
        <time>2021-05-27T15:06:51Z</time>
      </trkpt>
      <trkpt lat="47.68406" lon="-2.198">
        <ele>26.4</ele>
        <time>2021-05-27T15:06:52Z</time>
      </trkpt>
      <trkpt lat="47.68403" lon="-2.19803">
        <ele>26.6</ele>
        <time>2021-05-27T15:06:53Z</time>
      </trkpt>
      <trkpt lat="47.684" lon="-2.19807">
        <ele>26.9</ele>
        <time>2021-05-27T15:06:54Z</time>
      </trkpt>
      <trkpt lat="47.68397" lon="-2.19809">
        <ele>26.9</ele>
        <time>2021-05-27T15:06:55Z</time>
      </trkpt>
      <trkpt lat="47.68394" lon="-2.19809">
        <ele>26.8</ele>
        <time>2021-05-27T15:06:56Z</time>
      </trkpt>
      <trkpt lat="47.68391" lon="-2.19809">
        <ele>26.7</ele>
        <time>2021-05-27T15:06:57Z</time>
      </trkpt>
      <trkpt lat="47.68389" lon="-2.19807">
        <ele>26.5</ele>
        <time>2021-05-27T15:06:58Z</time>
      </trkpt>
      <trkpt lat="47.68387" lon="-2.19806">
        <ele>26.3</ele>
        <time>2021-05-27T15:06:59Z</time>
      </trkpt>
      <trkpt lat="47.68383" lon="-2.19803">
        <ele>26</ele>
        <time>2021-05-27T15:07:00Z</time>
      </trkpt>
      <trkpt lat="47.6838" lon="-2.198">
        <ele>25.6</ele>
        <time>2021-05-27T15:07:01Z</time>
      </trkpt>
      <trkpt lat="47.68376" lon="-2.19796">
        <ele>25.1</ele>
        <time>2021-05-27T15:07:02Z</time>
      </trkpt>
      <trkpt lat="47.68372" lon="-2.19792">
        <ele>24.7</ele>
        <time>2021-05-27T15:07:03Z</time>
      </trkpt>
      <trkpt lat="47.68367" lon="-2.19788">
        <ele>24.2</ele>
        <time>2021-05-27T15:07:04Z</time>
      </trkpt>
      <trkpt lat="47.68362" lon="-2.19782">
        <ele>23.7</ele>
        <time>2021-05-27T15:07:05Z</time>
      </trkpt>
      <trkpt lat="47.68357" lon="-2.19777">
        <ele>23.2</ele>
        <time>2021-05-27T15:07:06Z</time>
      </trkpt>
      <trkpt lat="47.68352" lon="-2.19771">
        <ele>22.6</ele>
        <time>2021-05-27T15:07:07Z</time>
      </trkpt>
      <trkpt lat="47.68346" lon="-2.19765">
        <ele>22.1</ele>
        <time>2021-05-27T15:07:08Z</time>
      </trkpt>
      <trkpt lat="47.6834" lon="-2.19759">
        <ele>21.6</ele>
        <time>2021-05-27T15:07:09Z</time>
      </trkpt>
      <trkpt lat="47.68334" lon="-2.19753">
        <ele>21.2</ele>
        <time>2021-05-27T15:07:10Z</time>
      </trkpt>
      <trkpt lat="47.68327" lon="-2.19746">
        <ele>20.3</ele>
        <time>2021-05-27T15:07:11Z</time>
      </trkpt>
      <trkpt lat="47.6832" lon="-2.19739">
        <ele>19.5</ele>
        <time>2021-05-27T15:07:12Z</time>
      </trkpt>
      <trkpt lat="47.68313" lon="-2.19733">
        <ele>18.7</ele>
        <time>2021-05-27T15:07:13Z</time>
      </trkpt>
      <trkpt lat="47.68306" lon="-2.19726">
        <ele>18</ele>
        <time>2021-05-27T15:07:14Z</time>
      </trkpt>
      <trkpt lat="47.68299" lon="-2.1972">
        <ele>17.3</ele>
        <time>2021-05-27T15:07:15Z</time>
      </trkpt>
      <trkpt lat="47.68293" lon="-2.19713">
        <ele>16.7</ele>
        <time>2021-05-27T15:07:16Z</time>
      </trkpt>
      <trkpt lat="47.68285" lon="-2.19707">
        <ele>16.1</ele>
        <time>2021-05-27T15:07:17Z</time>
      </trkpt>
      <trkpt lat="47.68277" lon="-2.197">
        <ele>15.6</ele>
        <time>2021-05-27T15:07:18Z</time>
      </trkpt>
      <trkpt lat="47.68269" lon="-2.1969">
        <ele>15</ele>
        <time>2021-05-27T15:07:19Z</time>
      </trkpt>
      <trkpt lat="47.68262" lon="-2.19684">
        <ele>14.6</ele>
        <time>2021-05-27T15:07:20Z</time>
      </trkpt>
      <trkpt lat="47.68256" lon="-2.19678">
        <ele>14.3</ele>
        <time>2021-05-27T15:07:21Z</time>
      </trkpt>
      <trkpt lat="47.68251" lon="-2.19672">
        <ele>14.1</ele>
        <time>2021-05-27T15:07:22Z</time>
      </trkpt>
      <trkpt lat="47.68248" lon="-2.19669">
        <ele>14</ele>
        <time>2021-05-27T15:07:23Z</time>
      </trkpt>
      <trkpt lat="47.68245" lon="-2.19666">
        <ele>13.9</ele>
        <time>2021-05-27T15:07:24Z</time>
      </trkpt>
      <trkpt lat="47.68243" lon="-2.19662">
        <ele>13.8</ele>
        <time>2021-05-27T15:07:25Z</time>
      </trkpt>
      <trkpt lat="47.6824" lon="-2.19658">
        <ele>13.7</ele>
        <time>2021-05-27T15:07:26Z</time>
      </trkpt>
      <trkpt lat="47.68238" lon="-2.19653">
        <ele>13.6</ele>
        <time>2021-05-27T15:07:27Z</time>
      </trkpt>
      <trkpt lat="47.68237" lon="-2.19646">
        <ele>13.5</ele>
        <time>2021-05-27T15:07:28Z</time>
      </trkpt>
      <trkpt lat="47.68236" lon="-2.19639">
        <ele>13.5</ele>
        <time>2021-05-27T15:07:29Z</time>
      </trkpt>
      <trkpt lat="47.68236" lon="-2.19633">
        <ele>13.5</ele>
        <time>2021-05-27T15:07:30Z</time>
      </trkpt>
      <trkpt lat="47.68236" lon="-2.19626">
        <ele>13.4</ele>
        <time>2021-05-27T15:07:31Z</time>
      </trkpt>
      <trkpt lat="47.68236" lon="-2.19619">
        <ele>13.4</ele>
        <time>2021-05-27T15:07:32Z</time>
      </trkpt>
      <trkpt lat="47.68236" lon="-2.19613">
        <ele>13.3</ele>
        <time>2021-05-27T15:07:33Z</time>
      </trkpt>
      <trkpt lat="47.68237" lon="-2.19606">
        <ele>13.3</ele>
        <time>2021-05-27T15:07:34Z</time>
      </trkpt>
      <trkpt lat="47.68238" lon="-2.196">
        <ele>13.3</ele>
        <time>2021-05-27T15:07:35Z</time>
      </trkpt>
      <trkpt lat="47.68238" lon="-2.19594">
        <ele>13.2</ele>
        <time>2021-05-27T15:07:36Z</time>
      </trkpt>
      <trkpt lat="47.68238" lon="-2.19587">
        <ele>13.2</ele>
        <time>2021-05-27T15:07:37Z</time>
      </trkpt>
      <trkpt lat="47.68238" lon="-2.19581">
        <ele>13.2</ele>
        <time>2021-05-27T15:07:38Z</time>
      </trkpt>
      <trkpt lat="47.68239" lon="-2.19575">
        <ele>13.3</ele>
        <time>2021-05-27T15:07:39Z</time>
      </trkpt>
      <trkpt lat="47.68239" lon="-2.1957">
        <ele>13.4</ele>
        <time>2021-05-27T15:07:40Z</time>
      </trkpt>
      <trkpt lat="47.6824" lon="-2.19566">
        <ele>13.4</ele>
        <time>2021-05-27T15:07:41Z</time>
      </trkpt>
      <trkpt lat="47.6824" lon="-2.19563">
        <ele>13.5</ele>
        <time>2021-05-27T15:07:42Z</time>
      </trkpt>
      <trkpt lat="47.68239" lon="-2.19561">
        <ele>13.5</ele>
        <time>2021-05-27T15:07:43Z</time>
      </trkpt>
      <trkpt lat="47.68238" lon="-2.19561">
        <ele>13.6</ele>
        <time>2021-05-27T15:07:44Z</time>
      </trkpt>
      <trkpt lat="47.68236" lon="-2.19561">
        <ele>13.6</ele>
        <time>2021-05-27T15:07:45Z</time>
      </trkpt>
      <trkpt lat="47.68234" lon="-2.19562">
        <ele>13.6</ele>
        <time>2021-05-27T15:07:46Z</time>
      </trkpt>
      <trkpt lat="47.6823" lon="-2.19564">
        <ele>13.7</ele>
        <time>2021-05-27T15:07:47Z</time>
      </trkpt>
      <trkpt lat="47.68227" lon="-2.19565">
        <ele>13.7</ele>
        <time>2021-05-27T15:07:48Z</time>
      </trkpt>
      <trkpt lat="47.68225" lon="-2.19566">
        <ele>13.8</ele>
        <time>2021-05-27T15:07:49Z</time>
      </trkpt>
      <trkpt lat="47.68222" lon="-2.19566">
        <ele>13.8</ele>
        <time>2021-05-27T15:07:50Z</time>
      </trkpt>
      <trkpt lat="47.6822" lon="-2.19565">
        <ele>13.9</ele>
        <time>2021-05-27T15:07:51Z</time>
      </trkpt>
      <trkpt lat="47.68217" lon="-2.19564">
        <ele>14</ele>
        <time>2021-05-27T15:07:52Z</time>
      </trkpt>
      <trkpt lat="47.68215" lon="-2.19565">
        <ele>14</ele>
        <time>2021-05-27T15:07:53Z</time>
      </trkpt>
      <trkpt lat="47.68214" lon="-2.19566">
        <ele>14</ele>
        <time>2021-05-27T15:07:54Z</time>
      </trkpt>
      <trkpt lat="47.68212" lon="-2.19568">
        <ele>14</ele>
        <time>2021-05-27T15:07:55Z</time>
      </trkpt>
      <trkpt lat="47.68211" lon="-2.1957">
        <ele>13.9</ele>
        <time>2021-05-27T15:07:56Z</time>
      </trkpt>
      <trkpt lat="47.68208" lon="-2.19573">
        <ele>13.9</ele>
        <time>2021-05-27T15:07:57Z</time>
      </trkpt>
      <trkpt lat="47.68206" lon="-2.19575">
        <ele>13.8</ele>
        <time>2021-05-27T15:07:58Z</time>
      </trkpt>
      <trkpt lat="47.68204" lon="-2.19577">
        <ele>13.8</ele>
        <time>2021-05-27T15:07:59Z</time>
      </trkpt>
      <trkpt lat="47.68201" lon="-2.1958">
        <ele>13.7</ele>
        <time>2021-05-27T15:08:00Z</time>
      </trkpt>
      <trkpt lat="47.68199" lon="-2.19582">
        <ele>13.7</ele>
        <time>2021-05-27T15:08:01Z</time>
      </trkpt>
      <trkpt lat="47.68195" lon="-2.19581">
        <ele>13.8</ele>
        <time>2021-05-27T15:08:02Z</time>
      </trkpt>
      <trkpt lat="47.68193" lon="-2.19583">
        <ele>13.7</ele>
        <time>2021-05-27T15:08:03Z</time>
      </trkpt>
      <trkpt lat="47.6819" lon="-2.19583">
        <ele>13.7</ele>
        <time>2021-05-27T15:08:04Z</time>
      </trkpt>
      <trkpt lat="47.68189" lon="-2.19584">
        <ele>13.7</ele>
        <time>2021-05-27T15:08:05Z</time>
      </trkpt>
      <trkpt lat="47.68187" lon="-2.19583">
        <ele>13.8</ele>
        <time>2021-05-27T15:08:06Z</time>
      </trkpt>
      <trkpt lat="47.68185" lon="-2.19581">
        <ele>13.9</ele>
        <time>2021-05-27T15:08:07Z</time>
      </trkpt>
      <trkpt lat="47.68183" lon="-2.19579">
        <ele>14</ele>
        <time>2021-05-27T15:08:08Z</time>
      </trkpt>
      <trkpt lat="47.68181" lon="-2.19578">
        <ele>14.1</ele>
        <time>2021-05-27T15:08:09Z</time>
      </trkpt>
      <trkpt lat="47.68178" lon="-2.19579">
        <ele>14.1</ele>
        <time>2021-05-27T15:08:10Z</time>
      </trkpt>
      <trkpt lat="47.68176" lon="-2.19578">
        <ele>14.2</ele>
        <time>2021-05-27T15:08:11Z</time>
      </trkpt>
      <trkpt lat="47.68175" lon="-2.19578">
        <ele>14.2</ele>
        <time>2021-05-27T15:08:12Z</time>
      </trkpt>
      <trkpt lat="47.68174" lon="-2.19577">
        <ele>14.3</ele>
        <time>2021-05-27T15:08:13Z</time>
      </trkpt>
      <trkpt lat="47.68173" lon="-2.19576">
        <ele>14.3</ele>
        <time>2021-05-27T15:08:14Z</time>
      </trkpt>
      <trkpt lat="47.68172" lon="-2.19576">
        <ele>14.4</ele>
        <time>2021-05-27T15:08:15Z</time>
      </trkpt>
      <trkpt lat="47.68171" lon="-2.19576">
        <ele>14.3</ele>
        <time>2021-05-27T15:08:16Z</time>
      </trkpt>
      <trkpt lat="47.6817" lon="-2.19576">
        <ele>14.4</ele>
        <time>2021-05-27T15:08:17Z</time>
      </trkpt>
      <trkpt lat="47.68169" lon="-2.19576">
        <ele>14.4</ele>
        <time>2021-05-27T15:08:18Z</time>
      </trkpt>
      <trkpt lat="47.68169" lon="-2.19576">
        <ele>14.4</ele>
        <time>2021-05-27T15:08:19Z</time>
      </trkpt>
      <trkpt lat="47.68169" lon="-2.19576">
        <ele>14.4</ele>
        <time>2021-05-27T15:08:20Z</time>
      </trkpt>
      <trkpt lat="47.68169" lon="-2.19576">
        <ele>14.4</ele>
        <time>2021-05-27T15:08:21Z</time>
      </trkpt>
      <trkpt lat="47.68167" lon="-2.19571">
        <ele>14.8</ele>
        <time>2021-05-27T15:08:22Z</time>
      </trkpt>
      <trkpt lat="47.68166" lon="-2.19568">
        <ele>14.9</ele>
        <time>2021-05-27T15:08:23Z</time>
      </trkpt>
      <trkpt lat="47.68164" lon="-2.19567">
        <ele>15</ele>
        <time>2021-05-27T15:08:24Z</time>
      </trkpt>
      <trkpt lat="47.68162" lon="-2.19565">
        <ele>15.1</ele>
        <time>2021-05-27T15:08:25Z</time>
      </trkpt>
      <trkpt lat="47.68161" lon="-2.19564">
        <ele>15.1</ele>
        <time>2021-05-27T15:08:26Z</time>
      </trkpt>
      <trkpt lat="47.6816" lon="-2.19561">
        <ele>15.3</ele>
        <time>2021-05-27T15:08:27Z</time>
      </trkpt>
      <trkpt lat="47.6816" lon="-2.1956">
        <ele>15.3</ele>
        <time>2021-05-27T15:08:28Z</time>
      </trkpt>
      <trkpt lat="47.68159" lon="-2.19557">
        <ele>15.5</ele>
        <time>2021-05-27T15:08:29Z</time>
      </trkpt>
      <trkpt lat="47.68158" lon="-2.19556">
        <ele>15.5</ele>
        <time>2021-05-27T15:08:30Z</time>
      </trkpt>
      <trkpt lat="47.68155" lon="-2.19554">
        <ele>15.6</ele>
        <time>2021-05-27T15:08:31Z</time>
      </trkpt>
      <trkpt lat="47.68152" lon="-2.19552">
        <ele>15.7</ele>
        <time>2021-05-27T15:08:32Z</time>
      </trkpt>
      <trkpt lat="47.68149" lon="-2.1955">
        <ele>15.8</ele>
        <time>2021-05-27T15:08:33Z</time>
      </trkpt>
      <trkpt lat="47.68146" lon="-2.19547">
        <ele>15.9</ele>
        <time>2021-05-27T15:08:34Z</time>
      </trkpt>
      <trkpt lat="47.68144" lon="-2.19544">
        <ele>16.1</ele>
        <time>2021-05-27T15:08:35Z</time>
      </trkpt>
      <trkpt lat="47.68143" lon="-2.19542">
        <ele>16.2</ele>
        <time>2021-05-27T15:08:36Z</time>
      </trkpt>
      <trkpt lat="47.68142" lon="-2.19541">
        <ele>16.2</ele>
        <time>2021-05-27T15:08:37Z</time>
      </trkpt>
      <trkpt lat="47.68141" lon="-2.1954">
        <ele>16.3</ele>
        <time>2021-05-27T15:08:38Z</time>
      </trkpt>
      <trkpt lat="47.6814" lon="-2.19539">
        <ele>16.3</ele>
        <time>2021-05-27T15:08:39Z</time>
      </trkpt>
      <trkpt lat="47.6814" lon="-2.19539">
        <ele>16.3</ele>
        <time>2021-05-27T15:08:40Z</time>
      </trkpt>
      <trkpt lat="47.68136" lon="-2.19537">
        <ele>16.4</ele>
        <time>2021-05-27T15:08:41Z</time>
      </trkpt>
      <trkpt lat="47.68134" lon="-2.19534">
        <ele>16.6</ele>
        <time>2021-05-27T15:08:42Z</time>
      </trkpt>
      <trkpt lat="47.68132" lon="-2.19531">
        <ele>16.7</ele>
        <time>2021-05-27T15:08:43Z</time>
      </trkpt>
      <trkpt lat="47.68132" lon="-2.1953">
        <ele>16.8</ele>
        <time>2021-05-27T15:08:44Z</time>
      </trkpt>
      <trkpt lat="47.68131" lon="-2.1953">
        <ele>16.8</ele>
        <time>2021-05-27T15:08:45Z</time>
      </trkpt>
      <trkpt lat="47.68131" lon="-2.1953">
        <ele>16.8</ele>
        <time>2021-05-27T15:08:46Z</time>
      </trkpt>
      <trkpt lat="47.68131" lon="-2.1953">
        <ele>16.8</ele>
        <time>2021-05-27T15:08:47Z</time>
      </trkpt>
      <trkpt lat="47.68131" lon="-2.1953">
        <ele>16.8</ele>
        <time>2021-05-27T15:08:48Z</time>
      </trkpt>
      <trkpt lat="47.68131" lon="-2.1953">
        <ele>16.8</ele>
        <time>2021-05-27T15:08:49Z</time>
      </trkpt>
      <trkpt lat="47.68131" lon="-2.1953">
        <ele>16.8</ele>
        <time>2021-05-27T15:08:50Z</time>
      </trkpt>
      <trkpt lat="47.68131" lon="-2.1953">
        <ele>16.8</ele>
        <time>2021-05-27T15:08:51Z</time>
      </trkpt>
      <trkpt lat="47.68131" lon="-2.1953">
        <ele>16.8</ele>
        <time>2021-05-27T15:08:52Z</time>
      </trkpt>
      <trkpt lat="47.68131" lon="-2.1953">
        <ele>16.8</ele>
        <time>2021-05-27T15:08:53Z</time>
      </trkpt>
      <trkpt lat="47.68131" lon="-2.1953">
        <ele>16.8</ele>
        <time>2021-05-27T15:08:54Z</time>
      </trkpt>
      <trkpt lat="47.68131" lon="-2.1953">
        <ele>16.8</ele>
        <time>2021-05-27T15:08:55Z</time>
      </trkpt>
      <trkpt lat="47.68131" lon="-2.1953">
        <ele>16.8</ele>
        <time>2021-05-27T15:08:56Z</time>
      </trkpt>
      <trkpt lat="47.68131" lon="-2.1953">
        <ele>16.8</ele>
        <time>2021-05-27T15:08:57Z</time>
      </trkpt>
      <trkpt lat="47.68131" lon="-2.1953">
        <ele>16.8</ele>
        <time>2021-05-27T15:08:58Z</time>
      </trkpt>
      <trkpt lat="47.68131" lon="-2.1953">
        <ele>16.8</ele>
        <time>2021-05-27T15:08:59Z</time>
      </trkpt>
      <trkpt lat="47.68131" lon="-2.1953">
        <ele>16.8</ele>
        <time>2021-05-27T15:09:00Z</time>
      </trkpt>
      <trkpt lat="47.68131" lon="-2.1953">
        <ele>16.8</ele>
        <time>2021-05-27T15:09:01Z</time>
      </trkpt>
      <trkpt lat="47.68131" lon="-2.1953">
        <ele>16.8</ele>
        <time>2021-05-27T15:09:02Z</time>
      </trkpt>
      <trkpt lat="47.68128" lon="-2.19521">
        <ele>17.3</ele>
        <time>2021-05-27T15:09:03Z</time>
      </trkpt>
      <trkpt lat="47.68128" lon="-2.19519">
        <ele>17.4</ele>
        <time>2021-05-27T15:09:04Z</time>
      </trkpt>
      <trkpt lat="47.68127" lon="-2.19517">
        <ele>17.5</ele>
        <time>2021-05-27T15:09:05Z</time>
      </trkpt>
      <trkpt lat="47.68127" lon="-2.19512">
        <ele>17.8</ele>
        <time>2021-05-27T15:09:06Z</time>
      </trkpt>
      <trkpt lat="47.68128" lon="-2.1951">
        <ele>17.9</ele>
        <time>2021-05-27T15:09:07Z</time>
      </trkpt>
      <trkpt lat="47.68127" lon="-2.19507">
        <ele>18.1</ele>
        <time>2021-05-27T15:09:08Z</time>
      </trkpt>
      <trkpt lat="47.68127" lon="-2.19504">
        <ele>18.3</ele>
        <time>2021-05-27T15:09:09Z</time>
      </trkpt>
      <trkpt lat="47.68125" lon="-2.195">
        <ele>18.5</ele>
        <time>2021-05-27T15:09:10Z</time>
      </trkpt>
      <trkpt lat="47.68124" lon="-2.19494">
        <ele>18.6</ele>
        <time>2021-05-27T15:09:11Z</time>
      </trkpt>
      <trkpt lat="47.68123" lon="-2.19491">
        <ele>18.7</ele>
        <time>2021-05-27T15:09:12Z</time>
      </trkpt>
      <trkpt lat="47.68119" lon="-2.19486">
        <ele>18.8</ele>
        <time>2021-05-27T15:09:13Z</time>
      </trkpt>
      <trkpt lat="47.68118" lon="-2.19483">
        <ele>18.8</ele>
        <time>2021-05-27T15:09:14Z</time>
      </trkpt>
      <trkpt lat="47.68116" lon="-2.19482">
        <ele>18.8</ele>
        <time>2021-05-27T15:09:15Z</time>
      </trkpt>
      <trkpt lat="47.68113" lon="-2.19483">
        <ele>18.8</ele>
        <time>2021-05-27T15:09:16Z</time>
      </trkpt>
      <trkpt lat="47.68111" lon="-2.19485">
        <ele>18.7</ele>
        <time>2021-05-27T15:09:17Z</time>
      </trkpt>
      <trkpt lat="47.68108" lon="-2.19486">
        <ele>18.6</ele>
        <time>2021-05-27T15:09:18Z</time>
      </trkpt>
      <trkpt lat="47.68106" lon="-2.19489">
        <ele>18.5</ele>
        <time>2021-05-27T15:09:19Z</time>
      </trkpt>
      <trkpt lat="47.68104" lon="-2.19493">
        <ele>18.4</ele>
        <time>2021-05-27T15:09:20Z</time>
      </trkpt>
      <trkpt lat="47.68103" lon="-2.19496">
        <ele>18.3</ele>
        <time>2021-05-27T15:09:21Z</time>
      </trkpt>
      <trkpt lat="47.68102" lon="-2.19499">
        <ele>18.2</ele>
        <time>2021-05-27T15:09:22Z</time>
      </trkpt>
      <trkpt lat="47.68101" lon="-2.19503">
        <ele>18</ele>
        <time>2021-05-27T15:09:23Z</time>
      </trkpt>
      <trkpt lat="47.68098" lon="-2.19505">
        <ele>17.9</ele>
        <time>2021-05-27T15:09:24Z</time>
      </trkpt>
      <trkpt lat="47.68096" lon="-2.19507">
        <ele>17.7</ele>
        <time>2021-05-27T15:09:25Z</time>
      </trkpt>
      <trkpt lat="47.68094" lon="-2.19508">
        <ele>17.7</ele>
        <time>2021-05-27T15:09:26Z</time>
      </trkpt>
      <trkpt lat="47.68093" lon="-2.19507">
        <ele>17.7</ele>
        <time>2021-05-27T15:09:27Z</time>
      </trkpt>
      <trkpt lat="47.68092" lon="-2.19506">
        <ele>17.7</ele>
        <time>2021-05-27T15:09:28Z</time>
      </trkpt>
      <trkpt lat="47.6809" lon="-2.19504">
        <ele>17.8</ele>
        <time>2021-05-27T15:09:29Z</time>
      </trkpt>
      <trkpt lat="47.68088" lon="-2.19503">
        <ele>17.9</ele>
        <time>2021-05-27T15:09:30Z</time>
      </trkpt>
      <trkpt lat="47.68086" lon="-2.19501">
        <ele>18</ele>
        <time>2021-05-27T15:09:31Z</time>
      </trkpt>
      <trkpt lat="47.68085" lon="-2.19499">
        <ele>18</ele>
        <time>2021-05-27T15:09:32Z</time>
      </trkpt>
      <trkpt lat="47.68084" lon="-2.19496">
        <ele>18.1</ele>
        <time>2021-05-27T15:09:33Z</time>
      </trkpt>
      <trkpt lat="47.68083" lon="-2.19494">
        <ele>18.2</ele>
        <time>2021-05-27T15:09:34Z</time>
      </trkpt>
      <trkpt lat="47.68082" lon="-2.19491">
        <ele>18.2</ele>
        <time>2021-05-27T15:09:35Z</time>
      </trkpt>
      <trkpt lat="47.68082" lon="-2.19489">
        <ele>18.2</ele>
        <time>2021-05-27T15:09:36Z</time>
      </trkpt>
      <trkpt lat="47.68081" lon="-2.19486">
        <ele>18.3</ele>
        <time>2021-05-27T15:09:37Z</time>
      </trkpt>
      <trkpt lat="47.6808" lon="-2.19482">
        <ele>18.4</ele>
        <time>2021-05-27T15:09:38Z</time>
      </trkpt>
      <trkpt lat="47.68079" lon="-2.1948">
        <ele>18.4</ele>
        <time>2021-05-27T15:09:39Z</time>
      </trkpt>
      <trkpt lat="47.68078" lon="-2.19478">
        <ele>18.4</ele>
        <time>2021-05-27T15:09:40Z</time>
      </trkpt>
      <trkpt lat="47.68078" lon="-2.19475">
        <ele>18.5</ele>
        <time>2021-05-27T15:09:41Z</time>
      </trkpt>
      <trkpt lat="47.68077" lon="-2.19473">
        <ele>18.5</ele>
        <time>2021-05-27T15:09:42Z</time>
      </trkpt>
      <trkpt lat="47.68077" lon="-2.19471">
        <ele>18.5</ele>
        <time>2021-05-27T15:09:43Z</time>
      </trkpt>
      <trkpt lat="47.68077" lon="-2.19468">
        <ele>18.6</ele>
        <time>2021-05-27T15:09:44Z</time>
      </trkpt>
      <trkpt lat="47.68077" lon="-2.19466">
        <ele>18.6</ele>
        <time>2021-05-27T15:09:45Z</time>
      </trkpt>
      <trkpt lat="47.68075" lon="-2.19463">
        <ele>18.7</ele>
        <time>2021-05-27T15:09:46Z</time>
      </trkpt>
      <trkpt lat="47.68074" lon="-2.19461">
        <ele>18.7</ele>
        <time>2021-05-27T15:09:47Z</time>
      </trkpt>
      <trkpt lat="47.68073" lon="-2.19458">
        <ele>18.7</ele>
        <time>2021-05-27T15:09:48Z</time>
      </trkpt>
      <trkpt lat="47.68071" lon="-2.19455">
        <ele>18.7</ele>
        <time>2021-05-27T15:09:49Z</time>
      </trkpt>
      <trkpt lat="47.6807" lon="-2.19452">
        <ele>18.7</ele>
        <time>2021-05-27T15:09:50Z</time>
      </trkpt>
      <trkpt lat="47.68069" lon="-2.19449">
        <ele>18.7</ele>
        <time>2021-05-27T15:09:51Z</time>
      </trkpt>
      <trkpt lat="47.68068" lon="-2.19446">
        <ele>18.8</ele>
        <time>2021-05-27T15:09:52Z</time>
      </trkpt>
      <trkpt lat="47.68067" lon="-2.19444">
        <ele>18.7</ele>
        <time>2021-05-27T15:09:53Z</time>
      </trkpt>
      <trkpt lat="47.68066" lon="-2.19443">
        <ele>18.7</ele>
        <time>2021-05-27T15:09:54Z</time>
      </trkpt>
      <trkpt lat="47.68066" lon="-2.19443">
        <ele>18.7</ele>
        <time>2021-05-27T15:09:55Z</time>
      </trkpt>
      <trkpt lat="47.68066" lon="-2.19443">
        <ele>18.7</ele>
        <time>2021-05-27T15:09:56Z</time>
      </trkpt>
      <trkpt lat="47.68066" lon="-2.19443">
        <ele>18.7</ele>
        <time>2021-05-27T15:09:57Z</time>
      </trkpt>
      <trkpt lat="47.68066" lon="-2.19443">
        <ele>18.7</ele>
        <time>2021-05-27T15:09:58Z</time>
      </trkpt>
      <trkpt lat="47.68066" lon="-2.19443">
        <ele>18.7</ele>
        <time>2021-05-27T15:09:59Z</time>
      </trkpt>
      <trkpt lat="47.68066" lon="-2.19443">
        <ele>18.7</ele>
        <time>2021-05-27T15:10:00Z</time>
      </trkpt>
      <trkpt lat="47.68066" lon="-2.19443">
        <ele>18.7</ele>
        <time>2021-05-27T15:10:01Z</time>
      </trkpt>
      <trkpt lat="47.68066" lon="-2.19443">
        <ele>18.7</ele>
        <time>2021-05-27T15:10:02Z</time>
      </trkpt>
      <trkpt lat="47.68066" lon="-2.19443">
        <ele>18.7</ele>
        <time>2021-05-27T15:10:03Z</time>
      </trkpt>
      <trkpt lat="47.68066" lon="-2.19443">
        <ele>18.7</ele>
        <time>2021-05-27T15:10:04Z</time>
      </trkpt>
      <trkpt lat="47.68066" lon="-2.19448">
        <ele>18.7</ele>
        <time>2021-05-27T15:10:05Z</time>
      </trkpt>
      <trkpt lat="47.68064" lon="-2.1945">
        <ele>18.6</ele>
        <time>2021-05-27T15:10:06Z</time>
      </trkpt>
      <trkpt lat="47.68063" lon="-2.19452">
        <ele>18.5</ele>
        <time>2021-05-27T15:10:07Z</time>
      </trkpt>
      <trkpt lat="47.68063" lon="-2.19452">
        <ele>18.5</ele>
        <time>2021-05-27T15:10:08Z</time>
      </trkpt>
      <trkpt lat="47.68061" lon="-2.19452">
        <ele>18.4</ele>
        <time>2021-05-27T15:10:09Z</time>
      </trkpt>
      <trkpt lat="47.6806" lon="-2.19451">
        <ele>18.4</ele>
        <time>2021-05-27T15:10:10Z</time>
      </trkpt>
      <trkpt lat="47.68059" lon="-2.19452">
        <ele>18.4</ele>
        <time>2021-05-27T15:10:11Z</time>
      </trkpt>
      <trkpt lat="47.68058" lon="-2.19454">
        <ele>18.3</ele>
        <time>2021-05-27T15:10:12Z</time>
      </trkpt>
      <trkpt lat="47.68057" lon="-2.19455">
        <ele>18.3</ele>
        <time>2021-05-27T15:10:13Z</time>
      </trkpt>
      <trkpt lat="47.68056" lon="-2.19456">
        <ele>18.2</ele>
        <time>2021-05-27T15:10:14Z</time>
      </trkpt>
      <trkpt lat="47.68055" lon="-2.19457">
        <ele>18.2</ele>
        <time>2021-05-27T15:10:15Z</time>
      </trkpt>
      <trkpt lat="47.68054" lon="-2.19458">
        <ele>18.1</ele>
        <time>2021-05-27T15:10:16Z</time>
      </trkpt>
      <trkpt lat="47.68054" lon="-2.19458">
        <ele>18.1</ele>
        <time>2021-05-27T15:10:17Z</time>
      </trkpt>
      <trkpt lat="47.68053" lon="-2.19458">
        <ele>18.1</ele>
        <time>2021-05-27T15:10:18Z</time>
      </trkpt>
      <trkpt lat="47.68053" lon="-2.19459">
        <ele>18.1</ele>
        <time>2021-05-27T15:10:19Z</time>
      </trkpt>
      <trkpt lat="47.68053" lon="-2.19459">
        <ele>18.1</ele>
        <time>2021-05-27T15:10:20Z</time>
      </trkpt>
      <trkpt lat="47.68053" lon="-2.19459">
        <ele>18.1</ele>
        <time>2021-05-27T15:10:21Z</time>
      </trkpt>
      <trkpt lat="47.68053" lon="-2.19459">
        <ele>18.1</ele>
        <time>2021-05-27T15:10:22Z</time>
      </trkpt>
      <trkpt lat="47.68053" lon="-2.19459">
        <ele>18.1</ele>
        <time>2021-05-27T15:10:23Z</time>
      </trkpt>
      <trkpt lat="47.68053" lon="-2.19459">
        <ele>18.1</ele>
        <time>2021-05-27T15:10:24Z</time>
      </trkpt>
      <trkpt lat="47.68053" lon="-2.19459">
        <ele>18.1</ele>
        <time>2021-05-27T15:10:25Z</time>
      </trkpt>
      <trkpt lat="47.68053" lon="-2.19459">
        <ele>18.1</ele>
        <time>2021-05-27T15:10:26Z</time>
      </trkpt>
      <trkpt lat="47.68048" lon="-2.19455">
        <ele>18</ele>
        <time>2021-05-27T15:10:27Z</time>
      </trkpt>
      <trkpt lat="47.68047" lon="-2.19453">
        <ele>18</ele>
        <time>2021-05-27T15:10:28Z</time>
      </trkpt>
      <trkpt lat="47.68047" lon="-2.19452">
        <ele>18</ele>
        <time>2021-05-27T15:10:29Z</time>
      </trkpt>
      <trkpt lat="47.68046" lon="-2.19449">
        <ele>18</ele>
        <time>2021-05-27T15:10:30Z</time>
      </trkpt>
      <trkpt lat="47.68046" lon="-2.19447">
        <ele>18</ele>
        <time>2021-05-27T15:10:31Z</time>
      </trkpt>
      <trkpt lat="47.68045" lon="-2.19444">
        <ele>18</ele>
        <time>2021-05-27T15:10:32Z</time>
      </trkpt>
      <trkpt lat="47.68044" lon="-2.1944">
        <ele>18</ele>
        <time>2021-05-27T15:10:33Z</time>
      </trkpt>
      <trkpt lat="47.68043" lon="-2.19437">
        <ele>17.9</ele>
        <time>2021-05-27T15:10:34Z</time>
      </trkpt>
      <trkpt lat="47.68041" lon="-2.19433">
        <ele>17.9</ele>
        <time>2021-05-27T15:10:35Z</time>
      </trkpt>
      <trkpt lat="47.68039" lon="-2.19428">
        <ele>17.8</ele>
        <time>2021-05-27T15:10:36Z</time>
      </trkpt>
      <trkpt lat="47.68038" lon="-2.19424">
        <ele>17.8</ele>
        <time>2021-05-27T15:10:37Z</time>
      </trkpt>
      <trkpt lat="47.68036" lon="-2.1942">
        <ele>17.7</ele>
        <time>2021-05-27T15:10:38Z</time>
      </trkpt>
      <trkpt lat="47.68034" lon="-2.19416">
        <ele>17.7</ele>
        <time>2021-05-27T15:10:39Z</time>
      </trkpt>
      <trkpt lat="47.68033" lon="-2.19411">
        <ele>17.5</ele>
        <time>2021-05-27T15:10:40Z</time>
      </trkpt>
      <trkpt lat="47.6803" lon="-2.19406">
        <ele>17.4</ele>
        <time>2021-05-27T15:10:41Z</time>
      </trkpt>
      <trkpt lat="47.68028" lon="-2.19401">
        <ele>17.2</ele>
        <time>2021-05-27T15:10:42Z</time>
      </trkpt>
      <trkpt lat="47.68026" lon="-2.19397">
        <ele>17.1</ele>
        <time>2021-05-27T15:10:43Z</time>
      </trkpt>
      <trkpt lat="47.68024" lon="-2.19391">
        <ele>17</ele>
        <time>2021-05-27T15:10:44Z</time>
      </trkpt>
      <trkpt lat="47.68022" lon="-2.19387">
        <ele>16.8</ele>
        <time>2021-05-27T15:10:45Z</time>
      </trkpt>
      <trkpt lat="47.6802" lon="-2.19382">
        <ele>16.6</ele>
        <time>2021-05-27T15:10:46Z</time>
      </trkpt>
      <trkpt lat="47.68018" lon="-2.19377">
        <ele>16.5</ele>
        <time>2021-05-27T15:10:47Z</time>
      </trkpt>
      <trkpt lat="47.68016" lon="-2.19372">
        <ele>16.3</ele>
        <time>2021-05-27T15:10:48Z</time>
      </trkpt>
      <trkpt lat="47.68014" lon="-2.19368">
        <ele>16.2</ele>
        <time>2021-05-27T15:10:49Z</time>
      </trkpt>
      <trkpt lat="47.68012" lon="-2.19363">
        <ele>16</ele>
        <time>2021-05-27T15:10:50Z</time>
      </trkpt>
      <trkpt lat="47.6801" lon="-2.19358">
        <ele>15.9</ele>
        <time>2021-05-27T15:10:51Z</time>
      </trkpt>
      <trkpt lat="47.68009" lon="-2.19354">
        <ele>15.7</ele>
        <time>2021-05-27T15:10:52Z</time>
      </trkpt>
      <trkpt lat="47.68007" lon="-2.1935">
        <ele>15.6</ele>
        <time>2021-05-27T15:10:53Z</time>
      </trkpt>
      <trkpt lat="47.68005" lon="-2.19345">
        <ele>15.4</ele>
        <time>2021-05-27T15:10:54Z</time>
      </trkpt>
      <trkpt lat="47.68003" lon="-2.1934">
        <ele>15.2</ele>
        <time>2021-05-27T15:10:55Z</time>
      </trkpt>
      <trkpt lat="47.68001" lon="-2.19335">
        <ele>15.1</ele>
        <time>2021-05-27T15:10:56Z</time>
      </trkpt>
      <trkpt lat="47.67998" lon="-2.1933">
        <ele>15.1</ele>
        <time>2021-05-27T15:10:57Z</time>
      </trkpt>
      <trkpt lat="47.67996" lon="-2.19324">
        <ele>15.3</ele>
        <time>2021-05-27T15:10:58Z</time>
      </trkpt>
      <trkpt lat="47.67994" lon="-2.19318">
        <ele>15.4</ele>
        <time>2021-05-27T15:10:59Z</time>
      </trkpt>
      <trkpt lat="47.67992" lon="-2.19312">
        <ele>15.6</ele>
        <time>2021-05-27T15:11:00Z</time>
      </trkpt>
      <trkpt lat="47.67989" lon="-2.19307">
        <ele>15.7</ele>
        <time>2021-05-27T15:11:01Z</time>
      </trkpt>
      <trkpt lat="47.67987" lon="-2.19302">
        <ele>15.9</ele>
        <time>2021-05-27T15:11:02Z</time>
      </trkpt>
      <trkpt lat="47.67985" lon="-2.19297">
        <ele>16.1</ele>
        <time>2021-05-27T15:11:03Z</time>
      </trkpt>
      <trkpt lat="47.67983" lon="-2.19292">
        <ele>16.2</ele>
        <time>2021-05-27T15:11:04Z</time>
      </trkpt>
      <trkpt lat="47.67981" lon="-2.19287">
        <ele>16.4</ele>
        <time>2021-05-27T15:11:05Z</time>
      </trkpt>
      <trkpt lat="47.67978" lon="-2.19282">
        <ele>16.5</ele>
        <time>2021-05-27T15:11:06Z</time>
      </trkpt>
      <trkpt lat="47.67977" lon="-2.19278">
        <ele>16.7</ele>
        <time>2021-05-27T15:11:07Z</time>
      </trkpt>
      <trkpt lat="47.67976" lon="-2.19274">
        <ele>16.8</ele>
        <time>2021-05-27T15:11:08Z</time>
      </trkpt>
      <trkpt lat="47.67976" lon="-2.19271">
        <ele>16.8</ele>
        <time>2021-05-27T15:11:09Z</time>
      </trkpt>
      <trkpt lat="47.67976" lon="-2.19269">
        <ele>16.9</ele>
        <time>2021-05-27T15:11:10Z</time>
      </trkpt>
      <trkpt lat="47.67976" lon="-2.19266">
        <ele>16.9</ele>
        <time>2021-05-27T15:11:11Z</time>
      </trkpt>
      <trkpt lat="47.67977" lon="-2.19264">
        <ele>16.9</ele>
        <time>2021-05-27T15:11:12Z</time>
      </trkpt>
      <trkpt lat="47.67977" lon="-2.19261">
        <ele>16.9</ele>
        <time>2021-05-27T15:11:13Z</time>
      </trkpt>
      <trkpt lat="47.6798" lon="-2.19253">
        <ele>16.9</ele>
        <time>2021-05-27T15:11:15Z</time>
      </trkpt>
      <trkpt lat="47.67991" lon="-2.19235">
        <ele>17.3</ele>
        <time>2021-05-27T15:12:16Z</time>
      </trkpt>
      <trkpt lat="47.67995" lon="-2.19232">
        <ele>17.3</ele>
        <time>2021-05-27T15:12:17Z</time>
      </trkpt>
      <trkpt lat="47.67998" lon="-2.19229">
        <ele>17.3</ele>
        <time>2021-05-27T15:12:18Z</time>
      </trkpt>
      <trkpt lat="47.68001" lon="-2.19226">
        <ele>17.5</ele>
        <time>2021-05-27T15:12:19Z</time>
      </trkpt>
      <trkpt lat="47.68004" lon="-2.19223">
        <ele>17.8</ele>
        <time>2021-05-27T15:12:20Z</time>
      </trkpt>
      <trkpt lat="47.68007" lon="-2.19219">
        <ele>18.1</ele>
        <time>2021-05-27T15:12:21Z</time>
      </trkpt>
      <trkpt lat="47.6801" lon="-2.19216">
        <ele>18.4</ele>
        <time>2021-05-27T15:12:22Z</time>
      </trkpt>
      <trkpt lat="47.68014" lon="-2.19214">
        <ele>18.6</ele>
        <time>2021-05-27T15:12:23Z</time>
      </trkpt>
      <trkpt lat="47.68017" lon="-2.19211">
        <ele>18.9</ele>
        <time>2021-05-27T15:12:24Z</time>
      </trkpt>
      <trkpt lat="47.6802" lon="-2.19209">
        <ele>19.1</ele>
        <time>2021-05-27T15:12:25Z</time>
      </trkpt>
      <trkpt lat="47.68023" lon="-2.19206">
        <ele>19.3</ele>
        <time>2021-05-27T15:12:26Z</time>
      </trkpt>
      <trkpt lat="47.68026" lon="-2.19203">
        <ele>19.5</ele>
        <time>2021-05-27T15:12:27Z</time>
      </trkpt>
      <trkpt lat="47.68028" lon="-2.19201">
        <ele>19.6</ele>
        <time>2021-05-27T15:12:28Z</time>
      </trkpt>
      <trkpt lat="47.68031" lon="-2.19199">
        <ele>19.8</ele>
        <time>2021-05-27T15:12:29Z</time>
      </trkpt>
      <trkpt lat="47.68034" lon="-2.19196">
        <ele>19.9</ele>
        <time>2021-05-27T15:12:30Z</time>
      </trkpt>
      <trkpt lat="47.68037" lon="-2.19194">
        <ele>20.1</ele>
        <time>2021-05-27T15:12:31Z</time>
      </trkpt>
      <trkpt lat="47.6804" lon="-2.19192">
        <ele>20.2</ele>
        <time>2021-05-27T15:12:32Z</time>
      </trkpt>
      <trkpt lat="47.68043" lon="-2.19189">
        <ele>20.3</ele>
        <time>2021-05-27T15:12:33Z</time>
      </trkpt>
      <trkpt lat="47.68046" lon="-2.19186">
        <ele>20.5</ele>
        <time>2021-05-27T15:12:34Z</time>
      </trkpt>
      <trkpt lat="47.68049" lon="-2.19184">
        <ele>20.6</ele>
        <time>2021-05-27T15:12:35Z</time>
      </trkpt>
      <trkpt lat="47.68052" lon="-2.19182">
        <ele>20.7</ele>
        <time>2021-05-27T15:12:36Z</time>
      </trkpt>
      <trkpt lat="47.68056" lon="-2.1918">
        <ele>20.7</ele>
        <time>2021-05-27T15:12:37Z</time>
      </trkpt>
      <trkpt lat="47.68059" lon="-2.19178">
        <ele>20.8</ele>
        <time>2021-05-27T15:12:38Z</time>
      </trkpt>
      <trkpt lat="47.68062" lon="-2.19175">
        <ele>20.9</ele>
        <time>2021-05-27T15:12:39Z</time>
      </trkpt>
      <trkpt lat="47.68065" lon="-2.19173">
        <ele>20.9</ele>
        <time>2021-05-27T15:12:40Z</time>
      </trkpt>
      <trkpt lat="47.68068" lon="-2.19169">
        <ele>21</ele>
        <time>2021-05-27T15:12:41Z</time>
      </trkpt>
      <trkpt lat="47.68071" lon="-2.19165">
        <ele>21</ele>
        <time>2021-05-27T15:12:42Z</time>
      </trkpt>
      <trkpt lat="47.68074" lon="-2.19161">
        <ele>21</ele>
        <time>2021-05-27T15:12:43Z</time>
      </trkpt>
      <trkpt lat="47.68076" lon="-2.19156">
        <ele>21</ele>
        <time>2021-05-27T15:12:44Z</time>
      </trkpt>
      <trkpt lat="47.68078" lon="-2.1915">
        <ele>21</ele>
        <time>2021-05-27T15:12:45Z</time>
      </trkpt>
      <trkpt lat="47.68077" lon="-2.19144">
        <ele>21.1</ele>
        <time>2021-05-27T15:12:46Z</time>
      </trkpt>
      <trkpt lat="47.68076" lon="-2.19139">
        <ele>21.1</ele>
        <time>2021-05-27T15:12:47Z</time>
      </trkpt>
      <trkpt lat="47.68074" lon="-2.19134">
        <ele>21.1</ele>
        <time>2021-05-27T15:12:48Z</time>
      </trkpt>
      <trkpt lat="47.68071" lon="-2.1913">
        <ele>21.2</ele>
        <time>2021-05-27T15:12:49Z</time>
      </trkpt>
      <trkpt lat="47.68068" lon="-2.19125">
        <ele>21.3</ele>
        <time>2021-05-27T15:12:50Z</time>
      </trkpt>
      <trkpt lat="47.68065" lon="-2.19121">
        <ele>21.4</ele>
        <time>2021-05-27T15:12:51Z</time>
      </trkpt>
      <trkpt lat="47.68062" lon="-2.19116">
        <ele>21.5</ele>
        <time>2021-05-27T15:12:52Z</time>
      </trkpt>
      <trkpt lat="47.68059" lon="-2.19111">
        <ele>21.6</ele>
        <time>2021-05-27T15:12:53Z</time>
      </trkpt>
      <trkpt lat="47.68056" lon="-2.19107">
        <ele>21.7</ele>
        <time>2021-05-27T15:12:54Z</time>
      </trkpt>
      <trkpt lat="47.68053" lon="-2.19103">
        <ele>21.8</ele>
        <time>2021-05-27T15:12:55Z</time>
      </trkpt>
      <trkpt lat="47.6805" lon="-2.19098">
        <ele>22</ele>
        <time>2021-05-27T15:12:56Z</time>
      </trkpt>
      <trkpt lat="47.68048" lon="-2.19094">
        <ele>22.1</ele>
        <time>2021-05-27T15:12:57Z</time>
      </trkpt>
      <trkpt lat="47.68045" lon="-2.19089">
        <ele>22.3</ele>
        <time>2021-05-27T15:12:58Z</time>
      </trkpt>
      <trkpt lat="47.68043" lon="-2.19085">
        <ele>22.4</ele>
        <time>2021-05-27T15:12:59Z</time>
      </trkpt>
      <trkpt lat="47.6804" lon="-2.19081">
        <ele>22.6</ele>
        <time>2021-05-27T15:13:00Z</time>
      </trkpt>
      <trkpt lat="47.68037" lon="-2.19077">
        <ele>22.8</ele>
        <time>2021-05-27T15:13:01Z</time>
      </trkpt>
      <trkpt lat="47.68034" lon="-2.19072">
        <ele>23</ele>
        <time>2021-05-27T15:13:02Z</time>
      </trkpt>
      <trkpt lat="47.68031" lon="-2.19068">
        <ele>23.1</ele>
        <time>2021-05-27T15:13:03Z</time>
      </trkpt>
      <trkpt lat="47.68028" lon="-2.19064">
        <ele>23.3</ele>
        <time>2021-05-27T15:13:04Z</time>
      </trkpt>
      <trkpt lat="47.68024" lon="-2.19059">
        <ele>23.5</ele>
        <time>2021-05-27T15:13:05Z</time>
      </trkpt>
      <trkpt lat="47.68021" lon="-2.19055">
        <ele>23.7</ele>
        <time>2021-05-27T15:13:06Z</time>
      </trkpt>
      <trkpt lat="47.68017" lon="-2.19049">
        <ele>23.9</ele>
        <time>2021-05-27T15:13:07Z</time>
      </trkpt>
      <trkpt lat="47.68013" lon="-2.19045">
        <ele>24.1</ele>
        <time>2021-05-27T15:13:08Z</time>
      </trkpt>
      <trkpt lat="47.6801" lon="-2.1904">
        <ele>24.2</ele>
        <time>2021-05-27T15:13:09Z</time>
      </trkpt>
      <trkpt lat="47.68007" lon="-2.19035">
        <ele>24.4</ele>
        <time>2021-05-27T15:13:10Z</time>
      </trkpt>
      <trkpt lat="47.68003" lon="-2.19031">
        <ele>24.5</ele>
        <time>2021-05-27T15:13:11Z</time>
      </trkpt>
      <trkpt lat="47.67999" lon="-2.19026">
        <ele>24.7</ele>
        <time>2021-05-27T15:13:12Z</time>
      </trkpt>
      <trkpt lat="47.67996" lon="-2.19022">
        <ele>24.7</ele>
        <time>2021-05-27T15:13:13Z</time>
      </trkpt>
      <trkpt lat="47.67992" lon="-2.19017">
        <ele>24.8</ele>
        <time>2021-05-27T15:13:14Z</time>
      </trkpt>
      <trkpt lat="47.67989" lon="-2.19013">
        <ele>24.8</ele>
        <time>2021-05-27T15:13:15Z</time>
      </trkpt>
      <trkpt lat="47.67985" lon="-2.19009">
        <ele>24.9</ele>
        <time>2021-05-27T15:13:16Z</time>
      </trkpt>
      <trkpt lat="47.67982" lon="-2.19005">
        <ele>24.9</ele>
        <time>2021-05-27T15:13:17Z</time>
      </trkpt>
      <trkpt lat="47.67978" lon="-2.19">
        <ele>25</ele>
        <time>2021-05-27T15:13:18Z</time>
      </trkpt>
      <trkpt lat="47.67975" lon="-2.18996">
        <ele>25.1</ele>
        <time>2021-05-27T15:13:19Z</time>
      </trkpt>
      <trkpt lat="47.67972" lon="-2.18992">
        <ele>25.2</ele>
        <time>2021-05-27T15:13:20Z</time>
      </trkpt>
      <trkpt lat="47.67968" lon="-2.18987">
        <ele>25.3</ele>
        <time>2021-05-27T15:13:21Z</time>
      </trkpt>
      <trkpt lat="47.67965" lon="-2.18983">
        <ele>25.4</ele>
        <time>2021-05-27T15:13:22Z</time>
      </trkpt>
      <trkpt lat="47.67961" lon="-2.18978">
        <ele>25.5</ele>
        <time>2021-05-27T15:13:23Z</time>
      </trkpt>
      <trkpt lat="47.67958" lon="-2.18974">
        <ele>25.6</ele>
        <time>2021-05-27T15:13:24Z</time>
      </trkpt>
      <trkpt lat="47.67955" lon="-2.1897">
        <ele>25.7</ele>
        <time>2021-05-27T15:13:25Z</time>
      </trkpt>
      <trkpt lat="47.67951" lon="-2.18966">
        <ele>25.8</ele>
        <time>2021-05-27T15:13:26Z</time>
      </trkpt>
      <trkpt lat="47.67948" lon="-2.18961">
        <ele>25.9</ele>
        <time>2021-05-27T15:13:27Z</time>
      </trkpt>
      <trkpt lat="47.67945" lon="-2.18957">
        <ele>26</ele>
        <time>2021-05-27T15:13:28Z</time>
      </trkpt>
      <trkpt lat="47.67942" lon="-2.18953">
        <ele>26.1</ele>
        <time>2021-05-27T15:13:29Z</time>
      </trkpt>
      <trkpt lat="47.6794" lon="-2.18949">
        <ele>26.2</ele>
        <time>2021-05-27T15:13:30Z</time>
      </trkpt>
      <trkpt lat="47.67937" lon="-2.18945">
        <ele>26.3</ele>
        <time>2021-05-27T15:13:31Z</time>
      </trkpt>
      <trkpt lat="47.67935" lon="-2.18941">
        <ele>26.4</ele>
        <time>2021-05-27T15:13:32Z</time>
      </trkpt>
      <trkpt lat="47.67932" lon="-2.18938">
        <ele>26.5</ele>
        <time>2021-05-27T15:13:33Z</time>
      </trkpt>
      <trkpt lat="47.6793" lon="-2.18934">
        <ele>26.6</ele>
        <time>2021-05-27T15:13:34Z</time>
      </trkpt>
      <trkpt lat="47.67927" lon="-2.18931">
        <ele>26.7</ele>
        <time>2021-05-27T15:13:35Z</time>
      </trkpt>
      <trkpt lat="47.67924" lon="-2.18928">
        <ele>26.7</ele>
        <time>2021-05-27T15:13:36Z</time>
      </trkpt>
      <trkpt lat="47.67921" lon="-2.18926">
        <ele>26.8</ele>
        <time>2021-05-27T15:13:37Z</time>
      </trkpt>
      <trkpt lat="47.67918" lon="-2.18924">
        <ele>26.8</ele>
        <time>2021-05-27T15:13:38Z</time>
      </trkpt>
      <trkpt lat="47.67914" lon="-2.18923">
        <ele>26.9</ele>
        <time>2021-05-27T15:13:39Z</time>
      </trkpt>
      <trkpt lat="47.67909" lon="-2.18923">
        <ele>26.8</ele>
        <time>2021-05-27T15:13:40Z</time>
      </trkpt>
      <trkpt lat="47.67904" lon="-2.18925">
        <ele>26.8</ele>
        <time>2021-05-27T15:13:41Z</time>
      </trkpt>
      <trkpt lat="47.67899" lon="-2.18928">
        <ele>26.7</ele>
        <time>2021-05-27T15:13:42Z</time>
      </trkpt>
      <trkpt lat="47.67895" lon="-2.18931">
        <ele>26.7</ele>
        <time>2021-05-27T15:13:43Z</time>
      </trkpt>
      <trkpt lat="47.67891" lon="-2.18935">
        <ele>26.6</ele>
        <time>2021-05-27T15:13:44Z</time>
      </trkpt>
      <trkpt lat="47.67887" lon="-2.18939">
        <ele>26.5</ele>
        <time>2021-05-27T15:13:45Z</time>
      </trkpt>
      <trkpt lat="47.67882" lon="-2.18945">
        <ele>26.3</ele>
        <time>2021-05-27T15:13:46Z</time>
      </trkpt>
      <trkpt lat="47.67879" lon="-2.18951">
        <ele>26.2</ele>
        <time>2021-05-27T15:13:47Z</time>
      </trkpt>
      <trkpt lat="47.67876" lon="-2.18958">
        <ele>26</ele>
        <time>2021-05-27T15:13:48Z</time>
      </trkpt>
      <trkpt lat="47.67874" lon="-2.18966">
        <ele>25.8</ele>
        <time>2021-05-27T15:13:49Z</time>
      </trkpt>
      <trkpt lat="47.67872" lon="-2.18973">
        <ele>25.6</ele>
        <time>2021-05-27T15:13:50Z</time>
      </trkpt>
      <trkpt lat="47.67871" lon="-2.18982">
        <ele>25.4</ele>
        <time>2021-05-27T15:13:51Z</time>
      </trkpt>
      <trkpt lat="47.67869" lon="-2.1899">
        <ele>25.2</ele>
        <time>2021-05-27T15:13:52Z</time>
      </trkpt>
      <trkpt lat="47.67867" lon="-2.18999">
        <ele>25</ele>
        <time>2021-05-27T15:13:53Z</time>
      </trkpt>
      <trkpt lat="47.67866" lon="-2.19008">
        <ele>24.9</ele>
        <time>2021-05-27T15:13:54Z</time>
      </trkpt>
      <trkpt lat="47.67865" lon="-2.19017">
        <ele>24.8</ele>
        <time>2021-05-27T15:13:55Z</time>
      </trkpt>
      <trkpt lat="47.67864" lon="-2.19027">
        <ele>24.8</ele>
        <time>2021-05-27T15:13:56Z</time>
      </trkpt>
      <trkpt lat="47.67863" lon="-2.19038">
        <ele>24.7</ele>
        <time>2021-05-27T15:13:57Z</time>
      </trkpt>
      <trkpt lat="47.67863" lon="-2.19049">
        <ele>24.6</ele>
        <time>2021-05-27T15:13:58Z</time>
      </trkpt>
      <trkpt lat="47.67862" lon="-2.19059">
        <ele>24.5</ele>
        <time>2021-05-27T15:13:59Z</time>
      </trkpt>
      <trkpt lat="47.67863" lon="-2.19069">
        <ele>24.4</ele>
        <time>2021-05-27T15:14:00Z</time>
      </trkpt>
      <trkpt lat="47.67862" lon="-2.19079">
        <ele>24.3</ele>
        <time>2021-05-27T15:14:01Z</time>
      </trkpt>
      <trkpt lat="47.6786" lon="-2.19089">
        <ele>24.4</ele>
        <time>2021-05-27T15:14:02Z</time>
      </trkpt>
      <trkpt lat="47.67857" lon="-2.19097">
        <ele>24.5</ele>
        <time>2021-05-27T15:14:03Z</time>
      </trkpt>
      <trkpt lat="47.67855" lon="-2.19104">
        <ele>24.7</ele>
        <time>2021-05-27T15:14:04Z</time>
      </trkpt>
      <trkpt lat="47.6785" lon="-2.19106">
        <ele>24.8</ele>
        <time>2021-05-27T15:14:05Z</time>
      </trkpt>
      <trkpt lat="47.67846" lon="-2.19108">
        <ele>24.9</ele>
        <time>2021-05-27T15:14:06Z</time>
      </trkpt>
      <trkpt lat="47.67842" lon="-2.19109">
        <ele>25.1</ele>
        <time>2021-05-27T15:14:07Z</time>
      </trkpt>
      <trkpt lat="47.67835" lon="-2.19106">
        <ele>25.2</ele>
        <time>2021-05-27T15:14:08Z</time>
      </trkpt>
      <trkpt lat="47.67826" lon="-2.1911">
        <ele>25.2</ele>
        <time>2021-05-27T15:14:09Z</time>
      </trkpt>
      <trkpt lat="47.6782" lon="-2.19113">
        <ele>25.2</ele>
        <time>2021-05-27T15:14:10Z</time>
      </trkpt>
      <trkpt lat="47.67814" lon="-2.19117">
        <ele>25.2</ele>
        <time>2021-05-27T15:14:11Z</time>
      </trkpt>
      <trkpt lat="47.67811" lon="-2.19123">
        <ele>25.2</ele>
        <time>2021-05-27T15:14:12Z</time>
      </trkpt>
      <trkpt lat="47.6781" lon="-2.19128">
        <ele>25.3</ele>
        <time>2021-05-27T15:14:13Z</time>
      </trkpt>
      <trkpt lat="47.67809" lon="-2.19133">
        <ele>25.3</ele>
        <time>2021-05-27T15:14:14Z</time>
      </trkpt>
      <trkpt lat="47.67807" lon="-2.19138">
        <ele>25.3</ele>
        <time>2021-05-27T15:14:15Z</time>
      </trkpt>
      <trkpt lat="47.67806" lon="-2.19143">
        <ele>25.4</ele>
        <time>2021-05-27T15:14:16Z</time>
      </trkpt>
      <trkpt lat="47.67804" lon="-2.19148">
        <ele>25.4</ele>
        <time>2021-05-27T15:14:17Z</time>
      </trkpt>
      <trkpt lat="47.67802" lon="-2.19153">
        <ele>25.5</ele>
        <time>2021-05-27T15:14:18Z</time>
      </trkpt>
      <trkpt lat="47.678" lon="-2.19156">
        <ele>25.5</ele>
        <time>2021-05-27T15:14:19Z</time>
      </trkpt>
      <trkpt lat="47.67798" lon="-2.19159">
        <ele>25.5</ele>
        <time>2021-05-27T15:14:20Z</time>
      </trkpt>
      <trkpt lat="47.67796" lon="-2.19163">
        <ele>25.5</ele>
        <time>2021-05-27T15:14:21Z</time>
      </trkpt>
      <trkpt lat="47.67795" lon="-2.19168">
        <ele>25.5</ele>
        <time>2021-05-27T15:14:22Z</time>
      </trkpt>
      <trkpt lat="47.67795" lon="-2.19172">
        <ele>25.6</ele>
        <time>2021-05-27T15:14:23Z</time>
      </trkpt>
      <trkpt lat="47.67794" lon="-2.19176">
        <ele>25.6</ele>
        <time>2021-05-27T15:14:24Z</time>
      </trkpt>
      <trkpt lat="47.67794" lon="-2.19179">
        <ele>25.6</ele>
        <time>2021-05-27T15:14:25Z</time>
      </trkpt>
      <trkpt lat="47.67794" lon="-2.19181">
        <ele>25.6</ele>
        <time>2021-05-27T15:14:26Z</time>
      </trkpt>
      <trkpt lat="47.67797" lon="-2.19252">
        <ele>26</ele>
        <time>2021-05-27T15:18:23Z</time>
      </trkpt>
      <trkpt lat="47.67798" lon="-2.19255">
        <ele>26</ele>
        <time>2021-05-27T15:18:24Z</time>
      </trkpt>
      <trkpt lat="47.67798" lon="-2.19257">
        <ele>26</ele>
        <time>2021-05-27T15:18:25Z</time>
      </trkpt>
      <trkpt lat="47.67798" lon="-2.1926">
        <ele>26</ele>
        <time>2021-05-27T15:18:26Z</time>
      </trkpt>
      <trkpt lat="47.67799" lon="-2.19263">
        <ele>26</ele>
        <time>2021-05-27T15:18:27Z</time>
      </trkpt>
      <trkpt lat="47.67799" lon="-2.19266">
        <ele>26</ele>
        <time>2021-05-27T15:18:28Z</time>
      </trkpt>
      <trkpt lat="47.678" lon="-2.1927">
        <ele>26</ele>
        <time>2021-05-27T15:18:29Z</time>
      </trkpt>
      <trkpt lat="47.678" lon="-2.19274">
        <ele>25.9</ele>
        <time>2021-05-27T15:18:30Z</time>
      </trkpt>
      <trkpt lat="47.67801" lon="-2.19278">
        <ele>25.9</ele>
        <time>2021-05-27T15:18:31Z</time>
      </trkpt>
      <trkpt lat="47.67801" lon="-2.19282">
        <ele>25.9</ele>
        <time>2021-05-27T15:18:32Z</time>
      </trkpt>
      <trkpt lat="47.67801" lon="-2.19286">
        <ele>25.9</ele>
        <time>2021-05-27T15:18:33Z</time>
      </trkpt>
      <trkpt lat="47.67801" lon="-2.1929">
        <ele>25.9</ele>
        <time>2021-05-27T15:18:34Z</time>
      </trkpt>
      <trkpt lat="47.67801" lon="-2.19293">
        <ele>25.9</ele>
        <time>2021-05-27T15:18:35Z</time>
      </trkpt>
      <trkpt lat="47.67802" lon="-2.19296">
        <ele>25.9</ele>
        <time>2021-05-27T15:18:36Z</time>
      </trkpt>
      <trkpt lat="47.67802" lon="-2.193">
        <ele>25.9</ele>
        <time>2021-05-27T15:18:37Z</time>
      </trkpt>
      <trkpt lat="47.67802" lon="-2.19304">
        <ele>25.8</ele>
        <time>2021-05-27T15:18:38Z</time>
      </trkpt>
      <trkpt lat="47.67802" lon="-2.19309">
        <ele>25.8</ele>
        <time>2021-05-27T15:18:39Z</time>
      </trkpt>
      <trkpt lat="47.67803" lon="-2.19313">
        <ele>25.8</ele>
        <time>2021-05-27T15:18:40Z</time>
      </trkpt>
      <trkpt lat="47.67803" lon="-2.19319">
        <ele>25.8</ele>
        <time>2021-05-27T15:18:41Z</time>
      </trkpt>
      <trkpt lat="47.67802" lon="-2.19325">
        <ele>25.8</ele>
        <time>2021-05-27T15:18:42Z</time>
      </trkpt>
      <trkpt lat="47.67803" lon="-2.1933">
        <ele>25.7</ele>
        <time>2021-05-27T15:18:43Z</time>
      </trkpt>
      <trkpt lat="47.67803" lon="-2.19336">
        <ele>25.8</ele>
        <time>2021-05-27T15:18:44Z</time>
      </trkpt>
      <trkpt lat="47.67803" lon="-2.19342">
        <ele>25.9</ele>
        <time>2021-05-27T15:18:45Z</time>
      </trkpt>
      <trkpt lat="47.67803" lon="-2.19348">
        <ele>26</ele>
        <time>2021-05-27T15:18:46Z</time>
      </trkpt>
      <trkpt lat="47.67803" lon="-2.19355">
        <ele>26.1</ele>
        <time>2021-05-27T15:18:47Z</time>
      </trkpt>
      <trkpt lat="47.67803" lon="-2.19361">
        <ele>26.2</ele>
        <time>2021-05-27T15:18:48Z</time>
      </trkpt>
      <trkpt lat="47.67804" lon="-2.19368">
        <ele>26.3</ele>
        <time>2021-05-27T15:18:49Z</time>
      </trkpt>
      <trkpt lat="47.67804" lon="-2.19374">
        <ele>26.4</ele>
        <time>2021-05-27T15:18:50Z</time>
      </trkpt>
      <trkpt lat="47.67805" lon="-2.1938">
        <ele>26.4</ele>
        <time>2021-05-27T15:18:51Z</time>
      </trkpt>
      <trkpt lat="47.67806" lon="-2.19387">
        <ele>26.5</ele>
        <time>2021-05-27T15:18:52Z</time>
      </trkpt>
      <trkpt lat="47.67807" lon="-2.19394">
        <ele>26.6</ele>
        <time>2021-05-27T15:18:53Z</time>
      </trkpt>
      <trkpt lat="47.67808" lon="-2.19402">
        <ele>26.7</ele>
        <time>2021-05-27T15:18:54Z</time>
      </trkpt>
      <trkpt lat="47.67809" lon="-2.19409">
        <ele>26.8</ele>
        <time>2021-05-27T15:18:55Z</time>
      </trkpt>
      <trkpt lat="47.67809" lon="-2.19415">
        <ele>26.9</ele>
        <time>2021-05-27T15:18:56Z</time>
      </trkpt>
      <trkpt lat="47.6781" lon="-2.19422">
        <ele>26.9</ele>
        <time>2021-05-27T15:18:57Z</time>
      </trkpt>
      <trkpt lat="47.6781" lon="-2.19429">
        <ele>27</ele>
        <time>2021-05-27T15:18:58Z</time>
      </trkpt>
      <trkpt lat="47.67811" lon="-2.19435">
        <ele>27.1</ele>
        <time>2021-05-27T15:18:59Z</time>
      </trkpt>
      <trkpt lat="47.6781" lon="-2.19441">
        <ele>27.3</ele>
        <time>2021-05-27T15:19:00Z</time>
      </trkpt>
      <trkpt lat="47.67811" lon="-2.19447">
        <ele>27.4</ele>
        <time>2021-05-27T15:19:01Z</time>
      </trkpt>
      <trkpt lat="47.67812" lon="-2.19453">
        <ele>27.4</ele>
        <time>2021-05-27T15:19:02Z</time>
      </trkpt>
      <trkpt lat="47.67812" lon="-2.19459">
        <ele>27.5</ele>
        <time>2021-05-27T15:19:03Z</time>
      </trkpt>
      <trkpt lat="47.67811" lon="-2.19465">
        <ele>27.7</ele>
        <time>2021-05-27T15:19:04Z</time>
      </trkpt>
      <trkpt lat="47.67812" lon="-2.19471">
        <ele>27.8</ele>
        <time>2021-05-27T15:19:05Z</time>
      </trkpt>
      <trkpt lat="47.67812" lon="-2.19478">
        <ele>27.9</ele>
        <time>2021-05-27T15:19:06Z</time>
      </trkpt>
      <trkpt lat="47.67813" lon="-2.19484">
        <ele>28</ele>
        <time>2021-05-27T15:19:07Z</time>
      </trkpt>
      <trkpt lat="47.67813" lon="-2.1949">
        <ele>28.1</ele>
        <time>2021-05-27T15:19:08Z</time>
      </trkpt>
      <trkpt lat="47.67813" lon="-2.19496">
        <ele>28.2</ele>
        <time>2021-05-27T15:19:09Z</time>
      </trkpt>
      <trkpt lat="47.67813" lon="-2.19503">
        <ele>28.3</ele>
        <time>2021-05-27T15:19:10Z</time>
      </trkpt>
      <trkpt lat="47.67814" lon="-2.1951">
        <ele>28.4</ele>
        <time>2021-05-27T15:19:11Z</time>
      </trkpt>
      <trkpt lat="47.67815" lon="-2.19516">
        <ele>28.5</ele>
        <time>2021-05-27T15:19:12Z</time>
      </trkpt>
      <trkpt lat="47.67816" lon="-2.19522">
        <ele>28.7</ele>
        <time>2021-05-27T15:19:13Z</time>
      </trkpt>
      <trkpt lat="47.67816" lon="-2.19529">
        <ele>28.8</ele>
        <time>2021-05-27T15:19:14Z</time>
      </trkpt>
      <trkpt lat="47.67817" lon="-2.19535">
        <ele>28.9</ele>
        <time>2021-05-27T15:19:15Z</time>
      </trkpt>
      <trkpt lat="47.67817" lon="-2.19542">
        <ele>29.1</ele>
        <time>2021-05-27T15:19:16Z</time>
      </trkpt>
      <trkpt lat="47.67818" lon="-2.19548">
        <ele>29.2</ele>
        <time>2021-05-27T15:19:17Z</time>
      </trkpt>
      <trkpt lat="47.67818" lon="-2.19554">
        <ele>29.3</ele>
        <time>2021-05-27T15:19:18Z</time>
      </trkpt>
      <trkpt lat="47.67818" lon="-2.19559">
        <ele>29.4</ele>
        <time>2021-05-27T15:19:19Z</time>
      </trkpt>
      <trkpt lat="47.67818" lon="-2.19564">
        <ele>29.6</ele>
        <time>2021-05-27T15:19:20Z</time>
      </trkpt>
      <trkpt lat="47.67818" lon="-2.1957">
        <ele>29.7</ele>
        <time>2021-05-27T15:19:21Z</time>
      </trkpt>
      <trkpt lat="47.67819" lon="-2.19575">
        <ele>29.9</ele>
        <time>2021-05-27T15:19:22Z</time>
      </trkpt>
      <trkpt lat="47.67819" lon="-2.19581">
        <ele>30</ele>
        <time>2021-05-27T15:19:23Z</time>
      </trkpt>
      <trkpt lat="47.67819" lon="-2.19587">
        <ele>30.2</ele>
        <time>2021-05-27T15:19:24Z</time>
      </trkpt>
      <trkpt lat="47.67819" lon="-2.19593">
        <ele>30.4</ele>
        <time>2021-05-27T15:19:25Z</time>
      </trkpt>
      <trkpt lat="47.6782" lon="-2.19599">
        <ele>30.6</ele>
        <time>2021-05-27T15:19:26Z</time>
      </trkpt>
      <trkpt lat="47.6782" lon="-2.19605">
        <ele>30.8</ele>
        <time>2021-05-27T15:19:27Z</time>
      </trkpt>
      <trkpt lat="47.67821" lon="-2.1961">
        <ele>31</ele>
        <time>2021-05-27T15:19:28Z</time>
      </trkpt>
      <trkpt lat="47.67821" lon="-2.19616">
        <ele>31.2</ele>
        <time>2021-05-27T15:19:29Z</time>
      </trkpt>
      <trkpt lat="47.67822" lon="-2.19622">
        <ele>31.3</ele>
        <time>2021-05-27T15:19:30Z</time>
      </trkpt>
      <trkpt lat="47.67823" lon="-2.19627">
        <ele>31.5</ele>
        <time>2021-05-27T15:19:31Z</time>
      </trkpt>
      <trkpt lat="47.67823" lon="-2.19633">
        <ele>31.6</ele>
        <time>2021-05-27T15:19:32Z</time>
      </trkpt>
      <trkpt lat="47.67824" lon="-2.19639">
        <ele>31.8</ele>
        <time>2021-05-27T15:19:33Z</time>
      </trkpt>
      <trkpt lat="47.67826" lon="-2.19645">
        <ele>31.9</ele>
        <time>2021-05-27T15:19:34Z</time>
      </trkpt>
      <trkpt lat="47.67827" lon="-2.19651">
        <ele>32</ele>
        <time>2021-05-27T15:19:35Z</time>
      </trkpt>
      <trkpt lat="47.67827" lon="-2.19657">
        <ele>32.2</ele>
        <time>2021-05-27T15:19:36Z</time>
      </trkpt>
      <trkpt lat="47.67829" lon="-2.19663">
        <ele>32.3</ele>
        <time>2021-05-27T15:19:37Z</time>
      </trkpt>
      <trkpt lat="47.6783" lon="-2.19669">
        <ele>32.4</ele>
        <time>2021-05-27T15:19:38Z</time>
      </trkpt>
      <trkpt lat="47.67831" lon="-2.19675">
        <ele>32.3</ele>
        <time>2021-05-27T15:19:39Z</time>
      </trkpt>
      <trkpt lat="47.67832" lon="-2.19681">
        <ele>32.3</ele>
        <time>2021-05-27T15:19:40Z</time>
      </trkpt>
      <trkpt lat="47.67832" lon="-2.19686">
        <ele>32.3</ele>
        <time>2021-05-27T15:19:41Z</time>
      </trkpt>
      <trkpt lat="47.67833" lon="-2.19693">
        <ele>32.3</ele>
        <time>2021-05-27T15:19:42Z</time>
      </trkpt>
      <trkpt lat="47.67834" lon="-2.19699">
        <ele>32.4</ele>
        <time>2021-05-27T15:19:43Z</time>
      </trkpt>
      <trkpt lat="47.67835" lon="-2.19705">
        <ele>32.4</ele>
        <time>2021-05-27T15:19:44Z</time>
      </trkpt>
      <trkpt lat="47.67836" lon="-2.19711">
        <ele>32.4</ele>
        <time>2021-05-27T15:19:45Z</time>
      </trkpt>
      <trkpt lat="47.67837" lon="-2.19717">
        <ele>32.4</ele>
        <time>2021-05-27T15:19:46Z</time>
      </trkpt>
      <trkpt lat="47.67837" lon="-2.19723">
        <ele>32.4</ele>
        <time>2021-05-27T15:19:47Z</time>
      </trkpt>
      <trkpt lat="47.67838" lon="-2.1973">
        <ele>32.5</ele>
        <time>2021-05-27T15:19:48Z</time>
      </trkpt>
      <trkpt lat="47.67838" lon="-2.19736">
        <ele>32.6</ele>
        <time>2021-05-27T15:19:49Z</time>
      </trkpt>
      <trkpt lat="47.67837" lon="-2.19743">
        <ele>32.7</ele>
        <time>2021-05-27T15:19:50Z</time>
      </trkpt>
      <trkpt lat="47.67836" lon="-2.19749">
        <ele>32.8</ele>
        <time>2021-05-27T15:19:51Z</time>
      </trkpt>
      <trkpt lat="47.67836" lon="-2.19756">
        <ele>33.2</ele>
        <time>2021-05-27T15:19:52Z</time>
      </trkpt>
      <trkpt lat="47.67834" lon="-2.19763">
        <ele>33.6</ele>
        <time>2021-05-27T15:19:53Z</time>
      </trkpt>
      <trkpt lat="47.67832" lon="-2.19769">
        <ele>34</ele>
        <time>2021-05-27T15:19:54Z</time>
      </trkpt>
      <trkpt lat="47.6783" lon="-2.19774">
        <ele>34.5</ele>
        <time>2021-05-27T15:19:55Z</time>
      </trkpt>
      <trkpt lat="47.67828" lon="-2.1978">
        <ele>34.9</ele>
        <time>2021-05-27T15:19:56Z</time>
      </trkpt>
      <trkpt lat="47.67826" lon="-2.19786">
        <ele>35.3</ele>
        <time>2021-05-27T15:19:57Z</time>
      </trkpt>
      <trkpt lat="47.67824" lon="-2.19791">
        <ele>35.7</ele>
        <time>2021-05-27T15:19:58Z</time>
      </trkpt>
      <trkpt lat="47.67822" lon="-2.19797">
        <ele>36.1</ele>
        <time>2021-05-27T15:19:59Z</time>
      </trkpt>
      <trkpt lat="47.6782" lon="-2.19802">
        <ele>36.5</ele>
        <time>2021-05-27T15:20:00Z</time>
      </trkpt>
      <trkpt lat="47.67819" lon="-2.19807">
        <ele>36.8</ele>
        <time>2021-05-27T15:20:01Z</time>
      </trkpt>
      <trkpt lat="47.67817" lon="-2.19813">
        <ele>37.2</ele>
        <time>2021-05-27T15:20:02Z</time>
      </trkpt>
      <trkpt lat="47.67815" lon="-2.19818">
        <ele>37.5</ele>
        <time>2021-05-27T15:20:03Z</time>
      </trkpt>
      <trkpt lat="47.67813" lon="-2.19823">
        <ele>37.8</ele>
        <time>2021-05-27T15:20:04Z</time>
      </trkpt>
      <trkpt lat="47.67812" lon="-2.19829">
        <ele>38.1</ele>
        <time>2021-05-27T15:20:05Z</time>
      </trkpt>
      <trkpt lat="47.67812" lon="-2.19834">
        <ele>38.3</ele>
        <time>2021-05-27T15:20:06Z</time>
      </trkpt>
      <trkpt lat="47.67811" lon="-2.19839">
        <ele>38.4</ele>
        <time>2021-05-27T15:20:07Z</time>
      </trkpt>
      <trkpt lat="47.67811" lon="-2.19844">
        <ele>38.4</ele>
        <time>2021-05-27T15:20:08Z</time>
      </trkpt>
      <trkpt lat="47.67812" lon="-2.19849">
        <ele>38.5</ele>
        <time>2021-05-27T15:20:09Z</time>
      </trkpt>
      <trkpt lat="47.67812" lon="-2.19854">
        <ele>38.5</ele>
        <time>2021-05-27T15:20:10Z</time>
      </trkpt>
      <trkpt lat="47.67812" lon="-2.1986">
        <ele>38.6</ele>
        <time>2021-05-27T15:20:11Z</time>
      </trkpt>
      <trkpt lat="47.67812" lon="-2.19865">
        <ele>38.6</ele>
        <time>2021-05-27T15:20:12Z</time>
      </trkpt>
      <trkpt lat="47.67813" lon="-2.19871">
        <ele>38.7</ele>
        <time>2021-05-27T15:20:13Z</time>
      </trkpt>
      <trkpt lat="47.67813" lon="-2.19876">
        <ele>38.7</ele>
        <time>2021-05-27T15:20:14Z</time>
      </trkpt>
      <trkpt lat="47.67813" lon="-2.19882">
        <ele>38.8</ele>
        <time>2021-05-27T15:20:15Z</time>
      </trkpt>
      <trkpt lat="47.67814" lon="-2.19887">
        <ele>38.8</ele>
        <time>2021-05-27T15:20:16Z</time>
      </trkpt>
      <trkpt lat="47.67814" lon="-2.19893">
        <ele>38.9</ele>
        <time>2021-05-27T15:20:17Z</time>
      </trkpt>
      <trkpt lat="47.67815" lon="-2.19899">
        <ele>38.9</ele>
        <time>2021-05-27T15:20:18Z</time>
      </trkpt>
      <trkpt lat="47.67816" lon="-2.19905">
        <ele>38.9</ele>
        <time>2021-05-27T15:20:19Z</time>
      </trkpt>
      <trkpt lat="47.67816" lon="-2.19911">
        <ele>38.9</ele>
        <time>2021-05-27T15:20:20Z</time>
      </trkpt>
      <trkpt lat="47.67817" lon="-2.19918">
        <ele>39</ele>
        <time>2021-05-27T15:20:21Z</time>
      </trkpt>
      <trkpt lat="47.67818" lon="-2.19924">
        <ele>39</ele>
        <time>2021-05-27T15:20:22Z</time>
      </trkpt>
      <trkpt lat="47.67819" lon="-2.1993">
        <ele>39</ele>
        <time>2021-05-27T15:20:23Z</time>
      </trkpt>
      <trkpt lat="47.6782" lon="-2.19936">
        <ele>39</ele>
        <time>2021-05-27T15:20:24Z</time>
      </trkpt>
      <trkpt lat="47.67822" lon="-2.19942">
        <ele>39</ele>
        <time>2021-05-27T15:20:25Z</time>
      </trkpt>
      <trkpt lat="47.67823" lon="-2.19948">
        <ele>39</ele>
        <time>2021-05-27T15:20:26Z</time>
      </trkpt>
      <trkpt lat="47.67823" lon="-2.19954">
        <ele>39</ele>
        <time>2021-05-27T15:20:27Z</time>
      </trkpt>
      <trkpt lat="47.67824" lon="-2.19961">
        <ele>39.1</ele>
        <time>2021-05-27T15:20:28Z</time>
      </trkpt>
      <trkpt lat="47.67824" lon="-2.19966">
        <ele>39.1</ele>
        <time>2021-05-27T15:20:29Z</time>
      </trkpt>
      <trkpt lat="47.67825" lon="-2.19971">
        <ele>39.2</ele>
        <time>2021-05-27T15:20:30Z</time>
      </trkpt>
      <trkpt lat="47.67825" lon="-2.19977">
        <ele>39.2</ele>
        <time>2021-05-27T15:20:31Z</time>
      </trkpt>
      <trkpt lat="47.67826" lon="-2.19981">
        <ele>39.2</ele>
        <time>2021-05-27T15:20:32Z</time>
      </trkpt>
      <trkpt lat="47.67826" lon="-2.19984">
        <ele>39.3</ele>
        <time>2021-05-27T15:20:33Z</time>
      </trkpt>
      <trkpt lat="47.67826" lon="-2.19987">
        <ele>39.3</ele>
        <time>2021-05-27T15:20:34Z</time>
      </trkpt>
      <trkpt lat="47.67827" lon="-2.19989">
        <ele>39.2</ele>
        <time>2021-05-27T15:20:35Z</time>
      </trkpt>
      <trkpt lat="47.67829" lon="-2.19989">
        <ele>39.1</ele>
        <time>2021-05-27T15:20:36Z</time>
      </trkpt>
      <trkpt lat="47.67832" lon="-2.19989">
        <ele>39</ele>
        <time>2021-05-27T15:20:37Z</time>
      </trkpt>
      <trkpt lat="47.67836" lon="-2.19988">
        <ele>38.6</ele>
        <time>2021-05-27T15:20:38Z</time>
      </trkpt>
      <trkpt lat="47.67839" lon="-2.19987">
        <ele>38.2</ele>
        <time>2021-05-27T15:20:39Z</time>
      </trkpt>
      <trkpt lat="47.67843" lon="-2.19985">
        <ele>37.8</ele>
        <time>2021-05-27T15:20:40Z</time>
      </trkpt>
      <trkpt lat="47.67846" lon="-2.19984">
        <ele>37.4</ele>
        <time>2021-05-27T15:20:41Z</time>
      </trkpt>
      <trkpt lat="47.67849" lon="-2.19985">
        <ele>37.1</ele>
        <time>2021-05-27T15:20:42Z</time>
      </trkpt>
      <trkpt lat="47.67853" lon="-2.19987">
        <ele>36.7</ele>
        <time>2021-05-27T15:20:43Z</time>
      </trkpt>
      <trkpt lat="47.67856" lon="-2.19989">
        <ele>36.4</ele>
        <time>2021-05-27T15:20:44Z</time>
      </trkpt>
      <trkpt lat="47.6786" lon="-2.19992">
        <ele>36</ele>
        <time>2021-05-27T15:20:45Z</time>
      </trkpt>
      <trkpt lat="47.67864" lon="-2.19995">
        <ele>35.6</ele>
        <time>2021-05-27T15:20:46Z</time>
      </trkpt>
      <trkpt lat="47.6787" lon="-2.19997">
        <ele>35</ele>
        <time>2021-05-27T15:20:47Z</time>
      </trkpt>
      <trkpt lat="47.67875" lon="-2.20002">
        <ele>34.4</ele>
        <time>2021-05-27T15:20:48Z</time>
      </trkpt>
      <trkpt lat="47.67879" lon="-2.20007">
        <ele>33.7</ele>
        <time>2021-05-27T15:20:49Z</time>
      </trkpt>
      <trkpt lat="47.67881" lon="-2.20013">
        <ele>33.1</ele>
        <time>2021-05-27T15:20:50Z</time>
      </trkpt>
      <trkpt lat="47.67881" lon="-2.20021">
        <ele>32.7</ele>
        <time>2021-05-27T15:20:51Z</time>
      </trkpt>
      <trkpt lat="47.67883" lon="-2.2003">
        <ele>32.1</ele>
        <time>2021-05-27T15:20:52Z</time>
      </trkpt>
      <trkpt lat="47.67883" lon="-2.20037">
        <ele>31.7</ele>
        <time>2021-05-27T15:20:53Z</time>
      </trkpt>
      <trkpt lat="47.67886" lon="-2.20045">
        <ele>31</ele>
        <time>2021-05-27T15:20:54Z</time>
      </trkpt>
      <trkpt lat="47.67889" lon="-2.20053">
        <ele>30.2</ele>
        <time>2021-05-27T15:20:55Z</time>
      </trkpt>
      <trkpt lat="47.67892" lon="-2.20059">
        <ele>29.6</ele>
        <time>2021-05-27T15:20:56Z</time>
      </trkpt>
      <trkpt lat="47.67894" lon="-2.20065">
        <ele>29.1</ele>
        <time>2021-05-27T15:20:57Z</time>
      </trkpt>
      <trkpt lat="47.67894" lon="-2.2007">
        <ele>28.9</ele>
        <time>2021-05-27T15:20:58Z</time>
      </trkpt>
      <trkpt lat="47.67893" lon="-2.20074">
        <ele>28.7</ele>
        <time>2021-05-27T15:20:59Z</time>
      </trkpt>
      <trkpt lat="47.67892" lon="-2.20078">
        <ele>28.7</ele>
        <time>2021-05-27T15:21:00Z</time>
      </trkpt>
      <trkpt lat="47.67889" lon="-2.20083">
        <ele>28.7</ele>
        <time>2021-05-27T15:21:01Z</time>
      </trkpt>
      <trkpt lat="47.67886" lon="-2.20086">
        <ele>28.7</ele>
        <time>2021-05-27T15:21:02Z</time>
      </trkpt>
      <trkpt lat="47.67883" lon="-2.2009">
        <ele>28.8</ele>
        <time>2021-05-27T15:21:03Z</time>
      </trkpt>
      <trkpt lat="47.67879" lon="-2.20094">
        <ele>28.9</ele>
        <time>2021-05-27T15:21:04Z</time>
      </trkpt>
      <trkpt lat="47.67876" lon="-2.20099">
        <ele>28.8</ele>
        <time>2021-05-27T15:21:05Z</time>
      </trkpt>
      <trkpt lat="47.67875" lon="-2.20106">
        <ele>28.5</ele>
        <time>2021-05-27T15:21:06Z</time>
      </trkpt>
      <trkpt lat="47.67872" lon="-2.20113">
        <ele>28.3</ele>
        <time>2021-05-27T15:21:07Z</time>
      </trkpt>
      <trkpt lat="47.6787" lon="-2.20122">
        <ele>28</ele>
        <time>2021-05-27T15:21:08Z</time>
      </trkpt>
      <trkpt lat="47.67868" lon="-2.2013">
        <ele>27.8</ele>
        <time>2021-05-27T15:21:09Z</time>
      </trkpt>
      <trkpt lat="47.67865" lon="-2.20139">
        <ele>27.6</ele>
        <time>2021-05-27T15:21:10Z</time>
      </trkpt>
      <trkpt lat="47.67862" lon="-2.20149">
        <ele>27.6</ele>
        <time>2021-05-27T15:21:11Z</time>
      </trkpt>
      <trkpt lat="47.67862" lon="-2.20161">
        <ele>26.9</ele>
        <time>2021-05-27T15:21:12Z</time>
      </trkpt>
      <trkpt lat="47.67862" lon="-2.20172">
        <ele>26.2</ele>
        <time>2021-05-27T15:21:13Z</time>
      </trkpt>
      <trkpt lat="47.67861" lon="-2.20182">
        <ele>25.8</ele>
        <time>2021-05-27T15:21:14Z</time>
      </trkpt>
      <trkpt lat="47.6786" lon="-2.2019">
        <ele>25.5</ele>
        <time>2021-05-27T15:21:15Z</time>
      </trkpt>
      <trkpt lat="47.67859" lon="-2.20196">
        <ele>25.2</ele>
        <time>2021-05-27T15:21:16Z</time>
      </trkpt>
      <trkpt lat="47.67858" lon="-2.20201">
        <ele>25.1</ele>
        <time>2021-05-27T15:21:17Z</time>
      </trkpt>
      <trkpt lat="47.67858" lon="-2.20206">
        <ele>24.8</ele>
        <time>2021-05-27T15:21:18Z</time>
      </trkpt>
      <trkpt lat="47.67857" lon="-2.2021">
        <ele>24.7</ele>
        <time>2021-05-27T15:21:19Z</time>
      </trkpt>
      <trkpt lat="47.67855" lon="-2.20216">
        <ele>24.5</ele>
        <time>2021-05-27T15:21:20Z</time>
      </trkpt>
      <trkpt lat="47.67853" lon="-2.2022">
        <ele>24.5</ele>
        <time>2021-05-27T15:21:21Z</time>
      </trkpt>
      <trkpt lat="47.67851" lon="-2.20225">
        <ele>24.4</ele>
        <time>2021-05-27T15:21:22Z</time>
      </trkpt>
      <trkpt lat="47.67847" lon="-2.20229">
        <ele>24.5</ele>
        <time>2021-05-27T15:21:23Z</time>
      </trkpt>
      <trkpt lat="47.67845" lon="-2.20234">
        <ele>24.3</ele>
        <time>2021-05-27T15:21:24Z</time>
      </trkpt>
      <trkpt lat="47.67843" lon="-2.20238">
        <ele>24.2</ele>
        <time>2021-05-27T15:21:25Z</time>
      </trkpt>
      <trkpt lat="47.67842" lon="-2.20241">
        <ele>24.1</ele>
        <time>2021-05-27T15:21:26Z</time>
      </trkpt>
      <trkpt lat="47.67839" lon="-2.20244">
        <ele>24</ele>
        <time>2021-05-27T15:21:27Z</time>
      </trkpt>
      <trkpt lat="47.67838" lon="-2.20248">
        <ele>23.9</ele>
        <time>2021-05-27T15:21:28Z</time>
      </trkpt>
      <trkpt lat="47.67836" lon="-2.2025">
        <ele>23.9</ele>
        <time>2021-05-27T15:21:29Z</time>
      </trkpt>
      <trkpt lat="47.67834" lon="-2.20252">
        <ele>23.7</ele>
        <time>2021-05-27T15:21:30Z</time>
      </trkpt>
      <trkpt lat="47.67832" lon="-2.20255">
        <ele>23.7</ele>
        <time>2021-05-27T15:21:31Z</time>
      </trkpt>
      <trkpt lat="47.67829" lon="-2.20257">
        <ele>23.9</ele>
        <time>2021-05-27T15:21:32Z</time>
      </trkpt>
      <trkpt lat="47.67827" lon="-2.2026">
        <ele>23.9</ele>
        <time>2021-05-27T15:21:33Z</time>
      </trkpt>
      <trkpt lat="47.67824" lon="-2.20262">
        <ele>24.2</ele>
        <time>2021-05-27T15:21:34Z</time>
      </trkpt>
      <trkpt lat="47.67821" lon="-2.20262">
        <ele>24.5</ele>
        <time>2021-05-27T15:21:35Z</time>
      </trkpt>
      <trkpt lat="47.67819" lon="-2.20262">
        <ele>24.8</ele>
        <time>2021-05-27T15:21:36Z</time>
      </trkpt>
      <trkpt lat="47.67817" lon="-2.20262">
        <ele>25.1</ele>
        <time>2021-05-27T15:21:37Z</time>
      </trkpt>
      <trkpt lat="47.67815" lon="-2.20261">
        <ele>25.5</ele>
        <time>2021-05-27T15:21:38Z</time>
      </trkpt>
      <trkpt lat="47.67812" lon="-2.20261">
        <ele>25.9</ele>
        <time>2021-05-27T15:21:39Z</time>
      </trkpt>
      <trkpt lat="47.6781" lon="-2.20262">
        <ele>26.2</ele>
        <time>2021-05-27T15:21:40Z</time>
      </trkpt>
      <trkpt lat="47.67808" lon="-2.20262">
        <ele>26.4</ele>
        <time>2021-05-27T15:21:41Z</time>
      </trkpt>
      <trkpt lat="47.67806" lon="-2.20263">
        <ele>26.6</ele>
        <time>2021-05-27T15:21:42Z</time>
      </trkpt>
      <trkpt lat="47.67804" lon="-2.20264">
        <ele>26.8</ele>
        <time>2021-05-27T15:21:43Z</time>
      </trkpt>
      <trkpt lat="47.67802" lon="-2.20264">
        <ele>27</ele>
        <time>2021-05-27T15:21:44Z</time>
      </trkpt>
      <trkpt lat="47.67799" lon="-2.20264">
        <ele>27.4</ele>
        <time>2021-05-27T15:21:45Z</time>
      </trkpt>
      <trkpt lat="47.67797" lon="-2.20263">
        <ele>27.9</ele>
        <time>2021-05-27T15:21:46Z</time>
      </trkpt>
      <trkpt lat="47.67795" lon="-2.20263">
        <ele>28.1</ele>
        <time>2021-05-27T15:21:47Z</time>
      </trkpt>
      <trkpt lat="47.67792" lon="-2.20263">
        <ele>28.6</ele>
        <time>2021-05-27T15:21:48Z</time>
      </trkpt>
      <trkpt lat="47.6779" lon="-2.20263">
        <ele>28.9</ele>
        <time>2021-05-27T15:21:49Z</time>
      </trkpt>
      <trkpt lat="47.67788" lon="-2.20263">
        <ele>29.1</ele>
        <time>2021-05-27T15:21:50Z</time>
      </trkpt>
      <trkpt lat="47.67786" lon="-2.20264">
        <ele>29.3</ele>
        <time>2021-05-27T15:21:51Z</time>
      </trkpt>
      <trkpt lat="47.67785" lon="-2.20265">
        <ele>29.3</ele>
        <time>2021-05-27T15:21:52Z</time>
      </trkpt>
      <trkpt lat="47.67783" lon="-2.20266">
        <ele>29.4</ele>
        <time>2021-05-27T15:21:53Z</time>
      </trkpt>
      <trkpt lat="47.67781" lon="-2.20269">
        <ele>29.2</ele>
        <time>2021-05-27T15:21:54Z</time>
      </trkpt>
      <trkpt lat="47.67778" lon="-2.20273">
        <ele>29.2</ele>
        <time>2021-05-27T15:21:55Z</time>
      </trkpt>
      <trkpt lat="47.67775" lon="-2.20274">
        <ele>29.3</ele>
        <time>2021-05-27T15:21:56Z</time>
      </trkpt>
      <trkpt lat="47.67773" lon="-2.20275">
        <ele>29.5</ele>
        <time>2021-05-27T15:21:57Z</time>
      </trkpt>
      <trkpt lat="47.6777" lon="-2.20276">
        <ele>29.7</ele>
        <time>2021-05-27T15:21:58Z</time>
      </trkpt>
      <trkpt lat="47.67767" lon="-2.20276">
        <ele>29.9</ele>
        <time>2021-05-27T15:21:59Z</time>
      </trkpt>
      <trkpt lat="47.67764" lon="-2.20277">
        <ele>30.2</ele>
        <time>2021-05-27T15:22:00Z</time>
      </trkpt>
      <trkpt lat="47.67761" lon="-2.20277">
        <ele>30.6</ele>
        <time>2021-05-27T15:22:01Z</time>
      </trkpt>
      <trkpt lat="47.67755" lon="-2.20279">
        <ele>31</ele>
        <time>2021-05-27T15:22:02Z</time>
      </trkpt>
      <trkpt lat="47.67753" lon="-2.2028">
        <ele>31.3</ele>
        <time>2021-05-27T15:22:03Z</time>
      </trkpt>
      <trkpt lat="47.67751" lon="-2.2028">
        <ele>31.5</ele>
        <time>2021-05-27T15:22:04Z</time>
      </trkpt>
      <trkpt lat="47.67749" lon="-2.2028">
        <ele>31.8</ele>
        <time>2021-05-27T15:22:05Z</time>
      </trkpt>
      <trkpt lat="47.67747" lon="-2.20279">
        <ele>32</ele>
        <time>2021-05-27T15:22:06Z</time>
      </trkpt>
      <trkpt lat="47.67746" lon="-2.2028">
        <ele>32</ele>
        <time>2021-05-27T15:22:07Z</time>
      </trkpt>
      <trkpt lat="47.67745" lon="-2.2028">
        <ele>32</ele>
        <time>2021-05-27T15:22:08Z</time>
      </trkpt>
      <trkpt lat="47.67744" lon="-2.20282">
        <ele>31.9</ele>
        <time>2021-05-27T15:22:09Z</time>
      </trkpt>
      <trkpt lat="47.67743" lon="-2.20283">
        <ele>31.8</ele>
        <time>2021-05-27T15:22:10Z</time>
      </trkpt>
      <trkpt lat="47.67743" lon="-2.20284">
        <ele>31.5</ele>
        <time>2021-05-27T15:22:11Z</time>
      </trkpt>
      <trkpt lat="47.67742" lon="-2.20287">
        <ele>31.2</ele>
        <time>2021-05-27T15:22:12Z</time>
      </trkpt>
      <trkpt lat="47.67741" lon="-2.20289">
        <ele>30.8</ele>
        <time>2021-05-27T15:22:13Z</time>
      </trkpt>
      <trkpt lat="47.67741" lon="-2.20293">
        <ele>30.3</ele>
        <time>2021-05-27T15:22:14Z</time>
      </trkpt>
      <trkpt lat="47.67738" lon="-2.20296">
        <ele>30.1</ele>
        <time>2021-05-27T15:22:15Z</time>
      </trkpt>
      <trkpt lat="47.67735" lon="-2.203">
        <ele>29.6</ele>
        <time>2021-05-27T15:22:16Z</time>
      </trkpt>
      <trkpt lat="47.67732" lon="-2.20304">
        <ele>29.3</ele>
        <time>2021-05-27T15:22:17Z</time>
      </trkpt>
      <trkpt lat="47.67729" lon="-2.20307">
        <ele>29.1</ele>
        <time>2021-05-27T15:22:18Z</time>
      </trkpt>
      <trkpt lat="47.67725" lon="-2.20309">
        <ele>29</ele>
        <time>2021-05-27T15:22:19Z</time>
      </trkpt>
      <trkpt lat="47.67722" lon="-2.20311">
        <ele>29</ele>
        <time>2021-05-27T15:22:20Z</time>
      </trkpt>
      <trkpt lat="47.6772" lon="-2.20313">
        <ele>28.9</ele>
        <time>2021-05-27T15:22:21Z</time>
      </trkpt>
      <trkpt lat="47.67718" lon="-2.20316">
        <ele>28.7</ele>
        <time>2021-05-27T15:22:22Z</time>
      </trkpt>
      <trkpt lat="47.67715" lon="-2.20317">
        <ele>28.8</ele>
        <time>2021-05-27T15:22:23Z</time>
      </trkpt>
      <trkpt lat="47.67712" lon="-2.20318">
        <ele>29.1</ele>
        <time>2021-05-27T15:22:24Z</time>
      </trkpt>
      <trkpt lat="47.6771" lon="-2.20318">
        <ele>29.3</ele>
        <time>2021-05-27T15:22:25Z</time>
      </trkpt>
      <trkpt lat="47.67708" lon="-2.20318">
        <ele>29.4</ele>
        <time>2021-05-27T15:22:26Z</time>
      </trkpt>
      <trkpt lat="47.67707" lon="-2.20319">
        <ele>29.6</ele>
        <time>2021-05-27T15:22:27Z</time>
      </trkpt>
      <trkpt lat="47.67705" lon="-2.20318">
        <ele>29.8</ele>
        <time>2021-05-27T15:22:28Z</time>
      </trkpt>
      <trkpt lat="47.67704" lon="-2.20318">
        <ele>30</ele>
        <time>2021-05-27T15:22:29Z</time>
      </trkpt>
      <trkpt lat="47.67703" lon="-2.20317">
        <ele>30.3</ele>
        <time>2021-05-27T15:22:30Z</time>
      </trkpt>
      <trkpt lat="47.67703" lon="-2.20317">
        <ele>30.3</ele>
        <time>2021-05-27T15:22:31Z</time>
      </trkpt>
      <trkpt lat="47.67703" lon="-2.20317">
        <ele>30.3</ele>
        <time>2021-05-27T15:22:32Z</time>
      </trkpt>
      <trkpt lat="47.677" lon="-2.20319">
        <ele>30.3</ele>
        <time>2021-05-27T15:22:33Z</time>
      </trkpt>
      <trkpt lat="47.67699" lon="-2.20321">
        <ele>30</ele>
        <time>2021-05-27T15:22:34Z</time>
      </trkpt>
      <trkpt lat="47.67698" lon="-2.20322">
        <ele>30.1</ele>
        <time>2021-05-27T15:22:35Z</time>
      </trkpt>
      <trkpt lat="47.67696" lon="-2.20321">
        <ele>30.4</ele>
        <time>2021-05-27T15:22:36Z</time>
      </trkpt>
      <trkpt lat="47.67693" lon="-2.20321">
        <ele>30.7</ele>
        <time>2021-05-27T15:22:37Z</time>
      </trkpt>
      <trkpt lat="47.67692" lon="-2.2032">
        <ele>31</ele>
        <time>2021-05-27T15:22:38Z</time>
      </trkpt>
      <trkpt lat="47.67692" lon="-2.2032">
        <ele>31</ele>
        <time>2021-05-27T15:22:39Z</time>
      </trkpt>
      <trkpt lat="47.67691" lon="-2.20321">
        <ele>31.1</ele>
        <time>2021-05-27T15:22:40Z</time>
      </trkpt>
      <trkpt lat="47.67691" lon="-2.20321">
        <ele>31.1</ele>
        <time>2021-05-27T15:22:41Z</time>
      </trkpt>
      <trkpt lat="47.67687" lon="-2.20322">
        <ele>31.2</ele>
        <time>2021-05-27T15:22:42Z</time>
      </trkpt>
      <trkpt lat="47.67685" lon="-2.20323">
        <ele>31.5</ele>
        <time>2021-05-27T15:22:43Z</time>
      </trkpt>
      <trkpt lat="47.67682" lon="-2.20321">
        <ele>32</ele>
        <time>2021-05-27T15:22:44Z</time>
      </trkpt>
      <trkpt lat="47.6768" lon="-2.2032">
        <ele>32.3</ele>
        <time>2021-05-27T15:22:45Z</time>
      </trkpt>
      <trkpt lat="47.67678" lon="-2.20319">
        <ele>32.8</ele>
        <time>2021-05-27T15:22:46Z</time>
      </trkpt>
      <trkpt lat="47.67676" lon="-2.20318">
        <ele>33.1</ele>
        <time>2021-05-27T15:22:47Z</time>
      </trkpt>
      <trkpt lat="47.67675" lon="-2.20317">
        <ele>33.4</ele>
        <time>2021-05-27T15:22:48Z</time>
      </trkpt>
      <trkpt lat="47.67673" lon="-2.20316">
        <ele>33.7</ele>
        <time>2021-05-27T15:22:49Z</time>
      </trkpt>
      <trkpt lat="47.67671" lon="-2.20315">
        <ele>34.2</ele>
        <time>2021-05-27T15:22:50Z</time>
      </trkpt>
      <trkpt lat="47.67669" lon="-2.20313">
        <ele>34.7</ele>
        <time>2021-05-27T15:22:51Z</time>
      </trkpt>
      <trkpt lat="47.67667" lon="-2.20312">
        <ele>35</ele>
        <time>2021-05-27T15:22:52Z</time>
      </trkpt>
      <trkpt lat="47.67665" lon="-2.20311">
        <ele>35.2</ele>
        <time>2021-05-27T15:22:53Z</time>
      </trkpt>
      <trkpt lat="47.67664" lon="-2.20312">
        <ele>35.2</ele>
        <time>2021-05-27T15:22:54Z</time>
      </trkpt>
      <trkpt lat="47.67665" lon="-2.20311">
        <ele>35.3</ele>
        <time>2021-05-27T15:22:55Z</time>
      </trkpt>
      <trkpt lat="47.67665" lon="-2.2031">
        <ele>35.4</ele>
        <time>2021-05-27T15:22:56Z</time>
      </trkpt>
      <trkpt lat="47.67666" lon="-2.20309">
        <ele>35.6</ele>
        <time>2021-05-27T15:22:57Z</time>
      </trkpt>
      <trkpt lat="47.67666" lon="-2.20307">
        <ele>35.8</ele>
        <time>2021-05-27T15:22:58Z</time>
      </trkpt>
      <trkpt lat="47.67667" lon="-2.20306">
        <ele>35.9</ele>
        <time>2021-05-27T15:22:59Z</time>
      </trkpt>
      <trkpt lat="47.67667" lon="-2.20305">
        <ele>36.1</ele>
        <time>2021-05-27T15:23:00Z</time>
      </trkpt>
      <trkpt lat="47.67667" lon="-2.20304">
        <ele>36.2</ele>
        <time>2021-05-27T15:23:01Z</time>
      </trkpt>
      <trkpt lat="47.67666" lon="-2.20303">
        <ele>36.3</ele>
        <time>2021-05-27T15:23:02Z</time>
      </trkpt>
      <trkpt lat="47.67657" lon="-2.20302">
        <ele>36.8</ele>
        <time>2021-05-27T15:23:31Z</time>
      </trkpt>
      <trkpt lat="47.67657" lon="-2.20301">
        <ele>36.9</ele>
        <time>2021-05-27T15:23:32Z</time>
      </trkpt>
      <trkpt lat="47.67656" lon="-2.20301">
        <ele>37</ele>
        <time>2021-05-27T15:23:33Z</time>
      </trkpt>
      <trkpt lat="47.6765" lon="-2.20302">
        <ele>37</ele>
        <time>2021-05-27T15:29:46Z</time>
      </trkpt>
      <trkpt lat="47.6765" lon="-2.20302">
        <ele>37</ele>
        <time>2021-05-27T15:29:47Z</time>
      </trkpt>
      <trkpt lat="47.6765" lon="-2.20302">
        <ele>37</ele>
        <time>2021-05-27T15:29:48Z</time>
      </trkpt>
      <trkpt lat="47.6765" lon="-2.20302">
        <ele>37</ele>
        <time>2021-05-27T15:29:49Z</time>
      </trkpt>
      <trkpt lat="47.6765" lon="-2.20302">
        <ele>37</ele>
        <time>2021-05-27T15:29:50Z</time>
      </trkpt>
      <trkpt lat="47.6765" lon="-2.20302">
        <ele>37</ele>
        <time>2021-05-27T15:29:51Z</time>
      </trkpt>
      <trkpt lat="47.6765" lon="-2.20302">
        <ele>37</ele>
        <time>2021-05-27T15:29:52Z</time>
      </trkpt>
      <trkpt lat="47.6765" lon="-2.20302">
        <ele>37</ele>
        <time>2021-05-27T15:29:53Z</time>
      </trkpt>
      <trkpt lat="47.6765" lon="-2.20302">
        <ele>37</ele>
        <time>2021-05-27T15:29:54Z</time>
      </trkpt>
      <trkpt lat="47.6765" lon="-2.20302">
        <ele>37</ele>
        <time>2021-05-27T15:29:55Z</time>
      </trkpt>
      <trkpt lat="47.67657" lon="-2.20305">
        <ele>36.5</ele>
        <time>2021-05-27T15:29:56Z</time>
      </trkpt>
      <trkpt lat="47.67656" lon="-2.20306">
        <ele>36.2</ele>
        <time>2021-05-27T15:29:57Z</time>
      </trkpt>
      <trkpt lat="47.67655" lon="-2.2031">
        <ele>35.7</ele>
        <time>2021-05-27T15:29:59Z</time>
      </trkpt>
      <trkpt lat="47.67655" lon="-2.20312">
        <ele>35.6</ele>
        <time>2021-05-27T15:30:00Z</time>
      </trkpt>
      <trkpt lat="47.67653" lon="-2.20315">
        <ele>35.2</ele>
        <time>2021-05-27T15:30:01Z</time>
      </trkpt>
      <trkpt lat="47.67651" lon="-2.20319">
        <ele>34.7</ele>
        <time>2021-05-27T15:30:02Z</time>
      </trkpt>
      <trkpt lat="47.67648" lon="-2.20324">
        <ele>34.1</ele>
        <time>2021-05-27T15:30:03Z</time>
      </trkpt>
      <trkpt lat="47.67644" lon="-2.20331">
        <ele>33.4</ele>
        <time>2021-05-27T15:30:04Z</time>
      </trkpt>
      <trkpt lat="47.67641" lon="-2.20336">
        <ele>32.8</ele>
        <time>2021-05-27T15:30:05Z</time>
      </trkpt>
      <trkpt lat="47.67638" lon="-2.20343">
        <ele>32.1</ele>
        <time>2021-05-27T15:30:06Z</time>
      </trkpt>
      <trkpt lat="47.67633" lon="-2.20351">
        <ele>31.3</ele>
        <time>2021-05-27T15:30:07Z</time>
      </trkpt>
      <trkpt lat="47.67629" lon="-2.2036">
        <ele>30.2</ele>
        <time>2021-05-27T15:30:08Z</time>
      </trkpt>
      <trkpt lat="47.67624" lon="-2.20369">
        <ele>29</ele>
        <time>2021-05-27T15:30:09Z</time>
      </trkpt>
      <trkpt lat="47.67619" lon="-2.20379">
        <ele>27.9</ele>
        <time>2021-05-27T15:30:10Z</time>
      </trkpt>
      <trkpt lat="47.67614" lon="-2.20389">
        <ele>26.7</ele>
        <time>2021-05-27T15:30:11Z</time>
      </trkpt>
      <trkpt lat="47.67609" lon="-2.204">
        <ele>25.5</ele>
        <time>2021-05-27T15:30:12Z</time>
      </trkpt>
      <trkpt lat="47.67602" lon="-2.20409">
        <ele>24.4</ele>
        <time>2021-05-27T15:30:13Z</time>
      </trkpt>
      <trkpt lat="47.67595" lon="-2.20419">
        <ele>23.4</ele>
        <time>2021-05-27T15:30:14Z</time>
      </trkpt>
      <trkpt lat="47.67589" lon="-2.20431">
        <ele>22.9</ele>
        <time>2021-05-27T15:30:15Z</time>
      </trkpt>
      <trkpt lat="47.67583" lon="-2.20441">
        <ele>22.6</ele>
        <time>2021-05-27T15:30:16Z</time>
      </trkpt>
      <trkpt lat="47.67577" lon="-2.2045">
        <ele>22.3</ele>
        <time>2021-05-27T15:30:17Z</time>
      </trkpt>
      <trkpt lat="47.67574" lon="-2.20456">
        <ele>22.1</ele>
        <time>2021-05-27T15:30:18Z</time>
      </trkpt>
      <trkpt lat="47.6757" lon="-2.20462">
        <ele>21.9</ele>
        <time>2021-05-27T15:30:19Z</time>
      </trkpt>
      <trkpt lat="47.67568" lon="-2.20467">
        <ele>21.7</ele>
        <time>2021-05-27T15:30:20Z</time>
      </trkpt>
      <trkpt lat="47.67567" lon="-2.20473">
        <ele>21.4</ele>
        <time>2021-05-27T15:30:21Z</time>
      </trkpt>
      <trkpt lat="47.67568" lon="-2.20478">
        <ele>21</ele>
        <time>2021-05-27T15:30:22Z</time>
      </trkpt>
      <trkpt lat="47.6757" lon="-2.20483">
        <ele>20.6</ele>
        <time>2021-05-27T15:30:23Z</time>
      </trkpt>
      <trkpt lat="47.67576" lon="-2.20486">
        <ele>20.2</ele>
        <time>2021-05-27T15:30:24Z</time>
      </trkpt>
      <trkpt lat="47.67581" lon="-2.20488">
        <ele>19.9</ele>
        <time>2021-05-27T15:30:25Z</time>
      </trkpt>
      <trkpt lat="47.67586" lon="-2.2049">
        <ele>19.4</ele>
        <time>2021-05-27T15:30:26Z</time>
      </trkpt>
      <trkpt lat="47.67593" lon="-2.20493">
        <ele>18.8</ele>
        <time>2021-05-27T15:30:27Z</time>
      </trkpt>
      <trkpt lat="47.676" lon="-2.20497">
        <ele>18</ele>
        <time>2021-05-27T15:30:28Z</time>
      </trkpt>
      <trkpt lat="47.67607" lon="-2.20501">
        <ele>17.3</ele>
        <time>2021-05-27T15:30:29Z</time>
      </trkpt>
      <trkpt lat="47.67613" lon="-2.20506">
        <ele>17</ele>
        <time>2021-05-27T15:30:30Z</time>
      </trkpt>
      <trkpt lat="47.6762" lon="-2.20511">
        <ele>16.8</ele>
        <time>2021-05-27T15:30:31Z</time>
      </trkpt>
      <trkpt lat="47.67625" lon="-2.20516">
        <ele>16.6</ele>
        <time>2021-05-27T15:30:32Z</time>
      </trkpt>
      <trkpt lat="47.6763" lon="-2.20522">
        <ele>16.4</ele>
        <time>2021-05-27T15:30:33Z</time>
      </trkpt>
      <trkpt lat="47.67635" lon="-2.20528">
        <ele>16.3</ele>
        <time>2021-05-27T15:30:34Z</time>
      </trkpt>
      <trkpt lat="47.6764" lon="-2.20534">
        <ele>16.2</ele>
        <time>2021-05-27T15:30:35Z</time>
      </trkpt>
      <trkpt lat="47.67644" lon="-2.20539">
        <ele>16</ele>
        <time>2021-05-27T15:30:36Z</time>
      </trkpt>
      <trkpt lat="47.67648" lon="-2.20544">
        <ele>15.9</ele>
        <time>2021-05-27T15:30:37Z</time>
      </trkpt>
      <trkpt lat="47.67651" lon="-2.20549">
        <ele>15.9</ele>
        <time>2021-05-27T15:30:38Z</time>
      </trkpt>
      <trkpt lat="47.67653" lon="-2.20556">
        <ele>16</ele>
        <time>2021-05-27T15:30:39Z</time>
      </trkpt>
      <trkpt lat="47.67657" lon="-2.20557">
        <ele>15.7</ele>
        <time>2021-05-27T15:35:32Z</time>
      </trkpt>
      <trkpt lat="47.67659" lon="-2.20558">
        <ele>15.6</ele>
        <time>2021-05-27T15:35:33Z</time>
      </trkpt>
      <trkpt lat="47.67661" lon="-2.20559">
        <ele>15.6</ele>
        <time>2021-05-27T15:35:34Z</time>
      </trkpt>
      <trkpt lat="47.67662" lon="-2.20561">
        <ele>15.5</ele>
        <time>2021-05-27T15:35:35Z</time>
      </trkpt>
      <trkpt lat="47.67664" lon="-2.20563">
        <ele>15.5</ele>
        <time>2021-05-27T15:35:36Z</time>
      </trkpt>
      <trkpt lat="47.67665" lon="-2.20565">
        <ele>15.4</ele>
        <time>2021-05-27T15:35:37Z</time>
      </trkpt>
      <trkpt lat="47.67667" lon="-2.20567">
        <ele>15.4</ele>
        <time>2021-05-27T15:35:38Z</time>
      </trkpt>
      <trkpt lat="47.67669" lon="-2.20569">
        <ele>15.5</ele>
        <time>2021-05-27T15:35:39Z</time>
      </trkpt>
      <trkpt lat="47.67672" lon="-2.20572">
        <ele>15.5</ele>
        <time>2021-05-27T15:35:40Z</time>
      </trkpt>
      <trkpt lat="47.67675" lon="-2.20574">
        <ele>15.6</ele>
        <time>2021-05-27T15:35:41Z</time>
      </trkpt>
      <trkpt lat="47.67679" lon="-2.20576">
        <ele>15.6</ele>
        <time>2021-05-27T15:35:42Z</time>
      </trkpt>
      <trkpt lat="47.67682" lon="-2.20579">
        <ele>15.7</ele>
        <time>2021-05-27T15:35:43Z</time>
      </trkpt>
      <trkpt lat="47.67684" lon="-2.20583">
        <ele>15.8</ele>
        <time>2021-05-27T15:35:44Z</time>
      </trkpt>
      <trkpt lat="47.67686" lon="-2.20586">
        <ele>15.9</ele>
        <time>2021-05-27T15:35:45Z</time>
      </trkpt>
      <trkpt lat="47.67688" lon="-2.20589">
        <ele>15.9</ele>
        <time>2021-05-27T15:35:46Z</time>
      </trkpt>
      <trkpt lat="47.67691" lon="-2.20591">
        <ele>16</ele>
        <time>2021-05-27T15:35:47Z</time>
      </trkpt>
      <trkpt lat="47.67694" lon="-2.20594">
        <ele>16</ele>
        <time>2021-05-27T15:35:48Z</time>
      </trkpt>
      <trkpt lat="47.67696" lon="-2.20597">
        <ele>16.1</ele>
        <time>2021-05-27T15:35:49Z</time>
      </trkpt>
      <trkpt lat="47.67699" lon="-2.20599">
        <ele>16.1</ele>
        <time>2021-05-27T15:35:50Z</time>
      </trkpt>
      <trkpt lat="47.67702" lon="-2.20602">
        <ele>16.2</ele>
        <time>2021-05-27T15:35:51Z</time>
      </trkpt>
      <trkpt lat="47.67705" lon="-2.20605">
        <ele>16.2</ele>
        <time>2021-05-27T15:35:52Z</time>
      </trkpt>
      <trkpt lat="47.67708" lon="-2.20608">
        <ele>16.3</ele>
        <time>2021-05-27T15:35:53Z</time>
      </trkpt>
      <trkpt lat="47.67711" lon="-2.20612">
        <ele>16.3</ele>
        <time>2021-05-27T15:35:54Z</time>
      </trkpt>
      <trkpt lat="47.67715" lon="-2.20615">
        <ele>16.3</ele>
        <time>2021-05-27T15:35:55Z</time>
      </trkpt>
      <trkpt lat="47.67719" lon="-2.20618">
        <ele>16.3</ele>
        <time>2021-05-27T15:35:56Z</time>
      </trkpt>
      <trkpt lat="47.67723" lon="-2.2062">
        <ele>16.3</ele>
        <time>2021-05-27T15:35:57Z</time>
      </trkpt>
      <trkpt lat="47.67726" lon="-2.20621">
        <ele>16.3</ele>
        <time>2021-05-27T15:35:58Z</time>
      </trkpt>
      <trkpt lat="47.6773" lon="-2.20623">
        <ele>16.3</ele>
        <time>2021-05-27T15:35:59Z</time>
      </trkpt>
      <trkpt lat="47.67733" lon="-2.20624">
        <ele>16.3</ele>
        <time>2021-05-27T15:36:00Z</time>
      </trkpt>
      <trkpt lat="47.67737" lon="-2.20625">
        <ele>16.2</ele>
        <time>2021-05-27T15:36:01Z</time>
      </trkpt>
      <trkpt lat="47.67741" lon="-2.20625">
        <ele>16.2</ele>
        <time>2021-05-27T15:36:02Z</time>
      </trkpt>
      <trkpt lat="47.67744" lon="-2.20627">
        <ele>16.1</ele>
        <time>2021-05-27T15:36:03Z</time>
      </trkpt>
      <trkpt lat="47.67747" lon="-2.20628">
        <ele>16.1</ele>
        <time>2021-05-27T15:36:04Z</time>
      </trkpt>
      <trkpt lat="47.67751" lon="-2.20629">
        <ele>16.1</ele>
        <time>2021-05-27T15:36:05Z</time>
      </trkpt>
      <trkpt lat="47.67754" lon="-2.2063">
        <ele>16.1</ele>
        <time>2021-05-27T15:36:06Z</time>
      </trkpt>
      <trkpt lat="47.67758" lon="-2.20631">
        <ele>16.1</ele>
        <time>2021-05-27T15:36:07Z</time>
      </trkpt>
      <trkpt lat="47.67761" lon="-2.20631">
        <ele>16.1</ele>
        <time>2021-05-27T15:36:08Z</time>
      </trkpt>
      <trkpt lat="47.67765" lon="-2.20632">
        <ele>16.1</ele>
        <time>2021-05-27T15:36:09Z</time>
      </trkpt>
      <trkpt lat="47.67769" lon="-2.20633">
        <ele>16.1</ele>
        <time>2021-05-27T15:36:10Z</time>
      </trkpt>
      <trkpt lat="47.67773" lon="-2.20633">
        <ele>16.1</ele>
        <time>2021-05-27T15:36:11Z</time>
      </trkpt>
      <trkpt lat="47.67777" lon="-2.20634">
        <ele>16.1</ele>
        <time>2021-05-27T15:36:12Z</time>
      </trkpt>
      <trkpt lat="47.6778" lon="-2.20634">
        <ele>16.1</ele>
        <time>2021-05-27T15:36:13Z</time>
      </trkpt>
      <trkpt lat="47.67783" lon="-2.20634">
        <ele>16.1</ele>
        <time>2021-05-27T15:36:14Z</time>
      </trkpt>
      <trkpt lat="47.67787" lon="-2.20634">
        <ele>16.1</ele>
        <time>2021-05-27T15:36:15Z</time>
      </trkpt>
      <trkpt lat="47.67791" lon="-2.20635">
        <ele>16.1</ele>
        <time>2021-05-27T15:36:16Z</time>
      </trkpt>
      <trkpt lat="47.67796" lon="-2.20636">
        <ele>16.1</ele>
        <time>2021-05-27T15:36:17Z</time>
      </trkpt>
      <trkpt lat="47.678" lon="-2.20638">
        <ele>16.1</ele>
        <time>2021-05-27T15:36:18Z</time>
      </trkpt>
      <trkpt lat="47.67804" lon="-2.20639">
        <ele>16.1</ele>
        <time>2021-05-27T15:36:19Z</time>
      </trkpt>
      <trkpt lat="47.6781" lon="-2.20641">
        <ele>16.1</ele>
        <time>2021-05-27T15:36:20Z</time>
      </trkpt>
      <trkpt lat="47.67814" lon="-2.20641">
        <ele>16.2</ele>
        <time>2021-05-27T15:36:21Z</time>
      </trkpt>
      <trkpt lat="47.67819" lon="-2.20642">
        <ele>16.2</ele>
        <time>2021-05-27T15:36:22Z</time>
      </trkpt>
      <trkpt lat="47.67823" lon="-2.20643">
        <ele>16.2</ele>
        <time>2021-05-27T15:36:23Z</time>
      </trkpt>
      <trkpt lat="47.67828" lon="-2.20644">
        <ele>16.2</ele>
        <time>2021-05-27T15:36:24Z</time>
      </trkpt>
      <trkpt lat="47.67833" lon="-2.20646">
        <ele>16.2</ele>
        <time>2021-05-27T15:36:25Z</time>
      </trkpt>
      <trkpt lat="47.67838" lon="-2.20646">
        <ele>16.1</ele>
        <time>2021-05-27T15:36:26Z</time>
      </trkpt>
      <trkpt lat="47.67843" lon="-2.20647">
        <ele>16</ele>
        <time>2021-05-27T15:36:27Z</time>
      </trkpt>
      <trkpt lat="47.67849" lon="-2.20649">
        <ele>15.9</ele>
        <time>2021-05-27T15:36:28Z</time>
      </trkpt>
      <trkpt lat="47.67854" lon="-2.2065">
        <ele>15.8</ele>
        <time>2021-05-27T15:36:29Z</time>
      </trkpt>
      <trkpt lat="47.67859" lon="-2.20651">
        <ele>15.7</ele>
        <time>2021-05-27T15:36:30Z</time>
      </trkpt>
      <trkpt lat="47.67864" lon="-2.20653">
        <ele>15.6</ele>
        <time>2021-05-27T15:36:31Z</time>
      </trkpt>
      <trkpt lat="47.67869" lon="-2.20653">
        <ele>15.4</ele>
        <time>2021-05-27T15:36:32Z</time>
      </trkpt>
      <trkpt lat="47.67875" lon="-2.20654">
        <ele>15.3</ele>
        <time>2021-05-27T15:36:33Z</time>
      </trkpt>
      <trkpt lat="47.6788" lon="-2.20654">
        <ele>15.1</ele>
        <time>2021-05-27T15:36:34Z</time>
      </trkpt>
      <trkpt lat="47.67886" lon="-2.20654">
        <ele>14.9</ele>
        <time>2021-05-27T15:36:35Z</time>
      </trkpt>
      <trkpt lat="47.67892" lon="-2.20654">
        <ele>14.7</ele>
        <time>2021-05-27T15:36:36Z</time>
      </trkpt>
      <trkpt lat="47.67899" lon="-2.20653">
        <ele>14.5</ele>
        <time>2021-05-27T15:36:37Z</time>
      </trkpt>
      <trkpt lat="47.67906" lon="-2.20653">
        <ele>14.3</ele>
        <time>2021-05-27T15:36:38Z</time>
      </trkpt>
      <trkpt lat="47.67913" lon="-2.20653">
        <ele>14.1</ele>
        <time>2021-05-27T15:36:39Z</time>
      </trkpt>
      <trkpt lat="47.6792" lon="-2.20654">
        <ele>14.2</ele>
        <time>2021-05-27T15:36:40Z</time>
      </trkpt>
      <trkpt lat="47.67927" lon="-2.20654">
        <ele>14.8</ele>
        <time>2021-05-27T15:36:41Z</time>
      </trkpt>
      <trkpt lat="47.67933" lon="-2.20655">
        <ele>15.3</ele>
        <time>2021-05-27T15:36:42Z</time>
      </trkpt>
      <trkpt lat="47.67939" lon="-2.20655">
        <ele>15.8</ele>
        <time>2021-05-27T15:36:43Z</time>
      </trkpt>
      <trkpt lat="47.67945" lon="-2.20656">
        <ele>16.3</ele>
        <time>2021-05-27T15:36:44Z</time>
      </trkpt>
      <trkpt lat="47.6795" lon="-2.20656">
        <ele>16.7</ele>
        <time>2021-05-27T15:36:45Z</time>
      </trkpt>
      <trkpt lat="47.67955" lon="-2.20656">
        <ele>17</ele>
        <time>2021-05-27T15:36:46Z</time>
      </trkpt>
      <trkpt lat="47.67959" lon="-2.20657">
        <ele>17.3</ele>
        <time>2021-05-27T15:36:47Z</time>
      </trkpt>
      <trkpt lat="47.67963" lon="-2.20657">
        <ele>17.6</ele>
        <time>2021-05-27T15:36:48Z</time>
      </trkpt>
      <trkpt lat="47.67966" lon="-2.20657">
        <ele>17.9</ele>
        <time>2021-05-27T15:36:49Z</time>
      </trkpt>
      <trkpt lat="47.6797" lon="-2.20657">
        <ele>18.2</ele>
        <time>2021-05-27T15:36:50Z</time>
      </trkpt>
      <trkpt lat="47.67974" lon="-2.20657">
        <ele>18.6</ele>
        <time>2021-05-27T15:36:51Z</time>
      </trkpt>
      <trkpt lat="47.67978" lon="-2.20657">
        <ele>18.9</ele>
        <time>2021-05-27T15:36:52Z</time>
      </trkpt>
      <trkpt lat="47.67983" lon="-2.20657">
        <ele>19.2</ele>
        <time>2021-05-27T15:36:53Z</time>
      </trkpt>
      <trkpt lat="47.67987" lon="-2.20657">
        <ele>19.6</ele>
        <time>2021-05-27T15:36:54Z</time>
      </trkpt>
      <trkpt lat="47.67991" lon="-2.20656">
        <ele>19.9</ele>
        <time>2021-05-27T15:36:55Z</time>
      </trkpt>
      <trkpt lat="47.67995" lon="-2.20656">
        <ele>20.2</ele>
        <time>2021-05-27T15:36:56Z</time>
      </trkpt>
      <trkpt lat="47.67999" lon="-2.20656">
        <ele>20.6</ele>
        <time>2021-05-27T15:36:57Z</time>
      </trkpt>
      <trkpt lat="47.68003" lon="-2.20656">
        <ele>20.8</ele>
        <time>2021-05-27T15:36:58Z</time>
      </trkpt>
      <trkpt lat="47.68007" lon="-2.20656">
        <ele>21</ele>
        <time>2021-05-27T15:36:59Z</time>
      </trkpt>
      <trkpt lat="47.6801" lon="-2.20656">
        <ele>21.2</ele>
        <time>2021-05-27T15:37:00Z</time>
      </trkpt>
      <trkpt lat="47.68014" lon="-2.20656">
        <ele>21.5</ele>
        <time>2021-05-27T15:37:01Z</time>
      </trkpt>
      <trkpt lat="47.68017" lon="-2.20656">
        <ele>21.7</ele>
        <time>2021-05-27T15:37:02Z</time>
      </trkpt>
      <trkpt lat="47.68021" lon="-2.20657">
        <ele>21.9</ele>
        <time>2021-05-27T15:37:03Z</time>
      </trkpt>
      <trkpt lat="47.68024" lon="-2.20658">
        <ele>22</ele>
        <time>2021-05-27T15:37:04Z</time>
      </trkpt>
      <trkpt lat="47.68028" lon="-2.20658">
        <ele>22.2</ele>
        <time>2021-05-27T15:37:05Z</time>
      </trkpt>
      <trkpt lat="47.68033" lon="-2.20657">
        <ele>22.6</ele>
        <time>2021-05-27T15:37:06Z</time>
      </trkpt>
      <trkpt lat="47.68037" lon="-2.20657">
        <ele>22.9</ele>
        <time>2021-05-27T15:37:07Z</time>
      </trkpt>
      <trkpt lat="47.68041" lon="-2.20657">
        <ele>23.1</ele>
        <time>2021-05-27T15:37:08Z</time>
      </trkpt>
      <trkpt lat="47.68046" lon="-2.20657">
        <ele>23.4</ele>
        <time>2021-05-27T15:37:09Z</time>
      </trkpt>
      <trkpt lat="47.6805" lon="-2.20657">
        <ele>23.6</ele>
        <time>2021-05-27T15:37:10Z</time>
      </trkpt>
      <trkpt lat="47.68054" lon="-2.20658">
        <ele>23.8</ele>
        <time>2021-05-27T15:37:11Z</time>
      </trkpt>
      <trkpt lat="47.68059" lon="-2.20658">
        <ele>24.1</ele>
        <time>2021-05-27T15:37:12Z</time>
      </trkpt>
      <trkpt lat="47.68063" lon="-2.20659">
        <ele>24.4</ele>
        <time>2021-05-27T15:37:13Z</time>
      </trkpt>
      <trkpt lat="47.68068" lon="-2.2066">
        <ele>24.5</ele>
        <time>2021-05-27T15:37:14Z</time>
      </trkpt>
      <trkpt lat="47.68072" lon="-2.20662">
        <ele>24.7</ele>
        <time>2021-05-27T15:37:15Z</time>
      </trkpt>
      <trkpt lat="47.68076" lon="-2.20664">
        <ele>24.7</ele>
        <time>2021-05-27T15:37:16Z</time>
      </trkpt>
      <trkpt lat="47.6808" lon="-2.20667">
        <ele>24.8</ele>
        <time>2021-05-27T15:37:17Z</time>
      </trkpt>
      <trkpt lat="47.68083" lon="-2.2067">
        <ele>25.1</ele>
        <time>2021-05-27T15:37:18Z</time>
      </trkpt>
      <trkpt lat="47.68087" lon="-2.20673">
        <ele>25.4</ele>
        <time>2021-05-27T15:37:19Z</time>
      </trkpt>
      <trkpt lat="47.68091" lon="-2.20675">
        <ele>25.7</ele>
        <time>2021-05-27T15:37:20Z</time>
      </trkpt>
      <trkpt lat="47.68095" lon="-2.20678">
        <ele>26</ele>
        <time>2021-05-27T15:37:21Z</time>
      </trkpt>
      <trkpt lat="47.68099" lon="-2.2068">
        <ele>26.3</ele>
        <time>2021-05-27T15:37:22Z</time>
      </trkpt>
      <trkpt lat="47.68103" lon="-2.20683">
        <ele>26.6</ele>
        <time>2021-05-27T15:37:23Z</time>
      </trkpt>
      <trkpt lat="47.68108" lon="-2.20685">
        <ele>26.9</ele>
        <time>2021-05-27T15:37:24Z</time>
      </trkpt>
      <trkpt lat="47.68111" lon="-2.20687">
        <ele>27.1</ele>
        <time>2021-05-27T15:37:25Z</time>
      </trkpt>
      <trkpt lat="47.68115" lon="-2.20689">
        <ele>27.3</ele>
        <time>2021-05-27T15:37:26Z</time>
      </trkpt>
      <trkpt lat="47.68117" lon="-2.2069">
        <ele>27.4</ele>
        <time>2021-05-27T15:37:27Z</time>
      </trkpt>
      <trkpt lat="47.68121" lon="-2.20691">
        <ele>27.6</ele>
        <time>2021-05-27T15:37:28Z</time>
      </trkpt>
      <trkpt lat="47.68124" lon="-2.20692">
        <ele>27.8</ele>
        <time>2021-05-27T15:37:29Z</time>
      </trkpt>
      <trkpt lat="47.68128" lon="-2.20693">
        <ele>27.9</ele>
        <time>2021-05-27T15:37:30Z</time>
      </trkpt>
      <trkpt lat="47.68132" lon="-2.20694">
        <ele>28.1</ele>
        <time>2021-05-27T15:37:31Z</time>
      </trkpt>
      <trkpt lat="47.68136" lon="-2.20694">
        <ele>28.3</ele>
        <time>2021-05-27T15:37:32Z</time>
      </trkpt>
      <trkpt lat="47.6814" lon="-2.20697">
        <ele>28.5</ele>
        <time>2021-05-27T15:37:33Z</time>
      </trkpt>
      <trkpt lat="47.68145" lon="-2.207">
        <ele>28.7</ele>
        <time>2021-05-27T15:37:34Z</time>
      </trkpt>
      <trkpt lat="47.68149" lon="-2.20703">
        <ele>28.9</ele>
        <time>2021-05-27T15:37:35Z</time>
      </trkpt>
      <trkpt lat="47.68153" lon="-2.207">
        <ele>29</ele>
        <time>2021-05-27T15:37:36Z</time>
      </trkpt>
      <trkpt lat="47.68158" lon="-2.207">
        <ele>29.3</ele>
        <time>2021-05-27T15:37:37Z</time>
      </trkpt>
      <trkpt lat="47.68161" lon="-2.20703">
        <ele>29.3</ele>
        <time>2021-05-27T15:37:38Z</time>
      </trkpt>
      <trkpt lat="47.68161" lon="-2.20707">
        <ele>29.3</ele>
        <time>2021-05-27T15:37:39Z</time>
      </trkpt>
      <trkpt lat="47.68162" lon="-2.20712">
        <ele>29.3</ele>
        <time>2021-05-27T15:37:40Z</time>
      </trkpt>
      <trkpt lat="47.68162" lon="-2.20717">
        <ele>29.3</ele>
        <time>2021-05-27T15:37:41Z</time>
      </trkpt>
      <trkpt lat="47.68162" lon="-2.20722">
        <ele>29.2</ele>
        <time>2021-05-27T15:37:42Z</time>
      </trkpt>
      <trkpt lat="47.68162" lon="-2.20727">
        <ele>29.2</ele>
        <time>2021-05-27T15:37:43Z</time>
      </trkpt>
      <trkpt lat="47.68162" lon="-2.20733">
        <ele>29.1</ele>
        <time>2021-05-27T15:37:44Z</time>
      </trkpt>
      <trkpt lat="47.68162" lon="-2.20739">
        <ele>29.1</ele>
        <time>2021-05-27T15:37:45Z</time>
      </trkpt>
      <trkpt lat="47.68162" lon="-2.20745">
        <ele>29</ele>
        <time>2021-05-27T15:37:46Z</time>
      </trkpt>
      <trkpt lat="47.68162" lon="-2.2075">
        <ele>28.9</ele>
        <time>2021-05-27T15:37:47Z</time>
      </trkpt>
      <trkpt lat="47.68162" lon="-2.20756">
        <ele>29.1</ele>
        <time>2021-05-27T15:37:48Z</time>
      </trkpt>
      <trkpt lat="47.68162" lon="-2.20762">
        <ele>29.3</ele>
        <time>2021-05-27T15:37:49Z</time>
      </trkpt>
      <trkpt lat="47.68162" lon="-2.20768">
        <ele>29.6</ele>
        <time>2021-05-27T15:37:50Z</time>
      </trkpt>
      <trkpt lat="47.68162" lon="-2.20774">
        <ele>29.8</ele>
        <time>2021-05-27T15:37:51Z</time>
      </trkpt>
      <trkpt lat="47.68163" lon="-2.20779">
        <ele>30</ele>
        <time>2021-05-27T15:37:52Z</time>
      </trkpt>
      <trkpt lat="47.68163" lon="-2.20785">
        <ele>30.2</ele>
        <time>2021-05-27T15:37:53Z</time>
      </trkpt>
      <trkpt lat="47.68164" lon="-2.20791">
        <ele>30.4</ele>
        <time>2021-05-27T15:37:54Z</time>
      </trkpt>
      <trkpt lat="47.68164" lon="-2.20798">
        <ele>30.7</ele>
        <time>2021-05-27T15:37:55Z</time>
      </trkpt>
      <trkpt lat="47.68164" lon="-2.20804">
        <ele>30.9</ele>
        <time>2021-05-27T15:37:56Z</time>
      </trkpt>
      <trkpt lat="47.68164" lon="-2.20809">
        <ele>31.1</ele>
        <time>2021-05-27T15:37:57Z</time>
      </trkpt>
      <trkpt lat="47.68164" lon="-2.20815">
        <ele>31.3</ele>
        <time>2021-05-27T15:37:58Z</time>
      </trkpt>
      <trkpt lat="47.68164" lon="-2.20821">
        <ele>31.5</ele>
        <time>2021-05-27T15:37:59Z</time>
      </trkpt>
      <trkpt lat="47.68164" lon="-2.20827">
        <ele>31.7</ele>
        <time>2021-05-27T15:38:00Z</time>
      </trkpt>
      <trkpt lat="47.68165" lon="-2.20833">
        <ele>31.9</ele>
        <time>2021-05-27T15:38:01Z</time>
      </trkpt>
      <trkpt lat="47.68165" lon="-2.20839">
        <ele>32.2</ele>
        <time>2021-05-27T15:38:02Z</time>
      </trkpt>
      <trkpt lat="47.68165" lon="-2.20845">
        <ele>32.4</ele>
        <time>2021-05-27T15:38:03Z</time>
      </trkpt>
      <trkpt lat="47.68165" lon="-2.20852">
        <ele>32.6</ele>
        <time>2021-05-27T15:38:04Z</time>
      </trkpt>
      <trkpt lat="47.68165" lon="-2.20858">
        <ele>32.8</ele>
        <time>2021-05-27T15:38:05Z</time>
      </trkpt>
      <trkpt lat="47.68166" lon="-2.20864">
        <ele>33.1</ele>
        <time>2021-05-27T15:38:06Z</time>
      </trkpt>
      <trkpt lat="47.68166" lon="-2.2087">
        <ele>33.3</ele>
        <time>2021-05-27T15:38:07Z</time>
      </trkpt>
      <trkpt lat="47.68166" lon="-2.20877">
        <ele>33.5</ele>
        <time>2021-05-27T15:38:08Z</time>
      </trkpt>
      <trkpt lat="47.68167" lon="-2.20882">
        <ele>33.8</ele>
        <time>2021-05-27T15:38:09Z</time>
      </trkpt>
      <trkpt lat="47.68168" lon="-2.20889">
        <ele>34</ele>
        <time>2021-05-27T15:38:10Z</time>
      </trkpt>
      <trkpt lat="47.68168" lon="-2.20894">
        <ele>34.3</ele>
        <time>2021-05-27T15:38:11Z</time>
      </trkpt>
      <trkpt lat="47.68169" lon="-2.209">
        <ele>34.5</ele>
        <time>2021-05-27T15:38:12Z</time>
      </trkpt>
      <trkpt lat="47.68169" lon="-2.20906">
        <ele>34.7</ele>
        <time>2021-05-27T15:38:13Z</time>
      </trkpt>
      <trkpt lat="47.6817" lon="-2.20911">
        <ele>34.9</ele>
        <time>2021-05-27T15:38:14Z</time>
      </trkpt>
      <trkpt lat="47.68171" lon="-2.20916">
        <ele>35.1</ele>
        <time>2021-05-27T15:38:15Z</time>
      </trkpt>
      <trkpt lat="47.68172" lon="-2.20922">
        <ele>35.3</ele>
        <time>2021-05-27T15:38:16Z</time>
      </trkpt>
      <trkpt lat="47.68173" lon="-2.20928">
        <ele>35.5</ele>
        <time>2021-05-27T15:38:17Z</time>
      </trkpt>
      <trkpt lat="47.68174" lon="-2.20935">
        <ele>35.7</ele>
        <time>2021-05-27T15:38:18Z</time>
      </trkpt>
      <trkpt lat="47.68175" lon="-2.20941">
        <ele>35.9</ele>
        <time>2021-05-27T15:38:19Z</time>
      </trkpt>
      <trkpt lat="47.68177" lon="-2.20947">
        <ele>36.1</ele>
        <time>2021-05-27T15:38:20Z</time>
      </trkpt>
      <trkpt lat="47.68178" lon="-2.20953">
        <ele>36.3</ele>
        <time>2021-05-27T15:38:21Z</time>
      </trkpt>
      <trkpt lat="47.68179" lon="-2.20959">
        <ele>36.5</ele>
        <time>2021-05-27T15:38:22Z</time>
      </trkpt>
      <trkpt lat="47.6818" lon="-2.20965">
        <ele>36.7</ele>
        <time>2021-05-27T15:38:23Z</time>
      </trkpt>
      <trkpt lat="47.68181" lon="-2.20971">
        <ele>36.8</ele>
        <time>2021-05-27T15:38:24Z</time>
      </trkpt>
      <trkpt lat="47.68182" lon="-2.20978">
        <ele>37</ele>
        <time>2021-05-27T15:38:25Z</time>
      </trkpt>
      <trkpt lat="47.68183" lon="-2.20983">
        <ele>37.2</ele>
        <time>2021-05-27T15:38:26Z</time>
      </trkpt>
      <trkpt lat="47.68184" lon="-2.20989">
        <ele>37.4</ele>
        <time>2021-05-27T15:38:27Z</time>
      </trkpt>
      <trkpt lat="47.68186" lon="-2.20995">
        <ele>37.6</ele>
        <time>2021-05-27T15:38:28Z</time>
      </trkpt>
      <trkpt lat="47.68188" lon="-2.21001">
        <ele>37.8</ele>
        <time>2021-05-27T15:38:29Z</time>
      </trkpt>
      <trkpt lat="47.6819" lon="-2.21007">
        <ele>37.9</ele>
        <time>2021-05-27T15:38:30Z</time>
      </trkpt>
      <trkpt lat="47.68191" lon="-2.21013">
        <ele>38.1</ele>
        <time>2021-05-27T15:38:31Z</time>
      </trkpt>
      <trkpt lat="47.68192" lon="-2.21018">
        <ele>38.2</ele>
        <time>2021-05-27T15:38:32Z</time>
      </trkpt>
      <trkpt lat="47.68193" lon="-2.21024">
        <ele>38.3</ele>
        <time>2021-05-27T15:38:33Z</time>
      </trkpt>
      <trkpt lat="47.68194" lon="-2.2103">
        <ele>38.5</ele>
        <time>2021-05-27T15:38:34Z</time>
      </trkpt>
      <trkpt lat="47.68196" lon="-2.21036">
        <ele>38.6</ele>
        <time>2021-05-27T15:38:35Z</time>
      </trkpt>
      <trkpt lat="47.68197" lon="-2.21042">
        <ele>38.8</ele>
        <time>2021-05-27T15:38:36Z</time>
      </trkpt>
      <trkpt lat="47.68199" lon="-2.21048">
        <ele>39.1</ele>
        <time>2021-05-27T15:38:37Z</time>
      </trkpt>
      <trkpt lat="47.68201" lon="-2.21054">
        <ele>39.3</ele>
        <time>2021-05-27T15:38:38Z</time>
      </trkpt>
      <trkpt lat="47.68203" lon="-2.2106">
        <ele>39.5</ele>
        <time>2021-05-27T15:38:39Z</time>
      </trkpt>
      <trkpt lat="47.68204" lon="-2.21065">
        <ele>39.8</ele>
        <time>2021-05-27T15:38:40Z</time>
      </trkpt>
      <trkpt lat="47.68206" lon="-2.21071">
        <ele>40</ele>
        <time>2021-05-27T15:38:41Z</time>
      </trkpt>
      <trkpt lat="47.68207" lon="-2.21076">
        <ele>40.2</ele>
        <time>2021-05-27T15:38:42Z</time>
      </trkpt>
      <trkpt lat="47.68208" lon="-2.21082">
        <ele>40.5</ele>
        <time>2021-05-27T15:38:43Z</time>
      </trkpt>
      <trkpt lat="47.6821" lon="-2.21087">
        <ele>40.7</ele>
        <time>2021-05-27T15:38:44Z</time>
      </trkpt>
      <trkpt lat="47.68211" lon="-2.21092">
        <ele>41</ele>
        <time>2021-05-27T15:38:45Z</time>
      </trkpt>
      <trkpt lat="47.68213" lon="-2.21098">
        <ele>41.2</ele>
        <time>2021-05-27T15:38:46Z</time>
      </trkpt>
      <trkpt lat="47.68214" lon="-2.21104">
        <ele>41.5</ele>
        <time>2021-05-27T15:38:47Z</time>
      </trkpt>
      <trkpt lat="47.68216" lon="-2.2111">
        <ele>41.8</ele>
        <time>2021-05-27T15:38:48Z</time>
      </trkpt>
      <trkpt lat="47.68218" lon="-2.21116">
        <ele>42.1</ele>
        <time>2021-05-27T15:38:49Z</time>
      </trkpt>
      <trkpt lat="47.68221" lon="-2.21121">
        <ele>42.4</ele>
        <time>2021-05-27T15:38:50Z</time>
      </trkpt>
      <trkpt lat="47.68223" lon="-2.21127">
        <ele>42.8</ele>
        <time>2021-05-27T15:38:51Z</time>
      </trkpt>
      <trkpt lat="47.68226" lon="-2.21132">
        <ele>43.1</ele>
        <time>2021-05-27T15:38:52Z</time>
      </trkpt>
      <trkpt lat="47.68229" lon="-2.21137">
        <ele>43.5</ele>
        <time>2021-05-27T15:38:53Z</time>
      </trkpt>
      <trkpt lat="47.68231" lon="-2.21142">
        <ele>43.8</ele>
        <time>2021-05-27T15:38:54Z</time>
      </trkpt>
      <trkpt lat="47.68234" lon="-2.21146">
        <ele>44.2</ele>
        <time>2021-05-27T15:38:55Z</time>
      </trkpt>
      <trkpt lat="47.68237" lon="-2.21151">
        <ele>44.6</ele>
        <time>2021-05-27T15:38:56Z</time>
      </trkpt>
      <trkpt lat="47.6824" lon="-2.21155">
        <ele>44.9</ele>
        <time>2021-05-27T15:38:57Z</time>
      </trkpt>
      <trkpt lat="47.68244" lon="-2.21159">
        <ele>45.3</ele>
        <time>2021-05-27T15:38:58Z</time>
      </trkpt>
      <trkpt lat="47.68247" lon="-2.21163">
        <ele>45.7</ele>
        <time>2021-05-27T15:38:59Z</time>
      </trkpt>
      <trkpt lat="47.6825" lon="-2.21168">
        <ele>46</ele>
        <time>2021-05-27T15:39:00Z</time>
      </trkpt>
      <trkpt lat="47.68253" lon="-2.21172">
        <ele>46.1</ele>
        <time>2021-05-27T15:39:01Z</time>
      </trkpt>
      <trkpt lat="47.68256" lon="-2.21176">
        <ele>46.1</ele>
        <time>2021-05-27T15:39:02Z</time>
      </trkpt>
      <trkpt lat="47.6826" lon="-2.21181">
        <ele>46.2</ele>
        <time>2021-05-27T15:39:03Z</time>
      </trkpt>
      <trkpt lat="47.68263" lon="-2.21185">
        <ele>46.4</ele>
        <time>2021-05-27T15:39:04Z</time>
      </trkpt>
      <trkpt lat="47.68267" lon="-2.21189">
        <ele>46.5</ele>
        <time>2021-05-27T15:39:05Z</time>
      </trkpt>
      <trkpt lat="47.6827" lon="-2.21193">
        <ele>46.6</ele>
        <time>2021-05-27T15:39:06Z</time>
      </trkpt>
      <trkpt lat="47.68273" lon="-2.21198">
        <ele>46.8</ele>
        <time>2021-05-27T15:39:07Z</time>
      </trkpt>
      <trkpt lat="47.68277" lon="-2.21202">
        <ele>47</ele>
        <time>2021-05-27T15:39:08Z</time>
      </trkpt>
      <trkpt lat="47.6828" lon="-2.21207">
        <ele>47.1</ele>
        <time>2021-05-27T15:39:09Z</time>
      </trkpt>
      <trkpt lat="47.68284" lon="-2.21211">
        <ele>47.3</ele>
        <time>2021-05-27T15:39:10Z</time>
      </trkpt>
      <trkpt lat="47.68288" lon="-2.21215">
        <ele>47.6</ele>
        <time>2021-05-27T15:39:11Z</time>
      </trkpt>
      <trkpt lat="47.68291" lon="-2.21219">
        <ele>47.8</ele>
        <time>2021-05-27T15:39:12Z</time>
      </trkpt>
      <trkpt lat="47.68295" lon="-2.21224">
        <ele>48</ele>
        <time>2021-05-27T15:39:13Z</time>
      </trkpt>
      <trkpt lat="47.68298" lon="-2.21228">
        <ele>48.3</ele>
        <time>2021-05-27T15:39:14Z</time>
      </trkpt>
      <trkpt lat="47.68302" lon="-2.21231">
        <ele>48.5</ele>
        <time>2021-05-27T15:39:15Z</time>
      </trkpt>
      <trkpt lat="47.68305" lon="-2.21235">
        <ele>48.8</ele>
        <time>2021-05-27T15:39:16Z</time>
      </trkpt>
      <trkpt lat="47.68308" lon="-2.21239">
        <ele>49</ele>
        <time>2021-05-27T15:39:17Z</time>
      </trkpt>
      <trkpt lat="47.68312" lon="-2.21243">
        <ele>49.3</ele>
        <time>2021-05-27T15:39:18Z</time>
      </trkpt>
      <trkpt lat="47.68316" lon="-2.21247">
        <ele>49.7</ele>
        <time>2021-05-27T15:39:19Z</time>
      </trkpt>
      <trkpt lat="47.68321" lon="-2.2125">
        <ele>50.1</ele>
        <time>2021-05-27T15:39:20Z</time>
      </trkpt>
      <trkpt lat="47.68325" lon="-2.21254">
        <ele>50.4</ele>
        <time>2021-05-27T15:39:21Z</time>
      </trkpt>
      <trkpt lat="47.6833" lon="-2.21258">
        <ele>50.7</ele>
        <time>2021-05-27T15:39:22Z</time>
      </trkpt>
      <trkpt lat="47.68334" lon="-2.21261">
        <ele>50.9</ele>
        <time>2021-05-27T15:39:23Z</time>
      </trkpt>
      <trkpt lat="47.68338" lon="-2.21264">
        <ele>51.1</ele>
        <time>2021-05-27T15:39:24Z</time>
      </trkpt>
      <trkpt lat="47.68342" lon="-2.21267">
        <ele>51.2</ele>
        <time>2021-05-27T15:39:25Z</time>
      </trkpt>
      <trkpt lat="47.68346" lon="-2.21271">
        <ele>51.4</ele>
        <time>2021-05-27T15:39:26Z</time>
      </trkpt>
      <trkpt lat="47.6835" lon="-2.21274">
        <ele>51.5</ele>
        <time>2021-05-27T15:39:27Z</time>
      </trkpt>
      <trkpt lat="47.68353" lon="-2.21277">
        <ele>51.6</ele>
        <time>2021-05-27T15:39:28Z</time>
      </trkpt>
      <trkpt lat="47.68357" lon="-2.2128">
        <ele>51.8</ele>
        <time>2021-05-27T15:39:29Z</time>
      </trkpt>
      <trkpt lat="47.68361" lon="-2.21283">
        <ele>51.9</ele>
        <time>2021-05-27T15:39:30Z</time>
      </trkpt>
      <trkpt lat="47.68364" lon="-2.21286">
        <ele>52.1</ele>
        <time>2021-05-27T15:39:31Z</time>
      </trkpt>
      <trkpt lat="47.68368" lon="-2.21289">
        <ele>52.2</ele>
        <time>2021-05-27T15:39:32Z</time>
      </trkpt>
      <trkpt lat="47.68371" lon="-2.21291">
        <ele>52.3</ele>
        <time>2021-05-27T15:39:33Z</time>
      </trkpt>
      <trkpt lat="47.68375" lon="-2.21293">
        <ele>52.5</ele>
        <time>2021-05-27T15:39:34Z</time>
      </trkpt>
      <trkpt lat="47.68378" lon="-2.21295">
        <ele>52.6</ele>
        <time>2021-05-27T15:39:35Z</time>
      </trkpt>
      <trkpt lat="47.68381" lon="-2.21297">
        <ele>52.7</ele>
        <time>2021-05-27T15:39:36Z</time>
      </trkpt>
      <trkpt lat="47.68384" lon="-2.21299">
        <ele>52.8</ele>
        <time>2021-05-27T15:39:37Z</time>
      </trkpt>
      <trkpt lat="47.68387" lon="-2.21302">
        <ele>52.9</ele>
        <time>2021-05-27T15:39:38Z</time>
      </trkpt>
      <trkpt lat="47.6839" lon="-2.21306">
        <ele>53.1</ele>
        <time>2021-05-27T15:39:39Z</time>
      </trkpt>
      <trkpt lat="47.68394" lon="-2.2131">
        <ele>53.2</ele>
        <time>2021-05-27T15:39:40Z</time>
      </trkpt>
      <trkpt lat="47.68398" lon="-2.21316">
        <ele>53.3</ele>
        <time>2021-05-27T15:39:41Z</time>
      </trkpt>
      <trkpt lat="47.68401" lon="-2.21321">
        <ele>53.4</ele>
        <time>2021-05-27T15:39:42Z</time>
      </trkpt>
      <trkpt lat="47.68403" lon="-2.21327">
        <ele>53.4</ele>
        <time>2021-05-27T15:39:43Z</time>
      </trkpt>
      <trkpt lat="47.68405" lon="-2.21334">
        <ele>53.4</ele>
        <time>2021-05-27T15:39:44Z</time>
      </trkpt>
      <trkpt lat="47.68408" lon="-2.21342">
        <ele>53.3</ele>
        <time>2021-05-27T15:39:45Z</time>
      </trkpt>
      <trkpt lat="47.6841" lon="-2.21349">
        <ele>53.1</ele>
        <time>2021-05-27T15:39:46Z</time>
      </trkpt>
      <trkpt lat="47.68411" lon="-2.21355">
        <ele>53</ele>
        <time>2021-05-27T15:39:47Z</time>
      </trkpt>
      <trkpt lat="47.68413" lon="-2.21361">
        <ele>52.8</ele>
        <time>2021-05-27T15:39:48Z</time>
      </trkpt>
      <trkpt lat="47.68414" lon="-2.21367">
        <ele>52.7</ele>
        <time>2021-05-27T15:39:49Z</time>
      </trkpt>
      <trkpt lat="47.68416" lon="-2.21374">
        <ele>52.5</ele>
        <time>2021-05-27T15:39:50Z</time>
      </trkpt>
      <trkpt lat="47.68416" lon="-2.2138">
        <ele>52.3</ele>
        <time>2021-05-27T15:39:51Z</time>
      </trkpt>
      <trkpt lat="47.68418" lon="-2.21386">
        <ele>52.1</ele>
        <time>2021-05-27T15:39:52Z</time>
      </trkpt>
      <trkpt lat="47.6842" lon="-2.2139">
        <ele>52.1</ele>
        <time>2021-05-27T15:39:53Z</time>
      </trkpt>
      <trkpt lat="47.68422" lon="-2.21395">
        <ele>52</ele>
        <time>2021-05-27T15:39:54Z</time>
      </trkpt>
      <trkpt lat="47.68423" lon="-2.21399">
        <ele>51.9</ele>
        <time>2021-05-27T15:39:55Z</time>
      </trkpt>
      <trkpt lat="47.68423" lon="-2.21404">
        <ele>51.8</ele>
        <time>2021-05-27T15:39:56Z</time>
      </trkpt>
      <trkpt lat="47.68423" lon="-2.21409">
        <ele>51.6</ele>
        <time>2021-05-27T15:39:57Z</time>
      </trkpt>
      <trkpt lat="47.68421" lon="-2.21413">
        <ele>51.4</ele>
        <time>2021-05-27T15:39:58Z</time>
      </trkpt>
      <trkpt lat="47.68419" lon="-2.21416">
        <ele>51.1</ele>
        <time>2021-05-27T15:39:59Z</time>
      </trkpt>
      <trkpt lat="47.68416" lon="-2.21417">
        <ele>51</ele>
        <time>2021-05-27T15:40:00Z</time>
      </trkpt>
      <trkpt lat="47.68412" lon="-2.21416">
        <ele>50.9</ele>
        <time>2021-05-27T15:40:01Z</time>
      </trkpt>
      <trkpt lat="47.68409" lon="-2.21413">
        <ele>51</ele>
        <time>2021-05-27T15:40:02Z</time>
      </trkpt>
      <trkpt lat="47.68406" lon="-2.2141">
        <ele>51</ele>
        <time>2021-05-27T15:40:03Z</time>
      </trkpt>
      <trkpt lat="47.68404" lon="-2.21407">
        <ele>51</ele>
        <time>2021-05-27T15:40:04Z</time>
      </trkpt>
      <trkpt lat="47.68402" lon="-2.21405">
        <ele>51</ele>
        <time>2021-05-27T15:40:05Z</time>
      </trkpt>
      <trkpt lat="47.684" lon="-2.21403">
        <ele>51</ele>
        <time>2021-05-27T15:40:06Z</time>
      </trkpt>
      <trkpt lat="47.68399" lon="-2.21402">
        <ele>51</ele>
        <time>2021-05-27T15:40:07Z</time>
      </trkpt>
      <trkpt lat="47.68399" lon="-2.21402">
        <ele>51</ele>
        <time>2021-05-27T15:40:08Z</time>
      </trkpt>
      <trkpt lat="47.68399" lon="-2.21402">
        <ele>51</ele>
        <time>2021-05-27T15:40:09Z</time>
      </trkpt>
      <trkpt lat="47.68399" lon="-2.21402">
        <ele>51</ele>
        <time>2021-05-27T15:40:10Z</time>
      </trkpt>
      <trkpt lat="47.68399" lon="-2.21402">
        <ele>51</ele>
        <time>2021-05-27T15:40:11Z</time>
      </trkpt>
      <trkpt lat="47.68399" lon="-2.21402">
        <ele>51</ele>
        <time>2021-05-27T15:40:12Z</time>
      </trkpt>
    </trkseg>
  </trk>
</gpx>